<?xml version="1.0"?>
<gpx
 version="1.1"
 creator="Satmap Active 20"
 xmlns:xsi="http://www.w3.org/2001/XMLSchema-instance"
 xmlns="http://www.topografix.com/GPX/1/1"
 xmlns:satmap="http://www.satmap.com/updates/xmlschemas/GpxExtensions/v2/GpxExtensions_v2.xsd"
 xsi:schemaLocation="http://www.topografix.com/GPX/1/1 http://www.topografix.com/GPX/1/1/gpx.xsd">
<metadata>
<time>2021-11-13T08:49:40Z</time>
<extensions>
<satmap:platform>43</satmap:platform>
<satmap:software version="3.12.831">SM15.exe</satmap:software>
<satmap:username>Jim Grant</satmap:username>
<satmap:network_ids>
<satmap:network_id type="wifi">00-23-A7-EC-D5-78</satmap:network_id>
<satmap:network_id type="bluetooth">80-BB-EB-D7-5B-7C</satmap:network_id>
</satmap:network_ids>
<satmap:snap_type>simple</satmap:snap_type>
</extensions>
</metadata>
<trk>
<name>2021-11-13_0849</name>
<desc>Track 1</desc>
<number>1</number>
<trkseg>
<trkpt lat="53.241210" lon="-1.974103"><ele>430</ele><time>2021-11-13T08:49:40Z</time><name>PT1</name></trkpt>
<trkpt lat="53.241215" lon="-1.974110"><ele>429</ele><time>2021-11-13T08:49:49Z</time><name>PT2</name></trkpt>
<trkpt lat="53.241217" lon="-1.974113"><ele>429</ele><time>2021-11-13T08:49:50Z</time><name>PT3</name></trkpt>
<trkpt lat="53.241218" lon="-1.974110"><ele>429</ele><time>2021-11-13T08:49:51Z</time><name>PT4</name></trkpt>
<trkpt lat="53.241217" lon="-1.974103"><ele>429</ele><time>2021-11-13T08:49:52Z</time><name>PT5</name></trkpt>
<trkpt lat="53.241216" lon="-1.974093"><ele>429</ele><time>2021-11-13T08:49:53Z</time><name>PT6</name></trkpt>
<trkpt lat="53.241221" lon="-1.974093"><ele>430</ele><time>2021-11-13T08:49:54Z</time><name>PT7</name></trkpt>
<trkpt lat="53.241229" lon="-1.974091"><ele>429</ele><time>2021-11-13T08:49:55Z</time><name>PT8</name></trkpt>
<trkpt lat="53.241233" lon="-1.974088"><ele>429</ele><time>2021-11-13T08:49:56Z</time><name>PT9</name></trkpt>
<trkpt lat="53.241232" lon="-1.974084"><ele>430</ele><time>2021-11-13T08:49:57Z</time><name>PT10</name></trkpt>
<trkpt lat="53.241237" lon="-1.974086"><ele>430</ele><time>2021-11-13T08:49:58Z</time><name>PT11</name></trkpt>
<trkpt lat="53.241238" lon="-1.974089"><ele>429</ele><time>2021-11-13T08:49:59Z</time><name>PT12</name></trkpt>
<trkpt lat="53.241240" lon="-1.974093"><ele>430</ele><time>2021-11-13T08:50:00Z</time><name>PT13</name></trkpt>
<trkpt lat="53.241240" lon="-1.974092"><ele>430</ele><time>2021-11-13T08:50:01Z</time><name>PT14</name></trkpt>
<trkpt lat="53.241242" lon="-1.974101"><ele>429</ele><time>2021-11-13T08:50:02Z</time><name>PT15</name></trkpt>
<trkpt lat="53.241251" lon="-1.974130"><ele>428</ele><time>2021-11-13T08:50:03Z</time><name>PT16</name></trkpt>
<trkpt lat="53.241248" lon="-1.974129"><ele>429</ele><time>2021-11-13T08:50:04Z</time><name>PT17</name></trkpt>
<trkpt lat="53.241256" lon="-1.974151"><ele>428</ele><time>2021-11-13T08:50:05Z</time><name>PT18</name></trkpt>
<trkpt lat="53.241254" lon="-1.974153"><ele>428</ele><time>2021-11-13T08:50:06Z</time><name>PT19</name></trkpt>
<trkpt lat="53.241250" lon="-1.974156"><ele>428</ele><time>2021-11-13T08:50:07Z</time><name>PT20</name></trkpt>
<trkpt lat="53.241249" lon="-1.974163"><ele>428</ele><time>2021-11-13T08:50:08Z</time><name>PT21</name></trkpt>
<trkpt lat="53.241250" lon="-1.974168"><ele>428</ele><time>2021-11-13T08:50:09Z</time><name>PT22</name></trkpt>
<trkpt lat="53.241246" lon="-1.974171"><ele>429</ele><time>2021-11-13T08:50:14Z</time><name>PT23</name></trkpt>
<trkpt lat="53.241246" lon="-1.974175"><ele>429</ele><time>2021-11-13T08:50:15Z</time><name>PT24</name></trkpt>
<trkpt lat="53.241247" lon="-1.974178"><ele>428</ele><time>2021-11-13T08:50:18Z</time><name>PT25</name></trkpt>
<trkpt lat="53.241248" lon="-1.974174"><ele>428</ele><time>2021-11-13T08:50:19Z</time><name>PT26</name></trkpt>
<trkpt lat="53.241252" lon="-1.974161"><ele>428</ele><time>2021-11-13T08:50:20Z</time><name>PT27</name></trkpt>
<trkpt lat="53.241262" lon="-1.974150"><ele>429</ele><time>2021-11-13T08:50:21Z</time><name>PT28</name></trkpt>
<trkpt lat="53.241270" lon="-1.974144"><ele>429</ele><time>2021-11-13T08:50:22Z</time><name>PT29</name></trkpt>
<trkpt lat="53.241267" lon="-1.974121"><ele>429</ele><time>2021-11-13T08:50:23Z</time><name>PT30</name></trkpt>
<trkpt lat="53.241268" lon="-1.974118"><ele>429</ele><time>2021-11-13T08:50:24Z</time><name>PT31</name></trkpt>
<trkpt lat="53.241272" lon="-1.974115"><ele>429</ele><time>2021-11-13T08:50:25Z</time><name>PT32</name></trkpt>
<trkpt lat="53.241273" lon="-1.974117"><ele>429</ele><time>2021-11-13T08:50:26Z</time><name>PT33</name></trkpt>
<trkpt lat="53.241276" lon="-1.974119"><ele>429</ele><time>2021-11-13T08:50:27Z</time><name>PT34</name></trkpt>
<trkpt lat="53.241276" lon="-1.974118"><ele>429</ele><time>2021-11-13T08:50:28Z</time><name>PT35</name></trkpt>
<trkpt lat="53.241275" lon="-1.974118"><ele>429</ele><time>2021-11-13T08:50:29Z</time><name>PT36</name></trkpt>
<trkpt lat="53.241266" lon="-1.974124"><ele>429</ele><time>2021-11-13T08:50:55Z</time><name>PT37</name></trkpt>
<trkpt lat="53.241270" lon="-1.974138"><ele>429</ele><time>2021-11-13T08:50:56Z</time><name>PT38</name></trkpt>
<trkpt lat="53.241267" lon="-1.974150"><ele>429</ele><time>2021-11-13T08:50:57Z</time><name>PT39</name></trkpt>
<trkpt lat="53.241265" lon="-1.974158"><ele>429</ele><time>2021-11-13T08:50:58Z</time><name>PT40</name></trkpt>
<trkpt lat="53.241266" lon="-1.974153"><ele>429</ele><time>2021-11-13T08:50:59Z</time><name>PT41</name></trkpt>
<trkpt lat="53.241268" lon="-1.974152"><ele>428</ele><time>2021-11-13T08:51:00Z</time><name>PT42</name></trkpt>
<trkpt lat="53.241272" lon="-1.974154"><ele>427</ele><time>2021-11-13T08:51:26Z</time><name>PT43</name></trkpt>
<trkpt lat="53.241270" lon="-1.974154"><ele>427</ele><time>2021-11-13T08:51:27Z</time><name>PT44</name></trkpt>
<trkpt lat="53.241268" lon="-1.974154"><ele>427</ele><time>2021-11-13T08:51:28Z</time><name>PT45</name></trkpt>
<trkpt lat="53.241265" lon="-1.974152"><ele>426</ele><time>2021-11-13T08:51:29Z</time><name>PT46</name></trkpt>
<trkpt lat="53.241265" lon="-1.974147"><ele>426</ele><time>2021-11-13T08:51:30Z</time><name>PT47</name></trkpt>
<trkpt lat="53.241265" lon="-1.974154"><ele>425</ele><time>2021-11-13T08:52:03Z</time><name>PT48</name></trkpt>
<trkpt lat="53.241261" lon="-1.974163"><ele>424</ele><time>2021-11-13T08:52:04Z</time><name>PT49</name></trkpt>
<trkpt lat="53.241262" lon="-1.974168"><ele>423</ele><time>2021-11-13T08:52:05Z</time><name>PT50</name></trkpt>
<trkpt lat="53.241260" lon="-1.974166"><ele>422</ele><time>2021-11-13T08:52:06Z</time><name>PT51</name></trkpt>
<trkpt lat="53.241254" lon="-1.974163"><ele>423</ele><time>2021-11-13T08:52:07Z</time><name>PT52</name></trkpt>
<trkpt lat="53.241265" lon="-1.974188"><ele>423</ele><time>2021-11-13T08:52:57Z</time><name>PT53</name></trkpt>
<trkpt lat="53.241266" lon="-1.974189"><ele>423</ele><time>2021-11-13T08:52:58Z</time><name>PT54</name></trkpt>
<trkpt lat="53.241266" lon="-1.974190"><ele>424</ele><time>2021-11-13T08:52:59Z</time><name>PT55</name></trkpt>
<trkpt lat="53.241259" lon="-1.974180"><ele>424</ele><time>2021-11-13T08:53:00Z</time><name>PT56</name></trkpt>
<trkpt lat="53.241260" lon="-1.974178"><ele>424</ele><time>2021-11-13T08:53:01Z</time><name>PT57</name></trkpt>
<trkpt lat="53.241256" lon="-1.974177"><ele>424</ele><time>2021-11-13T08:53:02Z</time><name>PT58</name></trkpt>
<trkpt lat="53.241256" lon="-1.974177"><ele>424</ele><time>2021-11-13T08:53:03Z</time><name>PT59</name></trkpt>
<trkpt lat="53.241266" lon="-1.974155"><ele>423</ele><time>2021-11-13T08:53:25Z</time><name>PT60</name></trkpt>
<trkpt lat="53.241266" lon="-1.974155"><ele>423</ele><time>2021-11-13T08:53:26Z</time><name>PT61</name></trkpt>
<trkpt lat="53.241265" lon="-1.974119"><ele>421</ele><time>2021-11-13T08:53:34Z</time><name>PT62</name></trkpt>
<trkpt lat="53.241263" lon="-1.974102"><ele>421</ele><time>2021-11-13T08:53:35Z</time><name>PT63</name></trkpt>
<trkpt lat="53.241267" lon="-1.974106"><ele>421</ele><time>2021-11-13T08:53:46Z</time><name>PT64</name></trkpt>
<trkpt lat="53.241266" lon="-1.974099"><ele>421</ele><time>2021-11-13T08:53:47Z</time><name>PT65</name></trkpt>
<trkpt lat="53.241272" lon="-1.974095"><ele>421</ele><time>2021-11-13T08:53:48Z</time><name>PT66</name></trkpt>
<trkpt lat="53.241276" lon="-1.974092"><ele>420</ele><time>2021-11-13T08:53:49Z</time><name>PT67</name></trkpt>
<trkpt lat="53.241277" lon="-1.974094"><ele>420</ele><time>2021-11-13T08:53:50Z</time><name>PT68</name></trkpt>
<trkpt lat="53.241280" lon="-1.974092"><ele>421</ele><time>2021-11-13T08:53:51Z</time><name>PT69</name></trkpt>
<trkpt lat="53.241283" lon="-1.974094"><ele>420</ele><time>2021-11-13T08:53:52Z</time><name>PT70</name></trkpt>
<trkpt lat="53.241284" lon="-1.974092"><ele>421</ele><time>2021-11-13T08:53:53Z</time><name>PT71</name></trkpt>
<trkpt lat="53.241284" lon="-1.974105"><ele>421</ele><time>2021-11-13T08:54:03Z</time><name>PT72</name></trkpt>
<trkpt lat="53.241284" lon="-1.974105"><ele>422</ele><time>2021-11-13T08:54:04Z</time><name>PT73</name></trkpt>
<trkpt lat="53.241283" lon="-1.974126"><ele>422</ele><time>2021-11-13T08:54:05Z</time><name>PT74</name></trkpt>
<trkpt lat="53.241286" lon="-1.974128"><ele>422</ele><time>2021-11-13T08:54:06Z</time><name>PT75</name></trkpt>
<trkpt lat="53.241280" lon="-1.974135"><ele>422</ele><time>2021-11-13T08:54:20Z</time><name>PT76</name></trkpt>
<trkpt lat="53.241281" lon="-1.974120"><ele>422</ele><time>2021-11-13T08:54:21Z</time><name>PT77</name></trkpt>
<trkpt lat="53.241281" lon="-1.974122"><ele>422</ele><time>2021-11-13T08:54:23Z</time><name>PT78</name></trkpt>
<trkpt lat="53.241287" lon="-1.974136"><ele>423</ele><time>2021-11-13T08:54:24Z</time><name>PT79</name></trkpt>
<trkpt lat="53.241291" lon="-1.974149"><ele>423</ele><time>2021-11-13T08:54:25Z</time><name>PT80</name></trkpt>
<trkpt lat="53.241275" lon="-1.974166"><ele>423</ele><time>2021-11-13T08:54:42Z</time><name>PT81</name></trkpt>
<trkpt lat="53.241275" lon="-1.974170"><ele>422</ele><time>2021-11-13T08:54:43Z</time><name>PT82</name></trkpt>
<trkpt lat="53.241272" lon="-1.974168"><ele>422</ele><time>2021-11-13T08:54:44Z</time><name>PT83</name></trkpt>
<trkpt lat="53.241272" lon="-1.974167"><ele>422</ele><time>2021-11-13T08:54:45Z</time><name>PT84</name></trkpt>
<trkpt lat="53.241272" lon="-1.974164"><ele>422</ele><time>2021-11-13T08:54:48Z</time><name>PT85</name></trkpt>
<trkpt lat="53.241273" lon="-1.974147"><ele>422</ele><time>2021-11-13T08:54:49Z</time><name>PT86</name></trkpt>
<trkpt lat="53.241275" lon="-1.974147"><ele>422</ele><time>2021-11-13T08:54:50Z</time><name>PT87</name></trkpt>
<trkpt lat="53.241275" lon="-1.974150"><ele>422</ele><time>2021-11-13T08:54:51Z</time><name>PT88</name></trkpt>
<trkpt lat="53.241277" lon="-1.974150"><ele>422</ele><time>2021-11-13T08:54:52Z</time><name>PT89</name></trkpt>
<trkpt lat="53.241274" lon="-1.974151"><ele>421</ele><time>2021-11-13T08:54:53Z</time><name>PT90</name></trkpt>
<trkpt lat="53.241271" lon="-1.974160"><ele>421</ele><time>2021-11-13T08:54:54Z</time><name>PT91</name></trkpt>
<trkpt lat="53.241276" lon="-1.974156"><ele>422</ele><time>2021-11-13T08:54:55Z</time><name>PT92</name></trkpt>
<trkpt lat="53.241268" lon="-1.974154"><ele>423</ele><time>2021-11-13T08:54:56Z</time><name>PT93</name></trkpt>
<trkpt lat="53.241267" lon="-1.974161"><ele>423</ele><time>2021-11-13T08:55:08Z</time><name>PT94</name></trkpt>
<trkpt lat="53.241263" lon="-1.974160"><ele>423</ele><time>2021-11-13T08:55:09Z</time><name>PT95</name></trkpt>
<trkpt lat="53.241261" lon="-1.974160"><ele>423</ele><time>2021-11-13T08:55:10Z</time><name>PT96</name></trkpt>
<trkpt lat="53.241256" lon="-1.974157"><ele>424</ele><time>2021-11-13T08:56:00Z</time><name>PT97</name></trkpt>
<trkpt lat="53.241256" lon="-1.974150"><ele>424</ele><time>2021-11-13T08:56:01Z</time><name>PT98</name></trkpt>
<trkpt lat="53.241255" lon="-1.974147"><ele>424</ele><time>2021-11-13T08:56:04Z</time><name>PT99</name></trkpt>
<trkpt lat="53.241257" lon="-1.974142"><ele>424</ele><time>2021-11-13T08:56:07Z</time><name>PT100</name></trkpt>
<trkpt lat="53.241262" lon="-1.974131"><ele>424</ele><time>2021-11-13T08:56:29Z</time><name>PT101</name></trkpt>
<trkpt lat="53.241259" lon="-1.974135"><ele>424</ele><time>2021-11-13T08:56:33Z</time><name>PT102</name></trkpt>
<trkpt lat="53.241260" lon="-1.974142"><ele>424</ele><time>2021-11-13T08:56:44Z</time><name>PT103</name></trkpt>
<trkpt lat="53.241257" lon="-1.974141"><ele>424</ele><time>2021-11-13T08:56:45Z</time><name>PT104</name></trkpt>
<trkpt lat="53.241256" lon="-1.974147"><ele>424</ele><time>2021-11-13T08:56:46Z</time><name>PT105</name></trkpt>
<trkpt lat="53.241260" lon="-1.974142"><ele>424</ele><time>2021-11-13T08:56:47Z</time><name>PT106</name></trkpt>
<trkpt lat="53.241262" lon="-1.974142"><ele>424</ele><time>2021-11-13T08:56:48Z</time><name>PT107</name></trkpt>
<trkpt lat="53.241260" lon="-1.974142"><ele>424</ele><time>2021-11-13T08:56:49Z</time><name>PT108</name></trkpt>
<trkpt lat="53.241260" lon="-1.974137"><ele>423</ele><time>2021-11-13T08:56:50Z</time><name>PT109</name></trkpt>
<trkpt lat="53.241262" lon="-1.974156"><ele>423</ele><time>2021-11-13T08:58:23Z</time><name>PT110</name></trkpt>
<trkpt lat="53.241265" lon="-1.974164"><ele>423</ele><time>2021-11-13T08:58:24Z</time><name>PT111</name></trkpt>
<trkpt lat="53.241267" lon="-1.974164"><ele>423</ele><time>2021-11-13T08:58:25Z</time><name>PT112</name></trkpt>
<trkpt lat="53.241270" lon="-1.974172"><ele>423</ele><time>2021-11-13T08:58:26Z</time><name>PT113</name></trkpt>
<trkpt lat="53.241273" lon="-1.974163"><ele>423</ele><time>2021-11-13T08:58:27Z</time><name>PT114</name></trkpt>
<trkpt lat="53.241278" lon="-1.974144"><ele>424</ele><time>2021-11-13T08:58:28Z</time><name>PT115</name></trkpt>
<trkpt lat="53.241278" lon="-1.974139"><ele>424</ele><time>2021-11-13T08:58:29Z</time><name>PT116</name></trkpt>
<trkpt lat="53.241281" lon="-1.974127"><ele>424</ele><time>2021-11-13T08:58:30Z</time><name>PT117</name></trkpt>
<trkpt lat="53.241281" lon="-1.974124"><ele>425</ele><time>2021-11-13T08:58:31Z</time><name>PT118</name></trkpt>
<trkpt lat="53.241281" lon="-1.974126"><ele>425</ele><time>2021-11-13T08:58:32Z</time><name>PT119</name></trkpt>
<trkpt lat="53.241282" lon="-1.974125"><ele>424</ele><time>2021-11-13T08:58:33Z</time><name>PT120</name></trkpt>
<trkpt lat="53.241282" lon="-1.974125"><ele>425</ele><time>2021-11-13T08:58:34Z</time><name>PT121</name></trkpt>
<trkpt lat="53.241279" lon="-1.974125"><ele>425</ele><time>2021-11-13T08:58:40Z</time><name>PT122</name></trkpt>
<trkpt lat="53.241277" lon="-1.974124"><ele>425</ele><time>2021-11-13T08:58:44Z</time><name>PT123</name></trkpt>
<trkpt lat="53.241286" lon="-1.974103"><ele>427</ele><time>2021-11-13T08:59:11Z</time><name>PT124</name></trkpt>
<trkpt lat="53.241290" lon="-1.974084"><ele>428</ele><time>2021-11-13T08:59:47Z</time><name>PT125</name></trkpt>
<trkpt lat="53.241291" lon="-1.974077"><ele>428</ele><time>2021-11-13T09:00:06Z</time><name>PT126</name></trkpt>
<trkpt lat="53.241287" lon="-1.974075"><ele>429</ele><time>2021-11-13T09:00:42Z</time><name>PT127</name></trkpt>
<trkpt lat="53.241287" lon="-1.974089"><ele>427</ele><time>2021-11-13T09:02:04Z</time><name>PT128</name></trkpt>
<trkpt lat="53.241286" lon="-1.974091"><ele>427</ele><time>2021-11-13T09:02:05Z</time><name>PT129</name></trkpt>
<trkpt lat="53.241286" lon="-1.974092"><ele>426</ele><time>2021-11-13T09:02:06Z</time><name>PT130</name></trkpt>
<trkpt lat="53.241286" lon="-1.974094"><ele>426</ele><time>2021-11-13T09:02:15Z</time><name>PT131</name></trkpt>
<trkpt lat="53.241284" lon="-1.974093"><ele>426</ele><time>2021-11-13T09:02:16Z</time><name>PT132</name></trkpt>
<trkpt lat="53.241283" lon="-1.974085"><ele>426</ele><time>2021-11-13T09:02:17Z</time><name>PT133</name></trkpt>
<trkpt lat="53.241283" lon="-1.974082"><ele>425</ele><time>2021-11-13T09:02:18Z</time><name>PT134</name></trkpt>
<trkpt lat="53.241284" lon="-1.974077"><ele>425</ele><time>2021-11-13T09:02:19Z</time><name>PT135</name></trkpt>
<trkpt lat="53.241289" lon="-1.974074"><ele>425</ele><time>2021-11-13T09:02:22Z</time><name>PT136</name></trkpt>
<trkpt lat="53.241291" lon="-1.974067"><ele>425</ele><time>2021-11-13T09:02:23Z</time><name>PT137</name></trkpt>
<trkpt lat="53.241291" lon="-1.974058"><ele>425</ele><time>2021-11-13T09:02:24Z</time><name>PT138</name></trkpt>
<trkpt lat="53.241291" lon="-1.974051"><ele>425</ele><time>2021-11-13T09:02:25Z</time><name>PT139</name></trkpt>
<trkpt lat="53.241295" lon="-1.974038"><ele>426</ele><time>2021-11-13T09:02:26Z</time><name>PT140</name></trkpt>
<trkpt lat="53.241297" lon="-1.974024"><ele>426</ele><time>2021-11-13T09:02:27Z</time><name>PT141</name></trkpt>
<trkpt lat="53.241299" lon="-1.974011"><ele>426</ele><time>2021-11-13T09:02:28Z</time><name>PT142</name></trkpt>
<trkpt lat="53.241302" lon="-1.974005"><ele>426</ele><time>2021-11-13T09:02:29Z</time><name>PT143</name></trkpt>
<trkpt lat="53.241309" lon="-1.973997"><ele>426</ele><time>2021-11-13T09:02:30Z</time><name>PT144</name></trkpt>
<trkpt lat="53.241312" lon="-1.973988"><ele>426</ele><time>2021-11-13T09:02:31Z</time><name>PT145</name></trkpt>
<trkpt lat="53.241317" lon="-1.973982"><ele>426</ele><time>2021-11-13T09:02:32Z</time><name>PT146</name></trkpt>
<trkpt lat="53.241319" lon="-1.973976"><ele>426</ele><time>2021-11-13T09:02:33Z</time><name>PT147</name></trkpt>
<trkpt lat="53.241320" lon="-1.973964"><ele>426</ele><time>2021-11-13T09:02:34Z</time><name>PT148</name></trkpt>
<trkpt lat="53.241325" lon="-1.973954"><ele>426</ele><time>2021-11-13T09:02:35Z</time><name>PT149</name></trkpt>
<trkpt lat="53.241327" lon="-1.973944"><ele>426</ele><time>2021-11-13T09:02:36Z</time><name>PT150</name></trkpt>
<trkpt lat="53.241332" lon="-1.973933"><ele>426</ele><time>2021-11-13T09:02:37Z</time><name>PT151</name></trkpt>
<trkpt lat="53.241335" lon="-1.973920"><ele>426</ele><time>2021-11-13T09:02:38Z</time><name>PT152</name></trkpt>
<trkpt lat="53.241338" lon="-1.973907"><ele>426</ele><time>2021-11-13T09:02:39Z</time><name>PT153</name></trkpt>
<trkpt lat="53.241344" lon="-1.973892"><ele>426</ele><time>2021-11-13T09:02:40Z</time><name>PT154</name></trkpt>
<trkpt lat="53.241349" lon="-1.973883"><ele>426</ele><time>2021-11-13T09:02:41Z</time><name>PT155</name></trkpt>
<trkpt lat="53.241354" lon="-1.973877"><ele>427</ele><time>2021-11-13T09:02:42Z</time><name>PT156</name></trkpt>
<trkpt lat="53.241357" lon="-1.973872"><ele>427</ele><time>2021-11-13T09:02:43Z</time><name>PT157</name></trkpt>
<trkpt lat="53.241362" lon="-1.973865"><ele>427</ele><time>2021-11-13T09:02:44Z</time><name>PT158</name></trkpt>
<trkpt lat="53.241365" lon="-1.973856"><ele>426</ele><time>2021-11-13T09:02:45Z</time><name>PT159</name></trkpt>
<trkpt lat="53.241367" lon="-1.973846"><ele>427</ele><time>2021-11-13T09:02:46Z</time><name>PT160</name></trkpt>
<trkpt lat="53.241369" lon="-1.973833"><ele>427</ele><time>2021-11-13T09:02:47Z</time><name>PT161</name></trkpt>
<trkpt lat="53.241370" lon="-1.973822"><ele>427</ele><time>2021-11-13T09:02:48Z</time><name>PT162</name></trkpt>
<trkpt lat="53.241374" lon="-1.973810"><ele>427</ele><time>2021-11-13T09:02:49Z</time><name>PT163</name></trkpt>
<trkpt lat="53.241376" lon="-1.973800"><ele>427</ele><time>2021-11-13T09:02:50Z</time><name>PT164</name></trkpt>
<trkpt lat="53.241376" lon="-1.973790"><ele>427</ele><time>2021-11-13T09:02:51Z</time><name>PT165</name></trkpt>
<trkpt lat="53.241377" lon="-1.973778"><ele>427</ele><time>2021-11-13T09:02:52Z</time><name>PT166</name></trkpt>
<trkpt lat="53.241382" lon="-1.973776"><ele>427</ele><time>2021-11-13T09:02:53Z</time><name>PT167</name></trkpt>
<trkpt lat="53.241385" lon="-1.973773"><ele>427</ele><time>2021-11-13T09:02:54Z</time><name>PT168</name></trkpt>
<trkpt lat="53.241389" lon="-1.973769"><ele>428</ele><time>2021-11-13T09:02:55Z</time><name>PT169</name></trkpt>
<trkpt lat="53.241394" lon="-1.973761"><ele>427</ele><time>2021-11-13T09:02:56Z</time><name>PT170</name></trkpt>
<trkpt lat="53.241399" lon="-1.973753"><ele>428</ele><time>2021-11-13T09:02:57Z</time><name>PT171</name></trkpt>
<trkpt lat="53.241404" lon="-1.973743"><ele>428</ele><time>2021-11-13T09:02:58Z</time><name>PT172</name></trkpt>
<trkpt lat="53.241408" lon="-1.973731"><ele>428</ele><time>2021-11-13T09:02:59Z</time><name>PT173</name></trkpt>
<trkpt lat="53.241414" lon="-1.973723"><ele>428</ele><time>2021-11-13T09:03:00Z</time><name>PT174</name></trkpt>
<trkpt lat="53.241421" lon="-1.973714"><ele>428</ele><time>2021-11-13T09:03:01Z</time><name>PT175</name></trkpt>
<trkpt lat="53.241427" lon="-1.973698"><ele>428</ele><time>2021-11-13T09:03:02Z</time><name>PT176</name></trkpt>
<trkpt lat="53.241433" lon="-1.973683"><ele>429</ele><time>2021-11-13T09:03:03Z</time><name>PT177</name></trkpt>
<trkpt lat="53.241437" lon="-1.973661"><ele>431</ele><time>2021-11-13T09:03:04Z</time><name>PT178</name></trkpt>
<trkpt lat="53.241440" lon="-1.973638"><ele>431</ele><time>2021-11-13T09:03:05Z</time><name>PT179</name></trkpt>
<trkpt lat="53.241445" lon="-1.973623"><ele>431</ele><time>2021-11-13T09:03:06Z</time><name>PT180</name></trkpt>
<trkpt lat="53.241448" lon="-1.973606"><ele>431</ele><time>2021-11-13T09:03:07Z</time><name>PT181</name></trkpt>
<trkpt lat="53.241450" lon="-1.973589"><ele>431</ele><time>2021-11-13T09:03:08Z</time><name>PT182</name></trkpt>
<trkpt lat="53.241452" lon="-1.973571"><ele>432</ele><time>2021-11-13T09:03:09Z</time><name>PT183</name></trkpt>
<trkpt lat="53.241456" lon="-1.973551"><ele>432</ele><time>2021-11-13T09:03:10Z</time><name>PT184</name></trkpt>
<trkpt lat="53.241460" lon="-1.973528"><ele>432</ele><time>2021-11-13T09:03:11Z</time><name>PT185</name></trkpt>
<trkpt lat="53.241460" lon="-1.973513"><ele>432</ele><time>2021-11-13T09:03:12Z</time><name>PT186</name></trkpt>
<trkpt lat="53.241461" lon="-1.973493"><ele>432</ele><time>2021-11-13T09:03:13Z</time><name>PT187</name></trkpt>
<trkpt lat="53.241459" lon="-1.973475"><ele>432</ele><time>2021-11-13T09:03:14Z</time><name>PT188</name></trkpt>
<trkpt lat="53.241458" lon="-1.973455"><ele>432</ele><time>2021-11-13T09:03:15Z</time><name>PT189</name></trkpt>
<trkpt lat="53.241458" lon="-1.973435"><ele>432</ele><time>2021-11-13T09:03:16Z</time><name>PT190</name></trkpt>
<trkpt lat="53.241462" lon="-1.973422"><ele>432</ele><time>2021-11-13T09:03:17Z</time><name>PT191</name></trkpt>
<trkpt lat="53.241466" lon="-1.973407"><ele>431</ele><time>2021-11-13T09:03:18Z</time><name>PT192</name></trkpt>
<trkpt lat="53.241461" lon="-1.973389"><ele>431</ele><time>2021-11-13T09:03:19Z</time><name>PT193</name></trkpt>
<trkpt lat="53.241458" lon="-1.973373"><ele>431</ele><time>2021-11-13T09:03:20Z</time><name>PT194</name></trkpt>
<trkpt lat="53.241460" lon="-1.973357"><ele>430</ele><time>2021-11-13T09:03:21Z</time><name>PT195</name></trkpt>
<trkpt lat="53.241458" lon="-1.973341"><ele>430</ele><time>2021-11-13T09:03:22Z</time><name>PT196</name></trkpt>
<trkpt lat="53.241463" lon="-1.973328"><ele>429</ele><time>2021-11-13T09:03:23Z</time><name>PT197</name></trkpt>
<trkpt lat="53.241467" lon="-1.973313"><ele>429</ele><time>2021-11-13T09:03:24Z</time><name>PT198</name></trkpt>
<trkpt lat="53.241469" lon="-1.973293"><ele>429</ele><time>2021-11-13T09:03:25Z</time><name>PT199</name></trkpt>
<trkpt lat="53.241472" lon="-1.973272"><ele>429</ele><time>2021-11-13T09:03:26Z</time><name>PT200</name></trkpt>
<trkpt lat="53.241477" lon="-1.973252"><ele>428</ele><time>2021-11-13T09:03:27Z</time><name>PT201</name></trkpt>
<trkpt lat="53.241479" lon="-1.973233"><ele>428</ele><time>2021-11-13T09:03:28Z</time><name>PT202</name></trkpt>
<trkpt lat="53.241480" lon="-1.973213"><ele>429</ele><time>2021-11-13T09:03:29Z</time><name>PT203</name></trkpt>
<trkpt lat="53.241482" lon="-1.973196"><ele>429</ele><time>2021-11-13T09:03:30Z</time><name>PT204</name></trkpt>
<trkpt lat="53.241481" lon="-1.973173"><ele>431</ele><time>2021-11-13T09:03:31Z</time><name>PT205</name></trkpt>
<trkpt lat="53.241484" lon="-1.973151"><ele>431</ele><time>2021-11-13T09:03:32Z</time><name>PT206</name></trkpt>
<trkpt lat="53.241491" lon="-1.973127"><ele>432</ele><time>2021-11-13T09:03:33Z</time><name>PT207</name></trkpt>
<trkpt lat="53.241492" lon="-1.973105"><ele>432</ele><time>2021-11-13T09:03:34Z</time><name>PT208</name></trkpt>
<trkpt lat="53.241495" lon="-1.973087"><ele>432</ele><time>2021-11-13T09:03:35Z</time><name>PT209</name></trkpt>
<trkpt lat="53.241498" lon="-1.973070"><ele>432</ele><time>2021-11-13T09:03:36Z</time><name>PT210</name></trkpt>
<trkpt lat="53.241503" lon="-1.973055"><ele>432</ele><time>2021-11-13T09:03:37Z</time><name>PT211</name></trkpt>
<trkpt lat="53.241509" lon="-1.973044"><ele>432</ele><time>2021-11-13T09:03:38Z</time><name>PT212</name></trkpt>
<trkpt lat="53.241513" lon="-1.973030"><ele>432</ele><time>2021-11-13T09:03:39Z</time><name>PT213</name></trkpt>
<trkpt lat="53.241515" lon="-1.973013"><ele>432</ele><time>2021-11-13T09:03:40Z</time><name>PT214</name></trkpt>
<trkpt lat="53.241519" lon="-1.972993"><ele>432</ele><time>2021-11-13T09:03:41Z</time><name>PT215</name></trkpt>
<trkpt lat="53.241526" lon="-1.972972"><ele>432</ele><time>2021-11-13T09:03:42Z</time><name>PT216</name></trkpt>
<trkpt lat="53.241532" lon="-1.972957"><ele>433</ele><time>2021-11-13T09:03:43Z</time><name>PT217</name></trkpt>
<trkpt lat="53.241544" lon="-1.972906"><ele>433</ele><time>2021-11-13T09:03:46Z</time><name>PT218</name></trkpt>
<trkpt lat="53.241577" lon="-1.972843"><ele>434</ele><time>2021-11-13T09:03:50Z</time><name>PT219</name></trkpt>
<trkpt lat="53.241618" lon="-1.972785"><ele>434</ele><time>2021-11-13T09:03:54Z</time><name>PT220</name></trkpt>
<trkpt lat="53.241661" lon="-1.972742"><ele>435</ele><time>2021-11-13T09:03:58Z</time><name>PT221</name></trkpt>
<trkpt lat="53.241702" lon="-1.972692"><ele>435</ele><time>2021-11-13T09:04:02Z</time><name>PT222</name></trkpt>
<trkpt lat="53.241746" lon="-1.972653"><ele>435</ele><time>2021-11-13T09:04:06Z</time><name>PT223</name></trkpt>
<trkpt lat="53.241790" lon="-1.972608"><ele>436</ele><time>2021-11-13T09:04:10Z</time><name>PT224</name></trkpt>
<trkpt lat="53.241831" lon="-1.972559"><ele>436</ele><time>2021-11-13T09:04:14Z</time><name>PT225</name></trkpt>
<trkpt lat="53.241873" lon="-1.972508"><ele>436</ele><time>2021-11-13T09:04:18Z</time><name>PT226</name></trkpt>
<trkpt lat="53.241891" lon="-1.972471"><ele>437</ele><time>2021-11-13T09:04:20Z</time><name>PT227</name></trkpt>
<trkpt lat="53.241899" lon="-1.972462"><ele>437</ele><time>2021-11-13T09:04:21Z</time><name>PT228</name></trkpt>
<trkpt lat="53.241908" lon="-1.972450"><ele>437</ele><time>2021-11-13T09:04:22Z</time><name>PT229</name></trkpt>
<trkpt lat="53.241921" lon="-1.972440"><ele>437</ele><time>2021-11-13T09:04:23Z</time><name>PT230</name></trkpt>
<trkpt lat="53.241933" lon="-1.972433"><ele>437</ele><time>2021-11-13T09:04:24Z</time><name>PT231</name></trkpt>
<trkpt lat="53.241943" lon="-1.972424"><ele>437</ele><time>2021-11-13T09:04:25Z</time><name>PT232</name></trkpt>
<trkpt lat="53.241951" lon="-1.972409"><ele>437</ele><time>2021-11-13T09:04:26Z</time><name>PT233</name></trkpt>
<trkpt lat="53.241962" lon="-1.972397"><ele>437</ele><time>2021-11-13T09:04:27Z</time><name>PT234</name></trkpt>
<trkpt lat="53.241973" lon="-1.972382"><ele>438</ele><time>2021-11-13T09:04:28Z</time><name>PT235</name></trkpt>
<trkpt lat="53.241984" lon="-1.972364"><ele>438</ele><time>2021-11-13T09:04:29Z</time><name>PT236</name></trkpt>
<trkpt lat="53.241993" lon="-1.972346"><ele>438</ele><time>2021-11-13T09:04:30Z</time><name>PT237</name></trkpt>
<trkpt lat="53.242001" lon="-1.972332"><ele>438</ele><time>2021-11-13T09:04:31Z</time><name>PT238</name></trkpt>
<trkpt lat="53.242010" lon="-1.972316"><ele>438</ele><time>2021-11-13T09:04:32Z</time><name>PT239</name></trkpt>
<trkpt lat="53.242018" lon="-1.972302"><ele>439</ele><time>2021-11-13T09:04:33Z</time><name>PT240</name></trkpt>
<trkpt lat="53.242025" lon="-1.972286"><ele>438</ele><time>2021-11-13T09:04:34Z</time><name>PT241</name></trkpt>
<trkpt lat="53.242033" lon="-1.972270"><ele>438</ele><time>2021-11-13T09:04:35Z</time><name>PT242</name></trkpt>
<trkpt lat="53.242040" lon="-1.972254"><ele>438</ele><time>2021-11-13T09:04:36Z</time><name>PT243</name></trkpt>
<trkpt lat="53.242047" lon="-1.972236"><ele>439</ele><time>2021-11-13T09:04:37Z</time><name>PT244</name></trkpt>
<trkpt lat="53.242054" lon="-1.972216"><ele>439</ele><time>2021-11-13T09:04:38Z</time><name>PT245</name></trkpt>
<trkpt lat="53.242060" lon="-1.972196"><ele>439</ele><time>2021-11-13T09:04:39Z</time><name>PT246</name></trkpt>
<trkpt lat="53.242065" lon="-1.972177"><ele>439</ele><time>2021-11-13T09:04:40Z</time><name>PT247</name></trkpt>
<trkpt lat="53.242072" lon="-1.972160"><ele>439</ele><time>2021-11-13T09:04:41Z</time><name>PT248</name></trkpt>
<trkpt lat="53.242077" lon="-1.972142"><ele>439</ele><time>2021-11-13T09:04:42Z</time><name>PT249</name></trkpt>
<trkpt lat="53.242083" lon="-1.972125"><ele>439</ele><time>2021-11-13T09:04:43Z</time><name>PT250</name></trkpt>
<trkpt lat="53.242089" lon="-1.972105"><ele>439</ele><time>2021-11-13T09:04:44Z</time><name>PT251</name></trkpt>
<trkpt lat="53.242094" lon="-1.972085"><ele>439</ele><time>2021-11-13T09:04:45Z</time><name>PT252</name></trkpt>
<trkpt lat="53.242098" lon="-1.972066"><ele>439</ele><time>2021-11-13T09:04:46Z</time><name>PT253</name></trkpt>
<trkpt lat="53.242101" lon="-1.972045"><ele>438</ele><time>2021-11-13T09:04:47Z</time><name>PT254</name></trkpt>
<trkpt lat="53.242108" lon="-1.972025"><ele>438</ele><time>2021-11-13T09:04:48Z</time><name>PT255</name></trkpt>
<trkpt lat="53.242112" lon="-1.972006"><ele>438</ele><time>2021-11-13T09:04:49Z</time><name>PT256</name></trkpt>
<trkpt lat="53.242115" lon="-1.971985"><ele>439</ele><time>2021-11-13T09:04:50Z</time><name>PT257</name></trkpt>
<trkpt lat="53.242121" lon="-1.971967"><ele>439</ele><time>2021-11-13T09:04:51Z</time><name>PT258</name></trkpt>
<trkpt lat="53.242123" lon="-1.971944"><ele>439</ele><time>2021-11-13T09:04:52Z</time><name>PT259</name></trkpt>
<trkpt lat="53.242125" lon="-1.971924"><ele>439</ele><time>2021-11-13T09:04:53Z</time><name>PT260</name></trkpt>
<trkpt lat="53.242126" lon="-1.971907"><ele>439</ele><time>2021-11-13T09:04:54Z</time><name>PT261</name></trkpt>
<trkpt lat="53.242126" lon="-1.971887"><ele>440</ele><time>2021-11-13T09:04:55Z</time><name>PT262</name></trkpt>
<trkpt lat="53.242129" lon="-1.971863"><ele>440</ele><time>2021-11-13T09:04:56Z</time><name>PT263</name></trkpt>
<trkpt lat="53.242131" lon="-1.971842"><ele>440</ele><time>2021-11-13T09:04:57Z</time><name>PT264</name></trkpt>
<trkpt lat="53.242137" lon="-1.971822"><ele>440</ele><time>2021-11-13T09:04:58Z</time><name>PT265</name></trkpt>
<trkpt lat="53.242141" lon="-1.971809"><ele>440</ele><time>2021-11-13T09:04:59Z</time><name>PT266</name></trkpt>
<trkpt lat="53.242147" lon="-1.971796"><ele>440</ele><time>2021-11-13T09:05:00Z</time><name>PT267</name></trkpt>
<trkpt lat="53.242151" lon="-1.971778"><ele>440</ele><time>2021-11-13T09:05:01Z</time><name>PT268</name></trkpt>
<trkpt lat="53.242154" lon="-1.971758"><ele>440</ele><time>2021-11-13T09:05:02Z</time><name>PT269</name></trkpt>
<trkpt lat="53.242156" lon="-1.971735"><ele>440</ele><time>2021-11-13T09:05:03Z</time><name>PT270</name></trkpt>
<trkpt lat="53.242158" lon="-1.971713"><ele>440</ele><time>2021-11-13T09:05:04Z</time><name>PT271</name></trkpt>
<trkpt lat="53.242161" lon="-1.971690"><ele>440</ele><time>2021-11-13T09:05:05Z</time><name>PT272</name></trkpt>
<trkpt lat="53.242163" lon="-1.971668"><ele>440</ele><time>2021-11-13T09:05:06Z</time><name>PT273</name></trkpt>
<trkpt lat="53.242167" lon="-1.971645"><ele>440</ele><time>2021-11-13T09:05:07Z</time><name>PT274</name></trkpt>
<trkpt lat="53.242174" lon="-1.971621"><ele>440</ele><time>2021-11-13T09:05:08Z</time><name>PT275</name></trkpt>
<trkpt lat="53.242175" lon="-1.971601"><ele>440</ele><time>2021-11-13T09:05:09Z</time><name>PT276</name></trkpt>
<trkpt lat="53.242178" lon="-1.971582"><ele>441</ele><time>2021-11-13T09:05:10Z</time><name>PT277</name></trkpt>
<trkpt lat="53.242181" lon="-1.971561"><ele>440</ele><time>2021-11-13T09:05:11Z</time><name>PT278</name></trkpt>
<trkpt lat="53.242183" lon="-1.971539"><ele>440</ele><time>2021-11-13T09:05:12Z</time><name>PT279</name></trkpt>
<trkpt lat="53.242187" lon="-1.971516"><ele>440</ele><time>2021-11-13T09:05:13Z</time><name>PT280</name></trkpt>
<trkpt lat="53.242189" lon="-1.971492"><ele>441</ele><time>2021-11-13T09:05:14Z</time><name>PT281</name></trkpt>
<trkpt lat="53.242192" lon="-1.971470"><ele>441</ele><time>2021-11-13T09:05:15Z</time><name>PT282</name></trkpt>
<trkpt lat="53.242194" lon="-1.971449"><ele>442</ele><time>2021-11-13T09:05:16Z</time><name>PT283</name></trkpt>
<trkpt lat="53.242196" lon="-1.971428"><ele>441</ele><time>2021-11-13T09:05:17Z</time><name>PT284</name></trkpt>
<trkpt lat="53.242199" lon="-1.971407"><ele>441</ele><time>2021-11-13T09:05:18Z</time><name>PT285</name></trkpt>
<trkpt lat="53.242203" lon="-1.971385"><ele>441</ele><time>2021-11-13T09:05:19Z</time><name>PT286</name></trkpt>
<trkpt lat="53.242207" lon="-1.971363"><ele>441</ele><time>2021-11-13T09:05:20Z</time><name>PT287</name></trkpt>
<trkpt lat="53.242211" lon="-1.971344"><ele>441</ele><time>2021-11-13T09:05:21Z</time><name>PT288</name></trkpt>
<trkpt lat="53.242216" lon="-1.971334"><ele>441</ele><time>2021-11-13T09:05:22Z</time><name>PT289</name></trkpt>
<trkpt lat="53.242219" lon="-1.971326"><ele>441</ele><time>2021-11-13T09:05:23Z</time><name>PT290</name></trkpt>
<trkpt lat="53.242222" lon="-1.971307"><ele>441</ele><time>2021-11-13T09:05:24Z</time><name>PT291</name></trkpt>
<trkpt lat="53.242226" lon="-1.971278"><ele>441</ele><time>2021-11-13T09:05:25Z</time><name>PT292</name></trkpt>
<trkpt lat="53.242232" lon="-1.971253"><ele>441</ele><time>2021-11-13T09:05:26Z</time><name>PT293</name></trkpt>
<trkpt lat="53.242240" lon="-1.971230"><ele>441</ele><time>2021-11-13T09:05:27Z</time><name>PT294</name></trkpt>
<trkpt lat="53.242245" lon="-1.971210"><ele>441</ele><time>2021-11-13T09:05:28Z</time><name>PT295</name></trkpt>
<trkpt lat="53.242251" lon="-1.971187"><ele>441</ele><time>2021-11-13T09:05:29Z</time><name>PT296</name></trkpt>
<trkpt lat="53.242255" lon="-1.971165"><ele>441</ele><time>2021-11-13T09:05:30Z</time><name>PT297</name></trkpt>
<trkpt lat="53.242259" lon="-1.971143"><ele>441</ele><time>2021-11-13T09:05:31Z</time><name>PT298</name></trkpt>
<trkpt lat="53.242261" lon="-1.971124"><ele>441</ele><time>2021-11-13T09:05:32Z</time><name>PT299</name></trkpt>
<trkpt lat="53.242261" lon="-1.971102"><ele>441</ele><time>2021-11-13T09:05:33Z</time><name>PT300</name></trkpt>
<trkpt lat="53.242265" lon="-1.971082"><ele>441</ele><time>2021-11-13T09:05:34Z</time><name>PT301</name></trkpt>
<trkpt lat="53.242269" lon="-1.971062"><ele>440</ele><time>2021-11-13T09:05:35Z</time><name>PT302</name></trkpt>
<trkpt lat="53.242272" lon="-1.971039"><ele>440</ele><time>2021-11-13T09:05:36Z</time><name>PT303</name></trkpt>
<trkpt lat="53.242274" lon="-1.971014"><ele>440</ele><time>2021-11-13T09:05:37Z</time><name>PT304</name></trkpt>
<trkpt lat="53.242277" lon="-1.970990"><ele>440</ele><time>2021-11-13T09:05:38Z</time><name>PT305</name></trkpt>
<trkpt lat="53.242279" lon="-1.970970"><ele>440</ele><time>2021-11-13T09:05:39Z</time><name>PT306</name></trkpt>
<trkpt lat="53.242280" lon="-1.970949"><ele>440</ele><time>2021-11-13T09:05:40Z</time><name>PT307</name></trkpt>
<trkpt lat="53.242283" lon="-1.970927"><ele>440</ele><time>2021-11-13T09:05:41Z</time><name>PT308</name></trkpt>
<trkpt lat="53.242286" lon="-1.970907"><ele>440</ele><time>2021-11-13T09:05:42Z</time><name>PT309</name></trkpt>
<trkpt lat="53.242288" lon="-1.970886"><ele>440</ele><time>2021-11-13T09:05:43Z</time><name>PT310</name></trkpt>
<trkpt lat="53.242289" lon="-1.970861"><ele>440</ele><time>2021-11-13T09:05:44Z</time><name>PT311</name></trkpt>
<trkpt lat="53.242293" lon="-1.970844"><ele>440</ele><time>2021-11-13T09:05:45Z</time><name>PT312</name></trkpt>
<trkpt lat="53.242296" lon="-1.970828"><ele>440</ele><time>2021-11-13T09:05:46Z</time><name>PT313</name></trkpt>
<trkpt lat="53.242297" lon="-1.970807"><ele>440</ele><time>2021-11-13T09:05:47Z</time><name>PT314</name></trkpt>
<trkpt lat="53.242300" lon="-1.970783"><ele>440</ele><time>2021-11-13T09:05:48Z</time><name>PT315</name></trkpt>
<trkpt lat="53.242304" lon="-1.970760"><ele>440</ele><time>2021-11-13T09:05:49Z</time><name>PT316</name></trkpt>
<trkpt lat="53.242306" lon="-1.970737"><ele>440</ele><time>2021-11-13T09:05:50Z</time><name>PT317</name></trkpt>
<trkpt lat="53.242309" lon="-1.970712"><ele>440</ele><time>2021-11-13T09:05:51Z</time><name>PT318</name></trkpt>
<trkpt lat="53.242311" lon="-1.970690"><ele>440</ele><time>2021-11-13T09:05:52Z</time><name>PT319</name></trkpt>
<trkpt lat="53.242315" lon="-1.970675"><ele>440</ele><time>2021-11-13T09:05:53Z</time><name>PT320</name></trkpt>
<trkpt lat="53.242321" lon="-1.970659"><ele>440</ele><time>2021-11-13T09:05:54Z</time><name>PT321</name></trkpt>
<trkpt lat="53.242326" lon="-1.970637"><ele>440</ele><time>2021-11-13T09:05:55Z</time><name>PT322</name></trkpt>
<trkpt lat="53.242328" lon="-1.970613"><ele>440</ele><time>2021-11-13T09:05:56Z</time><name>PT323</name></trkpt>
<trkpt lat="53.242332" lon="-1.970591"><ele>440</ele><time>2021-11-13T09:05:57Z</time><name>PT324</name></trkpt>
<trkpt lat="53.242335" lon="-1.970570"><ele>440</ele><time>2021-11-13T09:05:58Z</time><name>PT325</name></trkpt>
<trkpt lat="53.242337" lon="-1.970552"><ele>440</ele><time>2021-11-13T09:05:59Z</time><name>PT326</name></trkpt>
<trkpt lat="53.242341" lon="-1.970534"><ele>440</ele><time>2021-11-13T09:06:00Z</time><name>PT327</name></trkpt>
<trkpt lat="53.242343" lon="-1.970515"><ele>440</ele><time>2021-11-13T09:06:01Z</time><name>PT328</name></trkpt>
<trkpt lat="53.242347" lon="-1.970496"><ele>440</ele><time>2021-11-13T09:06:02Z</time><name>PT329</name></trkpt>
<trkpt lat="53.242351" lon="-1.970475"><ele>440</ele><time>2021-11-13T09:06:03Z</time><name>PT330</name></trkpt>
<trkpt lat="53.242355" lon="-1.970451"><ele>440</ele><time>2021-11-13T09:06:04Z</time><name>PT331</name></trkpt>
<trkpt lat="53.242357" lon="-1.970432"><ele>440</ele><time>2021-11-13T09:06:05Z</time><name>PT332</name></trkpt>
<trkpt lat="53.242361" lon="-1.970413"><ele>440</ele><time>2021-11-13T09:06:06Z</time><name>PT333</name></trkpt>
<trkpt lat="53.242363" lon="-1.970391"><ele>440</ele><time>2021-11-13T09:06:07Z</time><name>PT334</name></trkpt>
<trkpt lat="53.242365" lon="-1.970372"><ele>440</ele><time>2021-11-13T09:06:08Z</time><name>PT335</name></trkpt>
<trkpt lat="53.242366" lon="-1.970351"><ele>440</ele><time>2021-11-13T09:06:09Z</time><name>PT336</name></trkpt>
<trkpt lat="53.242366" lon="-1.970329"><ele>440</ele><time>2021-11-13T09:06:10Z</time><name>PT337</name></trkpt>
<trkpt lat="53.242369" lon="-1.970310"><ele>440</ele><time>2021-11-13T09:06:11Z</time><name>PT338</name></trkpt>
<trkpt lat="53.242374" lon="-1.970292"><ele>440</ele><time>2021-11-13T09:06:12Z</time><name>PT339</name></trkpt>
<trkpt lat="53.242377" lon="-1.970276"><ele>441</ele><time>2021-11-13T09:06:13Z</time><name>PT340</name></trkpt>
<trkpt lat="53.242379" lon="-1.970262"><ele>440</ele><time>2021-11-13T09:06:14Z</time><name>PT341</name></trkpt>
<trkpt lat="53.242384" lon="-1.970251"><ele>440</ele><time>2021-11-13T09:06:15Z</time><name>PT342</name></trkpt>
<trkpt lat="53.242391" lon="-1.970235"><ele>440</ele><time>2021-11-13T09:06:16Z</time><name>PT343</name></trkpt>
<trkpt lat="53.242393" lon="-1.970221"><ele>440</ele><time>2021-11-13T09:06:17Z</time><name>PT344</name></trkpt>
<trkpt lat="53.242394" lon="-1.970208"><ele>440</ele><time>2021-11-13T09:06:18Z</time><name>PT345</name></trkpt>
<trkpt lat="53.242396" lon="-1.970197"><ele>440</ele><time>2021-11-13T09:06:19Z</time><name>PT346</name></trkpt>
<trkpt lat="53.242400" lon="-1.970182"><ele>440</ele><time>2021-11-13T09:06:20Z</time><name>PT347</name></trkpt>
<trkpt lat="53.242404" lon="-1.970164"><ele>440</ele><time>2021-11-13T09:06:21Z</time><name>PT348</name></trkpt>
<trkpt lat="53.242408" lon="-1.970147"><ele>440</ele><time>2021-11-13T09:06:22Z</time><name>PT349</name></trkpt>
<trkpt lat="53.242412" lon="-1.970129"><ele>440</ele><time>2021-11-13T09:06:23Z</time><name>PT350</name></trkpt>
<trkpt lat="53.242418" lon="-1.970110"><ele>440</ele><time>2021-11-13T09:06:24Z</time><name>PT351</name></trkpt>
<trkpt lat="53.242425" lon="-1.970093"><ele>440</ele><time>2021-11-13T09:06:25Z</time><name>PT352</name></trkpt>
<trkpt lat="53.242432" lon="-1.970076"><ele>440</ele><time>2021-11-13T09:06:26Z</time><name>PT353</name></trkpt>
<trkpt lat="53.242437" lon="-1.970061"><ele>440</ele><time>2021-11-13T09:06:27Z</time><name>PT354</name></trkpt>
<trkpt lat="53.242440" lon="-1.970042"><ele>440</ele><time>2021-11-13T09:06:28Z</time><name>PT355</name></trkpt>
<trkpt lat="53.242445" lon="-1.970023"><ele>440</ele><time>2021-11-13T09:06:29Z</time><name>PT356</name></trkpt>
<trkpt lat="53.242447" lon="-1.970004"><ele>440</ele><time>2021-11-13T09:06:30Z</time><name>PT357</name></trkpt>
<trkpt lat="53.242448" lon="-1.969988"><ele>440</ele><time>2021-11-13T09:06:31Z</time><name>PT358</name></trkpt>
<trkpt lat="53.242448" lon="-1.969969"><ele>440</ele><time>2021-11-13T09:06:32Z</time><name>PT359</name></trkpt>
<trkpt lat="53.242453" lon="-1.969954"><ele>440</ele><time>2021-11-13T09:06:33Z</time><name>PT360</name></trkpt>
<trkpt lat="53.242457" lon="-1.969936"><ele>440</ele><time>2021-11-13T09:06:34Z</time><name>PT361</name></trkpt>
<trkpt lat="53.242461" lon="-1.969917"><ele>440</ele><time>2021-11-13T09:06:35Z</time><name>PT362</name></trkpt>
<trkpt lat="53.242463" lon="-1.969900"><ele>440</ele><time>2021-11-13T09:06:36Z</time><name>PT363</name></trkpt>
<trkpt lat="53.242466" lon="-1.969881"><ele>440</ele><time>2021-11-13T09:06:37Z</time><name>PT364</name></trkpt>
<trkpt lat="53.242468" lon="-1.969863"><ele>440</ele><time>2021-11-13T09:06:38Z</time><name>PT365</name></trkpt>
<trkpt lat="53.242470" lon="-1.969841"><ele>440</ele><time>2021-11-13T09:06:39Z</time><name>PT366</name></trkpt>
<trkpt lat="53.242473" lon="-1.969822"><ele>440</ele><time>2021-11-13T09:06:40Z</time><name>PT367</name></trkpt>
<trkpt lat="53.242478" lon="-1.969803"><ele>441</ele><time>2021-11-13T09:06:41Z</time><name>PT368</name></trkpt>
<trkpt lat="53.242481" lon="-1.969783"><ele>440</ele><time>2021-11-13T09:06:42Z</time><name>PT369</name></trkpt>
<trkpt lat="53.242483" lon="-1.969760"><ele>440</ele><time>2021-11-13T09:06:43Z</time><name>PT370</name></trkpt>
<trkpt lat="53.242483" lon="-1.969740"><ele>440</ele><time>2021-11-13T09:06:44Z</time><name>PT371</name></trkpt>
<trkpt lat="53.242483" lon="-1.969721"><ele>440</ele><time>2021-11-13T09:06:45Z</time><name>PT372</name></trkpt>
<trkpt lat="53.242486" lon="-1.969702"><ele>440</ele><time>2021-11-13T09:06:46Z</time><name>PT373</name></trkpt>
<trkpt lat="53.242489" lon="-1.969690"><ele>440</ele><time>2021-11-13T09:06:47Z</time><name>PT374</name></trkpt>
<trkpt lat="53.242487" lon="-1.969685"><ele>441</ele><time>2021-11-13T09:06:48Z</time><name>PT375</name></trkpt>
<trkpt lat="53.242483" lon="-1.969675"><ele>440</ele><time>2021-11-13T09:06:49Z</time><name>PT376</name></trkpt>
<trkpt lat="53.242488" lon="-1.969661"><ele>440</ele><time>2021-11-13T09:06:50Z</time><name>PT377</name></trkpt>
<trkpt lat="53.242493" lon="-1.969644"><ele>441</ele><time>2021-11-13T09:06:51Z</time><name>PT378</name></trkpt>
<trkpt lat="53.242499" lon="-1.969633"><ele>441</ele><time>2021-11-13T09:06:52Z</time><name>PT379</name></trkpt>
<trkpt lat="53.242503" lon="-1.969618"><ele>441</ele><time>2021-11-13T09:06:53Z</time><name>PT380</name></trkpt>
<trkpt lat="53.242505" lon="-1.969598"><ele>441</ele><time>2021-11-13T09:06:54Z</time><name>PT381</name></trkpt>
<trkpt lat="53.242508" lon="-1.969577"><ele>441</ele><time>2021-11-13T09:06:55Z</time><name>PT382</name></trkpt>
<trkpt lat="53.242512" lon="-1.969561"><ele>441</ele><time>2021-11-13T09:06:56Z</time><name>PT383</name></trkpt>
<trkpt lat="53.242515" lon="-1.969546"><ele>441</ele><time>2021-11-13T09:06:57Z</time><name>PT384</name></trkpt>
<trkpt lat="53.242517" lon="-1.969529"><ele>441</ele><time>2021-11-13T09:06:58Z</time><name>PT385</name></trkpt>
<trkpt lat="53.242520" lon="-1.969514"><ele>441</ele><time>2021-11-13T09:06:59Z</time><name>PT386</name></trkpt>
<trkpt lat="53.242526" lon="-1.969497"><ele>442</ele><time>2021-11-13T09:07:00Z</time><name>PT387</name></trkpt>
<trkpt lat="53.242530" lon="-1.969485"><ele>441</ele><time>2021-11-13T09:07:01Z</time><name>PT388</name></trkpt>
<trkpt lat="53.242533" lon="-1.969467"><ele>442</ele><time>2021-11-13T09:07:02Z</time><name>PT389</name></trkpt>
<trkpt lat="53.242537" lon="-1.969451"><ele>442</ele><time>2021-11-13T09:07:03Z</time><name>PT390</name></trkpt>
<trkpt lat="53.242540" lon="-1.969436"><ele>442</ele><time>2021-11-13T09:07:04Z</time><name>PT391</name></trkpt>
<trkpt lat="53.242540" lon="-1.969421"><ele>442</ele><time>2021-11-13T09:07:05Z</time><name>PT392</name></trkpt>
<trkpt lat="53.242542" lon="-1.969403"><ele>442</ele><time>2021-11-13T09:07:06Z</time><name>PT393</name></trkpt>
<trkpt lat="53.242543" lon="-1.969386"><ele>442</ele><time>2021-11-13T09:07:07Z</time><name>PT394</name></trkpt>
<trkpt lat="53.242544" lon="-1.969368"><ele>442</ele><time>2021-11-13T09:07:08Z</time><name>PT395</name></trkpt>
<trkpt lat="53.242548" lon="-1.969353"><ele>442</ele><time>2021-11-13T09:07:09Z</time><name>PT396</name></trkpt>
<trkpt lat="53.242554" lon="-1.969335"><ele>442</ele><time>2021-11-13T09:07:10Z</time><name>PT397</name></trkpt>
<trkpt lat="53.242558" lon="-1.969325"><ele>442</ele><time>2021-11-13T09:07:11Z</time><name>PT398</name></trkpt>
<trkpt lat="53.242564" lon="-1.969309"><ele>443</ele><time>2021-11-13T09:07:12Z</time><name>PT399</name></trkpt>
<trkpt lat="53.242570" lon="-1.969293"><ele>443</ele><time>2021-11-13T09:07:13Z</time><name>PT400</name></trkpt>
<trkpt lat="53.242574" lon="-1.969279"><ele>443</ele><time>2021-11-13T09:07:14Z</time><name>PT401</name></trkpt>
<trkpt lat="53.242577" lon="-1.969264"><ele>443</ele><time>2021-11-13T09:07:15Z</time><name>PT402</name></trkpt>
<trkpt lat="53.242581" lon="-1.969246"><ele>443</ele><time>2021-11-13T09:07:16Z</time><name>PT403</name></trkpt>
<trkpt lat="53.242582" lon="-1.969231"><ele>443</ele><time>2021-11-13T09:07:17Z</time><name>PT404</name></trkpt>
<trkpt lat="53.242584" lon="-1.969212"><ele>443</ele><time>2021-11-13T09:07:18Z</time><name>PT405</name></trkpt>
<trkpt lat="53.242588" lon="-1.969194"><ele>443</ele><time>2021-11-13T09:07:19Z</time><name>PT406</name></trkpt>
<trkpt lat="53.242592" lon="-1.969177"><ele>443</ele><time>2021-11-13T09:07:20Z</time><name>PT407</name></trkpt>
<trkpt lat="53.242597" lon="-1.969161"><ele>443</ele><time>2021-11-13T09:07:21Z</time><name>PT408</name></trkpt>
<trkpt lat="53.242603" lon="-1.969147"><ele>442</ele><time>2021-11-13T09:07:22Z</time><name>PT409</name></trkpt>
<trkpt lat="53.242620" lon="-1.969090"><ele>443</ele><time>2021-11-13T09:07:26Z</time><name>PT410</name></trkpt>
<trkpt lat="53.242639" lon="-1.969031"><ele>443</ele><time>2021-11-13T09:07:30Z</time><name>PT411</name></trkpt>
<trkpt lat="53.242663" lon="-1.968966"><ele>443</ele><time>2021-11-13T09:07:34Z</time><name>PT412</name></trkpt>
<trkpt lat="53.242686" lon="-1.968902"><ele>444</ele><time>2021-11-13T09:07:38Z</time><name>PT413</name></trkpt>
<trkpt lat="53.242706" lon="-1.968832"><ele>443</ele><time>2021-11-13T09:07:42Z</time><name>PT414</name></trkpt>
<trkpt lat="53.242730" lon="-1.968758"><ele>444</ele><time>2021-11-13T09:07:46Z</time><name>PT415</name></trkpt>
<trkpt lat="53.242757" lon="-1.968692"><ele>444</ele><time>2021-11-13T09:07:50Z</time><name>PT416</name></trkpt>
<trkpt lat="53.242786" lon="-1.968639"><ele>444</ele><time>2021-11-13T09:07:54Z</time><name>PT417</name></trkpt>
<trkpt lat="53.242814" lon="-1.968573"><ele>445</ele><time>2021-11-13T09:07:58Z</time><name>PT418</name></trkpt>
<trkpt lat="53.242846" lon="-1.968509"><ele>445</ele><time>2021-11-13T09:08:02Z</time><name>PT419</name></trkpt>
<trkpt lat="53.242875" lon="-1.968460"><ele>445</ele><time>2021-11-13T09:08:06Z</time><name>PT420</name></trkpt>
<trkpt lat="53.242905" lon="-1.968400"><ele>446</ele><time>2021-11-13T09:08:10Z</time><name>PT421</name></trkpt>
<trkpt lat="53.242944" lon="-1.968362"><ele>446</ele><time>2021-11-13T09:08:14Z</time><name>PT422</name></trkpt>
<trkpt lat="53.242976" lon="-1.968313"><ele>446</ele><time>2021-11-13T09:08:18Z</time><name>PT423</name></trkpt>
<trkpt lat="53.242978" lon="-1.968310"><ele>446</ele><time>2021-11-13T09:08:22Z</time><name>PT424</name></trkpt>
<trkpt lat="53.242979" lon="-1.968300"><ele>446</ele><time>2021-11-13T09:08:25Z</time><name>PT425</name></trkpt>
<trkpt lat="53.242985" lon="-1.968280"><ele>446</ele><time>2021-11-13T09:08:26Z</time><name>PT426</name></trkpt>
<trkpt lat="53.242988" lon="-1.968260"><ele>446</ele><time>2021-11-13T09:08:27Z</time><name>PT427</name></trkpt>
<trkpt lat="53.242990" lon="-1.968239"><ele>446</ele><time>2021-11-13T09:08:28Z</time><name>PT428</name></trkpt>
<trkpt lat="53.242993" lon="-1.968217"><ele>446</ele><time>2021-11-13T09:08:29Z</time><name>PT429</name></trkpt>
<trkpt lat="53.242996" lon="-1.968197"><ele>445</ele><time>2021-11-13T09:08:30Z</time><name>PT430</name></trkpt>
<trkpt lat="53.243000" lon="-1.968178"><ele>445</ele><time>2021-11-13T09:08:31Z</time><name>PT431</name></trkpt>
<trkpt lat="53.243004" lon="-1.968164"><ele>445</ele><time>2021-11-13T09:08:32Z</time><name>PT432</name></trkpt>
<trkpt lat="53.243009" lon="-1.968154"><ele>445</ele><time>2021-11-13T09:08:33Z</time><name>PT433</name></trkpt>
<trkpt lat="53.243010" lon="-1.968152"><ele>445</ele><time>2021-11-13T09:08:34Z</time><name>PT434</name></trkpt>
<trkpt lat="53.243010" lon="-1.968147"><ele>445</ele><time>2021-11-13T09:08:35Z</time><name>PT435</name></trkpt>
<trkpt lat="53.243012" lon="-1.968147"><ele>445</ele><time>2021-11-13T09:08:36Z</time><name>PT436</name></trkpt>
<trkpt lat="53.243016" lon="-1.968139"><ele>446</ele><time>2021-11-13T09:08:41Z</time><name>PT437</name></trkpt>
<trkpt lat="53.243023" lon="-1.968122"><ele>446</ele><time>2021-11-13T09:08:42Z</time><name>PT438</name></trkpt>
<trkpt lat="53.243033" lon="-1.968100"><ele>446</ele><time>2021-11-13T09:08:43Z</time><name>PT439</name></trkpt>
<trkpt lat="53.243042" lon="-1.968080"><ele>446</ele><time>2021-11-13T09:08:44Z</time><name>PT440</name></trkpt>
<trkpt lat="53.243047" lon="-1.968067"><ele>446</ele><time>2021-11-13T09:08:45Z</time><name>PT441</name></trkpt>
<trkpt lat="53.243053" lon="-1.968055"><ele>446</ele><time>2021-11-13T09:08:46Z</time><name>PT442</name></trkpt>
<trkpt lat="53.243061" lon="-1.968041"><ele>446</ele><time>2021-11-13T09:08:47Z</time><name>PT443</name></trkpt>
<trkpt lat="53.243072" lon="-1.968024"><ele>446</ele><time>2021-11-13T09:08:48Z</time><name>PT444</name></trkpt>
<trkpt lat="53.243081" lon="-1.968011"><ele>446</ele><time>2021-11-13T09:08:49Z</time><name>PT445</name></trkpt>
<trkpt lat="53.243090" lon="-1.968000"><ele>446</ele><time>2021-11-13T09:08:50Z</time><name>PT446</name></trkpt>
<trkpt lat="53.243099" lon="-1.967990"><ele>446</ele><time>2021-11-13T09:08:51Z</time><name>PT447</name></trkpt>
<trkpt lat="53.243109" lon="-1.967977"><ele>446</ele><time>2021-11-13T09:08:52Z</time><name>PT448</name></trkpt>
<trkpt lat="53.243120" lon="-1.967963"><ele>446</ele><time>2021-11-13T09:08:53Z</time><name>PT449</name></trkpt>
<trkpt lat="53.243130" lon="-1.967948"><ele>446</ele><time>2021-11-13T09:08:54Z</time><name>PT450</name></trkpt>
<trkpt lat="53.243141" lon="-1.967932"><ele>446</ele><time>2021-11-13T09:08:55Z</time><name>PT451</name></trkpt>
<trkpt lat="53.243152" lon="-1.967919"><ele>446</ele><time>2021-11-13T09:08:56Z</time><name>PT452</name></trkpt>
<trkpt lat="53.243164" lon="-1.967906"><ele>445</ele><time>2021-11-13T09:08:57Z</time><name>PT453</name></trkpt>
<trkpt lat="53.243176" lon="-1.967892"><ele>445</ele><time>2021-11-13T09:08:58Z</time><name>PT454</name></trkpt>
<trkpt lat="53.243186" lon="-1.967881"><ele>445</ele><time>2021-11-13T09:08:59Z</time><name>PT455</name></trkpt>
<trkpt lat="53.243198" lon="-1.967869"><ele>445</ele><time>2021-11-13T09:09:00Z</time><name>PT456</name></trkpt>
<trkpt lat="53.243209" lon="-1.967853"><ele>445</ele><time>2021-11-13T09:09:01Z</time><name>PT457</name></trkpt>
<trkpt lat="53.243218" lon="-1.967838"><ele>445</ele><time>2021-11-13T09:09:02Z</time><name>PT458</name></trkpt>
<trkpt lat="53.243226" lon="-1.967827"><ele>445</ele><time>2021-11-13T09:09:03Z</time><name>PT459</name></trkpt>
<trkpt lat="53.243237" lon="-1.967818"><ele>445</ele><time>2021-11-13T09:09:04Z</time><name>PT460</name></trkpt>
<trkpt lat="53.243250" lon="-1.967807"><ele>445</ele><time>2021-11-13T09:09:05Z</time><name>PT461</name></trkpt>
<trkpt lat="53.243262" lon="-1.967802"><ele>445</ele><time>2021-11-13T09:09:06Z</time><name>PT462</name></trkpt>
<trkpt lat="53.243273" lon="-1.967795"><ele>445</ele><time>2021-11-13T09:09:07Z</time><name>PT463</name></trkpt>
<trkpt lat="53.243285" lon="-1.967789"><ele>445</ele><time>2021-11-13T09:09:08Z</time><name>PT464</name></trkpt>
<trkpt lat="53.243294" lon="-1.967777"><ele>445</ele><time>2021-11-13T09:09:09Z</time><name>PT465</name></trkpt>
<trkpt lat="53.243304" lon="-1.967765"><ele>445</ele><time>2021-11-13T09:09:10Z</time><name>PT466</name></trkpt>
<trkpt lat="53.243314" lon="-1.967750"><ele>445</ele><time>2021-11-13T09:09:11Z</time><name>PT467</name></trkpt>
<trkpt lat="53.243323" lon="-1.967731"><ele>445</ele><time>2021-11-13T09:09:12Z</time><name>PT468</name></trkpt>
<trkpt lat="53.243335" lon="-1.967708"><ele>445</ele><time>2021-11-13T09:09:13Z</time><name>PT469</name></trkpt>
<trkpt lat="53.243344" lon="-1.967695"><ele>445</ele><time>2021-11-13T09:09:14Z</time><name>PT470</name></trkpt>
<trkpt lat="53.243355" lon="-1.967684"><ele>445</ele><time>2021-11-13T09:09:15Z</time><name>PT471</name></trkpt>
<trkpt lat="53.243368" lon="-1.967671"><ele>446</ele><time>2021-11-13T09:09:16Z</time><name>PT472</name></trkpt>
<trkpt lat="53.243380" lon="-1.967658"><ele>446</ele><time>2021-11-13T09:09:17Z</time><name>PT473</name></trkpt>
<trkpt lat="53.243390" lon="-1.967643"><ele>446</ele><time>2021-11-13T09:09:18Z</time><name>PT474</name></trkpt>
<trkpt lat="53.243398" lon="-1.967630"><ele>446</ele><time>2021-11-13T09:09:19Z</time><name>PT475</name></trkpt>
<trkpt lat="53.243407" lon="-1.967618"><ele>446</ele><time>2021-11-13T09:09:20Z</time><name>PT476</name></trkpt>
<trkpt lat="53.243419" lon="-1.967603"><ele>446</ele><time>2021-11-13T09:09:21Z</time><name>PT477</name></trkpt>
<trkpt lat="53.243430" lon="-1.967588"><ele>446</ele><time>2021-11-13T09:09:22Z</time><name>PT478</name></trkpt>
<trkpt lat="53.243438" lon="-1.967577"><ele>447</ele><time>2021-11-13T09:09:23Z</time><name>PT479</name></trkpt>
<trkpt lat="53.243449" lon="-1.967566"><ele>447</ele><time>2021-11-13T09:09:24Z</time><name>PT480</name></trkpt>
<trkpt lat="53.243461" lon="-1.967551"><ele>447</ele><time>2021-11-13T09:09:25Z</time><name>PT481</name></trkpt>
<trkpt lat="53.243470" lon="-1.967538"><ele>447</ele><time>2021-11-13T09:09:26Z</time><name>PT482</name></trkpt>
<trkpt lat="53.243479" lon="-1.967524"><ele>447</ele><time>2021-11-13T09:09:27Z</time><name>PT483</name></trkpt>
<trkpt lat="53.243489" lon="-1.967511"><ele>447</ele><time>2021-11-13T09:09:28Z</time><name>PT484</name></trkpt>
<trkpt lat="53.243500" lon="-1.967499"><ele>447</ele><time>2021-11-13T09:09:29Z</time><name>PT485</name></trkpt>
<trkpt lat="53.243510" lon="-1.967487"><ele>447</ele><time>2021-11-13T09:09:30Z</time><name>PT486</name></trkpt>
<trkpt lat="53.243519" lon="-1.967474"><ele>447</ele><time>2021-11-13T09:09:31Z</time><name>PT487</name></trkpt>
<trkpt lat="53.243529" lon="-1.967458"><ele>447</ele><time>2021-11-13T09:09:32Z</time><name>PT488</name></trkpt>
<trkpt lat="53.243539" lon="-1.967442"><ele>447</ele><time>2021-11-13T09:09:33Z</time><name>PT489</name></trkpt>
<trkpt lat="53.243547" lon="-1.967425"><ele>447</ele><time>2021-11-13T09:09:34Z</time><name>PT490</name></trkpt>
<trkpt lat="53.243555" lon="-1.967410"><ele>447</ele><time>2021-11-13T09:09:35Z</time><name>PT491</name></trkpt>
<trkpt lat="53.243564" lon="-1.967393"><ele>447</ele><time>2021-11-13T09:09:36Z</time><name>PT492</name></trkpt>
<trkpt lat="53.243574" lon="-1.967382"><ele>447</ele><time>2021-11-13T09:09:37Z</time><name>PT493</name></trkpt>
<trkpt lat="53.243585" lon="-1.967372"><ele>448</ele><time>2021-11-13T09:09:38Z</time><name>PT494</name></trkpt>
<trkpt lat="53.243596" lon="-1.967357"><ele>448</ele><time>2021-11-13T09:09:39Z</time><name>PT495</name></trkpt>
<trkpt lat="53.243605" lon="-1.967342"><ele>448</ele><time>2021-11-13T09:09:40Z</time><name>PT496</name></trkpt>
<trkpt lat="53.243614" lon="-1.967333"><ele>447</ele><time>2021-11-13T09:09:41Z</time><name>PT497</name></trkpt>
<trkpt lat="53.243624" lon="-1.967319"><ele>447</ele><time>2021-11-13T09:09:42Z</time><name>PT498</name></trkpt>
<trkpt lat="53.243632" lon="-1.967304"><ele>448</ele><time>2021-11-13T09:09:43Z</time><name>PT499</name></trkpt>
<trkpt lat="53.243641" lon="-1.967291"><ele>448</ele><time>2021-11-13T09:09:44Z</time><name>PT500</name></trkpt>
<trkpt lat="53.243649" lon="-1.967278"><ele>448</ele><time>2021-11-13T09:09:45Z</time><name>PT501</name></trkpt>
<trkpt lat="53.243658" lon="-1.967262"><ele>449</ele><time>2021-11-13T09:09:46Z</time><name>PT502</name></trkpt>
<trkpt lat="53.243667" lon="-1.967243"><ele>449</ele><time>2021-11-13T09:09:47Z</time><name>PT503</name></trkpt>
<trkpt lat="53.243675" lon="-1.967224"><ele>449</ele><time>2021-11-13T09:09:48Z</time><name>PT504</name></trkpt>
<trkpt lat="53.243683" lon="-1.967206"><ele>448</ele><time>2021-11-13T09:09:49Z</time><name>PT505</name></trkpt>
<trkpt lat="53.243690" lon="-1.967187"><ele>448</ele><time>2021-11-13T09:09:50Z</time><name>PT506</name></trkpt>
<trkpt lat="53.243698" lon="-1.967173"><ele>449</ele><time>2021-11-13T09:09:51Z</time><name>PT507</name></trkpt>
<trkpt lat="53.243708" lon="-1.967158"><ele>449</ele><time>2021-11-13T09:09:52Z</time><name>PT508</name></trkpt>
<trkpt lat="53.243718" lon="-1.967141"><ele>449</ele><time>2021-11-13T09:09:53Z</time><name>PT509</name></trkpt>
<trkpt lat="53.243724" lon="-1.967121"><ele>449</ele><time>2021-11-13T09:09:54Z</time><name>PT510</name></trkpt>
<trkpt lat="53.243734" lon="-1.967104"><ele>449</ele><time>2021-11-13T09:09:55Z</time><name>PT511</name></trkpt>
<trkpt lat="53.243742" lon="-1.967097"><ele>449</ele><time>2021-11-13T09:09:56Z</time><name>PT512</name></trkpt>
<trkpt lat="53.243752" lon="-1.967093"><ele>449</ele><time>2021-11-13T09:09:57Z</time><name>PT513</name></trkpt>
<trkpt lat="53.243762" lon="-1.967084"><ele>449</ele><time>2021-11-13T09:09:58Z</time><name>PT514</name></trkpt>
<trkpt lat="53.243772" lon="-1.967069"><ele>449</ele><time>2021-11-13T09:09:59Z</time><name>PT515</name></trkpt>
<trkpt lat="53.243781" lon="-1.967054"><ele>450</ele><time>2021-11-13T09:10:00Z</time><name>PT516</name></trkpt>
<trkpt lat="53.243791" lon="-1.967038"><ele>450</ele><time>2021-11-13T09:10:01Z</time><name>PT517</name></trkpt>
<trkpt lat="53.243803" lon="-1.967018"><ele>451</ele><time>2021-11-13T09:10:02Z</time><name>PT518</name></trkpt>
<trkpt lat="53.243813" lon="-1.967007"><ele>451</ele><time>2021-11-13T09:10:03Z</time><name>PT519</name></trkpt>
<trkpt lat="53.243822" lon="-1.966996"><ele>451</ele><time>2021-11-13T09:10:04Z</time><name>PT520</name></trkpt>
<trkpt lat="53.243830" lon="-1.966984"><ele>451</ele><time>2021-11-13T09:10:05Z</time><name>PT521</name></trkpt>
<trkpt lat="53.243839" lon="-1.966970"><ele>451</ele><time>2021-11-13T09:10:06Z</time><name>PT522</name></trkpt>
<trkpt lat="53.243849" lon="-1.966960"><ele>452</ele><time>2021-11-13T09:10:07Z</time><name>PT523</name></trkpt>
<trkpt lat="53.243857" lon="-1.966951"><ele>452</ele><time>2021-11-13T09:10:08Z</time><name>PT524</name></trkpt>
<trkpt lat="53.243867" lon="-1.966939"><ele>452</ele><time>2021-11-13T09:10:09Z</time><name>PT525</name></trkpt>
<trkpt lat="53.243878" lon="-1.966925"><ele>452</ele><time>2021-11-13T09:10:10Z</time><name>PT526</name></trkpt>
<trkpt lat="53.243887" lon="-1.966913"><ele>452</ele><time>2021-11-13T09:10:11Z</time><name>PT527</name></trkpt>
<trkpt lat="53.243897" lon="-1.966897"><ele>452</ele><time>2021-11-13T09:10:12Z</time><name>PT528</name></trkpt>
<trkpt lat="53.243909" lon="-1.966887"><ele>452</ele><time>2021-11-13T09:10:13Z</time><name>PT529</name></trkpt>
<trkpt lat="53.243919" lon="-1.966876"><ele>452</ele><time>2021-11-13T09:10:14Z</time><name>PT530</name></trkpt>
<trkpt lat="53.243928" lon="-1.966866"><ele>452</ele><time>2021-11-13T09:10:15Z</time><name>PT531</name></trkpt>
<trkpt lat="53.243937" lon="-1.966855"><ele>452</ele><time>2021-11-13T09:10:16Z</time><name>PT532</name></trkpt>
<trkpt lat="53.243947" lon="-1.966841"><ele>452</ele><time>2021-11-13T09:10:17Z</time><name>PT533</name></trkpt>
<trkpt lat="53.243957" lon="-1.966830"><ele>452</ele><time>2021-11-13T09:10:18Z</time><name>PT534</name></trkpt>
<trkpt lat="53.243967" lon="-1.966818"><ele>452</ele><time>2021-11-13T09:10:19Z</time><name>PT535</name></trkpt>
<trkpt lat="53.243976" lon="-1.966806"><ele>452</ele><time>2021-11-13T09:10:20Z</time><name>PT536</name></trkpt>
<trkpt lat="53.243986" lon="-1.966797"><ele>452</ele><time>2021-11-13T09:10:21Z</time><name>PT537</name></trkpt>
<trkpt lat="53.243995" lon="-1.966789"><ele>452</ele><time>2021-11-13T09:10:22Z</time><name>PT538</name></trkpt>
<trkpt lat="53.244005" lon="-1.966774"><ele>452</ele><time>2021-11-13T09:10:23Z</time><name>PT539</name></trkpt>
<trkpt lat="53.244013" lon="-1.966763"><ele>453</ele><time>2021-11-13T09:10:24Z</time><name>PT540</name></trkpt>
<trkpt lat="53.244040" lon="-1.966717"><ele>453</ele><time>2021-11-13T09:10:27Z</time><name>PT541</name></trkpt>
<trkpt lat="53.244078" lon="-1.966654"><ele>453</ele><time>2021-11-13T09:10:31Z</time><name>PT542</name></trkpt>
<trkpt lat="53.244118" lon="-1.966595"><ele>454</ele><time>2021-11-13T09:10:35Z</time><name>PT543</name></trkpt>
<trkpt lat="53.244150" lon="-1.966551"><ele>454</ele><time>2021-11-13T09:10:39Z</time><name>PT544</name></trkpt>
<trkpt lat="53.244185" lon="-1.966493"><ele>455</ele><time>2021-11-13T09:10:43Z</time><name>PT545</name></trkpt>
<trkpt lat="53.244220" lon="-1.966442"><ele>456</ele><time>2021-11-13T09:10:47Z</time><name>PT546</name></trkpt>
<trkpt lat="53.244255" lon="-1.966404"><ele>456</ele><time>2021-11-13T09:10:51Z</time><name>PT547</name></trkpt>
<trkpt lat="53.244286" lon="-1.966366"><ele>456</ele><time>2021-11-13T09:10:55Z</time><name>PT548</name></trkpt>
<trkpt lat="53.244316" lon="-1.966323"><ele>456</ele><time>2021-11-13T09:10:59Z</time><name>PT549</name></trkpt>
<trkpt lat="53.244351" lon="-1.966279"><ele>457</ele><time>2021-11-13T09:11:03Z</time><name>PT550</name></trkpt>
<trkpt lat="53.244384" lon="-1.966235"><ele>458</ele><time>2021-11-13T09:11:07Z</time><name>PT551</name></trkpt>
<trkpt lat="53.244419" lon="-1.966186"><ele>458</ele><time>2021-11-13T09:11:11Z</time><name>PT552</name></trkpt>
<trkpt lat="53.244451" lon="-1.966147"><ele>458</ele><time>2021-11-13T09:11:15Z</time><name>PT553</name></trkpt>
<trkpt lat="53.244476" lon="-1.966108"><ele>458</ele><time>2021-11-13T09:11:19Z</time><name>PT554</name></trkpt>
<trkpt lat="53.244510" lon="-1.966066"><ele>459</ele><time>2021-11-13T09:11:23Z</time><name>PT555</name></trkpt>
<trkpt lat="53.244539" lon="-1.966029"><ele>458</ele><time>2021-11-13T09:11:27Z</time><name>PT556</name></trkpt>
<trkpt lat="53.244577" lon="-1.965988"><ele>459</ele><time>2021-11-13T09:11:31Z</time><name>PT557</name></trkpt>
<trkpt lat="53.244615" lon="-1.965960"><ele>460</ele><time>2021-11-13T09:11:35Z</time><name>PT558</name></trkpt>
<trkpt lat="53.244649" lon="-1.965914"><ele>460</ele><time>2021-11-13T09:11:39Z</time><name>PT559</name></trkpt>
<trkpt lat="53.244666" lon="-1.965879"><ele>460</ele><time>2021-11-13T09:11:43Z</time><name>PT560</name></trkpt>
<trkpt lat="53.244692" lon="-1.965843"><ele>460</ele><time>2021-11-13T09:11:47Z</time><name>PT561</name></trkpt>
<trkpt lat="53.244728" lon="-1.965775"><ele>461</ele><time>2021-11-13T09:11:51Z</time><name>PT562</name></trkpt>
<trkpt lat="53.244764" lon="-1.965717"><ele>461</ele><time>2021-11-13T09:11:55Z</time><name>PT563</name></trkpt>
<trkpt lat="53.244798" lon="-1.965662"><ele>462</ele><time>2021-11-13T09:11:59Z</time><name>PT564</name></trkpt>
<trkpt lat="53.244826" lon="-1.965602"><ele>463</ele><time>2021-11-13T09:12:03Z</time><name>PT565</name></trkpt>
<trkpt lat="53.244856" lon="-1.965542"><ele>464</ele><time>2021-11-13T09:12:07Z</time><name>PT566</name></trkpt>
<trkpt lat="53.244886" lon="-1.965487"><ele>464</ele><time>2021-11-13T09:12:11Z</time><name>PT567</name></trkpt>
<trkpt lat="53.244915" lon="-1.965422"><ele>465</ele><time>2021-11-13T09:12:15Z</time><name>PT568</name></trkpt>
<trkpt lat="53.244941" lon="-1.965373"><ele>465</ele><time>2021-11-13T09:12:19Z</time><name>PT569</name></trkpt>
<trkpt lat="53.244967" lon="-1.965304"><ele>465</ele><time>2021-11-13T09:12:23Z</time><name>PT570</name></trkpt>
<trkpt lat="53.244992" lon="-1.965241"><ele>466</ele><time>2021-11-13T09:12:27Z</time><name>PT571</name></trkpt>
<trkpt lat="53.245016" lon="-1.965185"><ele>466</ele><time>2021-11-13T09:12:31Z</time><name>PT572</name></trkpt>
<trkpt lat="53.245037" lon="-1.965120"><ele>466</ele><time>2021-11-13T09:12:35Z</time><name>PT573</name></trkpt>
<trkpt lat="53.245059" lon="-1.965053"><ele>466</ele><time>2021-11-13T09:12:39Z</time><name>PT574</name></trkpt>
<trkpt lat="53.245080" lon="-1.964985"><ele>467</ele><time>2021-11-13T09:12:43Z</time><name>PT575</name></trkpt>
<trkpt lat="53.245100" lon="-1.964927"><ele>467</ele><time>2021-11-13T09:12:47Z</time><name>PT576</name></trkpt>
<trkpt lat="53.245118" lon="-1.964878"><ele>468</ele><time>2021-11-13T09:12:51Z</time><name>PT577</name></trkpt>
<trkpt lat="53.245118" lon="-1.964872"><ele>468</ele><time>2021-11-13T09:12:55Z</time><name>PT578</name></trkpt>
<trkpt lat="53.245122" lon="-1.964860"><ele>468</ele><time>2021-11-13T09:12:59Z</time><name>PT579</name></trkpt>
<trkpt lat="53.245150" lon="-1.964762"><ele>468</ele><time>2021-11-13T09:13:03Z</time><name>PT580</name></trkpt>
<trkpt lat="53.245172" lon="-1.964674"><ele>468</ele><time>2021-11-13T09:13:07Z</time><name>PT581</name></trkpt>
<trkpt lat="53.245195" lon="-1.964595"><ele>468</ele><time>2021-11-13T09:13:11Z</time><name>PT582</name></trkpt>
<trkpt lat="53.245215" lon="-1.964519"><ele>468</ele><time>2021-11-13T09:13:15Z</time><name>PT583</name></trkpt>
<trkpt lat="53.245241" lon="-1.964442"><ele>468</ele><time>2021-11-13T09:13:19Z</time><name>PT584</name></trkpt>
<trkpt lat="53.245261" lon="-1.964362"><ele>469</ele><time>2021-11-13T09:13:23Z</time><name>PT585</name></trkpt>
<trkpt lat="53.245280" lon="-1.964285"><ele>469</ele><time>2021-11-13T09:13:27Z</time><name>PT586</name></trkpt>
<trkpt lat="53.245296" lon="-1.964207"><ele>469</ele><time>2021-11-13T09:13:31Z</time><name>PT587</name></trkpt>
<trkpt lat="53.245313" lon="-1.964129"><ele>469</ele><time>2021-11-13T09:13:35Z</time><name>PT588</name></trkpt>
<trkpt lat="53.245330" lon="-1.964045"><ele>470</ele><time>2021-11-13T09:13:39Z</time><name>PT589</name></trkpt>
<trkpt lat="53.245339" lon="-1.963966"><ele>470</ele><time>2021-11-13T09:13:43Z</time><name>PT590</name></trkpt>
<trkpt lat="53.245352" lon="-1.963885"><ele>469</ele><time>2021-11-13T09:13:47Z</time><name>PT591</name></trkpt>
<trkpt lat="53.245361" lon="-1.963803"><ele>470</ele><time>2021-11-13T09:13:51Z</time><name>PT592</name></trkpt>
<trkpt lat="53.245370" lon="-1.963720"><ele>470</ele><time>2021-11-13T09:13:55Z</time><name>PT593</name></trkpt>
<trkpt lat="53.245383" lon="-1.963642"><ele>470</ele><time>2021-11-13T09:13:59Z</time><name>PT594</name></trkpt>
<trkpt lat="53.245386" lon="-1.963551"><ele>470</ele><time>2021-11-13T09:14:03Z</time><name>PT595</name></trkpt>
<trkpt lat="53.245406" lon="-1.963468"><ele>470</ele><time>2021-11-13T09:14:07Z</time><name>PT596</name></trkpt>
<trkpt lat="53.245419" lon="-1.963386"><ele>470</ele><time>2021-11-13T09:14:11Z</time><name>PT597</name></trkpt>
<trkpt lat="53.245430" lon="-1.963306"><ele>470</ele><time>2021-11-13T09:14:15Z</time><name>PT598</name></trkpt>
<trkpt lat="53.245443" lon="-1.963215"><ele>470</ele><time>2021-11-13T09:14:19Z</time><name>PT599</name></trkpt>
<trkpt lat="53.245458" lon="-1.963133"><ele>470</ele><time>2021-11-13T09:14:23Z</time><name>PT600</name></trkpt>
<trkpt lat="53.245475" lon="-1.963048"><ele>469</ele><time>2021-11-13T09:14:27Z</time><name>PT601</name></trkpt>
<trkpt lat="53.245491" lon="-1.962967"><ele>469</ele><time>2021-11-13T09:14:31Z</time><name>PT602</name></trkpt>
<trkpt lat="53.245511" lon="-1.962897"><ele>469</ele><time>2021-11-13T09:14:35Z</time><name>PT603</name></trkpt>
<trkpt lat="53.245516" lon="-1.962877"><ele>469</ele><time>2021-11-13T09:14:36Z</time><name>PT604</name></trkpt>
<trkpt lat="53.245521" lon="-1.962860"><ele>469</ele><time>2021-11-13T09:14:37Z</time><name>PT605</name></trkpt>
<trkpt lat="53.245527" lon="-1.962843"><ele>469</ele><time>2021-11-13T09:14:38Z</time><name>PT606</name></trkpt>
<trkpt lat="53.245532" lon="-1.962822"><ele>469</ele><time>2021-11-13T09:14:39Z</time><name>PT607</name></trkpt>
<trkpt lat="53.245539" lon="-1.962800"><ele>469</ele><time>2021-11-13T09:14:40Z</time><name>PT608</name></trkpt>
<trkpt lat="53.245547" lon="-1.962785"><ele>469</ele><time>2021-11-13T09:14:41Z</time><name>PT609</name></trkpt>
<trkpt lat="53.245554" lon="-1.962773"><ele>469</ele><time>2021-11-13T09:14:42Z</time><name>PT610</name></trkpt>
<trkpt lat="53.245560" lon="-1.962754"><ele>469</ele><time>2021-11-13T09:14:43Z</time><name>PT611</name></trkpt>
<trkpt lat="53.245566" lon="-1.962739"><ele>469</ele><time>2021-11-13T09:14:44Z</time><name>PT612</name></trkpt>
<trkpt lat="53.245574" lon="-1.962725"><ele>469</ele><time>2021-11-13T09:14:45Z</time><name>PT613</name></trkpt>
<trkpt lat="53.245583" lon="-1.962712"><ele>469</ele><time>2021-11-13T09:14:46Z</time><name>PT614</name></trkpt>
<trkpt lat="53.245592" lon="-1.962697"><ele>470</ele><time>2021-11-13T09:14:47Z</time><name>PT615</name></trkpt>
<trkpt lat="53.245600" lon="-1.962680"><ele>470</ele><time>2021-11-13T09:14:48Z</time><name>PT616</name></trkpt>
<trkpt lat="53.245606" lon="-1.962669"><ele>470</ele><time>2021-11-13T09:14:49Z</time><name>PT617</name></trkpt>
<trkpt lat="53.245613" lon="-1.962655"><ele>470</ele><time>2021-11-13T09:14:50Z</time><name>PT618</name></trkpt>
<trkpt lat="53.245620" lon="-1.962639"><ele>469</ele><time>2021-11-13T09:14:51Z</time><name>PT619</name></trkpt>
<trkpt lat="53.245627" lon="-1.962624"><ele>469</ele><time>2021-11-13T09:14:52Z</time><name>PT620</name></trkpt>
<trkpt lat="53.245637" lon="-1.962607"><ele>470</ele><time>2021-11-13T09:14:53Z</time><name>PT621</name></trkpt>
<trkpt lat="53.245646" lon="-1.962590"><ele>470</ele><time>2021-11-13T09:14:54Z</time><name>PT622</name></trkpt>
<trkpt lat="53.245654" lon="-1.962578"><ele>470</ele><time>2021-11-13T09:14:55Z</time><name>PT623</name></trkpt>
<trkpt lat="53.245662" lon="-1.962567"><ele>470</ele><time>2021-11-13T09:14:56Z</time><name>PT624</name></trkpt>
<trkpt lat="53.245668" lon="-1.962551"><ele>470</ele><time>2021-11-13T09:14:57Z</time><name>PT625</name></trkpt>
<trkpt lat="53.245674" lon="-1.962535"><ele>470</ele><time>2021-11-13T09:14:58Z</time><name>PT626</name></trkpt>
<trkpt lat="53.245678" lon="-1.962522"><ele>470</ele><time>2021-11-13T09:14:59Z</time><name>PT627</name></trkpt>
<trkpt lat="53.245684" lon="-1.962507"><ele>470</ele><time>2021-11-13T09:15:00Z</time><name>PT628</name></trkpt>
<trkpt lat="53.245692" lon="-1.962493"><ele>470</ele><time>2021-11-13T09:15:01Z</time><name>PT629</name></trkpt>
<trkpt lat="53.245701" lon="-1.962479"><ele>471</ele><time>2021-11-13T09:15:02Z</time><name>PT630</name></trkpt>
<trkpt lat="53.245708" lon="-1.962465"><ele>471</ele><time>2021-11-13T09:15:03Z</time><name>PT631</name></trkpt>
<trkpt lat="53.245715" lon="-1.962448"><ele>472</ele><time>2021-11-13T09:15:04Z</time><name>PT632</name></trkpt>
<trkpt lat="53.245722" lon="-1.962431"><ele>472</ele><time>2021-11-13T09:15:05Z</time><name>PT633</name></trkpt>
<trkpt lat="53.245729" lon="-1.962412"><ele>472</ele><time>2021-11-13T09:15:06Z</time><name>PT634</name></trkpt>
<trkpt lat="53.245736" lon="-1.962397"><ele>472</ele><time>2021-11-13T09:15:07Z</time><name>PT635</name></trkpt>
<trkpt lat="53.245743" lon="-1.962384"><ele>472</ele><time>2021-11-13T09:15:08Z</time><name>PT636</name></trkpt>
<trkpt lat="53.245751" lon="-1.962371"><ele>472</ele><time>2021-11-13T09:15:09Z</time><name>PT637</name></trkpt>
<trkpt lat="53.245760" lon="-1.962357"><ele>472</ele><time>2021-11-13T09:15:10Z</time><name>PT638</name></trkpt>
<trkpt lat="53.245767" lon="-1.962342"><ele>472</ele><time>2021-11-13T09:15:11Z</time><name>PT639</name></trkpt>
<trkpt lat="53.245776" lon="-1.962325"><ele>472</ele><time>2021-11-13T09:15:12Z</time><name>PT640</name></trkpt>
<trkpt lat="53.245786" lon="-1.962308"><ele>472</ele><time>2021-11-13T09:15:13Z</time><name>PT641</name></trkpt>
<trkpt lat="53.245794" lon="-1.962293"><ele>472</ele><time>2021-11-13T09:15:14Z</time><name>PT642</name></trkpt>
<trkpt lat="53.245804" lon="-1.962279"><ele>472</ele><time>2021-11-13T09:15:15Z</time><name>PT643</name></trkpt>
<trkpt lat="53.245813" lon="-1.962262"><ele>472</ele><time>2021-11-13T09:15:16Z</time><name>PT644</name></trkpt>
<trkpt lat="53.245821" lon="-1.962248"><ele>472</ele><time>2021-11-13T09:15:17Z</time><name>PT645</name></trkpt>
<trkpt lat="53.245829" lon="-1.962238"><ele>472</ele><time>2021-11-13T09:15:18Z</time><name>PT646</name></trkpt>
<trkpt lat="53.245837" lon="-1.962221"><ele>472</ele><time>2021-11-13T09:15:19Z</time><name>PT647</name></trkpt>
<trkpt lat="53.245845" lon="-1.962203"><ele>472</ele><time>2021-11-13T09:15:20Z</time><name>PT648</name></trkpt>
<trkpt lat="53.245853" lon="-1.962189"><ele>472</ele><time>2021-11-13T09:15:21Z</time><name>PT649</name></trkpt>
<trkpt lat="53.245863" lon="-1.962171"><ele>473</ele><time>2021-11-13T09:15:22Z</time><name>PT650</name></trkpt>
<trkpt lat="53.245873" lon="-1.962156"><ele>473</ele><time>2021-11-13T09:15:23Z</time><name>PT651</name></trkpt>
<trkpt lat="53.245882" lon="-1.962143"><ele>473</ele><time>2021-11-13T09:15:24Z</time><name>PT652</name></trkpt>
<trkpt lat="53.245891" lon="-1.962133"><ele>473</ele><time>2021-11-13T09:15:25Z</time><name>PT653</name></trkpt>
<trkpt lat="53.245899" lon="-1.962122"><ele>473</ele><time>2021-11-13T09:15:26Z</time><name>PT654</name></trkpt>
<trkpt lat="53.245905" lon="-1.962108"><ele>473</ele><time>2021-11-13T09:15:27Z</time><name>PT655</name></trkpt>
<trkpt lat="53.245913" lon="-1.962093"><ele>473</ele><time>2021-11-13T09:15:28Z</time><name>PT656</name></trkpt>
<trkpt lat="53.245921" lon="-1.962077"><ele>473</ele><time>2021-11-13T09:15:29Z</time><name>PT657</name></trkpt>
<trkpt lat="53.245927" lon="-1.962062"><ele>473</ele><time>2021-11-13T09:15:30Z</time><name>PT658</name></trkpt>
<trkpt lat="53.245934" lon="-1.962045"><ele>473</ele><time>2021-11-13T09:15:31Z</time><name>PT659</name></trkpt>
<trkpt lat="53.245942" lon="-1.962030"><ele>473</ele><time>2021-11-13T09:15:32Z</time><name>PT660</name></trkpt>
<trkpt lat="53.245949" lon="-1.962015"><ele>474</ele><time>2021-11-13T09:15:33Z</time><name>PT661</name></trkpt>
<trkpt lat="53.245956" lon="-1.962003"><ele>473</ele><time>2021-11-13T09:15:34Z</time><name>PT662</name></trkpt>
<trkpt lat="53.245964" lon="-1.961989"><ele>473</ele><time>2021-11-13T09:15:35Z</time><name>PT663</name></trkpt>
<trkpt lat="53.245973" lon="-1.961970"><ele>474</ele><time>2021-11-13T09:15:36Z</time><name>PT664</name></trkpt>
<trkpt lat="53.245982" lon="-1.961952"><ele>474</ele><time>2021-11-13T09:15:37Z</time><name>PT665</name></trkpt>
<trkpt lat="53.245992" lon="-1.961937"><ele>474</ele><time>2021-11-13T09:15:38Z</time><name>PT666</name></trkpt>
<trkpt lat="53.245999" lon="-1.961923"><ele>474</ele><time>2021-11-13T09:15:39Z</time><name>PT667</name></trkpt>
<trkpt lat="53.246008" lon="-1.961909"><ele>474</ele><time>2021-11-13T09:15:40Z</time><name>PT668</name></trkpt>
<trkpt lat="53.246015" lon="-1.961896"><ele>474</ele><time>2021-11-13T09:15:41Z</time><name>PT669</name></trkpt>
<trkpt lat="53.246026" lon="-1.961883"><ele>474</ele><time>2021-11-13T09:15:42Z</time><name>PT670</name></trkpt>
<trkpt lat="53.246035" lon="-1.961872"><ele>475</ele><time>2021-11-13T09:15:43Z</time><name>PT671</name></trkpt>
<trkpt lat="53.246044" lon="-1.961861"><ele>475</ele><time>2021-11-13T09:15:44Z</time><name>PT672</name></trkpt>
<trkpt lat="53.246051" lon="-1.961848"><ele>475</ele><time>2021-11-13T09:15:45Z</time><name>PT673</name></trkpt>
<trkpt lat="53.246059" lon="-1.961833"><ele>475</ele><time>2021-11-13T09:15:46Z</time><name>PT674</name></trkpt>
<trkpt lat="53.246067" lon="-1.961818"><ele>475</ele><time>2021-11-13T09:15:47Z</time><name>PT675</name></trkpt>
<trkpt lat="53.246076" lon="-1.961802"><ele>476</ele><time>2021-11-13T09:15:48Z</time><name>PT676</name></trkpt>
<trkpt lat="53.246084" lon="-1.961787"><ele>476</ele><time>2021-11-13T09:15:49Z</time><name>PT677</name></trkpt>
<trkpt lat="53.246093" lon="-1.961773"><ele>476</ele><time>2021-11-13T09:15:50Z</time><name>PT678</name></trkpt>
<trkpt lat="53.246100" lon="-1.961761"><ele>476</ele><time>2021-11-13T09:15:51Z</time><name>PT679</name></trkpt>
<trkpt lat="53.246107" lon="-1.961749"><ele>476</ele><time>2021-11-13T09:15:52Z</time><name>PT680</name></trkpt>
<trkpt lat="53.246116" lon="-1.961734"><ele>477</ele><time>2021-11-13T09:15:53Z</time><name>PT681</name></trkpt>
<trkpt lat="53.246124" lon="-1.961714"><ele>477</ele><time>2021-11-13T09:15:54Z</time><name>PT682</name></trkpt>
<trkpt lat="53.246133" lon="-1.961699"><ele>478</ele><time>2021-11-13T09:15:55Z</time><name>PT683</name></trkpt>
<trkpt lat="53.246142" lon="-1.961681"><ele>478</ele><time>2021-11-13T09:15:56Z</time><name>PT684</name></trkpt>
<trkpt lat="53.246151" lon="-1.961663"><ele>478</ele><time>2021-11-13T09:15:57Z</time><name>PT685</name></trkpt>
<trkpt lat="53.246159" lon="-1.961649"><ele>478</ele><time>2021-11-13T09:15:58Z</time><name>PT686</name></trkpt>
<trkpt lat="53.246168" lon="-1.961639"><ele>478</ele><time>2021-11-13T09:15:59Z</time><name>PT687</name></trkpt>
<trkpt lat="53.246177" lon="-1.961624"><ele>478</ele><time>2021-11-13T09:16:00Z</time><name>PT688</name></trkpt>
<trkpt lat="53.246185" lon="-1.961611"><ele>478</ele><time>2021-11-13T09:16:01Z</time><name>PT689</name></trkpt>
<trkpt lat="53.246193" lon="-1.961597"><ele>478</ele><time>2021-11-13T09:16:02Z</time><name>PT690</name></trkpt>
<trkpt lat="53.246202" lon="-1.961581"><ele>478</ele><time>2021-11-13T09:16:03Z</time><name>PT691</name></trkpt>
<trkpt lat="53.246208" lon="-1.961568"><ele>478</ele><time>2021-11-13T09:16:04Z</time><name>PT692</name></trkpt>
<trkpt lat="53.246215" lon="-1.961555"><ele>478</ele><time>2021-11-13T09:16:05Z</time><name>PT693</name></trkpt>
<trkpt lat="53.246223" lon="-1.961539"><ele>478</ele><time>2021-11-13T09:16:06Z</time><name>PT694</name></trkpt>
<trkpt lat="53.246230" lon="-1.961523"><ele>478</ele><time>2021-11-13T09:16:07Z</time><name>PT695</name></trkpt>
<trkpt lat="53.246237" lon="-1.961511"><ele>479</ele><time>2021-11-13T09:16:08Z</time><name>PT696</name></trkpt>
<trkpt lat="53.246245" lon="-1.961498"><ele>478</ele><time>2021-11-13T09:16:09Z</time><name>PT697</name></trkpt>
<trkpt lat="53.246252" lon="-1.961486"><ele>478</ele><time>2021-11-13T09:16:10Z</time><name>PT698</name></trkpt>
<trkpt lat="53.246262" lon="-1.961473"><ele>479</ele><time>2021-11-13T09:16:11Z</time><name>PT699</name></trkpt>
<trkpt lat="53.246271" lon="-1.961459"><ele>478</ele><time>2021-11-13T09:16:12Z</time><name>PT700</name></trkpt>
<trkpt lat="53.246279" lon="-1.961446"><ele>479</ele><time>2021-11-13T09:16:13Z</time><name>PT701</name></trkpt>
<trkpt lat="53.246288" lon="-1.961428"><ele>479</ele><time>2021-11-13T09:16:14Z</time><name>PT702</name></trkpt>
<trkpt lat="53.246296" lon="-1.961405"><ele>479</ele><time>2021-11-13T09:16:15Z</time><name>PT703</name></trkpt>
<trkpt lat="53.246303" lon="-1.961389"><ele>478</ele><time>2021-11-13T09:16:16Z</time><name>PT704</name></trkpt>
<trkpt lat="53.246312" lon="-1.961375"><ele>479</ele><time>2021-11-13T09:16:17Z</time><name>PT705</name></trkpt>
<trkpt lat="53.246321" lon="-1.961363"><ele>479</ele><time>2021-11-13T09:16:18Z</time><name>PT706</name></trkpt>
<trkpt lat="53.246327" lon="-1.961348"><ele>479</ele><time>2021-11-13T09:16:19Z</time><name>PT707</name></trkpt>
<trkpt lat="53.246333" lon="-1.961333"><ele>479</ele><time>2021-11-13T09:16:20Z</time><name>PT708</name></trkpt>
<trkpt lat="53.246340" lon="-1.961319"><ele>479</ele><time>2021-11-13T09:16:21Z</time><name>PT709</name></trkpt>
<trkpt lat="53.246347" lon="-1.961306"><ele>479</ele><time>2021-11-13T09:16:22Z</time><name>PT710</name></trkpt>
<trkpt lat="53.246353" lon="-1.961293"><ele>479</ele><time>2021-11-13T09:16:23Z</time><name>PT711</name></trkpt>
<trkpt lat="53.246360" lon="-1.961281"><ele>479</ele><time>2021-11-13T09:16:24Z</time><name>PT712</name></trkpt>
<trkpt lat="53.246367" lon="-1.961270"><ele>479</ele><time>2021-11-13T09:16:25Z</time><name>PT713</name></trkpt>
<trkpt lat="53.246374" lon="-1.961253"><ele>479</ele><time>2021-11-13T09:16:26Z</time><name>PT714</name></trkpt>
<trkpt lat="53.246383" lon="-1.961238"><ele>480</ele><time>2021-11-13T09:16:27Z</time><name>PT715</name></trkpt>
<trkpt lat="53.246389" lon="-1.961224"><ele>480</ele><time>2021-11-13T09:16:28Z</time><name>PT716</name></trkpt>
<trkpt lat="53.246395" lon="-1.961212"><ele>480</ele><time>2021-11-13T09:16:29Z</time><name>PT717</name></trkpt>
<trkpt lat="53.246402" lon="-1.961202"><ele>480</ele><time>2021-11-13T09:16:30Z</time><name>PT718</name></trkpt>
<trkpt lat="53.246408" lon="-1.961190"><ele>480</ele><time>2021-11-13T09:16:31Z</time><name>PT719</name></trkpt>
<trkpt lat="53.246414" lon="-1.961181"><ele>480</ele><time>2021-11-13T09:16:32Z</time><name>PT720</name></trkpt>
<trkpt lat="53.246420" lon="-1.961176"><ele>480</ele><time>2021-11-13T09:16:33Z</time><name>PT721</name></trkpt>
<trkpt lat="53.246428" lon="-1.961169"><ele>481</ele><time>2021-11-13T09:16:34Z</time><name>PT722</name></trkpt>
<trkpt lat="53.246434" lon="-1.961153"><ele>481</ele><time>2021-11-13T09:16:35Z</time><name>PT723</name></trkpt>
<trkpt lat="53.246464" lon="-1.961109"><ele>481</ele><time>2021-11-13T09:16:39Z</time><name>PT724</name></trkpt>
<trkpt lat="53.246499" lon="-1.961065"><ele>481</ele><time>2021-11-13T09:16:43Z</time><name>PT725</name></trkpt>
<trkpt lat="53.246528" lon="-1.961016"><ele>482</ele><time>2021-11-13T09:16:47Z</time><name>PT726</name></trkpt>
<trkpt lat="53.246556" lon="-1.960965"><ele>482</ele><time>2021-11-13T09:16:51Z</time><name>PT727</name></trkpt>
<trkpt lat="53.246586" lon="-1.960930"><ele>483</ele><time>2021-11-13T09:16:55Z</time><name>PT728</name></trkpt>
<trkpt lat="53.246611" lon="-1.960913"><ele>483</ele><time>2021-11-13T09:16:59Z</time><name>PT729</name></trkpt>
<trkpt lat="53.246617" lon="-1.960905"><ele>484</ele><time>2021-11-13T09:17:03Z</time><name>PT730</name></trkpt>
<trkpt lat="53.246618" lon="-1.960907"><ele>484</ele><time>2021-11-13T09:17:11Z</time><name>PT731</name></trkpt>
<trkpt lat="53.246644" lon="-1.960925"><ele>483</ele><time>2021-11-13T09:17:15Z</time><name>PT732</name></trkpt>
<trkpt lat="53.246646" lon="-1.960917"><ele>483</ele><time>2021-11-13T09:17:19Z</time><name>PT733</name></trkpt>
<trkpt lat="53.246652" lon="-1.960919"><ele>483</ele><time>2021-11-13T09:17:51Z</time><name>PT734</name></trkpt>
<trkpt lat="53.246681" lon="-1.960935"><ele>483</ele><time>2021-11-13T09:17:55Z</time><name>PT735</name></trkpt>
<trkpt lat="53.246684" lon="-1.960935"><ele>483</ele><time>2021-11-13T09:17:59Z</time><name>PT736</name></trkpt>
<trkpt lat="53.246704" lon="-1.960966"><ele>483</ele><time>2021-11-13T09:18:03Z</time><name>PT737</name></trkpt>
<trkpt lat="53.246743" lon="-1.960987"><ele>483</ele><time>2021-11-13T09:18:07Z</time><name>PT738</name></trkpt>
<trkpt lat="53.246793" lon="-1.960995"><ele>483</ele><time>2021-11-13T09:18:11Z</time><name>PT739</name></trkpt>
<trkpt lat="53.246840" lon="-1.961011"><ele>482</ele><time>2021-11-13T09:18:15Z</time><name>PT740</name></trkpt>
<trkpt lat="53.246887" lon="-1.961023"><ele>482</ele><time>2021-11-13T09:18:19Z</time><name>PT741</name></trkpt>
<trkpt lat="53.246938" lon="-1.961035"><ele>482</ele><time>2021-11-13T09:18:23Z</time><name>PT742</name></trkpt>
<trkpt lat="53.246986" lon="-1.961044"><ele>482</ele><time>2021-11-13T09:18:27Z</time><name>PT743</name></trkpt>
<trkpt lat="53.247034" lon="-1.961048"><ele>483</ele><time>2021-11-13T09:18:31Z</time><name>PT744</name></trkpt>
<trkpt lat="53.247056" lon="-1.961050"><ele>483</ele><time>2021-11-13T09:18:33Z</time><name>PT745</name></trkpt>
<trkpt lat="53.247066" lon="-1.961050"><ele>483</ele><time>2021-11-13T09:18:34Z</time><name>PT746</name></trkpt>
<trkpt lat="53.247078" lon="-1.961047"><ele>483</ele><time>2021-11-13T09:18:35Z</time><name>PT747</name></trkpt>
<trkpt lat="53.247088" lon="-1.961043"><ele>483</ele><time>2021-11-13T09:18:36Z</time><name>PT748</name></trkpt>
<trkpt lat="53.247099" lon="-1.961041"><ele>483</ele><time>2021-11-13T09:18:37Z</time><name>PT749</name></trkpt>
<trkpt lat="53.247112" lon="-1.961037"><ele>483</ele><time>2021-11-13T09:18:38Z</time><name>PT750</name></trkpt>
<trkpt lat="53.247123" lon="-1.961035"><ele>483</ele><time>2021-11-13T09:18:39Z</time><name>PT751</name></trkpt>
<trkpt lat="53.247136" lon="-1.961032"><ele>483</ele><time>2021-11-13T09:18:40Z</time><name>PT752</name></trkpt>
<trkpt lat="53.247149" lon="-1.961030"><ele>483</ele><time>2021-11-13T09:18:41Z</time><name>PT753</name></trkpt>
<trkpt lat="53.247160" lon="-1.961028"><ele>483</ele><time>2021-11-13T09:18:42Z</time><name>PT754</name></trkpt>
<trkpt lat="53.247171" lon="-1.961026"><ele>483</ele><time>2021-11-13T09:18:43Z</time><name>PT755</name></trkpt>
<trkpt lat="53.247185" lon="-1.961023"><ele>483</ele><time>2021-11-13T09:18:44Z</time><name>PT756</name></trkpt>
<trkpt lat="53.247199" lon="-1.961020"><ele>483</ele><time>2021-11-13T09:18:45Z</time><name>PT757</name></trkpt>
<trkpt lat="53.247211" lon="-1.961016"><ele>484</ele><time>2021-11-13T09:18:46Z</time><name>PT758</name></trkpt>
<trkpt lat="53.247224" lon="-1.961013"><ele>484</ele><time>2021-11-13T09:18:47Z</time><name>PT759</name></trkpt>
<trkpt lat="53.247235" lon="-1.961009"><ele>484</ele><time>2021-11-13T09:18:48Z</time><name>PT760</name></trkpt>
<trkpt lat="53.247246" lon="-1.961006"><ele>484</ele><time>2021-11-13T09:18:49Z</time><name>PT761</name></trkpt>
<trkpt lat="53.247258" lon="-1.961003"><ele>483</ele><time>2021-11-13T09:18:50Z</time><name>PT762</name></trkpt>
<trkpt lat="53.247269" lon="-1.960997"><ele>483</ele><time>2021-11-13T09:18:51Z</time><name>PT763</name></trkpt>
<trkpt lat="53.247283" lon="-1.960991"><ele>483</ele><time>2021-11-13T09:18:52Z</time><name>PT764</name></trkpt>
<trkpt lat="53.247297" lon="-1.960988"><ele>484</ele><time>2021-11-13T09:18:53Z</time><name>PT765</name></trkpt>
<trkpt lat="53.247310" lon="-1.960985"><ele>484</ele><time>2021-11-13T09:18:54Z</time><name>PT766</name></trkpt>
<trkpt lat="53.247321" lon="-1.960981"><ele>484</ele><time>2021-11-13T09:18:55Z</time><name>PT767</name></trkpt>
<trkpt lat="53.247332" lon="-1.960978"><ele>484</ele><time>2021-11-13T09:18:56Z</time><name>PT768</name></trkpt>
<trkpt lat="53.247344" lon="-1.960974"><ele>484</ele><time>2021-11-13T09:18:57Z</time><name>PT769</name></trkpt>
<trkpt lat="53.247357" lon="-1.960971"><ele>484</ele><time>2021-11-13T09:18:58Z</time><name>PT770</name></trkpt>
<trkpt lat="53.247367" lon="-1.960969"><ele>485</ele><time>2021-11-13T09:18:59Z</time><name>PT771</name></trkpt>
<trkpt lat="53.247381" lon="-1.960964"><ele>485</ele><time>2021-11-13T09:19:00Z</time><name>PT772</name></trkpt>
<trkpt lat="53.247394" lon="-1.960959"><ele>485</ele><time>2021-11-13T09:19:01Z</time><name>PT773</name></trkpt>
<trkpt lat="53.247406" lon="-1.960954"><ele>485</ele><time>2021-11-13T09:19:02Z</time><name>PT774</name></trkpt>
<trkpt lat="53.247419" lon="-1.960950"><ele>485</ele><time>2021-11-13T09:19:03Z</time><name>PT775</name></trkpt>
<trkpt lat="53.247431" lon="-1.960945"><ele>485</ele><time>2021-11-13T09:19:04Z</time><name>PT776</name></trkpt>
<trkpt lat="53.247444" lon="-1.960941"><ele>485</ele><time>2021-11-13T09:19:05Z</time><name>PT777</name></trkpt>
<trkpt lat="53.247457" lon="-1.960937"><ele>485</ele><time>2021-11-13T09:19:06Z</time><name>PT778</name></trkpt>
<trkpt lat="53.247467" lon="-1.960933"><ele>485</ele><time>2021-11-13T09:19:07Z</time><name>PT779</name></trkpt>
<trkpt lat="53.247480" lon="-1.960929"><ele>485</ele><time>2021-11-13T09:19:08Z</time><name>PT780</name></trkpt>
<trkpt lat="53.247493" lon="-1.960920"><ele>485</ele><time>2021-11-13T09:19:09Z</time><name>PT781</name></trkpt>
<trkpt lat="53.247504" lon="-1.960914"><ele>485</ele><time>2021-11-13T09:19:10Z</time><name>PT782</name></trkpt>
<trkpt lat="53.247515" lon="-1.960913"><ele>485</ele><time>2021-11-13T09:19:11Z</time><name>PT783</name></trkpt>
<trkpt lat="53.247528" lon="-1.960914"><ele>485</ele><time>2021-11-13T09:19:12Z</time><name>PT784</name></trkpt>
<trkpt lat="53.247540" lon="-1.960911"><ele>485</ele><time>2021-11-13T09:19:13Z</time><name>PT785</name></trkpt>
<trkpt lat="53.247553" lon="-1.960906"><ele>485</ele><time>2021-11-13T09:19:14Z</time><name>PT786</name></trkpt>
<trkpt lat="53.247566" lon="-1.960901"><ele>485</ele><time>2021-11-13T09:19:15Z</time><name>PT787</name></trkpt>
<trkpt lat="53.247576" lon="-1.960899"><ele>485</ele><time>2021-11-13T09:19:16Z</time><name>PT788</name></trkpt>
<trkpt lat="53.247587" lon="-1.960895"><ele>486</ele><time>2021-11-13T09:19:17Z</time><name>PT789</name></trkpt>
<trkpt lat="53.247599" lon="-1.960890"><ele>486</ele><time>2021-11-13T09:19:18Z</time><name>PT790</name></trkpt>
<trkpt lat="53.247611" lon="-1.960883"><ele>486</ele><time>2021-11-13T09:19:19Z</time><name>PT791</name></trkpt>
<trkpt lat="53.247621" lon="-1.960877"><ele>486</ele><time>2021-11-13T09:19:20Z</time><name>PT792</name></trkpt>
<trkpt lat="53.247630" lon="-1.960874"><ele>485</ele><time>2021-11-13T09:19:21Z</time><name>PT793</name></trkpt>
<trkpt lat="53.247645" lon="-1.960869"><ele>486</ele><time>2021-11-13T09:19:22Z</time><name>PT794</name></trkpt>
<trkpt lat="53.247659" lon="-1.960861"><ele>487</ele><time>2021-11-13T09:19:23Z</time><name>PT795</name></trkpt>
<trkpt lat="53.247668" lon="-1.960856"><ele>486</ele><time>2021-11-13T09:19:24Z</time><name>PT796</name></trkpt>
<trkpt lat="53.247682" lon="-1.960848"><ele>487</ele><time>2021-11-13T09:19:25Z</time><name>PT797</name></trkpt>
<trkpt lat="53.247695" lon="-1.960841"><ele>487</ele><time>2021-11-13T09:19:26Z</time><name>PT798</name></trkpt>
<trkpt lat="53.247709" lon="-1.960838"><ele>487</ele><time>2021-11-13T09:19:27Z</time><name>PT799</name></trkpt>
<trkpt lat="53.247723" lon="-1.960837"><ele>487</ele><time>2021-11-13T09:19:28Z</time><name>PT800</name></trkpt>
<trkpt lat="53.247734" lon="-1.960836"><ele>487</ele><time>2021-11-13T09:19:29Z</time><name>PT801</name></trkpt>
<trkpt lat="53.247746" lon="-1.960835"><ele>487</ele><time>2021-11-13T09:19:30Z</time><name>PT802</name></trkpt>
<trkpt lat="53.247758" lon="-1.960835"><ele>487</ele><time>2021-11-13T09:19:31Z</time><name>PT803</name></trkpt>
<trkpt lat="53.247772" lon="-1.960837"><ele>487</ele><time>2021-11-13T09:19:32Z</time><name>PT804</name></trkpt>
<trkpt lat="53.247782" lon="-1.960839"><ele>487</ele><time>2021-11-13T09:19:33Z</time><name>PT805</name></trkpt>
<trkpt lat="53.247794" lon="-1.960839"><ele>487</ele><time>2021-11-13T09:19:34Z</time><name>PT806</name></trkpt>
<trkpt lat="53.247807" lon="-1.960841"><ele>487</ele><time>2021-11-13T09:19:35Z</time><name>PT807</name></trkpt>
<trkpt lat="53.247820" lon="-1.960843"><ele>487</ele><time>2021-11-13T09:19:36Z</time><name>PT808</name></trkpt>
<trkpt lat="53.247833" lon="-1.960848"><ele>487</ele><time>2021-11-13T09:19:37Z</time><name>PT809</name></trkpt>
<trkpt lat="53.247848" lon="-1.960853"><ele>487</ele><time>2021-11-13T09:19:38Z</time><name>PT810</name></trkpt>
<trkpt lat="53.247861" lon="-1.960859"><ele>488</ele><time>2021-11-13T09:19:39Z</time><name>PT811</name></trkpt>
<trkpt lat="53.247873" lon="-1.960865"><ele>488</ele><time>2021-11-13T09:19:40Z</time><name>PT812</name></trkpt>
<trkpt lat="53.247883" lon="-1.960874"><ele>488</ele><time>2021-11-13T09:19:41Z</time><name>PT813</name></trkpt>
<trkpt lat="53.247891" lon="-1.960883"><ele>487</ele><time>2021-11-13T09:19:42Z</time><name>PT814</name></trkpt>
<trkpt lat="53.247902" lon="-1.960893"><ele>487</ele><time>2021-11-13T09:19:43Z</time><name>PT815</name></trkpt>
<trkpt lat="53.247914" lon="-1.960905"><ele>487</ele><time>2021-11-13T09:19:44Z</time><name>PT816</name></trkpt>
<trkpt lat="53.247925" lon="-1.960914"><ele>487</ele><time>2021-11-13T09:19:45Z</time><name>PT817</name></trkpt>
<trkpt lat="53.247936" lon="-1.960922"><ele>487</ele><time>2021-11-13T09:19:46Z</time><name>PT818</name></trkpt>
<trkpt lat="53.247947" lon="-1.960931"><ele>487</ele><time>2021-11-13T09:19:47Z</time><name>PT819</name></trkpt>
<trkpt lat="53.247958" lon="-1.960940"><ele>487</ele><time>2021-11-13T09:19:48Z</time><name>PT820</name></trkpt>
<trkpt lat="53.247968" lon="-1.960949"><ele>487</ele><time>2021-11-13T09:19:49Z</time><name>PT821</name></trkpt>
<trkpt lat="53.247979" lon="-1.960959"><ele>487</ele><time>2021-11-13T09:19:50Z</time><name>PT822</name></trkpt>
<trkpt lat="53.247991" lon="-1.960968"><ele>487</ele><time>2021-11-13T09:19:51Z</time><name>PT823</name></trkpt>
<trkpt lat="53.248003" lon="-1.960977"><ele>487</ele><time>2021-11-13T09:19:52Z</time><name>PT824</name></trkpt>
<trkpt lat="53.248016" lon="-1.960985"><ele>488</ele><time>2021-11-13T09:19:53Z</time><name>PT825</name></trkpt>
<trkpt lat="53.248027" lon="-1.960996"><ele>487</ele><time>2021-11-13T09:19:54Z</time><name>PT826</name></trkpt>
<trkpt lat="53.248036" lon="-1.961004"><ele>487</ele><time>2021-11-13T09:19:55Z</time><name>PT827</name></trkpt>
<trkpt lat="53.248047" lon="-1.961014"><ele>487</ele><time>2021-11-13T09:19:56Z</time><name>PT828</name></trkpt>
<trkpt lat="53.248057" lon="-1.961027"><ele>487</ele><time>2021-11-13T09:19:57Z</time><name>PT829</name></trkpt>
<trkpt lat="53.248067" lon="-1.961037"><ele>487</ele><time>2021-11-13T09:19:58Z</time><name>PT830</name></trkpt>
<trkpt lat="53.248078" lon="-1.961047"><ele>487</ele><time>2021-11-13T09:19:59Z</time><name>PT831</name></trkpt>
<trkpt lat="53.248089" lon="-1.961058"><ele>487</ele><time>2021-11-13T09:20:00Z</time><name>PT832</name></trkpt>
<trkpt lat="53.248101" lon="-1.961069"><ele>487</ele><time>2021-11-13T09:20:01Z</time><name>PT833</name></trkpt>
<trkpt lat="53.248111" lon="-1.961079"><ele>487</ele><time>2021-11-13T09:20:02Z</time><name>PT834</name></trkpt>
<trkpt lat="53.248123" lon="-1.961088"><ele>487</ele><time>2021-11-13T09:20:03Z</time><name>PT835</name></trkpt>
<trkpt lat="53.248135" lon="-1.961096"><ele>487</ele><time>2021-11-13T09:20:04Z</time><name>PT836</name></trkpt>
<trkpt lat="53.248149" lon="-1.961107"><ele>487</ele><time>2021-11-13T09:20:05Z</time><name>PT837</name></trkpt>
<trkpt lat="53.248161" lon="-1.961110"><ele>487</ele><time>2021-11-13T09:20:06Z</time><name>PT838</name></trkpt>
<trkpt lat="53.248173" lon="-1.961113"><ele>487</ele><time>2021-11-13T09:20:07Z</time><name>PT839</name></trkpt>
<trkpt lat="53.248186" lon="-1.961119"><ele>487</ele><time>2021-11-13T09:20:08Z</time><name>PT840</name></trkpt>
<trkpt lat="53.248196" lon="-1.961130"><ele>487</ele><time>2021-11-13T09:20:09Z</time><name>PT841</name></trkpt>
<trkpt lat="53.248207" lon="-1.961141"><ele>486</ele><time>2021-11-13T09:20:10Z</time><name>PT842</name></trkpt>
<trkpt lat="53.248220" lon="-1.961147"><ele>487</ele><time>2021-11-13T09:20:11Z</time><name>PT843</name></trkpt>
<trkpt lat="53.248234" lon="-1.961153"><ele>487</ele><time>2021-11-13T09:20:12Z</time><name>PT844</name></trkpt>
<trkpt lat="53.248244" lon="-1.961162"><ele>487</ele><time>2021-11-13T09:20:13Z</time><name>PT845</name></trkpt>
<trkpt lat="53.248253" lon="-1.961168"><ele>487</ele><time>2021-11-13T09:20:14Z</time><name>PT846</name></trkpt>
<trkpt lat="53.248265" lon="-1.961174"><ele>487</ele><time>2021-11-13T09:20:15Z</time><name>PT847</name></trkpt>
<trkpt lat="53.248276" lon="-1.961174"><ele>487</ele><time>2021-11-13T09:20:16Z</time><name>PT848</name></trkpt>
<trkpt lat="53.248287" lon="-1.961170"><ele>487</ele><time>2021-11-13T09:20:17Z</time><name>PT849</name></trkpt>
<trkpt lat="53.248297" lon="-1.961162"><ele>486</ele><time>2021-11-13T09:20:18Z</time><name>PT850</name></trkpt>
<trkpt lat="53.248307" lon="-1.961155"><ele>486</ele><time>2021-11-13T09:20:19Z</time><name>PT851</name></trkpt>
<trkpt lat="53.248318" lon="-1.961154"><ele>487</ele><time>2021-11-13T09:20:20Z</time><name>PT852</name></trkpt>
<trkpt lat="53.248330" lon="-1.961151"><ele>487</ele><time>2021-11-13T09:20:21Z</time><name>PT853</name></trkpt>
<trkpt lat="53.248343" lon="-1.961150"><ele>487</ele><time>2021-11-13T09:20:22Z</time><name>PT854</name></trkpt>
<trkpt lat="53.248353" lon="-1.961147"><ele>487</ele><time>2021-11-13T09:20:23Z</time><name>PT855</name></trkpt>
<trkpt lat="53.248365" lon="-1.961146"><ele>487</ele><time>2021-11-13T09:20:24Z</time><name>PT856</name></trkpt>
<trkpt lat="53.248376" lon="-1.961149"><ele>487</ele><time>2021-11-13T09:20:25Z</time><name>PT857</name></trkpt>
<trkpt lat="53.248387" lon="-1.961149"><ele>487</ele><time>2021-11-13T09:20:26Z</time><name>PT858</name></trkpt>
<trkpt lat="53.248398" lon="-1.961147"><ele>488</ele><time>2021-11-13T09:20:27Z</time><name>PT859</name></trkpt>
<trkpt lat="53.248409" lon="-1.961147"><ele>487</ele><time>2021-11-13T09:20:28Z</time><name>PT860</name></trkpt>
<trkpt lat="53.248421" lon="-1.961147"><ele>487</ele><time>2021-11-13T09:20:29Z</time><name>PT861</name></trkpt>
<trkpt lat="53.248434" lon="-1.961148"><ele>487</ele><time>2021-11-13T09:20:30Z</time><name>PT862</name></trkpt>
<trkpt lat="53.248444" lon="-1.961150"><ele>487</ele><time>2021-11-13T09:20:31Z</time><name>PT863</name></trkpt>
<trkpt lat="53.248454" lon="-1.961152"><ele>487</ele><time>2021-11-13T09:20:32Z</time><name>PT864</name></trkpt>
<trkpt lat="53.248493" lon="-1.961154"><ele>488</ele><time>2021-11-13T09:20:35Z</time><name>PT865</name></trkpt>
<trkpt lat="53.248536" lon="-1.961168"><ele>487</ele><time>2021-11-13T09:20:39Z</time><name>PT866</name></trkpt>
<trkpt lat="53.248585" lon="-1.961171"><ele>489</ele><time>2021-11-13T09:20:43Z</time><name>PT867</name></trkpt>
<trkpt lat="53.248640" lon="-1.961166"><ele>489</ele><time>2021-11-13T09:20:47Z</time><name>PT868</name></trkpt>
<trkpt lat="53.248689" lon="-1.961193"><ele>489</ele><time>2021-11-13T09:20:51Z</time><name>PT869</name></trkpt>
<trkpt lat="53.248728" lon="-1.961214"><ele>489</ele><time>2021-11-13T09:20:55Z</time><name>PT870</name></trkpt>
<trkpt lat="53.248766" lon="-1.961232"><ele>489</ele><time>2021-11-13T09:20:59Z</time><name>PT871</name></trkpt>
<trkpt lat="53.248809" lon="-1.961247"><ele>489</ele><time>2021-11-13T09:21:03Z</time><name>PT872</name></trkpt>
<trkpt lat="53.248857" lon="-1.961221"><ele>490</ele><time>2021-11-13T09:21:07Z</time><name>PT873</name></trkpt>
<trkpt lat="53.248900" lon="-1.961194"><ele>491</ele><time>2021-11-13T09:21:11Z</time><name>PT874</name></trkpt>
<trkpt lat="53.248939" lon="-1.961170"><ele>490</ele><time>2021-11-13T09:21:15Z</time><name>PT875</name></trkpt>
<trkpt lat="53.248985" lon="-1.961163"><ele>491</ele><time>2021-11-13T09:21:19Z</time><name>PT876</name></trkpt>
<trkpt lat="53.249027" lon="-1.961151"><ele>489</ele><time>2021-11-13T09:21:23Z</time><name>PT877</name></trkpt>
<trkpt lat="53.249069" lon="-1.961127"><ele>489</ele><time>2021-11-13T09:21:27Z</time><name>PT878</name></trkpt>
<trkpt lat="53.249114" lon="-1.961130"><ele>489</ele><time>2021-11-13T09:21:31Z</time><name>PT879</name></trkpt>
<trkpt lat="53.249162" lon="-1.961138"><ele>488</ele><time>2021-11-13T09:21:35Z</time><name>PT880</name></trkpt>
<trkpt lat="53.249201" lon="-1.961129"><ele>488</ele><time>2021-11-13T09:21:39Z</time><name>PT881</name></trkpt>
<trkpt lat="53.249245" lon="-1.961130"><ele>487</ele><time>2021-11-13T09:21:43Z</time><name>PT882</name></trkpt>
<trkpt lat="53.249288" lon="-1.961134"><ele>487</ele><time>2021-11-13T09:21:47Z</time><name>PT883</name></trkpt>
<trkpt lat="53.249330" lon="-1.961129"><ele>486</ele><time>2021-11-13T09:21:51Z</time><name>PT884</name></trkpt>
<trkpt lat="53.249375" lon="-1.961121"><ele>487</ele><time>2021-11-13T09:21:55Z</time><name>PT885</name></trkpt>
<trkpt lat="53.249418" lon="-1.961119"><ele>487</ele><time>2021-11-13T09:21:59Z</time><name>PT886</name></trkpt>
<trkpt lat="53.249466" lon="-1.961115"><ele>487</ele><time>2021-11-13T09:22:03Z</time><name>PT887</name></trkpt>
<trkpt lat="53.249507" lon="-1.961120"><ele>486</ele><time>2021-11-13T09:22:07Z</time><name>PT888</name></trkpt>
<trkpt lat="53.249550" lon="-1.961121"><ele>486</ele><time>2021-11-13T09:22:11Z</time><name>PT889</name></trkpt>
<trkpt lat="53.249592" lon="-1.961122"><ele>486</ele><time>2021-11-13T09:22:15Z</time><name>PT890</name></trkpt>
<trkpt lat="53.249635" lon="-1.961115"><ele>486</ele><time>2021-11-13T09:22:19Z</time><name>PT891</name></trkpt>
<trkpt lat="53.249678" lon="-1.961119"><ele>486</ele><time>2021-11-13T09:22:23Z</time><name>PT892</name></trkpt>
<trkpt lat="53.249725" lon="-1.961117"><ele>486</ele><time>2021-11-13T09:22:27Z</time><name>PT893</name></trkpt>
<trkpt lat="53.249776" lon="-1.961108"><ele>487</ele><time>2021-11-13T09:22:31Z</time><name>PT894</name></trkpt>
<trkpt lat="53.249818" lon="-1.961114"><ele>487</ele><time>2021-11-13T09:22:35Z</time><name>PT895</name></trkpt>
<trkpt lat="53.249868" lon="-1.961113"><ele>486</ele><time>2021-11-13T09:22:39Z</time><name>PT896</name></trkpt>
<trkpt lat="53.249914" lon="-1.961113"><ele>486</ele><time>2021-11-13T09:22:43Z</time><name>PT897</name></trkpt>
<trkpt lat="53.249966" lon="-1.961122"><ele>486</ele><time>2021-11-13T09:22:47Z</time><name>PT898</name></trkpt>
<trkpt lat="53.250018" lon="-1.961104"><ele>486</ele><time>2021-11-13T09:22:51Z</time><name>PT899</name></trkpt>
<trkpt lat="53.250068" lon="-1.961117"><ele>486</ele><time>2021-11-13T09:22:55Z</time><name>PT900</name></trkpt>
<trkpt lat="53.250121" lon="-1.961109"><ele>486</ele><time>2021-11-13T09:22:59Z</time><name>PT901</name></trkpt>
<trkpt lat="53.250175" lon="-1.961111"><ele>486</ele><time>2021-11-13T09:23:03Z</time><name>PT902</name></trkpt>
<trkpt lat="53.250223" lon="-1.961113"><ele>486</ele><time>2021-11-13T09:23:07Z</time><name>PT903</name></trkpt>
<trkpt lat="53.250274" lon="-1.961113"><ele>485</ele><time>2021-11-13T09:23:11Z</time><name>PT904</name></trkpt>
<trkpt lat="53.250327" lon="-1.961114"><ele>485</ele><time>2021-11-13T09:23:15Z</time><name>PT905</name></trkpt>
<trkpt lat="53.250378" lon="-1.961125"><ele>483</ele><time>2021-11-13T09:23:19Z</time><name>PT906</name></trkpt>
<trkpt lat="53.250432" lon="-1.961140"><ele>483</ele><time>2021-11-13T09:23:23Z</time><name>PT907</name></trkpt>
<trkpt lat="53.250479" lon="-1.961180"><ele>483</ele><time>2021-11-13T09:23:27Z</time><name>PT908</name></trkpt>
<trkpt lat="53.250521" lon="-1.961230"><ele>482</ele><time>2021-11-13T09:23:31Z</time><name>PT909</name></trkpt>
<trkpt lat="53.250566" lon="-1.961281"><ele>483</ele><time>2021-11-13T09:23:35Z</time><name>PT910</name></trkpt>
<trkpt lat="53.250599" lon="-1.961337"><ele>482</ele><time>2021-11-13T09:23:39Z</time><name>PT911</name></trkpt>
<trkpt lat="53.250640" lon="-1.961379"><ele>482</ele><time>2021-11-13T09:23:43Z</time><name>PT912</name></trkpt>
<trkpt lat="53.250675" lon="-1.961425"><ele>482</ele><time>2021-11-13T09:23:47Z</time><name>PT913</name></trkpt>
<trkpt lat="53.250714" lon="-1.961470"><ele>482</ele><time>2021-11-13T09:23:51Z</time><name>PT914</name></trkpt>
<trkpt lat="53.250753" lon="-1.961519"><ele>482</ele><time>2021-11-13T09:23:55Z</time><name>PT915</name></trkpt>
<trkpt lat="53.250780" lon="-1.961586"><ele>482</ele><time>2021-11-13T09:23:59Z</time><name>PT916</name></trkpt>
<trkpt lat="53.250814" lon="-1.961651"><ele>482</ele><time>2021-11-13T09:24:03Z</time><name>PT917</name></trkpt>
<trkpt lat="53.250847" lon="-1.961713"><ele>482</ele><time>2021-11-13T09:24:07Z</time><name>PT918</name></trkpt>
<trkpt lat="53.250874" lon="-1.961773"><ele>481</ele><time>2021-11-13T09:24:11Z</time><name>PT919</name></trkpt>
<trkpt lat="53.250899" lon="-1.961823"><ele>480</ele><time>2021-11-13T09:24:15Z</time><name>PT920</name></trkpt>
<trkpt lat="53.250922" lon="-1.961881"><ele>479</ele><time>2021-11-13T09:24:19Z</time><name>PT921</name></trkpt>
<trkpt lat="53.250952" lon="-1.961934"><ele>478</ele><time>2021-11-13T09:24:23Z</time><name>PT922</name></trkpt>
<trkpt lat="53.250982" lon="-1.961986"><ele>477</ele><time>2021-11-13T09:24:27Z</time><name>PT923</name></trkpt>
<trkpt lat="53.251014" lon="-1.962042"><ele>477</ele><time>2021-11-13T09:24:31Z</time><name>PT924</name></trkpt>
<trkpt lat="53.251052" lon="-1.962088"><ele>477</ele><time>2021-11-13T09:24:35Z</time><name>PT925</name></trkpt>
<trkpt lat="53.251084" lon="-1.962146"><ele>475</ele><time>2021-11-13T09:24:39Z</time><name>PT926</name></trkpt>
<trkpt lat="53.251119" lon="-1.962198"><ele>475</ele><time>2021-11-13T09:24:43Z</time><name>PT927</name></trkpt>
<trkpt lat="53.251157" lon="-1.962250"><ele>475</ele><time>2021-11-13T09:24:47Z</time><name>PT928</name></trkpt>
<trkpt lat="53.251184" lon="-1.962313"><ele>474</ele><time>2021-11-13T09:24:51Z</time><name>PT929</name></trkpt>
<trkpt lat="53.251213" lon="-1.962379"><ele>474</ele><time>2021-11-13T09:24:55Z</time><name>PT930</name></trkpt>
<trkpt lat="53.251231" lon="-1.962447"><ele>473</ele><time>2021-11-13T09:24:59Z</time><name>PT931</name></trkpt>
<trkpt lat="53.251237" lon="-1.962524"><ele>472</ele><time>2021-11-13T09:25:03Z</time><name>PT932</name></trkpt>
<trkpt lat="53.251242" lon="-1.962601"><ele>471</ele><time>2021-11-13T09:25:07Z</time><name>PT933</name></trkpt>
<trkpt lat="53.251249" lon="-1.962680"><ele>470</ele><time>2021-11-13T09:25:11Z</time><name>PT934</name></trkpt>
<trkpt lat="53.251257" lon="-1.962748"><ele>470</ele><time>2021-11-13T09:25:15Z</time><name>PT935</name></trkpt>
<trkpt lat="53.251263" lon="-1.962816"><ele>469</ele><time>2021-11-13T09:25:19Z</time><name>PT936</name></trkpt>
<trkpt lat="53.251268" lon="-1.962874"><ele>468</ele><time>2021-11-13T09:25:23Z</time><name>PT937</name></trkpt>
<trkpt lat="53.251275" lon="-1.962927"><ele>467</ele><time>2021-11-13T09:25:27Z</time><name>PT938</name></trkpt>
<trkpt lat="53.251275" lon="-1.962979"><ele>467</ele><time>2021-11-13T09:25:31Z</time><name>PT939</name></trkpt>
<trkpt lat="53.251276" lon="-1.963035"><ele>466</ele><time>2021-11-13T09:25:35Z</time><name>PT940</name></trkpt>
<trkpt lat="53.251282" lon="-1.963108"><ele>466</ele><time>2021-11-13T09:25:39Z</time><name>PT941</name></trkpt>
<trkpt lat="53.251290" lon="-1.963176"><ele>465</ele><time>2021-11-13T09:25:43Z</time><name>PT942</name></trkpt>
<trkpt lat="53.251300" lon="-1.963249"><ele>465</ele><time>2021-11-13T09:25:47Z</time><name>PT943</name></trkpt>
<trkpt lat="53.251318" lon="-1.963303"><ele>464</ele><time>2021-11-13T09:25:51Z</time><name>PT944</name></trkpt>
<trkpt lat="53.251338" lon="-1.963377"><ele>463</ele><time>2021-11-13T09:25:55Z</time><name>PT945</name></trkpt>
<trkpt lat="53.251348" lon="-1.963441"><ele>463</ele><time>2021-11-13T09:25:59Z</time><name>PT946</name></trkpt>
<trkpt lat="53.251349" lon="-1.963496"><ele>463</ele><time>2021-11-13T09:26:03Z</time><name>PT947</name></trkpt>
<trkpt lat="53.251338" lon="-1.963546"><ele>462</ele><time>2021-11-13T09:26:07Z</time><name>PT948</name></trkpt>
<trkpt lat="53.251337" lon="-1.963612"><ele>460</ele><time>2021-11-13T09:26:11Z</time><name>PT949</name></trkpt>
<trkpt lat="53.251339" lon="-1.963669"><ele>459</ele><time>2021-11-13T09:26:15Z</time><name>PT950</name></trkpt>
<trkpt lat="53.251338" lon="-1.963705"><ele>458</ele><time>2021-11-13T09:26:19Z</time><name>PT951</name></trkpt>
<trkpt lat="53.251337" lon="-1.963766"><ele>457</ele><time>2021-11-13T09:26:23Z</time><name>PT952</name></trkpt>
<trkpt lat="53.251328" lon="-1.963812"><ele>457</ele><time>2021-11-13T09:26:27Z</time><name>PT953</name></trkpt>
<trkpt lat="53.251328" lon="-1.963865"><ele>456</ele><time>2021-11-13T09:26:31Z</time><name>PT954</name></trkpt>
<trkpt lat="53.251325" lon="-1.963897"><ele>455</ele><time>2021-11-13T09:26:35Z</time><name>PT955</name></trkpt>
<trkpt lat="53.251311" lon="-1.963978"><ele>454</ele><time>2021-11-13T09:26:47Z</time><name>PT956</name></trkpt>
<trkpt lat="53.251313" lon="-1.964044"><ele>454</ele><time>2021-11-13T09:26:51Z</time><name>PT957</name></trkpt>
<trkpt lat="53.251305" lon="-1.964117"><ele>452</ele><time>2021-11-13T09:26:55Z</time><name>PT958</name></trkpt>
<trkpt lat="53.251304" lon="-1.964194"><ele>451</ele><time>2021-11-13T09:26:59Z</time><name>PT959</name></trkpt>
<trkpt lat="53.251290" lon="-1.964252"><ele>450</ele><time>2021-11-13T09:27:03Z</time><name>PT960</name></trkpt>
<trkpt lat="53.251290" lon="-1.964299"><ele>451</ele><time>2021-11-13T09:27:07Z</time><name>PT961</name></trkpt>
<trkpt lat="53.251290" lon="-1.964332"><ele>450</ele><time>2021-11-13T09:27:11Z</time><name>PT962</name></trkpt>
<trkpt lat="53.251292" lon="-1.964398"><ele>449</ele><time>2021-11-13T09:27:15Z</time><name>PT963</name></trkpt>
<trkpt lat="53.251292" lon="-1.964472"><ele>448</ele><time>2021-11-13T09:27:19Z</time><name>PT964</name></trkpt>
<trkpt lat="53.251290" lon="-1.964553"><ele>448</ele><time>2021-11-13T09:27:23Z</time><name>PT965</name></trkpt>
<trkpt lat="53.251280" lon="-1.964618"><ele>447</ele><time>2021-11-13T09:27:27Z</time><name>PT966</name></trkpt>
<trkpt lat="53.251276" lon="-1.964689"><ele>447</ele><time>2021-11-13T09:27:31Z</time><name>PT967</name></trkpt>
<trkpt lat="53.251278" lon="-1.964761"><ele>446</ele><time>2021-11-13T09:27:35Z</time><name>PT968</name></trkpt>
<trkpt lat="53.251285" lon="-1.964833"><ele>446</ele><time>2021-11-13T09:27:39Z</time><name>PT969</name></trkpt>
<trkpt lat="53.251286" lon="-1.964899"><ele>445</ele><time>2021-11-13T09:27:43Z</time><name>PT970</name></trkpt>
<trkpt lat="53.251298" lon="-1.964962"><ele>446</ele><time>2021-11-13T09:27:47Z</time><name>PT971</name></trkpt>
<trkpt lat="53.251302" lon="-1.965031"><ele>445</ele><time>2021-11-13T09:27:51Z</time><name>PT972</name></trkpt>
<trkpt lat="53.251304" lon="-1.965086"><ele>444</ele><time>2021-11-13T09:27:55Z</time><name>PT973</name></trkpt>
<trkpt lat="53.251307" lon="-1.965151"><ele>443</ele><time>2021-11-13T09:27:59Z</time><name>PT974</name></trkpt>
<trkpt lat="53.251311" lon="-1.965216"><ele>442</ele><time>2021-11-13T09:28:03Z</time><name>PT975</name></trkpt>
<trkpt lat="53.251320" lon="-1.965279"><ele>441</ele><time>2021-11-13T09:28:07Z</time><name>PT976</name></trkpt>
<trkpt lat="53.251330" lon="-1.965340"><ele>440</ele><time>2021-11-13T09:28:11Z</time><name>PT977</name></trkpt>
<trkpt lat="53.251343" lon="-1.965402"><ele>440</ele><time>2021-11-13T09:28:15Z</time><name>PT978</name></trkpt>
<trkpt lat="53.251357" lon="-1.965465"><ele>440</ele><time>2021-11-13T09:28:19Z</time><name>PT979</name></trkpt>
<trkpt lat="53.251372" lon="-1.965544"><ele>440</ele><time>2021-11-13T09:28:23Z</time><name>PT980</name></trkpt>
<trkpt lat="53.251383" lon="-1.965615"><ele>439</ele><time>2021-11-13T09:28:27Z</time><name>PT981</name></trkpt>
<trkpt lat="53.251408" lon="-1.965662"><ele>439</ele><time>2021-11-13T09:28:31Z</time><name>PT982</name></trkpt>
<trkpt lat="53.251432" lon="-1.965721"><ele>438</ele><time>2021-11-13T09:28:35Z</time><name>PT983</name></trkpt>
<trkpt lat="53.251466" lon="-1.965750"><ele>438</ele><time>2021-11-13T09:28:39Z</time><name>PT984</name></trkpt>
<trkpt lat="53.251502" lon="-1.965784"><ele>439</ele><time>2021-11-13T09:28:43Z</time><name>PT985</name></trkpt>
<trkpt lat="53.251540" lon="-1.965797"><ele>439</ele><time>2021-11-13T09:28:47Z</time><name>PT986</name></trkpt>
<trkpt lat="53.251577" lon="-1.965795"><ele>439</ele><time>2021-11-13T09:28:51Z</time><name>PT987</name></trkpt>
<trkpt lat="53.251616" lon="-1.965776"><ele>439</ele><time>2021-11-13T09:28:55Z</time><name>PT988</name></trkpt>
<trkpt lat="53.251650" lon="-1.965771"><ele>438</ele><time>2021-11-13T09:28:59Z</time><name>PT989</name></trkpt>
<trkpt lat="53.251685" lon="-1.965757"><ele>438</ele><time>2021-11-13T09:29:03Z</time><name>PT990</name></trkpt>
<trkpt lat="53.251720" lon="-1.965744"><ele>437</ele><time>2021-11-13T09:29:07Z</time><name>PT991</name></trkpt>
<trkpt lat="53.251751" lon="-1.965715"><ele>436</ele><time>2021-11-13T09:29:11Z</time><name>PT992</name></trkpt>
<trkpt lat="53.251777" lon="-1.965685"><ele>435</ele><time>2021-11-13T09:29:15Z</time><name>PT993</name></trkpt>
<trkpt lat="53.251793" lon="-1.965648"><ele>434</ele><time>2021-11-13T09:29:19Z</time><name>PT994</name></trkpt>
<trkpt lat="53.251806" lon="-1.965631"><ele>434</ele><time>2021-11-13T09:29:23Z</time><name>PT995</name></trkpt>
<trkpt lat="53.251841" lon="-1.965632"><ele>433</ele><time>2021-11-13T09:29:27Z</time><name>PT996</name></trkpt>
<trkpt lat="53.251877" lon="-1.965662"><ele>433</ele><time>2021-11-13T09:29:31Z</time><name>PT997</name></trkpt>
<trkpt lat="53.251896" lon="-1.965707"><ele>434</ele><time>2021-11-13T09:29:35Z</time><name>PT998</name></trkpt>
<trkpt lat="53.251917" lon="-1.965775"><ele>433</ele><time>2021-11-13T09:29:39Z</time><name>PT999</name></trkpt>
<trkpt lat="53.251928" lon="-1.965843"><ele>433</ele><time>2021-11-13T09:29:43Z</time><name>PT1000</name></trkpt>
<trkpt lat="53.251930" lon="-1.965901"><ele>432</ele><time>2021-11-13T09:29:47Z</time><name>PT1001</name></trkpt>
<trkpt lat="53.251947" lon="-1.965961"><ele>431</ele><time>2021-11-13T09:29:51Z</time><name>PT1002</name></trkpt>
<trkpt lat="53.251961" lon="-1.966032"><ele>430</ele><time>2021-11-13T09:29:55Z</time><name>PT1003</name></trkpt>
<trkpt lat="53.251973" lon="-1.966109"><ele>429</ele><time>2021-11-13T09:29:59Z</time><name>PT1004</name></trkpt>
<trkpt lat="53.251970" lon="-1.966177"><ele>428</ele><time>2021-11-13T09:30:03Z</time><name>PT1005</name></trkpt>
<trkpt lat="53.251972" lon="-1.966245"><ele>426</ele><time>2021-11-13T09:30:07Z</time><name>PT1006</name></trkpt>
<trkpt lat="53.251983" lon="-1.966303"><ele>426</ele><time>2021-11-13T09:30:11Z</time><name>PT1007</name></trkpt>
<trkpt lat="53.251990" lon="-1.966367"><ele>426</ele><time>2021-11-13T09:30:15Z</time><name>PT1008</name></trkpt>
<trkpt lat="53.251989" lon="-1.966418"><ele>425</ele><time>2021-11-13T09:30:19Z</time><name>PT1009</name></trkpt>
<trkpt lat="53.251988" lon="-1.966470"><ele>425</ele><time>2021-11-13T09:30:23Z</time><name>PT1010</name></trkpt>
<trkpt lat="53.251998" lon="-1.966541"><ele>425</ele><time>2021-11-13T09:30:27Z</time><name>PT1011</name></trkpt>
<trkpt lat="53.251997" lon="-1.966605"><ele>424</ele><time>2021-11-13T09:30:31Z</time><name>PT1012</name></trkpt>
<trkpt lat="53.251998" lon="-1.966677"><ele>423</ele><time>2021-11-13T09:30:35Z</time><name>PT1013</name></trkpt>
<trkpt lat="53.251998" lon="-1.966749"><ele>423</ele><time>2021-11-13T09:30:39Z</time><name>PT1014</name></trkpt>
<trkpt lat="53.252000" lon="-1.966799"><ele>422</ele><time>2021-11-13T09:30:43Z</time><name>PT1015</name></trkpt>
<trkpt lat="53.252004" lon="-1.966872"><ele>422</ele><time>2021-11-13T09:30:47Z</time><name>PT1016</name></trkpt>
<trkpt lat="53.252011" lon="-1.966946"><ele>421</ele><time>2021-11-13T09:30:51Z</time><name>PT1017</name></trkpt>
<trkpt lat="53.252016" lon="-1.967020"><ele>421</ele><time>2021-11-13T09:30:55Z</time><name>PT1018</name></trkpt>
<trkpt lat="53.252026" lon="-1.967090"><ele>420</ele><time>2021-11-13T09:30:59Z</time><name>PT1019</name></trkpt>
<trkpt lat="53.252030" lon="-1.967151"><ele>420</ele><time>2021-11-13T09:31:03Z</time><name>PT1020</name></trkpt>
<trkpt lat="53.252037" lon="-1.967227"><ele>419</ele><time>2021-11-13T09:31:07Z</time><name>PT1021</name></trkpt>
<trkpt lat="53.252046" lon="-1.967292"><ele>419</ele><time>2021-11-13T09:31:11Z</time><name>PT1022</name></trkpt>
<trkpt lat="53.252051" lon="-1.967372"><ele>420</ele><time>2021-11-13T09:31:15Z</time><name>PT1023</name></trkpt>
<trkpt lat="53.252056" lon="-1.967433"><ele>420</ele><time>2021-11-13T09:31:19Z</time><name>PT1024</name></trkpt>
<trkpt lat="53.252061" lon="-1.967492"><ele>420</ele><time>2021-11-13T09:31:23Z</time><name>PT1025</name></trkpt>
<trkpt lat="53.252063" lon="-1.967553"><ele>420</ele><time>2021-11-13T09:31:27Z</time><name>PT1026</name></trkpt>
<trkpt lat="53.252065" lon="-1.967601"><ele>419</ele><time>2021-11-13T09:31:31Z</time><name>PT1027</name></trkpt>
<trkpt lat="53.252068" lon="-1.967659"><ele>418</ele><time>2021-11-13T09:31:35Z</time><name>PT1028</name></trkpt>
<trkpt lat="53.252086" lon="-1.967721"><ele>418</ele><time>2021-11-13T09:31:39Z</time><name>PT1029</name></trkpt>
<trkpt lat="53.252090" lon="-1.967786"><ele>417</ele><time>2021-11-13T09:31:43Z</time><name>PT1030</name></trkpt>
<trkpt lat="53.252095" lon="-1.967848"><ele>417</ele><time>2021-11-13T09:31:47Z</time><name>PT1031</name></trkpt>
<trkpt lat="53.252107" lon="-1.967902"><ele>417</ele><time>2021-11-13T09:31:51Z</time><name>PT1032</name></trkpt>
<trkpt lat="53.252115" lon="-1.967960"><ele>416</ele><time>2021-11-13T09:31:55Z</time><name>PT1033</name></trkpt>
<trkpt lat="53.252128" lon="-1.968015"><ele>415</ele><time>2021-11-13T09:31:59Z</time><name>PT1034</name></trkpt>
<trkpt lat="53.252144" lon="-1.968076"><ele>415</ele><time>2021-11-13T09:32:03Z</time><name>PT1035</name></trkpt>
<trkpt lat="53.252156" lon="-1.968146"><ele>415</ele><time>2021-11-13T09:32:07Z</time><name>PT1036</name></trkpt>
<trkpt lat="53.252170" lon="-1.968206"><ele>414</ele><time>2021-11-13T09:32:11Z</time><name>PT1037</name></trkpt>
<trkpt lat="53.252184" lon="-1.968261"><ele>413</ele><time>2021-11-13T09:32:15Z</time><name>PT1038</name></trkpt>
<trkpt lat="53.252198" lon="-1.968313"><ele>412</ele><time>2021-11-13T09:32:19Z</time><name>PT1039</name></trkpt>
<trkpt lat="53.252211" lon="-1.968371"><ele>412</ele><time>2021-11-13T09:32:23Z</time><name>PT1040</name></trkpt>
<trkpt lat="53.252230" lon="-1.968431"><ele>412</ele><time>2021-11-13T09:32:27Z</time><name>PT1041</name></trkpt>
<trkpt lat="53.252244" lon="-1.968480"><ele>412</ele><time>2021-11-13T09:32:31Z</time><name>PT1042</name></trkpt>
<trkpt lat="53.252250" lon="-1.968540"><ele>411</ele><time>2021-11-13T09:32:35Z</time><name>PT1043</name></trkpt>
<trkpt lat="53.252264" lon="-1.968597"><ele>410</ele><time>2021-11-13T09:32:39Z</time><name>PT1044</name></trkpt>
<trkpt lat="53.252275" lon="-1.968644"><ele>409</ele><time>2021-11-13T09:32:43Z</time><name>PT1045</name></trkpt>
<trkpt lat="53.252267" lon="-1.968687"><ele>409</ele><time>2021-11-13T09:32:47Z</time><name>PT1046</name></trkpt>
<trkpt lat="53.252250" lon="-1.968728"><ele>408</ele><time>2021-11-13T09:32:51Z</time><name>PT1047</name></trkpt>
<trkpt lat="53.252218" lon="-1.968768"><ele>408</ele><time>2021-11-13T09:32:55Z</time><name>PT1048</name></trkpt>
<trkpt lat="53.252210" lon="-1.968819"><ele>407</ele><time>2021-11-13T09:32:59Z</time><name>PT1049</name></trkpt>
<trkpt lat="53.252220" lon="-1.968867"><ele>406</ele><time>2021-11-13T09:33:03Z</time><name>PT1050</name></trkpt>
<trkpt lat="53.252240" lon="-1.968924"><ele>406</ele><time>2021-11-13T09:33:07Z</time><name>PT1051</name></trkpt>
<trkpt lat="53.252260" lon="-1.968975"><ele>406</ele><time>2021-11-13T09:33:11Z</time><name>PT1052</name></trkpt>
<trkpt lat="53.252274" lon="-1.969038"><ele>405</ele><time>2021-11-13T09:33:15Z</time><name>PT1053</name></trkpt>
<trkpt lat="53.252287" lon="-1.969098"><ele>405</ele><time>2021-11-13T09:33:19Z</time><name>PT1054</name></trkpt>
<trkpt lat="53.252297" lon="-1.969152"><ele>404</ele><time>2021-11-13T09:33:23Z</time><name>PT1055</name></trkpt>
<trkpt lat="53.252317" lon="-1.969217"><ele>404</ele><time>2021-11-13T09:33:27Z</time><name>PT1056</name></trkpt>
<trkpt lat="53.252330" lon="-1.969283"><ele>403</ele><time>2021-11-13T09:33:31Z</time><name>PT1057</name></trkpt>
<trkpt lat="53.252351" lon="-1.969345"><ele>403</ele><time>2021-11-13T09:33:35Z</time><name>PT1058</name></trkpt>
<trkpt lat="53.252364" lon="-1.969408"><ele>402</ele><time>2021-11-13T09:33:39Z</time><name>PT1059</name></trkpt>
<trkpt lat="53.252387" lon="-1.969452"><ele>402</ele><time>2021-11-13T09:33:43Z</time><name>PT1060</name></trkpt>
<trkpt lat="53.252396" lon="-1.969501"><ele>401</ele><time>2021-11-13T09:33:47Z</time><name>PT1061</name></trkpt>
<trkpt lat="53.252403" lon="-1.969558"><ele>401</ele><time>2021-11-13T09:33:51Z</time><name>PT1062</name></trkpt>
<trkpt lat="53.252413" lon="-1.969615"><ele>401</ele><time>2021-11-13T09:33:55Z</time><name>PT1063</name></trkpt>
<trkpt lat="53.252426" lon="-1.969677"><ele>401</ele><time>2021-11-13T09:33:59Z</time><name>PT1064</name></trkpt>
<trkpt lat="53.252440" lon="-1.969722"><ele>400</ele><time>2021-11-13T09:34:03Z</time><name>PT1065</name></trkpt>
<trkpt lat="53.252448" lon="-1.969776"><ele>400</ele><time>2021-11-13T09:34:07Z</time><name>PT1066</name></trkpt>
<trkpt lat="53.252462" lon="-1.969833"><ele>399</ele><time>2021-11-13T09:34:11Z</time><name>PT1067</name></trkpt>
<trkpt lat="53.252482" lon="-1.969900"><ele>399</ele><time>2021-11-13T09:34:15Z</time><name>PT1068</name></trkpt>
<trkpt lat="53.252495" lon="-1.969961"><ele>398</ele><time>2021-11-13T09:34:19Z</time><name>PT1069</name></trkpt>
<trkpt lat="53.252515" lon="-1.970022"><ele>397</ele><time>2021-11-13T09:34:23Z</time><name>PT1070</name></trkpt>
<trkpt lat="53.252529" lon="-1.970072"><ele>397</ele><time>2021-11-13T09:34:27Z</time><name>PT1071</name></trkpt>
<trkpt lat="53.252541" lon="-1.970135"><ele>397</ele><time>2021-11-13T09:34:31Z</time><name>PT1072</name></trkpt>
<trkpt lat="53.252550" lon="-1.970203"><ele>397</ele><time>2021-11-13T09:34:35Z</time><name>PT1073</name></trkpt>
<trkpt lat="53.252561" lon="-1.970271"><ele>397</ele><time>2021-11-13T09:34:39Z</time><name>PT1074</name></trkpt>
<trkpt lat="53.252581" lon="-1.970341"><ele>396</ele><time>2021-11-13T09:34:43Z</time><name>PT1075</name></trkpt>
<trkpt lat="53.252595" lon="-1.970409"><ele>395</ele><time>2021-11-13T09:34:47Z</time><name>PT1076</name></trkpt>
<trkpt lat="53.252605" lon="-1.970468"><ele>393</ele><time>2021-11-13T09:34:51Z</time><name>PT1077</name></trkpt>
<trkpt lat="53.252621" lon="-1.970532"><ele>393</ele><time>2021-11-13T09:34:55Z</time><name>PT1078</name></trkpt>
<trkpt lat="53.252638" lon="-1.970592"><ele>393</ele><time>2021-11-13T09:34:59Z</time><name>PT1079</name></trkpt>
<trkpt lat="53.252666" lon="-1.970647"><ele>393</ele><time>2021-11-13T09:35:03Z</time><name>PT1080</name></trkpt>
<trkpt lat="53.252676" lon="-1.970704"><ele>393</ele><time>2021-11-13T09:35:07Z</time><name>PT1081</name></trkpt>
<trkpt lat="53.252684" lon="-1.970770"><ele>393</ele><time>2021-11-13T09:35:11Z</time><name>PT1082</name></trkpt>
<trkpt lat="53.252687" lon="-1.970838"><ele>391</ele><time>2021-11-13T09:35:15Z</time><name>PT1083</name></trkpt>
<trkpt lat="53.252687" lon="-1.970899"><ele>390</ele><time>2021-11-13T09:35:19Z</time><name>PT1084</name></trkpt>
<trkpt lat="53.252685" lon="-1.970957"><ele>388</ele><time>2021-11-13T09:35:23Z</time><name>PT1085</name></trkpt>
<trkpt lat="53.252682" lon="-1.971008"><ele>387</ele><time>2021-11-13T09:35:27Z</time><name>PT1086</name></trkpt>
<trkpt lat="53.252682" lon="-1.971077"><ele>386</ele><time>2021-11-13T09:35:31Z</time><name>PT1087</name></trkpt>
<trkpt lat="53.252683" lon="-1.971145"><ele>385</ele><time>2021-11-13T09:35:35Z</time><name>PT1088</name></trkpt>
<trkpt lat="53.252693" lon="-1.971210"><ele>385</ele><time>2021-11-13T09:35:39Z</time><name>PT1089</name></trkpt>
<trkpt lat="53.252694" lon="-1.971265"><ele>385</ele><time>2021-11-13T09:35:43Z</time><name>PT1090</name></trkpt>
<trkpt lat="53.252698" lon="-1.971302"><ele>384</ele><time>2021-11-13T09:35:47Z</time><name>PT1091</name></trkpt>
<trkpt lat="53.252701" lon="-1.971365"><ele>382</ele><time>2021-11-13T09:35:51Z</time><name>PT1092</name></trkpt>
<trkpt lat="53.252704" lon="-1.971433"><ele>381</ele><time>2021-11-13T09:35:55Z</time><name>PT1093</name></trkpt>
<trkpt lat="53.252710" lon="-1.971497"><ele>380</ele><time>2021-11-13T09:35:59Z</time><name>PT1094</name></trkpt>
<trkpt lat="53.252707" lon="-1.971568"><ele>378</ele><time>2021-11-13T09:36:03Z</time><name>PT1095</name></trkpt>
<trkpt lat="53.252709" lon="-1.971641"><ele>380</ele><time>2021-11-13T09:36:07Z</time><name>PT1096</name></trkpt>
<trkpt lat="53.252712" lon="-1.971707"><ele>379</ele><time>2021-11-13T09:36:11Z</time><name>PT1097</name></trkpt>
<trkpt lat="53.252715" lon="-1.971780"><ele>378</ele><time>2021-11-13T09:36:15Z</time><name>PT1098</name></trkpt>
<trkpt lat="53.252708" lon="-1.971872"><ele>376</ele><time>2021-11-13T09:36:19Z</time><name>PT1099</name></trkpt>
<trkpt lat="53.252716" lon="-1.971954"><ele>377</ele><time>2021-11-13T09:36:23Z</time><name>PT1100</name></trkpt>
<trkpt lat="53.252717" lon="-1.972031"><ele>377</ele><time>2021-11-13T09:36:27Z</time><name>PT1101</name></trkpt>
<trkpt lat="53.252726" lon="-1.972099"><ele>377</ele><time>2021-11-13T09:36:31Z</time><name>PT1102</name></trkpt>
<trkpt lat="53.252739" lon="-1.972169"><ele>377</ele><time>2021-11-13T09:36:35Z</time><name>PT1103</name></trkpt>
<trkpt lat="53.252752" lon="-1.972233"><ele>378</ele><time>2021-11-13T09:36:39Z</time><name>PT1104</name></trkpt>
<trkpt lat="53.252757" lon="-1.972282"><ele>378</ele><time>2021-11-13T09:36:43Z</time><name>PT1105</name></trkpt>
<trkpt lat="53.252756" lon="-1.972365"><ele>378</ele><time>2021-11-13T09:36:47Z</time><name>PT1106</name></trkpt>
<trkpt lat="53.252766" lon="-1.972436"><ele>377</ele><time>2021-11-13T09:36:51Z</time><name>PT1107</name></trkpt>
<trkpt lat="53.252783" lon="-1.972494"><ele>377</ele><time>2021-11-13T09:36:55Z</time><name>PT1108</name></trkpt>
<trkpt lat="53.252785" lon="-1.972540"><ele>376</ele><time>2021-11-13T09:36:59Z</time><name>PT1109</name></trkpt>
<trkpt lat="53.252785" lon="-1.972584"><ele>376</ele><time>2021-11-13T09:37:03Z</time><name>PT1110</name></trkpt>
<trkpt lat="53.252773" lon="-1.972617"><ele>376</ele><time>2021-11-13T09:37:07Z</time><name>PT1111</name></trkpt>
<trkpt lat="53.252772" lon="-1.972627"><ele>375</ele><time>2021-11-13T09:37:11Z</time><name>PT1112</name></trkpt>
<trkpt lat="53.252758" lon="-1.972656"><ele>376</ele><time>2021-11-13T09:37:15Z</time><name>PT1113</name></trkpt>
<trkpt lat="53.252743" lon="-1.972713"><ele>374</ele><time>2021-11-13T09:37:19Z</time><name>PT1114</name></trkpt>
<trkpt lat="53.252741" lon="-1.972791"><ele>372</ele><time>2021-11-13T09:37:23Z</time><name>PT1115</name></trkpt>
<trkpt lat="53.252750" lon="-1.972856"><ele>371</ele><time>2021-11-13T09:37:27Z</time><name>PT1116</name></trkpt>
<trkpt lat="53.252757" lon="-1.972912"><ele>371</ele><time>2021-11-13T09:37:31Z</time><name>PT1117</name></trkpt>
<trkpt lat="53.252755" lon="-1.972965"><ele>371</ele><time>2021-11-13T09:37:35Z</time><name>PT1118</name></trkpt>
<trkpt lat="53.252761" lon="-1.973018"><ele>370</ele><time>2021-11-13T09:37:39Z</time><name>PT1119</name></trkpt>
<trkpt lat="53.252758" lon="-1.973098"><ele>369</ele><time>2021-11-13T09:37:43Z</time><name>PT1120</name></trkpt>
<trkpt lat="53.252753" lon="-1.973202"><ele>370</ele><time>2021-11-13T09:37:47Z</time><name>PT1121</name></trkpt>
<trkpt lat="53.252749" lon="-1.973282"><ele>370</ele><time>2021-11-13T09:37:51Z</time><name>PT1122</name></trkpt>
<trkpt lat="53.252748" lon="-1.973359"><ele>369</ele><time>2021-11-13T09:37:55Z</time><name>PT1123</name></trkpt>
<trkpt lat="53.252749" lon="-1.973431"><ele>368</ele><time>2021-11-13T09:37:59Z</time><name>PT1124</name></trkpt>
<trkpt lat="53.252754" lon="-1.973504"><ele>368</ele><time>2021-11-13T09:38:03Z</time><name>PT1125</name></trkpt>
<trkpt lat="53.252765" lon="-1.973585"><ele>367</ele><time>2021-11-13T09:38:07Z</time><name>PT1126</name></trkpt>
<trkpt lat="53.252781" lon="-1.973641"><ele>367</ele><time>2021-11-13T09:38:11Z</time><name>PT1127</name></trkpt>
<trkpt lat="53.252800" lon="-1.973700"><ele>367</ele><time>2021-11-13T09:38:15Z</time><name>PT1128</name></trkpt>
<trkpt lat="53.252825" lon="-1.973806"><ele>366</ele><time>2021-11-13T09:38:19Z</time><name>PT1129</name></trkpt>
<trkpt lat="53.252842" lon="-1.973877"><ele>366</ele><time>2021-11-13T09:38:23Z</time><name>PT1130</name></trkpt>
<trkpt lat="53.252852" lon="-1.973942"><ele>365</ele><time>2021-11-13T09:38:27Z</time><name>PT1131</name></trkpt>
<trkpt lat="53.252865" lon="-1.974025"><ele>365</ele><time>2021-11-13T09:38:31Z</time><name>PT1132</name></trkpt>
<trkpt lat="53.252867" lon="-1.974102"><ele>363</ele><time>2021-11-13T09:38:35Z</time><name>PT1133</name></trkpt>
<trkpt lat="53.252872" lon="-1.974193"><ele>365</ele><time>2021-11-13T09:38:39Z</time><name>PT1134</name></trkpt>
<trkpt lat="53.252889" lon="-1.974260"><ele>364</ele><time>2021-11-13T09:38:43Z</time><name>PT1135</name></trkpt>
<trkpt lat="53.252906" lon="-1.974343"><ele>365</ele><time>2021-11-13T09:38:47Z</time><name>PT1136</name></trkpt>
<trkpt lat="53.252931" lon="-1.974418"><ele>364</ele><time>2021-11-13T09:38:51Z</time><name>PT1137</name></trkpt>
<trkpt lat="53.252959" lon="-1.974498"><ele>364</ele><time>2021-11-13T09:38:55Z</time><name>PT1138</name></trkpt>
<trkpt lat="53.252983" lon="-1.974564"><ele>364</ele><time>2021-11-13T09:38:59Z</time><name>PT1139</name></trkpt>
<trkpt lat="53.253009" lon="-1.974638"><ele>364</ele><time>2021-11-13T09:39:03Z</time><name>PT1140</name></trkpt>
<trkpt lat="53.253012" lon="-1.974714"><ele>364</ele><time>2021-11-13T09:39:07Z</time><name>PT1141</name></trkpt>
<trkpt lat="53.253001" lon="-1.974785"><ele>363</ele><time>2021-11-13T09:39:11Z</time><name>PT1142</name></trkpt>
<trkpt lat="53.253015" lon="-1.974855"><ele>364</ele><time>2021-11-13T09:39:15Z</time><name>PT1143</name></trkpt>
<trkpt lat="53.253020" lon="-1.974909"><ele>364</ele><time>2021-11-13T09:39:19Z</time><name>PT1144</name></trkpt>
<trkpt lat="53.253025" lon="-1.974972"><ele>362</ele><time>2021-11-13T09:39:23Z</time><name>PT1145</name></trkpt>
<trkpt lat="53.253029" lon="-1.975021"><ele>360</ele><time>2021-11-13T09:39:27Z</time><name>PT1146</name></trkpt>
<trkpt lat="53.253024" lon="-1.975092"><ele>359</ele><time>2021-11-13T09:39:31Z</time><name>PT1147</name></trkpt>
<trkpt lat="53.253032" lon="-1.975218"><ele>361</ele><time>2021-11-13T09:39:35Z</time><name>PT1148</name></trkpt>
<trkpt lat="53.253037" lon="-1.975278"><ele>360</ele><time>2021-11-13T09:39:39Z</time><name>PT1149</name></trkpt>
<trkpt lat="53.253028" lon="-1.975346"><ele>359</ele><time>2021-11-13T09:39:43Z</time><name>PT1150</name></trkpt>
<trkpt lat="53.253017" lon="-1.975403"><ele>357</ele><time>2021-11-13T09:39:47Z</time><name>PT1151</name></trkpt>
<trkpt lat="53.253028" lon="-1.975488"><ele>357</ele><time>2021-11-13T09:39:51Z</time><name>PT1152</name></trkpt>
<trkpt lat="53.253044" lon="-1.975592"><ele>358</ele><time>2021-11-13T09:39:55Z</time><name>PT1153</name></trkpt>
<trkpt lat="53.253053" lon="-1.975627"><ele>358</ele><time>2021-11-13T09:39:58Z</time><name>PT1154</name></trkpt>
<trkpt lat="53.253059" lon="-1.975644"><ele>358</ele><time>2021-11-13T09:39:58Z</time><name>PT1155</name></trkpt>
<trkpt lat="53.253065" lon="-1.975662"><ele>358</ele><time>2021-11-13T09:39:59Z</time><name>PT1156</name></trkpt>
<trkpt lat="53.253069" lon="-1.975685"><ele>358</ele><time>2021-11-13T09:40:00Z</time><name>PT1157</name></trkpt>
<trkpt lat="53.253069" lon="-1.975708"><ele>359</ele><time>2021-11-13T09:40:01Z</time><name>PT1158</name></trkpt>
<trkpt lat="53.253070" lon="-1.975722"><ele>358</ele><time>2021-11-13T09:40:02Z</time><name>PT1159</name></trkpt>
<trkpt lat="53.253070" lon="-1.975732"><ele>357</ele><time>2021-11-13T09:40:03Z</time><name>PT1160</name></trkpt>
<trkpt lat="53.253073" lon="-1.975747"><ele>357</ele><time>2021-11-13T09:40:04Z</time><name>PT1161</name></trkpt>
<trkpt lat="53.253080" lon="-1.975762"><ele>356</ele><time>2021-11-13T09:40:05Z</time><name>PT1162</name></trkpt>
<trkpt lat="53.253083" lon="-1.975781"><ele>356</ele><time>2021-11-13T09:40:06Z</time><name>PT1163</name></trkpt>
<trkpt lat="53.253086" lon="-1.975797"><ele>356</ele><time>2021-11-13T09:40:07Z</time><name>PT1164</name></trkpt>
<trkpt lat="53.253088" lon="-1.975811"><ele>357</ele><time>2021-11-13T09:40:08Z</time><name>PT1165</name></trkpt>
<trkpt lat="53.253091" lon="-1.975823"><ele>357</ele><time>2021-11-13T09:40:09Z</time><name>PT1166</name></trkpt>
<trkpt lat="53.253096" lon="-1.975842"><ele>356</ele><time>2021-11-13T09:40:10Z</time><name>PT1167</name></trkpt>
<trkpt lat="53.253099" lon="-1.975862"><ele>356</ele><time>2021-11-13T09:40:11Z</time><name>PT1168</name></trkpt>
<trkpt lat="53.253101" lon="-1.975881"><ele>356</ele><time>2021-11-13T09:40:12Z</time><name>PT1169</name></trkpt>
<trkpt lat="53.253100" lon="-1.975910"><ele>357</ele><time>2021-11-13T09:40:13Z</time><name>PT1170</name></trkpt>
<trkpt lat="53.253104" lon="-1.975934"><ele>357</ele><time>2021-11-13T09:40:14Z</time><name>PT1171</name></trkpt>
<trkpt lat="53.253107" lon="-1.975962"><ele>357</ele><time>2021-11-13T09:40:15Z</time><name>PT1172</name></trkpt>
<trkpt lat="53.253113" lon="-1.975983"><ele>357</ele><time>2021-11-13T09:40:16Z</time><name>PT1173</name></trkpt>
<trkpt lat="53.253119" lon="-1.976004"><ele>357</ele><time>2021-11-13T09:40:17Z</time><name>PT1174</name></trkpt>
<trkpt lat="53.253126" lon="-1.976026"><ele>358</ele><time>2021-11-13T09:40:18Z</time><name>PT1175</name></trkpt>
<trkpt lat="53.253131" lon="-1.976044"><ele>358</ele><time>2021-11-13T09:40:19Z</time><name>PT1176</name></trkpt>
<trkpt lat="53.253135" lon="-1.976065"><ele>358</ele><time>2021-11-13T09:40:20Z</time><name>PT1177</name></trkpt>
<trkpt lat="53.253139" lon="-1.976079"><ele>358</ele><time>2021-11-13T09:40:21Z</time><name>PT1178</name></trkpt>
<trkpt lat="53.253143" lon="-1.976097"><ele>357</ele><time>2021-11-13T09:40:22Z</time><name>PT1179</name></trkpt>
<trkpt lat="53.253145" lon="-1.976111"><ele>357</ele><time>2021-11-13T09:40:23Z</time><name>PT1180</name></trkpt>
<trkpt lat="53.253148" lon="-1.976130"><ele>357</ele><time>2021-11-13T09:40:24Z</time><name>PT1181</name></trkpt>
<trkpt lat="53.253150" lon="-1.976149"><ele>357</ele><time>2021-11-13T09:40:25Z</time><name>PT1182</name></trkpt>
<trkpt lat="53.253156" lon="-1.976170"><ele>357</ele><time>2021-11-13T09:40:26Z</time><name>PT1183</name></trkpt>
<trkpt lat="53.253161" lon="-1.976190"><ele>357</ele><time>2021-11-13T09:40:27Z</time><name>PT1184</name></trkpt>
<trkpt lat="53.253167" lon="-1.976207"><ele>357</ele><time>2021-11-13T09:40:28Z</time><name>PT1185</name></trkpt>
<trkpt lat="53.253167" lon="-1.976225"><ele>357</ele><time>2021-11-13T09:40:29Z</time><name>PT1186</name></trkpt>
<trkpt lat="53.253170" lon="-1.976238"><ele>357</ele><time>2021-11-13T09:40:30Z</time><name>PT1187</name></trkpt>
<trkpt lat="53.253172" lon="-1.976257"><ele>356</ele><time>2021-11-13T09:40:31Z</time><name>PT1188</name></trkpt>
<trkpt lat="53.253173" lon="-1.976270"><ele>357</ele><time>2021-11-13T09:40:32Z</time><name>PT1189</name></trkpt>
<trkpt lat="53.253171" lon="-1.976289"><ele>357</ele><time>2021-11-13T09:40:33Z</time><name>PT1190</name></trkpt>
<trkpt lat="53.253174" lon="-1.976302"><ele>357</ele><time>2021-11-13T09:40:34Z</time><name>PT1191</name></trkpt>
<trkpt lat="53.253177" lon="-1.976318"><ele>357</ele><time>2021-11-13T09:40:35Z</time><name>PT1192</name></trkpt>
<trkpt lat="53.253183" lon="-1.976335"><ele>357</ele><time>2021-11-13T09:40:36Z</time><name>PT1193</name></trkpt>
<trkpt lat="53.253186" lon="-1.976354"><ele>357</ele><time>2021-11-13T09:40:37Z</time><name>PT1194</name></trkpt>
<trkpt lat="53.253187" lon="-1.976378"><ele>357</ele><time>2021-11-13T09:40:38Z</time><name>PT1195</name></trkpt>
<trkpt lat="53.253189" lon="-1.976398"><ele>357</ele><time>2021-11-13T09:40:39Z</time><name>PT1196</name></trkpt>
<trkpt lat="53.253195" lon="-1.976417"><ele>357</ele><time>2021-11-13T09:40:40Z</time><name>PT1197</name></trkpt>
<trkpt lat="53.253202" lon="-1.976433"><ele>357</ele><time>2021-11-13T09:40:41Z</time><name>PT1198</name></trkpt>
<trkpt lat="53.253210" lon="-1.976443"><ele>357</ele><time>2021-11-13T09:40:42Z</time><name>PT1199</name></trkpt>
<trkpt lat="53.253213" lon="-1.976451"><ele>356</ele><time>2021-11-13T09:40:43Z</time><name>PT1200</name></trkpt>
<trkpt lat="53.253211" lon="-1.976465"><ele>356</ele><time>2021-11-13T09:40:44Z</time><name>PT1201</name></trkpt>
<trkpt lat="53.253207" lon="-1.976474"><ele>356</ele><time>2021-11-13T09:40:45Z</time><name>PT1202</name></trkpt>
<trkpt lat="53.253204" lon="-1.976482"><ele>355</ele><time>2021-11-13T09:40:46Z</time><name>PT1203</name></trkpt>
<trkpt lat="53.253201" lon="-1.976498"><ele>355</ele><time>2021-11-13T09:40:47Z</time><name>PT1204</name></trkpt>
<trkpt lat="53.253201" lon="-1.976512"><ele>355</ele><time>2021-11-13T09:40:48Z</time><name>PT1205</name></trkpt>
<trkpt lat="53.253204" lon="-1.976529"><ele>355</ele><time>2021-11-13T09:40:49Z</time><name>PT1206</name></trkpt>
<trkpt lat="53.253203" lon="-1.976546"><ele>355</ele><time>2021-11-13T09:40:50Z</time><name>PT1207</name></trkpt>
<trkpt lat="53.253201" lon="-1.976564"><ele>356</ele><time>2021-11-13T09:40:51Z</time><name>PT1208</name></trkpt>
<trkpt lat="53.253201" lon="-1.976576"><ele>356</ele><time>2021-11-13T09:40:52Z</time><name>PT1209</name></trkpt>
<trkpt lat="53.253199" lon="-1.976598"><ele>357</ele><time>2021-11-13T09:40:53Z</time><name>PT1210</name></trkpt>
<trkpt lat="53.253199" lon="-1.976619"><ele>356</ele><time>2021-11-13T09:40:54Z</time><name>PT1211</name></trkpt>
<trkpt lat="53.253201" lon="-1.976633"><ele>356</ele><time>2021-11-13T09:40:55Z</time><name>PT1212</name></trkpt>
<trkpt lat="53.253206" lon="-1.976652"><ele>355</ele><time>2021-11-13T09:40:56Z</time><name>PT1213</name></trkpt>
<trkpt lat="53.253210" lon="-1.976668"><ele>355</ele><time>2021-11-13T09:40:57Z</time><name>PT1214</name></trkpt>
<trkpt lat="53.253214" lon="-1.976679"><ele>355</ele><time>2021-11-13T09:40:58Z</time><name>PT1215</name></trkpt>
<trkpt lat="53.253216" lon="-1.976696"><ele>355</ele><time>2021-11-13T09:40:59Z</time><name>PT1216</name></trkpt>
<trkpt lat="53.253218" lon="-1.976717"><ele>355</ele><time>2021-11-13T09:41:00Z</time><name>PT1217</name></trkpt>
<trkpt lat="53.253218" lon="-1.976736"><ele>355</ele><time>2021-11-13T09:41:01Z</time><name>PT1218</name></trkpt>
<trkpt lat="53.253219" lon="-1.976753"><ele>355</ele><time>2021-11-13T09:41:02Z</time><name>PT1219</name></trkpt>
<trkpt lat="53.253222" lon="-1.976764"><ele>354</ele><time>2021-11-13T09:41:03Z</time><name>PT1220</name></trkpt>
<trkpt lat="53.253223" lon="-1.976780"><ele>354</ele><time>2021-11-13T09:41:04Z</time><name>PT1221</name></trkpt>
<trkpt lat="53.253221" lon="-1.976800"><ele>355</ele><time>2021-11-13T09:41:05Z</time><name>PT1222</name></trkpt>
<trkpt lat="53.253221" lon="-1.976821"><ele>355</ele><time>2021-11-13T09:41:06Z</time><name>PT1223</name></trkpt>
<trkpt lat="53.253224" lon="-1.976839"><ele>354</ele><time>2021-11-13T09:41:07Z</time><name>PT1224</name></trkpt>
<trkpt lat="53.253226" lon="-1.976853"><ele>354</ele><time>2021-11-13T09:41:08Z</time><name>PT1225</name></trkpt>
<trkpt lat="53.253229" lon="-1.976867"><ele>354</ele><time>2021-11-13T09:41:09Z</time><name>PT1226</name></trkpt>
<trkpt lat="53.253232" lon="-1.976883"><ele>354</ele><time>2021-11-13T09:41:10Z</time><name>PT1227</name></trkpt>
<trkpt lat="53.253234" lon="-1.976896"><ele>354</ele><time>2021-11-13T09:41:11Z</time><name>PT1228</name></trkpt>
<trkpt lat="53.253237" lon="-1.976908"><ele>354</ele><time>2021-11-13T09:41:12Z</time><name>PT1229</name></trkpt>
<trkpt lat="53.253240" lon="-1.976921"><ele>354</ele><time>2021-11-13T09:41:13Z</time><name>PT1230</name></trkpt>
<trkpt lat="53.253243" lon="-1.976933"><ele>353</ele><time>2021-11-13T09:41:14Z</time><name>PT1231</name></trkpt>
<trkpt lat="53.253248" lon="-1.976948"><ele>353</ele><time>2021-11-13T09:41:15Z</time><name>PT1232</name></trkpt>
<trkpt lat="53.253250" lon="-1.976969"><ele>353</ele><time>2021-11-13T09:41:16Z</time><name>PT1233</name></trkpt>
<trkpt lat="53.253253" lon="-1.976978"><ele>354</ele><time>2021-11-13T09:41:17Z</time><name>PT1234</name></trkpt>
<trkpt lat="53.253253" lon="-1.976981"><ele>354</ele><time>2021-11-13T09:41:18Z</time><name>PT1235</name></trkpt>
<trkpt lat="53.253252" lon="-1.976987"><ele>355</ele><time>2021-11-13T09:41:19Z</time><name>PT1236</name></trkpt>
<trkpt lat="53.253252" lon="-1.976991"><ele>356</ele><time>2021-11-13T09:41:20Z</time><name>PT1237</name></trkpt>
<trkpt lat="53.253261" lon="-1.976996"><ele>354</ele><time>2021-11-13T09:41:28Z</time><name>PT1238</name></trkpt>
<trkpt lat="53.253268" lon="-1.977015"><ele>355</ele><time>2021-11-13T09:41:29Z</time><name>PT1239</name></trkpt>
<trkpt lat="53.253274" lon="-1.977027"><ele>354</ele><time>2021-11-13T09:41:30Z</time><name>PT1240</name></trkpt>
<trkpt lat="53.253277" lon="-1.977038"><ele>354</ele><time>2021-11-13T09:41:31Z</time><name>PT1241</name></trkpt>
<trkpt lat="53.253282" lon="-1.977057"><ele>354</ele><time>2021-11-13T09:41:32Z</time><name>PT1242</name></trkpt>
<trkpt lat="53.253285" lon="-1.977076"><ele>354</ele><time>2021-11-13T09:41:33Z</time><name>PT1243</name></trkpt>
<trkpt lat="53.253291" lon="-1.977094"><ele>353</ele><time>2021-11-13T09:41:34Z</time><name>PT1244</name></trkpt>
<trkpt lat="53.253294" lon="-1.977110"><ele>353</ele><time>2021-11-13T09:41:35Z</time><name>PT1245</name></trkpt>
<trkpt lat="53.253292" lon="-1.977126"><ele>353</ele><time>2021-11-13T09:41:36Z</time><name>PT1246</name></trkpt>
<trkpt lat="53.253292" lon="-1.977136"><ele>353</ele><time>2021-11-13T09:41:37Z</time><name>PT1247</name></trkpt>
<trkpt lat="53.253292" lon="-1.977148"><ele>353</ele><time>2021-11-13T09:41:38Z</time><name>PT1248</name></trkpt>
<trkpt lat="53.253295" lon="-1.977160"><ele>353</ele><time>2021-11-13T09:41:39Z</time><name>PT1249</name></trkpt>
<trkpt lat="53.253297" lon="-1.977171"><ele>353</ele><time>2021-11-13T09:41:40Z</time><name>PT1250</name></trkpt>
<trkpt lat="53.253298" lon="-1.977192"><ele>353</ele><time>2021-11-13T09:41:41Z</time><name>PT1251</name></trkpt>
<trkpt lat="53.253300" lon="-1.977203"><ele>353</ele><time>2021-11-13T09:41:42Z</time><name>PT1252</name></trkpt>
<trkpt lat="53.253302" lon="-1.977218"><ele>353</ele><time>2021-11-13T09:41:43Z</time><name>PT1253</name></trkpt>
<trkpt lat="53.253305" lon="-1.977230"><ele>353</ele><time>2021-11-13T09:41:44Z</time><name>PT1254</name></trkpt>
<trkpt lat="53.253312" lon="-1.977244"><ele>353</ele><time>2021-11-13T09:41:45Z</time><name>PT1255</name></trkpt>
<trkpt lat="53.253319" lon="-1.977251"><ele>352</ele><time>2021-11-13T09:41:46Z</time><name>PT1256</name></trkpt>
<trkpt lat="53.253324" lon="-1.977254"><ele>352</ele><time>2021-11-13T09:41:47Z</time><name>PT1257</name></trkpt>
<trkpt lat="53.253329" lon="-1.977263"><ele>352</ele><time>2021-11-13T09:41:48Z</time><name>PT1258</name></trkpt>
<trkpt lat="53.253337" lon="-1.977271"><ele>352</ele><time>2021-11-13T09:41:49Z</time><name>PT1259</name></trkpt>
<trkpt lat="53.253344" lon="-1.977281"><ele>351</ele><time>2021-11-13T09:41:50Z</time><name>PT1260</name></trkpt>
<trkpt lat="53.253353" lon="-1.977294"><ele>351</ele><time>2021-11-13T09:41:51Z</time><name>PT1261</name></trkpt>
<trkpt lat="53.253358" lon="-1.977302"><ele>351</ele><time>2021-11-13T09:41:52Z</time><name>PT1262</name></trkpt>
<trkpt lat="53.253366" lon="-1.977309"><ele>351</ele><time>2021-11-13T09:41:53Z</time><name>PT1263</name></trkpt>
<trkpt lat="53.253370" lon="-1.977318"><ele>350</ele><time>2021-11-13T09:41:54Z</time><name>PT1264</name></trkpt>
<trkpt lat="53.253377" lon="-1.977327"><ele>349</ele><time>2021-11-13T09:41:55Z</time><name>PT1265</name></trkpt>
<trkpt lat="53.253386" lon="-1.977332"><ele>349</ele><time>2021-11-13T09:41:56Z</time><name>PT1266</name></trkpt>
<trkpt lat="53.253392" lon="-1.977338"><ele>349</ele><time>2021-11-13T09:41:57Z</time><name>PT1267</name></trkpt>
<trkpt lat="53.253420" lon="-1.977368"><ele>348</ele><time>2021-11-13T09:42:01Z</time><name>PT1268</name></trkpt>
<trkpt lat="53.253452" lon="-1.977402"><ele>347</ele><time>2021-11-13T09:42:05Z</time><name>PT1269</name></trkpt>
<trkpt lat="53.253478" lon="-1.977449"><ele>345</ele><time>2021-11-13T09:42:09Z</time><name>PT1270</name></trkpt>
<trkpt lat="53.253505" lon="-1.977487"><ele>344</ele><time>2021-11-13T09:42:13Z</time><name>PT1271</name></trkpt>
<trkpt lat="53.253524" lon="-1.977536"><ele>344</ele><time>2021-11-13T09:42:17Z</time><name>PT1272</name></trkpt>
<trkpt lat="53.253527" lon="-1.977570"><ele>347</ele><time>2021-11-13T09:42:21Z</time><name>PT1273</name></trkpt>
<trkpt lat="53.253529" lon="-1.977570"><ele>347</ele><time>2021-11-13T09:42:25Z</time><name>PT1274</name></trkpt>
<trkpt lat="53.253513" lon="-1.977585"><ele>347</ele><time>2021-11-13T09:42:29Z</time><name>PT1275</name></trkpt>
<trkpt lat="53.253506" lon="-1.977624"><ele>347</ele><time>2021-11-13T09:42:33Z</time><name>PT1276</name></trkpt>
<trkpt lat="53.253501" lon="-1.977665"><ele>347</ele><time>2021-11-13T09:42:37Z</time><name>PT1277</name></trkpt>
<trkpt lat="53.253496" lon="-1.977701"><ele>347</ele><time>2021-11-13T09:42:41Z</time><name>PT1278</name></trkpt>
<trkpt lat="53.253510" lon="-1.977750"><ele>344</ele><time>2021-11-13T09:42:45Z</time><name>PT1279</name></trkpt>
<trkpt lat="53.253512" lon="-1.977791"><ele>343</ele><time>2021-11-13T09:42:49Z</time><name>PT1280</name></trkpt>
<trkpt lat="53.253527" lon="-1.977822"><ele>343</ele><time>2021-11-13T09:42:53Z</time><name>PT1281</name></trkpt>
<trkpt lat="53.253538" lon="-1.977873"><ele>343</ele><time>2021-11-13T09:42:57Z</time><name>PT1282</name></trkpt>
<trkpt lat="53.253556" lon="-1.977926"><ele>343</ele><time>2021-11-13T09:43:01Z</time><name>PT1283</name></trkpt>
<trkpt lat="53.253570" lon="-1.977967"><ele>343</ele><time>2021-11-13T09:43:05Z</time><name>PT1284</name></trkpt>
<trkpt lat="53.253584" lon="-1.978015"><ele>344</ele><time>2021-11-13T09:43:09Z</time><name>PT1285</name></trkpt>
<trkpt lat="53.253605" lon="-1.978080"><ele>344</ele><time>2021-11-13T09:43:13Z</time><name>PT1286</name></trkpt>
<trkpt lat="53.253623" lon="-1.978141"><ele>344</ele><time>2021-11-13T09:43:17Z</time><name>PT1287</name></trkpt>
<trkpt lat="53.253633" lon="-1.978200"><ele>342</ele><time>2021-11-13T09:43:21Z</time><name>PT1288</name></trkpt>
<trkpt lat="53.253645" lon="-1.978251"><ele>343</ele><time>2021-11-13T09:43:25Z</time><name>PT1289</name></trkpt>
<trkpt lat="53.253657" lon="-1.978313"><ele>343</ele><time>2021-11-13T09:43:29Z</time><name>PT1290</name></trkpt>
<trkpt lat="53.253675" lon="-1.978370"><ele>346</ele><time>2021-11-13T09:43:33Z</time><name>PT1291</name></trkpt>
<trkpt lat="53.253694" lon="-1.978414"><ele>348</ele><time>2021-11-13T09:43:37Z</time><name>PT1292</name></trkpt>
<trkpt lat="53.253710" lon="-1.978474"><ele>350</ele><time>2021-11-13T09:43:41Z</time><name>PT1293</name></trkpt>
<trkpt lat="53.253728" lon="-1.978534"><ele>351</ele><time>2021-11-13T09:43:45Z</time><name>PT1294</name></trkpt>
<trkpt lat="53.253746" lon="-1.978570"><ele>354</ele><time>2021-11-13T09:43:49Z</time><name>PT1295</name></trkpt>
<trkpt lat="53.253751" lon="-1.978608"><ele>355</ele><time>2021-11-13T09:43:53Z</time><name>PT1296</name></trkpt>
<trkpt lat="53.253755" lon="-1.978609"><ele>356</ele><time>2021-11-13T09:43:57Z</time><name>PT1297</name></trkpt>
<trkpt lat="53.253770" lon="-1.978652"><ele>356</ele><time>2021-11-13T09:44:01Z</time><name>PT1298</name></trkpt>
<trkpt lat="53.253768" lon="-1.978673"><ele>356</ele><time>2021-11-13T09:44:02Z</time><name>PT1299</name></trkpt>
<trkpt lat="53.253770" lon="-1.978681"><ele>356</ele><time>2021-11-13T09:44:03Z</time><name>PT1300</name></trkpt>
<trkpt lat="53.253771" lon="-1.978691"><ele>356</ele><time>2021-11-13T09:44:04Z</time><name>PT1301</name></trkpt>
<trkpt lat="53.253773" lon="-1.978704"><ele>355</ele><time>2021-11-13T09:44:05Z</time><name>PT1302</name></trkpt>
<trkpt lat="53.253773" lon="-1.978714"><ele>355</ele><time>2021-11-13T09:44:06Z</time><name>PT1303</name></trkpt>
<trkpt lat="53.253779" lon="-1.978723"><ele>355</ele><time>2021-11-13T09:44:07Z</time><name>PT1304</name></trkpt>
<trkpt lat="53.253783" lon="-1.978737"><ele>354</ele><time>2021-11-13T09:44:08Z</time><name>PT1305</name></trkpt>
<trkpt lat="53.253787" lon="-1.978749"><ele>354</ele><time>2021-11-13T09:44:09Z</time><name>PT1306</name></trkpt>
<trkpt lat="53.253796" lon="-1.978760"><ele>354</ele><time>2021-11-13T09:44:10Z</time><name>PT1307</name></trkpt>
<trkpt lat="53.253799" lon="-1.978773"><ele>354</ele><time>2021-11-13T09:44:11Z</time><name>PT1308</name></trkpt>
<trkpt lat="53.253802" lon="-1.978783"><ele>353</ele><time>2021-11-13T09:44:12Z</time><name>PT1309</name></trkpt>
<trkpt lat="53.253805" lon="-1.978798"><ele>353</ele><time>2021-11-13T09:44:13Z</time><name>PT1310</name></trkpt>
<trkpt lat="53.253810" lon="-1.978815"><ele>353</ele><time>2021-11-13T09:44:14Z</time><name>PT1311</name></trkpt>
<trkpt lat="53.253818" lon="-1.978831"><ele>352</ele><time>2021-11-13T09:44:15Z</time><name>PT1312</name></trkpt>
<trkpt lat="53.253828" lon="-1.978846"><ele>353</ele><time>2021-11-13T09:44:16Z</time><name>PT1313</name></trkpt>
<trkpt lat="53.253835" lon="-1.978861"><ele>352</ele><time>2021-11-13T09:44:17Z</time><name>PT1314</name></trkpt>
<trkpt lat="53.253840" lon="-1.978880"><ele>352</ele><time>2021-11-13T09:44:18Z</time><name>PT1315</name></trkpt>
<trkpt lat="53.253847" lon="-1.978895"><ele>352</ele><time>2021-11-13T09:44:19Z</time><name>PT1316</name></trkpt>
<trkpt lat="53.253853" lon="-1.978917"><ele>351</ele><time>2021-11-13T09:44:20Z</time><name>PT1317</name></trkpt>
<trkpt lat="53.253860" lon="-1.978938"><ele>351</ele><time>2021-11-13T09:44:21Z</time><name>PT1318</name></trkpt>
<trkpt lat="53.253868" lon="-1.978954"><ele>351</ele><time>2021-11-13T09:44:22Z</time><name>PT1319</name></trkpt>
<trkpt lat="53.253874" lon="-1.978969"><ele>351</ele><time>2021-11-13T09:44:23Z</time><name>PT1320</name></trkpt>
<trkpt lat="53.253879" lon="-1.978984"><ele>351</ele><time>2021-11-13T09:44:24Z</time><name>PT1321</name></trkpt>
<trkpt lat="53.253884" lon="-1.979001"><ele>350</ele><time>2021-11-13T09:44:25Z</time><name>PT1322</name></trkpt>
<trkpt lat="53.253894" lon="-1.979017"><ele>350</ele><time>2021-11-13T09:44:26Z</time><name>PT1323</name></trkpt>
<trkpt lat="53.253906" lon="-1.979028"><ele>351</ele><time>2021-11-13T09:44:27Z</time><name>PT1324</name></trkpt>
<trkpt lat="53.253913" lon="-1.979045"><ele>350</ele><time>2021-11-13T09:44:28Z</time><name>PT1325</name></trkpt>
<trkpt lat="53.253919" lon="-1.979060"><ele>350</ele><time>2021-11-13T09:44:29Z</time><name>PT1326</name></trkpt>
<trkpt lat="53.253926" lon="-1.979073"><ele>350</ele><time>2021-11-13T09:44:30Z</time><name>PT1327</name></trkpt>
<trkpt lat="53.253935" lon="-1.979090"><ele>350</ele><time>2021-11-13T09:44:31Z</time><name>PT1328</name></trkpt>
<trkpt lat="53.253947" lon="-1.979106"><ele>350</ele><time>2021-11-13T09:44:32Z</time><name>PT1329</name></trkpt>
<trkpt lat="53.253954" lon="-1.979124"><ele>350</ele><time>2021-11-13T09:44:33Z</time><name>PT1330</name></trkpt>
<trkpt lat="53.253959" lon="-1.979143"><ele>350</ele><time>2021-11-13T09:44:34Z</time><name>PT1331</name></trkpt>
<trkpt lat="53.253969" lon="-1.979158"><ele>350</ele><time>2021-11-13T09:44:35Z</time><name>PT1332</name></trkpt>
<trkpt lat="53.253976" lon="-1.979173"><ele>349</ele><time>2021-11-13T09:44:36Z</time><name>PT1333</name></trkpt>
<trkpt lat="53.253982" lon="-1.979188"><ele>349</ele><time>2021-11-13T09:44:37Z</time><name>PT1334</name></trkpt>
<trkpt lat="53.253989" lon="-1.979206"><ele>349</ele><time>2021-11-13T09:44:38Z</time><name>PT1335</name></trkpt>
<trkpt lat="53.253995" lon="-1.979219"><ele>349</ele><time>2021-11-13T09:44:39Z</time><name>PT1336</name></trkpt>
<trkpt lat="53.254002" lon="-1.979232"><ele>349</ele><time>2021-11-13T09:44:40Z</time><name>PT1337</name></trkpt>
<trkpt lat="53.254011" lon="-1.979245"><ele>348</ele><time>2021-11-13T09:44:41Z</time><name>PT1338</name></trkpt>
<trkpt lat="53.254016" lon="-1.979259"><ele>348</ele><time>2021-11-13T09:44:42Z</time><name>PT1339</name></trkpt>
<trkpt lat="53.254022" lon="-1.979274"><ele>347</ele><time>2021-11-13T09:44:43Z</time><name>PT1340</name></trkpt>
<trkpt lat="53.254028" lon="-1.979291"><ele>347</ele><time>2021-11-13T09:44:44Z</time><name>PT1341</name></trkpt>
<trkpt lat="53.254036" lon="-1.979306"><ele>346</ele><time>2021-11-13T09:44:45Z</time><name>PT1342</name></trkpt>
<trkpt lat="53.254046" lon="-1.979319"><ele>347</ele><time>2021-11-13T09:44:46Z</time><name>PT1343</name></trkpt>
<trkpt lat="53.254049" lon="-1.979337"><ele>346</ele><time>2021-11-13T09:44:47Z</time><name>PT1344</name></trkpt>
<trkpt lat="53.254059" lon="-1.979354"><ele>346</ele><time>2021-11-13T09:44:48Z</time><name>PT1345</name></trkpt>
<trkpt lat="53.254070" lon="-1.979369"><ele>346</ele><time>2021-11-13T09:44:49Z</time><name>PT1346</name></trkpt>
<trkpt lat="53.254078" lon="-1.979383"><ele>346</ele><time>2021-11-13T09:44:50Z</time><name>PT1347</name></trkpt>
<trkpt lat="53.254085" lon="-1.979399"><ele>346</ele><time>2021-11-13T09:44:51Z</time><name>PT1348</name></trkpt>
<trkpt lat="53.254094" lon="-1.979412"><ele>346</ele><time>2021-11-13T09:44:52Z</time><name>PT1349</name></trkpt>
<trkpt lat="53.254098" lon="-1.979428"><ele>345</ele><time>2021-11-13T09:44:53Z</time><name>PT1350</name></trkpt>
<trkpt lat="53.254109" lon="-1.979441"><ele>345</ele><time>2021-11-13T09:44:54Z</time><name>PT1351</name></trkpt>
<trkpt lat="53.254117" lon="-1.979456"><ele>345</ele><time>2021-11-13T09:44:55Z</time><name>PT1352</name></trkpt>
<trkpt lat="53.254126" lon="-1.979469"><ele>345</ele><time>2021-11-13T09:44:56Z</time><name>PT1353</name></trkpt>
<trkpt lat="53.254137" lon="-1.979483"><ele>345</ele><time>2021-11-13T09:44:57Z</time><name>PT1354</name></trkpt>
<trkpt lat="53.254147" lon="-1.979498"><ele>345</ele><time>2021-11-13T09:44:58Z</time><name>PT1355</name></trkpt>
<trkpt lat="53.254155" lon="-1.979512"><ele>345</ele><time>2021-11-13T09:44:59Z</time><name>PT1356</name></trkpt>
<trkpt lat="53.254162" lon="-1.979527"><ele>345</ele><time>2021-11-13T09:45:00Z</time><name>PT1357</name></trkpt>
<trkpt lat="53.254172" lon="-1.979542"><ele>345</ele><time>2021-11-13T09:45:01Z</time><name>PT1358</name></trkpt>
<trkpt lat="53.254182" lon="-1.979558"><ele>345</ele><time>2021-11-13T09:45:02Z</time><name>PT1359</name></trkpt>
<trkpt lat="53.254192" lon="-1.979570"><ele>345</ele><time>2021-11-13T09:45:03Z</time><name>PT1360</name></trkpt>
<trkpt lat="53.254199" lon="-1.979587"><ele>344</ele><time>2021-11-13T09:45:04Z</time><name>PT1361</name></trkpt>
<trkpt lat="53.254210" lon="-1.979603"><ele>344</ele><time>2021-11-13T09:45:05Z</time><name>PT1362</name></trkpt>
<trkpt lat="53.254220" lon="-1.979617"><ele>344</ele><time>2021-11-13T09:45:06Z</time><name>PT1363</name></trkpt>
<trkpt lat="53.254231" lon="-1.979628"><ele>344</ele><time>2021-11-13T09:45:07Z</time><name>PT1364</name></trkpt>
<trkpt lat="53.254241" lon="-1.979640"><ele>344</ele><time>2021-11-13T09:45:08Z</time><name>PT1365</name></trkpt>
<trkpt lat="53.254251" lon="-1.979654"><ele>344</ele><time>2021-11-13T09:45:09Z</time><name>PT1366</name></trkpt>
<trkpt lat="53.254259" lon="-1.979666"><ele>344</ele><time>2021-11-13T09:45:10Z</time><name>PT1367</name></trkpt>
<trkpt lat="53.254268" lon="-1.979679"><ele>344</ele><time>2021-11-13T09:45:11Z</time><name>PT1368</name></trkpt>
<trkpt lat="53.254278" lon="-1.979689"><ele>343</ele><time>2021-11-13T09:45:12Z</time><name>PT1369</name></trkpt>
<trkpt lat="53.254290" lon="-1.979701"><ele>343</ele><time>2021-11-13T09:45:13Z</time><name>PT1370</name></trkpt>
<trkpt lat="53.254299" lon="-1.979711"><ele>343</ele><time>2021-11-13T09:45:14Z</time><name>PT1371</name></trkpt>
<trkpt lat="53.254310" lon="-1.979723"><ele>343</ele><time>2021-11-13T09:45:15Z</time><name>PT1372</name></trkpt>
<trkpt lat="53.254322" lon="-1.979734"><ele>343</ele><time>2021-11-13T09:45:16Z</time><name>PT1373</name></trkpt>
<trkpt lat="53.254330" lon="-1.979746"><ele>342</ele><time>2021-11-13T09:45:17Z</time><name>PT1374</name></trkpt>
<trkpt lat="53.254338" lon="-1.979756"><ele>342</ele><time>2021-11-13T09:45:18Z</time><name>PT1375</name></trkpt>
<trkpt lat="53.254347" lon="-1.979767"><ele>342</ele><time>2021-11-13T09:45:19Z</time><name>PT1376</name></trkpt>
<trkpt lat="53.254358" lon="-1.979779"><ele>342</ele><time>2021-11-13T09:45:20Z</time><name>PT1377</name></trkpt>
<trkpt lat="53.254367" lon="-1.979788"><ele>342</ele><time>2021-11-13T09:45:21Z</time><name>PT1378</name></trkpt>
<trkpt lat="53.254376" lon="-1.979798"><ele>341</ele><time>2021-11-13T09:45:22Z</time><name>PT1379</name></trkpt>
<trkpt lat="53.254387" lon="-1.979807"><ele>341</ele><time>2021-11-13T09:45:23Z</time><name>PT1380</name></trkpt>
<trkpt lat="53.254398" lon="-1.979816"><ele>341</ele><time>2021-11-13T09:45:24Z</time><name>PT1381</name></trkpt>
<trkpt lat="53.254408" lon="-1.979823"><ele>341</ele><time>2021-11-13T09:45:25Z</time><name>PT1382</name></trkpt>
<trkpt lat="53.254419" lon="-1.979835"><ele>341</ele><time>2021-11-13T09:45:26Z</time><name>PT1383</name></trkpt>
<trkpt lat="53.254429" lon="-1.979847"><ele>341</ele><time>2021-11-13T09:45:27Z</time><name>PT1384</name></trkpt>
<trkpt lat="53.254440" lon="-1.979859"><ele>340</ele><time>2021-11-13T09:45:28Z</time><name>PT1385</name></trkpt>
<trkpt lat="53.254452" lon="-1.979869"><ele>340</ele><time>2021-11-13T09:45:29Z</time><name>PT1386</name></trkpt>
<trkpt lat="53.254464" lon="-1.979878"><ele>341</ele><time>2021-11-13T09:45:30Z</time><name>PT1387</name></trkpt>
<trkpt lat="53.254478" lon="-1.979887"><ele>341</ele><time>2021-11-13T09:45:31Z</time><name>PT1388</name></trkpt>
<trkpt lat="53.254489" lon="-1.979898"><ele>340</ele><time>2021-11-13T09:45:32Z</time><name>PT1389</name></trkpt>
<trkpt lat="53.254499" lon="-1.979907"><ele>340</ele><time>2021-11-13T09:45:33Z</time><name>PT1390</name></trkpt>
<trkpt lat="53.254508" lon="-1.979918"><ele>340</ele><time>2021-11-13T09:45:34Z</time><name>PT1391</name></trkpt>
<trkpt lat="53.254520" lon="-1.979929"><ele>340</ele><time>2021-11-13T09:45:35Z</time><name>PT1392</name></trkpt>
<trkpt lat="53.254532" lon="-1.979939"><ele>340</ele><time>2021-11-13T09:45:36Z</time><name>PT1393</name></trkpt>
<trkpt lat="53.254546" lon="-1.979948"><ele>341</ele><time>2021-11-13T09:45:37Z</time><name>PT1394</name></trkpt>
<trkpt lat="53.254554" lon="-1.979958"><ele>340</ele><time>2021-11-13T09:45:38Z</time><name>PT1395</name></trkpt>
<trkpt lat="53.254569" lon="-1.979965"><ele>341</ele><time>2021-11-13T09:45:39Z</time><name>PT1396</name></trkpt>
<trkpt lat="53.254578" lon="-1.979978"><ele>341</ele><time>2021-11-13T09:45:40Z</time><name>PT1397</name></trkpt>
<trkpt lat="53.254591" lon="-1.979992"><ele>341</ele><time>2021-11-13T09:45:41Z</time><name>PT1398</name></trkpt>
<trkpt lat="53.254601" lon="-1.980004"><ele>340</ele><time>2021-11-13T09:45:42Z</time><name>PT1399</name></trkpt>
<trkpt lat="53.254612" lon="-1.980012"><ele>340</ele><time>2021-11-13T09:45:43Z</time><name>PT1400</name></trkpt>
<trkpt lat="53.254621" lon="-1.980020"><ele>340</ele><time>2021-11-13T09:45:44Z</time><name>PT1401</name></trkpt>
<trkpt lat="53.254632" lon="-1.980033"><ele>340</ele><time>2021-11-13T09:45:45Z</time><name>PT1402</name></trkpt>
<trkpt lat="53.254649" lon="-1.980042"><ele>340</ele><time>2021-11-13T09:45:46Z</time><name>PT1403</name></trkpt>
<trkpt lat="53.254664" lon="-1.980052"><ele>340</ele><time>2021-11-13T09:45:47Z</time><name>PT1404</name></trkpt>
<trkpt lat="53.254675" lon="-1.980062"><ele>340</ele><time>2021-11-13T09:45:48Z</time><name>PT1405</name></trkpt>
<trkpt lat="53.254685" lon="-1.980072"><ele>340</ele><time>2021-11-13T09:45:49Z</time><name>PT1406</name></trkpt>
<trkpt lat="53.254696" lon="-1.980085"><ele>340</ele><time>2021-11-13T09:45:50Z</time><name>PT1407</name></trkpt>
<trkpt lat="53.254707" lon="-1.980095"><ele>340</ele><time>2021-11-13T09:45:51Z</time><name>PT1408</name></trkpt>
<trkpt lat="53.254715" lon="-1.980100"><ele>339</ele><time>2021-11-13T09:45:52Z</time><name>PT1409</name></trkpt>
<trkpt lat="53.254725" lon="-1.980110"><ele>339</ele><time>2021-11-13T09:45:53Z</time><name>PT1410</name></trkpt>
<trkpt lat="53.254736" lon="-1.980118"><ele>338</ele><time>2021-11-13T09:45:54Z</time><name>PT1411</name></trkpt>
<trkpt lat="53.254750" lon="-1.980128"><ele>339</ele><time>2021-11-13T09:45:55Z</time><name>PT1412</name></trkpt>
<trkpt lat="53.254761" lon="-1.980137"><ele>339</ele><time>2021-11-13T09:45:56Z</time><name>PT1413</name></trkpt>
<trkpt lat="53.254771" lon="-1.980147"><ele>339</ele><time>2021-11-13T09:45:57Z</time><name>PT1414</name></trkpt>
<trkpt lat="53.254785" lon="-1.980157"><ele>339</ele><time>2021-11-13T09:45:58Z</time><name>PT1415</name></trkpt>
<trkpt lat="53.254798" lon="-1.980165"><ele>339</ele><time>2021-11-13T09:45:59Z</time><name>PT1416</name></trkpt>
<trkpt lat="53.254812" lon="-1.980173"><ele>339</ele><time>2021-11-13T09:46:00Z</time><name>PT1417</name></trkpt>
<trkpt lat="53.254847" lon="-1.980202"><ele>339</ele><time>2021-11-13T09:46:03Z</time><name>PT1418</name></trkpt>
<trkpt lat="53.254897" lon="-1.980224"><ele>340</ele><time>2021-11-13T09:46:07Z</time><name>PT1419</name></trkpt>
<trkpt lat="53.254941" lon="-1.980258"><ele>340</ele><time>2021-11-13T09:46:11Z</time><name>PT1420</name></trkpt>
<trkpt lat="53.254989" lon="-1.980294"><ele>340</ele><time>2021-11-13T09:46:15Z</time><name>PT1421</name></trkpt>
<trkpt lat="53.255041" lon="-1.980323"><ele>340</ele><time>2021-11-13T09:46:19Z</time><name>PT1422</name></trkpt>
<trkpt lat="53.255087" lon="-1.980366"><ele>339</ele><time>2021-11-13T09:46:23Z</time><name>PT1423</name></trkpt>
<trkpt lat="53.255142" lon="-1.980393"><ele>340</ele><time>2021-11-13T09:46:27Z</time><name>PT1424</name></trkpt>
<trkpt lat="53.255191" lon="-1.980424"><ele>339</ele><time>2021-11-13T09:46:31Z</time><name>PT1425</name></trkpt>
<trkpt lat="53.255236" lon="-1.980458"><ele>339</ele><time>2021-11-13T09:46:35Z</time><name>PT1426</name></trkpt>
<trkpt lat="53.255284" lon="-1.980487"><ele>339</ele><time>2021-11-13T09:46:39Z</time><name>PT1427</name></trkpt>
<trkpt lat="53.255332" lon="-1.980515"><ele>340</ele><time>2021-11-13T09:46:43Z</time><name>PT1428</name></trkpt>
<trkpt lat="53.255388" lon="-1.980543"><ele>341</ele><time>2021-11-13T09:46:47Z</time><name>PT1429</name></trkpt>
<trkpt lat="53.255437" lon="-1.980575"><ele>342</ele><time>2021-11-13T09:46:51Z</time><name>PT1430</name></trkpt>
<trkpt lat="53.255490" lon="-1.980616"><ele>342</ele><time>2021-11-13T09:46:55Z</time><name>PT1431</name></trkpt>
<trkpt lat="53.255530" lon="-1.980654"><ele>342</ele><time>2021-11-13T09:46:59Z</time><name>PT1432</name></trkpt>
<trkpt lat="53.255568" lon="-1.980700"><ele>341</ele><time>2021-11-13T09:47:03Z</time><name>PT1433</name></trkpt>
<trkpt lat="53.255609" lon="-1.980745"><ele>341</ele><time>2021-11-13T09:47:07Z</time><name>PT1434</name></trkpt>
<trkpt lat="53.255643" lon="-1.980792"><ele>339</ele><time>2021-11-13T09:47:11Z</time><name>PT1435</name></trkpt>
<trkpt lat="53.255677" lon="-1.980837"><ele>339</ele><time>2021-11-13T09:47:15Z</time><name>PT1436</name></trkpt>
<trkpt lat="53.255713" lon="-1.980895"><ele>338</ele><time>2021-11-13T09:47:19Z</time><name>PT1437</name></trkpt>
<trkpt lat="53.255760" lon="-1.980961"><ele>339</ele><time>2021-11-13T09:47:23Z</time><name>PT1438</name></trkpt>
<trkpt lat="53.255809" lon="-1.981028"><ele>340</ele><time>2021-11-13T09:47:27Z</time><name>PT1439</name></trkpt>
<trkpt lat="53.255854" lon="-1.981093"><ele>341</ele><time>2021-11-13T09:47:31Z</time><name>PT1440</name></trkpt>
<trkpt lat="53.255892" lon="-1.981157"><ele>341</ele><time>2021-11-13T09:47:35Z</time><name>PT1441</name></trkpt>
<trkpt lat="53.255928" lon="-1.981219"><ele>340</ele><time>2021-11-13T09:47:39Z</time><name>PT1442</name></trkpt>
<trkpt lat="53.255963" lon="-1.981273"><ele>340</ele><time>2021-11-13T09:47:43Z</time><name>PT1443</name></trkpt>
<trkpt lat="53.255988" lon="-1.981322"><ele>339</ele><time>2021-11-13T09:47:46Z</time><name>PT1444</name></trkpt>
<trkpt lat="53.255994" lon="-1.981339"><ele>339</ele><time>2021-11-13T09:47:47Z</time><name>PT1445</name></trkpt>
<trkpt lat="53.256003" lon="-1.981356"><ele>339</ele><time>2021-11-13T09:47:48Z</time><name>PT1446</name></trkpt>
<trkpt lat="53.256012" lon="-1.981372"><ele>338</ele><time>2021-11-13T09:47:49Z</time><name>PT1447</name></trkpt>
<trkpt lat="53.256026" lon="-1.981401"><ele>339</ele><time>2021-11-13T09:47:50Z</time><name>PT1448</name></trkpt>
<trkpt lat="53.256034" lon="-1.981429"><ele>340</ele><time>2021-11-13T09:47:51Z</time><name>PT1449</name></trkpt>
<trkpt lat="53.256041" lon="-1.981450"><ele>340</ele><time>2021-11-13T09:47:52Z</time><name>PT1450</name></trkpt>
<trkpt lat="53.256045" lon="-1.981470"><ele>340</ele><time>2021-11-13T09:47:53Z</time><name>PT1451</name></trkpt>
<trkpt lat="53.256050" lon="-1.981485"><ele>340</ele><time>2021-11-13T09:47:54Z</time><name>PT1452</name></trkpt>
<trkpt lat="53.256054" lon="-1.981492"><ele>339</ele><time>2021-11-13T09:47:55Z</time><name>PT1453</name></trkpt>
<trkpt lat="53.256064" lon="-1.981501"><ele>340</ele><time>2021-11-13T09:47:56Z</time><name>PT1454</name></trkpt>
<trkpt lat="53.256073" lon="-1.981514"><ele>340</ele><time>2021-11-13T09:47:57Z</time><name>PT1455</name></trkpt>
<trkpt lat="53.256082" lon="-1.981528"><ele>340</ele><time>2021-11-13T09:47:58Z</time><name>PT1456</name></trkpt>
<trkpt lat="53.256096" lon="-1.981546"><ele>340</ele><time>2021-11-13T09:47:59Z</time><name>PT1457</name></trkpt>
<trkpt lat="53.256103" lon="-1.981563"><ele>339</ele><time>2021-11-13T09:48:00Z</time><name>PT1458</name></trkpt>
<trkpt lat="53.256110" lon="-1.981581"><ele>339</ele><time>2021-11-13T09:48:01Z</time><name>PT1459</name></trkpt>
<trkpt lat="53.256117" lon="-1.981594"><ele>339</ele><time>2021-11-13T09:48:02Z</time><name>PT1460</name></trkpt>
<trkpt lat="53.256122" lon="-1.981612"><ele>339</ele><time>2021-11-13T09:48:03Z</time><name>PT1461</name></trkpt>
<trkpt lat="53.256127" lon="-1.981630"><ele>339</ele><time>2021-11-13T09:48:04Z</time><name>PT1462</name></trkpt>
<trkpt lat="53.256139" lon="-1.981646"><ele>339</ele><time>2021-11-13T09:48:05Z</time><name>PT1463</name></trkpt>
<trkpt lat="53.256157" lon="-1.981667"><ele>340</ele><time>2021-11-13T09:48:06Z</time><name>PT1464</name></trkpt>
<trkpt lat="53.256168" lon="-1.981685"><ele>340</ele><time>2021-11-13T09:48:07Z</time><name>PT1465</name></trkpt>
<trkpt lat="53.256175" lon="-1.981706"><ele>340</ele><time>2021-11-13T09:48:08Z</time><name>PT1466</name></trkpt>
<trkpt lat="53.256180" lon="-1.981725"><ele>341</ele><time>2021-11-13T09:48:09Z</time><name>PT1467</name></trkpt>
<trkpt lat="53.256186" lon="-1.981744"><ele>341</ele><time>2021-11-13T09:48:10Z</time><name>PT1468</name></trkpt>
<trkpt lat="53.256195" lon="-1.981761"><ele>341</ele><time>2021-11-13T09:48:11Z</time><name>PT1469</name></trkpt>
<trkpt lat="53.256202" lon="-1.981781"><ele>341</ele><time>2021-11-13T09:48:12Z</time><name>PT1470</name></trkpt>
<trkpt lat="53.256210" lon="-1.981793"><ele>341</ele><time>2021-11-13T09:48:13Z</time><name>PT1471</name></trkpt>
<trkpt lat="53.256215" lon="-1.981811"><ele>341</ele><time>2021-11-13T09:48:14Z</time><name>PT1472</name></trkpt>
<trkpt lat="53.256213" lon="-1.981827"><ele>340</ele><time>2021-11-13T09:48:15Z</time><name>PT1473</name></trkpt>
<trkpt lat="53.256215" lon="-1.981840"><ele>340</ele><time>2021-11-13T09:48:16Z</time><name>PT1474</name></trkpt>
<trkpt lat="53.256221" lon="-1.981853"><ele>340</ele><time>2021-11-13T09:48:17Z</time><name>PT1475</name></trkpt>
<trkpt lat="53.256227" lon="-1.981871"><ele>340</ele><time>2021-11-13T09:48:18Z</time><name>PT1476</name></trkpt>
<trkpt lat="53.256232" lon="-1.981883"><ele>339</ele><time>2021-11-13T09:48:19Z</time><name>PT1477</name></trkpt>
<trkpt lat="53.256236" lon="-1.981901"><ele>339</ele><time>2021-11-13T09:48:20Z</time><name>PT1478</name></trkpt>
<trkpt lat="53.256240" lon="-1.981915"><ele>339</ele><time>2021-11-13T09:48:21Z</time><name>PT1479</name></trkpt>
<trkpt lat="53.256247" lon="-1.981941"><ele>339</ele><time>2021-11-13T09:48:22Z</time><name>PT1480</name></trkpt>
<trkpt lat="53.256252" lon="-1.981961"><ele>340</ele><time>2021-11-13T09:48:23Z</time><name>PT1481</name></trkpt>
<trkpt lat="53.256260" lon="-1.981987"><ele>340</ele><time>2021-11-13T09:48:24Z</time><name>PT1482</name></trkpt>
<trkpt lat="53.256267" lon="-1.982010"><ele>341</ele><time>2021-11-13T09:48:25Z</time><name>PT1483</name></trkpt>
<trkpt lat="53.256272" lon="-1.982028"><ele>340</ele><time>2021-11-13T09:48:26Z</time><name>PT1484</name></trkpt>
<trkpt lat="53.256274" lon="-1.982044"><ele>340</ele><time>2021-11-13T09:48:27Z</time><name>PT1485</name></trkpt>
<trkpt lat="53.256279" lon="-1.982063"><ele>340</ele><time>2021-11-13T09:48:28Z</time><name>PT1486</name></trkpt>
<trkpt lat="53.256288" lon="-1.982079"><ele>341</ele><time>2021-11-13T09:48:29Z</time><name>PT1487</name></trkpt>
<trkpt lat="53.256291" lon="-1.982097"><ele>340</ele><time>2021-11-13T09:48:30Z</time><name>PT1488</name></trkpt>
<trkpt lat="53.256305" lon="-1.982115"><ele>341</ele><time>2021-11-13T09:48:31Z</time><name>PT1489</name></trkpt>
<trkpt lat="53.256308" lon="-1.982140"><ele>340</ele><time>2021-11-13T09:48:32Z</time><name>PT1490</name></trkpt>
<trkpt lat="53.256310" lon="-1.982164"><ele>340</ele><time>2021-11-13T09:48:33Z</time><name>PT1491</name></trkpt>
<trkpt lat="53.256315" lon="-1.982186"><ele>341</ele><time>2021-11-13T09:48:34Z</time><name>PT1492</name></trkpt>
<trkpt lat="53.256319" lon="-1.982208"><ele>341</ele><time>2021-11-13T09:48:35Z</time><name>PT1493</name></trkpt>
<trkpt lat="53.256321" lon="-1.982220"><ele>340</ele><time>2021-11-13T09:48:36Z</time><name>PT1494</name></trkpt>
<trkpt lat="53.256327" lon="-1.982233"><ele>340</ele><time>2021-11-13T09:48:37Z</time><name>PT1495</name></trkpt>
<trkpt lat="53.256336" lon="-1.982253"><ele>341</ele><time>2021-11-13T09:48:38Z</time><name>PT1496</name></trkpt>
<trkpt lat="53.256340" lon="-1.982273"><ele>340</ele><time>2021-11-13T09:48:39Z</time><name>PT1497</name></trkpt>
<trkpt lat="53.256347" lon="-1.982291"><ele>341</ele><time>2021-11-13T09:48:40Z</time><name>PT1498</name></trkpt>
<trkpt lat="53.256352" lon="-1.982309"><ele>340</ele><time>2021-11-13T09:48:41Z</time><name>PT1499</name></trkpt>
<trkpt lat="53.256356" lon="-1.982334"><ele>340</ele><time>2021-11-13T09:48:42Z</time><name>PT1500</name></trkpt>
<trkpt lat="53.256361" lon="-1.982356"><ele>340</ele><time>2021-11-13T09:48:43Z</time><name>PT1501</name></trkpt>
<trkpt lat="53.256364" lon="-1.982372"><ele>339</ele><time>2021-11-13T09:48:44Z</time><name>PT1502</name></trkpt>
<trkpt lat="53.256370" lon="-1.982390"><ele>339</ele><time>2021-11-13T09:48:45Z</time><name>PT1503</name></trkpt>
<trkpt lat="53.256384" lon="-1.982408"><ele>339</ele><time>2021-11-13T09:48:46Z</time><name>PT1504</name></trkpt>
<trkpt lat="53.256390" lon="-1.982425"><ele>340</ele><time>2021-11-13T09:48:47Z</time><name>PT1505</name></trkpt>
<trkpt lat="53.256390" lon="-1.982447"><ele>339</ele><time>2021-11-13T09:48:48Z</time><name>PT1506</name></trkpt>
<trkpt lat="53.256396" lon="-1.982480"><ele>339</ele><time>2021-11-13T09:48:49Z</time><name>PT1507</name></trkpt>
<trkpt lat="53.256406" lon="-1.982503"><ele>340</ele><time>2021-11-13T09:48:50Z</time><name>PT1508</name></trkpt>
<trkpt lat="53.256413" lon="-1.982519"><ele>340</ele><time>2021-11-13T09:48:51Z</time><name>PT1509</name></trkpt>
<trkpt lat="53.256421" lon="-1.982537"><ele>340</ele><time>2021-11-13T09:48:52Z</time><name>PT1510</name></trkpt>
<trkpt lat="53.256430" lon="-1.982557"><ele>340</ele><time>2021-11-13T09:48:53Z</time><name>PT1511</name></trkpt>
<trkpt lat="53.256433" lon="-1.982577"><ele>340</ele><time>2021-11-13T09:48:54Z</time><name>PT1512</name></trkpt>
<trkpt lat="53.256437" lon="-1.982596"><ele>340</ele><time>2021-11-13T09:48:55Z</time><name>PT1513</name></trkpt>
<trkpt lat="53.256441" lon="-1.982616"><ele>339</ele><time>2021-11-13T09:48:56Z</time><name>PT1514</name></trkpt>
<trkpt lat="53.256453" lon="-1.982634"><ele>340</ele><time>2021-11-13T09:48:57Z</time><name>PT1515</name></trkpt>
<trkpt lat="53.256464" lon="-1.982652"><ele>341</ele><time>2021-11-13T09:48:58Z</time><name>PT1516</name></trkpt>
<trkpt lat="53.256474" lon="-1.982670"><ele>341</ele><time>2021-11-13T09:48:59Z</time><name>PT1517</name></trkpt>
<trkpt lat="53.256480" lon="-1.982681"><ele>342</ele><time>2021-11-13T09:49:00Z</time><name>PT1518</name></trkpt>
<trkpt lat="53.256484" lon="-1.982696"><ele>342</ele><time>2021-11-13T09:49:01Z</time><name>PT1519</name></trkpt>
<trkpt lat="53.256491" lon="-1.982717"><ele>343</ele><time>2021-11-13T09:49:02Z</time><name>PT1520</name></trkpt>
<trkpt lat="53.256498" lon="-1.982736"><ele>343</ele><time>2021-11-13T09:49:03Z</time><name>PT1521</name></trkpt>
<trkpt lat="53.256504" lon="-1.982756"><ele>343</ele><time>2021-11-13T09:49:04Z</time><name>PT1522</name></trkpt>
<trkpt lat="53.256514" lon="-1.982773"><ele>343</ele><time>2021-11-13T09:49:05Z</time><name>PT1523</name></trkpt>
<trkpt lat="53.256529" lon="-1.982791"><ele>344</ele><time>2021-11-13T09:49:06Z</time><name>PT1524</name></trkpt>
<trkpt lat="53.256537" lon="-1.982810"><ele>344</ele><time>2021-11-13T09:49:07Z</time><name>PT1525</name></trkpt>
<trkpt lat="53.256544" lon="-1.982828"><ele>345</ele><time>2021-11-13T09:49:08Z</time><name>PT1526</name></trkpt>
<trkpt lat="53.256551" lon="-1.982850"><ele>345</ele><time>2021-11-13T09:49:09Z</time><name>PT1527</name></trkpt>
<trkpt lat="53.256556" lon="-1.982869"><ele>344</ele><time>2021-11-13T09:49:10Z</time><name>PT1528</name></trkpt>
<trkpt lat="53.256563" lon="-1.982883"><ele>343</ele><time>2021-11-13T09:49:11Z</time><name>PT1529</name></trkpt>
<trkpt lat="53.256571" lon="-1.982904"><ele>344</ele><time>2021-11-13T09:49:12Z</time><name>PT1530</name></trkpt>
<trkpt lat="53.256578" lon="-1.982920"><ele>344</ele><time>2021-11-13T09:49:13Z</time><name>PT1531</name></trkpt>
<trkpt lat="53.256588" lon="-1.982936"><ele>344</ele><time>2021-11-13T09:49:14Z</time><name>PT1532</name></trkpt>
<trkpt lat="53.256595" lon="-1.982952"><ele>345</ele><time>2021-11-13T09:49:15Z</time><name>PT1533</name></trkpt>
<trkpt lat="53.256602" lon="-1.982974"><ele>345</ele><time>2021-11-13T09:49:16Z</time><name>PT1534</name></trkpt>
<trkpt lat="53.256610" lon="-1.982988"><ele>345</ele><time>2021-11-13T09:49:17Z</time><name>PT1535</name></trkpt>
<trkpt lat="53.256618" lon="-1.983001"><ele>345</ele><time>2021-11-13T09:49:18Z</time><name>PT1536</name></trkpt>
<trkpt lat="53.256625" lon="-1.983018"><ele>345</ele><time>2021-11-13T09:49:19Z</time><name>PT1537</name></trkpt>
<trkpt lat="53.256632" lon="-1.983038"><ele>344</ele><time>2021-11-13T09:49:20Z</time><name>PT1538</name></trkpt>
<trkpt lat="53.256648" lon="-1.983058"><ele>345</ele><time>2021-11-13T09:49:21Z</time><name>PT1539</name></trkpt>
<trkpt lat="53.256654" lon="-1.983076"><ele>344</ele><time>2021-11-13T09:49:22Z</time><name>PT1540</name></trkpt>
<trkpt lat="53.256661" lon="-1.983096"><ele>344</ele><time>2021-11-13T09:49:23Z</time><name>PT1541</name></trkpt>
<trkpt lat="53.256670" lon="-1.983113"><ele>344</ele><time>2021-11-13T09:49:24Z</time><name>PT1542</name></trkpt>
<trkpt lat="53.256683" lon="-1.983133"><ele>344</ele><time>2021-11-13T09:49:25Z</time><name>PT1543</name></trkpt>
<trkpt lat="53.256694" lon="-1.983149"><ele>344</ele><time>2021-11-13T09:49:26Z</time><name>PT1544</name></trkpt>
<trkpt lat="53.256702" lon="-1.983169"><ele>343</ele><time>2021-11-13T09:49:27Z</time><name>PT1545</name></trkpt>
<trkpt lat="53.256712" lon="-1.983180"><ele>343</ele><time>2021-11-13T09:49:28Z</time><name>PT1546</name></trkpt>
<trkpt lat="53.256720" lon="-1.983189"><ele>343</ele><time>2021-11-13T09:49:29Z</time><name>PT1547</name></trkpt>
<trkpt lat="53.256728" lon="-1.983198"><ele>342</ele><time>2021-11-13T09:49:30Z</time><name>PT1548</name></trkpt>
<trkpt lat="53.256741" lon="-1.983210"><ele>343</ele><time>2021-11-13T09:49:31Z</time><name>PT1549</name></trkpt>
<trkpt lat="53.256747" lon="-1.983223"><ele>341</ele><time>2021-11-13T09:49:32Z</time><name>PT1550</name></trkpt>
<trkpt lat="53.256758" lon="-1.983217"><ele>342</ele><time>2021-11-13T09:49:33Z</time><name>PT1551</name></trkpt>
<trkpt lat="53.256766" lon="-1.983216"><ele>341</ele><time>2021-11-13T09:49:34Z</time><name>PT1552</name></trkpt>
<trkpt lat="53.256779" lon="-1.983219"><ele>341</ele><time>2021-11-13T09:49:35Z</time><name>PT1553</name></trkpt>
<trkpt lat="53.256790" lon="-1.983224"><ele>340</ele><time>2021-11-13T09:49:36Z</time><name>PT1554</name></trkpt>
<trkpt lat="53.256799" lon="-1.983228"><ele>340</ele><time>2021-11-13T09:49:37Z</time><name>PT1555</name></trkpt>
<trkpt lat="53.256814" lon="-1.983235"><ele>341</ele><time>2021-11-13T09:49:38Z</time><name>PT1556</name></trkpt>
<trkpt lat="53.256823" lon="-1.983241"><ele>341</ele><time>2021-11-13T09:49:39Z</time><name>PT1557</name></trkpt>
<trkpt lat="53.256831" lon="-1.983248"><ele>340</ele><time>2021-11-13T09:49:40Z</time><name>PT1558</name></trkpt>
<trkpt lat="53.256840" lon="-1.983254"><ele>339</ele><time>2021-11-13T09:49:41Z</time><name>PT1559</name></trkpt>
<trkpt lat="53.256849" lon="-1.983259"><ele>339</ele><time>2021-11-13T09:49:42Z</time><name>PT1560</name></trkpt>
<trkpt lat="53.256858" lon="-1.983263"><ele>339</ele><time>2021-11-13T09:49:43Z</time><name>PT1561</name></trkpt>
<trkpt lat="53.256861" lon="-1.983271"><ele>338</ele><time>2021-11-13T09:49:44Z</time><name>PT1562</name></trkpt>
<trkpt lat="53.256866" lon="-1.983279"><ele>338</ele><time>2021-11-13T09:49:45Z</time><name>PT1563</name></trkpt>
<trkpt lat="53.256893" lon="-1.983302"><ele>336</ele><time>2021-11-13T09:49:48Z</time><name>PT1564</name></trkpt>
<trkpt lat="53.256916" lon="-1.983321"><ele>336</ele><time>2021-11-13T09:49:52Z</time><name>PT1565</name></trkpt>
<trkpt lat="53.256964" lon="-1.983323"><ele>336</ele><time>2021-11-13T09:49:56Z</time><name>PT1566</name></trkpt>
<trkpt lat="53.256990" lon="-1.983355"><ele>335</ele><time>2021-11-13T09:50:00Z</time><name>PT1567</name></trkpt>
<trkpt lat="53.257026" lon="-1.983416"><ele>334</ele><time>2021-11-13T09:50:04Z</time><name>PT1568</name></trkpt>
<trkpt lat="53.257058" lon="-1.983461"><ele>331</ele><time>2021-11-13T09:50:08Z</time><name>PT1569</name></trkpt>
<trkpt lat="53.257101" lon="-1.983505"><ele>330</ele><time>2021-11-13T09:50:12Z</time><name>PT1570</name></trkpt>
<trkpt lat="53.257142" lon="-1.983536"><ele>330</ele><time>2021-11-13T09:50:16Z</time><name>PT1571</name></trkpt>
<trkpt lat="53.257177" lon="-1.983581"><ele>329</ele><time>2021-11-13T09:50:20Z</time><name>PT1572</name></trkpt>
<trkpt lat="53.257238" lon="-1.983633"><ele>331</ele><time>2021-11-13T09:50:24Z</time><name>PT1573</name></trkpt>
<trkpt lat="53.257320" lon="-1.983703"><ele>334</ele><time>2021-11-13T09:50:28Z</time><name>PT1574</name></trkpt>
<trkpt lat="53.257374" lon="-1.983755"><ele>335</ele><time>2021-11-13T09:50:32Z</time><name>PT1575</name></trkpt>
<trkpt lat="53.257413" lon="-1.983805"><ele>335</ele><time>2021-11-13T09:50:36Z</time><name>PT1576</name></trkpt>
<trkpt lat="53.257459" lon="-1.983863"><ele>336</ele><time>2021-11-13T09:50:40Z</time><name>PT1577</name></trkpt>
<trkpt lat="53.257495" lon="-1.983920"><ele>336</ele><time>2021-11-13T09:50:44Z</time><name>PT1578</name></trkpt>
<trkpt lat="53.257533" lon="-1.983973"><ele>336</ele><time>2021-11-13T09:50:48Z</time><name>PT1579</name></trkpt>
<trkpt lat="53.257561" lon="-1.984027"><ele>335</ele><time>2021-11-13T09:50:52Z</time><name>PT1580</name></trkpt>
<trkpt lat="53.257611" lon="-1.984083"><ele>337</ele><time>2021-11-13T09:50:56Z</time><name>PT1581</name></trkpt>
<trkpt lat="53.257658" lon="-1.984146"><ele>337</ele><time>2021-11-13T09:51:00Z</time><name>PT1582</name></trkpt>
<trkpt lat="53.257700" lon="-1.984197"><ele>338</ele><time>2021-11-13T09:51:04Z</time><name>PT1583</name></trkpt>
<trkpt lat="53.257747" lon="-1.984246"><ele>339</ele><time>2021-11-13T09:51:08Z</time><name>PT1584</name></trkpt>
<trkpt lat="53.257776" lon="-1.984301"><ele>337</ele><time>2021-11-13T09:51:12Z</time><name>PT1585</name></trkpt>
<trkpt lat="53.257822" lon="-1.984345"><ele>337</ele><time>2021-11-13T09:51:16Z</time><name>PT1586</name></trkpt>
<trkpt lat="53.257868" lon="-1.984384"><ele>337</ele><time>2021-11-13T09:51:20Z</time><name>PT1587</name></trkpt>
<trkpt lat="53.257913" lon="-1.984403"><ele>336</ele><time>2021-11-13T09:51:24Z</time><name>PT1588</name></trkpt>
<trkpt lat="53.257966" lon="-1.984419"><ele>337</ele><time>2021-11-13T09:51:28Z</time><name>PT1589</name></trkpt>
<trkpt lat="53.258012" lon="-1.984436"><ele>337</ele><time>2021-11-13T09:51:32Z</time><name>PT1590</name></trkpt>
<trkpt lat="53.258047" lon="-1.984450"><ele>336</ele><time>2021-11-13T09:51:36Z</time><name>PT1591</name></trkpt>
<trkpt lat="53.258099" lon="-1.984460"><ele>336</ele><time>2021-11-13T09:51:40Z</time><name>PT1592</name></trkpt>
<trkpt lat="53.258147" lon="-1.984474"><ele>336</ele><time>2021-11-13T09:51:44Z</time><name>PT1593</name></trkpt>
<trkpt lat="53.258181" lon="-1.984499"><ele>334</ele><time>2021-11-13T09:51:48Z</time><name>PT1594</name></trkpt>
<trkpt lat="53.258228" lon="-1.984505"><ele>335</ele><time>2021-11-13T09:51:52Z</time><name>PT1595</name></trkpt>
<trkpt lat="53.258256" lon="-1.984513"><ele>334</ele><time>2021-11-13T09:51:56Z</time><name>PT1596</name></trkpt>
<trkpt lat="53.258284" lon="-1.984536"><ele>333</ele><time>2021-11-13T09:52:00Z</time><name>PT1597</name></trkpt>
<trkpt lat="53.258333" lon="-1.984554"><ele>332</ele><time>2021-11-13T09:52:04Z</time><name>PT1598</name></trkpt>
<trkpt lat="53.258359" lon="-1.984579"><ele>329</ele><time>2021-11-13T09:52:08Z</time><name>PT1599</name></trkpt>
<trkpt lat="53.258408" lon="-1.984602"><ele>329</ele><time>2021-11-13T09:52:12Z</time><name>PT1600</name></trkpt>
<trkpt lat="53.258445" lon="-1.984619"><ele>326</ele><time>2021-11-13T09:52:16Z</time><name>PT1601</name></trkpt>
<trkpt lat="53.258471" lon="-1.984649"><ele>325</ele><time>2021-11-13T09:52:20Z</time><name>PT1602</name></trkpt>
<trkpt lat="53.258532" lon="-1.984671"><ele>326</ele><time>2021-11-13T09:52:24Z</time><name>PT1603</name></trkpt>
<trkpt lat="53.258565" lon="-1.984673"><ele>327</ele><time>2021-11-13T09:52:28Z</time><name>PT1604</name></trkpt>
<trkpt lat="53.258637" lon="-1.984605"><ele>332</ele><time>2021-11-13T09:52:32Z</time><name>PT1605</name></trkpt>
<trkpt lat="53.258674" lon="-1.984549"><ele>334</ele><time>2021-11-13T09:52:36Z</time><name>PT1606</name></trkpt>
<trkpt lat="53.258718" lon="-1.984522"><ele>334</ele><time>2021-11-13T09:52:40Z</time><name>PT1607</name></trkpt>
<trkpt lat="53.258741" lon="-1.984500"><ele>333</ele><time>2021-11-13T09:52:44Z</time><name>PT1608</name></trkpt>
<trkpt lat="53.258744" lon="-1.984464"><ele>333</ele><time>2021-11-13T09:52:48Z</time><name>PT1609</name></trkpt>
<trkpt lat="53.258767" lon="-1.984448"><ele>335</ele><time>2021-11-13T09:52:52Z</time><name>PT1610</name></trkpt>
<trkpt lat="53.258769" lon="-1.984449"><ele>336</ele><time>2021-11-13T09:52:56Z</time><name>PT1611</name></trkpt>
<trkpt lat="53.258768" lon="-1.984439"><ele>335</ele><time>2021-11-13T09:53:00Z</time><name>PT1612</name></trkpt>
<trkpt lat="53.258798" lon="-1.984459"><ele>335</ele><time>2021-11-13T09:53:04Z</time><name>PT1613</name></trkpt>
<trkpt lat="53.258805" lon="-1.984449"><ele>333</ele><time>2021-11-13T09:53:08Z</time><name>PT1614</name></trkpt>
<trkpt lat="53.258827" lon="-1.984402"><ele>333</ele><time>2021-11-13T09:53:12Z</time><name>PT1615</name></trkpt>
<trkpt lat="53.258829" lon="-1.984384"><ele>333</ele><time>2021-11-13T09:53:16Z</time><name>PT1616</name></trkpt>
<trkpt lat="53.258830" lon="-1.984381"><ele>333</ele><time>2021-11-13T09:53:20Z</time><name>PT1617</name></trkpt>
<trkpt lat="53.258792" lon="-1.984356"><ele>329</ele><time>2021-11-13T09:53:24Z</time><name>PT1618</name></trkpt>
<trkpt lat="53.258761" lon="-1.984370"><ele>328</ele><time>2021-11-13T09:53:28Z</time><name>PT1619</name></trkpt>
<trkpt lat="53.258728" lon="-1.984375"><ele>326</ele><time>2021-11-13T09:53:32Z</time><name>PT1620</name></trkpt>
<trkpt lat="53.258698" lon="-1.984368"><ele>326</ele><time>2021-11-13T09:53:36Z</time><name>PT1621</name></trkpt>
<trkpt lat="53.258675" lon="-1.984351"><ele>328</ele><time>2021-11-13T09:53:40Z</time><name>PT1622</name></trkpt>
<trkpt lat="53.258660" lon="-1.984327"><ele>328</ele><time>2021-11-13T09:53:44Z</time><name>PT1623</name></trkpt>
<trkpt lat="53.258651" lon="-1.984312"><ele>328</ele><time>2021-11-13T09:53:48Z</time><name>PT1624</name></trkpt>
<trkpt lat="53.258641" lon="-1.984313"><ele>327</ele><time>2021-11-13T09:53:52Z</time><name>PT1625</name></trkpt>
<trkpt lat="53.258627" lon="-1.984305"><ele>326</ele><time>2021-11-13T09:53:56Z</time><name>PT1626</name></trkpt>
<trkpt lat="53.258617" lon="-1.984301"><ele>325</ele><time>2021-11-13T09:54:00Z</time><name>PT1627</name></trkpt>
<trkpt lat="53.258618" lon="-1.984274"><ele>323</ele><time>2021-11-13T09:54:04Z</time><name>PT1628</name></trkpt>
<trkpt lat="53.258629" lon="-1.984239"><ele>321</ele><time>2021-11-13T09:54:08Z</time><name>PT1629</name></trkpt>
<trkpt lat="53.258641" lon="-1.984207"><ele>320</ele><time>2021-11-13T09:54:12Z</time><name>PT1630</name></trkpt>
<trkpt lat="53.258670" lon="-1.984180"><ele>321</ele><time>2021-11-13T09:54:16Z</time><name>PT1631</name></trkpt>
<trkpt lat="53.258692" lon="-1.984146"><ele>321</ele><time>2021-11-13T09:54:20Z</time><name>PT1632</name></trkpt>
<trkpt lat="53.258724" lon="-1.984103"><ele>321</ele><time>2021-11-13T09:54:24Z</time><name>PT1633</name></trkpt>
<trkpt lat="53.258763" lon="-1.984071"><ele>320</ele><time>2021-11-13T09:54:28Z</time><name>PT1634</name></trkpt>
<trkpt lat="53.258778" lon="-1.984042"><ele>319</ele><time>2021-11-13T09:54:32Z</time><name>PT1635</name></trkpt>
<trkpt lat="53.258797" lon="-1.984036"><ele>319</ele><time>2021-11-13T09:54:36Z</time><name>PT1636</name></trkpt>
<trkpt lat="53.258823" lon="-1.984024"><ele>317</ele><time>2021-11-13T09:54:40Z</time><name>PT1637</name></trkpt>
<trkpt lat="53.258829" lon="-1.984025"><ele>317</ele><time>2021-11-13T09:54:41Z</time><name>PT1638</name></trkpt>
<trkpt lat="53.258829" lon="-1.984028"><ele>316</ele><time>2021-11-13T09:54:42Z</time><name>PT1639</name></trkpt>
<trkpt lat="53.258838" lon="-1.984026"><ele>316</ele><time>2021-11-13T09:54:43Z</time><name>PT1640</name></trkpt>
<trkpt lat="53.258845" lon="-1.984032"><ele>316</ele><time>2021-11-13T09:54:44Z</time><name>PT1641</name></trkpt>
<trkpt lat="53.258849" lon="-1.984031"><ele>316</ele><time>2021-11-13T09:54:45Z</time><name>PT1642</name></trkpt>
<trkpt lat="53.258856" lon="-1.984042"><ele>316</ele><time>2021-11-13T09:54:46Z</time><name>PT1643</name></trkpt>
<trkpt lat="53.258857" lon="-1.984039"><ele>316</ele><time>2021-11-13T09:54:48Z</time><name>PT1644</name></trkpt>
<trkpt lat="53.258864" lon="-1.984021"><ele>315</ele><time>2021-11-13T09:54:49Z</time><name>PT1645</name></trkpt>
<trkpt lat="53.258877" lon="-1.984011"><ele>313</ele><time>2021-11-13T09:54:50Z</time><name>PT1646</name></trkpt>
<trkpt lat="53.258884" lon="-1.984014"><ele>313</ele><time>2021-11-13T09:54:51Z</time><name>PT1647</name></trkpt>
<trkpt lat="53.258891" lon="-1.984010"><ele>313</ele><time>2021-11-13T09:54:52Z</time><name>PT1648</name></trkpt>
<trkpt lat="53.258888" lon="-1.984006"><ele>313</ele><time>2021-11-13T09:54:53Z</time><name>PT1649</name></trkpt>
<trkpt lat="53.258889" lon="-1.984006"><ele>312</ele><time>2021-11-13T09:54:54Z</time><name>PT1650</name></trkpt>
<trkpt lat="53.258891" lon="-1.984004"><ele>312</ele><time>2021-11-13T09:54:55Z</time><name>PT1651</name></trkpt>
<trkpt lat="53.258898" lon="-1.984003"><ele>311</ele><time>2021-11-13T09:54:56Z</time><name>PT1652</name></trkpt>
<trkpt lat="53.258906" lon="-1.984000"><ele>312</ele><time>2021-11-13T09:54:57Z</time><name>PT1653</name></trkpt>
<trkpt lat="53.258907" lon="-1.983994"><ele>312</ele><time>2021-11-13T09:54:58Z</time><name>PT1654</name></trkpt>
<trkpt lat="53.258909" lon="-1.983999"><ele>312</ele><time>2021-11-13T09:54:59Z</time><name>PT1655</name></trkpt>
<trkpt lat="53.258914" lon="-1.983999"><ele>311</ele><time>2021-11-13T09:55:00Z</time><name>PT1656</name></trkpt>
<trkpt lat="53.258922" lon="-1.983999"><ele>311</ele><time>2021-11-13T09:55:01Z</time><name>PT1657</name></trkpt>
<trkpt lat="53.258929" lon="-1.983994"><ele>311</ele><time>2021-11-13T09:55:02Z</time><name>PT1658</name></trkpt>
<trkpt lat="53.258934" lon="-1.983993"><ele>310</ele><time>2021-11-13T09:55:03Z</time><name>PT1659</name></trkpt>
<trkpt lat="53.258935" lon="-1.983985"><ele>310</ele><time>2021-11-13T09:55:04Z</time><name>PT1660</name></trkpt>
<trkpt lat="53.258932" lon="-1.983982"><ele>309</ele><time>2021-11-13T09:55:05Z</time><name>PT1661</name></trkpt>
<trkpt lat="53.258935" lon="-1.983960"><ele>311</ele><time>2021-11-13T09:55:06Z</time><name>PT1662</name></trkpt>
<trkpt lat="53.258946" lon="-1.983961"><ele>311</ele><time>2021-11-13T09:55:07Z</time><name>PT1663</name></trkpt>
<trkpt lat="53.258955" lon="-1.983957"><ele>312</ele><time>2021-11-13T09:55:08Z</time><name>PT1664</name></trkpt>
<trkpt lat="53.258972" lon="-1.983945"><ele>312</ele><time>2021-11-13T09:55:09Z</time><name>PT1665</name></trkpt>
<trkpt lat="53.258984" lon="-1.983932"><ele>313</ele><time>2021-11-13T09:55:10Z</time><name>PT1666</name></trkpt>
<trkpt lat="53.258985" lon="-1.983930"><ele>310</ele><time>2021-11-13T09:55:11Z</time><name>PT1667</name></trkpt>
<trkpt lat="53.258997" lon="-1.983921"><ele>310</ele><time>2021-11-13T09:55:12Z</time><name>PT1668</name></trkpt>
<trkpt lat="53.259007" lon="-1.983904"><ele>311</ele><time>2021-11-13T09:55:13Z</time><name>PT1669</name></trkpt>
<trkpt lat="53.259025" lon="-1.983887"><ele>311</ele><time>2021-11-13T09:55:14Z</time><name>PT1670</name></trkpt>
<trkpt lat="53.259034" lon="-1.983873"><ele>311</ele><time>2021-11-13T09:55:15Z</time><name>PT1671</name></trkpt>
<trkpt lat="53.259046" lon="-1.983867"><ele>312</ele><time>2021-11-13T09:55:16Z</time><name>PT1672</name></trkpt>
<trkpt lat="53.259059" lon="-1.983857"><ele>313</ele><time>2021-11-13T09:55:17Z</time><name>PT1673</name></trkpt>
<trkpt lat="53.259069" lon="-1.983852"><ele>313</ele><time>2021-11-13T09:55:18Z</time><name>PT1674</name></trkpt>
<trkpt lat="53.259079" lon="-1.983851"><ele>313</ele><time>2021-11-13T09:55:19Z</time><name>PT1675</name></trkpt>
<trkpt lat="53.259090" lon="-1.983851"><ele>313</ele><time>2021-11-13T09:55:20Z</time><name>PT1676</name></trkpt>
<trkpt lat="53.259100" lon="-1.983853"><ele>312</ele><time>2021-11-13T09:55:21Z</time><name>PT1677</name></trkpt>
<trkpt lat="53.259108" lon="-1.983856"><ele>312</ele><time>2021-11-13T09:55:22Z</time><name>PT1678</name></trkpt>
<trkpt lat="53.259117" lon="-1.983850"><ele>313</ele><time>2021-11-13T09:55:23Z</time><name>PT1679</name></trkpt>
<trkpt lat="53.259124" lon="-1.983844"><ele>313</ele><time>2021-11-13T09:55:24Z</time><name>PT1680</name></trkpt>
<trkpt lat="53.259136" lon="-1.983833"><ele>314</ele><time>2021-11-13T09:55:25Z</time><name>PT1681</name></trkpt>
<trkpt lat="53.259139" lon="-1.983822"><ele>312</ele><time>2021-11-13T09:55:26Z</time><name>PT1682</name></trkpt>
<trkpt lat="53.259146" lon="-1.983810"><ele>312</ele><time>2021-11-13T09:55:27Z</time><name>PT1683</name></trkpt>
<trkpt lat="53.259149" lon="-1.983800"><ele>312</ele><time>2021-11-13T09:55:28Z</time><name>PT1684</name></trkpt>
<trkpt lat="53.259151" lon="-1.983801"><ele>311</ele><time>2021-11-13T09:55:29Z</time><name>PT1685</name></trkpt>
<trkpt lat="53.259162" lon="-1.983790"><ele>311</ele><time>2021-11-13T09:55:30Z</time><name>PT1686</name></trkpt>
<trkpt lat="53.259169" lon="-1.983782"><ele>310</ele><time>2021-11-13T09:55:31Z</time><name>PT1687</name></trkpt>
<trkpt lat="53.259170" lon="-1.983777"><ele>309</ele><time>2021-11-13T09:55:32Z</time><name>PT1688</name></trkpt>
<trkpt lat="53.259173" lon="-1.983768"><ele>308</ele><time>2021-11-13T09:55:33Z</time><name>PT1689</name></trkpt>
<trkpt lat="53.259183" lon="-1.983764"><ele>309</ele><time>2021-11-13T09:55:34Z</time><name>PT1690</name></trkpt>
<trkpt lat="53.259192" lon="-1.983757"><ele>309</ele><time>2021-11-13T09:55:35Z</time><name>PT1691</name></trkpt>
<trkpt lat="53.259200" lon="-1.983750"><ele>309</ele><time>2021-11-13T09:55:36Z</time><name>PT1692</name></trkpt>
<trkpt lat="53.259207" lon="-1.983749"><ele>308</ele><time>2021-11-13T09:55:37Z</time><name>PT1693</name></trkpt>
<trkpt lat="53.259213" lon="-1.983749"><ele>307</ele><time>2021-11-13T09:55:38Z</time><name>PT1694</name></trkpt>
<trkpt lat="53.259209" lon="-1.983760"><ele>304</ele><time>2021-11-13T09:55:39Z</time><name>PT1695</name></trkpt>
<trkpt lat="53.259213" lon="-1.983757"><ele>303</ele><time>2021-11-13T09:55:40Z</time><name>PT1696</name></trkpt>
<trkpt lat="53.259217" lon="-1.983756"><ele>302</ele><time>2021-11-13T09:55:41Z</time><name>PT1697</name></trkpt>
<trkpt lat="53.259238" lon="-1.983770"><ele>302</ele><time>2021-11-13T09:55:42Z</time><name>PT1698</name></trkpt>
<trkpt lat="53.259246" lon="-1.983766"><ele>302</ele><time>2021-11-13T09:55:43Z</time><name>PT1699</name></trkpt>
<trkpt lat="53.259254" lon="-1.983765"><ele>302</ele><time>2021-11-13T09:55:44Z</time><name>PT1700</name></trkpt>
<trkpt lat="53.259257" lon="-1.983759"><ele>302</ele><time>2021-11-13T09:55:45Z</time><name>PT1701</name></trkpt>
<trkpt lat="53.259266" lon="-1.983760"><ele>302</ele><time>2021-11-13T09:55:46Z</time><name>PT1702</name></trkpt>
<trkpt lat="53.259282" lon="-1.983757"><ele>303</ele><time>2021-11-13T09:55:47Z</time><name>PT1703</name></trkpt>
<trkpt lat="53.259292" lon="-1.983761"><ele>303</ele><time>2021-11-13T09:55:48Z</time><name>PT1704</name></trkpt>
<trkpt lat="53.259304" lon="-1.983762"><ele>303</ele><time>2021-11-13T09:55:49Z</time><name>PT1705</name></trkpt>
<trkpt lat="53.259310" lon="-1.983768"><ele>302</ele><time>2021-11-13T09:55:50Z</time><name>PT1706</name></trkpt>
<trkpt lat="53.259321" lon="-1.983770"><ele>302</ele><time>2021-11-13T09:55:51Z</time><name>PT1707</name></trkpt>
<trkpt lat="53.259333" lon="-1.983771"><ele>302</ele><time>2021-11-13T09:55:52Z</time><name>PT1708</name></trkpt>
<trkpt lat="53.259341" lon="-1.983776"><ele>302</ele><time>2021-11-13T09:55:53Z</time><name>PT1709</name></trkpt>
<trkpt lat="53.259339" lon="-1.983768"><ele>300</ele><time>2021-11-13T09:55:54Z</time><name>PT1710</name></trkpt>
<trkpt lat="53.259344" lon="-1.983772"><ele>298</ele><time>2021-11-13T09:55:55Z</time><name>PT1711</name></trkpt>
<trkpt lat="53.259355" lon="-1.983783"><ele>298</ele><time>2021-11-13T09:55:56Z</time><name>PT1712</name></trkpt>
<trkpt lat="53.259356" lon="-1.983782"><ele>298</ele><time>2021-11-13T09:55:57Z</time><name>PT1713</name></trkpt>
<trkpt lat="53.259356" lon="-1.983780"><ele>297</ele><time>2021-11-13T09:55:58Z</time><name>PT1714</name></trkpt>
<trkpt lat="53.259352" lon="-1.983781"><ele>295</ele><time>2021-11-13T09:55:59Z</time><name>PT1715</name></trkpt>
<trkpt lat="53.259354" lon="-1.983779"><ele>295</ele><time>2021-11-13T09:56:00Z</time><name>PT1716</name></trkpt>
<trkpt lat="53.259368" lon="-1.983774"><ele>296</ele><time>2021-11-13T09:56:01Z</time><name>PT1717</name></trkpt>
<trkpt lat="53.259374" lon="-1.983773"><ele>296</ele><time>2021-11-13T09:56:02Z</time><name>PT1718</name></trkpt>
<trkpt lat="53.259382" lon="-1.983767"><ele>297</ele><time>2021-11-13T09:56:03Z</time><name>PT1719</name></trkpt>
<trkpt lat="53.259384" lon="-1.983759"><ele>296</ele><time>2021-11-13T09:56:04Z</time><name>PT1720</name></trkpt>
<trkpt lat="53.259396" lon="-1.983757"><ele>296</ele><time>2021-11-13T09:56:05Z</time><name>PT1721</name></trkpt>
<trkpt lat="53.259411" lon="-1.983758"><ele>296</ele><time>2021-11-13T09:56:06Z</time><name>PT1722</name></trkpt>
<trkpt lat="53.259417" lon="-1.983756"><ele>296</ele><time>2021-11-13T09:56:07Z</time><name>PT1723</name></trkpt>
<trkpt lat="53.259434" lon="-1.983744"><ele>298</ele><time>2021-11-13T09:56:08Z</time><name>PT1724</name></trkpt>
<trkpt lat="53.259438" lon="-1.983742"><ele>297</ele><time>2021-11-13T09:56:09Z</time><name>PT1725</name></trkpt>
<trkpt lat="53.259452" lon="-1.983746"><ele>297</ele><time>2021-11-13T09:56:10Z</time><name>PT1726</name></trkpt>
<trkpt lat="53.259470" lon="-1.983750"><ele>298</ele><time>2021-11-13T09:56:11Z</time><name>PT1727</name></trkpt>
<trkpt lat="53.259507" lon="-1.983739"><ele>301</ele><time>2021-11-13T09:56:12Z</time><name>PT1728</name></trkpt>
<trkpt lat="53.259529" lon="-1.983737"><ele>301</ele><time>2021-11-13T09:56:13Z</time><name>PT1729</name></trkpt>
<trkpt lat="53.259539" lon="-1.983736"><ele>300</ele><time>2021-11-13T09:56:14Z</time><name>PT1730</name></trkpt>
<trkpt lat="53.259554" lon="-1.983734"><ele>301</ele><time>2021-11-13T09:56:15Z</time><name>PT1731</name></trkpt>
<trkpt lat="53.259583" lon="-1.983732"><ele>303</ele><time>2021-11-13T09:56:16Z</time><name>PT1732</name></trkpt>
<trkpt lat="53.259612" lon="-1.983730"><ele>305</ele><time>2021-11-13T09:56:17Z</time><name>PT1733</name></trkpt>
<trkpt lat="53.259633" lon="-1.983730"><ele>307</ele><time>2021-11-13T09:56:18Z</time><name>PT1734</name></trkpt>
<trkpt lat="53.259639" lon="-1.983737"><ele>307</ele><time>2021-11-13T09:56:19Z</time><name>PT1735</name></trkpt>
<trkpt lat="53.259648" lon="-1.983740"><ele>307</ele><time>2021-11-13T09:56:20Z</time><name>PT1736</name></trkpt>
<trkpt lat="53.259661" lon="-1.983744"><ele>308</ele><time>2021-11-13T09:56:21Z</time><name>PT1737</name></trkpt>
<trkpt lat="53.259678" lon="-1.983747"><ele>309</ele><time>2021-11-13T09:56:22Z</time><name>PT1738</name></trkpt>
<trkpt lat="53.259685" lon="-1.983747"><ele>307</ele><time>2021-11-13T09:56:23Z</time><name>PT1739</name></trkpt>
<trkpt lat="53.259706" lon="-1.983743"><ele>309</ele><time>2021-11-13T09:56:24Z</time><name>PT1740</name></trkpt>
<trkpt lat="53.259701" lon="-1.983745"><ele>309</ele><time>2021-11-13T09:56:25Z</time><name>PT1741</name></trkpt>
<trkpt lat="53.259715" lon="-1.983744"><ele>309</ele><time>2021-11-13T09:56:26Z</time><name>PT1742</name></trkpt>
<trkpt lat="53.259724" lon="-1.983745"><ele>309</ele><time>2021-11-13T09:56:27Z</time><name>PT1743</name></trkpt>
<trkpt lat="53.259744" lon="-1.983752"><ele>310</ele><time>2021-11-13T09:56:28Z</time><name>PT1744</name></trkpt>
<trkpt lat="53.259761" lon="-1.983749"><ele>310</ele><time>2021-11-13T09:56:29Z</time><name>PT1745</name></trkpt>
<trkpt lat="53.259783" lon="-1.983752"><ele>311</ele><time>2021-11-13T09:56:30Z</time><name>PT1746</name></trkpt>
<trkpt lat="53.259798" lon="-1.983751"><ele>311</ele><time>2021-11-13T09:56:31Z</time><name>PT1747</name></trkpt>
<trkpt lat="53.259800" lon="-1.983745"><ele>312</ele><time>2021-11-13T09:56:32Z</time><name>PT1748</name></trkpt>
<trkpt lat="53.259805" lon="-1.983745"><ele>312</ele><time>2021-11-13T09:56:33Z</time><name>PT1749</name></trkpt>
<trkpt lat="53.259811" lon="-1.983745"><ele>312</ele><time>2021-11-13T09:56:34Z</time><name>PT1750</name></trkpt>
<trkpt lat="53.259818" lon="-1.983741"><ele>312</ele><time>2021-11-13T09:56:35Z</time><name>PT1751</name></trkpt>
<trkpt lat="53.259830" lon="-1.983744"><ele>312</ele><time>2021-11-13T09:56:36Z</time><name>PT1752</name></trkpt>
<trkpt lat="53.259843" lon="-1.983744"><ele>313</ele><time>2021-11-13T09:56:37Z</time><name>PT1753</name></trkpt>
<trkpt lat="53.259852" lon="-1.983747"><ele>312</ele><time>2021-11-13T09:56:38Z</time><name>PT1754</name></trkpt>
<trkpt lat="53.259866" lon="-1.983751"><ele>313</ele><time>2021-11-13T09:56:39Z</time><name>PT1755</name></trkpt>
<trkpt lat="53.259875" lon="-1.983756"><ele>313</ele><time>2021-11-13T09:56:40Z</time><name>PT1756</name></trkpt>
<trkpt lat="53.259882" lon="-1.983758"><ele>313</ele><time>2021-11-13T09:56:41Z</time><name>PT1757</name></trkpt>
<trkpt lat="53.259892" lon="-1.983760"><ele>312</ele><time>2021-11-13T09:56:42Z</time><name>PT1758</name></trkpt>
<trkpt lat="53.259898" lon="-1.983760"><ele>312</ele><time>2021-11-13T09:56:43Z</time><name>PT1759</name></trkpt>
<trkpt lat="53.259905" lon="-1.983756"><ele>311</ele><time>2021-11-13T09:56:44Z</time><name>PT1760</name></trkpt>
<trkpt lat="53.259914" lon="-1.983753"><ele>311</ele><time>2021-11-13T09:56:45Z</time><name>PT1761</name></trkpt>
<trkpt lat="53.259928" lon="-1.983757"><ele>311</ele><time>2021-11-13T09:56:46Z</time><name>PT1762</name></trkpt>
<trkpt lat="53.259936" lon="-1.983757"><ele>311</ele><time>2021-11-13T09:56:47Z</time><name>PT1763</name></trkpt>
<trkpt lat="53.259948" lon="-1.983750"><ele>312</ele><time>2021-11-13T09:56:48Z</time><name>PT1764</name></trkpt>
<trkpt lat="53.259954" lon="-1.983753"><ele>311</ele><time>2021-11-13T09:56:49Z</time><name>PT1765</name></trkpt>
<trkpt lat="53.259967" lon="-1.983752"><ele>312</ele><time>2021-11-13T09:56:50Z</time><name>PT1766</name></trkpt>
<trkpt lat="53.259991" lon="-1.983748"><ele>313</ele><time>2021-11-13T09:56:51Z</time><name>PT1767</name></trkpt>
<trkpt lat="53.260005" lon="-1.983753"><ele>313</ele><time>2021-11-13T09:56:52Z</time><name>PT1768</name></trkpt>
<trkpt lat="53.260010" lon="-1.983753"><ele>313</ele><time>2021-11-13T09:56:53Z</time><name>PT1769</name></trkpt>
<trkpt lat="53.260052" lon="-1.983737"><ele>316</ele><time>2021-11-13T09:56:54Z</time><name>PT1770</name></trkpt>
<trkpt lat="53.260058" lon="-1.983735"><ele>316</ele><time>2021-11-13T09:56:55Z</time><name>PT1771</name></trkpt>
<trkpt lat="53.260069" lon="-1.983728"><ele>316</ele><time>2021-11-13T09:56:56Z</time><name>PT1772</name></trkpt>
<trkpt lat="53.260087" lon="-1.983724"><ele>317</ele><time>2021-11-13T09:56:57Z</time><name>PT1773</name></trkpt>
<trkpt lat="53.260103" lon="-1.983726"><ele>317</ele><time>2021-11-13T09:56:58Z</time><name>PT1774</name></trkpt>
<trkpt lat="53.260112" lon="-1.983732"><ele>317</ele><time>2021-11-13T09:56:59Z</time><name>PT1775</name></trkpt>
<trkpt lat="53.260122" lon="-1.983736"><ele>316</ele><time>2021-11-13T09:57:00Z</time><name>PT1776</name></trkpt>
<trkpt lat="53.260129" lon="-1.983736"><ele>316</ele><time>2021-11-13T09:57:01Z</time><name>PT1777</name></trkpt>
<trkpt lat="53.260135" lon="-1.983738"><ele>316</ele><time>2021-11-13T09:57:02Z</time><name>PT1778</name></trkpt>
<trkpt lat="53.260138" lon="-1.983739"><ele>316</ele><time>2021-11-13T09:57:03Z</time><name>PT1779</name></trkpt>
<trkpt lat="53.260149" lon="-1.983743"><ele>316</ele><time>2021-11-13T09:57:04Z</time><name>PT1780</name></trkpt>
<trkpt lat="53.260157" lon="-1.983750"><ele>315</ele><time>2021-11-13T09:57:05Z</time><name>PT1781</name></trkpt>
<trkpt lat="53.260167" lon="-1.983755"><ele>315</ele><time>2021-11-13T09:57:06Z</time><name>PT1782</name></trkpt>
<trkpt lat="53.260187" lon="-1.983747"><ele>316</ele><time>2021-11-13T09:57:07Z</time><name>PT1783</name></trkpt>
<trkpt lat="53.260194" lon="-1.983726"><ele>317</ele><time>2021-11-13T09:57:08Z</time><name>PT1784</name></trkpt>
<trkpt lat="53.260198" lon="-1.983733"><ele>318</ele><time>2021-11-13T09:57:09Z</time><name>PT1785</name></trkpt>
<trkpt lat="53.260205" lon="-1.983741"><ele>316</ele><time>2021-11-13T09:57:10Z</time><name>PT1786</name></trkpt>
<trkpt lat="53.260201" lon="-1.983761"><ele>313</ele><time>2021-11-13T09:57:11Z</time><name>PT1787</name></trkpt>
<trkpt lat="53.260204" lon="-1.983771"><ele>312</ele><time>2021-11-13T09:57:12Z</time><name>PT1788</name></trkpt>
<trkpt lat="53.260207" lon="-1.983777"><ele>311</ele><time>2021-11-13T09:57:13Z</time><name>PT1789</name></trkpt>
<trkpt lat="53.260213" lon="-1.983780"><ele>311</ele><time>2021-11-13T09:57:14Z</time><name>PT1790</name></trkpt>
<trkpt lat="53.260215" lon="-1.983785"><ele>309</ele><time>2021-11-13T09:57:15Z</time><name>PT1791</name></trkpt>
<trkpt lat="53.260223" lon="-1.983791"><ele>308</ele><time>2021-11-13T09:57:16Z</time><name>PT1792</name></trkpt>
<trkpt lat="53.260232" lon="-1.983796"><ele>308</ele><time>2021-11-13T09:57:17Z</time><name>PT1793</name></trkpt>
<trkpt lat="53.260260" lon="-1.983798"><ele>309</ele><time>2021-11-13T09:57:18Z</time><name>PT1794</name></trkpt>
<trkpt lat="53.260269" lon="-1.983802"><ele>309</ele><time>2021-11-13T09:57:19Z</time><name>PT1795</name></trkpt>
<trkpt lat="53.260283" lon="-1.983793"><ele>310</ele><time>2021-11-13T09:57:20Z</time><name>PT1796</name></trkpt>
<trkpt lat="53.260285" lon="-1.983796"><ele>309</ele><time>2021-11-13T09:57:21Z</time><name>PT1797</name></trkpt>
<trkpt lat="53.260290" lon="-1.983798"><ele>308</ele><time>2021-11-13T09:57:22Z</time><name>PT1798</name></trkpt>
<trkpt lat="53.260307" lon="-1.983796"><ele>307</ele><time>2021-11-13T09:57:23Z</time><name>PT1799</name></trkpt>
<trkpt lat="53.260336" lon="-1.983801"><ele>308</ele><time>2021-11-13T09:57:24Z</time><name>PT1800</name></trkpt>
<trkpt lat="53.260352" lon="-1.983808"><ele>309</ele><time>2021-11-13T09:57:25Z</time><name>PT1801</name></trkpt>
<trkpt lat="53.260392" lon="-1.983809"><ele>311</ele><time>2021-11-13T09:57:26Z</time><name>PT1802</name></trkpt>
<trkpt lat="53.260405" lon="-1.983810"><ele>311</ele><time>2021-11-13T09:57:27Z</time><name>PT1803</name></trkpt>
<trkpt lat="53.260426" lon="-1.983812"><ele>311</ele><time>2021-11-13T09:57:28Z</time><name>PT1804</name></trkpt>
<trkpt lat="53.260440" lon="-1.983813"><ele>312</ele><time>2021-11-13T09:57:29Z</time><name>PT1805</name></trkpt>
<trkpt lat="53.260448" lon="-1.983811"><ele>311</ele><time>2021-11-13T09:57:30Z</time><name>PT1806</name></trkpt>
<trkpt lat="53.260455" lon="-1.983810"><ele>311</ele><time>2021-11-13T09:57:31Z</time><name>PT1807</name></trkpt>
<trkpt lat="53.260460" lon="-1.983809"><ele>311</ele><time>2021-11-13T09:57:32Z</time><name>PT1808</name></trkpt>
<trkpt lat="53.260495" lon="-1.983804"><ele>312</ele><time>2021-11-13T09:57:33Z</time><name>PT1809</name></trkpt>
<trkpt lat="53.260501" lon="-1.983805"><ele>310</ele><time>2021-11-13T09:57:34Z</time><name>PT1810</name></trkpt>
<trkpt lat="53.260513" lon="-1.983806"><ele>310</ele><time>2021-11-13T09:57:35Z</time><name>PT1811</name></trkpt>
<trkpt lat="53.260525" lon="-1.983807"><ele>309</ele><time>2021-11-13T09:57:36Z</time><name>PT1812</name></trkpt>
<trkpt lat="53.260535" lon="-1.983806"><ele>308</ele><time>2021-11-13T09:57:37Z</time><name>PT1813</name></trkpt>
<trkpt lat="53.260538" lon="-1.983810"><ele>307</ele><time>2021-11-13T09:57:38Z</time><name>PT1814</name></trkpt>
<trkpt lat="53.260559" lon="-1.983812"><ele>307</ele><time>2021-11-13T09:57:39Z</time><name>PT1815</name></trkpt>
<trkpt lat="53.260600" lon="-1.983816"><ele>308</ele><time>2021-11-13T09:57:42Z</time><name>PT1816</name></trkpt>
<trkpt lat="53.260651" lon="-1.983824"><ele>309</ele><time>2021-11-13T09:57:46Z</time><name>PT1817</name></trkpt>
<trkpt lat="53.260682" lon="-1.983812"><ele>309</ele><time>2021-11-13T09:57:50Z</time><name>PT1818</name></trkpt>
<trkpt lat="53.260713" lon="-1.983814"><ele>310</ele><time>2021-11-13T09:57:54Z</time><name>PT1819</name></trkpt>
<trkpt lat="53.260772" lon="-1.983808"><ele>315</ele><time>2021-11-13T09:57:58Z</time><name>PT1820</name></trkpt>
<trkpt lat="53.260823" lon="-1.983806"><ele>316</ele><time>2021-11-13T09:58:02Z</time><name>PT1821</name></trkpt>
<trkpt lat="53.260860" lon="-1.983813"><ele>314</ele><time>2021-11-13T09:58:06Z</time><name>PT1822</name></trkpt>
<trkpt lat="53.260915" lon="-1.983816"><ele>312</ele><time>2021-11-13T09:58:10Z</time><name>PT1823</name></trkpt>
<trkpt lat="53.260963" lon="-1.983830"><ele>313</ele><time>2021-11-13T09:58:14Z</time><name>PT1824</name></trkpt>
<trkpt lat="53.261014" lon="-1.983835"><ele>315</ele><time>2021-11-13T09:58:18Z</time><name>PT1825</name></trkpt>
<trkpt lat="53.261073" lon="-1.983848"><ele>316</ele><time>2021-11-13T09:58:22Z</time><name>PT1826</name></trkpt>
<trkpt lat="53.261156" lon="-1.983860"><ele>322</ele><time>2021-11-13T09:58:26Z</time><name>PT1827</name></trkpt>
<trkpt lat="53.261187" lon="-1.983880"><ele>323</ele><time>2021-11-13T09:58:30Z</time><name>PT1828</name></trkpt>
<trkpt lat="53.261243" lon="-1.983923"><ele>325</ele><time>2021-11-13T09:58:34Z</time><name>PT1829</name></trkpt>
<trkpt lat="53.261277" lon="-1.983953"><ele>325</ele><time>2021-11-13T09:58:38Z</time><name>PT1830</name></trkpt>
<trkpt lat="53.261309" lon="-1.983976"><ele>324</ele><time>2021-11-13T09:58:42Z</time><name>PT1831</name></trkpt>
<trkpt lat="53.261330" lon="-1.983990"><ele>328</ele><time>2021-11-13T09:58:46Z</time><name>PT1832</name></trkpt>
<trkpt lat="53.261373" lon="-1.984011"><ele>326</ele><time>2021-11-13T09:58:50Z</time><name>PT1833</name></trkpt>
<trkpt lat="53.261413" lon="-1.984059"><ele>321</ele><time>2021-11-13T09:58:54Z</time><name>PT1834</name></trkpt>
<trkpt lat="53.261431" lon="-1.984067"><ele>319</ele><time>2021-11-13T09:58:58Z</time><name>PT1835</name></trkpt>
<trkpt lat="53.261474" lon="-1.984071"><ele>319</ele><time>2021-11-13T09:59:02Z</time><name>PT1836</name></trkpt>
<trkpt lat="53.261519" lon="-1.984056"><ele>320</ele><time>2021-11-13T09:59:06Z</time><name>PT1837</name></trkpt>
<trkpt lat="53.261595" lon="-1.984014"><ele>320</ele><time>2021-11-13T09:59:10Z</time><name>PT1838</name></trkpt>
<trkpt lat="53.261640" lon="-1.983984"><ele>319</ele><time>2021-11-13T09:59:14Z</time><name>PT1839</name></trkpt>
<trkpt lat="53.261686" lon="-1.983956"><ele>319</ele><time>2021-11-13T09:59:18Z</time><name>PT1840</name></trkpt>
<trkpt lat="53.261708" lon="-1.983930"><ele>317</ele><time>2021-11-13T09:59:22Z</time><name>PT1841</name></trkpt>
<trkpt lat="53.261745" lon="-1.983907"><ele>317</ele><time>2021-11-13T09:59:26Z</time><name>PT1842</name></trkpt>
<trkpt lat="53.261792" lon="-1.983887"><ele>317</ele><time>2021-11-13T09:59:30Z</time><name>PT1843</name></trkpt>
<trkpt lat="53.261837" lon="-1.983894"><ele>316</ele><time>2021-11-13T09:59:34Z</time><name>PT1844</name></trkpt>
<trkpt lat="53.261859" lon="-1.983918"><ele>311</ele><time>2021-11-13T09:59:38Z</time><name>PT1845</name></trkpt>
<trkpt lat="53.261889" lon="-1.983918"><ele>310</ele><time>2021-11-13T09:59:42Z</time><name>PT1846</name></trkpt>
<trkpt lat="53.261951" lon="-1.983905"><ele>310</ele><time>2021-11-13T09:59:46Z</time><name>PT1847</name></trkpt>
<trkpt lat="53.262011" lon="-1.983914"><ele>308</ele><time>2021-11-13T09:59:50Z</time><name>PT1848</name></trkpt>
<trkpt lat="53.262057" lon="-1.983915"><ele>308</ele><time>2021-11-13T09:59:54Z</time><name>PT1849</name></trkpt>
<trkpt lat="53.262098" lon="-1.983910"><ele>308</ele><time>2021-11-13T09:59:58Z</time><name>PT1850</name></trkpt>
<trkpt lat="53.262145" lon="-1.983892"><ele>307</ele><time>2021-11-13T10:00:02Z</time><name>PT1851</name></trkpt>
<trkpt lat="53.262171" lon="-1.983895"><ele>307</ele><time>2021-11-13T10:00:06Z</time><name>PT1852</name></trkpt>
<trkpt lat="53.262193" lon="-1.983900"><ele>308</ele><time>2021-11-13T10:00:10Z</time><name>PT1853</name></trkpt>
<trkpt lat="53.262210" lon="-1.983908"><ele>305</ele><time>2021-11-13T10:00:14Z</time><name>PT1854</name></trkpt>
<trkpt lat="53.262281" lon="-1.983944"><ele>307</ele><time>2021-11-13T10:00:18Z</time><name>PT1855</name></trkpt>
<trkpt lat="53.262317" lon="-1.983977"><ele>305</ele><time>2021-11-13T10:00:22Z</time><name>PT1856</name></trkpt>
<trkpt lat="53.262347" lon="-1.984009"><ele>304</ele><time>2021-11-13T10:00:26Z</time><name>PT1857</name></trkpt>
<trkpt lat="53.262375" lon="-1.984039"><ele>305</ele><time>2021-11-13T10:00:30Z</time><name>PT1858</name></trkpt>
<trkpt lat="53.262425" lon="-1.984056"><ele>305</ele><time>2021-11-13T10:00:34Z</time><name>PT1859</name></trkpt>
<trkpt lat="53.262497" lon="-1.984104"><ele>308</ele><time>2021-11-13T10:00:38Z</time><name>PT1860</name></trkpt>
<trkpt lat="53.262515" lon="-1.984144"><ele>308</ele><time>2021-11-13T10:00:42Z</time><name>PT1861</name></trkpt>
<trkpt lat="53.262567" lon="-1.984174"><ele>308</ele><time>2021-11-13T10:00:46Z</time><name>PT1862</name></trkpt>
<trkpt lat="53.262641" lon="-1.984205"><ele>311</ele><time>2021-11-13T10:00:50Z</time><name>PT1863</name></trkpt>
<trkpt lat="53.262720" lon="-1.984235"><ele>313</ele><time>2021-11-13T10:00:54Z</time><name>PT1864</name></trkpt>
<trkpt lat="53.262805" lon="-1.984272"><ele>317</ele><time>2021-11-13T10:00:58Z</time><name>PT1865</name></trkpt>
<trkpt lat="53.262840" lon="-1.984310"><ele>315</ele><time>2021-11-13T10:01:02Z</time><name>PT1866</name></trkpt>
<trkpt lat="53.262887" lon="-1.984329"><ele>314</ele><time>2021-11-13T10:01:06Z</time><name>PT1867</name></trkpt>
<trkpt lat="53.262926" lon="-1.984372"><ele>312</ele><time>2021-11-13T10:01:10Z</time><name>PT1868</name></trkpt>
<trkpt lat="53.262981" lon="-1.984403"><ele>314</ele><time>2021-11-13T10:01:14Z</time><name>PT1869</name></trkpt>
<trkpt lat="53.263020" lon="-1.984436"><ele>313</ele><time>2021-11-13T10:01:18Z</time><name>PT1870</name></trkpt>
<trkpt lat="53.263078" lon="-1.984457"><ele>314</ele><time>2021-11-13T10:01:22Z</time><name>PT1871</name></trkpt>
<trkpt lat="53.263104" lon="-1.984476"><ele>315</ele><time>2021-11-13T10:01:24Z</time><name>PT1872</name></trkpt>
<trkpt lat="53.263126" lon="-1.984479"><ele>316</ele><time>2021-11-13T10:01:25Z</time><name>PT1873</name></trkpt>
<trkpt lat="53.263139" lon="-1.984497"><ele>316</ele><time>2021-11-13T10:01:26Z</time><name>PT1874</name></trkpt>
<trkpt lat="53.263147" lon="-1.984517"><ele>314</ele><time>2021-11-13T10:01:27Z</time><name>PT1875</name></trkpt>
<trkpt lat="53.263163" lon="-1.984535"><ele>314</ele><time>2021-11-13T10:01:28Z</time><name>PT1876</name></trkpt>
<trkpt lat="53.263170" lon="-1.984553"><ele>314</ele><time>2021-11-13T10:01:29Z</time><name>PT1877</name></trkpt>
<trkpt lat="53.263184" lon="-1.984562"><ele>313</ele><time>2021-11-13T10:01:30Z</time><name>PT1878</name></trkpt>
<trkpt lat="53.263197" lon="-1.984575"><ele>313</ele><time>2021-11-13T10:01:31Z</time><name>PT1879</name></trkpt>
<trkpt lat="53.263208" lon="-1.984590"><ele>313</ele><time>2021-11-13T10:01:32Z</time><name>PT1880</name></trkpt>
<trkpt lat="53.263219" lon="-1.984602"><ele>313</ele><time>2021-11-13T10:01:33Z</time><name>PT1881</name></trkpt>
<trkpt lat="53.263227" lon="-1.984615"><ele>313</ele><time>2021-11-13T10:01:34Z</time><name>PT1882</name></trkpt>
<trkpt lat="53.263241" lon="-1.984634"><ele>313</ele><time>2021-11-13T10:01:35Z</time><name>PT1883</name></trkpt>
<trkpt lat="53.263249" lon="-1.984647"><ele>314</ele><time>2021-11-13T10:01:36Z</time><name>PT1884</name></trkpt>
<trkpt lat="53.263255" lon="-1.984661"><ele>314</ele><time>2021-11-13T10:01:37Z</time><name>PT1885</name></trkpt>
<trkpt lat="53.263269" lon="-1.984675"><ele>315</ele><time>2021-11-13T10:01:38Z</time><name>PT1886</name></trkpt>
<trkpt lat="53.263284" lon="-1.984684"><ele>316</ele><time>2021-11-13T10:01:39Z</time><name>PT1887</name></trkpt>
<trkpt lat="53.263298" lon="-1.984699"><ele>316</ele><time>2021-11-13T10:01:40Z</time><name>PT1888</name></trkpt>
<trkpt lat="53.263313" lon="-1.984718"><ele>316</ele><time>2021-11-13T10:01:41Z</time><name>PT1889</name></trkpt>
<trkpt lat="53.263329" lon="-1.984737"><ele>316</ele><time>2021-11-13T10:01:42Z</time><name>PT1890</name></trkpt>
<trkpt lat="53.263337" lon="-1.984754"><ele>316</ele><time>2021-11-13T10:01:43Z</time><name>PT1891</name></trkpt>
<trkpt lat="53.263341" lon="-1.984768"><ele>315</ele><time>2021-11-13T10:01:44Z</time><name>PT1892</name></trkpt>
<trkpt lat="53.263345" lon="-1.984779"><ele>315</ele><time>2021-11-13T10:01:45Z</time><name>PT1893</name></trkpt>
<trkpt lat="53.263354" lon="-1.984785"><ele>316</ele><time>2021-11-13T10:01:46Z</time><name>PT1894</name></trkpt>
<trkpt lat="53.263361" lon="-1.984798"><ele>316</ele><time>2021-11-13T10:01:47Z</time><name>PT1895</name></trkpt>
<trkpt lat="53.263375" lon="-1.984802"><ele>317</ele><time>2021-11-13T10:01:48Z</time><name>PT1896</name></trkpt>
<trkpt lat="53.263396" lon="-1.984808"><ele>317</ele><time>2021-11-13T10:01:49Z</time><name>PT1897</name></trkpt>
<trkpt lat="53.263411" lon="-1.984820"><ele>318</ele><time>2021-11-13T10:01:50Z</time><name>PT1898</name></trkpt>
<trkpt lat="53.263423" lon="-1.984828"><ele>318</ele><time>2021-11-13T10:01:51Z</time><name>PT1899</name></trkpt>
<trkpt lat="53.263435" lon="-1.984844"><ele>319</ele><time>2021-11-13T10:01:52Z</time><name>PT1900</name></trkpt>
<trkpt lat="53.263441" lon="-1.984851"><ele>319</ele><time>2021-11-13T10:01:53Z</time><name>PT1901</name></trkpt>
<trkpt lat="53.263450" lon="-1.984862"><ele>319</ele><time>2021-11-13T10:01:54Z</time><name>PT1902</name></trkpt>
<trkpt lat="53.263464" lon="-1.984873"><ele>318</ele><time>2021-11-13T10:01:55Z</time><name>PT1903</name></trkpt>
<trkpt lat="53.263472" lon="-1.984885"><ele>318</ele><time>2021-11-13T10:01:56Z</time><name>PT1904</name></trkpt>
<trkpt lat="53.263483" lon="-1.984895"><ele>319</ele><time>2021-11-13T10:01:57Z</time><name>PT1905</name></trkpt>
<trkpt lat="53.263492" lon="-1.984912"><ele>320</ele><time>2021-11-13T10:01:58Z</time><name>PT1906</name></trkpt>
<trkpt lat="53.263502" lon="-1.984923"><ele>321</ele><time>2021-11-13T10:01:59Z</time><name>PT1907</name></trkpt>
<trkpt lat="53.263509" lon="-1.984927"><ele>321</ele><time>2021-11-13T10:02:00Z</time><name>PT1908</name></trkpt>
<trkpt lat="53.263522" lon="-1.984934"><ele>322</ele><time>2021-11-13T10:02:01Z</time><name>PT1909</name></trkpt>
<trkpt lat="53.263531" lon="-1.984944"><ele>322</ele><time>2021-11-13T10:02:02Z</time><name>PT1910</name></trkpt>
<trkpt lat="53.263550" lon="-1.984958"><ele>322</ele><time>2021-11-13T10:02:03Z</time><name>PT1911</name></trkpt>
<trkpt lat="53.263557" lon="-1.984969"><ele>322</ele><time>2021-11-13T10:02:04Z</time><name>PT1912</name></trkpt>
<trkpt lat="53.263564" lon="-1.984973"><ele>322</ele><time>2021-11-13T10:02:05Z</time><name>PT1913</name></trkpt>
<trkpt lat="53.263579" lon="-1.984976"><ele>324</ele><time>2021-11-13T10:02:06Z</time><name>PT1914</name></trkpt>
<trkpt lat="53.263584" lon="-1.985007"><ele>322</ele><time>2021-11-13T10:02:07Z</time><name>PT1915</name></trkpt>
<trkpt lat="53.263602" lon="-1.985016"><ele>322</ele><time>2021-11-13T10:02:08Z</time><name>PT1916</name></trkpt>
<trkpt lat="53.263607" lon="-1.985026"><ele>321</ele><time>2021-11-13T10:02:09Z</time><name>PT1917</name></trkpt>
<trkpt lat="53.263619" lon="-1.985041"><ele>321</ele><time>2021-11-13T10:02:10Z</time><name>PT1918</name></trkpt>
<trkpt lat="53.263626" lon="-1.985058"><ele>321</ele><time>2021-11-13T10:02:11Z</time><name>PT1919</name></trkpt>
<trkpt lat="53.263633" lon="-1.985070"><ele>321</ele><time>2021-11-13T10:02:12Z</time><name>PT1920</name></trkpt>
<trkpt lat="53.263638" lon="-1.985091"><ele>319</ele><time>2021-11-13T10:02:13Z</time><name>PT1921</name></trkpt>
<trkpt lat="53.263650" lon="-1.985105"><ele>319</ele><time>2021-11-13T10:02:14Z</time><name>PT1922</name></trkpt>
<trkpt lat="53.263673" lon="-1.985108"><ele>321</ele><time>2021-11-13T10:02:15Z</time><name>PT1923</name></trkpt>
<trkpt lat="53.263690" lon="-1.985125"><ele>319</ele><time>2021-11-13T10:02:16Z</time><name>PT1924</name></trkpt>
<trkpt lat="53.263690" lon="-1.985136"><ele>318</ele><time>2021-11-13T10:02:17Z</time><name>PT1925</name></trkpt>
<trkpt lat="53.263693" lon="-1.985141"><ele>317</ele><time>2021-11-13T10:02:18Z</time><name>PT1926</name></trkpt>
<trkpt lat="53.263697" lon="-1.985143"><ele>315</ele><time>2021-11-13T10:02:19Z</time><name>PT1927</name></trkpt>
<trkpt lat="53.263693" lon="-1.985143"><ele>315</ele><time>2021-11-13T10:02:20Z</time><name>PT1928</name></trkpt>
<trkpt lat="53.263698" lon="-1.985153"><ele>315</ele><time>2021-11-13T10:02:21Z</time><name>PT1929</name></trkpt>
<trkpt lat="53.263706" lon="-1.985164"><ele>316</ele><time>2021-11-13T10:02:22Z</time><name>PT1930</name></trkpt>
<trkpt lat="53.263712" lon="-1.985169"><ele>316</ele><time>2021-11-13T10:02:23Z</time><name>PT1931</name></trkpt>
<trkpt lat="53.263720" lon="-1.985182"><ele>316</ele><time>2021-11-13T10:02:24Z</time><name>PT1932</name></trkpt>
<trkpt lat="53.263728" lon="-1.985195"><ele>316</ele><time>2021-11-13T10:02:25Z</time><name>PT1933</name></trkpt>
<trkpt lat="53.263732" lon="-1.985203"><ele>315</ele><time>2021-11-13T10:02:26Z</time><name>PT1934</name></trkpt>
<trkpt lat="53.263735" lon="-1.985212"><ele>315</ele><time>2021-11-13T10:02:27Z</time><name>PT1935</name></trkpt>
<trkpt lat="53.263739" lon="-1.985222"><ele>314</ele><time>2021-11-13T10:02:28Z</time><name>PT1936</name></trkpt>
<trkpt lat="53.263744" lon="-1.985237"><ele>314</ele><time>2021-11-13T10:02:29Z</time><name>PT1937</name></trkpt>
<trkpt lat="53.263746" lon="-1.985252"><ele>313</ele><time>2021-11-13T10:02:30Z</time><name>PT1938</name></trkpt>
<trkpt lat="53.263758" lon="-1.985260"><ele>312</ele><time>2021-11-13T10:02:31Z</time><name>PT1939</name></trkpt>
<trkpt lat="53.263770" lon="-1.985266"><ele>312</ele><time>2021-11-13T10:02:32Z</time><name>PT1940</name></trkpt>
<trkpt lat="53.263781" lon="-1.985277"><ele>312</ele><time>2021-11-13T10:02:33Z</time><name>PT1941</name></trkpt>
<trkpt lat="53.263787" lon="-1.985288"><ele>312</ele><time>2021-11-13T10:02:34Z</time><name>PT1942</name></trkpt>
<trkpt lat="53.263796" lon="-1.985292"><ele>312</ele><time>2021-11-13T10:02:35Z</time><name>PT1943</name></trkpt>
<trkpt lat="53.263804" lon="-1.985297"><ele>312</ele><time>2021-11-13T10:02:36Z</time><name>PT1944</name></trkpt>
<trkpt lat="53.263810" lon="-1.985300"><ele>312</ele><time>2021-11-13T10:02:37Z</time><name>PT1945</name></trkpt>
<trkpt lat="53.263818" lon="-1.985301"><ele>312</ele><time>2021-11-13T10:02:38Z</time><name>PT1946</name></trkpt>
<trkpt lat="53.263824" lon="-1.985305"><ele>312</ele><time>2021-11-13T10:02:39Z</time><name>PT1947</name></trkpt>
<trkpt lat="53.263824" lon="-1.985313"><ele>311</ele><time>2021-11-13T10:02:40Z</time><name>PT1948</name></trkpt>
<trkpt lat="53.263832" lon="-1.985324"><ele>310</ele><time>2021-11-13T10:02:41Z</time><name>PT1949</name></trkpt>
<trkpt lat="53.263840" lon="-1.985333"><ele>311</ele><time>2021-11-13T10:02:42Z</time><name>PT1950</name></trkpt>
<trkpt lat="53.263850" lon="-1.985340"><ele>311</ele><time>2021-11-13T10:02:43Z</time><name>PT1951</name></trkpt>
<trkpt lat="53.263862" lon="-1.985351"><ele>311</ele><time>2021-11-13T10:02:44Z</time><name>PT1952</name></trkpt>
<trkpt lat="53.263892" lon="-1.985354"><ele>314</ele><time>2021-11-13T10:02:45Z</time><name>PT1953</name></trkpt>
<trkpt lat="53.263904" lon="-1.985368"><ele>316</ele><time>2021-11-13T10:02:46Z</time><name>PT1954</name></trkpt>
<trkpt lat="53.263909" lon="-1.985378"><ele>316</ele><time>2021-11-13T10:02:47Z</time><name>PT1955</name></trkpt>
<trkpt lat="53.263918" lon="-1.985387"><ele>316</ele><time>2021-11-13T10:02:48Z</time><name>PT1956</name></trkpt>
<trkpt lat="53.263923" lon="-1.985403"><ele>316</ele><time>2021-11-13T10:02:49Z</time><name>PT1957</name></trkpt>
<trkpt lat="53.263932" lon="-1.985414"><ele>315</ele><time>2021-11-13T10:02:50Z</time><name>PT1958</name></trkpt>
<trkpt lat="53.263932" lon="-1.985429"><ele>313</ele><time>2021-11-13T10:02:51Z</time><name>PT1959</name></trkpt>
<trkpt lat="53.263940" lon="-1.985436"><ele>313</ele><time>2021-11-13T10:02:52Z</time><name>PT1960</name></trkpt>
<trkpt lat="53.263942" lon="-1.985443"><ele>311</ele><time>2021-11-13T10:02:53Z</time><name>PT1961</name></trkpt>
<trkpt lat="53.263938" lon="-1.985454"><ele>309</ele><time>2021-11-13T10:02:54Z</time><name>PT1962</name></trkpt>
<trkpt lat="53.263951" lon="-1.985471"><ele>308</ele><time>2021-11-13T10:02:55Z</time><name>PT1963</name></trkpt>
<trkpt lat="53.263962" lon="-1.985479"><ele>308</ele><time>2021-11-13T10:02:56Z</time><name>PT1964</name></trkpt>
<trkpt lat="53.263969" lon="-1.985486"><ele>308</ele><time>2021-11-13T10:02:57Z</time><name>PT1965</name></trkpt>
<trkpt lat="53.263975" lon="-1.985491"><ele>308</ele><time>2021-11-13T10:02:58Z</time><name>PT1966</name></trkpt>
<trkpt lat="53.263984" lon="-1.985492"><ele>308</ele><time>2021-11-13T10:02:59Z</time><name>PT1967</name></trkpt>
<trkpt lat="53.263987" lon="-1.985494"><ele>307</ele><time>2021-11-13T10:03:00Z</time><name>PT1968</name></trkpt>
<trkpt lat="53.263997" lon="-1.985500"><ele>306</ele><time>2021-11-13T10:03:01Z</time><name>PT1969</name></trkpt>
<trkpt lat="53.264002" lon="-1.985506"><ele>306</ele><time>2021-11-13T10:03:02Z</time><name>PT1970</name></trkpt>
<trkpt lat="53.264005" lon="-1.985511"><ele>305</ele><time>2021-11-13T10:03:03Z</time><name>PT1971</name></trkpt>
<trkpt lat="53.264014" lon="-1.985522"><ele>305</ele><time>2021-11-13T10:03:04Z</time><name>PT1972</name></trkpt>
<trkpt lat="53.264003" lon="-1.985538"><ele>302</ele><time>2021-11-13T10:03:05Z</time><name>PT1973</name></trkpt>
<trkpt lat="53.264005" lon="-1.985548"><ele>301</ele><time>2021-11-13T10:03:06Z</time><name>PT1974</name></trkpt>
<trkpt lat="53.264020" lon="-1.985548"><ele>301</ele><time>2021-11-13T10:03:07Z</time><name>PT1975</name></trkpt>
<trkpt lat="53.264045" lon="-1.985551"><ele>302</ele><time>2021-11-13T10:03:08Z</time><name>PT1976</name></trkpt>
<trkpt lat="53.264050" lon="-1.985563"><ele>301</ele><time>2021-11-13T10:03:09Z</time><name>PT1977</name></trkpt>
<trkpt lat="53.264061" lon="-1.985569"><ele>301</ele><time>2021-11-13T10:03:10Z</time><name>PT1978</name></trkpt>
<trkpt lat="53.264065" lon="-1.985582"><ele>300</ele><time>2021-11-13T10:03:11Z</time><name>PT1979</name></trkpt>
<trkpt lat="53.264071" lon="-1.985600"><ele>299</ele><time>2021-11-13T10:03:12Z</time><name>PT1980</name></trkpt>
<trkpt lat="53.264085" lon="-1.985603"><ele>299</ele><time>2021-11-13T10:03:13Z</time><name>PT1981</name></trkpt>
<trkpt lat="53.264130" lon="-1.985598"><ele>301</ele><time>2021-11-13T10:03:14Z</time><name>PT1982</name></trkpt>
<trkpt lat="53.264141" lon="-1.985602"><ele>302</ele><time>2021-11-13T10:03:15Z</time><name>PT1983</name></trkpt>
<trkpt lat="53.264163" lon="-1.985600"><ele>302</ele><time>2021-11-13T10:03:16Z</time><name>PT1984</name></trkpt>
<trkpt lat="53.264181" lon="-1.985608"><ele>303</ele><time>2021-11-13T10:03:17Z</time><name>PT1985</name></trkpt>
<trkpt lat="53.264201" lon="-1.985627"><ele>302</ele><time>2021-11-13T10:03:18Z</time><name>PT1986</name></trkpt>
<trkpt lat="53.264217" lon="-1.985630"><ele>303</ele><time>2021-11-13T10:03:19Z</time><name>PT1987</name></trkpt>
<trkpt lat="53.264228" lon="-1.985641"><ele>302</ele><time>2021-11-13T10:03:20Z</time><name>PT1988</name></trkpt>
<trkpt lat="53.264239" lon="-1.985651"><ele>301</ele><time>2021-11-13T10:03:21Z</time><name>PT1989</name></trkpt>
<trkpt lat="53.264256" lon="-1.985655"><ele>302</ele><time>2021-11-13T10:03:22Z</time><name>PT1990</name></trkpt>
<trkpt lat="53.264262" lon="-1.985657"><ele>301</ele><time>2021-11-13T10:03:23Z</time><name>PT1991</name></trkpt>
<trkpt lat="53.264272" lon="-1.985659"><ele>301</ele><time>2021-11-13T10:03:24Z</time><name>PT1992</name></trkpt>
<trkpt lat="53.264300" lon="-1.985669"><ele>298</ele><time>2021-11-13T10:03:28Z</time><name>PT1993</name></trkpt>
<trkpt lat="53.264353" lon="-1.985662"><ele>298</ele><time>2021-11-13T10:03:32Z</time><name>PT1994</name></trkpt>
<trkpt lat="53.264425" lon="-1.985634"><ele>301</ele><time>2021-11-13T10:03:36Z</time><name>PT1995</name></trkpt>
<trkpt lat="53.264467" lon="-1.985624"><ele>300</ele><time>2021-11-13T10:03:40Z</time><name>PT1996</name></trkpt>
<trkpt lat="53.264555" lon="-1.985607"><ele>303</ele><time>2021-11-13T10:03:44Z</time><name>PT1997</name></trkpt>
<trkpt lat="53.264594" lon="-1.985611"><ele>302</ele><time>2021-11-13T10:03:48Z</time><name>PT1998</name></trkpt>
<trkpt lat="53.264633" lon="-1.985592"><ele>302</ele><time>2021-11-13T10:03:52Z</time><name>PT1999</name></trkpt>
<trkpt lat="53.264675" lon="-1.985574"><ele>301</ele><time>2021-11-13T10:03:56Z</time><name>PT2000</name></trkpt>
<trkpt lat="53.264720" lon="-1.985565"><ele>301</ele><time>2021-11-13T10:04:00Z</time><name>PT2001</name></trkpt>
<trkpt lat="53.264753" lon="-1.985546"><ele>301</ele><time>2021-11-13T10:04:04Z</time><name>PT2002</name></trkpt>
<trkpt lat="53.264802" lon="-1.985517"><ele>301</ele><time>2021-11-13T10:04:08Z</time><name>PT2003</name></trkpt>
<trkpt lat="53.264865" lon="-1.985509"><ele>300</ele><time>2021-11-13T10:04:12Z</time><name>PT2004</name></trkpt>
<trkpt lat="53.264925" lon="-1.985496"><ele>301</ele><time>2021-11-13T10:04:16Z</time><name>PT2005</name></trkpt>
<trkpt lat="53.264999" lon="-1.985499"><ele>302</ele><time>2021-11-13T10:04:20Z</time><name>PT2006</name></trkpt>
<trkpt lat="53.265090" lon="-1.985486"><ele>305</ele><time>2021-11-13T10:04:24Z</time><name>PT2007</name></trkpt>
<trkpt lat="53.265151" lon="-1.985468"><ele>305</ele><time>2021-11-13T10:04:28Z</time><name>PT2008</name></trkpt>
<trkpt lat="53.265210" lon="-1.985473"><ele>304</ele><time>2021-11-13T10:04:32Z</time><name>PT2009</name></trkpt>
<trkpt lat="53.265267" lon="-1.985467"><ele>304</ele><time>2021-11-13T10:04:36Z</time><name>PT2010</name></trkpt>
<trkpt lat="53.265325" lon="-1.985461"><ele>303</ele><time>2021-11-13T10:04:40Z</time><name>PT2011</name></trkpt>
<trkpt lat="53.265368" lon="-1.985427"><ele>301</ele><time>2021-11-13T10:04:44Z</time><name>PT2012</name></trkpt>
<trkpt lat="53.265410" lon="-1.985425"><ele>300</ele><time>2021-11-13T10:04:48Z</time><name>PT2013</name></trkpt>
<trkpt lat="53.265467" lon="-1.985407"><ele>299</ele><time>2021-11-13T10:04:52Z</time><name>PT2014</name></trkpt>
<trkpt lat="53.265508" lon="-1.985412"><ele>297</ele><time>2021-11-13T10:04:56Z</time><name>PT2015</name></trkpt>
<trkpt lat="53.265563" lon="-1.985384"><ele>297</ele><time>2021-11-13T10:05:00Z</time><name>PT2016</name></trkpt>
<trkpt lat="53.265595" lon="-1.985382"><ele>295</ele><time>2021-11-13T10:05:04Z</time><name>PT2017</name></trkpt>
<trkpt lat="53.265675" lon="-1.985333"><ele>297</ele><time>2021-11-13T10:05:08Z</time><name>PT2018</name></trkpt>
<trkpt lat="53.265734" lon="-1.985330"><ele>296</ele><time>2021-11-13T10:05:12Z</time><name>PT2019</name></trkpt>
<trkpt lat="53.265755" lon="-1.985337"><ele>297</ele><time>2021-11-13T10:05:14Z</time><name>PT2020</name></trkpt>
<trkpt lat="53.265753" lon="-1.985355"><ele>297</ele><time>2021-11-13T10:05:15Z</time><name>PT2021</name></trkpt>
<trkpt lat="53.265757" lon="-1.985353"><ele>297</ele><time>2021-11-13T10:05:16Z</time><name>PT2022</name></trkpt>
<trkpt lat="53.265780" lon="-1.985345"><ele>297</ele><time>2021-11-13T10:05:17Z</time><name>PT2023</name></trkpt>
<trkpt lat="53.265813" lon="-1.985335"><ele>299</ele><time>2021-11-13T10:05:18Z</time><name>PT2024</name></trkpt>
<trkpt lat="53.265834" lon="-1.985324"><ele>299</ele><time>2021-11-13T10:05:19Z</time><name>PT2025</name></trkpt>
<trkpt lat="53.265848" lon="-1.985320"><ele>299</ele><time>2021-11-13T10:05:20Z</time><name>PT2026</name></trkpt>
<trkpt lat="53.265869" lon="-1.985320"><ele>301</ele><time>2021-11-13T10:05:21Z</time><name>PT2027</name></trkpt>
<trkpt lat="53.265884" lon="-1.985302"><ele>301</ele><time>2021-11-13T10:05:22Z</time><name>PT2028</name></trkpt>
<trkpt lat="53.265923" lon="-1.985262"><ele>309</ele><time>2021-11-13T10:05:24Z</time><name>PT2029</name></trkpt>
<trkpt lat="53.265935" lon="-1.985252"><ele>308</ele><time>2021-11-13T10:05:25Z</time><name>PT2030</name></trkpt>
<trkpt lat="53.265949" lon="-1.985250"><ele>308</ele><time>2021-11-13T10:05:26Z</time><name>PT2031</name></trkpt>
<trkpt lat="53.265964" lon="-1.985247"><ele>309</ele><time>2021-11-13T10:05:27Z</time><name>PT2032</name></trkpt>
<trkpt lat="53.265976" lon="-1.985240"><ele>309</ele><time>2021-11-13T10:05:28Z</time><name>PT2033</name></trkpt>
<trkpt lat="53.265976" lon="-1.985235"><ele>307</ele><time>2021-11-13T10:05:29Z</time><name>PT2034</name></trkpt>
<trkpt lat="53.265982" lon="-1.985234"><ele>307</ele><time>2021-11-13T10:05:30Z</time><name>PT2035</name></trkpt>
<trkpt lat="53.265992" lon="-1.985229"><ele>306</ele><time>2021-11-13T10:05:31Z</time><name>PT2036</name></trkpt>
<trkpt lat="53.266002" lon="-1.985224"><ele>306</ele><time>2021-11-13T10:05:32Z</time><name>PT2037</name></trkpt>
<trkpt lat="53.266022" lon="-1.985229"><ele>306</ele><time>2021-11-13T10:05:33Z</time><name>PT2038</name></trkpt>
<trkpt lat="53.266035" lon="-1.985229"><ele>306</ele><time>2021-11-13T10:05:34Z</time><name>PT2039</name></trkpt>
<trkpt lat="53.266037" lon="-1.985223"><ele>305</ele><time>2021-11-13T10:05:35Z</time><name>PT2040</name></trkpt>
<trkpt lat="53.266042" lon="-1.985219"><ele>305</ele><time>2021-11-13T10:05:36Z</time><name>PT2041</name></trkpt>
<trkpt lat="53.266047" lon="-1.985213"><ele>304</ele><time>2021-11-13T10:05:37Z</time><name>PT2042</name></trkpt>
<trkpt lat="53.266067" lon="-1.985204"><ele>304</ele><time>2021-11-13T10:05:38Z</time><name>PT2043</name></trkpt>
<trkpt lat="53.266069" lon="-1.985208"><ele>302</ele><time>2021-11-13T10:05:39Z</time><name>PT2044</name></trkpt>
<trkpt lat="53.266078" lon="-1.985207"><ele>303</ele><time>2021-11-13T10:05:40Z</time><name>PT2045</name></trkpt>
<trkpt lat="53.266089" lon="-1.985202"><ele>303</ele><time>2021-11-13T10:05:41Z</time><name>PT2046</name></trkpt>
<trkpt lat="53.266112" lon="-1.985189"><ele>304</ele><time>2021-11-13T10:05:42Z</time><name>PT2047</name></trkpt>
<trkpt lat="53.266122" lon="-1.985183"><ele>304</ele><time>2021-11-13T10:05:43Z</time><name>PT2048</name></trkpt>
<trkpt lat="53.266124" lon="-1.985179"><ele>303</ele><time>2021-11-13T10:05:44Z</time><name>PT2049</name></trkpt>
<trkpt lat="53.266140" lon="-1.985174"><ele>303</ele><time>2021-11-13T10:05:45Z</time><name>PT2050</name></trkpt>
<trkpt lat="53.266152" lon="-1.985175"><ele>302</ele><time>2021-11-13T10:05:46Z</time><name>PT2051</name></trkpt>
<trkpt lat="53.266165" lon="-1.985168"><ele>301</ele><time>2021-11-13T10:05:47Z</time><name>PT2052</name></trkpt>
<trkpt lat="53.266189" lon="-1.985154"><ele>302</ele><time>2021-11-13T10:05:48Z</time><name>PT2053</name></trkpt>
<trkpt lat="53.266197" lon="-1.985155"><ele>302</ele><time>2021-11-13T10:05:49Z</time><name>PT2054</name></trkpt>
<trkpt lat="53.266213" lon="-1.985154"><ele>301</ele><time>2021-11-13T10:05:50Z</time><name>PT2055</name></trkpt>
<trkpt lat="53.266234" lon="-1.985154"><ele>302</ele><time>2021-11-13T10:05:51Z</time><name>PT2056</name></trkpt>
<trkpt lat="53.266247" lon="-1.985151"><ele>302</ele><time>2021-11-13T10:05:52Z</time><name>PT2057</name></trkpt>
<trkpt lat="53.266260" lon="-1.985142"><ele>302</ele><time>2021-11-13T10:05:53Z</time><name>PT2058</name></trkpt>
<trkpt lat="53.266271" lon="-1.985135"><ele>302</ele><time>2021-11-13T10:05:54Z</time><name>PT2059</name></trkpt>
<trkpt lat="53.266282" lon="-1.985134"><ele>302</ele><time>2021-11-13T10:05:55Z</time><name>PT2060</name></trkpt>
<trkpt lat="53.266288" lon="-1.985133"><ele>301</ele><time>2021-11-13T10:05:56Z</time><name>PT2061</name></trkpt>
<trkpt lat="53.266304" lon="-1.985129"><ele>301</ele><time>2021-11-13T10:05:57Z</time><name>PT2062</name></trkpt>
<trkpt lat="53.266317" lon="-1.985131"><ele>301</ele><time>2021-11-13T10:05:58Z</time><name>PT2063</name></trkpt>
<trkpt lat="53.266327" lon="-1.985126"><ele>301</ele><time>2021-11-13T10:05:59Z</time><name>PT2064</name></trkpt>
<trkpt lat="53.266333" lon="-1.985119"><ele>301</ele><time>2021-11-13T10:06:00Z</time><name>PT2065</name></trkpt>
<trkpt lat="53.266341" lon="-1.985103"><ele>300</ele><time>2021-11-13T10:06:01Z</time><name>PT2066</name></trkpt>
<trkpt lat="53.266342" lon="-1.985094"><ele>299</ele><time>2021-11-13T10:06:02Z</time><name>PT2067</name></trkpt>
<trkpt lat="53.266350" lon="-1.985092"><ele>299</ele><time>2021-11-13T10:06:03Z</time><name>PT2068</name></trkpt>
<trkpt lat="53.266349" lon="-1.985092"><ele>297</ele><time>2021-11-13T10:06:04Z</time><name>PT2069</name></trkpt>
<trkpt lat="53.266381" lon="-1.985092"><ele>298</ele><time>2021-11-13T10:06:05Z</time><name>PT2070</name></trkpt>
<trkpt lat="53.266395" lon="-1.985089"><ele>299</ele><time>2021-11-13T10:06:06Z</time><name>PT2071</name></trkpt>
<trkpt lat="53.266407" lon="-1.985088"><ele>299</ele><time>2021-11-13T10:06:07Z</time><name>PT2072</name></trkpt>
<trkpt lat="53.266421" lon="-1.985088"><ele>298</ele><time>2021-11-13T10:06:08Z</time><name>PT2073</name></trkpt>
<trkpt lat="53.266426" lon="-1.985086"><ele>298</ele><time>2021-11-13T10:06:09Z</time><name>PT2074</name></trkpt>
<trkpt lat="53.266439" lon="-1.985074"><ele>298</ele><time>2021-11-13T10:06:10Z</time><name>PT2075</name></trkpt>
<trkpt lat="53.266445" lon="-1.985072"><ele>298</ele><time>2021-11-13T10:06:11Z</time><name>PT2076</name></trkpt>
<trkpt lat="53.266478" lon="-1.985065"><ele>299</ele><time>2021-11-13T10:06:12Z</time><name>PT2077</name></trkpt>
<trkpt lat="53.266494" lon="-1.985063"><ele>299</ele><time>2021-11-13T10:06:13Z</time><name>PT2078</name></trkpt>
<trkpt lat="53.266501" lon="-1.985057"><ele>299</ele><time>2021-11-13T10:06:14Z</time><name>PT2079</name></trkpt>
<trkpt lat="53.266499" lon="-1.985054"><ele>298</ele><time>2021-11-13T10:06:15Z</time><name>PT2080</name></trkpt>
<trkpt lat="53.266508" lon="-1.985054"><ele>297</ele><time>2021-11-13T10:06:16Z</time><name>PT2081</name></trkpt>
<trkpt lat="53.266522" lon="-1.985048"><ele>297</ele><time>2021-11-13T10:06:17Z</time><name>PT2082</name></trkpt>
<trkpt lat="53.266525" lon="-1.985046"><ele>295</ele><time>2021-11-13T10:06:18Z</time><name>PT2083</name></trkpt>
<trkpt lat="53.266528" lon="-1.985048"><ele>293</ele><time>2021-11-13T10:06:19Z</time><name>PT2084</name></trkpt>
<trkpt lat="53.266532" lon="-1.985046"><ele>292</ele><time>2021-11-13T10:06:20Z</time><name>PT2085</name></trkpt>
<trkpt lat="53.266555" lon="-1.985034"><ele>292</ele><time>2021-11-13T10:06:21Z</time><name>PT2086</name></trkpt>
<trkpt lat="53.266581" lon="-1.985026"><ele>293</ele><time>2021-11-13T10:06:22Z</time><name>PT2087</name></trkpt>
<trkpt lat="53.266608" lon="-1.985024"><ele>294</ele><time>2021-11-13T10:06:23Z</time><name>PT2088</name></trkpt>
<trkpt lat="53.266602" lon="-1.985026"><ele>292</ele><time>2021-11-13T10:06:24Z</time><name>PT2089</name></trkpt>
<trkpt lat="53.266608" lon="-1.985012"><ele>292</ele><time>2021-11-13T10:06:25Z</time><name>PT2090</name></trkpt>
<trkpt lat="53.266619" lon="-1.985006"><ele>291</ele><time>2021-11-13T10:06:26Z</time><name>PT2091</name></trkpt>
<trkpt lat="53.266634" lon="-1.984997"><ele>291</ele><time>2021-11-13T10:06:27Z</time><name>PT2092</name></trkpt>
<trkpt lat="53.266645" lon="-1.984994"><ele>290</ele><time>2021-11-13T10:06:28Z</time><name>PT2093</name></trkpt>
<trkpt lat="53.266667" lon="-1.984995"><ele>290</ele><time>2021-11-13T10:06:29Z</time><name>PT2094</name></trkpt>
<trkpt lat="53.266700" lon="-1.984982"><ele>291</ele><time>2021-11-13T10:06:30Z</time><name>PT2095</name></trkpt>
<trkpt lat="53.266707" lon="-1.984976"><ele>291</ele><time>2021-11-13T10:06:31Z</time><name>PT2096</name></trkpt>
<trkpt lat="53.266705" lon="-1.984973"><ele>290</ele><time>2021-11-13T10:06:32Z</time><name>PT2097</name></trkpt>
<trkpt lat="53.266717" lon="-1.984965"><ele>290</ele><time>2021-11-13T10:06:33Z</time><name>PT2098</name></trkpt>
<trkpt lat="53.266736" lon="-1.984957"><ele>290</ele><time>2021-11-13T10:06:34Z</time><name>PT2099</name></trkpt>
<trkpt lat="53.266748" lon="-1.984959"><ele>290</ele><time>2021-11-13T10:06:35Z</time><name>PT2100</name></trkpt>
<trkpt lat="53.266766" lon="-1.984959"><ele>291</ele><time>2021-11-13T10:06:36Z</time><name>PT2101</name></trkpt>
<trkpt lat="53.266781" lon="-1.984959"><ele>291</ele><time>2021-11-13T10:06:37Z</time><name>PT2102</name></trkpt>
<trkpt lat="53.266792" lon="-1.984955"><ele>290</ele><time>2021-11-13T10:06:38Z</time><name>PT2103</name></trkpt>
<trkpt lat="53.266802" lon="-1.984955"><ele>288</ele><time>2021-11-13T10:06:39Z</time><name>PT2104</name></trkpt>
<trkpt lat="53.266812" lon="-1.984949"><ele>288</ele><time>2021-11-13T10:06:40Z</time><name>PT2105</name></trkpt>
<trkpt lat="53.266829" lon="-1.984921"><ele>289</ele><time>2021-11-13T10:06:41Z</time><name>PT2106</name></trkpt>
<trkpt lat="53.266849" lon="-1.984914"><ele>290</ele><time>2021-11-13T10:06:42Z</time><name>PT2107</name></trkpt>
<trkpt lat="53.266861" lon="-1.984907"><ele>290</ele><time>2021-11-13T10:06:43Z</time><name>PT2108</name></trkpt>
<trkpt lat="53.266872" lon="-1.984904"><ele>290</ele><time>2021-11-13T10:06:44Z</time><name>PT2109</name></trkpt>
<trkpt lat="53.266893" lon="-1.984897"><ele>290</ele><time>2021-11-13T10:06:45Z</time><name>PT2110</name></trkpt>
<trkpt lat="53.266912" lon="-1.984892"><ele>291</ele><time>2021-11-13T10:06:46Z</time><name>PT2111</name></trkpt>
<trkpt lat="53.266935" lon="-1.984887"><ele>291</ele><time>2021-11-13T10:06:47Z</time><name>PT2112</name></trkpt>
<trkpt lat="53.266952" lon="-1.984883"><ele>292</ele><time>2021-11-13T10:06:48Z</time><name>PT2113</name></trkpt>
<trkpt lat="53.266964" lon="-1.984875"><ele>291</ele><time>2021-11-13T10:06:49Z</time><name>PT2114</name></trkpt>
<trkpt lat="53.266972" lon="-1.984876"><ele>290</ele><time>2021-11-13T10:06:50Z</time><name>PT2115</name></trkpt>
<trkpt lat="53.266989" lon="-1.984853"><ele>291</ele><time>2021-11-13T10:06:51Z</time><name>PT2116</name></trkpt>
<trkpt lat="53.266997" lon="-1.984844"><ele>291</ele><time>2021-11-13T10:06:52Z</time><name>PT2117</name></trkpt>
<trkpt lat="53.267009" lon="-1.984840"><ele>291</ele><time>2021-11-13T10:06:53Z</time><name>PT2118</name></trkpt>
<trkpt lat="53.267023" lon="-1.984830"><ele>291</ele><time>2021-11-13T10:06:54Z</time><name>PT2119</name></trkpt>
<trkpt lat="53.267033" lon="-1.984829"><ele>290</ele><time>2021-11-13T10:06:55Z</time><name>PT2120</name></trkpt>
<trkpt lat="53.267052" lon="-1.984819"><ele>291</ele><time>2021-11-13T10:06:56Z</time><name>PT2121</name></trkpt>
<trkpt lat="53.267065" lon="-1.984805"><ele>291</ele><time>2021-11-13T10:06:57Z</time><name>PT2122</name></trkpt>
<trkpt lat="53.267077" lon="-1.984797"><ele>291</ele><time>2021-11-13T10:06:58Z</time><name>PT2123</name></trkpt>
<trkpt lat="53.267104" lon="-1.984778"><ele>292</ele><time>2021-11-13T10:06:59Z</time><name>PT2124</name></trkpt>
<trkpt lat="53.267117" lon="-1.984768"><ele>292</ele><time>2021-11-13T10:07:00Z</time><name>PT2125</name></trkpt>
<trkpt lat="53.267164" lon="-1.984762"><ele>295</ele><time>2021-11-13T10:07:01Z</time><name>PT2126</name></trkpt>
<trkpt lat="53.267185" lon="-1.984751"><ele>297</ele><time>2021-11-13T10:07:02Z</time><name>PT2127</name></trkpt>
<trkpt lat="53.267201" lon="-1.984746"><ele>297</ele><time>2021-11-13T10:07:03Z</time><name>PT2128</name></trkpt>
<trkpt lat="53.267210" lon="-1.984736"><ele>296</ele><time>2021-11-13T10:07:04Z</time><name>PT2129</name></trkpt>
<trkpt lat="53.267220" lon="-1.984723"><ele>297</ele><time>2021-11-13T10:07:05Z</time><name>PT2130</name></trkpt>
<trkpt lat="53.267236" lon="-1.984719"><ele>296</ele><time>2021-11-13T10:07:06Z</time><name>PT2131</name></trkpt>
<trkpt lat="53.267245" lon="-1.984715"><ele>295</ele><time>2021-11-13T10:07:07Z</time><name>PT2132</name></trkpt>
<trkpt lat="53.267256" lon="-1.984706"><ele>295</ele><time>2021-11-13T10:07:08Z</time><name>PT2133</name></trkpt>
<trkpt lat="53.267266" lon="-1.984703"><ele>294</ele><time>2021-11-13T10:07:09Z</time><name>PT2134</name></trkpt>
<trkpt lat="53.267287" lon="-1.984690"><ele>295</ele><time>2021-11-13T10:07:10Z</time><name>PT2135</name></trkpt>
<trkpt lat="53.267304" lon="-1.984682"><ele>296</ele><time>2021-11-13T10:07:11Z</time><name>PT2136</name></trkpt>
<trkpt lat="53.267312" lon="-1.984676"><ele>296</ele><time>2021-11-13T10:07:12Z</time><name>PT2137</name></trkpt>
<trkpt lat="53.267326" lon="-1.984667"><ele>297</ele><time>2021-11-13T10:07:13Z</time><name>PT2138</name></trkpt>
<trkpt lat="53.267376" lon="-1.984658"><ele>294</ele><time>2021-11-13T10:07:17Z</time><name>PT2139</name></trkpt>
<trkpt lat="53.267429" lon="-1.984652"><ele>295</ele><time>2021-11-13T10:07:21Z</time><name>PT2140</name></trkpt>
<trkpt lat="53.267473" lon="-1.984623"><ele>297</ele><time>2021-11-13T10:07:25Z</time><name>PT2141</name></trkpt>
<trkpt lat="53.267484" lon="-1.984617"><ele>297</ele><time>2021-11-13T10:07:29Z</time><name>PT2142</name></trkpt>
<trkpt lat="53.267505" lon="-1.984553"><ele>296</ele><time>2021-11-13T10:08:01Z</time><name>PT2143</name></trkpt>
<trkpt lat="53.267503" lon="-1.984546"><ele>295</ele><time>2021-11-13T10:08:33Z</time><name>PT2144</name></trkpt>
<trkpt lat="53.267508" lon="-1.984545"><ele>295</ele><time>2021-11-13T10:08:34Z</time><name>PT2145</name></trkpt>
<trkpt lat="53.267513" lon="-1.984543"><ele>295</ele><time>2021-11-13T10:08:35Z</time><name>PT2146</name></trkpt>
<trkpt lat="53.267514" lon="-1.984537"><ele>295</ele><time>2021-11-13T10:08:36Z</time><name>PT2147</name></trkpt>
<trkpt lat="53.267514" lon="-1.984546"><ele>295</ele><time>2021-11-13T10:08:37Z</time><name>PT2148</name></trkpt>
<trkpt lat="53.267519" lon="-1.984543"><ele>295</ele><time>2021-11-13T10:08:52Z</time><name>PT2149</name></trkpt>
<trkpt lat="53.267530" lon="-1.984534"><ele>295</ele><time>2021-11-13T10:08:53Z</time><name>PT2150</name></trkpt>
<trkpt lat="53.267536" lon="-1.984522"><ele>295</ele><time>2021-11-13T10:08:54Z</time><name>PT2151</name></trkpt>
<trkpt lat="53.267544" lon="-1.984510"><ele>295</ele><time>2021-11-13T10:08:55Z</time><name>PT2152</name></trkpt>
<trkpt lat="53.267552" lon="-1.984507"><ele>295</ele><time>2021-11-13T10:08:56Z</time><name>PT2153</name></trkpt>
<trkpt lat="53.267560" lon="-1.984503"><ele>295</ele><time>2021-11-13T10:08:57Z</time><name>PT2154</name></trkpt>
<trkpt lat="53.267572" lon="-1.984493"><ele>295</ele><time>2021-11-13T10:08:58Z</time><name>PT2155</name></trkpt>
<trkpt lat="53.267583" lon="-1.984483"><ele>295</ele><time>2021-11-13T10:08:59Z</time><name>PT2156</name></trkpt>
<trkpt lat="53.267594" lon="-1.984477"><ele>295</ele><time>2021-11-13T10:09:00Z</time><name>PT2157</name></trkpt>
<trkpt lat="53.267603" lon="-1.984465"><ele>295</ele><time>2021-11-13T10:09:01Z</time><name>PT2158</name></trkpt>
<trkpt lat="53.267614" lon="-1.984462"><ele>294</ele><time>2021-11-13T10:09:02Z</time><name>PT2159</name></trkpt>
<trkpt lat="53.267623" lon="-1.984449"><ele>294</ele><time>2021-11-13T10:09:03Z</time><name>PT2160</name></trkpt>
<trkpt lat="53.267629" lon="-1.984440"><ele>293</ele><time>2021-11-13T10:09:04Z</time><name>PT2161</name></trkpt>
<trkpt lat="53.267632" lon="-1.984439"><ele>292</ele><time>2021-11-13T10:09:05Z</time><name>PT2162</name></trkpt>
<trkpt lat="53.267636" lon="-1.984431"><ele>292</ele><time>2021-11-13T10:09:06Z</time><name>PT2163</name></trkpt>
<trkpt lat="53.267643" lon="-1.984425"><ele>291</ele><time>2021-11-13T10:09:07Z</time><name>PT2164</name></trkpt>
<trkpt lat="53.267650" lon="-1.984420"><ele>291</ele><time>2021-11-13T10:09:08Z</time><name>PT2165</name></trkpt>
<trkpt lat="53.267654" lon="-1.984418"><ele>291</ele><time>2021-11-13T10:09:09Z</time><name>PT2166</name></trkpt>
<trkpt lat="53.267663" lon="-1.984420"><ele>290</ele><time>2021-11-13T10:09:10Z</time><name>PT2167</name></trkpt>
<trkpt lat="53.267673" lon="-1.984419"><ele>290</ele><time>2021-11-13T10:09:11Z</time><name>PT2168</name></trkpt>
<trkpt lat="53.267678" lon="-1.984414"><ele>290</ele><time>2021-11-13T10:09:12Z</time><name>PT2169</name></trkpt>
<trkpt lat="53.267684" lon="-1.984405"><ele>289</ele><time>2021-11-13T10:09:13Z</time><name>PT2170</name></trkpt>
<trkpt lat="53.267694" lon="-1.984395"><ele>289</ele><time>2021-11-13T10:09:14Z</time><name>PT2171</name></trkpt>
<trkpt lat="53.267701" lon="-1.984387"><ele>289</ele><time>2021-11-13T10:09:15Z</time><name>PT2172</name></trkpt>
<trkpt lat="53.267713" lon="-1.984378"><ele>289</ele><time>2021-11-13T10:09:16Z</time><name>PT2173</name></trkpt>
<trkpt lat="53.267723" lon="-1.984360"><ele>288</ele><time>2021-11-13T10:09:17Z</time><name>PT2174</name></trkpt>
<trkpt lat="53.267729" lon="-1.984348"><ele>288</ele><time>2021-11-13T10:09:18Z</time><name>PT2175</name></trkpt>
<trkpt lat="53.267742" lon="-1.984341"><ele>287</ele><time>2021-11-13T10:09:19Z</time><name>PT2176</name></trkpt>
<trkpt lat="53.267751" lon="-1.984337"><ele>286</ele><time>2021-11-13T10:09:20Z</time><name>PT2177</name></trkpt>
<trkpt lat="53.267771" lon="-1.984341"><ele>286</ele><time>2021-11-13T10:09:21Z</time><name>PT2178</name></trkpt>
<trkpt lat="53.267787" lon="-1.984338"><ele>286</ele><time>2021-11-13T10:09:22Z</time><name>PT2179</name></trkpt>
<trkpt lat="53.267796" lon="-1.984323"><ele>286</ele><time>2021-11-13T10:09:23Z</time><name>PT2180</name></trkpt>
<trkpt lat="53.267795" lon="-1.984311"><ele>285</ele><time>2021-11-13T10:09:24Z</time><name>PT2181</name></trkpt>
<trkpt lat="53.267801" lon="-1.984308"><ele>285</ele><time>2021-11-13T10:09:25Z</time><name>PT2182</name></trkpt>
<trkpt lat="53.267815" lon="-1.984308"><ele>284</ele><time>2021-11-13T10:09:26Z</time><name>PT2183</name></trkpt>
<trkpt lat="53.267818" lon="-1.984292"><ele>285</ele><time>2021-11-13T10:09:27Z</time><name>PT2184</name></trkpt>
<trkpt lat="53.267836" lon="-1.984288"><ele>286</ele><time>2021-11-13T10:09:28Z</time><name>PT2185</name></trkpt>
<trkpt lat="53.267847" lon="-1.984281"><ele>286</ele><time>2021-11-13T10:09:29Z</time><name>PT2186</name></trkpt>
<trkpt lat="53.267856" lon="-1.984276"><ele>286</ele><time>2021-11-13T10:09:30Z</time><name>PT2187</name></trkpt>
<trkpt lat="53.267875" lon="-1.984264"><ele>287</ele><time>2021-11-13T10:09:31Z</time><name>PT2188</name></trkpt>
<trkpt lat="53.267890" lon="-1.984255"><ele>288</ele><time>2021-11-13T10:09:32Z</time><name>PT2189</name></trkpt>
<trkpt lat="53.267903" lon="-1.984249"><ele>289</ele><time>2021-11-13T10:09:33Z</time><name>PT2190</name></trkpt>
<trkpt lat="53.267918" lon="-1.984250"><ele>288</ele><time>2021-11-13T10:09:34Z</time><name>PT2191</name></trkpt>
<trkpt lat="53.267932" lon="-1.984239"><ele>288</ele><time>2021-11-13T10:09:35Z</time><name>PT2192</name></trkpt>
<trkpt lat="53.267939" lon="-1.984225"><ele>289</ele><time>2021-11-13T10:09:36Z</time><name>PT2193</name></trkpt>
<trkpt lat="53.267945" lon="-1.984216"><ele>289</ele><time>2021-11-13T10:09:37Z</time><name>PT2194</name></trkpt>
<trkpt lat="53.267954" lon="-1.984209"><ele>288</ele><time>2021-11-13T10:09:38Z</time><name>PT2195</name></trkpt>
<trkpt lat="53.267968" lon="-1.984200"><ele>288</ele><time>2021-11-13T10:09:39Z</time><name>PT2196</name></trkpt>
<trkpt lat="53.267974" lon="-1.984195"><ele>288</ele><time>2021-11-13T10:09:40Z</time><name>PT2197</name></trkpt>
<trkpt lat="53.267981" lon="-1.984185"><ele>287</ele><time>2021-11-13T10:09:41Z</time><name>PT2198</name></trkpt>
<trkpt lat="53.267988" lon="-1.984176"><ele>287</ele><time>2021-11-13T10:09:42Z</time><name>PT2199</name></trkpt>
<trkpt lat="53.267989" lon="-1.984172"><ele>286</ele><time>2021-11-13T10:09:43Z</time><name>PT2200</name></trkpt>
<trkpt lat="53.268003" lon="-1.984153"><ele>287</ele><time>2021-11-13T10:09:44Z</time><name>PT2201</name></trkpt>
<trkpt lat="53.268033" lon="-1.984142"><ele>289</ele><time>2021-11-13T10:09:45Z</time><name>PT2202</name></trkpt>
<trkpt lat="53.268044" lon="-1.984136"><ele>289</ele><time>2021-11-13T10:09:46Z</time><name>PT2203</name></trkpt>
<trkpt lat="53.268049" lon="-1.984128"><ele>288</ele><time>2021-11-13T10:09:47Z</time><name>PT2204</name></trkpt>
<trkpt lat="53.268056" lon="-1.984117"><ele>287</ele><time>2021-11-13T10:09:48Z</time><name>PT2205</name></trkpt>
<trkpt lat="53.268068" lon="-1.984110"><ele>287</ele><time>2021-11-13T10:09:49Z</time><name>PT2206</name></trkpt>
<trkpt lat="53.268071" lon="-1.984103"><ele>285</ele><time>2021-11-13T10:09:50Z</time><name>PT2207</name></trkpt>
<trkpt lat="53.268083" lon="-1.984090"><ele>285</ele><time>2021-11-13T10:09:51Z</time><name>PT2208</name></trkpt>
<trkpt lat="53.268094" lon="-1.984077"><ele>285</ele><time>2021-11-13T10:09:52Z</time><name>PT2209</name></trkpt>
<trkpt lat="53.268102" lon="-1.984075"><ele>284</ele><time>2021-11-13T10:09:53Z</time><name>PT2210</name></trkpt>
<trkpt lat="53.268106" lon="-1.984071"><ele>283</ele><time>2021-11-13T10:09:54Z</time><name>PT2211</name></trkpt>
<trkpt lat="53.268110" lon="-1.984064"><ele>283</ele><time>2021-11-13T10:09:55Z</time><name>PT2212</name></trkpt>
<trkpt lat="53.268121" lon="-1.984060"><ele>283</ele><time>2021-11-13T10:09:56Z</time><name>PT2213</name></trkpt>
<trkpt lat="53.268132" lon="-1.984051"><ele>283</ele><time>2021-11-13T10:09:57Z</time><name>PT2214</name></trkpt>
<trkpt lat="53.268148" lon="-1.984041"><ele>283</ele><time>2021-11-13T10:09:58Z</time><name>PT2215</name></trkpt>
<trkpt lat="53.268160" lon="-1.984036"><ele>283</ele><time>2021-11-13T10:09:59Z</time><name>PT2216</name></trkpt>
<trkpt lat="53.268168" lon="-1.984030"><ele>283</ele><time>2021-11-13T10:10:00Z</time><name>PT2217</name></trkpt>
<trkpt lat="53.268183" lon="-1.984026"><ele>283</ele><time>2021-11-13T10:10:01Z</time><name>PT2218</name></trkpt>
<trkpt lat="53.268198" lon="-1.984020"><ele>284</ele><time>2021-11-13T10:10:02Z</time><name>PT2219</name></trkpt>
<trkpt lat="53.268208" lon="-1.984011"><ele>283</ele><time>2021-11-13T10:10:03Z</time><name>PT2220</name></trkpt>
<trkpt lat="53.268223" lon="-1.984003"><ele>283</ele><time>2021-11-13T10:10:04Z</time><name>PT2221</name></trkpt>
<trkpt lat="53.268277" lon="-1.984011"><ele>284</ele><time>2021-11-13T10:10:05Z</time><name>PT2222</name></trkpt>
<trkpt lat="53.268293" lon="-1.984005"><ele>284</ele><time>2021-11-13T10:10:06Z</time><name>PT2223</name></trkpt>
<trkpt lat="53.268305" lon="-1.984008"><ele>283</ele><time>2021-11-13T10:10:07Z</time><name>PT2224</name></trkpt>
<trkpt lat="53.268319" lon="-1.984010"><ele>282</ele><time>2021-11-13T10:10:08Z</time><name>PT2225</name></trkpt>
<trkpt lat="53.268353" lon="-1.984011"><ele>282</ele><time>2021-11-13T10:10:09Z</time><name>PT2226</name></trkpt>
<trkpt lat="53.268363" lon="-1.984008"><ele>282</ele><time>2021-11-13T10:10:10Z</time><name>PT2227</name></trkpt>
<trkpt lat="53.268373" lon="-1.983997"><ele>282</ele><time>2021-11-13T10:10:11Z</time><name>PT2228</name></trkpt>
<trkpt lat="53.268384" lon="-1.983988"><ele>282</ele><time>2021-11-13T10:10:12Z</time><name>PT2229</name></trkpt>
<trkpt lat="53.268393" lon="-1.983973"><ele>283</ele><time>2021-11-13T10:10:13Z</time><name>PT2230</name></trkpt>
<trkpt lat="53.268398" lon="-1.983953"><ele>282</ele><time>2021-11-13T10:10:14Z</time><name>PT2231</name></trkpt>
<trkpt lat="53.268406" lon="-1.983942"><ele>282</ele><time>2021-11-13T10:10:15Z</time><name>PT2232</name></trkpt>
<trkpt lat="53.268414" lon="-1.983929"><ele>282</ele><time>2021-11-13T10:10:16Z</time><name>PT2233</name></trkpt>
<trkpt lat="53.268426" lon="-1.983919"><ele>282</ele><time>2021-11-13T10:10:17Z</time><name>PT2234</name></trkpt>
<trkpt lat="53.268440" lon="-1.983908"><ele>282</ele><time>2021-11-13T10:10:18Z</time><name>PT2235</name></trkpt>
<trkpt lat="53.268454" lon="-1.983886"><ele>282</ele><time>2021-11-13T10:10:19Z</time><name>PT2236</name></trkpt>
<trkpt lat="53.268464" lon="-1.983873"><ele>282</ele><time>2021-11-13T10:10:20Z</time><name>PT2237</name></trkpt>
<trkpt lat="53.268480" lon="-1.983863"><ele>282</ele><time>2021-11-13T10:10:21Z</time><name>PT2238</name></trkpt>
<trkpt lat="53.268493" lon="-1.983848"><ele>283</ele><time>2021-11-13T10:10:22Z</time><name>PT2239</name></trkpt>
<trkpt lat="53.268500" lon="-1.983831"><ele>282</ele><time>2021-11-13T10:10:23Z</time><name>PT2240</name></trkpt>
<trkpt lat="53.268511" lon="-1.983821"><ele>282</ele><time>2021-11-13T10:10:24Z</time><name>PT2241</name></trkpt>
<trkpt lat="53.268525" lon="-1.983812"><ele>282</ele><time>2021-11-13T10:10:25Z</time><name>PT2242</name></trkpt>
<trkpt lat="53.268540" lon="-1.983805"><ele>283</ele><time>2021-11-13T10:10:26Z</time><name>PT2243</name></trkpt>
<trkpt lat="53.268543" lon="-1.983796"><ele>283</ele><time>2021-11-13T10:10:27Z</time><name>PT2244</name></trkpt>
<trkpt lat="53.268558" lon="-1.983790"><ele>283</ele><time>2021-11-13T10:10:28Z</time><name>PT2245</name></trkpt>
<trkpt lat="53.268566" lon="-1.983795"><ele>283</ele><time>2021-11-13T10:10:29Z</time><name>PT2246</name></trkpt>
<trkpt lat="53.268573" lon="-1.983784"><ele>283</ele><time>2021-11-13T10:10:30Z</time><name>PT2247</name></trkpt>
<trkpt lat="53.268584" lon="-1.983773"><ele>283</ele><time>2021-11-13T10:10:31Z</time><name>PT2248</name></trkpt>
<trkpt lat="53.268596" lon="-1.983762"><ele>283</ele><time>2021-11-13T10:10:32Z</time><name>PT2249</name></trkpt>
<trkpt lat="53.268635" lon="-1.983734"><ele>284</ele><time>2021-11-13T10:10:35Z</time><name>PT2250</name></trkpt>
<trkpt lat="53.268658" lon="-1.983686"><ele>283</ele><time>2021-11-13T10:10:39Z</time><name>PT2251</name></trkpt>
<trkpt lat="53.268696" lon="-1.983627"><ele>284</ele><time>2021-11-13T10:10:43Z</time><name>PT2252</name></trkpt>
<trkpt lat="53.268728" lon="-1.983555"><ele>286</ele><time>2021-11-13T10:10:47Z</time><name>PT2253</name></trkpt>
<trkpt lat="53.268763" lon="-1.983513"><ele>286</ele><time>2021-11-13T10:10:51Z</time><name>PT2254</name></trkpt>
<trkpt lat="53.268807" lon="-1.983482"><ele>284</ele><time>2021-11-13T10:10:55Z</time><name>PT2255</name></trkpt>
<trkpt lat="53.268864" lon="-1.983436"><ele>285</ele><time>2021-11-13T10:10:59Z</time><name>PT2256</name></trkpt>
<trkpt lat="53.268912" lon="-1.983386"><ele>286</ele><time>2021-11-13T10:11:03Z</time><name>PT2257</name></trkpt>
<trkpt lat="53.268952" lon="-1.983356"><ele>284</ele><time>2021-11-13T10:11:07Z</time><name>PT2258</name></trkpt>
<trkpt lat="53.268985" lon="-1.983311"><ele>285</ele><time>2021-11-13T10:11:11Z</time><name>PT2259</name></trkpt>
<trkpt lat="53.269024" lon="-1.983276"><ele>285</ele><time>2021-11-13T10:11:15Z</time><name>PT2260</name></trkpt>
<trkpt lat="53.269074" lon="-1.983224"><ele>285</ele><time>2021-11-13T10:11:19Z</time><name>PT2261</name></trkpt>
<trkpt lat="53.269120" lon="-1.983194"><ele>286</ele><time>2021-11-13T10:11:23Z</time><name>PT2262</name></trkpt>
<trkpt lat="53.269147" lon="-1.983173"><ele>283</ele><time>2021-11-13T10:11:27Z</time><name>PT2263</name></trkpt>
<trkpt lat="53.269203" lon="-1.983146"><ele>283</ele><time>2021-11-13T10:11:31Z</time><name>PT2264</name></trkpt>
<trkpt lat="53.269246" lon="-1.983111"><ele>282</ele><time>2021-11-13T10:11:35Z</time><name>PT2265</name></trkpt>
<trkpt lat="53.269293" lon="-1.983071"><ele>283</ele><time>2021-11-13T10:11:39Z</time><name>PT2266</name></trkpt>
<trkpt lat="53.269338" lon="-1.983035"><ele>283</ele><time>2021-11-13T10:11:43Z</time><name>PT2267</name></trkpt>
<trkpt lat="53.269378" lon="-1.982989"><ele>284</ele><time>2021-11-13T10:11:47Z</time><name>PT2268</name></trkpt>
<trkpt lat="53.269423" lon="-1.982954"><ele>284</ele><time>2021-11-13T10:11:51Z</time><name>PT2269</name></trkpt>
<trkpt lat="53.269461" lon="-1.982898"><ele>283</ele><time>2021-11-13T10:11:55Z</time><name>PT2270</name></trkpt>
<trkpt lat="53.269510" lon="-1.982858"><ele>282</ele><time>2021-11-13T10:11:59Z</time><name>PT2271</name></trkpt>
<trkpt lat="53.269547" lon="-1.982817"><ele>281</ele><time>2021-11-13T10:12:03Z</time><name>PT2272</name></trkpt>
<trkpt lat="53.269595" lon="-1.982779"><ele>281</ele><time>2021-11-13T10:12:07Z</time><name>PT2273</name></trkpt>
<trkpt lat="53.269634" lon="-1.982735"><ele>280</ele><time>2021-11-13T10:12:11Z</time><name>PT2274</name></trkpt>
<trkpt lat="53.269679" lon="-1.982714"><ele>281</ele><time>2021-11-13T10:12:15Z</time><name>PT2275</name></trkpt>
<trkpt lat="53.269730" lon="-1.982688"><ele>281</ele><time>2021-11-13T10:12:19Z</time><name>PT2276</name></trkpt>
<trkpt lat="53.269778" lon="-1.982658"><ele>282</ele><time>2021-11-13T10:12:23Z</time><name>PT2277</name></trkpt>
<trkpt lat="53.269818" lon="-1.982633"><ele>282</ele><time>2021-11-13T10:12:27Z</time><name>PT2278</name></trkpt>
<trkpt lat="53.269871" lon="-1.982616"><ele>282</ele><time>2021-11-13T10:12:31Z</time><name>PT2279</name></trkpt>
<trkpt lat="53.269917" lon="-1.982595"><ele>283</ele><time>2021-11-13T10:12:35Z</time><name>PT2280</name></trkpt>
<trkpt lat="53.269976" lon="-1.982584"><ele>284</ele><time>2021-11-13T10:12:39Z</time><name>PT2281</name></trkpt>
<trkpt lat="53.270012" lon="-1.982586"><ele>283</ele><time>2021-11-13T10:12:43Z</time><name>PT2282</name></trkpt>
<trkpt lat="53.270063" lon="-1.982585"><ele>285</ele><time>2021-11-13T10:12:47Z</time><name>PT2283</name></trkpt>
<trkpt lat="53.270117" lon="-1.982598"><ele>285</ele><time>2021-11-13T10:12:51Z</time><name>PT2284</name></trkpt>
<trkpt lat="53.270164" lon="-1.982619"><ele>285</ele><time>2021-11-13T10:12:55Z</time><name>PT2285</name></trkpt>
<trkpt lat="53.270211" lon="-1.982634"><ele>284</ele><time>2021-11-13T10:12:59Z</time><name>PT2286</name></trkpt>
<trkpt lat="53.270266" lon="-1.982665"><ele>282</ele><time>2021-11-13T10:13:03Z</time><name>PT2287</name></trkpt>
<trkpt lat="53.270304" lon="-1.982696"><ele>281</ele><time>2021-11-13T10:13:07Z</time><name>PT2288</name></trkpt>
<trkpt lat="53.270340" lon="-1.982730"><ele>279</ele><time>2021-11-13T10:13:11Z</time><name>PT2289</name></trkpt>
<trkpt lat="53.270385" lon="-1.982764"><ele>280</ele><time>2021-11-13T10:13:15Z</time><name>PT2290</name></trkpt>
<trkpt lat="53.270419" lon="-1.982809"><ele>279</ele><time>2021-11-13T10:13:19Z</time><name>PT2291</name></trkpt>
<trkpt lat="53.270464" lon="-1.982852"><ele>280</ele><time>2021-11-13T10:13:23Z</time><name>PT2292</name></trkpt>
<trkpt lat="53.270517" lon="-1.982886"><ele>282</ele><time>2021-11-13T10:13:27Z</time><name>PT2293</name></trkpt>
<trkpt lat="53.270568" lon="-1.982954"><ele>284</ele><time>2021-11-13T10:13:31Z</time><name>PT2294</name></trkpt>
<trkpt lat="53.270593" lon="-1.983018"><ele>285</ele><time>2021-11-13T10:13:35Z</time><name>PT2295</name></trkpt>
<trkpt lat="53.270597" lon="-1.983094"><ele>285</ele><time>2021-11-13T10:13:39Z</time><name>PT2296</name></trkpt>
<trkpt lat="53.270612" lon="-1.983158"><ele>285</ele><time>2021-11-13T10:13:43Z</time><name>PT2297</name></trkpt>
<trkpt lat="53.270625" lon="-1.983230"><ele>284</ele><time>2021-11-13T10:13:47Z</time><name>PT2298</name></trkpt>
<trkpt lat="53.270630" lon="-1.983292"><ele>285</ele><time>2021-11-13T10:13:51Z</time><name>PT2299</name></trkpt>
<trkpt lat="53.270625" lon="-1.983335"><ele>284</ele><time>2021-11-13T10:13:55Z</time><name>PT2300</name></trkpt>
<trkpt lat="53.270615" lon="-1.983358"><ele>285</ele><time>2021-11-13T10:13:59Z</time><name>PT2301</name></trkpt>
<trkpt lat="53.270610" lon="-1.983404"><ele>286</ele><time>2021-11-13T10:14:03Z</time><name>PT2302</name></trkpt>
<trkpt lat="53.270617" lon="-1.983461"><ele>287</ele><time>2021-11-13T10:14:07Z</time><name>PT2303</name></trkpt>
<trkpt lat="53.270641" lon="-1.983532"><ele>288</ele><time>2021-11-13T10:14:11Z</time><name>PT2304</name></trkpt>
<trkpt lat="53.270654" lon="-1.983599"><ele>287</ele><time>2021-11-13T10:14:15Z</time><name>PT2305</name></trkpt>
<trkpt lat="53.270666" lon="-1.983663"><ele>289</ele><time>2021-11-13T10:14:19Z</time><name>PT2306</name></trkpt>
<trkpt lat="53.270671" lon="-1.983726"><ele>290</ele><time>2021-11-13T10:14:23Z</time><name>PT2307</name></trkpt>
<trkpt lat="53.270663" lon="-1.983791"><ele>292</ele><time>2021-11-13T10:14:27Z</time><name>PT2308</name></trkpt>
<trkpt lat="53.270655" lon="-1.983858"><ele>290</ele><time>2021-11-13T10:14:31Z</time><name>PT2309</name></trkpt>
<trkpt lat="53.270656" lon="-1.983924"><ele>290</ele><time>2021-11-13T10:14:35Z</time><name>PT2310</name></trkpt>
<trkpt lat="53.270658" lon="-1.984001"><ele>290</ele><time>2021-11-13T10:14:39Z</time><name>PT2311</name></trkpt>
<trkpt lat="53.270665" lon="-1.984082"><ele>290</ele><time>2021-11-13T10:14:43Z</time><name>PT2312</name></trkpt>
<trkpt lat="53.270674" lon="-1.984152"><ele>292</ele><time>2021-11-13T10:14:47Z</time><name>PT2313</name></trkpt>
<trkpt lat="53.270673" lon="-1.984212"><ele>292</ele><time>2021-11-13T10:14:51Z</time><name>PT2314</name></trkpt>
<trkpt lat="53.270683" lon="-1.984284"><ele>293</ele><time>2021-11-13T10:14:55Z</time><name>PT2315</name></trkpt>
<trkpt lat="53.270688" lon="-1.984347"><ele>294</ele><time>2021-11-13T10:14:59Z</time><name>PT2316</name></trkpt>
<trkpt lat="53.270697" lon="-1.984411"><ele>296</ele><time>2021-11-13T10:15:03Z</time><name>PT2317</name></trkpt>
<trkpt lat="53.270711" lon="-1.984477"><ele>296</ele><time>2021-11-13T10:15:07Z</time><name>PT2318</name></trkpt>
<trkpt lat="53.270721" lon="-1.984541"><ele>297</ele><time>2021-11-13T10:15:11Z</time><name>PT2319</name></trkpt>
<trkpt lat="53.270726" lon="-1.984601"><ele>297</ele><time>2021-11-13T10:15:15Z</time><name>PT2320</name></trkpt>
<trkpt lat="53.270726" lon="-1.984663"><ele>298</ele><time>2021-11-13T10:15:19Z</time><name>PT2321</name></trkpt>
<trkpt lat="53.270721" lon="-1.984728"><ele>297</ele><time>2021-11-13T10:15:23Z</time><name>PT2322</name></trkpt>
<trkpt lat="53.270722" lon="-1.984778"><ele>298</ele><time>2021-11-13T10:15:27Z</time><name>PT2323</name></trkpt>
<trkpt lat="53.270717" lon="-1.984843"><ele>299</ele><time>2021-11-13T10:15:31Z</time><name>PT2324</name></trkpt>
<trkpt lat="53.270703" lon="-1.984895"><ele>302</ele><time>2021-11-13T10:15:35Z</time><name>PT2325</name></trkpt>
<trkpt lat="53.270698" lon="-1.984944"><ele>302</ele><time>2021-11-13T10:15:39Z</time><name>PT2326</name></trkpt>
<trkpt lat="53.270691" lon="-1.985003"><ele>302</ele><time>2021-11-13T10:15:43Z</time><name>PT2327</name></trkpt>
<trkpt lat="53.270684" lon="-1.985025"><ele>302</ele><time>2021-11-13T10:15:45Z</time><name>PT2328</name></trkpt>
<trkpt lat="53.270682" lon="-1.985041"><ele>301</ele><time>2021-11-13T10:15:46Z</time><name>PT2329</name></trkpt>
<trkpt lat="53.270681" lon="-1.985058"><ele>302</ele><time>2021-11-13T10:15:47Z</time><name>PT2330</name></trkpt>
<trkpt lat="53.270684" lon="-1.985069"><ele>302</ele><time>2021-11-13T10:15:48Z</time><name>PT2331</name></trkpt>
<trkpt lat="53.270682" lon="-1.985084"><ele>302</ele><time>2021-11-13T10:15:49Z</time><name>PT2332</name></trkpt>
<trkpt lat="53.270683" lon="-1.985099"><ele>302</ele><time>2021-11-13T10:15:50Z</time><name>PT2333</name></trkpt>
<trkpt lat="53.270681" lon="-1.985112"><ele>302</ele><time>2021-11-13T10:15:51Z</time><name>PT2334</name></trkpt>
<trkpt lat="53.270679" lon="-1.985129"><ele>303</ele><time>2021-11-13T10:15:52Z</time><name>PT2335</name></trkpt>
<trkpt lat="53.270680" lon="-1.985146"><ele>302</ele><time>2021-11-13T10:15:53Z</time><name>PT2336</name></trkpt>
<trkpt lat="53.270679" lon="-1.985164"><ele>302</ele><time>2021-11-13T10:15:54Z</time><name>PT2337</name></trkpt>
<trkpt lat="53.270681" lon="-1.985180"><ele>304</ele><time>2021-11-13T10:15:55Z</time><name>PT2338</name></trkpt>
<trkpt lat="53.270683" lon="-1.985190"><ele>305</ele><time>2021-11-13T10:15:56Z</time><name>PT2339</name></trkpt>
<trkpt lat="53.270685" lon="-1.985203"><ele>305</ele><time>2021-11-13T10:15:57Z</time><name>PT2340</name></trkpt>
<trkpt lat="53.270684" lon="-1.985214"><ele>304</ele><time>2021-11-13T10:15:58Z</time><name>PT2341</name></trkpt>
<trkpt lat="53.270682" lon="-1.985222"><ele>305</ele><time>2021-11-13T10:15:59Z</time><name>PT2342</name></trkpt>
<trkpt lat="53.270680" lon="-1.985225"><ele>305</ele><time>2021-11-13T10:16:00Z</time><name>PT2343</name></trkpt>
<trkpt lat="53.270679" lon="-1.985230"><ele>305</ele><time>2021-11-13T10:16:01Z</time><name>PT2344</name></trkpt>
<trkpt lat="53.270681" lon="-1.985236"><ele>305</ele><time>2021-11-13T10:16:02Z</time><name>PT2345</name></trkpt>
<trkpt lat="53.270683" lon="-1.985242"><ele>305</ele><time>2021-11-13T10:16:03Z</time><name>PT2346</name></trkpt>
<trkpt lat="53.270683" lon="-1.985258"><ele>305</ele><time>2021-11-13T10:16:04Z</time><name>PT2347</name></trkpt>
<trkpt lat="53.270685" lon="-1.985274"><ele>305</ele><time>2021-11-13T10:16:05Z</time><name>PT2348</name></trkpt>
<trkpt lat="53.270686" lon="-1.985287"><ele>304</ele><time>2021-11-13T10:16:06Z</time><name>PT2349</name></trkpt>
<trkpt lat="53.270686" lon="-1.985304"><ele>304</ele><time>2021-11-13T10:16:07Z</time><name>PT2350</name></trkpt>
<trkpt lat="53.270681" lon="-1.985318"><ele>304</ele><time>2021-11-13T10:16:08Z</time><name>PT2351</name></trkpt>
<trkpt lat="53.270677" lon="-1.985326"><ele>304</ele><time>2021-11-13T10:16:09Z</time><name>PT2352</name></trkpt>
<trkpt lat="53.270676" lon="-1.985338"><ele>304</ele><time>2021-11-13T10:16:10Z</time><name>PT2353</name></trkpt>
<trkpt lat="53.270668" lon="-1.985346"><ele>304</ele><time>2021-11-13T10:16:11Z</time><name>PT2354</name></trkpt>
<trkpt lat="53.270665" lon="-1.985349"><ele>303</ele><time>2021-11-13T10:16:12Z</time><name>PT2355</name></trkpt>
<trkpt lat="53.270663" lon="-1.985359"><ele>303</ele><time>2021-11-13T10:16:13Z</time><name>PT2356</name></trkpt>
<trkpt lat="53.270662" lon="-1.985367"><ele>303</ele><time>2021-11-13T10:16:14Z</time><name>PT2357</name></trkpt>
<trkpt lat="53.270659" lon="-1.985377"><ele>303</ele><time>2021-11-13T10:16:15Z</time><name>PT2358</name></trkpt>
<trkpt lat="53.270660" lon="-1.985389"><ele>302</ele><time>2021-11-13T10:16:16Z</time><name>PT2359</name></trkpt>
<trkpt lat="53.270661" lon="-1.985399"><ele>303</ele><time>2021-11-13T10:16:17Z</time><name>PT2360</name></trkpt>
<trkpt lat="53.270657" lon="-1.985415"><ele>305</ele><time>2021-11-13T10:16:18Z</time><name>PT2361</name></trkpt>
<trkpt lat="53.270656" lon="-1.985428"><ele>305</ele><time>2021-11-13T10:16:19Z</time><name>PT2362</name></trkpt>
<trkpt lat="53.270656" lon="-1.985439"><ele>305</ele><time>2021-11-13T10:16:20Z</time><name>PT2363</name></trkpt>
<trkpt lat="53.270654" lon="-1.985448"><ele>305</ele><time>2021-11-13T10:16:21Z</time><name>PT2364</name></trkpt>
<trkpt lat="53.270654" lon="-1.985456"><ele>304</ele><time>2021-11-13T10:16:22Z</time><name>PT2365</name></trkpt>
<trkpt lat="53.270652" lon="-1.985468"><ele>304</ele><time>2021-11-13T10:16:23Z</time><name>PT2366</name></trkpt>
<trkpt lat="53.270649" lon="-1.985478"><ele>305</ele><time>2021-11-13T10:16:24Z</time><name>PT2367</name></trkpt>
<trkpt lat="53.270646" lon="-1.985484"><ele>305</ele><time>2021-11-13T10:16:25Z</time><name>PT2368</name></trkpt>
<trkpt lat="53.270646" lon="-1.985496"><ele>304</ele><time>2021-11-13T10:16:26Z</time><name>PT2369</name></trkpt>
<trkpt lat="53.270644" lon="-1.985507"><ele>304</ele><time>2021-11-13T10:16:27Z</time><name>PT2370</name></trkpt>
<trkpt lat="53.270641" lon="-1.985520"><ele>304</ele><time>2021-11-13T10:16:28Z</time><name>PT2371</name></trkpt>
<trkpt lat="53.270643" lon="-1.985537"><ele>303</ele><time>2021-11-13T10:16:29Z</time><name>PT2372</name></trkpt>
<trkpt lat="53.270641" lon="-1.985552"><ele>302</ele><time>2021-11-13T10:16:30Z</time><name>PT2373</name></trkpt>
<trkpt lat="53.270642" lon="-1.985572"><ele>303</ele><time>2021-11-13T10:16:31Z</time><name>PT2374</name></trkpt>
<trkpt lat="53.270642" lon="-1.985584"><ele>304</ele><time>2021-11-13T10:16:32Z</time><name>PT2375</name></trkpt>
<trkpt lat="53.270644" lon="-1.985591"><ele>304</ele><time>2021-11-13T10:16:33Z</time><name>PT2376</name></trkpt>
<trkpt lat="53.270645" lon="-1.985603"><ele>303</ele><time>2021-11-13T10:16:34Z</time><name>PT2377</name></trkpt>
<trkpt lat="53.270644" lon="-1.985630"><ele>303</ele><time>2021-11-13T10:16:35Z</time><name>PT2378</name></trkpt>
<trkpt lat="53.270644" lon="-1.985645"><ele>302</ele><time>2021-11-13T10:16:36Z</time><name>PT2379</name></trkpt>
<trkpt lat="53.270642" lon="-1.985657"><ele>302</ele><time>2021-11-13T10:16:37Z</time><name>PT2380</name></trkpt>
<trkpt lat="53.270646" lon="-1.985670"><ele>302</ele><time>2021-11-13T10:16:38Z</time><name>PT2381</name></trkpt>
<trkpt lat="53.270647" lon="-1.985681"><ele>302</ele><time>2021-11-13T10:16:39Z</time><name>PT2382</name></trkpt>
<trkpt lat="53.270652" lon="-1.985709"><ele>302</ele><time>2021-11-13T10:16:40Z</time><name>PT2383</name></trkpt>
<trkpt lat="53.270652" lon="-1.985734"><ele>303</ele><time>2021-11-13T10:16:41Z</time><name>PT2384</name></trkpt>
<trkpt lat="53.270649" lon="-1.985747"><ele>304</ele><time>2021-11-13T10:16:42Z</time><name>PT2385</name></trkpt>
<trkpt lat="53.270646" lon="-1.985771"><ele>305</ele><time>2021-11-13T10:16:43Z</time><name>PT2386</name></trkpt>
<trkpt lat="53.270648" lon="-1.985784"><ele>305</ele><time>2021-11-13T10:16:44Z</time><name>PT2387</name></trkpt>
<trkpt lat="53.270643" lon="-1.985822"><ele>306</ele><time>2021-11-13T10:16:45Z</time><name>PT2388</name></trkpt>
<trkpt lat="53.270641" lon="-1.985847"><ele>306</ele><time>2021-11-13T10:16:46Z</time><name>PT2389</name></trkpt>
<trkpt lat="53.270636" lon="-1.985871"><ele>307</ele><time>2021-11-13T10:16:47Z</time><name>PT2390</name></trkpt>
<trkpt lat="53.270634" lon="-1.985896"><ele>307</ele><time>2021-11-13T10:16:48Z</time><name>PT2391</name></trkpt>
<trkpt lat="53.270634" lon="-1.985922"><ele>306</ele><time>2021-11-13T10:16:49Z</time><name>PT2392</name></trkpt>
<trkpt lat="53.270630" lon="-1.985943"><ele>306</ele><time>2021-11-13T10:16:50Z</time><name>PT2393</name></trkpt>
<trkpt lat="53.270626" lon="-1.985956"><ele>306</ele><time>2021-11-13T10:16:51Z</time><name>PT2394</name></trkpt>
<trkpt lat="53.270626" lon="-1.985974"><ele>304</ele><time>2021-11-13T10:16:52Z</time><name>PT2395</name></trkpt>
<trkpt lat="53.270627" lon="-1.985995"><ele>303</ele><time>2021-11-13T10:16:53Z</time><name>PT2396</name></trkpt>
<trkpt lat="53.270627" lon="-1.986002"><ele>303</ele><time>2021-11-13T10:16:54Z</time><name>PT2397</name></trkpt>
<trkpt lat="53.270622" lon="-1.986037"><ele>303</ele><time>2021-11-13T10:16:55Z</time><name>PT2398</name></trkpt>
<trkpt lat="53.270622" lon="-1.986051"><ele>302</ele><time>2021-11-13T10:16:56Z</time><name>PT2399</name></trkpt>
<trkpt lat="53.270621" lon="-1.986060"><ele>301</ele><time>2021-11-13T10:16:57Z</time><name>PT2400</name></trkpt>
<trkpt lat="53.270623" lon="-1.986075"><ele>300</ele><time>2021-11-13T10:16:58Z</time><name>PT2401</name></trkpt>
<trkpt lat="53.270623" lon="-1.986080"><ele>299</ele><time>2021-11-13T10:16:59Z</time><name>PT2402</name></trkpt>
<trkpt lat="53.270622" lon="-1.986106"><ele>300</ele><time>2021-11-13T10:17:00Z</time><name>PT2403</name></trkpt>
<trkpt lat="53.270622" lon="-1.986127"><ele>299</ele><time>2021-11-13T10:17:01Z</time><name>PT2404</name></trkpt>
<trkpt lat="53.270620" lon="-1.986152"><ele>299</ele><time>2021-11-13T10:17:02Z</time><name>PT2405</name></trkpt>
<trkpt lat="53.270624" lon="-1.986172"><ele>298</ele><time>2021-11-13T10:17:03Z</time><name>PT2406</name></trkpt>
<trkpt lat="53.270621" lon="-1.986188"><ele>297</ele><time>2021-11-13T10:17:04Z</time><name>PT2407</name></trkpt>
<trkpt lat="53.270608" lon="-1.986223"><ele>298</ele><time>2021-11-13T10:17:05Z</time><name>PT2408</name></trkpt>
<trkpt lat="53.270602" lon="-1.986243"><ele>298</ele><time>2021-11-13T10:17:06Z</time><name>PT2409</name></trkpt>
<trkpt lat="53.270597" lon="-1.986273"><ele>299</ele><time>2021-11-13T10:17:07Z</time><name>PT2410</name></trkpt>
<trkpt lat="53.270596" lon="-1.986291"><ele>300</ele><time>2021-11-13T10:17:08Z</time><name>PT2411</name></trkpt>
<trkpt lat="53.270596" lon="-1.986301"><ele>300</ele><time>2021-11-13T10:17:09Z</time><name>PT2412</name></trkpt>
<trkpt lat="53.270602" lon="-1.986364"><ele>299</ele><time>2021-11-13T10:17:11Z</time><name>PT2413</name></trkpt>
<trkpt lat="53.270600" lon="-1.986437"><ele>297</ele><time>2021-11-13T10:17:12Z</time><name>PT2414</name></trkpt>
<trkpt lat="53.270597" lon="-1.986461"><ele>298</ele><time>2021-11-13T10:17:13Z</time><name>PT2415</name></trkpt>
<trkpt lat="53.270601" lon="-1.986470"><ele>297</ele><time>2021-11-13T10:17:14Z</time><name>PT2416</name></trkpt>
<trkpt lat="53.270593" lon="-1.986476"><ele>298</ele><time>2021-11-13T10:17:15Z</time><name>PT2417</name></trkpt>
<trkpt lat="53.270594" lon="-1.986485"><ele>298</ele><time>2021-11-13T10:17:16Z</time><name>PT2418</name></trkpt>
<trkpt lat="53.270586" lon="-1.986504"><ele>298</ele><time>2021-11-13T10:17:17Z</time><name>PT2419</name></trkpt>
<trkpt lat="53.270575" lon="-1.986509"><ele>299</ele><time>2021-11-13T10:17:18Z</time><name>PT2420</name></trkpt>
<trkpt lat="53.270576" lon="-1.986515"><ele>299</ele><time>2021-11-13T10:17:19Z</time><name>PT2421</name></trkpt>
<trkpt lat="53.270575" lon="-1.986523"><ele>299</ele><time>2021-11-13T10:17:20Z</time><name>PT2422</name></trkpt>
<trkpt lat="53.270573" lon="-1.986529"><ele>300</ele><time>2021-11-13T10:17:21Z</time><name>PT2423</name></trkpt>
<trkpt lat="53.270565" lon="-1.986533"><ele>300</ele><time>2021-11-13T10:17:25Z</time><name>PT2424</name></trkpt>
<trkpt lat="53.270559" lon="-1.986548"><ele>300</ele><time>2021-11-13T10:17:26Z</time><name>PT2425</name></trkpt>
<trkpt lat="53.270556" lon="-1.986559"><ele>299</ele><time>2021-11-13T10:17:27Z</time><name>PT2426</name></trkpt>
<trkpt lat="53.270555" lon="-1.986573"><ele>299</ele><time>2021-11-13T10:17:28Z</time><name>PT2427</name></trkpt>
<trkpt lat="53.270554" lon="-1.986596"><ele>299</ele><time>2021-11-13T10:17:29Z</time><name>PT2428</name></trkpt>
<trkpt lat="53.270558" lon="-1.986622"><ele>299</ele><time>2021-11-13T10:17:30Z</time><name>PT2429</name></trkpt>
<trkpt lat="53.270544" lon="-1.986624"><ele>299</ele><time>2021-11-13T10:17:31Z</time><name>PT2430</name></trkpt>
<trkpt lat="53.270535" lon="-1.986634"><ele>298</ele><time>2021-11-13T10:17:32Z</time><name>PT2431</name></trkpt>
<trkpt lat="53.270535" lon="-1.986639"><ele>298</ele><time>2021-11-13T10:17:33Z</time><name>PT2432</name></trkpt>
<trkpt lat="53.270534" lon="-1.986643"><ele>298</ele><time>2021-11-13T10:17:34Z</time><name>PT2433</name></trkpt>
<trkpt lat="53.270533" lon="-1.986649"><ele>298</ele><time>2021-11-13T10:17:35Z</time><name>PT2434</name></trkpt>
<trkpt lat="53.270516" lon="-1.986652"><ele>298</ele><time>2021-11-13T10:17:36Z</time><name>PT2435</name></trkpt>
<trkpt lat="53.270515" lon="-1.986662"><ele>298</ele><time>2021-11-13T10:17:37Z</time><name>PT2436</name></trkpt>
<trkpt lat="53.270516" lon="-1.986677"><ele>297</ele><time>2021-11-13T10:17:38Z</time><name>PT2437</name></trkpt>
<trkpt lat="53.270514" lon="-1.986692"><ele>297</ele><time>2021-11-13T10:17:39Z</time><name>PT2438</name></trkpt>
<trkpt lat="53.270510" lon="-1.986704"><ele>297</ele><time>2021-11-13T10:17:40Z</time><name>PT2439</name></trkpt>
<trkpt lat="53.270507" lon="-1.986711"><ele>297</ele><time>2021-11-13T10:17:41Z</time><name>PT2440</name></trkpt>
<trkpt lat="53.270504" lon="-1.986715"><ele>297</ele><time>2021-11-13T10:17:42Z</time><name>PT2441</name></trkpt>
<trkpt lat="53.270505" lon="-1.986722"><ele>297</ele><time>2021-11-13T10:17:43Z</time><name>PT2442</name></trkpt>
<trkpt lat="53.270497" lon="-1.986752"><ele>297</ele><time>2021-11-13T10:17:46Z</time><name>PT2443</name></trkpt>
<trkpt lat="53.270496" lon="-1.986759"><ele>296</ele><time>2021-11-13T10:17:47Z</time><name>PT2444</name></trkpt>
<trkpt lat="53.270497" lon="-1.986766"><ele>296</ele><time>2021-11-13T10:17:48Z</time><name>PT2445</name></trkpt>
<trkpt lat="53.270494" lon="-1.986778"><ele>295</ele><time>2021-11-13T10:17:49Z</time><name>PT2446</name></trkpt>
<trkpt lat="53.270489" lon="-1.986794"><ele>297</ele><time>2021-11-13T10:17:50Z</time><name>PT2447</name></trkpt>
<trkpt lat="53.270479" lon="-1.986812"><ele>297</ele><time>2021-11-13T10:17:51Z</time><name>PT2448</name></trkpt>
<trkpt lat="53.270481" lon="-1.986832"><ele>297</ele><time>2021-11-13T10:17:52Z</time><name>PT2449</name></trkpt>
<trkpt lat="53.270478" lon="-1.986849"><ele>297</ele><time>2021-11-13T10:17:53Z</time><name>PT2450</name></trkpt>
<trkpt lat="53.270473" lon="-1.986861"><ele>297</ele><time>2021-11-13T10:17:54Z</time><name>PT2451</name></trkpt>
<trkpt lat="53.270473" lon="-1.986873"><ele>297</ele><time>2021-11-13T10:17:55Z</time><name>PT2452</name></trkpt>
<trkpt lat="53.270475" lon="-1.986891"><ele>297</ele><time>2021-11-13T10:17:56Z</time><name>PT2453</name></trkpt>
<trkpt lat="53.270474" lon="-1.986904"><ele>296</ele><time>2021-11-13T10:17:57Z</time><name>PT2454</name></trkpt>
<trkpt lat="53.270476" lon="-1.986917"><ele>297</ele><time>2021-11-13T10:17:58Z</time><name>PT2455</name></trkpt>
<trkpt lat="53.270478" lon="-1.986924"><ele>297</ele><time>2021-11-13T10:17:59Z</time><name>PT2456</name></trkpt>
<trkpt lat="53.270493" lon="-1.986933"><ele>297</ele><time>2021-11-13T10:18:00Z</time><name>PT2457</name></trkpt>
<trkpt lat="53.270495" lon="-1.986940"><ele>298</ele><time>2021-11-13T10:18:01Z</time><name>PT2458</name></trkpt>
<trkpt lat="53.270496" lon="-1.986950"><ele>299</ele><time>2021-11-13T10:18:02Z</time><name>PT2459</name></trkpt>
<trkpt lat="53.270494" lon="-1.986961"><ele>299</ele><time>2021-11-13T10:18:03Z</time><name>PT2460</name></trkpt>
<trkpt lat="53.270492" lon="-1.986972"><ele>299</ele><time>2021-11-13T10:18:04Z</time><name>PT2461</name></trkpt>
<trkpt lat="53.270489" lon="-1.986982"><ele>299</ele><time>2021-11-13T10:18:05Z</time><name>PT2462</name></trkpt>
<trkpt lat="53.270483" lon="-1.986991"><ele>299</ele><time>2021-11-13T10:18:06Z</time><name>PT2463</name></trkpt>
<trkpt lat="53.270476" lon="-1.987000"><ele>299</ele><time>2021-11-13T10:18:07Z</time><name>PT2464</name></trkpt>
<trkpt lat="53.270472" lon="-1.987015"><ele>299</ele><time>2021-11-13T10:18:08Z</time><name>PT2465</name></trkpt>
<trkpt lat="53.270467" lon="-1.987025"><ele>298</ele><time>2021-11-13T10:18:09Z</time><name>PT2466</name></trkpt>
<trkpt lat="53.270467" lon="-1.987040"><ele>300</ele><time>2021-11-13T10:18:10Z</time><name>PT2467</name></trkpt>
<trkpt lat="53.270463" lon="-1.987059"><ele>300</ele><time>2021-11-13T10:18:11Z</time><name>PT2468</name></trkpt>
<trkpt lat="53.270464" lon="-1.987073"><ele>300</ele><time>2021-11-13T10:18:12Z</time><name>PT2469</name></trkpt>
<trkpt lat="53.270467" lon="-1.987087"><ele>301</ele><time>2021-11-13T10:18:13Z</time><name>PT2470</name></trkpt>
<trkpt lat="53.270468" lon="-1.987098"><ele>301</ele><time>2021-11-13T10:18:14Z</time><name>PT2471</name></trkpt>
<trkpt lat="53.270470" lon="-1.987104"><ele>300</ele><time>2021-11-13T10:18:15Z</time><name>PT2472</name></trkpt>
<trkpt lat="53.270476" lon="-1.987123"><ele>301</ele><time>2021-11-13T10:18:16Z</time><name>PT2473</name></trkpt>
<trkpt lat="53.270472" lon="-1.987133"><ele>301</ele><time>2021-11-13T10:18:17Z</time><name>PT2474</name></trkpt>
<trkpt lat="53.270467" lon="-1.987151"><ele>301</ele><time>2021-11-13T10:18:18Z</time><name>PT2475</name></trkpt>
<trkpt lat="53.270465" lon="-1.987170"><ele>302</ele><time>2021-11-13T10:18:19Z</time><name>PT2476</name></trkpt>
<trkpt lat="53.270462" lon="-1.987173"><ele>302</ele><time>2021-11-13T10:18:20Z</time><name>PT2477</name></trkpt>
<trkpt lat="53.270456" lon="-1.987181"><ele>301</ele><time>2021-11-13T10:18:21Z</time><name>PT2478</name></trkpt>
<trkpt lat="53.270451" lon="-1.987186"><ele>302</ele><time>2021-11-13T10:18:22Z</time><name>PT2479</name></trkpt>
<trkpt lat="53.270448" lon="-1.987199"><ele>302</ele><time>2021-11-13T10:18:23Z</time><name>PT2480</name></trkpt>
<trkpt lat="53.270446" lon="-1.987208"><ele>302</ele><time>2021-11-13T10:18:24Z</time><name>PT2481</name></trkpt>
<trkpt lat="53.270438" lon="-1.987219"><ele>300</ele><time>2021-11-13T10:18:25Z</time><name>PT2482</name></trkpt>
<trkpt lat="53.270435" lon="-1.987229"><ele>300</ele><time>2021-11-13T10:18:26Z</time><name>PT2483</name></trkpt>
<trkpt lat="53.270437" lon="-1.987220"><ele>298</ele><time>2021-11-13T10:18:27Z</time><name>PT2484</name></trkpt>
<trkpt lat="53.270439" lon="-1.987239"><ele>299</ele><time>2021-11-13T10:18:28Z</time><name>PT2485</name></trkpt>
<trkpt lat="53.270435" lon="-1.987255"><ele>299</ele><time>2021-11-13T10:18:29Z</time><name>PT2486</name></trkpt>
<trkpt lat="53.270439" lon="-1.987250"><ele>299</ele><time>2021-11-13T10:18:30Z</time><name>PT2487</name></trkpt>
<trkpt lat="53.270434" lon="-1.987263"><ele>299</ele><time>2021-11-13T10:18:31Z</time><name>PT2488</name></trkpt>
<trkpt lat="53.270425" lon="-1.987287"><ele>300</ele><time>2021-11-13T10:18:32Z</time><name>PT2489</name></trkpt>
<trkpt lat="53.270420" lon="-1.987303"><ele>300</ele><time>2021-11-13T10:18:33Z</time><name>PT2490</name></trkpt>
<trkpt lat="53.270416" lon="-1.987309"><ele>299</ele><time>2021-11-13T10:18:34Z</time><name>PT2491</name></trkpt>
<trkpt lat="53.270411" lon="-1.987319"><ele>298</ele><time>2021-11-13T10:18:35Z</time><name>PT2492</name></trkpt>
<trkpt lat="53.270409" lon="-1.987323"><ele>297</ele><time>2021-11-13T10:18:36Z</time><name>PT2493</name></trkpt>
<trkpt lat="53.270403" lon="-1.987347"><ele>298</ele><time>2021-11-13T10:18:37Z</time><name>PT2494</name></trkpt>
<trkpt lat="53.270399" lon="-1.987355"><ele>298</ele><time>2021-11-13T10:18:40Z</time><name>PT2495</name></trkpt>
<trkpt lat="53.270398" lon="-1.987366"><ele>297</ele><time>2021-11-13T10:18:41Z</time><name>PT2496</name></trkpt>
<trkpt lat="53.270396" lon="-1.987375"><ele>297</ele><time>2021-11-13T10:18:42Z</time><name>PT2497</name></trkpt>
<trkpt lat="53.270385" lon="-1.987401"><ele>295</ele><time>2021-11-13T10:18:46Z</time><name>PT2498</name></trkpt>
<trkpt lat="53.270379" lon="-1.987428"><ele>295</ele><time>2021-11-13T10:18:47Z</time><name>PT2499</name></trkpt>
<trkpt lat="53.270368" lon="-1.987448"><ele>294</ele><time>2021-11-13T10:18:48Z</time><name>PT2500</name></trkpt>
<trkpt lat="53.270361" lon="-1.987481"><ele>293</ele><time>2021-11-13T10:18:49Z</time><name>PT2501</name></trkpt>
<trkpt lat="53.270352" lon="-1.987518"><ele>292</ele><time>2021-11-13T10:18:50Z</time><name>PT2502</name></trkpt>
<trkpt lat="53.270345" lon="-1.987538"><ele>292</ele><time>2021-11-13T10:18:51Z</time><name>PT2503</name></trkpt>
<trkpt lat="53.270338" lon="-1.987572"><ele>291</ele><time>2021-11-13T10:18:52Z</time><name>PT2504</name></trkpt>
<trkpt lat="53.270334" lon="-1.987596"><ele>291</ele><time>2021-11-13T10:18:53Z</time><name>PT2505</name></trkpt>
<trkpt lat="53.270324" lon="-1.987619"><ele>291</ele><time>2021-11-13T10:18:54Z</time><name>PT2506</name></trkpt>
<trkpt lat="53.270314" lon="-1.987632"><ele>291</ele><time>2021-11-13T10:18:55Z</time><name>PT2507</name></trkpt>
<trkpt lat="53.270300" lon="-1.987667"><ele>292</ele><time>2021-11-13T10:18:56Z</time><name>PT2508</name></trkpt>
<trkpt lat="53.270295" lon="-1.987680"><ele>292</ele><time>2021-11-13T10:18:57Z</time><name>PT2509</name></trkpt>
<trkpt lat="53.270288" lon="-1.987700"><ele>292</ele><time>2021-11-13T10:18:58Z</time><name>PT2510</name></trkpt>
<trkpt lat="53.270287" lon="-1.987718"><ele>292</ele><time>2021-11-13T10:18:59Z</time><name>PT2511</name></trkpt>
<trkpt lat="53.270287" lon="-1.987746"><ele>293</ele><time>2021-11-13T10:19:02Z</time><name>PT2512</name></trkpt>
<trkpt lat="53.270270" lon="-1.987785"><ele>292</ele><time>2021-11-13T10:19:03Z</time><name>PT2513</name></trkpt>
<trkpt lat="53.270258" lon="-1.987804"><ele>292</ele><time>2021-11-13T10:19:04Z</time><name>PT2514</name></trkpt>
<trkpt lat="53.270247" lon="-1.987824"><ele>291</ele><time>2021-11-13T10:19:05Z</time><name>PT2515</name></trkpt>
<trkpt lat="53.270240" lon="-1.987849"><ele>291</ele><time>2021-11-13T10:19:06Z</time><name>PT2516</name></trkpt>
<trkpt lat="53.270240" lon="-1.987865"><ele>289</ele><time>2021-11-13T10:19:07Z</time><name>PT2517</name></trkpt>
<trkpt lat="53.270237" lon="-1.987879"><ele>289</ele><time>2021-11-13T10:19:08Z</time><name>PT2518</name></trkpt>
<trkpt lat="53.270230" lon="-1.987895"><ele>289</ele><time>2021-11-13T10:19:09Z</time><name>PT2519</name></trkpt>
<trkpt lat="53.270223" lon="-1.987899"><ele>288</ele><time>2021-11-13T10:19:10Z</time><name>PT2520</name></trkpt>
<trkpt lat="53.270209" lon="-1.987916"><ele>287</ele><time>2021-11-13T10:19:11Z</time><name>PT2521</name></trkpt>
<trkpt lat="53.270199" lon="-1.987921"><ele>286</ele><time>2021-11-13T10:19:12Z</time><name>PT2522</name></trkpt>
<trkpt lat="53.270189" lon="-1.987945"><ele>286</ele><time>2021-11-13T10:19:13Z</time><name>PT2523</name></trkpt>
<trkpt lat="53.270180" lon="-1.987971"><ele>286</ele><time>2021-11-13T10:19:14Z</time><name>PT2524</name></trkpt>
<trkpt lat="53.270168" lon="-1.987999"><ele>286</ele><time>2021-11-13T10:19:15Z</time><name>PT2525</name></trkpt>
<trkpt lat="53.270162" lon="-1.988016"><ele>285</ele><time>2021-11-13T10:19:16Z</time><name>PT2526</name></trkpt>
<trkpt lat="53.270158" lon="-1.988028"><ele>285</ele><time>2021-11-13T10:19:17Z</time><name>PT2527</name></trkpt>
<trkpt lat="53.270154" lon="-1.988036"><ele>285</ele><time>2021-11-13T10:19:18Z</time><name>PT2528</name></trkpt>
<trkpt lat="53.270145" lon="-1.988052"><ele>285</ele><time>2021-11-13T10:19:19Z</time><name>PT2529</name></trkpt>
<trkpt lat="53.270112" lon="-1.988119"><ele>285</ele><time>2021-11-13T10:19:39Z</time><name>PT2530</name></trkpt>
<trkpt lat="53.270086" lon="-1.988153"><ele>287</ele><time>2021-11-13T10:19:40Z</time><name>PT2531</name></trkpt>
<trkpt lat="53.270061" lon="-1.988171"><ele>287</ele><time>2021-11-13T10:19:41Z</time><name>PT2532</name></trkpt>
<trkpt lat="53.270041" lon="-1.988197"><ele>287</ele><time>2021-11-13T10:19:42Z</time><name>PT2533</name></trkpt>
<trkpt lat="53.270023" lon="-1.988226"><ele>287</ele><time>2021-11-13T10:19:43Z</time><name>PT2534</name></trkpt>
<trkpt lat="53.270003" lon="-1.988250"><ele>287</ele><time>2021-11-13T10:19:44Z</time><name>PT2535</name></trkpt>
<trkpt lat="53.269986" lon="-1.988270"><ele>287</ele><time>2021-11-13T10:19:45Z</time><name>PT2536</name></trkpt>
<trkpt lat="53.269962" lon="-1.988305"><ele>287</ele><time>2021-11-13T10:19:46Z</time><name>PT2537</name></trkpt>
<trkpt lat="53.269949" lon="-1.988317"><ele>287</ele><time>2021-11-13T10:19:47Z</time><name>PT2538</name></trkpt>
<trkpt lat="53.269933" lon="-1.988324"><ele>288</ele><time>2021-11-13T10:19:48Z</time><name>PT2539</name></trkpt>
<trkpt lat="53.269920" lon="-1.988333"><ele>288</ele><time>2021-11-13T10:19:49Z</time><name>PT2540</name></trkpt>
<trkpt lat="53.269903" lon="-1.988351"><ele>287</ele><time>2021-11-13T10:19:50Z</time><name>PT2541</name></trkpt>
<trkpt lat="53.269881" lon="-1.988363"><ele>288</ele><time>2021-11-13T10:19:51Z</time><name>PT2542</name></trkpt>
<trkpt lat="53.269866" lon="-1.988377"><ele>288</ele><time>2021-11-13T10:19:52Z</time><name>PT2543</name></trkpt>
<trkpt lat="53.269856" lon="-1.988385"><ele>288</ele><time>2021-11-13T10:19:53Z</time><name>PT2544</name></trkpt>
<trkpt lat="53.269843" lon="-1.988394"><ele>288</ele><time>2021-11-13T10:19:54Z</time><name>PT2545</name></trkpt>
<trkpt lat="53.269830" lon="-1.988403"><ele>288</ele><time>2021-11-13T10:19:55Z</time><name>PT2546</name></trkpt>
<trkpt lat="53.269820" lon="-1.988411"><ele>288</ele><time>2021-11-13T10:19:56Z</time><name>PT2547</name></trkpt>
<trkpt lat="53.269811" lon="-1.988418"><ele>287</ele><time>2021-11-13T10:19:57Z</time><name>PT2548</name></trkpt>
<trkpt lat="53.269798" lon="-1.988430"><ele>288</ele><time>2021-11-13T10:19:58Z</time><name>PT2549</name></trkpt>
<trkpt lat="53.269782" lon="-1.988451"><ele>288</ele><time>2021-11-13T10:19:59Z</time><name>PT2550</name></trkpt>
<trkpt lat="53.269771" lon="-1.988463"><ele>288</ele><time>2021-11-13T10:20:00Z</time><name>PT2551</name></trkpt>
<trkpt lat="53.269764" lon="-1.988477"><ele>288</ele><time>2021-11-13T10:20:01Z</time><name>PT2552</name></trkpt>
<trkpt lat="53.269748" lon="-1.988482"><ele>288</ele><time>2021-11-13T10:20:02Z</time><name>PT2553</name></trkpt>
<trkpt lat="53.269738" lon="-1.988479"><ele>288</ele><time>2021-11-13T10:20:03Z</time><name>PT2554</name></trkpt>
<trkpt lat="53.269730" lon="-1.988489"><ele>288</ele><time>2021-11-13T10:20:04Z</time><name>PT2555</name></trkpt>
<trkpt lat="53.269720" lon="-1.988490"><ele>288</ele><time>2021-11-13T10:20:05Z</time><name>PT2556</name></trkpt>
<trkpt lat="53.269710" lon="-1.988492"><ele>287</ele><time>2021-11-13T10:20:06Z</time><name>PT2557</name></trkpt>
<trkpt lat="53.269700" lon="-1.988505"><ele>288</ele><time>2021-11-13T10:20:07Z</time><name>PT2558</name></trkpt>
<trkpt lat="53.269689" lon="-1.988516"><ele>288</ele><time>2021-11-13T10:20:08Z</time><name>PT2559</name></trkpt>
<trkpt lat="53.269677" lon="-1.988535"><ele>287</ele><time>2021-11-13T10:20:09Z</time><name>PT2560</name></trkpt>
<trkpt lat="53.269663" lon="-1.988548"><ele>287</ele><time>2021-11-13T10:20:10Z</time><name>PT2561</name></trkpt>
<trkpt lat="53.269653" lon="-1.988559"><ele>287</ele><time>2021-11-13T10:20:11Z</time><name>PT2562</name></trkpt>
<trkpt lat="53.269644" lon="-1.988566"><ele>287</ele><time>2021-11-13T10:20:12Z</time><name>PT2563</name></trkpt>
<trkpt lat="53.269636" lon="-1.988577"><ele>287</ele><time>2021-11-13T10:20:13Z</time><name>PT2564</name></trkpt>
<trkpt lat="53.269630" lon="-1.988590"><ele>287</ele><time>2021-11-13T10:20:14Z</time><name>PT2565</name></trkpt>
<trkpt lat="53.269618" lon="-1.988612"><ele>288</ele><time>2021-11-13T10:20:15Z</time><name>PT2566</name></trkpt>
<trkpt lat="53.269604" lon="-1.988617"><ele>289</ele><time>2021-11-13T10:20:16Z</time><name>PT2567</name></trkpt>
<trkpt lat="53.269597" lon="-1.988625"><ele>289</ele><time>2021-11-13T10:20:17Z</time><name>PT2568</name></trkpt>
<trkpt lat="53.269586" lon="-1.988637"><ele>289</ele><time>2021-11-13T10:20:18Z</time><name>PT2569</name></trkpt>
<trkpt lat="53.269577" lon="-1.988648"><ele>289</ele><time>2021-11-13T10:20:19Z</time><name>PT2570</name></trkpt>
<trkpt lat="53.269564" lon="-1.988667"><ele>290</ele><time>2021-11-13T10:20:20Z</time><name>PT2571</name></trkpt>
<trkpt lat="53.269550" lon="-1.988677"><ele>291</ele><time>2021-11-13T10:20:21Z</time><name>PT2572</name></trkpt>
<trkpt lat="53.269539" lon="-1.988689"><ele>292</ele><time>2021-11-13T10:20:22Z</time><name>PT2573</name></trkpt>
<trkpt lat="53.269531" lon="-1.988683"><ele>291</ele><time>2021-11-13T10:20:23Z</time><name>PT2574</name></trkpt>
<trkpt lat="53.269522" lon="-1.988692"><ele>291</ele><time>2021-11-13T10:20:24Z</time><name>PT2575</name></trkpt>
<trkpt lat="53.269508" lon="-1.988697"><ele>291</ele><time>2021-11-13T10:20:25Z</time><name>PT2576</name></trkpt>
<trkpt lat="53.269495" lon="-1.988709"><ele>292</ele><time>2021-11-13T10:20:26Z</time><name>PT2577</name></trkpt>
<trkpt lat="53.269482" lon="-1.988726"><ele>293</ele><time>2021-11-13T10:20:27Z</time><name>PT2578</name></trkpt>
<trkpt lat="53.269472" lon="-1.988733"><ele>293</ele><time>2021-11-13T10:20:28Z</time><name>PT2579</name></trkpt>
<trkpt lat="53.269467" lon="-1.988739"><ele>293</ele><time>2021-11-13T10:20:29Z</time><name>PT2580</name></trkpt>
<trkpt lat="53.269461" lon="-1.988747"><ele>294</ele><time>2021-11-13T10:20:30Z</time><name>PT2581</name></trkpt>
<trkpt lat="53.269452" lon="-1.988763"><ele>294</ele><time>2021-11-13T10:20:31Z</time><name>PT2582</name></trkpt>
<trkpt lat="53.269443" lon="-1.988775"><ele>295</ele><time>2021-11-13T10:20:32Z</time><name>PT2583</name></trkpt>
<trkpt lat="53.269433" lon="-1.988772"><ele>295</ele><time>2021-11-13T10:20:33Z</time><name>PT2584</name></trkpt>
<trkpt lat="53.269428" lon="-1.988778"><ele>295</ele><time>2021-11-13T10:20:34Z</time><name>PT2585</name></trkpt>
<trkpt lat="53.269420" lon="-1.988787"><ele>295</ele><time>2021-11-13T10:20:35Z</time><name>PT2586</name></trkpt>
<trkpt lat="53.269411" lon="-1.988793"><ele>296</ele><time>2021-11-13T10:20:36Z</time><name>PT2587</name></trkpt>
<trkpt lat="53.269383" lon="-1.988842"><ele>297</ele><time>2021-11-13T10:20:39Z</time><name>PT2588</name></trkpt>
<trkpt lat="53.269367" lon="-1.988875"><ele>298</ele><time>2021-11-13T10:20:43Z</time><name>PT2589</name></trkpt>
<trkpt lat="53.269353" lon="-1.988886"><ele>299</ele><time>2021-11-13T10:20:47Z</time><name>PT2590</name></trkpt>
<trkpt lat="53.269321" lon="-1.988994"><ele>298</ele><time>2021-11-13T10:20:51Z</time><name>PT2591</name></trkpt>
<trkpt lat="53.269295" lon="-1.989097"><ele>298</ele><time>2021-11-13T10:20:55Z</time><name>PT2592</name></trkpt>
<trkpt lat="53.269321" lon="-1.989151"><ele>299</ele><time>2021-11-13T10:20:59Z</time><name>PT2593</name></trkpt>
<trkpt lat="53.269348" lon="-1.989146"><ele>300</ele><time>2021-11-13T10:21:03Z</time><name>PT2594</name></trkpt>
<trkpt lat="53.269362" lon="-1.989106"><ele>300</ele><time>2021-11-13T10:21:07Z</time><name>PT2595</name></trkpt>
<trkpt lat="53.269398" lon="-1.989065"><ele>301</ele><time>2021-11-13T10:21:11Z</time><name>PT2596</name></trkpt>
<trkpt lat="53.269423" lon="-1.989026"><ele>301</ele><time>2021-11-13T10:21:15Z</time><name>PT2597</name></trkpt>
<trkpt lat="53.269451" lon="-1.989000"><ele>300</ele><time>2021-11-13T10:21:19Z</time><name>PT2598</name></trkpt>
<trkpt lat="53.269477" lon="-1.988970"><ele>300</ele><time>2021-11-13T10:21:23Z</time><name>PT2599</name></trkpt>
<trkpt lat="53.269517" lon="-1.988945"><ele>300</ele><time>2021-11-13T10:21:27Z</time><name>PT2600</name></trkpt>
<trkpt lat="53.269546" lon="-1.988914"><ele>299</ele><time>2021-11-13T10:21:31Z</time><name>PT2601</name></trkpt>
<trkpt lat="53.269571" lon="-1.988876"><ele>299</ele><time>2021-11-13T10:21:35Z</time><name>PT2602</name></trkpt>
<trkpt lat="53.269600" lon="-1.988862"><ele>298</ele><time>2021-11-13T10:21:39Z</time><name>PT2603</name></trkpt>
<trkpt lat="53.269626" lon="-1.988867"><ele>298</ele><time>2021-11-13T10:21:43Z</time><name>PT2604</name></trkpt>
<trkpt lat="53.269642" lon="-1.988874"><ele>299</ele><time>2021-11-13T10:21:47Z</time><name>PT2605</name></trkpt>
<trkpt lat="53.269660" lon="-1.988904"><ele>299</ele><time>2021-11-13T10:21:59Z</time><name>PT2606</name></trkpt>
<trkpt lat="53.269673" lon="-1.988923"><ele>300</ele><time>2021-11-13T10:22:01Z</time><name>PT2607</name></trkpt>
<trkpt lat="53.269676" lon="-1.988926"><ele>300</ele><time>2021-11-13T10:22:02Z</time><name>PT2608</name></trkpt>
<trkpt lat="53.269682" lon="-1.988929"><ele>300</ele><time>2021-11-13T10:22:03Z</time><name>PT2609</name></trkpt>
<trkpt lat="53.269686" lon="-1.988933"><ele>301</ele><time>2021-11-13T10:22:04Z</time><name>PT2610</name></trkpt>
<trkpt lat="53.269692" lon="-1.988946"><ele>301</ele><time>2021-11-13T10:22:14Z</time><name>PT2611</name></trkpt>
<trkpt lat="53.269697" lon="-1.988965"><ele>301</ele><time>2021-11-13T10:22:15Z</time><name>PT2612</name></trkpt>
<trkpt lat="53.269696" lon="-1.988976"><ele>300</ele><time>2021-11-13T10:22:16Z</time><name>PT2613</name></trkpt>
<trkpt lat="53.269700" lon="-1.988998"><ele>301</ele><time>2021-11-13T10:22:17Z</time><name>PT2614</name></trkpt>
<trkpt lat="53.269702" lon="-1.989023"><ele>301</ele><time>2021-11-13T10:22:18Z</time><name>PT2615</name></trkpt>
<trkpt lat="53.269707" lon="-1.989035"><ele>301</ele><time>2021-11-13T10:22:19Z</time><name>PT2616</name></trkpt>
<trkpt lat="53.269711" lon="-1.989052"><ele>301</ele><time>2021-11-13T10:22:20Z</time><name>PT2617</name></trkpt>
<trkpt lat="53.269716" lon="-1.989069"><ele>301</ele><time>2021-11-13T10:22:21Z</time><name>PT2618</name></trkpt>
<trkpt lat="53.269717" lon="-1.989083"><ele>301</ele><time>2021-11-13T10:22:22Z</time><name>PT2619</name></trkpt>
<trkpt lat="53.269715" lon="-1.989098"><ele>301</ele><time>2021-11-13T10:22:23Z</time><name>PT2620</name></trkpt>
<trkpt lat="53.269716" lon="-1.989116"><ele>301</ele><time>2021-11-13T10:22:24Z</time><name>PT2621</name></trkpt>
<trkpt lat="53.269717" lon="-1.989129"><ele>301</ele><time>2021-11-13T10:22:25Z</time><name>PT2622</name></trkpt>
<trkpt lat="53.269717" lon="-1.989138"><ele>302</ele><time>2021-11-13T10:22:26Z</time><name>PT2623</name></trkpt>
<trkpt lat="53.269716" lon="-1.989149"><ele>302</ele><time>2021-11-13T10:22:27Z</time><name>PT2624</name></trkpt>
<trkpt lat="53.269712" lon="-1.989157"><ele>302</ele><time>2021-11-13T10:22:28Z</time><name>PT2625</name></trkpt>
<trkpt lat="53.269704" lon="-1.989169"><ele>302</ele><time>2021-11-13T10:22:29Z</time><name>PT2626</name></trkpt>
<trkpt lat="53.269698" lon="-1.989174"><ele>303</ele><time>2021-11-13T10:22:30Z</time><name>PT2627</name></trkpt>
<trkpt lat="53.269695" lon="-1.989173"><ele>303</ele><time>2021-11-13T10:22:31Z</time><name>PT2628</name></trkpt>
<trkpt lat="53.269696" lon="-1.989175"><ele>303</ele><time>2021-11-13T10:22:32Z</time><name>PT2629</name></trkpt>
<trkpt lat="53.269696" lon="-1.989178"><ele>303</ele><time>2021-11-13T10:22:33Z</time><name>PT2630</name></trkpt>
<trkpt lat="53.269699" lon="-1.989176"><ele>303</ele><time>2021-11-13T10:22:39Z</time><name>PT2631</name></trkpt>
<trkpt lat="53.269707" lon="-1.989170"><ele>303</ele><time>2021-11-13T10:22:40Z</time><name>PT2632</name></trkpt>
<trkpt lat="53.269716" lon="-1.989158"><ele>303</ele><time>2021-11-13T10:22:41Z</time><name>PT2633</name></trkpt>
<trkpt lat="53.269724" lon="-1.989145"><ele>303</ele><time>2021-11-13T10:22:42Z</time><name>PT2634</name></trkpt>
<trkpt lat="53.269731" lon="-1.989133"><ele>303</ele><time>2021-11-13T10:22:43Z</time><name>PT2635</name></trkpt>
<trkpt lat="53.269732" lon="-1.989130"><ele>303</ele><time>2021-11-13T10:22:44Z</time><name>PT2636</name></trkpt>
<trkpt lat="53.269734" lon="-1.989126"><ele>303</ele><time>2021-11-13T10:22:45Z</time><name>PT2637</name></trkpt>
<trkpt lat="53.269739" lon="-1.989125"><ele>303</ele><time>2021-11-13T10:22:46Z</time><name>PT2638</name></trkpt>
<trkpt lat="53.269742" lon="-1.989129"><ele>303</ele><time>2021-11-13T10:22:47Z</time><name>PT2639</name></trkpt>
<trkpt lat="53.269744" lon="-1.989135"><ele>304</ele><time>2021-11-13T10:22:48Z</time><name>PT2640</name></trkpt>
<trkpt lat="53.269748" lon="-1.989143"><ele>304</ele><time>2021-11-13T10:22:49Z</time><name>PT2641</name></trkpt>
<trkpt lat="53.269750" lon="-1.989143"><ele>304</ele><time>2021-11-13T10:22:50Z</time><name>PT2642</name></trkpt>
<trkpt lat="53.269751" lon="-1.989139"><ele>304</ele><time>2021-11-13T10:22:51Z</time><name>PT2643</name></trkpt>
<trkpt lat="53.269752" lon="-1.989137"><ele>304</ele><time>2021-11-13T10:22:52Z</time><name>PT2644</name></trkpt>
<trkpt lat="53.269752" lon="-1.989134"><ele>304</ele><time>2021-11-13T10:22:53Z</time><name>PT2645</name></trkpt>
<trkpt lat="53.269753" lon="-1.989137"><ele>305</ele><time>2021-11-13T10:23:34Z</time><name>PT2646</name></trkpt>
<trkpt lat="53.269744" lon="-1.989137"><ele>306</ele><time>2021-11-13T10:23:35Z</time><name>PT2647</name></trkpt>
<trkpt lat="53.269741" lon="-1.989144"><ele>306</ele><time>2021-11-13T10:23:36Z</time><name>PT2648</name></trkpt>
<trkpt lat="53.269745" lon="-1.989137"><ele>306</ele><time>2021-11-13T10:23:37Z</time><name>PT2649</name></trkpt>
<trkpt lat="53.269749" lon="-1.989119"><ele>306</ele><time>2021-11-13T10:23:38Z</time><name>PT2650</name></trkpt>
<trkpt lat="53.269752" lon="-1.989103"><ele>307</ele><time>2021-11-13T10:23:39Z</time><name>PT2651</name></trkpt>
<trkpt lat="53.269753" lon="-1.989083"><ele>307</ele><time>2021-11-13T10:23:40Z</time><name>PT2652</name></trkpt>
<trkpt lat="53.269756" lon="-1.989065"><ele>307</ele><time>2021-11-13T10:23:41Z</time><name>PT2653</name></trkpt>
<trkpt lat="53.269758" lon="-1.989049"><ele>307</ele><time>2021-11-13T10:23:42Z</time><name>PT2654</name></trkpt>
<trkpt lat="53.269762" lon="-1.989033"><ele>307</ele><time>2021-11-13T10:23:43Z</time><name>PT2655</name></trkpt>
<trkpt lat="53.269766" lon="-1.989018"><ele>307</ele><time>2021-11-13T10:23:44Z</time><name>PT2656</name></trkpt>
<trkpt lat="53.269769" lon="-1.989003"><ele>307</ele><time>2021-11-13T10:23:45Z</time><name>PT2657</name></trkpt>
<trkpt lat="53.269777" lon="-1.988992"><ele>306</ele><time>2021-11-13T10:23:46Z</time><name>PT2658</name></trkpt>
<trkpt lat="53.269792" lon="-1.988992"><ele>305</ele><time>2021-11-13T10:23:47Z</time><name>PT2659</name></trkpt>
<trkpt lat="53.269801" lon="-1.988981"><ele>305</ele><time>2021-11-13T10:23:48Z</time><name>PT2660</name></trkpt>
<trkpt lat="53.269810" lon="-1.988972"><ele>305</ele><time>2021-11-13T10:23:49Z</time><name>PT2661</name></trkpt>
<trkpt lat="53.269824" lon="-1.988966"><ele>306</ele><time>2021-11-13T10:23:50Z</time><name>PT2662</name></trkpt>
<trkpt lat="53.269834" lon="-1.988957"><ele>306</ele><time>2021-11-13T10:23:51Z</time><name>PT2663</name></trkpt>
<trkpt lat="53.269844" lon="-1.988960"><ele>306</ele><time>2021-11-13T10:23:52Z</time><name>PT2664</name></trkpt>
<trkpt lat="53.269856" lon="-1.988956"><ele>306</ele><time>2021-11-13T10:23:53Z</time><name>PT2665</name></trkpt>
<trkpt lat="53.269868" lon="-1.988956"><ele>307</ele><time>2021-11-13T10:23:54Z</time><name>PT2666</name></trkpt>
<trkpt lat="53.269882" lon="-1.988960"><ele>307</ele><time>2021-11-13T10:23:55Z</time><name>PT2667</name></trkpt>
<trkpt lat="53.269893" lon="-1.988965"><ele>307</ele><time>2021-11-13T10:23:56Z</time><name>PT2668</name></trkpt>
<trkpt lat="53.269902" lon="-1.988976"><ele>307</ele><time>2021-11-13T10:23:57Z</time><name>PT2669</name></trkpt>
<trkpt lat="53.269909" lon="-1.988992"><ele>306</ele><time>2021-11-13T10:23:58Z</time><name>PT2670</name></trkpt>
<trkpt lat="53.269919" lon="-1.989005"><ele>306</ele><time>2021-11-13T10:23:59Z</time><name>PT2671</name></trkpt>
<trkpt lat="53.269930" lon="-1.989016"><ele>306</ele><time>2021-11-13T10:24:00Z</time><name>PT2672</name></trkpt>
<trkpt lat="53.269937" lon="-1.989028"><ele>306</ele><time>2021-11-13T10:24:01Z</time><name>PT2673</name></trkpt>
<trkpt lat="53.269943" lon="-1.989036"><ele>306</ele><time>2021-11-13T10:24:02Z</time><name>PT2674</name></trkpt>
<trkpt lat="53.269949" lon="-1.989047"><ele>306</ele><time>2021-11-13T10:24:03Z</time><name>PT2675</name></trkpt>
<trkpt lat="53.269958" lon="-1.989055"><ele>306</ele><time>2021-11-13T10:24:04Z</time><name>PT2676</name></trkpt>
<trkpt lat="53.269965" lon="-1.989061"><ele>306</ele><time>2021-11-13T10:24:05Z</time><name>PT2677</name></trkpt>
<trkpt lat="53.269968" lon="-1.989061"><ele>305</ele><time>2021-11-13T10:24:06Z</time><name>PT2678</name></trkpt>
<trkpt lat="53.269970" lon="-1.989061"><ele>305</ele><time>2021-11-13T10:24:07Z</time><name>PT2679</name></trkpt>
<trkpt lat="53.269970" lon="-1.989062"><ele>305</ele><time>2021-11-13T10:24:08Z</time><name>PT2680</name></trkpt>
<trkpt lat="53.269971" lon="-1.989066"><ele>306</ele><time>2021-11-13T10:24:15Z</time><name>PT2681</name></trkpt>
<trkpt lat="53.269983" lon="-1.989076"><ele>305</ele><time>2021-11-13T10:24:16Z</time><name>PT2682</name></trkpt>
<trkpt lat="53.269990" lon="-1.989091"><ele>305</ele><time>2021-11-13T10:24:17Z</time><name>PT2683</name></trkpt>
<trkpt lat="53.269996" lon="-1.989099"><ele>305</ele><time>2021-11-13T10:24:18Z</time><name>PT2684</name></trkpt>
<trkpt lat="53.270004" lon="-1.989104"><ele>305</ele><time>2021-11-13T10:24:19Z</time><name>PT2685</name></trkpt>
<trkpt lat="53.270015" lon="-1.989116"><ele>305</ele><time>2021-11-13T10:24:20Z</time><name>PT2686</name></trkpt>
<trkpt lat="53.270039" lon="-1.989132"><ele>304</ele><time>2021-11-13T10:24:21Z</time><name>PT2687</name></trkpt>
<trkpt lat="53.270047" lon="-1.989140"><ele>304</ele><time>2021-11-13T10:24:22Z</time><name>PT2688</name></trkpt>
<trkpt lat="53.270047" lon="-1.989137"><ele>305</ele><time>2021-11-13T10:24:23Z</time><name>PT2689</name></trkpt>
<trkpt lat="53.270062" lon="-1.989144"><ele>305</ele><time>2021-11-13T10:24:24Z</time><name>PT2690</name></trkpt>
<trkpt lat="53.270064" lon="-1.989156"><ele>305</ele><time>2021-11-13T10:24:25Z</time><name>PT2691</name></trkpt>
<trkpt lat="53.270067" lon="-1.989174"><ele>306</ele><time>2021-11-13T10:24:26Z</time><name>PT2692</name></trkpt>
<trkpt lat="53.270073" lon="-1.989182"><ele>306</ele><time>2021-11-13T10:24:27Z</time><name>PT2693</name></trkpt>
<trkpt lat="53.270084" lon="-1.989190"><ele>307</ele><time>2021-11-13T10:24:28Z</time><name>PT2694</name></trkpt>
<trkpt lat="53.270087" lon="-1.989188"><ele>307</ele><time>2021-11-13T10:24:29Z</time><name>PT2695</name></trkpt>
<trkpt lat="53.270091" lon="-1.989187"><ele>307</ele><time>2021-11-13T10:24:30Z</time><name>PT2696</name></trkpt>
<trkpt lat="53.270096" lon="-1.989187"><ele>308</ele><time>2021-11-13T10:24:31Z</time><name>PT2697</name></trkpt>
<trkpt lat="53.270098" lon="-1.989185"><ele>308</ele><time>2021-11-13T10:24:32Z</time><name>PT2698</name></trkpt>
<trkpt lat="53.270089" lon="-1.989181"><ele>310</ele><time>2021-11-13T10:26:25Z</time><name>PT2699</name></trkpt>
<trkpt lat="53.270089" lon="-1.989190"><ele>311</ele><time>2021-11-13T10:26:29Z</time><name>PT2700</name></trkpt>
<trkpt lat="53.270090" lon="-1.989187"><ele>312</ele><time>2021-11-13T10:27:13Z</time><name>PT2701</name></trkpt>
<trkpt lat="53.270092" lon="-1.989186"><ele>313</ele><time>2021-11-13T10:27:17Z</time><name>PT2702</name></trkpt>
<trkpt lat="53.270088" lon="-1.989201"><ele>311</ele><time>2021-11-13T10:27:33Z</time><name>PT2703</name></trkpt>
<trkpt lat="53.270084" lon="-1.989197"><ele>312</ele><time>2021-11-13T10:27:37Z</time><name>PT2704</name></trkpt>
<trkpt lat="53.270087" lon="-1.989222"><ele>314</ele><time>2021-11-13T10:28:13Z</time><name>PT2705</name></trkpt>
<trkpt lat="53.270085" lon="-1.989221"><ele>314</ele><time>2021-11-13T10:28:17Z</time><name>PT2706</name></trkpt>
<trkpt lat="53.270082" lon="-1.989223"><ele>314</ele><time>2021-11-13T10:28:21Z</time><name>PT2707</name></trkpt>
<trkpt lat="53.270092" lon="-1.989221"><ele>315</ele><time>2021-11-13T10:28:25Z</time><name>PT2708</name></trkpt>
<trkpt lat="53.270086" lon="-1.989228"><ele>315</ele><time>2021-11-13T10:28:29Z</time><name>PT2709</name></trkpt>
<trkpt lat="53.270089" lon="-1.989214"><ele>313</ele><time>2021-11-13T10:28:33Z</time><name>PT2710</name></trkpt>
<trkpt lat="53.270085" lon="-1.989211"><ele>313</ele><time>2021-11-13T10:28:37Z</time><name>PT2711</name></trkpt>
<trkpt lat="53.270081" lon="-1.989238"><ele>312</ele><time>2021-11-13T10:28:41Z</time><name>PT2712</name></trkpt>
<trkpt lat="53.270081" lon="-1.989277"><ele>315</ele><time>2021-11-13T10:28:45Z</time><name>PT2713</name></trkpt>
<trkpt lat="53.270086" lon="-1.989267"><ele>317</ele><time>2021-11-13T10:28:49Z</time><name>PT2714</name></trkpt>
<trkpt lat="53.270092" lon="-1.989244"><ele>316</ele><time>2021-11-13T10:29:05Z</time><name>PT2715</name></trkpt>
<trkpt lat="53.270093" lon="-1.989237"><ele>317</ele><time>2021-11-13T10:29:09Z</time><name>PT2716</name></trkpt>
<trkpt lat="53.270095" lon="-1.989242"><ele>316</ele><time>2021-11-13T10:29:37Z</time><name>PT2717</name></trkpt>
<trkpt lat="53.270096" lon="-1.989243"><ele>314</ele><time>2021-11-13T10:29:41Z</time><name>PT2718</name></trkpt>
<trkpt lat="53.270087" lon="-1.989272"><ele>315</ele><time>2021-11-13T10:29:45Z</time><name>PT2719</name></trkpt>
<trkpt lat="53.270089" lon="-1.989259"><ele>317</ele><time>2021-11-13T10:31:17Z</time><name>PT2720</name></trkpt>
<trkpt lat="53.270069" lon="-1.989255"><ele>318</ele><time>2021-11-13T10:31:45Z</time><name>PT2721</name></trkpt>
<trkpt lat="53.270064" lon="-1.989256"><ele>317</ele><time>2021-11-13T10:31:49Z</time><name>PT2722</name></trkpt>
<trkpt lat="53.270081" lon="-1.989217"><ele>318</ele><time>2021-11-13T10:35:29Z</time><name>PT2723</name></trkpt>
<trkpt lat="53.270088" lon="-1.989210"><ele>317</ele><time>2021-11-13T10:35:30Z</time><name>PT2724</name></trkpt>
<trkpt lat="53.270089" lon="-1.989218"><ele>317</ele><time>2021-11-13T10:35:31Z</time><name>PT2725</name></trkpt>
<trkpt lat="53.270088" lon="-1.989227"><ele>317</ele><time>2021-11-13T10:35:32Z</time><name>PT2726</name></trkpt>
<trkpt lat="53.270089" lon="-1.989223"><ele>317</ele><time>2021-11-13T10:35:39Z</time><name>PT2727</name></trkpt>
<trkpt lat="53.270091" lon="-1.989218"><ele>316</ele><time>2021-11-13T10:35:40Z</time><name>PT2728</name></trkpt>
<trkpt lat="53.270090" lon="-1.989217"><ele>316</ele><time>2021-11-13T10:35:41Z</time><name>PT2729</name></trkpt>
<trkpt lat="53.270089" lon="-1.989218"><ele>317</ele><time>2021-11-13T10:35:42Z</time><name>PT2730</name></trkpt>
<trkpt lat="53.270086" lon="-1.989223"><ele>317</ele><time>2021-11-13T10:35:43Z</time><name>PT2731</name></trkpt>
<trkpt lat="53.270086" lon="-1.989223"><ele>317</ele><time>2021-11-13T10:35:44Z</time><name>PT2732</name></trkpt>
<trkpt lat="53.270096" lon="-1.989227"><ele>318</ele><time>2021-11-13T10:35:45Z</time><name>PT2733</name></trkpt>
<trkpt lat="53.270096" lon="-1.989225"><ele>318</ele><time>2021-11-13T10:35:46Z</time><name>PT2734</name></trkpt>
<trkpt lat="53.270095" lon="-1.989225"><ele>318</ele><time>2021-11-13T10:35:47Z</time><name>PT2735</name></trkpt>
<trkpt lat="53.270095" lon="-1.989230"><ele>318</ele><time>2021-11-13T10:35:52Z</time><name>PT2736</name></trkpt>
<trkpt lat="53.270106" lon="-1.989226"><ele>318</ele><time>2021-11-13T10:35:53Z</time><name>PT2737</name></trkpt>
<trkpt lat="53.270114" lon="-1.989224"><ele>318</ele><time>2021-11-13T10:35:54Z</time><name>PT2738</name></trkpt>
<trkpt lat="53.270112" lon="-1.989226"><ele>318</ele><time>2021-11-13T10:36:25Z</time><name>PT2739</name></trkpt>
<trkpt lat="53.270114" lon="-1.989227"><ele>318</ele><time>2021-11-13T10:36:26Z</time><name>PT2740</name></trkpt>
<trkpt lat="53.270096" lon="-1.989215"><ele>316</ele><time>2021-11-13T10:36:29Z</time><name>PT2741</name></trkpt>
<trkpt lat="53.270095" lon="-1.989214"><ele>316</ele><time>2021-11-13T10:36:30Z</time><name>PT2742</name></trkpt>
<trkpt lat="53.270094" lon="-1.989214"><ele>316</ele><time>2021-11-13T10:36:31Z</time><name>PT2743</name></trkpt>
<trkpt lat="53.270088" lon="-1.989217"><ele>316</ele><time>2021-11-13T10:36:32Z</time><name>PT2744</name></trkpt>
<trkpt lat="53.270089" lon="-1.989238"><ele>317</ele><time>2021-11-13T10:36:36Z</time><name>PT2745</name></trkpt>
<trkpt lat="53.270088" lon="-1.989236"><ele>317</ele><time>2021-11-13T10:36:37Z</time><name>PT2746</name></trkpt>
<trkpt lat="53.270086" lon="-1.989238"><ele>317</ele><time>2021-11-13T10:36:38Z</time><name>PT2747</name></trkpt>
<trkpt lat="53.270090" lon="-1.989240"><ele>317</ele><time>2021-11-13T10:36:39Z</time><name>PT2748</name></trkpt>
<trkpt lat="53.270088" lon="-1.989239"><ele>317</ele><time>2021-11-13T10:36:40Z</time><name>PT2749</name></trkpt>
<trkpt lat="53.270089" lon="-1.989235"><ele>316</ele><time>2021-11-13T10:36:41Z</time><name>PT2750</name></trkpt>
<trkpt lat="53.270090" lon="-1.989235"><ele>316</ele><time>2021-11-13T10:36:42Z</time><name>PT2751</name></trkpt>
<trkpt lat="53.270090" lon="-1.989237"><ele>316</ele><time>2021-11-13T10:36:43Z</time><name>PT2752</name></trkpt>
<trkpt lat="53.270093" lon="-1.989236"><ele>316</ele><time>2021-11-13T10:36:44Z</time><name>PT2753</name></trkpt>
<trkpt lat="53.270092" lon="-1.989234"><ele>316</ele><time>2021-11-13T10:37:54Z</time><name>PT2754</name></trkpt>
<trkpt lat="53.270087" lon="-1.989226"><ele>316</ele><time>2021-11-13T10:37:55Z</time><name>PT2755</name></trkpt>
<trkpt lat="53.270089" lon="-1.989221"><ele>316</ele><time>2021-11-13T10:37:56Z</time><name>PT2756</name></trkpt>
<trkpt lat="53.270089" lon="-1.989218"><ele>316</ele><time>2021-11-13T10:37:57Z</time><name>PT2757</name></trkpt>
<trkpt lat="53.270090" lon="-1.989217"><ele>316</ele><time>2021-11-13T10:37:58Z</time><name>PT2758</name></trkpt>
<trkpt lat="53.270089" lon="-1.989216"><ele>316</ele><time>2021-11-13T10:39:03Z</time><name>PT2759</name></trkpt>
<trkpt lat="53.270087" lon="-1.989218"><ele>316</ele><time>2021-11-13T10:39:04Z</time><name>PT2760</name></trkpt>
<trkpt lat="53.270087" lon="-1.989222"><ele>315</ele><time>2021-11-13T10:39:05Z</time><name>PT2761</name></trkpt>
<trkpt lat="53.270087" lon="-1.989231"><ele>315</ele><time>2021-11-13T10:39:06Z</time><name>PT2762</name></trkpt>
<trkpt lat="53.270084" lon="-1.989231"><ele>315</ele><time>2021-11-13T10:39:17Z</time><name>PT2763</name></trkpt>
<trkpt lat="53.270082" lon="-1.989224"><ele>315</ele><time>2021-11-13T10:39:18Z</time><name>PT2764</name></trkpt>
<trkpt lat="53.270075" lon="-1.989226"><ele>315</ele><time>2021-11-13T10:39:33Z</time><name>PT2765</name></trkpt>
<trkpt lat="53.270071" lon="-1.989237"><ele>315</ele><time>2021-11-13T10:39:34Z</time><name>PT2766</name></trkpt>
<trkpt lat="53.270075" lon="-1.989228"><ele>315</ele><time>2021-11-13T10:39:35Z</time><name>PT2767</name></trkpt>
<trkpt lat="53.270083" lon="-1.989230"><ele>315</ele><time>2021-11-13T10:39:36Z</time><name>PT2768</name></trkpt>
<trkpt lat="53.270077" lon="-1.989224"><ele>315</ele><time>2021-11-13T10:39:37Z</time><name>PT2769</name></trkpt>
<trkpt lat="53.270080" lon="-1.989230"><ele>316</ele><time>2021-11-13T10:39:38Z</time><name>PT2770</name></trkpt>
<trkpt lat="53.270081" lon="-1.989229"><ele>316</ele><time>2021-11-13T10:39:39Z</time><name>PT2771</name></trkpt>
<trkpt lat="53.270090" lon="-1.989219"><ele>316</ele><time>2021-11-13T10:39:40Z</time><name>PT2772</name></trkpt>
<trkpt lat="53.270084" lon="-1.989213"><ele>316</ele><time>2021-11-13T10:39:52Z</time><name>PT2773</name></trkpt>
<trkpt lat="53.270091" lon="-1.989203"><ele>316</ele><time>2021-11-13T10:39:53Z</time><name>PT2774</name></trkpt>
<trkpt lat="53.270097" lon="-1.989203"><ele>316</ele><time>2021-11-13T10:39:54Z</time><name>PT2775</name></trkpt>
<trkpt lat="53.270108" lon="-1.989187"><ele>316</ele><time>2021-11-13T10:39:55Z</time><name>PT2776</name></trkpt>
<trkpt lat="53.270112" lon="-1.989167"><ele>316</ele><time>2021-11-13T10:39:56Z</time><name>PT2777</name></trkpt>
<trkpt lat="53.270125" lon="-1.989154"><ele>315</ele><time>2021-11-13T10:39:57Z</time><name>PT2778</name></trkpt>
<trkpt lat="53.270133" lon="-1.989150"><ele>314</ele><time>2021-11-13T10:39:58Z</time><name>PT2779</name></trkpt>
<trkpt lat="53.270139" lon="-1.989144"><ele>314</ele><time>2021-11-13T10:39:59Z</time><name>PT2780</name></trkpt>
<trkpt lat="53.270146" lon="-1.989141"><ele>313</ele><time>2021-11-13T10:40:00Z</time><name>PT2781</name></trkpt>
<trkpt lat="53.270153" lon="-1.989146"><ele>313</ele><time>2021-11-13T10:40:01Z</time><name>PT2782</name></trkpt>
<trkpt lat="53.270159" lon="-1.989155"><ele>313</ele><time>2021-11-13T10:40:02Z</time><name>PT2783</name></trkpt>
<trkpt lat="53.270165" lon="-1.989156"><ele>313</ele><time>2021-11-13T10:40:03Z</time><name>PT2784</name></trkpt>
<trkpt lat="53.270178" lon="-1.989164"><ele>313</ele><time>2021-11-13T10:40:04Z</time><name>PT2785</name></trkpt>
<trkpt lat="53.270181" lon="-1.989173"><ele>312</ele><time>2021-11-13T10:40:05Z</time><name>PT2786</name></trkpt>
<trkpt lat="53.270184" lon="-1.989186"><ele>311</ele><time>2021-11-13T10:40:06Z</time><name>PT2787</name></trkpt>
<trkpt lat="53.270188" lon="-1.989201"><ele>311</ele><time>2021-11-13T10:40:07Z</time><name>PT2788</name></trkpt>
<trkpt lat="53.270194" lon="-1.989216"><ele>310</ele><time>2021-11-13T10:40:08Z</time><name>PT2789</name></trkpt>
<trkpt lat="53.270195" lon="-1.989230"><ele>310</ele><time>2021-11-13T10:40:09Z</time><name>PT2790</name></trkpt>
<trkpt lat="53.270200" lon="-1.989240"><ele>310</ele><time>2021-11-13T10:40:10Z</time><name>PT2791</name></trkpt>
<trkpt lat="53.270203" lon="-1.989250"><ele>310</ele><time>2021-11-13T10:40:11Z</time><name>PT2792</name></trkpt>
<trkpt lat="53.270210" lon="-1.989255"><ele>310</ele><time>2021-11-13T10:40:12Z</time><name>PT2793</name></trkpt>
<trkpt lat="53.270214" lon="-1.989262"><ele>309</ele><time>2021-11-13T10:40:13Z</time><name>PT2794</name></trkpt>
<trkpt lat="53.270217" lon="-1.989264"><ele>310</ele><time>2021-11-13T10:40:14Z</time><name>PT2795</name></trkpt>
<trkpt lat="53.270224" lon="-1.989276"><ele>311</ele><time>2021-11-13T10:40:15Z</time><name>PT2796</name></trkpt>
<trkpt lat="53.270228" lon="-1.989282"><ele>311</ele><time>2021-11-13T10:40:16Z</time><name>PT2797</name></trkpt>
<trkpt lat="53.270228" lon="-1.989298"><ele>311</ele><time>2021-11-13T10:40:17Z</time><name>PT2798</name></trkpt>
<trkpt lat="53.270230" lon="-1.989313"><ele>311</ele><time>2021-11-13T10:40:18Z</time><name>PT2799</name></trkpt>
<trkpt lat="53.270233" lon="-1.989324"><ele>311</ele><time>2021-11-13T10:40:19Z</time><name>PT2800</name></trkpt>
<trkpt lat="53.270240" lon="-1.989339"><ele>311</ele><time>2021-11-13T10:40:20Z</time><name>PT2801</name></trkpt>
<trkpt lat="53.270241" lon="-1.989348"><ele>312</ele><time>2021-11-13T10:40:21Z</time><name>PT2802</name></trkpt>
<trkpt lat="53.270243" lon="-1.989362"><ele>312</ele><time>2021-11-13T10:40:22Z</time><name>PT2803</name></trkpt>
<trkpt lat="53.270245" lon="-1.989375"><ele>311</ele><time>2021-11-13T10:40:23Z</time><name>PT2804</name></trkpt>
<trkpt lat="53.270251" lon="-1.989389"><ele>311</ele><time>2021-11-13T10:40:24Z</time><name>PT2805</name></trkpt>
<trkpt lat="53.270263" lon="-1.989399"><ele>310</ele><time>2021-11-13T10:40:25Z</time><name>PT2806</name></trkpt>
<trkpt lat="53.270265" lon="-1.989409"><ele>310</ele><time>2021-11-13T10:40:26Z</time><name>PT2807</name></trkpt>
<trkpt lat="53.270268" lon="-1.989421"><ele>310</ele><time>2021-11-13T10:40:27Z</time><name>PT2808</name></trkpt>
<trkpt lat="53.270271" lon="-1.989433"><ele>310</ele><time>2021-11-13T10:40:28Z</time><name>PT2809</name></trkpt>
<trkpt lat="53.270278" lon="-1.989443"><ele>311</ele><time>2021-11-13T10:40:29Z</time><name>PT2810</name></trkpt>
<trkpt lat="53.270281" lon="-1.989454"><ele>310</ele><time>2021-11-13T10:40:30Z</time><name>PT2811</name></trkpt>
<trkpt lat="53.270282" lon="-1.989481"><ele>311</ele><time>2021-11-13T10:40:31Z</time><name>PT2812</name></trkpt>
<trkpt lat="53.270286" lon="-1.989490"><ele>311</ele><time>2021-11-13T10:40:32Z</time><name>PT2813</name></trkpt>
<trkpt lat="53.270287" lon="-1.989499"><ele>310</ele><time>2021-11-13T10:40:33Z</time><name>PT2814</name></trkpt>
<trkpt lat="53.270289" lon="-1.989506"><ele>310</ele><time>2021-11-13T10:40:34Z</time><name>PT2815</name></trkpt>
<trkpt lat="53.270291" lon="-1.989509"><ele>310</ele><time>2021-11-13T10:40:35Z</time><name>PT2816</name></trkpt>
<trkpt lat="53.270293" lon="-1.989516"><ele>310</ele><time>2021-11-13T10:40:36Z</time><name>PT2817</name></trkpt>
<trkpt lat="53.270319" lon="-1.989533"><ele>309</ele><time>2021-11-13T10:40:38Z</time><name>PT2818</name></trkpt>
<trkpt lat="53.270328" lon="-1.989523"><ele>308</ele><time>2021-11-13T10:40:39Z</time><name>PT2819</name></trkpt>
<trkpt lat="53.270342" lon="-1.989552"><ele>306</ele><time>2021-11-13T10:40:42Z</time><name>PT2820</name></trkpt>
<trkpt lat="53.270362" lon="-1.989589"><ele>306</ele><time>2021-11-13T10:40:46Z</time><name>PT2821</name></trkpt>
<trkpt lat="53.270371" lon="-1.989628"><ele>306</ele><time>2021-11-13T10:40:50Z</time><name>PT2822</name></trkpt>
<trkpt lat="53.270373" lon="-1.989677"><ele>303</ele><time>2021-11-13T10:40:54Z</time><name>PT2823</name></trkpt>
<trkpt lat="53.270388" lon="-1.989715"><ele>302</ele><time>2021-11-13T10:40:58Z</time><name>PT2824</name></trkpt>
<trkpt lat="53.270403" lon="-1.989778"><ele>303</ele><time>2021-11-13T10:41:02Z</time><name>PT2825</name></trkpt>
<trkpt lat="53.270412" lon="-1.989852"><ele>301</ele><time>2021-11-13T10:41:06Z</time><name>PT2826</name></trkpt>
<trkpt lat="53.270415" lon="-1.989912"><ele>302</ele><time>2021-11-13T10:41:10Z</time><name>PT2827</name></trkpt>
<trkpt lat="53.270419" lon="-1.989956"><ele>304</ele><time>2021-11-13T10:41:14Z</time><name>PT2828</name></trkpt>
<trkpt lat="53.270420" lon="-1.989965"><ele>304</ele><time>2021-11-13T10:41:18Z</time><name>PT2829</name></trkpt>
<trkpt lat="53.270432" lon="-1.990144"><ele>303</ele><time>2021-11-13T10:41:22Z</time><name>PT2830</name></trkpt>
<trkpt lat="53.270428" lon="-1.990179"><ele>305</ele><time>2021-11-13T10:41:25Z</time><name>PT2831</name></trkpt>
<trkpt lat="53.270431" lon="-1.990194"><ele>305</ele><time>2021-11-13T10:41:26Z</time><name>PT2832</name></trkpt>
<trkpt lat="53.270430" lon="-1.990207"><ele>306</ele><time>2021-11-13T10:41:27Z</time><name>PT2833</name></trkpt>
<trkpt lat="53.270430" lon="-1.990222"><ele>306</ele><time>2021-11-13T10:41:28Z</time><name>PT2834</name></trkpt>
<trkpt lat="53.270440" lon="-1.990241"><ele>307</ele><time>2021-11-13T10:41:29Z</time><name>PT2835</name></trkpt>
<trkpt lat="53.270440" lon="-1.990250"><ele>309</ele><time>2021-11-13T10:41:30Z</time><name>PT2836</name></trkpt>
<trkpt lat="53.270438" lon="-1.990265"><ele>310</ele><time>2021-11-13T10:41:31Z</time><name>PT2837</name></trkpt>
<trkpt lat="53.270439" lon="-1.990277"><ele>310</ele><time>2021-11-13T10:41:32Z</time><name>PT2838</name></trkpt>
<trkpt lat="53.270438" lon="-1.990292"><ele>312</ele><time>2021-11-13T10:41:33Z</time><name>PT2839</name></trkpt>
<trkpt lat="53.270436" lon="-1.990302"><ele>313</ele><time>2021-11-13T10:41:34Z</time><name>PT2840</name></trkpt>
<trkpt lat="53.270438" lon="-1.990312"><ele>314</ele><time>2021-11-13T10:41:35Z</time><name>PT2841</name></trkpt>
<trkpt lat="53.270435" lon="-1.990327"><ele>312</ele><time>2021-11-13T10:41:36Z</time><name>PT2842</name></trkpt>
<trkpt lat="53.270436" lon="-1.990334"><ele>312</ele><time>2021-11-13T10:41:37Z</time><name>PT2843</name></trkpt>
<trkpt lat="53.270437" lon="-1.990354"><ele>313</ele><time>2021-11-13T10:41:38Z</time><name>PT2844</name></trkpt>
<trkpt lat="53.270442" lon="-1.990364"><ele>314</ele><time>2021-11-13T10:41:39Z</time><name>PT2845</name></trkpt>
<trkpt lat="53.270442" lon="-1.990365"><ele>315</ele><time>2021-11-13T10:41:40Z</time><name>PT2846</name></trkpt>
<trkpt lat="53.270449" lon="-1.990364"><ele>318</ele><time>2021-11-13T10:41:41Z</time><name>PT2847</name></trkpt>
<trkpt lat="53.270451" lon="-1.990372"><ele>319</ele><time>2021-11-13T10:41:42Z</time><name>PT2848</name></trkpt>
<trkpt lat="53.270463" lon="-1.990386"><ele>320</ele><time>2021-11-13T10:41:43Z</time><name>PT2849</name></trkpt>
<trkpt lat="53.270472" lon="-1.990401"><ele>322</ele><time>2021-11-13T10:41:44Z</time><name>PT2850</name></trkpt>
<trkpt lat="53.270472" lon="-1.990415"><ele>321</ele><time>2021-11-13T10:41:45Z</time><name>PT2851</name></trkpt>
<trkpt lat="53.270474" lon="-1.990430"><ele>322</ele><time>2021-11-13T10:41:46Z</time><name>PT2852</name></trkpt>
<trkpt lat="53.270476" lon="-1.990445"><ele>322</ele><time>2021-11-13T10:41:47Z</time><name>PT2853</name></trkpt>
<trkpt lat="53.270468" lon="-1.990462"><ele>320</ele><time>2021-11-13T10:41:48Z</time><name>PT2854</name></trkpt>
<trkpt lat="53.270463" lon="-1.990472"><ele>319</ele><time>2021-11-13T10:41:49Z</time><name>PT2855</name></trkpt>
<trkpt lat="53.270465" lon="-1.990484"><ele>319</ele><time>2021-11-13T10:41:50Z</time><name>PT2856</name></trkpt>
<trkpt lat="53.270462" lon="-1.990496"><ele>318</ele><time>2021-11-13T10:41:51Z</time><name>PT2857</name></trkpt>
<trkpt lat="53.270477" lon="-1.990516"><ele>320</ele><time>2021-11-13T10:41:52Z</time><name>PT2858</name></trkpt>
<trkpt lat="53.270485" lon="-1.990526"><ele>322</ele><time>2021-11-13T10:41:53Z</time><name>PT2859</name></trkpt>
<trkpt lat="53.270488" lon="-1.990533"><ele>322</ele><time>2021-11-13T10:41:54Z</time><name>PT2860</name></trkpt>
<trkpt lat="53.270493" lon="-1.990548"><ele>322</ele><time>2021-11-13T10:41:55Z</time><name>PT2861</name></trkpt>
<trkpt lat="53.270490" lon="-1.990564"><ele>322</ele><time>2021-11-13T10:41:56Z</time><name>PT2862</name></trkpt>
<trkpt lat="53.270497" lon="-1.990585"><ele>323</ele><time>2021-11-13T10:41:57Z</time><name>PT2863</name></trkpt>
<trkpt lat="53.270497" lon="-1.990596"><ele>322</ele><time>2021-11-13T10:41:58Z</time><name>PT2864</name></trkpt>
<trkpt lat="53.270501" lon="-1.990610"><ele>323</ele><time>2021-11-13T10:41:59Z</time><name>PT2865</name></trkpt>
<trkpt lat="53.270505" lon="-1.990619"><ele>323</ele><time>2021-11-13T10:42:00Z</time><name>PT2866</name></trkpt>
<trkpt lat="53.270503" lon="-1.990633"><ele>322</ele><time>2021-11-13T10:42:01Z</time><name>PT2867</name></trkpt>
<trkpt lat="53.270500" lon="-1.990644"><ele>320</ele><time>2021-11-13T10:42:02Z</time><name>PT2868</name></trkpt>
<trkpt lat="53.270504" lon="-1.990655"><ele>319</ele><time>2021-11-13T10:42:03Z</time><name>PT2869</name></trkpt>
<trkpt lat="53.270505" lon="-1.990668"><ele>320</ele><time>2021-11-13T10:42:04Z</time><name>PT2870</name></trkpt>
<trkpt lat="53.270509" lon="-1.990682"><ele>320</ele><time>2021-11-13T10:42:05Z</time><name>PT2871</name></trkpt>
<trkpt lat="53.270507" lon="-1.990692"><ele>320</ele><time>2021-11-13T10:42:06Z</time><name>PT2872</name></trkpt>
<trkpt lat="53.270506" lon="-1.990701"><ele>319</ele><time>2021-11-13T10:42:07Z</time><name>PT2873</name></trkpt>
<trkpt lat="53.270503" lon="-1.990713"><ele>318</ele><time>2021-11-13T10:42:08Z</time><name>PT2874</name></trkpt>
<trkpt lat="53.270503" lon="-1.990728"><ele>318</ele><time>2021-11-13T10:42:09Z</time><name>PT2875</name></trkpt>
<trkpt lat="53.270503" lon="-1.990740"><ele>318</ele><time>2021-11-13T10:42:10Z</time><name>PT2876</name></trkpt>
<trkpt lat="53.270509" lon="-1.990749"><ele>320</ele><time>2021-11-13T10:42:11Z</time><name>PT2877</name></trkpt>
<trkpt lat="53.270508" lon="-1.990761"><ele>319</ele><time>2021-11-13T10:42:12Z</time><name>PT2878</name></trkpt>
<trkpt lat="53.270506" lon="-1.990775"><ele>320</ele><time>2021-11-13T10:42:13Z</time><name>PT2879</name></trkpt>
<trkpt lat="53.270506" lon="-1.990790"><ele>320</ele><time>2021-11-13T10:42:14Z</time><name>PT2880</name></trkpt>
<trkpt lat="53.270507" lon="-1.990801"><ele>321</ele><time>2021-11-13T10:42:15Z</time><name>PT2881</name></trkpt>
<trkpt lat="53.270508" lon="-1.990815"><ele>321</ele><time>2021-11-13T10:42:16Z</time><name>PT2882</name></trkpt>
<trkpt lat="53.270511" lon="-1.990829"><ele>321</ele><time>2021-11-13T10:42:17Z</time><name>PT2883</name></trkpt>
<trkpt lat="53.270511" lon="-1.990848"><ele>321</ele><time>2021-11-13T10:42:18Z</time><name>PT2884</name></trkpt>
<trkpt lat="53.270514" lon="-1.990860"><ele>321</ele><time>2021-11-13T10:42:19Z</time><name>PT2885</name></trkpt>
<trkpt lat="53.270514" lon="-1.990872"><ele>320</ele><time>2021-11-13T10:42:20Z</time><name>PT2886</name></trkpt>
<trkpt lat="53.270514" lon="-1.990884"><ele>320</ele><time>2021-11-13T10:42:21Z</time><name>PT2887</name></trkpt>
<trkpt lat="53.270514" lon="-1.990894"><ele>319</ele><time>2021-11-13T10:42:22Z</time><name>PT2888</name></trkpt>
<trkpt lat="53.270513" lon="-1.990901"><ele>319</ele><time>2021-11-13T10:42:23Z</time><name>PT2889</name></trkpt>
<trkpt lat="53.270510" lon="-1.990919"><ele>319</ele><time>2021-11-13T10:42:24Z</time><name>PT2890</name></trkpt>
<trkpt lat="53.270512" lon="-1.990933"><ele>319</ele><time>2021-11-13T10:42:25Z</time><name>PT2891</name></trkpt>
<trkpt lat="53.270514" lon="-1.990946"><ele>319</ele><time>2021-11-13T10:42:26Z</time><name>PT2892</name></trkpt>
<trkpt lat="53.270515" lon="-1.990962"><ele>319</ele><time>2021-11-13T10:42:27Z</time><name>PT2893</name></trkpt>
<trkpt lat="53.270512" lon="-1.990970"><ele>318</ele><time>2021-11-13T10:42:28Z</time><name>PT2894</name></trkpt>
<trkpt lat="53.270510" lon="-1.990986"><ele>318</ele><time>2021-11-13T10:42:29Z</time><name>PT2895</name></trkpt>
<trkpt lat="53.270511" lon="-1.990999"><ele>317</ele><time>2021-11-13T10:42:30Z</time><name>PT2896</name></trkpt>
<trkpt lat="53.270518" lon="-1.991013"><ele>317</ele><time>2021-11-13T10:42:31Z</time><name>PT2897</name></trkpt>
<trkpt lat="53.270521" lon="-1.991023"><ele>318</ele><time>2021-11-13T10:42:32Z</time><name>PT2898</name></trkpt>
<trkpt lat="53.270527" lon="-1.991031"><ele>318</ele><time>2021-11-13T10:42:33Z</time><name>PT2899</name></trkpt>
<trkpt lat="53.270531" lon="-1.991042"><ele>318</ele><time>2021-11-13T10:42:34Z</time><name>PT2900</name></trkpt>
<trkpt lat="53.270531" lon="-1.991055"><ele>318</ele><time>2021-11-13T10:42:35Z</time><name>PT2901</name></trkpt>
<trkpt lat="53.270527" lon="-1.991065"><ele>317</ele><time>2021-11-13T10:42:36Z</time><name>PT2902</name></trkpt>
<trkpt lat="53.270528" lon="-1.991069"><ele>317</ele><time>2021-11-13T10:42:37Z</time><name>PT2903</name></trkpt>
<trkpt lat="53.270529" lon="-1.991076"><ele>317</ele><time>2021-11-13T10:42:38Z</time><name>PT2904</name></trkpt>
<trkpt lat="53.270532" lon="-1.991095"><ele>316</ele><time>2021-11-13T10:42:40Z</time><name>PT2905</name></trkpt>
<trkpt lat="53.270535" lon="-1.991123"><ele>316</ele><time>2021-11-13T10:42:41Z</time><name>PT2906</name></trkpt>
<trkpt lat="53.270539" lon="-1.991146"><ele>315</ele><time>2021-11-13T10:42:42Z</time><name>PT2907</name></trkpt>
<trkpt lat="53.270542" lon="-1.991164"><ele>314</ele><time>2021-11-13T10:42:43Z</time><name>PT2908</name></trkpt>
<trkpt lat="53.270545" lon="-1.991186"><ele>314</ele><time>2021-11-13T10:42:44Z</time><name>PT2909</name></trkpt>
<trkpt lat="53.270551" lon="-1.991194"><ele>313</ele><time>2021-11-13T10:42:45Z</time><name>PT2910</name></trkpt>
<trkpt lat="53.270556" lon="-1.991209"><ele>312</ele><time>2021-11-13T10:42:46Z</time><name>PT2911</name></trkpt>
<trkpt lat="53.270559" lon="-1.991224"><ele>312</ele><time>2021-11-13T10:42:47Z</time><name>PT2912</name></trkpt>
<trkpt lat="53.270564" lon="-1.991239"><ele>312</ele><time>2021-11-13T10:42:48Z</time><name>PT2913</name></trkpt>
<trkpt lat="53.270568" lon="-1.991254"><ele>311</ele><time>2021-11-13T10:42:49Z</time><name>PT2914</name></trkpt>
<trkpt lat="53.270568" lon="-1.991264"><ele>311</ele><time>2021-11-13T10:42:50Z</time><name>PT2915</name></trkpt>
<trkpt lat="53.270569" lon="-1.991277"><ele>311</ele><time>2021-11-13T10:42:51Z</time><name>PT2916</name></trkpt>
<trkpt lat="53.270570" lon="-1.991293"><ele>310</ele><time>2021-11-13T10:42:52Z</time><name>PT2917</name></trkpt>
<trkpt lat="53.270576" lon="-1.991303"><ele>310</ele><time>2021-11-13T10:42:53Z</time><name>PT2918</name></trkpt>
<trkpt lat="53.270583" lon="-1.991313"><ele>310</ele><time>2021-11-13T10:42:54Z</time><name>PT2919</name></trkpt>
<trkpt lat="53.270586" lon="-1.991323"><ele>310</ele><time>2021-11-13T10:42:55Z</time><name>PT2920</name></trkpt>
<trkpt lat="53.270585" lon="-1.991335"><ele>310</ele><time>2021-11-13T10:42:56Z</time><name>PT2921</name></trkpt>
<trkpt lat="53.270584" lon="-1.991344"><ele>309</ele><time>2021-11-13T10:42:57Z</time><name>PT2922</name></trkpt>
<trkpt lat="53.270582" lon="-1.991359"><ele>309</ele><time>2021-11-13T10:43:07Z</time><name>PT2923</name></trkpt>
<trkpt lat="53.270581" lon="-1.991378"><ele>308</ele><time>2021-11-13T10:43:08Z</time><name>PT2924</name></trkpt>
<trkpt lat="53.270579" lon="-1.991392"><ele>308</ele><time>2021-11-13T10:43:09Z</time><name>PT2925</name></trkpt>
<trkpt lat="53.270576" lon="-1.991403"><ele>308</ele><time>2021-11-13T10:43:10Z</time><name>PT2926</name></trkpt>
<trkpt lat="53.270575" lon="-1.991423"><ele>307</ele><time>2021-11-13T10:43:11Z</time><name>PT2927</name></trkpt>
<trkpt lat="53.270574" lon="-1.991444"><ele>307</ele><time>2021-11-13T10:43:12Z</time><name>PT2928</name></trkpt>
<trkpt lat="53.270572" lon="-1.991468"><ele>306</ele><time>2021-11-13T10:43:13Z</time><name>PT2929</name></trkpt>
<trkpt lat="53.270562" lon="-1.991486"><ele>306</ele><time>2021-11-13T10:43:14Z</time><name>PT2930</name></trkpt>
<trkpt lat="53.270558" lon="-1.991502"><ele>306</ele><time>2021-11-13T10:43:15Z</time><name>PT2931</name></trkpt>
<trkpt lat="53.270554" lon="-1.991517"><ele>305</ele><time>2021-11-13T10:43:16Z</time><name>PT2932</name></trkpt>
<trkpt lat="53.270554" lon="-1.991531"><ele>305</ele><time>2021-11-13T10:43:17Z</time><name>PT2933</name></trkpt>
<trkpt lat="53.270549" lon="-1.991545"><ele>304</ele><time>2021-11-13T10:43:18Z</time><name>PT2934</name></trkpt>
<trkpt lat="53.270555" lon="-1.991557"><ele>304</ele><time>2021-11-13T10:43:19Z</time><name>PT2935</name></trkpt>
<trkpt lat="53.270556" lon="-1.991567"><ele>304</ele><time>2021-11-13T10:43:20Z</time><name>PT2936</name></trkpt>
<trkpt lat="53.270554" lon="-1.991579"><ele>303</ele><time>2021-11-13T10:43:21Z</time><name>PT2937</name></trkpt>
<trkpt lat="53.270541" lon="-1.991649"><ele>302</ele><time>2021-11-13T10:43:32Z</time><name>PT2938</name></trkpt>
<trkpt lat="53.270519" lon="-1.991785"><ele>300</ele><time>2021-11-13T10:43:36Z</time><name>PT2939</name></trkpt>
<trkpt lat="53.270503" lon="-1.991883"><ele>299</ele><time>2021-11-13T10:43:40Z</time><name>PT2940</name></trkpt>
<trkpt lat="53.270497" lon="-1.991961"><ele>297</ele><time>2021-11-13T10:43:44Z</time><name>PT2941</name></trkpt>
<trkpt lat="53.270489" lon="-1.992011"><ele>295</ele><time>2021-11-13T10:43:48Z</time><name>PT2942</name></trkpt>
<trkpt lat="53.270503" lon="-1.992080"><ele>294</ele><time>2021-11-13T10:43:52Z</time><name>PT2943</name></trkpt>
<trkpt lat="53.270519" lon="-1.992132"><ele>293</ele><time>2021-11-13T10:43:56Z</time><name>PT2944</name></trkpt>
<trkpt lat="53.270537" lon="-1.992166"><ele>293</ele><time>2021-11-13T10:44:00Z</time><name>PT2945</name></trkpt>
<trkpt lat="53.270538" lon="-1.992188"><ele>294</ele><time>2021-11-13T10:44:04Z</time><name>PT2946</name></trkpt>
<trkpt lat="53.270547" lon="-1.992182"><ele>300</ele><time>2021-11-13T10:44:24Z</time><name>PT2947</name></trkpt>
<trkpt lat="53.270583" lon="-1.992167"><ele>302</ele><time>2021-11-13T10:44:28Z</time><name>PT2948</name></trkpt>
<trkpt lat="53.270597" lon="-1.992134"><ele>304</ele><time>2021-11-13T10:44:32Z</time><name>PT2949</name></trkpt>
<trkpt lat="53.270630" lon="-1.992111"><ele>306</ele><time>2021-11-13T10:44:36Z</time><name>PT2950</name></trkpt>
<trkpt lat="53.270646" lon="-1.992083"><ele>307</ele><time>2021-11-13T10:44:40Z</time><name>PT2951</name></trkpt>
<trkpt lat="53.270663" lon="-1.992064"><ele>309</ele><time>2021-11-13T10:44:44Z</time><name>PT2952</name></trkpt>
<trkpt lat="53.270677" lon="-1.992065"><ele>309</ele><time>2021-11-13T10:44:48Z</time><name>PT2953</name></trkpt>
<trkpt lat="53.270684" lon="-1.992041"><ele>309</ele><time>2021-11-13T10:44:52Z</time><name>PT2954</name></trkpt>
<trkpt lat="53.270700" lon="-1.992034"><ele>311</ele><time>2021-11-13T10:44:56Z</time><name>PT2955</name></trkpt>
<trkpt lat="53.270715" lon="-1.992012"><ele>313</ele><time>2021-11-13T10:45:00Z</time><name>PT2956</name></trkpt>
<trkpt lat="53.270727" lon="-1.992000"><ele>314</ele><time>2021-11-13T10:45:04Z</time><name>PT2957</name></trkpt>
<trkpt lat="53.270741" lon="-1.991950"><ele>316</ele><time>2021-11-13T10:45:08Z</time><name>PT2958</name></trkpt>
<trkpt lat="53.270750" lon="-1.991905"><ele>316</ele><time>2021-11-13T10:45:12Z</time><name>PT2959</name></trkpt>
<trkpt lat="53.270745" lon="-1.991864"><ele>316</ele><time>2021-11-13T10:45:16Z</time><name>PT2960</name></trkpt>
<trkpt lat="53.270759" lon="-1.991813"><ele>316</ele><time>2021-11-13T10:45:20Z</time><name>PT2961</name></trkpt>
<trkpt lat="53.270771" lon="-1.991769"><ele>316</ele><time>2021-11-13T10:45:24Z</time><name>PT2962</name></trkpt>
<trkpt lat="53.270783" lon="-1.991726"><ele>316</ele><time>2021-11-13T10:45:28Z</time><name>PT2963</name></trkpt>
<trkpt lat="53.270807" lon="-1.991679"><ele>317</ele><time>2021-11-13T10:45:32Z</time><name>PT2964</name></trkpt>
<trkpt lat="53.270826" lon="-1.991631"><ele>317</ele><time>2021-11-13T10:45:36Z</time><name>PT2965</name></trkpt>
<trkpt lat="53.270832" lon="-1.991583"><ele>319</ele><time>2021-11-13T10:45:40Z</time><name>PT2966</name></trkpt>
<trkpt lat="53.270842" lon="-1.991538"><ele>319</ele><time>2021-11-13T10:45:44Z</time><name>PT2967</name></trkpt>
<trkpt lat="53.270844" lon="-1.991479"><ele>321</ele><time>2021-11-13T10:45:48Z</time><name>PT2968</name></trkpt>
<trkpt lat="53.270847" lon="-1.991416"><ele>322</ele><time>2021-11-13T10:45:52Z</time><name>PT2969</name></trkpt>
<trkpt lat="53.270853" lon="-1.991348"><ele>324</ele><time>2021-11-13T10:45:56Z</time><name>PT2970</name></trkpt>
<trkpt lat="53.270853" lon="-1.991279"><ele>325</ele><time>2021-11-13T10:46:00Z</time><name>PT2971</name></trkpt>
<trkpt lat="53.270862" lon="-1.991240"><ele>325</ele><time>2021-11-13T10:46:04Z</time><name>PT2972</name></trkpt>
<trkpt lat="53.270883" lon="-1.991220"><ele>322</ele><time>2021-11-13T10:46:08Z</time><name>PT2973</name></trkpt>
<trkpt lat="53.270909" lon="-1.991161"><ele>321</ele><time>2021-11-13T10:46:12Z</time><name>PT2974</name></trkpt>
<trkpt lat="53.270909" lon="-1.991084"><ele>321</ele><time>2021-11-13T10:46:16Z</time><name>PT2975</name></trkpt>
<trkpt lat="53.270921" lon="-1.991018"><ele>322</ele><time>2021-11-13T10:46:20Z</time><name>PT2976</name></trkpt>
<trkpt lat="53.270921" lon="-1.990957"><ele>323</ele><time>2021-11-13T10:46:24Z</time><name>PT2977</name></trkpt>
<trkpt lat="53.270940" lon="-1.990903"><ele>324</ele><time>2021-11-13T10:46:28Z</time><name>PT2978</name></trkpt>
<trkpt lat="53.270937" lon="-1.990846"><ele>323</ele><time>2021-11-13T10:46:32Z</time><name>PT2979</name></trkpt>
<trkpt lat="53.270928" lon="-1.990801"><ele>322</ele><time>2021-11-13T10:46:36Z</time><name>PT2980</name></trkpt>
<trkpt lat="53.270930" lon="-1.990711"><ele>324</ele><time>2021-11-13T10:46:40Z</time><name>PT2981</name></trkpt>
<trkpt lat="53.270930" lon="-1.990653"><ele>327</ele><time>2021-11-13T10:46:44Z</time><name>PT2982</name></trkpt>
<trkpt lat="53.270918" lon="-1.990572"><ele>329</ele><time>2021-11-13T10:46:48Z</time><name>PT2983</name></trkpt>
<trkpt lat="53.270912" lon="-1.990501"><ele>330</ele><time>2021-11-13T10:46:52Z</time><name>PT2984</name></trkpt>
<trkpt lat="53.270912" lon="-1.990440"><ele>328</ele><time>2021-11-13T10:46:56Z</time><name>PT2985</name></trkpt>
<trkpt lat="53.270913" lon="-1.990375"><ele>328</ele><time>2021-11-13T10:47:00Z</time><name>PT2986</name></trkpt>
<trkpt lat="53.270911" lon="-1.990311"><ele>329</ele><time>2021-11-13T10:47:04Z</time><name>PT2987</name></trkpt>
<trkpt lat="53.270920" lon="-1.990265"><ele>328</ele><time>2021-11-13T10:47:08Z</time><name>PT2988</name></trkpt>
<trkpt lat="53.270937" lon="-1.990219"><ele>327</ele><time>2021-11-13T10:47:12Z</time><name>PT2989</name></trkpt>
<trkpt lat="53.270947" lon="-1.990157"><ele>328</ele><time>2021-11-13T10:47:16Z</time><name>PT2990</name></trkpt>
<trkpt lat="53.270963" lon="-1.990107"><ele>329</ele><time>2021-11-13T10:47:20Z</time><name>PT2991</name></trkpt>
<trkpt lat="53.270963" lon="-1.990054"><ele>328</ele><time>2021-11-13T10:47:24Z</time><name>PT2992</name></trkpt>
<trkpt lat="53.270968" lon="-1.989994"><ele>328</ele><time>2021-11-13T10:47:28Z</time><name>PT2993</name></trkpt>
<trkpt lat="53.270987" lon="-1.989942"><ele>329</ele><time>2021-11-13T10:47:32Z</time><name>PT2994</name></trkpt>
<trkpt lat="53.271009" lon="-1.989863"><ele>331</ele><time>2021-11-13T10:47:36Z</time><name>PT2995</name></trkpt>
<trkpt lat="53.271034" lon="-1.989793"><ele>331</ele><time>2021-11-13T10:47:40Z</time><name>PT2996</name></trkpt>
<trkpt lat="53.271051" lon="-1.989714"><ele>332</ele><time>2021-11-13T10:47:44Z</time><name>PT2997</name></trkpt>
<trkpt lat="53.271087" lon="-1.989652"><ele>333</ele><time>2021-11-13T10:47:48Z</time><name>PT2998</name></trkpt>
<trkpt lat="53.271108" lon="-1.989589"><ele>334</ele><time>2021-11-13T10:47:52Z</time><name>PT2999</name></trkpt>
<trkpt lat="53.271139" lon="-1.989527"><ele>335</ele><time>2021-11-13T10:47:56Z</time><name>PT3000</name></trkpt>
<trkpt lat="53.271168" lon="-1.989475"><ele>336</ele><time>2021-11-13T10:48:00Z</time><name>PT3001</name></trkpt>
<trkpt lat="53.271201" lon="-1.989415"><ele>336</ele><time>2021-11-13T10:48:04Z</time><name>PT3002</name></trkpt>
<trkpt lat="53.271228" lon="-1.989374"><ele>336</ele><time>2021-11-13T10:48:08Z</time><name>PT3003</name></trkpt>
<trkpt lat="53.271256" lon="-1.989331"><ele>336</ele><time>2021-11-13T10:48:12Z</time><name>PT3004</name></trkpt>
<trkpt lat="53.271272" lon="-1.989265"><ele>338</ele><time>2021-11-13T10:48:16Z</time><name>PT3005</name></trkpt>
<trkpt lat="53.271301" lon="-1.989218"><ele>337</ele><time>2021-11-13T10:48:20Z</time><name>PT3006</name></trkpt>
<trkpt lat="53.271326" lon="-1.989167"><ele>339</ele><time>2021-11-13T10:48:24Z</time><name>PT3007</name></trkpt>
<trkpt lat="53.271331" lon="-1.989143"><ele>340</ele><time>2021-11-13T10:48:26Z</time><name>PT3008</name></trkpt>
<trkpt lat="53.271336" lon="-1.989128"><ele>340</ele><time>2021-11-13T10:48:27Z</time><name>PT3009</name></trkpt>
<trkpt lat="53.271346" lon="-1.989118"><ele>340</ele><time>2021-11-13T10:48:28Z</time><name>PT3010</name></trkpt>
<trkpt lat="53.271349" lon="-1.989110"><ele>341</ele><time>2021-11-13T10:48:29Z</time><name>PT3011</name></trkpt>
<trkpt lat="53.271352" lon="-1.989100"><ele>341</ele><time>2021-11-13T10:48:30Z</time><name>PT3012</name></trkpt>
<trkpt lat="53.271355" lon="-1.989091"><ele>342</ele><time>2021-11-13T10:48:31Z</time><name>PT3013</name></trkpt>
<trkpt lat="53.271348" lon="-1.989075"><ele>342</ele><time>2021-11-13T10:48:32Z</time><name>PT3014</name></trkpt>
<trkpt lat="53.271358" lon="-1.989060"><ele>342</ele><time>2021-11-13T10:48:33Z</time><name>PT3015</name></trkpt>
<trkpt lat="53.271369" lon="-1.989046"><ele>340</ele><time>2021-11-13T10:48:34Z</time><name>PT3016</name></trkpt>
<trkpt lat="53.271377" lon="-1.989032"><ele>339</ele><time>2021-11-13T10:48:35Z</time><name>PT3017</name></trkpt>
<trkpt lat="53.271383" lon="-1.989024"><ele>339</ele><time>2021-11-13T10:48:36Z</time><name>PT3018</name></trkpt>
<trkpt lat="53.271382" lon="-1.988999"><ele>340</ele><time>2021-11-13T10:48:37Z</time><name>PT3019</name></trkpt>
<trkpt lat="53.271385" lon="-1.988987"><ele>340</ele><time>2021-11-13T10:48:38Z</time><name>PT3020</name></trkpt>
<trkpt lat="53.271384" lon="-1.988974"><ele>340</ele><time>2021-11-13T10:48:39Z</time><name>PT3021</name></trkpt>
<trkpt lat="53.271386" lon="-1.988965"><ele>339</ele><time>2021-11-13T10:48:40Z</time><name>PT3022</name></trkpt>
<trkpt lat="53.271399" lon="-1.988961"><ele>338</ele><time>2021-11-13T10:48:41Z</time><name>PT3023</name></trkpt>
<trkpt lat="53.271403" lon="-1.988949"><ele>338</ele><time>2021-11-13T10:48:42Z</time><name>PT3024</name></trkpt>
<trkpt lat="53.271416" lon="-1.988937"><ele>338</ele><time>2021-11-13T10:48:43Z</time><name>PT3025</name></trkpt>
<trkpt lat="53.271418" lon="-1.988936"><ele>338</ele><time>2021-11-13T10:48:44Z</time><name>PT3026</name></trkpt>
<trkpt lat="53.271419" lon="-1.988917"><ele>338</ele><time>2021-11-13T10:48:45Z</time><name>PT3027</name></trkpt>
<trkpt lat="53.271423" lon="-1.988899"><ele>338</ele><time>2021-11-13T10:48:46Z</time><name>PT3028</name></trkpt>
<trkpt lat="53.271429" lon="-1.988879"><ele>339</ele><time>2021-11-13T10:48:47Z</time><name>PT3029</name></trkpt>
<trkpt lat="53.271434" lon="-1.988864"><ele>338</ele><time>2021-11-13T10:48:48Z</time><name>PT3030</name></trkpt>
<trkpt lat="53.271439" lon="-1.988841"><ele>339</ele><time>2021-11-13T10:48:49Z</time><name>PT3031</name></trkpt>
<trkpt lat="53.271441" lon="-1.988823"><ele>339</ele><time>2021-11-13T10:48:50Z</time><name>PT3032</name></trkpt>
<trkpt lat="53.271456" lon="-1.988819"><ele>336</ele><time>2021-11-13T10:48:51Z</time><name>PT3033</name></trkpt>
<trkpt lat="53.271468" lon="-1.988807"><ele>335</ele><time>2021-11-13T10:48:52Z</time><name>PT3034</name></trkpt>
<trkpt lat="53.271477" lon="-1.988795"><ele>334</ele><time>2021-11-13T10:48:53Z</time><name>PT3035</name></trkpt>
<trkpt lat="53.271486" lon="-1.988774"><ele>335</ele><time>2021-11-13T10:48:54Z</time><name>PT3036</name></trkpt>
<trkpt lat="53.271490" lon="-1.988761"><ele>335</ele><time>2021-11-13T10:48:55Z</time><name>PT3037</name></trkpt>
<trkpt lat="53.271493" lon="-1.988753"><ele>335</ele><time>2021-11-13T10:48:56Z</time><name>PT3038</name></trkpt>
<trkpt lat="53.271501" lon="-1.988745"><ele>335</ele><time>2021-11-13T10:48:57Z</time><name>PT3039</name></trkpt>
<trkpt lat="53.271513" lon="-1.988728"><ele>335</ele><time>2021-11-13T10:48:58Z</time><name>PT3040</name></trkpt>
<trkpt lat="53.271519" lon="-1.988713"><ele>335</ele><time>2021-11-13T10:48:59Z</time><name>PT3041</name></trkpt>
<trkpt lat="53.271526" lon="-1.988691"><ele>336</ele><time>2021-11-13T10:49:00Z</time><name>PT3042</name></trkpt>
<trkpt lat="53.271533" lon="-1.988650"><ele>338</ele><time>2021-11-13T10:49:01Z</time><name>PT3043</name></trkpt>
<trkpt lat="53.271534" lon="-1.988635"><ele>337</ele><time>2021-11-13T10:49:02Z</time><name>PT3044</name></trkpt>
<trkpt lat="53.271538" lon="-1.988628"><ele>337</ele><time>2021-11-13T10:49:03Z</time><name>PT3045</name></trkpt>
<trkpt lat="53.271540" lon="-1.988621"><ele>337</ele><time>2021-11-13T10:49:04Z</time><name>PT3046</name></trkpt>
<trkpt lat="53.271547" lon="-1.988614"><ele>337</ele><time>2021-11-13T10:49:05Z</time><name>PT3047</name></trkpt>
<trkpt lat="53.271543" lon="-1.988612"><ele>338</ele><time>2021-11-13T10:49:06Z</time><name>PT3048</name></trkpt>
<trkpt lat="53.271537" lon="-1.988610"><ele>337</ele><time>2021-11-13T10:49:07Z</time><name>PT3049</name></trkpt>
<trkpt lat="53.271540" lon="-1.988618"><ele>337</ele><time>2021-11-13T10:49:08Z</time><name>PT3050</name></trkpt>
<trkpt lat="53.271544" lon="-1.988629"><ele>337</ele><time>2021-11-13T10:49:09Z</time><name>PT3051</name></trkpt>
<trkpt lat="53.271541" lon="-1.988639"><ele>337</ele><time>2021-11-13T10:49:10Z</time><name>PT3052</name></trkpt>
<trkpt lat="53.271545" lon="-1.988652"><ele>337</ele><time>2021-11-13T10:49:11Z</time><name>PT3053</name></trkpt>
<trkpt lat="53.271547" lon="-1.988659"><ele>336</ele><time>2021-11-13T10:49:12Z</time><name>PT3054</name></trkpt>
<trkpt lat="53.271550" lon="-1.988674"><ele>336</ele><time>2021-11-13T10:49:13Z</time><name>PT3055</name></trkpt>
<trkpt lat="53.271549" lon="-1.988685"><ele>336</ele><time>2021-11-13T10:49:14Z</time><name>PT3056</name></trkpt>
<trkpt lat="53.271554" lon="-1.988702"><ele>337</ele><time>2021-11-13T10:49:15Z</time><name>PT3057</name></trkpt>
<trkpt lat="53.271554" lon="-1.988710"><ele>337</ele><time>2021-11-13T10:49:16Z</time><name>PT3058</name></trkpt>
<trkpt lat="53.271554" lon="-1.988723"><ele>337</ele><time>2021-11-13T10:49:17Z</time><name>PT3059</name></trkpt>
<trkpt lat="53.271555" lon="-1.988736"><ele>337</ele><time>2021-11-13T10:49:18Z</time><name>PT3060</name></trkpt>
<trkpt lat="53.271549" lon="-1.988742"><ele>338</ele><time>2021-11-13T10:49:19Z</time><name>PT3061</name></trkpt>
<trkpt lat="53.271556" lon="-1.988757"><ele>338</ele><time>2021-11-13T10:49:20Z</time><name>PT3062</name></trkpt>
<trkpt lat="53.271559" lon="-1.988770"><ele>338</ele><time>2021-11-13T10:49:21Z</time><name>PT3063</name></trkpt>
<trkpt lat="53.271560" lon="-1.988782"><ele>339</ele><time>2021-11-13T10:49:22Z</time><name>PT3064</name></trkpt>
<trkpt lat="53.271567" lon="-1.988797"><ele>338</ele><time>2021-11-13T10:49:23Z</time><name>PT3065</name></trkpt>
<trkpt lat="53.271565" lon="-1.988805"><ele>338</ele><time>2021-11-13T10:49:24Z</time><name>PT3066</name></trkpt>
<trkpt lat="53.271562" lon="-1.988815"><ele>339</ele><time>2021-11-13T10:49:25Z</time><name>PT3067</name></trkpt>
<trkpt lat="53.271553" lon="-1.988825"><ele>340</ele><time>2021-11-13T10:49:26Z</time><name>PT3068</name></trkpt>
<trkpt lat="53.271551" lon="-1.988836"><ele>340</ele><time>2021-11-13T10:49:27Z</time><name>PT3069</name></trkpt>
<trkpt lat="53.271549" lon="-1.988843"><ele>341</ele><time>2021-11-13T10:49:28Z</time><name>PT3070</name></trkpt>
<trkpt lat="53.271550" lon="-1.988858"><ele>341</ele><time>2021-11-13T10:49:29Z</time><name>PT3071</name></trkpt>
<trkpt lat="53.271553" lon="-1.988867"><ele>341</ele><time>2021-11-13T10:49:30Z</time><name>PT3072</name></trkpt>
<trkpt lat="53.271553" lon="-1.988874"><ele>341</ele><time>2021-11-13T10:49:31Z</time><name>PT3073</name></trkpt>
<trkpt lat="53.271555" lon="-1.988889"><ele>341</ele><time>2021-11-13T10:49:32Z</time><name>PT3074</name></trkpt>
<trkpt lat="53.271559" lon="-1.988902"><ele>341</ele><time>2021-11-13T10:49:33Z</time><name>PT3075</name></trkpt>
<trkpt lat="53.271559" lon="-1.988911"><ele>341</ele><time>2021-11-13T10:49:34Z</time><name>PT3076</name></trkpt>
<trkpt lat="53.271561" lon="-1.988925"><ele>341</ele><time>2021-11-13T10:49:35Z</time><name>PT3077</name></trkpt>
<trkpt lat="53.271559" lon="-1.988943"><ele>341</ele><time>2021-11-13T10:49:36Z</time><name>PT3078</name></trkpt>
<trkpt lat="53.271566" lon="-1.988962"><ele>340</ele><time>2021-11-13T10:49:37Z</time><name>PT3079</name></trkpt>
<trkpt lat="53.271563" lon="-1.988971"><ele>340</ele><time>2021-11-13T10:49:38Z</time><name>PT3080</name></trkpt>
<trkpt lat="53.271558" lon="-1.988979"><ele>341</ele><time>2021-11-13T10:49:39Z</time><name>PT3081</name></trkpt>
<trkpt lat="53.271556" lon="-1.988991"><ele>342</ele><time>2021-11-13T10:49:40Z</time><name>PT3082</name></trkpt>
<trkpt lat="53.271553" lon="-1.989004"><ele>343</ele><time>2021-11-13T10:49:41Z</time><name>PT3083</name></trkpt>
<trkpt lat="53.271552" lon="-1.989014"><ele>343</ele><time>2021-11-13T10:49:42Z</time><name>PT3084</name></trkpt>
<trkpt lat="53.271554" lon="-1.989021"><ele>344</ele><time>2021-11-13T10:49:43Z</time><name>PT3085</name></trkpt>
<trkpt lat="53.271554" lon="-1.989033"><ele>344</ele><time>2021-11-13T10:49:44Z</time><name>PT3086</name></trkpt>
<trkpt lat="53.271553" lon="-1.989041"><ele>343</ele><time>2021-11-13T10:49:45Z</time><name>PT3087</name></trkpt>
<trkpt lat="53.271548" lon="-1.989057"><ele>343</ele><time>2021-11-13T10:49:46Z</time><name>PT3088</name></trkpt>
<trkpt lat="53.271545" lon="-1.989076"><ele>343</ele><time>2021-11-13T10:49:47Z</time><name>PT3089</name></trkpt>
<trkpt lat="53.271538" lon="-1.989089"><ele>343</ele><time>2021-11-13T10:49:48Z</time><name>PT3090</name></trkpt>
<trkpt lat="53.271537" lon="-1.989110"><ele>343</ele><time>2021-11-13T10:49:49Z</time><name>PT3091</name></trkpt>
<trkpt lat="53.271541" lon="-1.989126"><ele>344</ele><time>2021-11-13T10:49:50Z</time><name>PT3092</name></trkpt>
<trkpt lat="53.271542" lon="-1.989135"><ele>343</ele><time>2021-11-13T10:49:51Z</time><name>PT3093</name></trkpt>
<trkpt lat="53.271539" lon="-1.989143"><ele>344</ele><time>2021-11-13T10:49:52Z</time><name>PT3094</name></trkpt>
<trkpt lat="53.271543" lon="-1.989159"><ele>344</ele><time>2021-11-13T10:49:53Z</time><name>PT3095</name></trkpt>
<trkpt lat="53.271550" lon="-1.989175"><ele>344</ele><time>2021-11-13T10:49:54Z</time><name>PT3096</name></trkpt>
<trkpt lat="53.271550" lon="-1.989185"><ele>345</ele><time>2021-11-13T10:49:55Z</time><name>PT3097</name></trkpt>
<trkpt lat="53.271556" lon="-1.989201"><ele>345</ele><time>2021-11-13T10:49:56Z</time><name>PT3098</name></trkpt>
<trkpt lat="53.271562" lon="-1.989210"><ele>344</ele><time>2021-11-13T10:49:57Z</time><name>PT3099</name></trkpt>
<trkpt lat="53.271562" lon="-1.989215"><ele>346</ele><time>2021-11-13T10:49:58Z</time><name>PT3100</name></trkpt>
<trkpt lat="53.271565" lon="-1.989221"><ele>345</ele><time>2021-11-13T10:49:59Z</time><name>PT3101</name></trkpt>
<trkpt lat="53.271562" lon="-1.989226"><ele>345</ele><time>2021-11-13T10:50:00Z</time><name>PT3102</name></trkpt>
<trkpt lat="53.271567" lon="-1.989242"><ele>345</ele><time>2021-11-13T10:50:01Z</time><name>PT3103</name></trkpt>
<trkpt lat="53.271565" lon="-1.989250"><ele>347</ele><time>2021-11-13T10:50:02Z</time><name>PT3104</name></trkpt>
<trkpt lat="53.271564" lon="-1.989259"><ele>348</ele><time>2021-11-13T10:50:03Z</time><name>PT3105</name></trkpt>
<trkpt lat="53.271567" lon="-1.989279"><ele>348</ele><time>2021-11-13T10:50:04Z</time><name>PT3106</name></trkpt>
<trkpt lat="53.271569" lon="-1.989293"><ele>348</ele><time>2021-11-13T10:50:05Z</time><name>PT3107</name></trkpt>
<trkpt lat="53.271568" lon="-1.989305"><ele>348</ele><time>2021-11-13T10:50:06Z</time><name>PT3108</name></trkpt>
<trkpt lat="53.271567" lon="-1.989315"><ele>349</ele><time>2021-11-13T10:50:07Z</time><name>PT3109</name></trkpt>
<trkpt lat="53.271558" lon="-1.989330"><ele>350</ele><time>2021-11-13T10:50:08Z</time><name>PT3110</name></trkpt>
<trkpt lat="53.271564" lon="-1.989348"><ele>349</ele><time>2021-11-13T10:50:09Z</time><name>PT3111</name></trkpt>
<trkpt lat="53.271569" lon="-1.989359"><ele>350</ele><time>2021-11-13T10:50:10Z</time><name>PT3112</name></trkpt>
<trkpt lat="53.271569" lon="-1.989371"><ele>351</ele><time>2021-11-13T10:50:11Z</time><name>PT3113</name></trkpt>
<trkpt lat="53.271571" lon="-1.989382"><ele>351</ele><time>2021-11-13T10:50:12Z</time><name>PT3114</name></trkpt>
<trkpt lat="53.271574" lon="-1.989395"><ele>351</ele><time>2021-11-13T10:50:13Z</time><name>PT3115</name></trkpt>
<trkpt lat="53.271577" lon="-1.989409"><ele>351</ele><time>2021-11-13T10:50:14Z</time><name>PT3116</name></trkpt>
<trkpt lat="53.271575" lon="-1.989420"><ele>351</ele><time>2021-11-13T10:50:15Z</time><name>PT3117</name></trkpt>
<trkpt lat="53.271580" lon="-1.989430"><ele>351</ele><time>2021-11-13T10:50:16Z</time><name>PT3118</name></trkpt>
<trkpt lat="53.271588" lon="-1.989438"><ele>351</ele><time>2021-11-13T10:50:17Z</time><name>PT3119</name></trkpt>
<trkpt lat="53.271588" lon="-1.989447"><ele>351</ele><time>2021-11-13T10:50:18Z</time><name>PT3120</name></trkpt>
<trkpt lat="53.271590" lon="-1.989455"><ele>352</ele><time>2021-11-13T10:50:19Z</time><name>PT3121</name></trkpt>
<trkpt lat="53.271592" lon="-1.989468"><ele>353</ele><time>2021-11-13T10:50:20Z</time><name>PT3122</name></trkpt>
<trkpt lat="53.271592" lon="-1.989488"><ele>354</ele><time>2021-11-13T10:50:21Z</time><name>PT3123</name></trkpt>
<trkpt lat="53.271587" lon="-1.989505"><ele>355</ele><time>2021-11-13T10:50:22Z</time><name>PT3124</name></trkpt>
<trkpt lat="53.271580" lon="-1.989512"><ele>355</ele><time>2021-11-13T10:50:23Z</time><name>PT3125</name></trkpt>
<trkpt lat="53.271577" lon="-1.989523"><ele>356</ele><time>2021-11-13T10:50:24Z</time><name>PT3126</name></trkpt>
<trkpt lat="53.271578" lon="-1.989538"><ele>356</ele><time>2021-11-13T10:50:25Z</time><name>PT3127</name></trkpt>
<trkpt lat="53.271586" lon="-1.989594"><ele>355</ele><time>2021-11-13T10:50:28Z</time><name>PT3128</name></trkpt>
<trkpt lat="53.271582" lon="-1.989673"><ele>355</ele><time>2021-11-13T10:50:32Z</time><name>PT3129</name></trkpt>
<trkpt lat="53.271588" lon="-1.989731"><ele>355</ele><time>2021-11-13T10:50:36Z</time><name>PT3130</name></trkpt>
<trkpt lat="53.271608" lon="-1.989787"><ele>354</ele><time>2021-11-13T10:50:40Z</time><name>PT3131</name></trkpt>
<trkpt lat="53.271606" lon="-1.989839"><ele>355</ele><time>2021-11-13T10:50:44Z</time><name>PT3132</name></trkpt>
<trkpt lat="53.271614" lon="-1.989879"><ele>354</ele><time>2021-11-13T10:50:48Z</time><name>PT3133</name></trkpt>
<trkpt lat="53.271620" lon="-1.989949"><ele>356</ele><time>2021-11-13T10:50:52Z</time><name>PT3134</name></trkpt>
<trkpt lat="53.271617" lon="-1.990002"><ele>359</ele><time>2021-11-13T10:50:56Z</time><name>PT3135</name></trkpt>
<trkpt lat="53.271630" lon="-1.990067"><ele>359</ele><time>2021-11-13T10:51:00Z</time><name>PT3136</name></trkpt>
<trkpt lat="53.271638" lon="-1.990100"><ele>362</ele><time>2021-11-13T10:51:04Z</time><name>PT3137</name></trkpt>
<trkpt lat="53.271654" lon="-1.990120"><ele>363</ele><time>2021-11-13T10:51:08Z</time><name>PT3138</name></trkpt>
<trkpt lat="53.271673" lon="-1.990153"><ele>364</ele><time>2021-11-13T10:51:12Z</time><name>PT3139</name></trkpt>
<trkpt lat="53.271684" lon="-1.990159"><ele>365</ele><time>2021-11-13T10:51:16Z</time><name>PT3140</name></trkpt>
<trkpt lat="53.271704" lon="-1.990166"><ele>365</ele><time>2021-11-13T10:51:20Z</time><name>PT3141</name></trkpt>
<trkpt lat="53.271741" lon="-1.990138"><ele>366</ele><time>2021-11-13T10:51:24Z</time><name>PT3142</name></trkpt>
<trkpt lat="53.271766" lon="-1.990154"><ele>368</ele><time>2021-11-13T10:51:28Z</time><name>PT3143</name></trkpt>
<trkpt lat="53.271775" lon="-1.990153"><ele>368</ele><time>2021-11-13T10:51:32Z</time><name>PT3144</name></trkpt>
<trkpt lat="53.271793" lon="-1.990173"><ele>368</ele><time>2021-11-13T10:51:36Z</time><name>PT3145</name></trkpt>
<trkpt lat="53.271828" lon="-1.990204"><ele>368</ele><time>2021-11-13T10:51:40Z</time><name>PT3146</name></trkpt>
<trkpt lat="53.271867" lon="-1.990262"><ele>366</ele><time>2021-11-13T10:51:44Z</time><name>PT3147</name></trkpt>
<trkpt lat="53.271887" lon="-1.990274"><ele>366</ele><time>2021-11-13T10:51:48Z</time><name>PT3148</name></trkpt>
<trkpt lat="53.271926" lon="-1.990309"><ele>365</ele><time>2021-11-13T10:51:52Z</time><name>PT3149</name></trkpt>
<trkpt lat="53.271949" lon="-1.990356"><ele>364</ele><time>2021-11-13T10:51:56Z</time><name>PT3150</name></trkpt>
<trkpt lat="53.271974" lon="-1.990372"><ele>365</ele><time>2021-11-13T10:52:00Z</time><name>PT3151</name></trkpt>
<trkpt lat="53.271979" lon="-1.990399"><ele>365</ele><time>2021-11-13T10:52:04Z</time><name>PT3152</name></trkpt>
<trkpt lat="53.271998" lon="-1.990431"><ele>366</ele><time>2021-11-13T10:52:08Z</time><name>PT3153</name></trkpt>
<trkpt lat="53.272016" lon="-1.990465"><ele>368</ele><time>2021-11-13T10:52:12Z</time><name>PT3154</name></trkpt>
<trkpt lat="53.272036" lon="-1.990502"><ele>369</ele><time>2021-11-13T10:52:16Z</time><name>PT3155</name></trkpt>
<trkpt lat="53.272051" lon="-1.990528"><ele>371</ele><time>2021-11-13T10:52:20Z</time><name>PT3156</name></trkpt>
<trkpt lat="53.272063" lon="-1.990561"><ele>372</ele><time>2021-11-13T10:52:24Z</time><name>PT3157</name></trkpt>
<trkpt lat="53.272073" lon="-1.990594"><ele>373</ele><time>2021-11-13T10:52:28Z</time><name>PT3158</name></trkpt>
<trkpt lat="53.272081" lon="-1.990620"><ele>374</ele><time>2021-11-13T10:52:32Z</time><name>PT3159</name></trkpt>
<trkpt lat="53.272091" lon="-1.990648"><ele>375</ele><time>2021-11-13T10:52:36Z</time><name>PT3160</name></trkpt>
<trkpt lat="53.272102" lon="-1.990693"><ele>375</ele><time>2021-11-13T10:52:40Z</time><name>PT3161</name></trkpt>
<trkpt lat="53.272121" lon="-1.990742"><ele>376</ele><time>2021-11-13T10:52:44Z</time><name>PT3162</name></trkpt>
<trkpt lat="53.272145" lon="-1.990785"><ele>377</ele><time>2021-11-13T10:52:48Z</time><name>PT3163</name></trkpt>
<trkpt lat="53.272159" lon="-1.990824"><ele>377</ele><time>2021-11-13T10:52:52Z</time><name>PT3164</name></trkpt>
<trkpt lat="53.272177" lon="-1.990863"><ele>378</ele><time>2021-11-13T10:52:56Z</time><name>PT3165</name></trkpt>
<trkpt lat="53.272195" lon="-1.990908"><ele>378</ele><time>2021-11-13T10:53:00Z</time><name>PT3166</name></trkpt>
<trkpt lat="53.272215" lon="-1.990941"><ele>378</ele><time>2021-11-13T10:53:04Z</time><name>PT3167</name></trkpt>
<trkpt lat="53.272232" lon="-1.990979"><ele>379</ele><time>2021-11-13T10:53:08Z</time><name>PT3168</name></trkpt>
<trkpt lat="53.272249" lon="-1.991016"><ele>381</ele><time>2021-11-13T10:53:12Z</time><name>PT3169</name></trkpt>
<trkpt lat="53.272277" lon="-1.991048"><ele>383</ele><time>2021-11-13T10:53:16Z</time><name>PT3170</name></trkpt>
<trkpt lat="53.272290" lon="-1.991084"><ele>382</ele><time>2021-11-13T10:53:20Z</time><name>PT3171</name></trkpt>
<trkpt lat="53.272312" lon="-1.991126"><ele>383</ele><time>2021-11-13T10:53:24Z</time><name>PT3172</name></trkpt>
<trkpt lat="53.272342" lon="-1.991167"><ele>384</ele><time>2021-11-13T10:53:28Z</time><name>PT3173</name></trkpt>
<trkpt lat="53.272374" lon="-1.991195"><ele>384</ele><time>2021-11-13T10:53:32Z</time><name>PT3174</name></trkpt>
<trkpt lat="53.272392" lon="-1.991220"><ele>385</ele><time>2021-11-13T10:53:36Z</time><name>PT3175</name></trkpt>
<trkpt lat="53.272420" lon="-1.991248"><ele>385</ele><time>2021-11-13T10:53:40Z</time><name>PT3176</name></trkpt>
<trkpt lat="53.272452" lon="-1.991276"><ele>385</ele><time>2021-11-13T10:53:44Z</time><name>PT3177</name></trkpt>
<trkpt lat="53.272486" lon="-1.991304"><ele>387</ele><time>2021-11-13T10:53:48Z</time><name>PT3178</name></trkpt>
<trkpt lat="53.272514" lon="-1.991330"><ele>387</ele><time>2021-11-13T10:53:52Z</time><name>PT3179</name></trkpt>
<trkpt lat="53.272542" lon="-1.991348"><ele>388</ele><time>2021-11-13T10:53:56Z</time><name>PT3180</name></trkpt>
<trkpt lat="53.272570" lon="-1.991367"><ele>388</ele><time>2021-11-13T10:54:00Z</time><name>PT3181</name></trkpt>
<trkpt lat="53.272598" lon="-1.991395"><ele>388</ele><time>2021-11-13T10:54:04Z</time><name>PT3182</name></trkpt>
<trkpt lat="53.272616" lon="-1.991422"><ele>388</ele><time>2021-11-13T10:54:08Z</time><name>PT3183</name></trkpt>
<trkpt lat="53.272647" lon="-1.991444"><ele>389</ele><time>2021-11-13T10:54:12Z</time><name>PT3184</name></trkpt>
<trkpt lat="53.272673" lon="-1.991461"><ele>390</ele><time>2021-11-13T10:54:16Z</time><name>PT3185</name></trkpt>
<trkpt lat="53.272687" lon="-1.991486"><ele>390</ele><time>2021-11-13T10:54:20Z</time><name>PT3186</name></trkpt>
<trkpt lat="53.272711" lon="-1.991516"><ele>390</ele><time>2021-11-13T10:54:24Z</time><name>PT3187</name></trkpt>
<trkpt lat="53.272733" lon="-1.991546"><ele>389</ele><time>2021-11-13T10:54:28Z</time><name>PT3188</name></trkpt>
<trkpt lat="53.272751" lon="-1.991551"><ele>389</ele><time>2021-11-13T10:54:32Z</time><name>PT3189</name></trkpt>
<trkpt lat="53.272781" lon="-1.991582"><ele>389</ele><time>2021-11-13T10:54:36Z</time><name>PT3190</name></trkpt>
<trkpt lat="53.272807" lon="-1.991609"><ele>390</ele><time>2021-11-13T10:54:40Z</time><name>PT3191</name></trkpt>
<trkpt lat="53.272829" lon="-1.991624"><ele>390</ele><time>2021-11-13T10:54:44Z</time><name>PT3192</name></trkpt>
<trkpt lat="53.272838" lon="-1.991629"><ele>390</ele><time>2021-11-13T10:54:48Z</time><name>PT3193</name></trkpt>
<trkpt lat="53.272866" lon="-1.991675"><ele>390</ele><time>2021-11-13T10:54:56Z</time><name>PT3194</name></trkpt>
<trkpt lat="53.272904" lon="-1.991704"><ele>391</ele><time>2021-11-13T10:55:00Z</time><name>PT3195</name></trkpt>
<trkpt lat="53.272954" lon="-1.991749"><ele>391</ele><time>2021-11-13T10:55:04Z</time><name>PT3196</name></trkpt>
<trkpt lat="53.272999" lon="-1.991772"><ele>392</ele><time>2021-11-13T10:55:08Z</time><name>PT3197</name></trkpt>
<trkpt lat="53.273034" lon="-1.991805"><ele>393</ele><time>2021-11-13T10:55:12Z</time><name>PT3198</name></trkpt>
<trkpt lat="53.273064" lon="-1.991828"><ele>394</ele><time>2021-11-13T10:55:16Z</time><name>PT3199</name></trkpt>
<trkpt lat="53.273087" lon="-1.991851"><ele>395</ele><time>2021-11-13T10:55:20Z</time><name>PT3200</name></trkpt>
<trkpt lat="53.273122" lon="-1.991871"><ele>397</ele><time>2021-11-13T10:55:24Z</time><name>PT3201</name></trkpt>
<trkpt lat="53.273149" lon="-1.991898"><ele>397</ele><time>2021-11-13T10:55:28Z</time><name>PT3202</name></trkpt>
<trkpt lat="53.273178" lon="-1.991913"><ele>398</ele><time>2021-11-13T10:55:32Z</time><name>PT3203</name></trkpt>
<trkpt lat="53.273205" lon="-1.991931"><ele>398</ele><time>2021-11-13T10:55:36Z</time><name>PT3204</name></trkpt>
<trkpt lat="53.273233" lon="-1.991950"><ele>399</ele><time>2021-11-13T10:55:40Z</time><name>PT3205</name></trkpt>
<trkpt lat="53.273268" lon="-1.991971"><ele>400</ele><time>2021-11-13T10:55:44Z</time><name>PT3206</name></trkpt>
<trkpt lat="53.273299" lon="-1.991987"><ele>401</ele><time>2021-11-13T10:55:48Z</time><name>PT3207</name></trkpt>
<trkpt lat="53.273332" lon="-1.991999"><ele>401</ele><time>2021-11-13T10:55:52Z</time><name>PT3208</name></trkpt>
<trkpt lat="53.273368" lon="-1.992016"><ele>401</ele><time>2021-11-13T10:55:56Z</time><name>PT3209</name></trkpt>
<trkpt lat="53.273406" lon="-1.992024"><ele>403</ele><time>2021-11-13T10:56:00Z</time><name>PT3210</name></trkpt>
<trkpt lat="53.273440" lon="-1.992038"><ele>403</ele><time>2021-11-13T10:56:04Z</time><name>PT3211</name></trkpt>
<trkpt lat="53.273471" lon="-1.992050"><ele>403</ele><time>2021-11-13T10:56:08Z</time><name>PT3212</name></trkpt>
<trkpt lat="53.273500" lon="-1.992065"><ele>404</ele><time>2021-11-13T10:56:12Z</time><name>PT3213</name></trkpt>
<trkpt lat="53.273530" lon="-1.992080"><ele>405</ele><time>2021-11-13T10:56:16Z</time><name>PT3214</name></trkpt>
<trkpt lat="53.273556" lon="-1.992099"><ele>405</ele><time>2021-11-13T10:56:20Z</time><name>PT3215</name></trkpt>
<trkpt lat="53.273581" lon="-1.992119"><ele>406</ele><time>2021-11-13T10:56:24Z</time><name>PT3216</name></trkpt>
<trkpt lat="53.273603" lon="-1.992130"><ele>406</ele><time>2021-11-13T10:56:28Z</time><name>PT3217</name></trkpt>
<trkpt lat="53.273633" lon="-1.992147"><ele>407</ele><time>2021-11-13T10:56:32Z</time><name>PT3218</name></trkpt>
<trkpt lat="53.273656" lon="-1.992176"><ele>407</ele><time>2021-11-13T10:56:36Z</time><name>PT3219</name></trkpt>
<trkpt lat="53.273677" lon="-1.992207"><ele>407</ele><time>2021-11-13T10:56:40Z</time><name>PT3220</name></trkpt>
<trkpt lat="53.273706" lon="-1.992228"><ele>407</ele><time>2021-11-13T10:56:44Z</time><name>PT3221</name></trkpt>
<trkpt lat="53.273737" lon="-1.992248"><ele>407</ele><time>2021-11-13T10:56:48Z</time><name>PT3222</name></trkpt>
<trkpt lat="53.273759" lon="-1.992273"><ele>407</ele><time>2021-11-13T10:56:52Z</time><name>PT3223</name></trkpt>
<trkpt lat="53.273793" lon="-1.992285"><ele>407</ele><time>2021-11-13T10:56:56Z</time><name>PT3224</name></trkpt>
<trkpt lat="53.273827" lon="-1.992299"><ele>408</ele><time>2021-11-13T10:57:00Z</time><name>PT3225</name></trkpt>
<trkpt lat="53.273868" lon="-1.992316"><ele>408</ele><time>2021-11-13T10:57:04Z</time><name>PT3226</name></trkpt>
<trkpt lat="53.273913" lon="-1.992334"><ele>410</ele><time>2021-11-13T10:57:08Z</time><name>PT3227</name></trkpt>
<trkpt lat="53.273950" lon="-1.992366"><ele>411</ele><time>2021-11-13T10:57:12Z</time><name>PT3228</name></trkpt>
<trkpt lat="53.273980" lon="-1.992389"><ele>411</ele><time>2021-11-13T10:57:16Z</time><name>PT3229</name></trkpt>
<trkpt lat="53.274008" lon="-1.992403"><ele>413</ele><time>2021-11-13T10:57:20Z</time><name>PT3230</name></trkpt>
<trkpt lat="53.274043" lon="-1.992428"><ele>413</ele><time>2021-11-13T10:57:24Z</time><name>PT3231</name></trkpt>
<trkpt lat="53.274078" lon="-1.992464"><ele>414</ele><time>2021-11-13T10:57:28Z</time><name>PT3232</name></trkpt>
<trkpt lat="53.274118" lon="-1.992491"><ele>414</ele><time>2021-11-13T10:57:32Z</time><name>PT3233</name></trkpt>
<trkpt lat="53.274155" lon="-1.992518"><ele>415</ele><time>2021-11-13T10:57:36Z</time><name>PT3234</name></trkpt>
<trkpt lat="53.274188" lon="-1.992533"><ele>415</ele><time>2021-11-13T10:57:40Z</time><name>PT3235</name></trkpt>
<trkpt lat="53.274218" lon="-1.992556"><ele>416</ele><time>2021-11-13T10:57:44Z</time><name>PT3236</name></trkpt>
<trkpt lat="53.274258" lon="-1.992579"><ele>416</ele><time>2021-11-13T10:57:48Z</time><name>PT3237</name></trkpt>
<trkpt lat="53.274291" lon="-1.992598"><ele>417</ele><time>2021-11-13T10:57:52Z</time><name>PT3238</name></trkpt>
<trkpt lat="53.274333" lon="-1.992618"><ele>418</ele><time>2021-11-13T10:57:56Z</time><name>PT3239</name></trkpt>
<trkpt lat="53.274367" lon="-1.992632"><ele>417</ele><time>2021-11-13T10:58:00Z</time><name>PT3240</name></trkpt>
<trkpt lat="53.274408" lon="-1.992639"><ele>417</ele><time>2021-11-13T10:58:04Z</time><name>PT3241</name></trkpt>
<trkpt lat="53.274446" lon="-1.992644"><ele>418</ele><time>2021-11-13T10:58:08Z</time><name>PT3242</name></trkpt>
<trkpt lat="53.274488" lon="-1.992644"><ele>419</ele><time>2021-11-13T10:58:12Z</time><name>PT3243</name></trkpt>
<trkpt lat="53.274529" lon="-1.992642"><ele>420</ele><time>2021-11-13T10:58:16Z</time><name>PT3244</name></trkpt>
<trkpt lat="53.274573" lon="-1.992643"><ele>421</ele><time>2021-11-13T10:58:20Z</time><name>PT3245</name></trkpt>
<trkpt lat="53.274613" lon="-1.992644"><ele>422</ele><time>2021-11-13T10:58:24Z</time><name>PT3246</name></trkpt>
<trkpt lat="53.274654" lon="-1.992653"><ele>423</ele><time>2021-11-13T10:58:28Z</time><name>PT3247</name></trkpt>
<trkpt lat="53.274689" lon="-1.992659"><ele>423</ele><time>2021-11-13T10:58:32Z</time><name>PT3248</name></trkpt>
<trkpt lat="53.274730" lon="-1.992669"><ele>423</ele><time>2021-11-13T10:58:36Z</time><name>PT3249</name></trkpt>
<trkpt lat="53.274769" lon="-1.992674"><ele>424</ele><time>2021-11-13T10:58:40Z</time><name>PT3250</name></trkpt>
<trkpt lat="53.274811" lon="-1.992674"><ele>424</ele><time>2021-11-13T10:58:44Z</time><name>PT3251</name></trkpt>
<trkpt lat="53.274854" lon="-1.992682"><ele>424</ele><time>2021-11-13T10:58:48Z</time><name>PT3252</name></trkpt>
<trkpt lat="53.274886" lon="-1.992685"><ele>425</ele><time>2021-11-13T10:58:52Z</time><name>PT3253</name></trkpt>
<trkpt lat="53.274925" lon="-1.992698"><ele>425</ele><time>2021-11-13T10:58:56Z</time><name>PT3254</name></trkpt>
<trkpt lat="53.274965" lon="-1.992717"><ele>425</ele><time>2021-11-13T10:59:00Z</time><name>PT3255</name></trkpt>
<trkpt lat="53.275005" lon="-1.992747"><ele>424</ele><time>2021-11-13T10:59:04Z</time><name>PT3256</name></trkpt>
<trkpt lat="53.275045" lon="-1.992764"><ele>424</ele><time>2021-11-13T10:59:08Z</time><name>PT3257</name></trkpt>
<trkpt lat="53.275083" lon="-1.992790"><ele>424</ele><time>2021-11-13T10:59:12Z</time><name>PT3258</name></trkpt>
<trkpt lat="53.275122" lon="-1.992808"><ele>425</ele><time>2021-11-13T10:59:16Z</time><name>PT3259</name></trkpt>
<trkpt lat="53.275158" lon="-1.992835"><ele>425</ele><time>2021-11-13T10:59:20Z</time><name>PT3260</name></trkpt>
<trkpt lat="53.275194" lon="-1.992861"><ele>425</ele><time>2021-11-13T10:59:24Z</time><name>PT3261</name></trkpt>
<trkpt lat="53.275232" lon="-1.992878"><ele>426</ele><time>2021-11-13T10:59:28Z</time><name>PT3262</name></trkpt>
<trkpt lat="53.275268" lon="-1.992897"><ele>426</ele><time>2021-11-13T10:59:32Z</time><name>PT3263</name></trkpt>
<trkpt lat="53.275295" lon="-1.992921"><ele>426</ele><time>2021-11-13T10:59:36Z</time><name>PT3264</name></trkpt>
<trkpt lat="53.275326" lon="-1.992937"><ele>427</ele><time>2021-11-13T10:59:40Z</time><name>PT3265</name></trkpt>
<trkpt lat="53.275355" lon="-1.992960"><ele>427</ele><time>2021-11-13T10:59:44Z</time><name>PT3266</name></trkpt>
<trkpt lat="53.275383" lon="-1.992977"><ele>429</ele><time>2021-11-13T10:59:48Z</time><name>PT3267</name></trkpt>
<trkpt lat="53.275415" lon="-1.993010"><ele>429</ele><time>2021-11-13T10:59:52Z</time><name>PT3268</name></trkpt>
<trkpt lat="53.275451" lon="-1.993035"><ele>429</ele><time>2021-11-13T10:59:56Z</time><name>PT3269</name></trkpt>
<trkpt lat="53.275483" lon="-1.993052"><ele>430</ele><time>2021-11-13T11:00:00Z</time><name>PT3270</name></trkpt>
<trkpt lat="53.275519" lon="-1.993073"><ele>430</ele><time>2021-11-13T11:00:04Z</time><name>PT3271</name></trkpt>
<trkpt lat="53.275549" lon="-1.993098"><ele>431</ele><time>2021-11-13T11:00:08Z</time><name>PT3272</name></trkpt>
<trkpt lat="53.275581" lon="-1.993121"><ele>430</ele><time>2021-11-13T11:00:12Z</time><name>PT3273</name></trkpt>
<trkpt lat="53.275613" lon="-1.993145"><ele>431</ele><time>2021-11-13T11:00:16Z</time><name>PT3274</name></trkpt>
<trkpt lat="53.275647" lon="-1.993169"><ele>432</ele><time>2021-11-13T11:00:20Z</time><name>PT3275</name></trkpt>
<trkpt lat="53.275681" lon="-1.993188"><ele>432</ele><time>2021-11-13T11:00:24Z</time><name>PT3276</name></trkpt>
<trkpt lat="53.275717" lon="-1.993207"><ele>433</ele><time>2021-11-13T11:00:28Z</time><name>PT3277</name></trkpt>
<trkpt lat="53.275749" lon="-1.993233"><ele>433</ele><time>2021-11-13T11:00:32Z</time><name>PT3278</name></trkpt>
<trkpt lat="53.275781" lon="-1.993257"><ele>434</ele><time>2021-11-13T11:00:36Z</time><name>PT3279</name></trkpt>
<trkpt lat="53.275818" lon="-1.993281"><ele>434</ele><time>2021-11-13T11:00:40Z</time><name>PT3280</name></trkpt>
<trkpt lat="53.275863" lon="-1.993297"><ele>435</ele><time>2021-11-13T11:00:44Z</time><name>PT3281</name></trkpt>
<trkpt lat="53.275895" lon="-1.993324"><ele>435</ele><time>2021-11-13T11:00:48Z</time><name>PT3282</name></trkpt>
<trkpt lat="53.275935" lon="-1.993351"><ele>436</ele><time>2021-11-13T11:00:52Z</time><name>PT3283</name></trkpt>
<trkpt lat="53.275975" lon="-1.993377"><ele>437</ele><time>2021-11-13T11:00:56Z</time><name>PT3284</name></trkpt>
<trkpt lat="53.276011" lon="-1.993401"><ele>437</ele><time>2021-11-13T11:01:00Z</time><name>PT3285</name></trkpt>
<trkpt lat="53.276046" lon="-1.993419"><ele>437</ele><time>2021-11-13T11:01:04Z</time><name>PT3286</name></trkpt>
<trkpt lat="53.276077" lon="-1.993441"><ele>438</ele><time>2021-11-13T11:01:08Z</time><name>PT3287</name></trkpt>
<trkpt lat="53.276110" lon="-1.993459"><ele>438</ele><time>2021-11-13T11:01:12Z</time><name>PT3288</name></trkpt>
<trkpt lat="53.276139" lon="-1.993474"><ele>440</ele><time>2021-11-13T11:01:16Z</time><name>PT3289</name></trkpt>
<trkpt lat="53.276163" lon="-1.993487"><ele>440</ele><time>2021-11-13T11:01:20Z</time><name>PT3290</name></trkpt>
<trkpt lat="53.276193" lon="-1.993506"><ele>440</ele><time>2021-11-13T11:01:24Z</time><name>PT3291</name></trkpt>
<trkpt lat="53.276237" lon="-1.993535"><ele>441</ele><time>2021-11-13T11:01:28Z</time><name>PT3292</name></trkpt>
<trkpt lat="53.276276" lon="-1.993565"><ele>441</ele><time>2021-11-13T11:01:32Z</time><name>PT3293</name></trkpt>
<trkpt lat="53.276315" lon="-1.993607"><ele>441</ele><time>2021-11-13T11:01:36Z</time><name>PT3294</name></trkpt>
<trkpt lat="53.276354" lon="-1.993636"><ele>442</ele><time>2021-11-13T11:01:40Z</time><name>PT3295</name></trkpt>
<trkpt lat="53.276398" lon="-1.993674"><ele>443</ele><time>2021-11-13T11:01:44Z</time><name>PT3296</name></trkpt>
<trkpt lat="53.276441" lon="-1.993676"><ele>444</ele><time>2021-11-13T11:01:48Z</time><name>PT3297</name></trkpt>
<trkpt lat="53.276475" lon="-1.993696"><ele>445</ele><time>2021-11-13T11:01:52Z</time><name>PT3298</name></trkpt>
<trkpt lat="53.276520" lon="-1.993716"><ele>445</ele><time>2021-11-13T11:01:56Z</time><name>PT3299</name></trkpt>
<trkpt lat="53.276558" lon="-1.993745"><ele>445</ele><time>2021-11-13T11:02:00Z</time><name>PT3300</name></trkpt>
<trkpt lat="53.276596" lon="-1.993773"><ele>446</ele><time>2021-11-13T11:02:04Z</time><name>PT3301</name></trkpt>
<trkpt lat="53.276640" lon="-1.993794"><ele>448</ele><time>2021-11-13T11:02:08Z</time><name>PT3302</name></trkpt>
<trkpt lat="53.276684" lon="-1.993809"><ele>448</ele><time>2021-11-13T11:02:12Z</time><name>PT3303</name></trkpt>
<trkpt lat="53.276723" lon="-1.993830"><ele>448</ele><time>2021-11-13T11:02:16Z</time><name>PT3304</name></trkpt>
<trkpt lat="53.276758" lon="-1.993858"><ele>448</ele><time>2021-11-13T11:02:20Z</time><name>PT3305</name></trkpt>
<trkpt lat="53.276790" lon="-1.993890"><ele>448</ele><time>2021-11-13T11:02:24Z</time><name>PT3306</name></trkpt>
<trkpt lat="53.276817" lon="-1.993911"><ele>449</ele><time>2021-11-13T11:02:28Z</time><name>PT3307</name></trkpt>
<trkpt lat="53.276846" lon="-1.993938"><ele>448</ele><time>2021-11-13T11:02:32Z</time><name>PT3308</name></trkpt>
<trkpt lat="53.276874" lon="-1.993971"><ele>448</ele><time>2021-11-13T11:02:36Z</time><name>PT3309</name></trkpt>
<trkpt lat="53.276885" lon="-1.994001"><ele>449</ele><time>2021-11-13T11:02:40Z</time><name>PT3310</name></trkpt>
<trkpt lat="53.276898" lon="-1.994043"><ele>447</ele><time>2021-11-13T11:02:44Z</time><name>PT3311</name></trkpt>
<trkpt lat="53.276931" lon="-1.994073"><ele>447</ele><time>2021-11-13T11:02:48Z</time><name>PT3312</name></trkpt>
<trkpt lat="53.276942" lon="-1.994113"><ele>447</ele><time>2021-11-13T11:02:52Z</time><name>PT3313</name></trkpt>
<trkpt lat="53.276952" lon="-1.994168"><ele>446</ele><time>2021-11-13T11:02:56Z</time><name>PT3314</name></trkpt>
<trkpt lat="53.276987" lon="-1.994207"><ele>447</ele><time>2021-11-13T11:03:00Z</time><name>PT3315</name></trkpt>
<trkpt lat="53.277014" lon="-1.994242"><ele>447</ele><time>2021-11-13T11:03:04Z</time><name>PT3316</name></trkpt>
<trkpt lat="53.277038" lon="-1.994285"><ele>447</ele><time>2021-11-13T11:03:08Z</time><name>PT3317</name></trkpt>
<trkpt lat="53.277066" lon="-1.994332"><ele>447</ele><time>2021-11-13T11:03:12Z</time><name>PT3318</name></trkpt>
<trkpt lat="53.277092" lon="-1.994368"><ele>446</ele><time>2021-11-13T11:03:16Z</time><name>PT3319</name></trkpt>
<trkpt lat="53.277121" lon="-1.994394"><ele>446</ele><time>2021-11-13T11:03:20Z</time><name>PT3320</name></trkpt>
<trkpt lat="53.277157" lon="-1.994417"><ele>447</ele><time>2021-11-13T11:03:24Z</time><name>PT3321</name></trkpt>
<trkpt lat="53.277191" lon="-1.994446"><ele>448</ele><time>2021-11-13T11:03:28Z</time><name>PT3322</name></trkpt>
<trkpt lat="53.277225" lon="-1.994470"><ele>448</ele><time>2021-11-13T11:03:32Z</time><name>PT3323</name></trkpt>
<trkpt lat="53.277258" lon="-1.994499"><ele>448</ele><time>2021-11-13T11:03:36Z</time><name>PT3324</name></trkpt>
<trkpt lat="53.277289" lon="-1.994523"><ele>449</ele><time>2021-11-13T11:03:40Z</time><name>PT3325</name></trkpt>
<trkpt lat="53.277324" lon="-1.994541"><ele>449</ele><time>2021-11-13T11:03:44Z</time><name>PT3326</name></trkpt>
<trkpt lat="53.277355" lon="-1.994566"><ele>449</ele><time>2021-11-13T11:03:48Z</time><name>PT3327</name></trkpt>
<trkpt lat="53.277399" lon="-1.994589"><ele>451</ele><time>2021-11-13T11:03:52Z</time><name>PT3328</name></trkpt>
<trkpt lat="53.277441" lon="-1.994615"><ele>451</ele><time>2021-11-13T11:03:56Z</time><name>PT3329</name></trkpt>
<trkpt lat="53.277488" lon="-1.994620"><ele>452</ele><time>2021-11-13T11:04:00Z</time><name>PT3330</name></trkpt>
<trkpt lat="53.277528" lon="-1.994623"><ele>452</ele><time>2021-11-13T11:04:04Z</time><name>PT3331</name></trkpt>
<trkpt lat="53.277579" lon="-1.994631"><ele>453</ele><time>2021-11-13T11:04:08Z</time><name>PT3332</name></trkpt>
<trkpt lat="53.277634" lon="-1.994644"><ele>454</ele><time>2021-11-13T11:04:12Z</time><name>PT3333</name></trkpt>
<trkpt lat="53.277677" lon="-1.994668"><ele>453</ele><time>2021-11-13T11:04:16Z</time><name>PT3334</name></trkpt>
<trkpt lat="53.277721" lon="-1.994691"><ele>454</ele><time>2021-11-13T11:04:20Z</time><name>PT3335</name></trkpt>
<trkpt lat="53.277762" lon="-1.994719"><ele>455</ele><time>2021-11-13T11:04:24Z</time><name>PT3336</name></trkpt>
<trkpt lat="53.277802" lon="-1.994749"><ele>455</ele><time>2021-11-13T11:04:28Z</time><name>PT3337</name></trkpt>
<trkpt lat="53.277850" lon="-1.994777"><ele>455</ele><time>2021-11-13T11:04:32Z</time><name>PT3338</name></trkpt>
<trkpt lat="53.277894" lon="-1.994809"><ele>455</ele><time>2021-11-13T11:04:36Z</time><name>PT3339</name></trkpt>
<trkpt lat="53.277927" lon="-1.994848"><ele>454</ele><time>2021-11-13T11:04:40Z</time><name>PT3340</name></trkpt>
<trkpt lat="53.277969" lon="-1.994880"><ele>455</ele><time>2021-11-13T11:04:44Z</time><name>PT3341</name></trkpt>
<trkpt lat="53.278004" lon="-1.994894"><ele>454</ele><time>2021-11-13T11:04:48Z</time><name>PT3342</name></trkpt>
<trkpt lat="53.278032" lon="-1.994912"><ele>453</ele><time>2021-11-13T11:04:52Z</time><name>PT3343</name></trkpt>
<trkpt lat="53.278065" lon="-1.994939"><ele>452</ele><time>2021-11-13T11:04:56Z</time><name>PT3344</name></trkpt>
<trkpt lat="53.278101" lon="-1.994969"><ele>452</ele><time>2021-11-13T11:05:00Z</time><name>PT3345</name></trkpt>
<trkpt lat="53.278143" lon="-1.994992"><ele>452</ele><time>2021-11-13T11:05:04Z</time><name>PT3346</name></trkpt>
<trkpt lat="53.278183" lon="-1.995000"><ele>452</ele><time>2021-11-13T11:05:08Z</time><name>PT3347</name></trkpt>
<trkpt lat="53.278231" lon="-1.995006"><ele>452</ele><time>2021-11-13T11:05:12Z</time><name>PT3348</name></trkpt>
<trkpt lat="53.278278" lon="-1.995019"><ele>452</ele><time>2021-11-13T11:05:16Z</time><name>PT3349</name></trkpt>
<trkpt lat="53.278326" lon="-1.995030"><ele>452</ele><time>2021-11-13T11:05:20Z</time><name>PT3350</name></trkpt>
<trkpt lat="53.278372" lon="-1.995049"><ele>452</ele><time>2021-11-13T11:05:24Z</time><name>PT3351</name></trkpt>
<trkpt lat="53.278422" lon="-1.995062"><ele>452</ele><time>2021-11-13T11:05:28Z</time><name>PT3352</name></trkpt>
<trkpt lat="53.278468" lon="-1.995079"><ele>452</ele><time>2021-11-13T11:05:32Z</time><name>PT3353</name></trkpt>
<trkpt lat="53.278514" lon="-1.995095"><ele>451</ele><time>2021-11-13T11:05:36Z</time><name>PT3354</name></trkpt>
<trkpt lat="53.278564" lon="-1.995107"><ele>450</ele><time>2021-11-13T11:05:40Z</time><name>PT3355</name></trkpt>
<trkpt lat="53.278612" lon="-1.995102"><ele>450</ele><time>2021-11-13T11:05:44Z</time><name>PT3356</name></trkpt>
<trkpt lat="53.278660" lon="-1.995104"><ele>450</ele><time>2021-11-13T11:05:48Z</time><name>PT3357</name></trkpt>
<trkpt lat="53.278705" lon="-1.995108"><ele>450</ele><time>2021-11-13T11:05:52Z</time><name>PT3358</name></trkpt>
<trkpt lat="53.278759" lon="-1.995113"><ele>450</ele><time>2021-11-13T11:05:56Z</time><name>PT3359</name></trkpt>
<trkpt lat="53.278812" lon="-1.995127"><ele>451</ele><time>2021-11-13T11:06:00Z</time><name>PT3360</name></trkpt>
<trkpt lat="53.278860" lon="-1.995147"><ele>450</ele><time>2021-11-13T11:06:04Z</time><name>PT3361</name></trkpt>
<trkpt lat="53.278914" lon="-1.995162"><ele>451</ele><time>2021-11-13T11:06:08Z</time><name>PT3362</name></trkpt>
<trkpt lat="53.278963" lon="-1.995185"><ele>450</ele><time>2021-11-13T11:06:12Z</time><name>PT3363</name></trkpt>
<trkpt lat="53.279008" lon="-1.995196"><ele>450</ele><time>2021-11-13T11:06:16Z</time><name>PT3364</name></trkpt>
<trkpt lat="53.279057" lon="-1.995208"><ele>450</ele><time>2021-11-13T11:06:20Z</time><name>PT3365</name></trkpt>
<trkpt lat="53.279099" lon="-1.995225"><ele>449</ele><time>2021-11-13T11:06:24Z</time><name>PT3366</name></trkpt>
<trkpt lat="53.279151" lon="-1.995238"><ele>449</ele><time>2021-11-13T11:06:28Z</time><name>PT3367</name></trkpt>
<trkpt lat="53.279199" lon="-1.995244"><ele>449</ele><time>2021-11-13T11:06:32Z</time><name>PT3368</name></trkpt>
<trkpt lat="53.279253" lon="-1.995249"><ele>450</ele><time>2021-11-13T11:06:36Z</time><name>PT3369</name></trkpt>
<trkpt lat="53.279298" lon="-1.995269"><ele>449</ele><time>2021-11-13T11:06:40Z</time><name>PT3370</name></trkpt>
<trkpt lat="53.279345" lon="-1.995293"><ele>450</ele><time>2021-11-13T11:06:44Z</time><name>PT3371</name></trkpt>
<trkpt lat="53.279386" lon="-1.995317"><ele>449</ele><time>2021-11-13T11:06:48Z</time><name>PT3372</name></trkpt>
<trkpt lat="53.279420" lon="-1.995346"><ele>448</ele><time>2021-11-13T11:06:52Z</time><name>PT3373</name></trkpt>
<trkpt lat="53.279466" lon="-1.995370"><ele>448</ele><time>2021-11-13T11:06:56Z</time><name>PT3374</name></trkpt>
<trkpt lat="53.279512" lon="-1.995386"><ele>448</ele><time>2021-11-13T11:07:00Z</time><name>PT3375</name></trkpt>
<trkpt lat="53.279561" lon="-1.995402"><ele>448</ele><time>2021-11-13T11:07:04Z</time><name>PT3376</name></trkpt>
<trkpt lat="53.279608" lon="-1.995420"><ele>448</ele><time>2021-11-13T11:07:08Z</time><name>PT3377</name></trkpt>
<trkpt lat="53.279654" lon="-1.995440"><ele>448</ele><time>2021-11-13T11:07:12Z</time><name>PT3378</name></trkpt>
<trkpt lat="53.279697" lon="-1.995470"><ele>448</ele><time>2021-11-13T11:07:16Z</time><name>PT3379</name></trkpt>
<trkpt lat="53.279742" lon="-1.995493"><ele>446</ele><time>2021-11-13T11:07:20Z</time><name>PT3380</name></trkpt>
<trkpt lat="53.279788" lon="-1.995514"><ele>445</ele><time>2021-11-13T11:07:24Z</time><name>PT3381</name></trkpt>
<trkpt lat="53.279832" lon="-1.995539"><ele>445</ele><time>2021-11-13T11:07:28Z</time><name>PT3382</name></trkpt>
<trkpt lat="53.279878" lon="-1.995555"><ele>444</ele><time>2021-11-13T11:07:32Z</time><name>PT3383</name></trkpt>
<trkpt lat="53.279923" lon="-1.995575"><ele>443</ele><time>2021-11-13T11:07:36Z</time><name>PT3384</name></trkpt>
<trkpt lat="53.279967" lon="-1.995603"><ele>442</ele><time>2021-11-13T11:07:40Z</time><name>PT3385</name></trkpt>
<trkpt lat="53.280018" lon="-1.995630"><ele>442</ele><time>2021-11-13T11:07:44Z</time><name>PT3386</name></trkpt>
<trkpt lat="53.280066" lon="-1.995661"><ele>441</ele><time>2021-11-13T11:07:48Z</time><name>PT3387</name></trkpt>
<trkpt lat="53.280105" lon="-1.995687"><ele>440</ele><time>2021-11-13T11:07:52Z</time><name>PT3388</name></trkpt>
<trkpt lat="53.280117" lon="-1.995690"><ele>440</ele><time>2021-11-13T11:07:56Z</time><name>PT3389</name></trkpt>
<trkpt lat="53.280117" lon="-1.995691"><ele>440</ele><time>2021-11-13T11:08:00Z</time><name>PT3390</name></trkpt>
<trkpt lat="53.280113" lon="-1.995688"><ele>440</ele><time>2021-11-13T11:08:14Z</time><name>PT3391</name></trkpt>
<trkpt lat="53.280112" lon="-1.995685"><ele>440</ele><time>2021-11-13T11:08:20Z</time><name>PT3392</name></trkpt>
<trkpt lat="53.280120" lon="-1.995684"><ele>440</ele><time>2021-11-13T11:08:21Z</time><name>PT3393</name></trkpt>
<trkpt lat="53.280128" lon="-1.995697"><ele>440</ele><time>2021-11-13T11:08:22Z</time><name>PT3394</name></trkpt>
<trkpt lat="53.280133" lon="-1.995707"><ele>439</ele><time>2021-11-13T11:08:23Z</time><name>PT3395</name></trkpt>
<trkpt lat="53.280138" lon="-1.995720"><ele>440</ele><time>2021-11-13T11:08:24Z</time><name>PT3396</name></trkpt>
<trkpt lat="53.280144" lon="-1.995732"><ele>439</ele><time>2021-11-13T11:08:25Z</time><name>PT3397</name></trkpt>
<trkpt lat="53.280153" lon="-1.995739"><ele>439</ele><time>2021-11-13T11:08:26Z</time><name>PT3398</name></trkpt>
<trkpt lat="53.280162" lon="-1.995752"><ele>439</ele><time>2021-11-13T11:08:27Z</time><name>PT3399</name></trkpt>
<trkpt lat="53.280172" lon="-1.995768"><ele>438</ele><time>2021-11-13T11:08:28Z</time><name>PT3400</name></trkpt>
<trkpt lat="53.280179" lon="-1.995781"><ele>438</ele><time>2021-11-13T11:08:29Z</time><name>PT3401</name></trkpt>
<trkpt lat="53.280186" lon="-1.995789"><ele>438</ele><time>2021-11-13T11:08:30Z</time><name>PT3402</name></trkpt>
<trkpt lat="53.280194" lon="-1.995801"><ele>438</ele><time>2021-11-13T11:08:31Z</time><name>PT3403</name></trkpt>
<trkpt lat="53.280201" lon="-1.995813"><ele>438</ele><time>2021-11-13T11:08:32Z</time><name>PT3404</name></trkpt>
<trkpt lat="53.280208" lon="-1.995823"><ele>438</ele><time>2021-11-13T11:08:33Z</time><name>PT3405</name></trkpt>
<trkpt lat="53.280215" lon="-1.995835"><ele>438</ele><time>2021-11-13T11:08:34Z</time><name>PT3406</name></trkpt>
<trkpt lat="53.280222" lon="-1.995847"><ele>437</ele><time>2021-11-13T11:08:35Z</time><name>PT3407</name></trkpt>
<trkpt lat="53.280224" lon="-1.995854"><ele>437</ele><time>2021-11-13T11:08:36Z</time><name>PT3408</name></trkpt>
<trkpt lat="53.280226" lon="-1.995858"><ele>437</ele><time>2021-11-13T11:08:37Z</time><name>PT3409</name></trkpt>
<trkpt lat="53.280227" lon="-1.995859"><ele>437</ele><time>2021-11-13T11:08:38Z</time><name>PT3410</name></trkpt>
<trkpt lat="53.280227" lon="-1.995860"><ele>437</ele><time>2021-11-13T11:08:39Z</time><name>PT3411</name></trkpt>
<trkpt lat="53.280227" lon="-1.995861"><ele>437</ele><time>2021-11-13T11:08:40Z</time><name>PT3412</name></trkpt>
<trkpt lat="53.280229" lon="-1.995866"><ele>437</ele><time>2021-11-13T11:08:41Z</time><name>PT3413</name></trkpt>
<trkpt lat="53.280230" lon="-1.995873"><ele>437</ele><time>2021-11-13T11:08:42Z</time><name>PT3414</name></trkpt>
<trkpt lat="53.280232" lon="-1.995880"><ele>436</ele><time>2021-11-13T11:08:43Z</time><name>PT3415</name></trkpt>
<trkpt lat="53.280234" lon="-1.995889"><ele>436</ele><time>2021-11-13T11:08:44Z</time><name>PT3416</name></trkpt>
<trkpt lat="53.280234" lon="-1.995901"><ele>436</ele><time>2021-11-13T11:08:45Z</time><name>PT3417</name></trkpt>
<trkpt lat="53.280238" lon="-1.995914"><ele>436</ele><time>2021-11-13T11:08:46Z</time><name>PT3418</name></trkpt>
<trkpt lat="53.280242" lon="-1.995928"><ele>436</ele><time>2021-11-13T11:08:47Z</time><name>PT3419</name></trkpt>
<trkpt lat="53.280245" lon="-1.995940"><ele>436</ele><time>2021-11-13T11:08:48Z</time><name>PT3420</name></trkpt>
<trkpt lat="53.280248" lon="-1.995949"><ele>436</ele><time>2021-11-13T11:08:49Z</time><name>PT3421</name></trkpt>
<trkpt lat="53.280249" lon="-1.995954"><ele>435</ele><time>2021-11-13T11:08:50Z</time><name>PT3422</name></trkpt>
<trkpt lat="53.280251" lon="-1.995962"><ele>435</ele><time>2021-11-13T11:08:51Z</time><name>PT3423</name></trkpt>
<trkpt lat="53.280255" lon="-1.995969"><ele>435</ele><time>2021-11-13T11:08:52Z</time><name>PT3424</name></trkpt>
<trkpt lat="53.280252" lon="-1.995980"><ele>435</ele><time>2021-11-13T11:08:53Z</time><name>PT3425</name></trkpt>
<trkpt lat="53.280258" lon="-1.995993"><ele>435</ele><time>2021-11-13T11:08:54Z</time><name>PT3426</name></trkpt>
<trkpt lat="53.280260" lon="-1.996007"><ele>435</ele><time>2021-11-13T11:08:55Z</time><name>PT3427</name></trkpt>
<trkpt lat="53.280265" lon="-1.996025"><ele>435</ele><time>2021-11-13T11:08:56Z</time><name>PT3428</name></trkpt>
<trkpt lat="53.280268" lon="-1.996040"><ele>435</ele><time>2021-11-13T11:08:57Z</time><name>PT3429</name></trkpt>
<trkpt lat="53.280269" lon="-1.996057"><ele>435</ele><time>2021-11-13T11:08:58Z</time><name>PT3430</name></trkpt>
<trkpt lat="53.280274" lon="-1.996075"><ele>435</ele><time>2021-11-13T11:08:59Z</time><name>PT3431</name></trkpt>
<trkpt lat="53.280277" lon="-1.996089"><ele>434</ele><time>2021-11-13T11:09:00Z</time><name>PT3432</name></trkpt>
<trkpt lat="53.280282" lon="-1.996105"><ele>434</ele><time>2021-11-13T11:09:01Z</time><name>PT3433</name></trkpt>
<trkpt lat="53.280286" lon="-1.996123"><ele>434</ele><time>2021-11-13T11:09:02Z</time><name>PT3434</name></trkpt>
<trkpt lat="53.280291" lon="-1.996138"><ele>434</ele><time>2021-11-13T11:09:03Z</time><name>PT3435</name></trkpt>
<trkpt lat="53.280295" lon="-1.996152"><ele>434</ele><time>2021-11-13T11:09:04Z</time><name>PT3436</name></trkpt>
<trkpt lat="53.280303" lon="-1.996167"><ele>434</ele><time>2021-11-13T11:09:05Z</time><name>PT3437</name></trkpt>
<trkpt lat="53.280312" lon="-1.996175"><ele>434</ele><time>2021-11-13T11:09:06Z</time><name>PT3438</name></trkpt>
<trkpt lat="53.280320" lon="-1.996182"><ele>434</ele><time>2021-11-13T11:09:07Z</time><name>PT3439</name></trkpt>
<trkpt lat="53.280330" lon="-1.996192"><ele>434</ele><time>2021-11-13T11:09:08Z</time><name>PT3440</name></trkpt>
<trkpt lat="53.280340" lon="-1.996201"><ele>434</ele><time>2021-11-13T11:09:09Z</time><name>PT3441</name></trkpt>
<trkpt lat="53.280345" lon="-1.996215"><ele>434</ele><time>2021-11-13T11:09:10Z</time><name>PT3442</name></trkpt>
<trkpt lat="53.280349" lon="-1.996223"><ele>434</ele><time>2021-11-13T11:09:11Z</time><name>PT3443</name></trkpt>
<trkpt lat="53.280352" lon="-1.996230"><ele>433</ele><time>2021-11-13T11:09:12Z</time><name>PT3444</name></trkpt>
<trkpt lat="53.280359" lon="-1.996239"><ele>433</ele><time>2021-11-13T11:09:13Z</time><name>PT3445</name></trkpt>
<trkpt lat="53.280371" lon="-1.996251"><ele>433</ele><time>2021-11-13T11:09:14Z</time><name>PT3446</name></trkpt>
<trkpt lat="53.280381" lon="-1.996266"><ele>433</ele><time>2021-11-13T11:09:15Z</time><name>PT3447</name></trkpt>
<trkpt lat="53.280390" lon="-1.996280"><ele>432</ele><time>2021-11-13T11:09:16Z</time><name>PT3448</name></trkpt>
<trkpt lat="53.280398" lon="-1.996291"><ele>432</ele><time>2021-11-13T11:09:17Z</time><name>PT3449</name></trkpt>
<trkpt lat="53.280410" lon="-1.996302"><ele>432</ele><time>2021-11-13T11:09:18Z</time><name>PT3450</name></trkpt>
<trkpt lat="53.280422" lon="-1.996314"><ele>432</ele><time>2021-11-13T11:09:19Z</time><name>PT3451</name></trkpt>
<trkpt lat="53.280433" lon="-1.996328"><ele>432</ele><time>2021-11-13T11:09:20Z</time><name>PT3452</name></trkpt>
<trkpt lat="53.280443" lon="-1.996341"><ele>432</ele><time>2021-11-13T11:09:21Z</time><name>PT3453</name></trkpt>
<trkpt lat="53.280450" lon="-1.996356"><ele>431</ele><time>2021-11-13T11:09:22Z</time><name>PT3454</name></trkpt>
<trkpt lat="53.280461" lon="-1.996369"><ele>431</ele><time>2021-11-13T11:09:23Z</time><name>PT3455</name></trkpt>
<trkpt lat="53.280469" lon="-1.996378"><ele>431</ele><time>2021-11-13T11:09:24Z</time><name>PT3456</name></trkpt>
<trkpt lat="53.280479" lon="-1.996391"><ele>431</ele><time>2021-11-13T11:09:25Z</time><name>PT3457</name></trkpt>
<trkpt lat="53.280491" lon="-1.996404"><ele>430</ele><time>2021-11-13T11:09:26Z</time><name>PT3458</name></trkpt>
<trkpt lat="53.280501" lon="-1.996415"><ele>430</ele><time>2021-11-13T11:09:27Z</time><name>PT3459</name></trkpt>
<trkpt lat="53.280510" lon="-1.996430"><ele>430</ele><time>2021-11-13T11:09:28Z</time><name>PT3460</name></trkpt>
<trkpt lat="53.280517" lon="-1.996444"><ele>430</ele><time>2021-11-13T11:09:29Z</time><name>PT3461</name></trkpt>
<trkpt lat="53.280519" lon="-1.996454"><ele>430</ele><time>2021-11-13T11:09:30Z</time><name>PT3462</name></trkpt>
<trkpt lat="53.280522" lon="-1.996460"><ele>430</ele><time>2021-11-13T11:09:31Z</time><name>PT3463</name></trkpt>
<trkpt lat="53.280523" lon="-1.996461"><ele>430</ele><time>2021-11-13T11:09:32Z</time><name>PT3464</name></trkpt>
<trkpt lat="53.280529" lon="-1.996472"><ele>430</ele><time>2021-11-13T11:09:33Z</time><name>PT3465</name></trkpt>
<trkpt lat="53.280537" lon="-1.996486"><ele>430</ele><time>2021-11-13T11:09:34Z</time><name>PT3466</name></trkpt>
<trkpt lat="53.280547" lon="-1.996499"><ele>430</ele><time>2021-11-13T11:09:35Z</time><name>PT3467</name></trkpt>
<trkpt lat="53.280555" lon="-1.996513"><ele>430</ele><time>2021-11-13T11:09:36Z</time><name>PT3468</name></trkpt>
<trkpt lat="53.280561" lon="-1.996525"><ele>430</ele><time>2021-11-13T11:09:37Z</time><name>PT3469</name></trkpt>
<trkpt lat="53.280570" lon="-1.996536"><ele>430</ele><time>2021-11-13T11:09:38Z</time><name>PT3470</name></trkpt>
<trkpt lat="53.280581" lon="-1.996550"><ele>430</ele><time>2021-11-13T11:09:39Z</time><name>PT3471</name></trkpt>
<trkpt lat="53.280591" lon="-1.996561"><ele>430</ele><time>2021-11-13T11:09:40Z</time><name>PT3472</name></trkpt>
<trkpt lat="53.280596" lon="-1.996575"><ele>430</ele><time>2021-11-13T11:09:41Z</time><name>PT3473</name></trkpt>
<trkpt lat="53.280604" lon="-1.996589"><ele>430</ele><time>2021-11-13T11:09:42Z</time><name>PT3474</name></trkpt>
<trkpt lat="53.280610" lon="-1.996603"><ele>430</ele><time>2021-11-13T11:09:43Z</time><name>PT3475</name></trkpt>
<trkpt lat="53.280618" lon="-1.996615"><ele>430</ele><time>2021-11-13T11:09:44Z</time><name>PT3476</name></trkpt>
<trkpt lat="53.280628" lon="-1.996628"><ele>430</ele><time>2021-11-13T11:09:45Z</time><name>PT3477</name></trkpt>
<trkpt lat="53.280634" lon="-1.996641"><ele>429</ele><time>2021-11-13T11:09:46Z</time><name>PT3478</name></trkpt>
<trkpt lat="53.280640" lon="-1.996653"><ele>429</ele><time>2021-11-13T11:09:47Z</time><name>PT3479</name></trkpt>
<trkpt lat="53.280649" lon="-1.996669"><ele>430</ele><time>2021-11-13T11:09:48Z</time><name>PT3480</name></trkpt>
<trkpt lat="53.280656" lon="-1.996685"><ele>429</ele><time>2021-11-13T11:09:49Z</time><name>PT3481</name></trkpt>
<trkpt lat="53.280663" lon="-1.996699"><ele>429</ele><time>2021-11-13T11:09:50Z</time><name>PT3482</name></trkpt>
<trkpt lat="53.280672" lon="-1.996714"><ele>429</ele><time>2021-11-13T11:09:51Z</time><name>PT3483</name></trkpt>
<trkpt lat="53.280683" lon="-1.996730"><ele>429</ele><time>2021-11-13T11:09:52Z</time><name>PT3484</name></trkpt>
<trkpt lat="53.280693" lon="-1.996744"><ele>428</ele><time>2021-11-13T11:09:53Z</time><name>PT3485</name></trkpt>
<trkpt lat="53.280701" lon="-1.996758"><ele>428</ele><time>2021-11-13T11:09:54Z</time><name>PT3486</name></trkpt>
<trkpt lat="53.280709" lon="-1.996773"><ele>428</ele><time>2021-11-13T11:09:55Z</time><name>PT3487</name></trkpt>
<trkpt lat="53.280721" lon="-1.996790"><ele>428</ele><time>2021-11-13T11:09:56Z</time><name>PT3488</name></trkpt>
<trkpt lat="53.280731" lon="-1.996805"><ele>428</ele><time>2021-11-13T11:09:57Z</time><name>PT3489</name></trkpt>
<trkpt lat="53.280741" lon="-1.996820"><ele>428</ele><time>2021-11-13T11:09:58Z</time><name>PT3490</name></trkpt>
<trkpt lat="53.280749" lon="-1.996833"><ele>428</ele><time>2021-11-13T11:09:59Z</time><name>PT3491</name></trkpt>
<trkpt lat="53.280761" lon="-1.996850"><ele>429</ele><time>2021-11-13T11:10:00Z</time><name>PT3492</name></trkpt>
<trkpt lat="53.280772" lon="-1.996864"><ele>429</ele><time>2021-11-13T11:10:01Z</time><name>PT3493</name></trkpt>
<trkpt lat="53.280777" lon="-1.996877"><ele>428</ele><time>2021-11-13T11:10:02Z</time><name>PT3494</name></trkpt>
<trkpt lat="53.280786" lon="-1.996891"><ele>427</ele><time>2021-11-13T11:10:03Z</time><name>PT3495</name></trkpt>
<trkpt lat="53.280794" lon="-1.996904"><ele>427</ele><time>2021-11-13T11:10:04Z</time><name>PT3496</name></trkpt>
<trkpt lat="53.280798" lon="-1.996918"><ele>427</ele><time>2021-11-13T11:10:05Z</time><name>PT3497</name></trkpt>
<trkpt lat="53.280803" lon="-1.996934"><ele>427</ele><time>2021-11-13T11:10:06Z</time><name>PT3498</name></trkpt>
<trkpt lat="53.280810" lon="-1.996949"><ele>427</ele><time>2021-11-13T11:10:07Z</time><name>PT3499</name></trkpt>
<trkpt lat="53.280814" lon="-1.996964"><ele>426</ele><time>2021-11-13T11:10:08Z</time><name>PT3500</name></trkpt>
<trkpt lat="53.280820" lon="-1.996979"><ele>425</ele><time>2021-11-13T11:10:09Z</time><name>PT3501</name></trkpt>
<trkpt lat="53.280826" lon="-1.996991"><ele>425</ele><time>2021-11-13T11:10:10Z</time><name>PT3502</name></trkpt>
<trkpt lat="53.280832" lon="-1.997003"><ele>425</ele><time>2021-11-13T11:10:11Z</time><name>PT3503</name></trkpt>
<trkpt lat="53.280839" lon="-1.997018"><ele>424</ele><time>2021-11-13T11:10:12Z</time><name>PT3504</name></trkpt>
<trkpt lat="53.280847" lon="-1.997031"><ele>424</ele><time>2021-11-13T11:10:13Z</time><name>PT3505</name></trkpt>
<trkpt lat="53.280870" lon="-1.997065"><ele>423</ele><time>2021-11-13T11:10:16Z</time><name>PT3506</name></trkpt>
<trkpt lat="53.280907" lon="-1.997105"><ele>422</ele><time>2021-11-13T11:10:20Z</time><name>PT3507</name></trkpt>
<trkpt lat="53.280938" lon="-1.997154"><ele>423</ele><time>2021-11-13T11:10:24Z</time><name>PT3508</name></trkpt>
<trkpt lat="53.280967" lon="-1.997221"><ele>422</ele><time>2021-11-13T11:10:28Z</time><name>PT3509</name></trkpt>
<trkpt lat="53.280986" lon="-1.997290"><ele>421</ele><time>2021-11-13T11:10:32Z</time><name>PT3510</name></trkpt>
<trkpt lat="53.281009" lon="-1.997353"><ele>420</ele><time>2021-11-13T11:10:36Z</time><name>PT3511</name></trkpt>
<trkpt lat="53.281052" lon="-1.997398"><ele>420</ele><time>2021-11-13T11:10:40Z</time><name>PT3512</name></trkpt>
<trkpt lat="53.281073" lon="-1.997442"><ele>420</ele><time>2021-11-13T11:10:44Z</time><name>PT3513</name></trkpt>
<trkpt lat="53.281105" lon="-1.997483"><ele>420</ele><time>2021-11-13T11:10:48Z</time><name>PT3514</name></trkpt>
<trkpt lat="53.281136" lon="-1.997522"><ele>421</ele><time>2021-11-13T11:10:52Z</time><name>PT3515</name></trkpt>
<trkpt lat="53.281166" lon="-1.997572"><ele>421</ele><time>2021-11-13T11:10:56Z</time><name>PT3516</name></trkpt>
<trkpt lat="53.281196" lon="-1.997617"><ele>423</ele><time>2021-11-13T11:11:00Z</time><name>PT3517</name></trkpt>
<trkpt lat="53.281226" lon="-1.997669"><ele>422</ele><time>2021-11-13T11:11:04Z</time><name>PT3518</name></trkpt>
<trkpt lat="53.281263" lon="-1.997715"><ele>423</ele><time>2021-11-13T11:11:08Z</time><name>PT3519</name></trkpt>
<trkpt lat="53.281296" lon="-1.997764"><ele>424</ele><time>2021-11-13T11:11:12Z</time><name>PT3520</name></trkpt>
<trkpt lat="53.281324" lon="-1.997812"><ele>424</ele><time>2021-11-13T11:11:16Z</time><name>PT3521</name></trkpt>
<trkpt lat="53.281352" lon="-1.997855"><ele>424</ele><time>2021-11-13T11:11:20Z</time><name>PT3522</name></trkpt>
<trkpt lat="53.281380" lon="-1.997907"><ele>424</ele><time>2021-11-13T11:11:24Z</time><name>PT3523</name></trkpt>
<trkpt lat="53.281410" lon="-1.997954"><ele>424</ele><time>2021-11-13T11:11:28Z</time><name>PT3524</name></trkpt>
<trkpt lat="53.281431" lon="-1.998002"><ele>424</ele><time>2021-11-13T11:11:32Z</time><name>PT3525</name></trkpt>
<trkpt lat="53.281454" lon="-1.998052"><ele>425</ele><time>2021-11-13T11:11:36Z</time><name>PT3526</name></trkpt>
<trkpt lat="53.281475" lon="-1.998105"><ele>424</ele><time>2021-11-13T11:11:40Z</time><name>PT3527</name></trkpt>
<trkpt lat="53.281505" lon="-1.998163"><ele>425</ele><time>2021-11-13T11:11:44Z</time><name>PT3528</name></trkpt>
<trkpt lat="53.281532" lon="-1.998223"><ele>424</ele><time>2021-11-13T11:11:48Z</time><name>PT3529</name></trkpt>
<trkpt lat="53.281557" lon="-1.998280"><ele>424</ele><time>2021-11-13T11:11:52Z</time><name>PT3530</name></trkpt>
<trkpt lat="53.281587" lon="-1.998334"><ele>424</ele><time>2021-11-13T11:11:56Z</time><name>PT3531</name></trkpt>
<trkpt lat="53.281631" lon="-1.998378"><ele>425</ele><time>2021-11-13T11:12:00Z</time><name>PT3532</name></trkpt>
<trkpt lat="53.281671" lon="-1.998418"><ele>425</ele><time>2021-11-13T11:12:04Z</time><name>PT3533</name></trkpt>
<trkpt lat="53.281717" lon="-1.998450"><ele>427</ele><time>2021-11-13T11:12:08Z</time><name>PT3534</name></trkpt>
<trkpt lat="53.281753" lon="-1.998483"><ele>428</ele><time>2021-11-13T11:12:12Z</time><name>PT3535</name></trkpt>
<trkpt lat="53.281792" lon="-1.998516"><ele>429</ele><time>2021-11-13T11:12:16Z</time><name>PT3536</name></trkpt>
<trkpt lat="53.281830" lon="-1.998543"><ele>429</ele><time>2021-11-13T11:12:20Z</time><name>PT3537</name></trkpt>
<trkpt lat="53.281876" lon="-1.998566"><ele>430</ele><time>2021-11-13T11:12:24Z</time><name>PT3538</name></trkpt>
<trkpt lat="53.281914" lon="-1.998591"><ele>430</ele><time>2021-11-13T11:12:28Z</time><name>PT3539</name></trkpt>
<trkpt lat="53.281951" lon="-1.998612"><ele>431</ele><time>2021-11-13T11:12:32Z</time><name>PT3540</name></trkpt>
<trkpt lat="53.281990" lon="-1.998635"><ele>431</ele><time>2021-11-13T11:12:36Z</time><name>PT3541</name></trkpt>
<trkpt lat="53.282033" lon="-1.998656"><ele>432</ele><time>2021-11-13T11:12:40Z</time><name>PT3542</name></trkpt>
<trkpt lat="53.282077" lon="-1.998682"><ele>432</ele><time>2021-11-13T11:12:44Z</time><name>PT3543</name></trkpt>
<trkpt lat="53.282117" lon="-1.998702"><ele>433</ele><time>2021-11-13T11:12:48Z</time><name>PT3544</name></trkpt>
<trkpt lat="53.282162" lon="-1.998731"><ele>433</ele><time>2021-11-13T11:12:52Z</time><name>PT3545</name></trkpt>
<trkpt lat="53.282204" lon="-1.998754"><ele>434</ele><time>2021-11-13T11:12:56Z</time><name>PT3546</name></trkpt>
<trkpt lat="53.282244" lon="-1.998781"><ele>435</ele><time>2021-11-13T11:13:00Z</time><name>PT3547</name></trkpt>
<trkpt lat="53.282272" lon="-1.998808"><ele>434</ele><time>2021-11-13T11:13:04Z</time><name>PT3548</name></trkpt>
<trkpt lat="53.282290" lon="-1.998819"><ele>433</ele><time>2021-11-13T11:13:08Z</time><name>PT3549</name></trkpt>
<trkpt lat="53.282306" lon="-1.998810"><ele>432</ele><time>2021-11-13T11:13:12Z</time><name>PT3550</name></trkpt>
<trkpt lat="53.282334" lon="-1.998800"><ele>432</ele><time>2021-11-13T11:13:16Z</time><name>PT3551</name></trkpt>
<trkpt lat="53.282371" lon="-1.998823"><ele>433</ele><time>2021-11-13T11:13:20Z</time><name>PT3552</name></trkpt>
<trkpt lat="53.282393" lon="-1.998876"><ele>433</ele><time>2021-11-13T11:13:24Z</time><name>PT3553</name></trkpt>
<trkpt lat="53.282425" lon="-1.998896"><ele>434</ele><time>2021-11-13T11:13:28Z</time><name>PT3554</name></trkpt>
<trkpt lat="53.282461" lon="-1.998895"><ele>434</ele><time>2021-11-13T11:13:32Z</time><name>PT3555</name></trkpt>
<trkpt lat="53.282493" lon="-1.998925"><ele>434</ele><time>2021-11-13T11:13:36Z</time><name>PT3556</name></trkpt>
<trkpt lat="53.282500" lon="-1.998943"><ele>434</ele><time>2021-11-13T11:13:37Z</time><name>PT3557</name></trkpt>
<trkpt lat="53.282504" lon="-1.998957"><ele>434</ele><time>2021-11-13T11:13:38Z</time><name>PT3558</name></trkpt>
<trkpt lat="53.282511" lon="-1.998973"><ele>434</ele><time>2021-11-13T11:13:39Z</time><name>PT3559</name></trkpt>
<trkpt lat="53.282515" lon="-1.998988"><ele>434</ele><time>2021-11-13T11:13:40Z</time><name>PT3560</name></trkpt>
<trkpt lat="53.282518" lon="-1.999002"><ele>434</ele><time>2021-11-13T11:13:41Z</time><name>PT3561</name></trkpt>
<trkpt lat="53.282523" lon="-1.999016"><ele>434</ele><time>2021-11-13T11:13:42Z</time><name>PT3562</name></trkpt>
<trkpt lat="53.282527" lon="-1.999030"><ele>434</ele><time>2021-11-13T11:13:43Z</time><name>PT3563</name></trkpt>
<trkpt lat="53.282529" lon="-1.999045"><ele>434</ele><time>2021-11-13T11:13:44Z</time><name>PT3564</name></trkpt>
<trkpt lat="53.282532" lon="-1.999057"><ele>435</ele><time>2021-11-13T11:13:45Z</time><name>PT3565</name></trkpt>
<trkpt lat="53.282536" lon="-1.999071"><ele>434</ele><time>2021-11-13T11:13:46Z</time><name>PT3566</name></trkpt>
<trkpt lat="53.282540" lon="-1.999087"><ele>434</ele><time>2021-11-13T11:13:47Z</time><name>PT3567</name></trkpt>
<trkpt lat="53.282544" lon="-1.999101"><ele>434</ele><time>2021-11-13T11:13:48Z</time><name>PT3568</name></trkpt>
<trkpt lat="53.282549" lon="-1.999117"><ele>434</ele><time>2021-11-13T11:13:49Z</time><name>PT3569</name></trkpt>
<trkpt lat="53.282553" lon="-1.999130"><ele>435</ele><time>2021-11-13T11:13:50Z</time><name>PT3570</name></trkpt>
<trkpt lat="53.282559" lon="-1.999144"><ele>435</ele><time>2021-11-13T11:13:51Z</time><name>PT3571</name></trkpt>
<trkpt lat="53.282567" lon="-1.999159"><ele>435</ele><time>2021-11-13T11:13:52Z</time><name>PT3572</name></trkpt>
<trkpt lat="53.282569" lon="-1.999173"><ele>434</ele><time>2021-11-13T11:13:53Z</time><name>PT3573</name></trkpt>
<trkpt lat="53.282576" lon="-1.999187"><ele>434</ele><time>2021-11-13T11:13:54Z</time><name>PT3574</name></trkpt>
<trkpt lat="53.282581" lon="-1.999205"><ele>434</ele><time>2021-11-13T11:13:55Z</time><name>PT3575</name></trkpt>
<trkpt lat="53.282585" lon="-1.999222"><ele>434</ele><time>2021-11-13T11:13:56Z</time><name>PT3576</name></trkpt>
<trkpt lat="53.282589" lon="-1.999236"><ele>435</ele><time>2021-11-13T11:13:57Z</time><name>PT3577</name></trkpt>
<trkpt lat="53.282593" lon="-1.999251"><ele>434</ele><time>2021-11-13T11:13:58Z</time><name>PT3578</name></trkpt>
<trkpt lat="53.282600" lon="-1.999265"><ele>434</ele><time>2021-11-13T11:13:59Z</time><name>PT3579</name></trkpt>
<trkpt lat="53.282605" lon="-1.999282"><ele>434</ele><time>2021-11-13T11:14:00Z</time><name>PT3580</name></trkpt>
<trkpt lat="53.282608" lon="-1.999296"><ele>434</ele><time>2021-11-13T11:14:01Z</time><name>PT3581</name></trkpt>
<trkpt lat="53.282610" lon="-1.999313"><ele>434</ele><time>2021-11-13T11:14:02Z</time><name>PT3582</name></trkpt>
<trkpt lat="53.282615" lon="-1.999327"><ele>434</ele><time>2021-11-13T11:14:03Z</time><name>PT3583</name></trkpt>
<trkpt lat="53.282622" lon="-1.999342"><ele>434</ele><time>2021-11-13T11:14:04Z</time><name>PT3584</name></trkpt>
<trkpt lat="53.282628" lon="-1.999360"><ele>435</ele><time>2021-11-13T11:14:05Z</time><name>PT3585</name></trkpt>
<trkpt lat="53.282635" lon="-1.999378"><ele>435</ele><time>2021-11-13T11:14:06Z</time><name>PT3586</name></trkpt>
<trkpt lat="53.282640" lon="-1.999395"><ele>435</ele><time>2021-11-13T11:14:07Z</time><name>PT3587</name></trkpt>
<trkpt lat="53.282644" lon="-1.999411"><ele>436</ele><time>2021-11-13T11:14:08Z</time><name>PT3588</name></trkpt>
<trkpt lat="53.282649" lon="-1.999429"><ele>436</ele><time>2021-11-13T11:14:09Z</time><name>PT3589</name></trkpt>
<trkpt lat="53.282658" lon="-1.999446"><ele>436</ele><time>2021-11-13T11:14:10Z</time><name>PT3590</name></trkpt>
<trkpt lat="53.282665" lon="-1.999460"><ele>437</ele><time>2021-11-13T11:14:11Z</time><name>PT3591</name></trkpt>
<trkpt lat="53.282670" lon="-1.999477"><ele>436</ele><time>2021-11-13T11:14:12Z</time><name>PT3592</name></trkpt>
<trkpt lat="53.282673" lon="-1.999493"><ele>436</ele><time>2021-11-13T11:14:13Z</time><name>PT3593</name></trkpt>
<trkpt lat="53.282677" lon="-1.999510"><ele>436</ele><time>2021-11-13T11:14:14Z</time><name>PT3594</name></trkpt>
<trkpt lat="53.282681" lon="-1.999524"><ele>436</ele><time>2021-11-13T11:14:15Z</time><name>PT3595</name></trkpt>
<trkpt lat="53.282688" lon="-1.999537"><ele>436</ele><time>2021-11-13T11:14:16Z</time><name>PT3596</name></trkpt>
<trkpt lat="53.282695" lon="-1.999554"><ele>436</ele><time>2021-11-13T11:14:17Z</time><name>PT3597</name></trkpt>
<trkpt lat="53.282699" lon="-1.999571"><ele>436</ele><time>2021-11-13T11:14:18Z</time><name>PT3598</name></trkpt>
<trkpt lat="53.282703" lon="-1.999590"><ele>436</ele><time>2021-11-13T11:14:19Z</time><name>PT3599</name></trkpt>
<trkpt lat="53.282709" lon="-1.999602"><ele>436</ele><time>2021-11-13T11:14:20Z</time><name>PT3600</name></trkpt>
<trkpt lat="53.282715" lon="-1.999618"><ele>436</ele><time>2021-11-13T11:14:21Z</time><name>PT3601</name></trkpt>
<trkpt lat="53.282722" lon="-1.999633"><ele>436</ele><time>2021-11-13T11:14:22Z</time><name>PT3602</name></trkpt>
<trkpt lat="53.282726" lon="-1.999648"><ele>436</ele><time>2021-11-13T11:14:23Z</time><name>PT3603</name></trkpt>
<trkpt lat="53.282728" lon="-1.999668"><ele>436</ele><time>2021-11-13T11:14:24Z</time><name>PT3604</name></trkpt>
<trkpt lat="53.282732" lon="-1.999682"><ele>436</ele><time>2021-11-13T11:14:25Z</time><name>PT3605</name></trkpt>
<trkpt lat="53.282738" lon="-1.999698"><ele>436</ele><time>2021-11-13T11:14:26Z</time><name>PT3606</name></trkpt>
<trkpt lat="53.282745" lon="-1.999714"><ele>436</ele><time>2021-11-13T11:14:27Z</time><name>PT3607</name></trkpt>
<trkpt lat="53.282747" lon="-1.999732"><ele>436</ele><time>2021-11-13T11:14:28Z</time><name>PT3608</name></trkpt>
<trkpt lat="53.282750" lon="-1.999748"><ele>436</ele><time>2021-11-13T11:14:29Z</time><name>PT3609</name></trkpt>
<trkpt lat="53.282754" lon="-1.999764"><ele>436</ele><time>2021-11-13T11:14:30Z</time><name>PT3610</name></trkpt>
<trkpt lat="53.282760" lon="-1.999777"><ele>436</ele><time>2021-11-13T11:14:31Z</time><name>PT3611</name></trkpt>
<trkpt lat="53.282765" lon="-1.999792"><ele>435</ele><time>2021-11-13T11:14:32Z</time><name>PT3612</name></trkpt>
<trkpt lat="53.282770" lon="-1.999807"><ele>435</ele><time>2021-11-13T11:14:33Z</time><name>PT3613</name></trkpt>
<trkpt lat="53.282772" lon="-1.999822"><ele>435</ele><time>2021-11-13T11:14:34Z</time><name>PT3614</name></trkpt>
<trkpt lat="53.282777" lon="-1.999835"><ele>435</ele><time>2021-11-13T11:14:35Z</time><name>PT3615</name></trkpt>
<trkpt lat="53.282783" lon="-1.999848"><ele>435</ele><time>2021-11-13T11:14:36Z</time><name>PT3616</name></trkpt>
<trkpt lat="53.282790" lon="-1.999859"><ele>435</ele><time>2021-11-13T11:14:37Z</time><name>PT3617</name></trkpt>
<trkpt lat="53.282793" lon="-1.999871"><ele>435</ele><time>2021-11-13T11:14:38Z</time><name>PT3618</name></trkpt>
<trkpt lat="53.282801" lon="-1.999881"><ele>436</ele><time>2021-11-13T11:14:39Z</time><name>PT3619</name></trkpt>
<trkpt lat="53.282805" lon="-1.999892"><ele>435</ele><time>2021-11-13T11:14:40Z</time><name>PT3620</name></trkpt>
<trkpt lat="53.282811" lon="-1.999902"><ele>436</ele><time>2021-11-13T11:14:41Z</time><name>PT3621</name></trkpt>
<trkpt lat="53.282815" lon="-1.999915"><ele>436</ele><time>2021-11-13T11:14:42Z</time><name>PT3622</name></trkpt>
<trkpt lat="53.282821" lon="-1.999930"><ele>436</ele><time>2021-11-13T11:14:43Z</time><name>PT3623</name></trkpt>
<trkpt lat="53.282826" lon="-1.999947"><ele>436</ele><time>2021-11-13T11:14:44Z</time><name>PT3624</name></trkpt>
<trkpt lat="53.282831" lon="-1.999963"><ele>436</ele><time>2021-11-13T11:14:45Z</time><name>PT3625</name></trkpt>
<trkpt lat="53.282836" lon="-1.999978"><ele>436</ele><time>2021-11-13T11:14:46Z</time><name>PT3626</name></trkpt>
<trkpt lat="53.282841" lon="-1.999990"><ele>436</ele><time>2021-11-13T11:14:47Z</time><name>PT3627</name></trkpt>
<trkpt lat="53.282844" lon="-2.000002"><ele>437</ele><time>2021-11-13T11:14:48Z</time><name>PT3628</name></trkpt>
<trkpt lat="53.282846" lon="-2.000015"><ele>437</ele><time>2021-11-13T11:14:49Z</time><name>PT3629</name></trkpt>
<trkpt lat="53.282849" lon="-2.000030"><ele>437</ele><time>2021-11-13T11:14:50Z</time><name>PT3630</name></trkpt>
<trkpt lat="53.282852" lon="-2.000046"><ele>437</ele><time>2021-11-13T11:14:51Z</time><name>PT3631</name></trkpt>
<trkpt lat="53.282856" lon="-2.000065"><ele>437</ele><time>2021-11-13T11:14:52Z</time><name>PT3632</name></trkpt>
<trkpt lat="53.282863" lon="-2.000084"><ele>438</ele><time>2021-11-13T11:14:53Z</time><name>PT3633</name></trkpt>
<trkpt lat="53.282867" lon="-2.000101"><ele>438</ele><time>2021-11-13T11:14:54Z</time><name>PT3634</name></trkpt>
<trkpt lat="53.282872" lon="-2.000119"><ele>438</ele><time>2021-11-13T11:14:55Z</time><name>PT3635</name></trkpt>
<trkpt lat="53.282879" lon="-2.000133"><ele>438</ele><time>2021-11-13T11:14:56Z</time><name>PT3636</name></trkpt>
<trkpt lat="53.282885" lon="-2.000150"><ele>438</ele><time>2021-11-13T11:14:57Z</time><name>PT3637</name></trkpt>
<trkpt lat="53.282893" lon="-2.000166"><ele>438</ele><time>2021-11-13T11:14:58Z</time><name>PT3638</name></trkpt>
<trkpt lat="53.282899" lon="-2.000184"><ele>438</ele><time>2021-11-13T11:14:59Z</time><name>PT3639</name></trkpt>
<trkpt lat="53.282903" lon="-2.000198"><ele>438</ele><time>2021-11-13T11:15:00Z</time><name>PT3640</name></trkpt>
<trkpt lat="53.282910" lon="-2.000211"><ele>438</ele><time>2021-11-13T11:15:01Z</time><name>PT3641</name></trkpt>
<trkpt lat="53.282917" lon="-2.000224"><ele>438</ele><time>2021-11-13T11:15:02Z</time><name>PT3642</name></trkpt>
<trkpt lat="53.282924" lon="-2.000237"><ele>438</ele><time>2021-11-13T11:15:03Z</time><name>PT3643</name></trkpt>
<trkpt lat="53.282931" lon="-2.000248"><ele>438</ele><time>2021-11-13T11:15:04Z</time><name>PT3644</name></trkpt>
<trkpt lat="53.282936" lon="-2.000259"><ele>438</ele><time>2021-11-13T11:15:05Z</time><name>PT3645</name></trkpt>
<trkpt lat="53.282940" lon="-2.000270"><ele>438</ele><time>2021-11-13T11:15:06Z</time><name>PT3646</name></trkpt>
<trkpt lat="53.282944" lon="-2.000283"><ele>438</ele><time>2021-11-13T11:15:07Z</time><name>PT3647</name></trkpt>
<trkpt lat="53.282946" lon="-2.000295"><ele>438</ele><time>2021-11-13T11:15:08Z</time><name>PT3648</name></trkpt>
<trkpt lat="53.282949" lon="-2.000305"><ele>438</ele><time>2021-11-13T11:15:09Z</time><name>PT3649</name></trkpt>
<trkpt lat="53.282952" lon="-2.000319"><ele>438</ele><time>2021-11-13T11:15:10Z</time><name>PT3650</name></trkpt>
<trkpt lat="53.282953" lon="-2.000335"><ele>438</ele><time>2021-11-13T11:15:11Z</time><name>PT3651</name></trkpt>
<trkpt lat="53.282958" lon="-2.000347"><ele>438</ele><time>2021-11-13T11:15:12Z</time><name>PT3652</name></trkpt>
<trkpt lat="53.282963" lon="-2.000361"><ele>439</ele><time>2021-11-13T11:15:13Z</time><name>PT3653</name></trkpt>
<trkpt lat="53.282968" lon="-2.000374"><ele>439</ele><time>2021-11-13T11:15:14Z</time><name>PT3654</name></trkpt>
<trkpt lat="53.282976" lon="-2.000388"><ele>439</ele><time>2021-11-13T11:15:15Z</time><name>PT3655</name></trkpt>
<trkpt lat="53.282983" lon="-2.000399"><ele>439</ele><time>2021-11-13T11:15:16Z</time><name>PT3656</name></trkpt>
<trkpt lat="53.282990" lon="-2.000415"><ele>439</ele><time>2021-11-13T11:15:17Z</time><name>PT3657</name></trkpt>
<trkpt lat="53.282995" lon="-2.000426"><ele>439</ele><time>2021-11-13T11:15:18Z</time><name>PT3658</name></trkpt>
<trkpt lat="53.282998" lon="-2.000438"><ele>439</ele><time>2021-11-13T11:15:19Z</time><name>PT3659</name></trkpt>
<trkpt lat="53.283001" lon="-2.000449"><ele>439</ele><time>2021-11-13T11:15:20Z</time><name>PT3660</name></trkpt>
<trkpt lat="53.283002" lon="-2.000461"><ele>439</ele><time>2021-11-13T11:15:21Z</time><name>PT3661</name></trkpt>
<trkpt lat="53.283008" lon="-2.000473"><ele>440</ele><time>2021-11-13T11:15:22Z</time><name>PT3662</name></trkpt>
<trkpt lat="53.283014" lon="-2.000487"><ele>440</ele><time>2021-11-13T11:15:23Z</time><name>PT3663</name></trkpt>
<trkpt lat="53.283017" lon="-2.000499"><ele>440</ele><time>2021-11-13T11:15:24Z</time><name>PT3664</name></trkpt>
<trkpt lat="53.283021" lon="-2.000513"><ele>439</ele><time>2021-11-13T11:15:25Z</time><name>PT3665</name></trkpt>
<trkpt lat="53.283027" lon="-2.000526"><ele>439</ele><time>2021-11-13T11:15:26Z</time><name>PT3666</name></trkpt>
<trkpt lat="53.283033" lon="-2.000541"><ele>439</ele><time>2021-11-13T11:15:27Z</time><name>PT3667</name></trkpt>
<trkpt lat="53.283043" lon="-2.000556"><ele>440</ele><time>2021-11-13T11:15:28Z</time><name>PT3668</name></trkpt>
<trkpt lat="53.283049" lon="-2.000570"><ele>440</ele><time>2021-11-13T11:15:29Z</time><name>PT3669</name></trkpt>
<trkpt lat="53.283057" lon="-2.000584"><ele>439</ele><time>2021-11-13T11:15:30Z</time><name>PT3670</name></trkpt>
<trkpt lat="53.283062" lon="-2.000599"><ele>439</ele><time>2021-11-13T11:15:31Z</time><name>PT3671</name></trkpt>
<trkpt lat="53.283069" lon="-2.000611"><ele>439</ele><time>2021-11-13T11:15:32Z</time><name>PT3672</name></trkpt>
<trkpt lat="53.283075" lon="-2.000621"><ele>439</ele><time>2021-11-13T11:15:33Z</time><name>PT3673</name></trkpt>
<trkpt lat="53.283082" lon="-2.000633"><ele>439</ele><time>2021-11-13T11:15:34Z</time><name>PT3674</name></trkpt>
<trkpt lat="53.283088" lon="-2.000643"><ele>439</ele><time>2021-11-13T11:15:35Z</time><name>PT3675</name></trkpt>
<trkpt lat="53.283096" lon="-2.000655"><ele>440</ele><time>2021-11-13T11:15:36Z</time><name>PT3676</name></trkpt>
<trkpt lat="53.283129" lon="-2.000700"><ele>440</ele><time>2021-11-13T11:15:40Z</time><name>PT3677</name></trkpt>
<trkpt lat="53.283167" lon="-2.000751"><ele>441</ele><time>2021-11-13T11:15:44Z</time><name>PT3678</name></trkpt>
<trkpt lat="53.283206" lon="-2.000805"><ele>440</ele><time>2021-11-13T11:15:48Z</time><name>PT3679</name></trkpt>
<trkpt lat="53.283245" lon="-2.000854"><ele>440</ele><time>2021-11-13T11:15:52Z</time><name>PT3680</name></trkpt>
<trkpt lat="53.283275" lon="-2.000907"><ele>440</ele><time>2021-11-13T11:15:56Z</time><name>PT3681</name></trkpt>
<trkpt lat="53.283311" lon="-2.000956"><ele>440</ele><time>2021-11-13T11:16:00Z</time><name>PT3682</name></trkpt>
<trkpt lat="53.283345" lon="-2.001009"><ele>439</ele><time>2021-11-13T11:16:04Z</time><name>PT3683</name></trkpt>
<trkpt lat="53.283365" lon="-2.001058"><ele>439</ele><time>2021-11-13T11:16:08Z</time><name>PT3684</name></trkpt>
<trkpt lat="53.283386" lon="-2.001116"><ele>438</ele><time>2021-11-13T11:16:12Z</time><name>PT3685</name></trkpt>
<trkpt lat="53.283426" lon="-2.001144"><ele>439</ele><time>2021-11-13T11:16:16Z</time><name>PT3686</name></trkpt>
<trkpt lat="53.283460" lon="-2.001167"><ele>438</ele><time>2021-11-13T11:16:20Z</time><name>PT3687</name></trkpt>
<trkpt lat="53.283496" lon="-2.001220"><ele>438</ele><time>2021-11-13T11:16:24Z</time><name>PT3688</name></trkpt>
<trkpt lat="53.283534" lon="-2.001269"><ele>440</ele><time>2021-11-13T11:16:28Z</time><name>PT3689</name></trkpt>
<trkpt lat="53.283564" lon="-2.001313"><ele>439</ele><time>2021-11-13T11:16:32Z</time><name>PT3690</name></trkpt>
<trkpt lat="53.283595" lon="-2.001370"><ele>439</ele><time>2021-11-13T11:16:36Z</time><name>PT3691</name></trkpt>
<trkpt lat="53.283629" lon="-2.001414"><ele>439</ele><time>2021-11-13T11:16:40Z</time><name>PT3692</name></trkpt>
<trkpt lat="53.283659" lon="-2.001470"><ele>439</ele><time>2021-11-13T11:16:44Z</time><name>PT3693</name></trkpt>
<trkpt lat="53.283685" lon="-2.001516"><ele>439</ele><time>2021-11-13T11:16:48Z</time><name>PT3694</name></trkpt>
<trkpt lat="53.283709" lon="-2.001578"><ele>438</ele><time>2021-11-13T11:16:52Z</time><name>PT3695</name></trkpt>
<trkpt lat="53.283734" lon="-2.001638"><ele>437</ele><time>2021-11-13T11:16:56Z</time><name>PT3696</name></trkpt>
<trkpt lat="53.283760" lon="-2.001706"><ele>437</ele><time>2021-11-13T11:17:00Z</time><name>PT3697</name></trkpt>
<trkpt lat="53.283780" lon="-2.001767"><ele>437</ele><time>2021-11-13T11:17:04Z</time><name>PT3698</name></trkpt>
<trkpt lat="53.283781" lon="-2.001835"><ele>437</ele><time>2021-11-13T11:17:08Z</time><name>PT3699</name></trkpt>
<trkpt lat="53.283815" lon="-2.001894"><ele>436</ele><time>2021-11-13T11:17:12Z</time><name>PT3700</name></trkpt>
<trkpt lat="53.283850" lon="-2.001960"><ele>436</ele><time>2021-11-13T11:17:16Z</time><name>PT3701</name></trkpt>
<trkpt lat="53.283882" lon="-2.002024"><ele>437</ele><time>2021-11-13T11:17:20Z</time><name>PT3702</name></trkpt>
<trkpt lat="53.283918" lon="-2.002089"><ele>438</ele><time>2021-11-13T11:17:24Z</time><name>PT3703</name></trkpt>
<trkpt lat="53.283949" lon="-2.002155"><ele>438</ele><time>2021-11-13T11:17:28Z</time><name>PT3704</name></trkpt>
<trkpt lat="53.283981" lon="-2.002222"><ele>438</ele><time>2021-11-13T11:17:32Z</time><name>PT3705</name></trkpt>
<trkpt lat="53.284014" lon="-2.002280"><ele>438</ele><time>2021-11-13T11:17:36Z</time><name>PT3706</name></trkpt>
<trkpt lat="53.284052" lon="-2.002344"><ele>438</ele><time>2021-11-13T11:17:40Z</time><name>PT3707</name></trkpt>
<trkpt lat="53.284094" lon="-2.002385"><ele>438</ele><time>2021-11-13T11:17:44Z</time><name>PT3708</name></trkpt>
<trkpt lat="53.284131" lon="-2.002406"><ele>438</ele><time>2021-11-13T11:17:48Z</time><name>PT3709</name></trkpt>
<trkpt lat="53.284150" lon="-2.002465"><ele>438</ele><time>2021-11-13T11:17:52Z</time><name>PT3710</name></trkpt>
<trkpt lat="53.284168" lon="-2.002525"><ele>437</ele><time>2021-11-13T11:17:56Z</time><name>PT3711</name></trkpt>
<trkpt lat="53.284192" lon="-2.002557"><ele>438</ele><time>2021-11-13T11:18:00Z</time><name>PT3712</name></trkpt>
<trkpt lat="53.284220" lon="-2.002601"><ele>439</ele><time>2021-11-13T11:18:04Z</time><name>PT3713</name></trkpt>
<trkpt lat="53.284257" lon="-2.002648"><ele>440</ele><time>2021-11-13T11:18:08Z</time><name>PT3714</name></trkpt>
<trkpt lat="53.284288" lon="-2.002690"><ele>439</ele><time>2021-11-13T11:18:12Z</time><name>PT3715</name></trkpt>
<trkpt lat="53.284314" lon="-2.002741"><ele>439</ele><time>2021-11-13T11:18:16Z</time><name>PT3716</name></trkpt>
<trkpt lat="53.284338" lon="-2.002790"><ele>438</ele><time>2021-11-13T11:18:20Z</time><name>PT3717</name></trkpt>
<trkpt lat="53.284360" lon="-2.002837"><ele>438</ele><time>2021-11-13T11:18:24Z</time><name>PT3718</name></trkpt>
<trkpt lat="53.284392" lon="-2.002887"><ele>438</ele><time>2021-11-13T11:18:28Z</time><name>PT3719</name></trkpt>
<trkpt lat="53.284428" lon="-2.002929"><ele>438</ele><time>2021-11-13T11:18:32Z</time><name>PT3720</name></trkpt>
<trkpt lat="53.284467" lon="-2.002975"><ele>439</ele><time>2021-11-13T11:18:36Z</time><name>PT3721</name></trkpt>
<trkpt lat="53.284501" lon="-2.003013"><ele>439</ele><time>2021-11-13T11:18:40Z</time><name>PT3722</name></trkpt>
<trkpt lat="53.284538" lon="-2.003066"><ele>439</ele><time>2021-11-13T11:18:44Z</time><name>PT3723</name></trkpt>
<trkpt lat="53.284575" lon="-2.003105"><ele>440</ele><time>2021-11-13T11:18:48Z</time><name>PT3724</name></trkpt>
<trkpt lat="53.284610" lon="-2.003151"><ele>439</ele><time>2021-11-13T11:18:52Z</time><name>PT3725</name></trkpt>
<trkpt lat="53.284648" lon="-2.003196"><ele>439</ele><time>2021-11-13T11:18:56Z</time><name>PT3726</name></trkpt>
<trkpt lat="53.284688" lon="-2.003232"><ele>440</ele><time>2021-11-13T11:19:00Z</time><name>PT3727</name></trkpt>
<trkpt lat="53.284728" lon="-2.003261"><ele>439</ele><time>2021-11-13T11:19:04Z</time><name>PT3728</name></trkpt>
<trkpt lat="53.284765" lon="-2.003285"><ele>439</ele><time>2021-11-13T11:19:08Z</time><name>PT3729</name></trkpt>
<trkpt lat="53.284810" lon="-2.003319"><ele>440</ele><time>2021-11-13T11:19:12Z</time><name>PT3730</name></trkpt>
<trkpt lat="53.284854" lon="-2.003348"><ele>439</ele><time>2021-11-13T11:19:16Z</time><name>PT3731</name></trkpt>
<trkpt lat="53.284884" lon="-2.003393"><ele>439</ele><time>2021-11-13T11:19:20Z</time><name>PT3732</name></trkpt>
<trkpt lat="53.284925" lon="-2.003432"><ele>439</ele><time>2021-11-13T11:19:24Z</time><name>PT3733</name></trkpt>
<trkpt lat="53.284961" lon="-2.003462"><ele>439</ele><time>2021-11-13T11:19:28Z</time><name>PT3734</name></trkpt>
<trkpt lat="53.285004" lon="-2.003500"><ele>440</ele><time>2021-11-13T11:19:32Z</time><name>PT3735</name></trkpt>
<trkpt lat="53.285043" lon="-2.003540"><ele>440</ele><time>2021-11-13T11:19:36Z</time><name>PT3736</name></trkpt>
<trkpt lat="53.285083" lon="-2.003585"><ele>441</ele><time>2021-11-13T11:19:40Z</time><name>PT3737</name></trkpt>
<trkpt lat="53.285122" lon="-2.003625"><ele>440</ele><time>2021-11-13T11:19:44Z</time><name>PT3738</name></trkpt>
<trkpt lat="53.285162" lon="-2.003673"><ele>440</ele><time>2021-11-13T11:19:48Z</time><name>PT3739</name></trkpt>
<trkpt lat="53.285201" lon="-2.003712"><ele>440</ele><time>2021-11-13T11:19:52Z</time><name>PT3740</name></trkpt>
<trkpt lat="53.285246" lon="-2.003755"><ele>440</ele><time>2021-11-13T11:19:56Z</time><name>PT3741</name></trkpt>
<trkpt lat="53.285291" lon="-2.003797"><ele>440</ele><time>2021-11-13T11:20:00Z</time><name>PT3742</name></trkpt>
<trkpt lat="53.285323" lon="-2.003848"><ele>440</ele><time>2021-11-13T11:20:04Z</time><name>PT3743</name></trkpt>
<trkpt lat="53.285356" lon="-2.003898"><ele>441</ele><time>2021-11-13T11:20:08Z</time><name>PT3744</name></trkpt>
<trkpt lat="53.285387" lon="-2.003939"><ele>441</ele><time>2021-11-13T11:20:12Z</time><name>PT3745</name></trkpt>
<trkpt lat="53.285422" lon="-2.003982"><ele>440</ele><time>2021-11-13T11:20:16Z</time><name>PT3746</name></trkpt>
<trkpt lat="53.285459" lon="-2.004030"><ele>441</ele><time>2021-11-13T11:20:20Z</time><name>PT3747</name></trkpt>
<trkpt lat="53.285492" lon="-2.004066"><ele>442</ele><time>2021-11-13T11:20:24Z</time><name>PT3748</name></trkpt>
<trkpt lat="53.285522" lon="-2.004118"><ele>441</ele><time>2021-11-13T11:20:28Z</time><name>PT3749</name></trkpt>
<trkpt lat="53.285557" lon="-2.004163"><ele>441</ele><time>2021-11-13T11:20:32Z</time><name>PT3750</name></trkpt>
<trkpt lat="53.285590" lon="-2.004206"><ele>442</ele><time>2021-11-13T11:20:36Z</time><name>PT3751</name></trkpt>
<trkpt lat="53.285614" lon="-2.004246"><ele>442</ele><time>2021-11-13T11:20:40Z</time><name>PT3752</name></trkpt>
<trkpt lat="53.285648" lon="-2.004282"><ele>442</ele><time>2021-11-13T11:20:44Z</time><name>PT3753</name></trkpt>
<trkpt lat="53.285689" lon="-2.004328"><ele>443</ele><time>2021-11-13T11:20:48Z</time><name>PT3754</name></trkpt>
<trkpt lat="53.285727" lon="-2.004365"><ele>443</ele><time>2021-11-13T11:20:52Z</time><name>PT3755</name></trkpt>
<trkpt lat="53.285757" lon="-2.004408"><ele>443</ele><time>2021-11-13T11:20:56Z</time><name>PT3756</name></trkpt>
<trkpt lat="53.285787" lon="-2.004452"><ele>443</ele><time>2021-11-13T11:21:00Z</time><name>PT3757</name></trkpt>
<trkpt lat="53.285821" lon="-2.004492"><ele>444</ele><time>2021-11-13T11:21:04Z</time><name>PT3758</name></trkpt>
<trkpt lat="53.285859" lon="-2.004544"><ele>444</ele><time>2021-11-13T11:21:08Z</time><name>PT3759</name></trkpt>
<trkpt lat="53.285895" lon="-2.004596"><ele>445</ele><time>2021-11-13T11:21:12Z</time><name>PT3760</name></trkpt>
<trkpt lat="53.285930" lon="-2.004644"><ele>445</ele><time>2021-11-13T11:21:16Z</time><name>PT3761</name></trkpt>
<trkpt lat="53.285971" lon="-2.004691"><ele>447</ele><time>2021-11-13T11:21:20Z</time><name>PT3762</name></trkpt>
<trkpt lat="53.286000" lon="-2.004741"><ele>446</ele><time>2021-11-13T11:21:24Z</time><name>PT3763</name></trkpt>
<trkpt lat="53.286034" lon="-2.004789"><ele>447</ele><time>2021-11-13T11:21:28Z</time><name>PT3764</name></trkpt>
<trkpt lat="53.286063" lon="-2.004839"><ele>447</ele><time>2021-11-13T11:21:32Z</time><name>PT3765</name></trkpt>
<trkpt lat="53.286096" lon="-2.004892"><ele>448</ele><time>2021-11-13T11:21:36Z</time><name>PT3766</name></trkpt>
<trkpt lat="53.286130" lon="-2.004941"><ele>448</ele><time>2021-11-13T11:21:40Z</time><name>PT3767</name></trkpt>
<trkpt lat="53.286155" lon="-2.004992"><ele>448</ele><time>2021-11-13T11:21:44Z</time><name>PT3768</name></trkpt>
<trkpt lat="53.286181" lon="-2.005041"><ele>448</ele><time>2021-11-13T11:21:48Z</time><name>PT3769</name></trkpt>
<trkpt lat="53.286205" lon="-2.005081"><ele>448</ele><time>2021-11-13T11:21:51Z</time><name>PT3770</name></trkpt>
<trkpt lat="53.286241" lon="-2.005130"><ele>450</ele><time>2021-11-13T11:21:55Z</time><name>PT3771</name></trkpt>
<trkpt lat="53.286270" lon="-2.005177"><ele>450</ele><time>2021-11-13T11:21:59Z</time><name>PT3772</name></trkpt>
<trkpt lat="53.286302" lon="-2.005227"><ele>450</ele><time>2021-11-13T11:22:03Z</time><name>PT3773</name></trkpt>
<trkpt lat="53.286321" lon="-2.005254"><ele>451</ele><time>2021-11-13T11:22:07Z</time><name>PT3774</name></trkpt>
<trkpt lat="53.286345" lon="-2.005299"><ele>451</ele><time>2021-11-13T11:22:11Z</time><name>PT3775</name></trkpt>
<trkpt lat="53.286372" lon="-2.005358"><ele>451</ele><time>2021-11-13T11:22:15Z</time><name>PT3776</name></trkpt>
<trkpt lat="53.286403" lon="-2.005414"><ele>452</ele><time>2021-11-13T11:22:19Z</time><name>PT3777</name></trkpt>
<trkpt lat="53.286434" lon="-2.005467"><ele>451</ele><time>2021-11-13T11:22:23Z</time><name>PT3778</name></trkpt>
<trkpt lat="53.286463" lon="-2.005521"><ele>451</ele><time>2021-11-13T11:22:27Z</time><name>PT3779</name></trkpt>
<trkpt lat="53.286500" lon="-2.005574"><ele>452</ele><time>2021-11-13T11:22:31Z</time><name>PT3780</name></trkpt>
<trkpt lat="53.286526" lon="-2.005623"><ele>452</ele><time>2021-11-13T11:22:35Z</time><name>PT3781</name></trkpt>
<trkpt lat="53.286557" lon="-2.005673"><ele>453</ele><time>2021-11-13T11:22:39Z</time><name>PT3782</name></trkpt>
<trkpt lat="53.286585" lon="-2.005721"><ele>453</ele><time>2021-11-13T11:22:43Z</time><name>PT3783</name></trkpt>
<trkpt lat="53.286611" lon="-2.005773"><ele>453</ele><time>2021-11-13T11:22:47Z</time><name>PT3784</name></trkpt>
<trkpt lat="53.286633" lon="-2.005820"><ele>453</ele><time>2021-11-13T11:22:51Z</time><name>PT3785</name></trkpt>
<trkpt lat="53.286667" lon="-2.005876"><ele>454</ele><time>2021-11-13T11:22:55Z</time><name>PT3786</name></trkpt>
<trkpt lat="53.286696" lon="-2.005923"><ele>456</ele><time>2021-11-13T11:22:59Z</time><name>PT3787</name></trkpt>
<trkpt lat="53.286724" lon="-2.005975"><ele>456</ele><time>2021-11-13T11:23:03Z</time><name>PT3788</name></trkpt>
<trkpt lat="53.286751" lon="-2.006021"><ele>457</ele><time>2021-11-13T11:23:07Z</time><name>PT3789</name></trkpt>
<trkpt lat="53.286785" lon="-2.006069"><ele>457</ele><time>2021-11-13T11:23:11Z</time><name>PT3790</name></trkpt>
<trkpt lat="53.286816" lon="-2.006127"><ele>457</ele><time>2021-11-13T11:23:15Z</time><name>PT3791</name></trkpt>
<trkpt lat="53.286840" lon="-2.006176"><ele>457</ele><time>2021-11-13T11:23:19Z</time><name>PT3792</name></trkpt>
<trkpt lat="53.286865" lon="-2.006221"><ele>458</ele><time>2021-11-13T11:23:23Z</time><name>PT3793</name></trkpt>
<trkpt lat="53.286893" lon="-2.006272"><ele>458</ele><time>2021-11-13T11:23:27Z</time><name>PT3794</name></trkpt>
<trkpt lat="53.286914" lon="-2.006328"><ele>459</ele><time>2021-11-13T11:23:31Z</time><name>PT3795</name></trkpt>
<trkpt lat="53.286946" lon="-2.006366"><ele>459</ele><time>2021-11-13T11:23:35Z</time><name>PT3796</name></trkpt>
<trkpt lat="53.286968" lon="-2.006417"><ele>460</ele><time>2021-11-13T11:23:39Z</time><name>PT3797</name></trkpt>
<trkpt lat="53.286984" lon="-2.006473"><ele>460</ele><time>2021-11-13T11:23:43Z</time><name>PT3798</name></trkpt>
<trkpt lat="53.287003" lon="-2.006532"><ele>460</ele><time>2021-11-13T11:23:47Z</time><name>PT3799</name></trkpt>
<trkpt lat="53.287028" lon="-2.006585"><ele>461</ele><time>2021-11-13T11:23:51Z</time><name>PT3800</name></trkpt>
<trkpt lat="53.287050" lon="-2.006639"><ele>461</ele><time>2021-11-13T11:23:55Z</time><name>PT3801</name></trkpt>
<trkpt lat="53.287071" lon="-2.006697"><ele>461</ele><time>2021-11-13T11:23:59Z</time><name>PT3802</name></trkpt>
<trkpt lat="53.287090" lon="-2.006757"><ele>461</ele><time>2021-11-13T11:24:03Z</time><name>PT3803</name></trkpt>
<trkpt lat="53.287115" lon="-2.006816"><ele>462</ele><time>2021-11-13T11:24:07Z</time><name>PT3804</name></trkpt>
<trkpt lat="53.287135" lon="-2.006872"><ele>462</ele><time>2021-11-13T11:24:11Z</time><name>PT3805</name></trkpt>
<trkpt lat="53.287158" lon="-2.006929"><ele>463</ele><time>2021-11-13T11:24:15Z</time><name>PT3806</name></trkpt>
<trkpt lat="53.287178" lon="-2.006982"><ele>464</ele><time>2021-11-13T11:24:19Z</time><name>PT3807</name></trkpt>
<trkpt lat="53.287195" lon="-2.007040"><ele>465</ele><time>2021-11-13T11:24:23Z</time><name>PT3808</name></trkpt>
<trkpt lat="53.287216" lon="-2.007075"><ele>466</ele><time>2021-11-13T11:24:27Z</time><name>PT3809</name></trkpt>
<trkpt lat="53.287234" lon="-2.007126"><ele>466</ele><time>2021-11-13T11:24:31Z</time><name>PT3810</name></trkpt>
<trkpt lat="53.287260" lon="-2.007182"><ele>467</ele><time>2021-11-13T11:24:35Z</time><name>PT3811</name></trkpt>
<trkpt lat="53.287274" lon="-2.007219"><ele>466</ele><time>2021-11-13T11:24:39Z</time><name>PT3812</name></trkpt>
<trkpt lat="53.287261" lon="-2.007261"><ele>467</ele><time>2021-11-13T11:24:43Z</time><name>PT3813</name></trkpt>
<trkpt lat="53.287253" lon="-2.007282"><ele>468</ele><time>2021-11-13T11:24:46Z</time><name>PT3814</name></trkpt>
<trkpt lat="53.287250" lon="-2.007291"><ele>468</ele><time>2021-11-13T11:24:47Z</time><name>PT3815</name></trkpt>
<trkpt lat="53.287246" lon="-2.007303"><ele>467</ele><time>2021-11-13T11:24:48Z</time><name>PT3816</name></trkpt>
<trkpt lat="53.287245" lon="-2.007316"><ele>467</ele><time>2021-11-13T11:24:49Z</time><name>PT3817</name></trkpt>
<trkpt lat="53.287247" lon="-2.007331"><ele>467</ele><time>2021-11-13T11:24:50Z</time><name>PT3818</name></trkpt>
<trkpt lat="53.287251" lon="-2.007350"><ele>467</ele><time>2021-11-13T11:24:51Z</time><name>PT3819</name></trkpt>
<trkpt lat="53.287253" lon="-2.007368"><ele>467</ele><time>2021-11-13T11:24:52Z</time><name>PT3820</name></trkpt>
<trkpt lat="53.287256" lon="-2.007386"><ele>467</ele><time>2021-11-13T11:24:53Z</time><name>PT3821</name></trkpt>
<trkpt lat="53.287259" lon="-2.007402"><ele>467</ele><time>2021-11-13T11:24:54Z</time><name>PT3822</name></trkpt>
<trkpt lat="53.287258" lon="-2.007418"><ele>467</ele><time>2021-11-13T11:24:55Z</time><name>PT3823</name></trkpt>
<trkpt lat="53.287255" lon="-2.007429"><ele>467</ele><time>2021-11-13T11:24:56Z</time><name>PT3824</name></trkpt>
<trkpt lat="53.287253" lon="-2.007439"><ele>467</ele><time>2021-11-13T11:24:57Z</time><name>PT3825</name></trkpt>
<trkpt lat="53.287254" lon="-2.007450"><ele>468</ele><time>2021-11-13T11:24:58Z</time><name>PT3826</name></trkpt>
<trkpt lat="53.287255" lon="-2.007466"><ele>468</ele><time>2021-11-13T11:24:59Z</time><name>PT3827</name></trkpt>
<trkpt lat="53.287254" lon="-2.007479"><ele>468</ele><time>2021-11-13T11:25:00Z</time><name>PT3828</name></trkpt>
<trkpt lat="53.287254" lon="-2.007491"><ele>468</ele><time>2021-11-13T11:25:01Z</time><name>PT3829</name></trkpt>
<trkpt lat="53.287256" lon="-2.007505"><ele>469</ele><time>2021-11-13T11:25:02Z</time><name>PT3830</name></trkpt>
<trkpt lat="53.287255" lon="-2.007520"><ele>469</ele><time>2021-11-13T11:25:03Z</time><name>PT3831</name></trkpt>
<trkpt lat="53.287253" lon="-2.007531"><ele>469</ele><time>2021-11-13T11:25:04Z</time><name>PT3832</name></trkpt>
<trkpt lat="53.287250" lon="-2.007542"><ele>469</ele><time>2021-11-13T11:25:05Z</time><name>PT3833</name></trkpt>
<trkpt lat="53.287246" lon="-2.007552"><ele>469</ele><time>2021-11-13T11:25:06Z</time><name>PT3834</name></trkpt>
<trkpt lat="53.287245" lon="-2.007563"><ele>469</ele><time>2021-11-13T11:25:07Z</time><name>PT3835</name></trkpt>
<trkpt lat="53.287242" lon="-2.007573"><ele>469</ele><time>2021-11-13T11:25:08Z</time><name>PT3836</name></trkpt>
<trkpt lat="53.287239" lon="-2.007580"><ele>469</ele><time>2021-11-13T11:25:09Z</time><name>PT3837</name></trkpt>
<trkpt lat="53.287239" lon="-2.007586"><ele>469</ele><time>2021-11-13T11:25:10Z</time><name>PT3838</name></trkpt>
<trkpt lat="53.287238" lon="-2.007591"><ele>469</ele><time>2021-11-13T11:25:11Z</time><name>PT3839</name></trkpt>
<trkpt lat="53.287237" lon="-2.007599"><ele>469</ele><time>2021-11-13T11:25:12Z</time><name>PT3840</name></trkpt>
<trkpt lat="53.287237" lon="-2.007607"><ele>469</ele><time>2021-11-13T11:25:13Z</time><name>PT3841</name></trkpt>
<trkpt lat="53.287237" lon="-2.007611"><ele>469</ele><time>2021-11-13T11:25:14Z</time><name>PT3842</name></trkpt>
<trkpt lat="53.287238" lon="-2.007615"><ele>469</ele><time>2021-11-13T11:25:15Z</time><name>PT3843</name></trkpt>
<trkpt lat="53.287236" lon="-2.007620"><ele>470</ele><time>2021-11-13T11:25:16Z</time><name>PT3844</name></trkpt>
<trkpt lat="53.287233" lon="-2.007629"><ele>469</ele><time>2021-11-13T11:25:17Z</time><name>PT3845</name></trkpt>
<trkpt lat="53.287229" lon="-2.007636"><ele>470</ele><time>2021-11-13T11:25:18Z</time><name>PT3846</name></trkpt>
<trkpt lat="53.287221" lon="-2.007643"><ele>470</ele><time>2021-11-13T11:25:19Z</time><name>PT3847</name></trkpt>
<trkpt lat="53.287213" lon="-2.007652"><ele>470</ele><time>2021-11-13T11:25:20Z</time><name>PT3848</name></trkpt>
<trkpt lat="53.287205" lon="-2.007660"><ele>470</ele><time>2021-11-13T11:25:21Z</time><name>PT3849</name></trkpt>
<trkpt lat="53.287196" lon="-2.007671"><ele>470</ele><time>2021-11-13T11:25:22Z</time><name>PT3850</name></trkpt>
<trkpt lat="53.287189" lon="-2.007681"><ele>470</ele><time>2021-11-13T11:25:23Z</time><name>PT3851</name></trkpt>
<trkpt lat="53.287182" lon="-2.007689"><ele>470</ele><time>2021-11-13T11:25:24Z</time><name>PT3852</name></trkpt>
<trkpt lat="53.287176" lon="-2.007700"><ele>471</ele><time>2021-11-13T11:25:25Z</time><name>PT3853</name></trkpt>
<trkpt lat="53.287170" lon="-2.007714"><ele>471</ele><time>2021-11-13T11:25:26Z</time><name>PT3854</name></trkpt>
<trkpt lat="53.287166" lon="-2.007726"><ele>471</ele><time>2021-11-13T11:25:27Z</time><name>PT3855</name></trkpt>
<trkpt lat="53.287160" lon="-2.007738"><ele>471</ele><time>2021-11-13T11:25:28Z</time><name>PT3856</name></trkpt>
<trkpt lat="53.287155" lon="-2.007752"><ele>471</ele><time>2021-11-13T11:25:29Z</time><name>PT3857</name></trkpt>
<trkpt lat="53.287152" lon="-2.007764"><ele>472</ele><time>2021-11-13T11:25:30Z</time><name>PT3858</name></trkpt>
<trkpt lat="53.287147" lon="-2.007773"><ele>472</ele><time>2021-11-13T11:25:31Z</time><name>PT3859</name></trkpt>
<trkpt lat="53.287143" lon="-2.007781"><ele>472</ele><time>2021-11-13T11:25:32Z</time><name>PT3860</name></trkpt>
<trkpt lat="53.287137" lon="-2.007792"><ele>472</ele><time>2021-11-13T11:25:33Z</time><name>PT3861</name></trkpt>
<trkpt lat="53.287130" lon="-2.007806"><ele>472</ele><time>2021-11-13T11:25:34Z</time><name>PT3862</name></trkpt>
<trkpt lat="53.287125" lon="-2.007815"><ele>472</ele><time>2021-11-13T11:25:35Z</time><name>PT3863</name></trkpt>
<trkpt lat="53.287118" lon="-2.007820"><ele>473</ele><time>2021-11-13T11:25:36Z</time><name>PT3864</name></trkpt>
<trkpt lat="53.287112" lon="-2.007829"><ele>473</ele><time>2021-11-13T11:25:37Z</time><name>PT3865</name></trkpt>
<trkpt lat="53.287106" lon="-2.007833"><ele>474</ele><time>2021-11-13T11:25:38Z</time><name>PT3866</name></trkpt>
<trkpt lat="53.287100" lon="-2.007840"><ele>474</ele><time>2021-11-13T11:25:39Z</time><name>PT3867</name></trkpt>
<trkpt lat="53.287093" lon="-2.007847"><ele>474</ele><time>2021-11-13T11:25:40Z</time><name>PT3868</name></trkpt>
<trkpt lat="53.287087" lon="-2.007856"><ele>475</ele><time>2021-11-13T11:25:41Z</time><name>PT3869</name></trkpt>
<trkpt lat="53.287081" lon="-2.007865"><ele>476</ele><time>2021-11-13T11:25:42Z</time><name>PT3870</name></trkpt>
<trkpt lat="53.287075" lon="-2.007874"><ele>476</ele><time>2021-11-13T11:25:43Z</time><name>PT3871</name></trkpt>
<trkpt lat="53.287067" lon="-2.007880"><ele>475</ele><time>2021-11-13T11:25:44Z</time><name>PT3872</name></trkpt>
<trkpt lat="53.287063" lon="-2.007885"><ele>476</ele><time>2021-11-13T11:25:45Z</time><name>PT3873</name></trkpt>
<trkpt lat="53.287059" lon="-2.007898"><ele>475</ele><time>2021-11-13T11:25:46Z</time><name>PT3874</name></trkpt>
<trkpt lat="53.287054" lon="-2.007905"><ele>475</ele><time>2021-11-13T11:25:47Z</time><name>PT3875</name></trkpt>
<trkpt lat="53.287050" lon="-2.007909"><ele>476</ele><time>2021-11-13T11:25:48Z</time><name>PT3876</name></trkpt>
<trkpt lat="53.287046" lon="-2.007914"><ele>476</ele><time>2021-11-13T11:25:49Z</time><name>PT3877</name></trkpt>
<trkpt lat="53.287042" lon="-2.007919"><ele>476</ele><time>2021-11-13T11:25:50Z</time><name>PT3878</name></trkpt>
<trkpt lat="53.287037" lon="-2.007932"><ele>476</ele><time>2021-11-13T11:25:51Z</time><name>PT3879</name></trkpt>
<trkpt lat="53.287030" lon="-2.007942"><ele>477</ele><time>2021-11-13T11:25:52Z</time><name>PT3880</name></trkpt>
<trkpt lat="53.287024" lon="-2.007951"><ele>477</ele><time>2021-11-13T11:25:53Z</time><name>PT3881</name></trkpt>
<trkpt lat="53.287017" lon="-2.007958"><ele>477</ele><time>2021-11-13T11:25:54Z</time><name>PT3882</name></trkpt>
<trkpt lat="53.287011" lon="-2.007968"><ele>477</ele><time>2021-11-13T11:25:55Z</time><name>PT3883</name></trkpt>
<trkpt lat="53.287006" lon="-2.007976"><ele>478</ele><time>2021-11-13T11:25:56Z</time><name>PT3884</name></trkpt>
<trkpt lat="53.287001" lon="-2.007984"><ele>478</ele><time>2021-11-13T11:25:57Z</time><name>PT3885</name></trkpt>
<trkpt lat="53.286997" lon="-2.007995"><ele>478</ele><time>2021-11-13T11:25:58Z</time><name>PT3886</name></trkpt>
<trkpt lat="53.286993" lon="-2.008006"><ele>478</ele><time>2021-11-13T11:25:59Z</time><name>PT3887</name></trkpt>
<trkpt lat="53.286988" lon="-2.008014"><ele>478</ele><time>2021-11-13T11:26:00Z</time><name>PT3888</name></trkpt>
<trkpt lat="53.286984" lon="-2.008024"><ele>478</ele><time>2021-11-13T11:26:01Z</time><name>PT3889</name></trkpt>
<trkpt lat="53.286979" lon="-2.008038"><ele>477</ele><time>2021-11-13T11:26:02Z</time><name>PT3890</name></trkpt>
<trkpt lat="53.286976" lon="-2.008051"><ele>477</ele><time>2021-11-13T11:26:03Z</time><name>PT3891</name></trkpt>
<trkpt lat="53.286972" lon="-2.008065"><ele>477</ele><time>2021-11-13T11:26:04Z</time><name>PT3892</name></trkpt>
<trkpt lat="53.286967" lon="-2.008076"><ele>477</ele><time>2021-11-13T11:26:05Z</time><name>PT3893</name></trkpt>
<trkpt lat="53.286963" lon="-2.008087"><ele>477</ele><time>2021-11-13T11:26:06Z</time><name>PT3894</name></trkpt>
<trkpt lat="53.286960" lon="-2.008099"><ele>478</ele><time>2021-11-13T11:26:07Z</time><name>PT3895</name></trkpt>
<trkpt lat="53.286956" lon="-2.008110"><ele>478</ele><time>2021-11-13T11:26:08Z</time><name>PT3896</name></trkpt>
<trkpt lat="53.286949" lon="-2.008118"><ele>478</ele><time>2021-11-13T11:26:09Z</time><name>PT3897</name></trkpt>
<trkpt lat="53.286941" lon="-2.008122"><ele>478</ele><time>2021-11-13T11:26:10Z</time><name>PT3898</name></trkpt>
<trkpt lat="53.286932" lon="-2.008130"><ele>477</ele><time>2021-11-13T11:26:11Z</time><name>PT3899</name></trkpt>
<trkpt lat="53.286924" lon="-2.008136"><ele>477</ele><time>2021-11-13T11:26:12Z</time><name>PT3900</name></trkpt>
<trkpt lat="53.286915" lon="-2.008138"><ele>477</ele><time>2021-11-13T11:26:13Z</time><name>PT3901</name></trkpt>
<trkpt lat="53.286907" lon="-2.008142"><ele>477</ele><time>2021-11-13T11:26:14Z</time><name>PT3902</name></trkpt>
<trkpt lat="53.286898" lon="-2.008145"><ele>478</ele><time>2021-11-13T11:26:15Z</time><name>PT3903</name></trkpt>
<trkpt lat="53.286890" lon="-2.008147"><ele>478</ele><time>2021-11-13T11:26:16Z</time><name>PT3904</name></trkpt>
<trkpt lat="53.286881" lon="-2.008149"><ele>478</ele><time>2021-11-13T11:26:17Z</time><name>PT3905</name></trkpt>
<trkpt lat="53.286873" lon="-2.008154"><ele>478</ele><time>2021-11-13T11:26:18Z</time><name>PT3906</name></trkpt>
<trkpt lat="53.286864" lon="-2.008157"><ele>478</ele><time>2021-11-13T11:26:19Z</time><name>PT3907</name></trkpt>
<trkpt lat="53.286856" lon="-2.008161"><ele>478</ele><time>2021-11-13T11:26:20Z</time><name>PT3908</name></trkpt>
<trkpt lat="53.286849" lon="-2.008167"><ele>479</ele><time>2021-11-13T11:26:21Z</time><name>PT3909</name></trkpt>
<trkpt lat="53.286842" lon="-2.008169"><ele>479</ele><time>2021-11-13T11:26:22Z</time><name>PT3910</name></trkpt>
<trkpt lat="53.286834" lon="-2.008168"><ele>479</ele><time>2021-11-13T11:26:23Z</time><name>PT3911</name></trkpt>
<trkpt lat="53.286824" lon="-2.008170"><ele>478</ele><time>2021-11-13T11:26:24Z</time><name>PT3912</name></trkpt>
<trkpt lat="53.286815" lon="-2.008173"><ele>478</ele><time>2021-11-13T11:26:25Z</time><name>PT3913</name></trkpt>
<trkpt lat="53.286804" lon="-2.008169"><ele>479</ele><time>2021-11-13T11:26:26Z</time><name>PT3914</name></trkpt>
<trkpt lat="53.286795" lon="-2.008164"><ele>479</ele><time>2021-11-13T11:26:27Z</time><name>PT3915</name></trkpt>
<trkpt lat="53.286784" lon="-2.008165"><ele>479</ele><time>2021-11-13T11:26:28Z</time><name>PT3916</name></trkpt>
<trkpt lat="53.286774" lon="-2.008164"><ele>479</ele><time>2021-11-13T11:26:29Z</time><name>PT3917</name></trkpt>
<trkpt lat="53.286763" lon="-2.008162"><ele>480</ele><time>2021-11-13T11:26:30Z</time><name>PT3918</name></trkpt>
<trkpt lat="53.286752" lon="-2.008161"><ele>480</ele><time>2021-11-13T11:26:31Z</time><name>PT3919</name></trkpt>
<trkpt lat="53.286742" lon="-2.008163"><ele>480</ele><time>2021-11-13T11:26:32Z</time><name>PT3920</name></trkpt>
<trkpt lat="53.286735" lon="-2.008160"><ele>480</ele><time>2021-11-13T11:26:33Z</time><name>PT3921</name></trkpt>
<trkpt lat="53.286727" lon="-2.008161"><ele>480</ele><time>2021-11-13T11:26:34Z</time><name>PT3922</name></trkpt>
<trkpt lat="53.286716" lon="-2.008157"><ele>481</ele><time>2021-11-13T11:26:35Z</time><name>PT3923</name></trkpt>
<trkpt lat="53.286706" lon="-2.008158"><ele>481</ele><time>2021-11-13T11:26:36Z</time><name>PT3924</name></trkpt>
<trkpt lat="53.286697" lon="-2.008160"><ele>481</ele><time>2021-11-13T11:26:37Z</time><name>PT3925</name></trkpt>
<trkpt lat="53.286689" lon="-2.008163"><ele>482</ele><time>2021-11-13T11:26:38Z</time><name>PT3926</name></trkpt>
<trkpt lat="53.286680" lon="-2.008164"><ele>482</ele><time>2021-11-13T11:26:39Z</time><name>PT3927</name></trkpt>
<trkpt lat="53.286673" lon="-2.008165"><ele>482</ele><time>2021-11-13T11:26:40Z</time><name>PT3928</name></trkpt>
<trkpt lat="53.286662" lon="-2.008169"><ele>483</ele><time>2021-11-13T11:26:41Z</time><name>PT3929</name></trkpt>
<trkpt lat="53.286654" lon="-2.008167"><ele>483</ele><time>2021-11-13T11:26:42Z</time><name>PT3930</name></trkpt>
<trkpt lat="53.286643" lon="-2.008165"><ele>483</ele><time>2021-11-13T11:26:43Z</time><name>PT3931</name></trkpt>
<trkpt lat="53.286632" lon="-2.008170"><ele>484</ele><time>2021-11-13T11:26:44Z</time><name>PT3932</name></trkpt>
<trkpt lat="53.286620" lon="-2.008175"><ele>483</ele><time>2021-11-13T11:26:45Z</time><name>PT3933</name></trkpt>
<trkpt lat="53.286578" lon="-2.008182"><ele>484</ele><time>2021-11-13T11:26:49Z</time><name>PT3934</name></trkpt>
<trkpt lat="53.286541" lon="-2.008184"><ele>485</ele><time>2021-11-13T11:26:53Z</time><name>PT3935</name></trkpt>
<trkpt lat="53.286503" lon="-2.008179"><ele>484</ele><time>2021-11-13T11:26:57Z</time><name>PT3936</name></trkpt>
<trkpt lat="53.286470" lon="-2.008178"><ele>485</ele><time>2021-11-13T11:27:01Z</time><name>PT3937</name></trkpt>
<trkpt lat="53.286428" lon="-2.008186"><ele>484</ele><time>2021-11-13T11:27:05Z</time><name>PT3938</name></trkpt>
<trkpt lat="53.286391" lon="-2.008191"><ele>485</ele><time>2021-11-13T11:27:09Z</time><name>PT3939</name></trkpt>
<trkpt lat="53.286358" lon="-2.008198"><ele>486</ele><time>2021-11-13T11:27:13Z</time><name>PT3940</name></trkpt>
<trkpt lat="53.286324" lon="-2.008196"><ele>486</ele><time>2021-11-13T11:27:17Z</time><name>PT3941</name></trkpt>
<trkpt lat="53.286290" lon="-2.008204"><ele>487</ele><time>2021-11-13T11:27:21Z</time><name>PT3942</name></trkpt>
<trkpt lat="53.286252" lon="-2.008205"><ele>487</ele><time>2021-11-13T11:27:25Z</time><name>PT3943</name></trkpt>
<trkpt lat="53.286210" lon="-2.008203"><ele>488</ele><time>2021-11-13T11:27:29Z</time><name>PT3944</name></trkpt>
<trkpt lat="53.286171" lon="-2.008218"><ele>488</ele><time>2021-11-13T11:27:33Z</time><name>PT3945</name></trkpt>
<trkpt lat="53.286126" lon="-2.008225"><ele>488</ele><time>2021-11-13T11:27:37Z</time><name>PT3946</name></trkpt>
<trkpt lat="53.286081" lon="-2.008216"><ele>488</ele><time>2021-11-13T11:27:41Z</time><name>PT3947</name></trkpt>
<trkpt lat="53.286042" lon="-2.008199"><ele>489</ele><time>2021-11-13T11:27:45Z</time><name>PT3948</name></trkpt>
<trkpt lat="53.286001" lon="-2.008200"><ele>489</ele><time>2021-11-13T11:27:49Z</time><name>PT3949</name></trkpt>
<trkpt lat="53.285958" lon="-2.008201"><ele>489</ele><time>2021-11-13T11:27:53Z</time><name>PT3950</name></trkpt>
<trkpt lat="53.285918" lon="-2.008195"><ele>489</ele><time>2021-11-13T11:27:57Z</time><name>PT3951</name></trkpt>
<trkpt lat="53.285877" lon="-2.008196"><ele>489</ele><time>2021-11-13T11:28:01Z</time><name>PT3952</name></trkpt>
<trkpt lat="53.285837" lon="-2.008178"><ele>489</ele><time>2021-11-13T11:28:05Z</time><name>PT3953</name></trkpt>
<trkpt lat="53.285792" lon="-2.008167"><ele>488</ele><time>2021-11-13T11:28:09Z</time><name>PT3954</name></trkpt>
<trkpt lat="53.285752" lon="-2.008165"><ele>488</ele><time>2021-11-13T11:28:13Z</time><name>PT3955</name></trkpt>
<trkpt lat="53.285704" lon="-2.008159"><ele>488</ele><time>2021-11-13T11:28:17Z</time><name>PT3956</name></trkpt>
<trkpt lat="53.285669" lon="-2.008153"><ele>488</ele><time>2021-11-13T11:28:21Z</time><name>PT3957</name></trkpt>
<trkpt lat="53.285629" lon="-2.008143"><ele>487</ele><time>2021-11-13T11:28:25Z</time><name>PT3958</name></trkpt>
<trkpt lat="53.285597" lon="-2.008137"><ele>487</ele><time>2021-11-13T11:28:29Z</time><name>PT3959</name></trkpt>
<trkpt lat="53.285553" lon="-2.008133"><ele>489</ele><time>2021-11-13T11:28:33Z</time><name>PT3960</name></trkpt>
<trkpt lat="53.285509" lon="-2.008135"><ele>490</ele><time>2021-11-13T11:28:37Z</time><name>PT3961</name></trkpt>
<trkpt lat="53.285464" lon="-2.008130"><ele>492</ele><time>2021-11-13T11:28:41Z</time><name>PT3962</name></trkpt>
<trkpt lat="53.285426" lon="-2.008139"><ele>492</ele><time>2021-11-13T11:28:45Z</time><name>PT3963</name></trkpt>
<trkpt lat="53.285384" lon="-2.008149"><ele>493</ele><time>2021-11-13T11:28:49Z</time><name>PT3964</name></trkpt>
<trkpt lat="53.285340" lon="-2.008134"><ele>493</ele><time>2021-11-13T11:28:53Z</time><name>PT3965</name></trkpt>
<trkpt lat="53.285305" lon="-2.008116"><ele>494</ele><time>2021-11-13T11:28:57Z</time><name>PT3966</name></trkpt>
<trkpt lat="53.285262" lon="-2.008121"><ele>494</ele><time>2021-11-13T11:29:01Z</time><name>PT3967</name></trkpt>
<trkpt lat="53.285215" lon="-2.008120"><ele>494</ele><time>2021-11-13T11:29:05Z</time><name>PT3968</name></trkpt>
<trkpt lat="53.285168" lon="-2.008127"><ele>494</ele><time>2021-11-13T11:29:09Z</time><name>PT3969</name></trkpt>
<trkpt lat="53.285127" lon="-2.008145"><ele>494</ele><time>2021-11-13T11:29:13Z</time><name>PT3970</name></trkpt>
<trkpt lat="53.285082" lon="-2.008149"><ele>493</ele><time>2021-11-13T11:29:17Z</time><name>PT3971</name></trkpt>
<trkpt lat="53.285037" lon="-2.008147"><ele>494</ele><time>2021-11-13T11:29:21Z</time><name>PT3972</name></trkpt>
<trkpt lat="53.284988" lon="-2.008150"><ele>494</ele><time>2021-11-13T11:29:25Z</time><name>PT3973</name></trkpt>
<trkpt lat="53.284940" lon="-2.008159"><ele>493</ele><time>2021-11-13T11:29:29Z</time><name>PT3974</name></trkpt>
<trkpt lat="53.284895" lon="-2.008162"><ele>493</ele><time>2021-11-13T11:29:33Z</time><name>PT3975</name></trkpt>
<trkpt lat="53.284874" lon="-2.008164"><ele>493</ele><time>2021-11-13T11:29:35Z</time><name>PT3976</name></trkpt>
<trkpt lat="53.284863" lon="-2.008162"><ele>493</ele><time>2021-11-13T11:29:36Z</time><name>PT3977</name></trkpt>
<trkpt lat="53.284852" lon="-2.008162"><ele>493</ele><time>2021-11-13T11:29:37Z</time><name>PT3978</name></trkpt>
<trkpt lat="53.284841" lon="-2.008162"><ele>493</ele><time>2021-11-13T11:29:38Z</time><name>PT3979</name></trkpt>
<trkpt lat="53.284827" lon="-2.008164"><ele>493</ele><time>2021-11-13T11:29:39Z</time><name>PT3980</name></trkpt>
<trkpt lat="53.284816" lon="-2.008164"><ele>493</ele><time>2021-11-13T11:29:40Z</time><name>PT3981</name></trkpt>
<trkpt lat="53.284805" lon="-2.008163"><ele>492</ele><time>2021-11-13T11:29:41Z</time><name>PT3982</name></trkpt>
<trkpt lat="53.284793" lon="-2.008163"><ele>492</ele><time>2021-11-13T11:29:42Z</time><name>PT3983</name></trkpt>
<trkpt lat="53.284783" lon="-2.008163"><ele>492</ele><time>2021-11-13T11:29:43Z</time><name>PT3984</name></trkpt>
<trkpt lat="53.284773" lon="-2.008163"><ele>492</ele><time>2021-11-13T11:29:44Z</time><name>PT3985</name></trkpt>
<trkpt lat="53.284760" lon="-2.008164"><ele>492</ele><time>2021-11-13T11:29:45Z</time><name>PT3986</name></trkpt>
<trkpt lat="53.284748" lon="-2.008164"><ele>492</ele><time>2021-11-13T11:29:46Z</time><name>PT3987</name></trkpt>
<trkpt lat="53.284739" lon="-2.008164"><ele>492</ele><time>2021-11-13T11:29:47Z</time><name>PT3988</name></trkpt>
<trkpt lat="53.284727" lon="-2.008164"><ele>491</ele><time>2021-11-13T11:29:48Z</time><name>PT3989</name></trkpt>
<trkpt lat="53.284715" lon="-2.008164"><ele>492</ele><time>2021-11-13T11:29:49Z</time><name>PT3990</name></trkpt>
<trkpt lat="53.284704" lon="-2.008166"><ele>492</ele><time>2021-11-13T11:29:50Z</time><name>PT3991</name></trkpt>
<trkpt lat="53.284694" lon="-2.008168"><ele>492</ele><time>2021-11-13T11:29:51Z</time><name>PT3992</name></trkpt>
<trkpt lat="53.284681" lon="-2.008164"><ele>492</ele><time>2021-11-13T11:29:52Z</time><name>PT3993</name></trkpt>
<trkpt lat="53.284670" lon="-2.008165"><ele>492</ele><time>2021-11-13T11:29:53Z</time><name>PT3994</name></trkpt>
<trkpt lat="53.284657" lon="-2.008165"><ele>493</ele><time>2021-11-13T11:29:54Z</time><name>PT3995</name></trkpt>
<trkpt lat="53.284645" lon="-2.008164"><ele>493</ele><time>2021-11-13T11:29:55Z</time><name>PT3996</name></trkpt>
<trkpt lat="53.284635" lon="-2.008168"><ele>493</ele><time>2021-11-13T11:29:56Z</time><name>PT3997</name></trkpt>
<trkpt lat="53.284624" lon="-2.008171"><ele>494</ele><time>2021-11-13T11:29:57Z</time><name>PT3998</name></trkpt>
<trkpt lat="53.284614" lon="-2.008170"><ele>494</ele><time>2021-11-13T11:29:58Z</time><name>PT3999</name></trkpt>
<trkpt lat="53.284605" lon="-2.008167"><ele>494</ele><time>2021-11-13T11:29:59Z</time><name>PT4000</name></trkpt>
<trkpt lat="53.284593" lon="-2.008166"><ele>495</ele><time>2021-11-13T11:30:00Z</time><name>PT4001</name></trkpt>
<trkpt lat="53.284582" lon="-2.008168"><ele>494</ele><time>2021-11-13T11:30:01Z</time><name>PT4002</name></trkpt>
<trkpt lat="53.284569" lon="-2.008170"><ele>495</ele><time>2021-11-13T11:30:02Z</time><name>PT4003</name></trkpt>
<trkpt lat="53.284557" lon="-2.008169"><ele>495</ele><time>2021-11-13T11:30:03Z</time><name>PT4004</name></trkpt>
<trkpt lat="53.284547" lon="-2.008170"><ele>495</ele><time>2021-11-13T11:30:04Z</time><name>PT4005</name></trkpt>
<trkpt lat="53.284536" lon="-2.008169"><ele>495</ele><time>2021-11-13T11:30:05Z</time><name>PT4006</name></trkpt>
<trkpt lat="53.284527" lon="-2.008169"><ele>495</ele><time>2021-11-13T11:30:06Z</time><name>PT4007</name></trkpt>
<trkpt lat="53.284517" lon="-2.008168"><ele>494</ele><time>2021-11-13T11:30:07Z</time><name>PT4008</name></trkpt>
<trkpt lat="53.284506" lon="-2.008170"><ele>494</ele><time>2021-11-13T11:30:08Z</time><name>PT4009</name></trkpt>
<trkpt lat="53.284495" lon="-2.008171"><ele>494</ele><time>2021-11-13T11:30:09Z</time><name>PT4010</name></trkpt>
<trkpt lat="53.284484" lon="-2.008170"><ele>495</ele><time>2021-11-13T11:30:10Z</time><name>PT4011</name></trkpt>
<trkpt lat="53.284474" lon="-2.008169"><ele>495</ele><time>2021-11-13T11:30:11Z</time><name>PT4012</name></trkpt>
<trkpt lat="53.284464" lon="-2.008171"><ele>495</ele><time>2021-11-13T11:30:12Z</time><name>PT4013</name></trkpt>
<trkpt lat="53.284455" lon="-2.008170"><ele>495</ele><time>2021-11-13T11:30:13Z</time><name>PT4014</name></trkpt>
<trkpt lat="53.284443" lon="-2.008170"><ele>494</ele><time>2021-11-13T11:30:14Z</time><name>PT4015</name></trkpt>
<trkpt lat="53.284432" lon="-2.008172"><ele>494</ele><time>2021-11-13T11:30:15Z</time><name>PT4016</name></trkpt>
<trkpt lat="53.284421" lon="-2.008174"><ele>495</ele><time>2021-11-13T11:30:16Z</time><name>PT4017</name></trkpt>
<trkpt lat="53.284409" lon="-2.008174"><ele>495</ele><time>2021-11-13T11:30:17Z</time><name>PT4018</name></trkpt>
<trkpt lat="53.284399" lon="-2.008175"><ele>496</ele><time>2021-11-13T11:30:18Z</time><name>PT4019</name></trkpt>
<trkpt lat="53.284388" lon="-2.008176"><ele>496</ele><time>2021-11-13T11:30:19Z</time><name>PT4020</name></trkpt>
<trkpt lat="53.284375" lon="-2.008178"><ele>496</ele><time>2021-11-13T11:30:20Z</time><name>PT4021</name></trkpt>
<trkpt lat="53.284363" lon="-2.008181"><ele>496</ele><time>2021-11-13T11:30:21Z</time><name>PT4022</name></trkpt>
<trkpt lat="53.284354" lon="-2.008180"><ele>496</ele><time>2021-11-13T11:30:22Z</time><name>PT4023</name></trkpt>
<trkpt lat="53.284344" lon="-2.008180"><ele>496</ele><time>2021-11-13T11:30:23Z</time><name>PT4024</name></trkpt>
<trkpt lat="53.284334" lon="-2.008181"><ele>497</ele><time>2021-11-13T11:30:24Z</time><name>PT4025</name></trkpt>
<trkpt lat="53.284324" lon="-2.008181"><ele>497</ele><time>2021-11-13T11:30:25Z</time><name>PT4026</name></trkpt>
<trkpt lat="53.284311" lon="-2.008178"><ele>497</ele><time>2021-11-13T11:30:26Z</time><name>PT4027</name></trkpt>
<trkpt lat="53.284297" lon="-2.008172"><ele>497</ele><time>2021-11-13T11:30:27Z</time><name>PT4028</name></trkpt>
<trkpt lat="53.284285" lon="-2.008169"><ele>497</ele><time>2021-11-13T11:30:28Z</time><name>PT4029</name></trkpt>
<trkpt lat="53.284274" lon="-2.008170"><ele>497</ele><time>2021-11-13T11:30:29Z</time><name>PT4030</name></trkpt>
<trkpt lat="53.284265" lon="-2.008173"><ele>497</ele><time>2021-11-13T11:30:30Z</time><name>PT4031</name></trkpt>
<trkpt lat="53.284254" lon="-2.008176"><ele>497</ele><time>2021-11-13T11:30:31Z</time><name>PT4032</name></trkpt>
<trkpt lat="53.284246" lon="-2.008178"><ele>497</ele><time>2021-11-13T11:30:32Z</time><name>PT4033</name></trkpt>
<trkpt lat="53.284235" lon="-2.008179"><ele>497</ele><time>2021-11-13T11:30:33Z</time><name>PT4034</name></trkpt>
<trkpt lat="53.284226" lon="-2.008181"><ele>498</ele><time>2021-11-13T11:30:34Z</time><name>PT4035</name></trkpt>
<trkpt lat="53.284216" lon="-2.008185"><ele>498</ele><time>2021-11-13T11:30:35Z</time><name>PT4036</name></trkpt>
<trkpt lat="53.284204" lon="-2.008189"><ele>498</ele><time>2021-11-13T11:30:36Z</time><name>PT4037</name></trkpt>
<trkpt lat="53.284192" lon="-2.008191"><ele>498</ele><time>2021-11-13T11:30:37Z</time><name>PT4038</name></trkpt>
<trkpt lat="53.284181" lon="-2.008191"><ele>498</ele><time>2021-11-13T11:30:38Z</time><name>PT4039</name></trkpt>
<trkpt lat="53.284171" lon="-2.008188"><ele>498</ele><time>2021-11-13T11:30:39Z</time><name>PT4040</name></trkpt>
<trkpt lat="53.284161" lon="-2.008187"><ele>498</ele><time>2021-11-13T11:30:40Z</time><name>PT4041</name></trkpt>
<trkpt lat="53.284149" lon="-2.008187"><ele>498</ele><time>2021-11-13T11:30:41Z</time><name>PT4042</name></trkpt>
<trkpt lat="53.284139" lon="-2.008186"><ele>499</ele><time>2021-11-13T11:30:42Z</time><name>PT4043</name></trkpt>
<trkpt lat="53.284128" lon="-2.008184"><ele>499</ele><time>2021-11-13T11:30:43Z</time><name>PT4044</name></trkpt>
<trkpt lat="53.284116" lon="-2.008182"><ele>499</ele><time>2021-11-13T11:30:44Z</time><name>PT4045</name></trkpt>
<trkpt lat="53.284105" lon="-2.008183"><ele>499</ele><time>2021-11-13T11:30:45Z</time><name>PT4046</name></trkpt>
<trkpt lat="53.284093" lon="-2.008184"><ele>498</ele><time>2021-11-13T11:30:46Z</time><name>PT4047</name></trkpt>
<trkpt lat="53.284082" lon="-2.008182"><ele>498</ele><time>2021-11-13T11:30:47Z</time><name>PT4048</name></trkpt>
<trkpt lat="53.284071" lon="-2.008177"><ele>498</ele><time>2021-11-13T11:30:48Z</time><name>PT4049</name></trkpt>
<trkpt lat="53.284061" lon="-2.008171"><ele>498</ele><time>2021-11-13T11:30:49Z</time><name>PT4050</name></trkpt>
<trkpt lat="53.284050" lon="-2.008165"><ele>498</ele><time>2021-11-13T11:30:50Z</time><name>PT4051</name></trkpt>
<trkpt lat="53.284038" lon="-2.008161"><ele>497</ele><time>2021-11-13T11:30:51Z</time><name>PT4052</name></trkpt>
<trkpt lat="53.284026" lon="-2.008156"><ele>497</ele><time>2021-11-13T11:30:52Z</time><name>PT4053</name></trkpt>
<trkpt lat="53.284018" lon="-2.008152"><ele>498</ele><time>2021-11-13T11:30:53Z</time><name>PT4054</name></trkpt>
<trkpt lat="53.284008" lon="-2.008149"><ele>498</ele><time>2021-11-13T11:30:54Z</time><name>PT4055</name></trkpt>
<trkpt lat="53.283997" lon="-2.008148"><ele>498</ele><time>2021-11-13T11:30:55Z</time><name>PT4056</name></trkpt>
<trkpt lat="53.283983" lon="-2.008148"><ele>498</ele><time>2021-11-13T11:30:56Z</time><name>PT4057</name></trkpt>
<trkpt lat="53.283970" lon="-2.008148"><ele>497</ele><time>2021-11-13T11:30:57Z</time><name>PT4058</name></trkpt>
<trkpt lat="53.283959" lon="-2.008144"><ele>497</ele><time>2021-11-13T11:30:58Z</time><name>PT4059</name></trkpt>
<trkpt lat="53.283948" lon="-2.008136"><ele>497</ele><time>2021-11-13T11:30:59Z</time><name>PT4060</name></trkpt>
<trkpt lat="53.283936" lon="-2.008132"><ele>497</ele><time>2021-11-13T11:31:00Z</time><name>PT4061</name></trkpt>
<trkpt lat="53.283925" lon="-2.008130"><ele>497</ele><time>2021-11-13T11:31:01Z</time><name>PT4062</name></trkpt>
<trkpt lat="53.283913" lon="-2.008128"><ele>497</ele><time>2021-11-13T11:31:02Z</time><name>PT4063</name></trkpt>
<trkpt lat="53.283904" lon="-2.008126"><ele>497</ele><time>2021-11-13T11:31:03Z</time><name>PT4064</name></trkpt>
<trkpt lat="53.283895" lon="-2.008123"><ele>497</ele><time>2021-11-13T11:31:04Z</time><name>PT4065</name></trkpt>
<trkpt lat="53.283883" lon="-2.008120"><ele>497</ele><time>2021-11-13T11:31:05Z</time><name>PT4066</name></trkpt>
<trkpt lat="53.283873" lon="-2.008117"><ele>497</ele><time>2021-11-13T11:31:06Z</time><name>PT4067</name></trkpt>
<trkpt lat="53.283861" lon="-2.008112"><ele>497</ele><time>2021-11-13T11:31:07Z</time><name>PT4068</name></trkpt>
<trkpt lat="53.283850" lon="-2.008108"><ele>497</ele><time>2021-11-13T11:31:08Z</time><name>PT4069</name></trkpt>
<trkpt lat="53.283840" lon="-2.008104"><ele>497</ele><time>2021-11-13T11:31:09Z</time><name>PT4070</name></trkpt>
<trkpt lat="53.283828" lon="-2.008104"><ele>498</ele><time>2021-11-13T11:31:10Z</time><name>PT4071</name></trkpt>
<trkpt lat="53.283817" lon="-2.008103"><ele>497</ele><time>2021-11-13T11:31:11Z</time><name>PT4072</name></trkpt>
<trkpt lat="53.283806" lon="-2.008101"><ele>497</ele><time>2021-11-13T11:31:12Z</time><name>PT4073</name></trkpt>
<trkpt lat="53.283791" lon="-2.008101"><ele>498</ele><time>2021-11-13T11:31:13Z</time><name>PT4074</name></trkpt>
<trkpt lat="53.283780" lon="-2.008097"><ele>498</ele><time>2021-11-13T11:31:14Z</time><name>PT4075</name></trkpt>
<trkpt lat="53.283768" lon="-2.008092"><ele>498</ele><time>2021-11-13T11:31:15Z</time><name>PT4076</name></trkpt>
<trkpt lat="53.283756" lon="-2.008087"><ele>498</ele><time>2021-11-13T11:31:16Z</time><name>PT4077</name></trkpt>
<trkpt lat="53.283745" lon="-2.008084"><ele>497</ele><time>2021-11-13T11:31:17Z</time><name>PT4078</name></trkpt>
<trkpt lat="53.283732" lon="-2.008083"><ele>497</ele><time>2021-11-13T11:31:18Z</time><name>PT4079</name></trkpt>
<trkpt lat="53.283721" lon="-2.008081"><ele>497</ele><time>2021-11-13T11:31:19Z</time><name>PT4080</name></trkpt>
<trkpt lat="53.283710" lon="-2.008083"><ele>497</ele><time>2021-11-13T11:31:20Z</time><name>PT4081</name></trkpt>
<trkpt lat="53.283698" lon="-2.008085"><ele>497</ele><time>2021-11-13T11:31:21Z</time><name>PT4082</name></trkpt>
<trkpt lat="53.283687" lon="-2.008088"><ele>497</ele><time>2021-11-13T11:31:22Z</time><name>PT4083</name></trkpt>
<trkpt lat="53.283676" lon="-2.008088"><ele>497</ele><time>2021-11-13T11:31:23Z</time><name>PT4084</name></trkpt>
<trkpt lat="53.283664" lon="-2.008089"><ele>497</ele><time>2021-11-13T11:31:24Z</time><name>PT4085</name></trkpt>
<trkpt lat="53.283656" lon="-2.008087"><ele>497</ele><time>2021-11-13T11:31:25Z</time><name>PT4086</name></trkpt>
<trkpt lat="53.283648" lon="-2.008084"><ele>497</ele><time>2021-11-13T11:31:26Z</time><name>PT4087</name></trkpt>
<trkpt lat="53.283637" lon="-2.008082"><ele>496</ele><time>2021-11-13T11:31:27Z</time><name>PT4088</name></trkpt>
<trkpt lat="53.283630" lon="-2.008083"><ele>496</ele><time>2021-11-13T11:31:28Z</time><name>PT4089</name></trkpt>
<trkpt lat="53.283621" lon="-2.008086"><ele>495</ele><time>2021-11-13T11:31:29Z</time><name>PT4090</name></trkpt>
<trkpt lat="53.283607" lon="-2.008089"><ele>495</ele><time>2021-11-13T11:31:30Z</time><name>PT4091</name></trkpt>
<trkpt lat="53.283596" lon="-2.008092"><ele>495</ele><time>2021-11-13T11:31:31Z</time><name>PT4092</name></trkpt>
<trkpt lat="53.283585" lon="-2.008092"><ele>495</ele><time>2021-11-13T11:31:32Z</time><name>PT4093</name></trkpt>
<trkpt lat="53.283571" lon="-2.008092"><ele>495</ele><time>2021-11-13T11:31:33Z</time><name>PT4094</name></trkpt>
<trkpt lat="53.283559" lon="-2.008091"><ele>495</ele><time>2021-11-13T11:31:34Z</time><name>PT4095</name></trkpt>
<trkpt lat="53.283523" lon="-2.008089"><ele>495</ele><time>2021-11-13T11:31:37Z</time><name>PT4096</name></trkpt>
<trkpt lat="53.283479" lon="-2.008078"><ele>495</ele><time>2021-11-13T11:31:41Z</time><name>PT4097</name></trkpt>
<trkpt lat="53.283439" lon="-2.008050"><ele>494</ele><time>2021-11-13T11:31:45Z</time><name>PT4098</name></trkpt>
<trkpt lat="53.283395" lon="-2.008033"><ele>493</ele><time>2021-11-13T11:31:49Z</time><name>PT4099</name></trkpt>
<trkpt lat="53.283350" lon="-2.008041"><ele>494</ele><time>2021-11-13T11:31:53Z</time><name>PT4100</name></trkpt>
<trkpt lat="53.283313" lon="-2.008055"><ele>494</ele><time>2021-11-13T11:31:57Z</time><name>PT4101</name></trkpt>
<trkpt lat="53.283273" lon="-2.008048"><ele>494</ele><time>2021-11-13T11:32:01Z</time><name>PT4102</name></trkpt>
<trkpt lat="53.283230" lon="-2.008071"><ele>494</ele><time>2021-11-13T11:32:05Z</time><name>PT4103</name></trkpt>
<trkpt lat="53.283188" lon="-2.008073"><ele>494</ele><time>2021-11-13T11:32:09Z</time><name>PT4104</name></trkpt>
<trkpt lat="53.283143" lon="-2.008084"><ele>495</ele><time>2021-11-13T11:32:13Z</time><name>PT4105</name></trkpt>
<trkpt lat="53.283096" lon="-2.008106"><ele>495</ele><time>2021-11-13T11:32:17Z</time><name>PT4106</name></trkpt>
<trkpt lat="53.283049" lon="-2.008116"><ele>495</ele><time>2021-11-13T11:32:21Z</time><name>PT4107</name></trkpt>
<trkpt lat="53.283000" lon="-2.008136"><ele>496</ele><time>2021-11-13T11:32:25Z</time><name>PT4108</name></trkpt>
<trkpt lat="53.282960" lon="-2.008143"><ele>496</ele><time>2021-11-13T11:32:29Z</time><name>PT4109</name></trkpt>
<trkpt lat="53.282915" lon="-2.008166"><ele>496</ele><time>2021-11-13T11:32:33Z</time><name>PT4110</name></trkpt>
<trkpt lat="53.282878" lon="-2.008169"><ele>497</ele><time>2021-11-13T11:32:37Z</time><name>PT4111</name></trkpt>
<trkpt lat="53.282837" lon="-2.008193"><ele>497</ele><time>2021-11-13T11:32:41Z</time><name>PT4112</name></trkpt>
<trkpt lat="53.282804" lon="-2.008225"><ele>497</ele><time>2021-11-13T11:32:45Z</time><name>PT4113</name></trkpt>
<trkpt lat="53.282768" lon="-2.008260"><ele>497</ele><time>2021-11-13T11:32:49Z</time><name>PT4114</name></trkpt>
<trkpt lat="53.282726" lon="-2.008305"><ele>498</ele><time>2021-11-13T11:32:53Z</time><name>PT4115</name></trkpt>
<trkpt lat="53.282684" lon="-2.008322"><ele>498</ele><time>2021-11-13T11:32:57Z</time><name>PT4116</name></trkpt>
<trkpt lat="53.282645" lon="-2.008336"><ele>499</ele><time>2021-11-13T11:33:01Z</time><name>PT4117</name></trkpt>
<trkpt lat="53.282607" lon="-2.008367"><ele>500</ele><time>2021-11-13T11:33:05Z</time><name>PT4118</name></trkpt>
<trkpt lat="53.282565" lon="-2.008393"><ele>500</ele><time>2021-11-13T11:33:09Z</time><name>PT4119</name></trkpt>
<trkpt lat="53.282527" lon="-2.008400"><ele>500</ele><time>2021-11-13T11:33:13Z</time><name>PT4120</name></trkpt>
<trkpt lat="53.282492" lon="-2.008403"><ele>500</ele><time>2021-11-13T11:33:17Z</time><name>PT4121</name></trkpt>
<trkpt lat="53.282452" lon="-2.008418"><ele>502</ele><time>2021-11-13T11:33:21Z</time><name>PT4122</name></trkpt>
<trkpt lat="53.282409" lon="-2.008426"><ele>502</ele><time>2021-11-13T11:33:25Z</time><name>PT4123</name></trkpt>
<trkpt lat="53.282371" lon="-2.008438"><ele>503</ele><time>2021-11-13T11:33:29Z</time><name>PT4124</name></trkpt>
<trkpt lat="53.282332" lon="-2.008445"><ele>503</ele><time>2021-11-13T11:33:33Z</time><name>PT4125</name></trkpt>
<trkpt lat="53.282294" lon="-2.008442"><ele>504</ele><time>2021-11-13T11:33:37Z</time><name>PT4126</name></trkpt>
<trkpt lat="53.282257" lon="-2.008460"><ele>505</ele><time>2021-11-13T11:33:41Z</time><name>PT4127</name></trkpt>
<trkpt lat="53.282212" lon="-2.008462"><ele>508</ele><time>2021-11-13T11:33:45Z</time><name>PT4128</name></trkpt>
<trkpt lat="53.282173" lon="-2.008460"><ele>509</ele><time>2021-11-13T11:33:49Z</time><name>PT4129</name></trkpt>
<trkpt lat="53.282136" lon="-2.008477"><ele>509</ele><time>2021-11-13T11:33:53Z</time><name>PT4130</name></trkpt>
<trkpt lat="53.282095" lon="-2.008487"><ele>509</ele><time>2021-11-13T11:33:57Z</time><name>PT4131</name></trkpt>
<trkpt lat="53.282055" lon="-2.008511"><ele>509</ele><time>2021-11-13T11:34:01Z</time><name>PT4132</name></trkpt>
<trkpt lat="53.282017" lon="-2.008536"><ele>509</ele><time>2021-11-13T11:34:05Z</time><name>PT4133</name></trkpt>
<trkpt lat="53.281974" lon="-2.008541"><ele>510</ele><time>2021-11-13T11:34:09Z</time><name>PT4134</name></trkpt>
<trkpt lat="53.281931" lon="-2.008568"><ele>510</ele><time>2021-11-13T11:34:13Z</time><name>PT4135</name></trkpt>
<trkpt lat="53.281893" lon="-2.008578"><ele>511</ele><time>2021-11-13T11:34:17Z</time><name>PT4136</name></trkpt>
<trkpt lat="53.281852" lon="-2.008606"><ele>511</ele><time>2021-11-13T11:34:21Z</time><name>PT4137</name></trkpt>
<trkpt lat="53.281805" lon="-2.008622"><ele>511</ele><time>2021-11-13T11:34:25Z</time><name>PT4138</name></trkpt>
<trkpt lat="53.281763" lon="-2.008638"><ele>512</ele><time>2021-11-13T11:34:29Z</time><name>PT4139</name></trkpt>
<trkpt lat="53.281715" lon="-2.008650"><ele>512</ele><time>2021-11-13T11:34:33Z</time><name>PT4140</name></trkpt>
<trkpt lat="53.281674" lon="-2.008658"><ele>512</ele><time>2021-11-13T11:34:37Z</time><name>PT4141</name></trkpt>
<trkpt lat="53.281641" lon="-2.008696"><ele>512</ele><time>2021-11-13T11:34:41Z</time><name>PT4142</name></trkpt>
<trkpt lat="53.281598" lon="-2.008731"><ele>513</ele><time>2021-11-13T11:34:45Z</time><name>PT4143</name></trkpt>
<trkpt lat="53.281558" lon="-2.008770"><ele>513</ele><time>2021-11-13T11:34:49Z</time><name>PT4144</name></trkpt>
<trkpt lat="53.281514" lon="-2.008798"><ele>513</ele><time>2021-11-13T11:34:53Z</time><name>PT4145</name></trkpt>
<trkpt lat="53.281478" lon="-2.008836"><ele>512</ele><time>2021-11-13T11:34:57Z</time><name>PT4146</name></trkpt>
<trkpt lat="53.281437" lon="-2.008862"><ele>512</ele><time>2021-11-13T11:35:01Z</time><name>PT4147</name></trkpt>
<trkpt lat="53.281395" lon="-2.008859"><ele>513</ele><time>2021-11-13T11:35:05Z</time><name>PT4148</name></trkpt>
<trkpt lat="53.281364" lon="-2.008870"><ele>513</ele><time>2021-11-13T11:35:09Z</time><name>PT4149</name></trkpt>
<trkpt lat="53.281340" lon="-2.008879"><ele>513</ele><time>2021-11-13T11:35:13Z</time><name>PT4150</name></trkpt>
<trkpt lat="53.281298" lon="-2.008890"><ele>513</ele><time>2021-11-13T11:35:17Z</time><name>PT4151</name></trkpt>
<trkpt lat="53.281257" lon="-2.008895"><ele>513</ele><time>2021-11-13T11:35:21Z</time><name>PT4152</name></trkpt>
<trkpt lat="53.281222" lon="-2.008915"><ele>514</ele><time>2021-11-13T11:35:25Z</time><name>PT4153</name></trkpt>
<trkpt lat="53.281187" lon="-2.008902"><ele>515</ele><time>2021-11-13T11:35:29Z</time><name>PT4154</name></trkpt>
<trkpt lat="53.281148" lon="-2.008911"><ele>515</ele><time>2021-11-13T11:35:33Z</time><name>PT4155</name></trkpt>
<trkpt lat="53.281100" lon="-2.008930"><ele>515</ele><time>2021-11-13T11:35:37Z</time><name>PT4156</name></trkpt>
<trkpt lat="53.281061" lon="-2.008947"><ele>515</ele><time>2021-11-13T11:35:41Z</time><name>PT4157</name></trkpt>
<trkpt lat="53.281021" lon="-2.008957"><ele>516</ele><time>2021-11-13T11:35:45Z</time><name>PT4158</name></trkpt>
<trkpt lat="53.280980" lon="-2.008983"><ele>516</ele><time>2021-11-13T11:35:49Z</time><name>PT4159</name></trkpt>
<trkpt lat="53.280942" lon="-2.009000"><ele>517</ele><time>2021-11-13T11:35:53Z</time><name>PT4160</name></trkpt>
<trkpt lat="53.280905" lon="-2.009007"><ele>517</ele><time>2021-11-13T11:35:57Z</time><name>PT4161</name></trkpt>
<trkpt lat="53.280859" lon="-2.009016"><ele>517</ele><time>2021-11-13T11:36:01Z</time><name>PT4162</name></trkpt>
<trkpt lat="53.280820" lon="-2.009027"><ele>517</ele><time>2021-11-13T11:36:05Z</time><name>PT4163</name></trkpt>
<trkpt lat="53.280779" lon="-2.009029"><ele>517</ele><time>2021-11-13T11:36:09Z</time><name>PT4164</name></trkpt>
<trkpt lat="53.280734" lon="-2.009043"><ele>517</ele><time>2021-11-13T11:36:13Z</time><name>PT4165</name></trkpt>
<trkpt lat="53.280686" lon="-2.009043"><ele>518</ele><time>2021-11-13T11:36:17Z</time><name>PT4166</name></trkpt>
<trkpt lat="53.280643" lon="-2.009032"><ele>518</ele><time>2021-11-13T11:36:21Z</time><name>PT4167</name></trkpt>
<trkpt lat="53.280597" lon="-2.009059"><ele>518</ele><time>2021-11-13T11:36:25Z</time><name>PT4168</name></trkpt>
<trkpt lat="53.280557" lon="-2.009067"><ele>519</ele><time>2021-11-13T11:36:29Z</time><name>PT4169</name></trkpt>
<trkpt lat="53.280509" lon="-2.009072"><ele>519</ele><time>2021-11-13T11:36:33Z</time><name>PT4170</name></trkpt>
<trkpt lat="53.280472" lon="-2.009086"><ele>519</ele><time>2021-11-13T11:36:36Z</time><name>PT4171</name></trkpt>
<trkpt lat="53.280427" lon="-2.009090"><ele>520</ele><time>2021-11-13T11:36:40Z</time><name>PT4172</name></trkpt>
<trkpt lat="53.280386" lon="-2.009091"><ele>520</ele><time>2021-11-13T11:36:44Z</time><name>PT4173</name></trkpt>
<trkpt lat="53.280339" lon="-2.009099"><ele>520</ele><time>2021-11-13T11:36:48Z</time><name>PT4174</name></trkpt>
<trkpt lat="53.280290" lon="-2.009109"><ele>520</ele><time>2021-11-13T11:36:52Z</time><name>PT4175</name></trkpt>
<trkpt lat="53.280242" lon="-2.009103"><ele>519</ele><time>2021-11-13T11:36:56Z</time><name>PT4176</name></trkpt>
<trkpt lat="53.280190" lon="-2.009111"><ele>519</ele><time>2021-11-13T11:37:00Z</time><name>PT4177</name></trkpt>
<trkpt lat="53.280145" lon="-2.009117"><ele>520</ele><time>2021-11-13T11:37:04Z</time><name>PT4178</name></trkpt>
<trkpt lat="53.280095" lon="-2.009102"><ele>520</ele><time>2021-11-13T11:37:08Z</time><name>PT4179</name></trkpt>
<trkpt lat="53.280042" lon="-2.009085"><ele>521</ele><time>2021-11-13T11:37:12Z</time><name>PT4180</name></trkpt>
<trkpt lat="53.280000" lon="-2.009079"><ele>521</ele><time>2021-11-13T11:37:16Z</time><name>PT4181</name></trkpt>
<trkpt lat="53.279954" lon="-2.009096"><ele>520</ele><time>2021-11-13T11:37:20Z</time><name>PT4182</name></trkpt>
<trkpt lat="53.279912" lon="-2.009069"><ele>520</ele><time>2021-11-13T11:37:24Z</time><name>PT4183</name></trkpt>
<trkpt lat="53.279876" lon="-2.009023"><ele>521</ele><time>2021-11-13T11:37:28Z</time><name>PT4184</name></trkpt>
<trkpt lat="53.279830" lon="-2.009008"><ele>520</ele><time>2021-11-13T11:37:32Z</time><name>PT4185</name></trkpt>
<trkpt lat="53.279782" lon="-2.008991"><ele>520</ele><time>2021-11-13T11:37:36Z</time><name>PT4186</name></trkpt>
<trkpt lat="53.279731" lon="-2.008965"><ele>520</ele><time>2021-11-13T11:37:40Z</time><name>PT4187</name></trkpt>
<trkpt lat="53.279717" lon="-2.008964"><ele>520</ele><time>2021-11-13T11:37:44Z</time><name>PT4188</name></trkpt>
<trkpt lat="53.279715" lon="-2.008967"><ele>520</ele><time>2021-11-13T11:37:47Z</time><name>PT4189</name></trkpt>
<trkpt lat="53.279717" lon="-2.008967"><ele>520</ele><time>2021-11-13T11:37:48Z</time><name>PT4190</name></trkpt>
<trkpt lat="53.279719" lon="-2.008966"><ele>520</ele><time>2021-11-13T11:37:49Z</time><name>PT4191</name></trkpt>
<trkpt lat="53.279719" lon="-2.008968"><ele>520</ele><time>2021-11-13T11:37:50Z</time><name>PT4192</name></trkpt>
<trkpt lat="53.279720" lon="-2.008966"><ele>520</ele><time>2021-11-13T11:37:58Z</time><name>PT4193</name></trkpt>
<trkpt lat="53.279719" lon="-2.008964"><ele>520</ele><time>2021-11-13T11:37:59Z</time><name>PT4194</name></trkpt>
<trkpt lat="53.279719" lon="-2.008964"><ele>520</ele><time>2021-11-13T11:38:00Z</time><name>PT4195</name></trkpt>
<trkpt lat="53.279717" lon="-2.008968"><ele>520</ele><time>2021-11-13T11:38:44Z</time><name>PT4196</name></trkpt>
<trkpt lat="53.279712" lon="-2.008979"><ele>520</ele><time>2021-11-13T11:38:45Z</time><name>PT4197</name></trkpt>
<trkpt lat="53.279709" lon="-2.008984"><ele>519</ele><time>2021-11-13T11:38:46Z</time><name>PT4198</name></trkpt>
<trkpt lat="53.279708" lon="-2.008992"><ele>519</ele><time>2021-11-13T11:38:47Z</time><name>PT4199</name></trkpt>
<trkpt lat="53.279705" lon="-2.008997"><ele>519</ele><time>2021-11-13T11:38:48Z</time><name>PT4200</name></trkpt>
<trkpt lat="53.279700" lon="-2.009001"><ele>519</ele><time>2021-11-13T11:38:49Z</time><name>PT4201</name></trkpt>
<trkpt lat="53.279695" lon="-2.009008"><ele>519</ele><time>2021-11-13T11:38:50Z</time><name>PT4202</name></trkpt>
<trkpt lat="53.279693" lon="-2.009011"><ele>519</ele><time>2021-11-13T11:38:51Z</time><name>PT4203</name></trkpt>
<trkpt lat="53.279693" lon="-2.009015"><ele>519</ele><time>2021-11-13T11:38:52Z</time><name>PT4204</name></trkpt>
<trkpt lat="53.279693" lon="-2.009016"><ele>519</ele><time>2021-11-13T11:38:53Z</time><name>PT4205</name></trkpt>
<trkpt lat="53.279691" lon="-2.009027"><ele>520</ele><time>2021-11-13T11:39:11Z</time><name>PT4206</name></trkpt>
<trkpt lat="53.279692" lon="-2.009029"><ele>520</ele><time>2021-11-13T11:39:12Z</time><name>PT4207</name></trkpt>
<trkpt lat="53.279690" lon="-2.009028"><ele>520</ele><time>2021-11-13T11:39:13Z</time><name>PT4208</name></trkpt>
<trkpt lat="53.279689" lon="-2.009031"><ele>520</ele><time>2021-11-13T11:39:14Z</time><name>PT4209</name></trkpt>
<trkpt lat="53.279690" lon="-2.009033"><ele>520</ele><time>2021-11-13T11:39:15Z</time><name>PT4210</name></trkpt>
<trkpt lat="53.279690" lon="-2.009033"><ele>519</ele><time>2021-11-13T11:39:16Z</time><name>PT4211</name></trkpt>
<trkpt lat="53.279690" lon="-2.009036"><ele>519</ele><time>2021-11-13T11:39:17Z</time><name>PT4212</name></trkpt>
<trkpt lat="53.279689" lon="-2.009037"><ele>519</ele><time>2021-11-13T11:39:54Z</time><name>PT4213</name></trkpt>
<trkpt lat="53.279690" lon="-2.009034"><ele>519</ele><time>2021-11-13T11:51:50Z</time><name>PT4214</name></trkpt>
<trkpt lat="53.279690" lon="-2.009042"><ele>519</ele><time>2021-11-13T11:51:54Z</time><name>PT4215</name></trkpt>
<trkpt lat="53.279688" lon="-2.009040"><ele>518</ele><time>2021-11-13T11:51:58Z</time><name>PT4216</name></trkpt>
<trkpt lat="53.279686" lon="-2.009041"><ele>519</ele><time>2021-11-13T11:52:02Z</time><name>PT4217</name></trkpt>
<trkpt lat="53.279687" lon="-2.009047"><ele>518</ele><time>2021-11-13T11:52:38Z</time><name>PT4218</name></trkpt>
<trkpt lat="53.279683" lon="-2.009051"><ele>518</ele><time>2021-11-13T11:52:42Z</time><name>PT4219</name></trkpt>
<trkpt lat="53.279682" lon="-2.009050"><ele>518</ele><time>2021-11-13T11:52:46Z</time><name>PT4220</name></trkpt>
<trkpt lat="53.279685" lon="-2.009045"><ele>518</ele><time>2021-11-13T11:53:06Z</time><name>PT4221</name></trkpt>
<trkpt lat="53.279687" lon="-2.009044"><ele>518</ele><time>2021-11-13T11:53:10Z</time><name>PT4222</name></trkpt>
<trkpt lat="53.279686" lon="-2.009055"><ele>519</ele><time>2021-11-13T11:55:29Z</time><name>PT4223</name></trkpt>
<trkpt lat="53.279690" lon="-2.009060"><ele>520</ele><time>2021-11-13T11:55:30Z</time><name>PT4224</name></trkpt>
<trkpt lat="53.279691" lon="-2.009061"><ele>520</ele><time>2021-11-13T11:55:31Z</time><name>PT4225</name></trkpt>
<trkpt lat="53.279692" lon="-2.009066"><ele>520</ele><time>2021-11-13T11:55:33Z</time><name>PT4226</name></trkpt>
<trkpt lat="53.279693" lon="-2.009064"><ele>520</ele><time>2021-11-13T11:55:34Z</time><name>PT4227</name></trkpt>
<trkpt lat="53.279695" lon="-2.009065"><ele>520</ele><time>2021-11-13T11:55:35Z</time><name>PT4228</name></trkpt>
<trkpt lat="53.279695" lon="-2.009066"><ele>520</ele><time>2021-11-13T11:55:36Z</time><name>PT4229</name></trkpt>
<trkpt lat="53.279695" lon="-2.009066"><ele>520</ele><time>2021-11-13T11:55:37Z</time><name>PT4230</name></trkpt>
<trkpt lat="53.279693" lon="-2.009066"><ele>521</ele><time>2021-11-13T11:55:38Z</time><name>PT4231</name></trkpt>
<trkpt lat="53.279692" lon="-2.009062"><ele>521</ele><time>2021-11-13T11:56:55Z</time><name>PT4232</name></trkpt>
<trkpt lat="53.279692" lon="-2.009062"><ele>521</ele><time>2021-11-13T11:56:56Z</time><name>PT4233</name></trkpt>
<trkpt lat="53.279695" lon="-2.009062"><ele>521</ele><time>2021-11-13T11:58:02Z</time><name>PT4234</name></trkpt>
<trkpt lat="53.279694" lon="-2.009060"><ele>521</ele><time>2021-11-13T11:58:03Z</time><name>PT4235</name></trkpt>
<trkpt lat="53.279693" lon="-2.009056"><ele>521</ele><time>2021-11-13T11:58:04Z</time><name>PT4236</name></trkpt>
<trkpt lat="53.279693" lon="-2.009054"><ele>521</ele><time>2021-11-13T11:58:05Z</time><name>PT4237</name></trkpt>
<trkpt lat="53.279695" lon="-2.009054"><ele>521</ele><time>2021-11-13T11:58:06Z</time><name>PT4238</name></trkpt>
<trkpt lat="53.279694" lon="-2.009054"><ele>521</ele><time>2021-11-13T11:58:38Z</time><name>PT4239</name></trkpt>
<trkpt lat="53.279693" lon="-2.009054"><ele>521</ele><time>2021-11-13T11:58:39Z</time><name>PT4240</name></trkpt>
<trkpt lat="53.279693" lon="-2.009055"><ele>521</ele><time>2021-11-13T11:58:40Z</time><name>PT4241</name></trkpt>
<trkpt lat="53.279693" lon="-2.009054"><ele>521</ele><time>2021-11-13T11:59:15Z</time><name>PT4242</name></trkpt>
<trkpt lat="53.279693" lon="-2.009054"><ele>521</ele><time>2021-11-13T11:59:16Z</time><name>PT4243</name></trkpt>
<trkpt lat="53.279692" lon="-2.009055"><ele>522</ele><time>2021-11-13T11:59:17Z</time><name>PT4244</name></trkpt>
<trkpt lat="53.279687" lon="-2.009050"><ele>522</ele><time>2021-11-13T11:59:52Z</time><name>PT4245</name></trkpt>
<trkpt lat="53.279686" lon="-2.009052"><ele>522</ele><time>2021-11-13T11:59:53Z</time><name>PT4246</name></trkpt>
<trkpt lat="53.279678" lon="-2.009044"><ele>522</ele><time>2021-11-13T11:59:56Z</time><name>PT4247</name></trkpt>
<trkpt lat="53.279679" lon="-2.009046"><ele>523</ele><time>2021-11-13T11:59:57Z</time><name>PT4248</name></trkpt>
<trkpt lat="53.279680" lon="-2.009042"><ele>523</ele><time>2021-11-13T11:59:58Z</time><name>PT4249</name></trkpt>
<trkpt lat="53.279680" lon="-2.009041"><ele>523</ele><time>2021-11-13T11:59:59Z</time><name>PT4250</name></trkpt>
<trkpt lat="53.279676" lon="-2.009040"><ele>523</ele><time>2021-11-13T12:00:00Z</time><name>PT4251</name></trkpt>
<trkpt lat="53.279672" lon="-2.009039"><ele>523</ele><time>2021-11-13T12:00:01Z</time><name>PT4252</name></trkpt>
<trkpt lat="53.279664" lon="-2.009033"><ele>523</ele><time>2021-11-13T12:00:02Z</time><name>PT4253</name></trkpt>
<trkpt lat="53.279654" lon="-2.009027"><ele>523</ele><time>2021-11-13T12:00:03Z</time><name>PT4254</name></trkpt>
<trkpt lat="53.279645" lon="-2.009018"><ele>524</ele><time>2021-11-13T12:00:04Z</time><name>PT4255</name></trkpt>
<trkpt lat="53.279640" lon="-2.009008"><ele>524</ele><time>2021-11-13T12:00:05Z</time><name>PT4256</name></trkpt>
<trkpt lat="53.279638" lon="-2.008990"><ele>524</ele><time>2021-11-13T12:00:06Z</time><name>PT4257</name></trkpt>
<trkpt lat="53.279639" lon="-2.008976"><ele>524</ele><time>2021-11-13T12:00:07Z</time><name>PT4258</name></trkpt>
<trkpt lat="53.279639" lon="-2.008961"><ele>523</ele><time>2021-11-13T12:00:08Z</time><name>PT4259</name></trkpt>
<trkpt lat="53.279638" lon="-2.008949"><ele>523</ele><time>2021-11-13T12:00:09Z</time><name>PT4260</name></trkpt>
<trkpt lat="53.279639" lon="-2.008944"><ele>523</ele><time>2021-11-13T12:00:10Z</time><name>PT4261</name></trkpt>
<trkpt lat="53.279641" lon="-2.008942"><ele>523</ele><time>2021-11-13T12:00:11Z</time><name>PT4262</name></trkpt>
<trkpt lat="53.279642" lon="-2.008941"><ele>523</ele><time>2021-11-13T12:00:12Z</time><name>PT4263</name></trkpt>
<trkpt lat="53.279644" lon="-2.008939"><ele>523</ele><time>2021-11-13T12:00:13Z</time><name>PT4264</name></trkpt>
<trkpt lat="53.279645" lon="-2.008944"><ele>523</ele><time>2021-11-13T12:00:23Z</time><name>PT4265</name></trkpt>
<trkpt lat="53.279643" lon="-2.008935"><ele>523</ele><time>2021-11-13T12:00:24Z</time><name>PT4266</name></trkpt>
<trkpt lat="53.279630" lon="-2.008923"><ele>523</ele><time>2021-11-13T12:00:25Z</time><name>PT4267</name></trkpt>
<trkpt lat="53.279621" lon="-2.008909"><ele>524</ele><time>2021-11-13T12:00:26Z</time><name>PT4268</name></trkpt>
<trkpt lat="53.279609" lon="-2.008901"><ele>523</ele><time>2021-11-13T12:00:27Z</time><name>PT4269</name></trkpt>
<trkpt lat="53.279600" lon="-2.008898"><ele>523</ele><time>2021-11-13T12:00:28Z</time><name>PT4270</name></trkpt>
<trkpt lat="53.279594" lon="-2.008897"><ele>523</ele><time>2021-11-13T12:00:29Z</time><name>PT4271</name></trkpt>
<trkpt lat="53.279584" lon="-2.008895"><ele>523</ele><time>2021-11-13T12:00:30Z</time><name>PT4272</name></trkpt>
<trkpt lat="53.279576" lon="-2.008892"><ele>523</ele><time>2021-11-13T12:00:31Z</time><name>PT4273</name></trkpt>
<trkpt lat="53.279567" lon="-2.008890"><ele>523</ele><time>2021-11-13T12:00:32Z</time><name>PT4274</name></trkpt>
<trkpt lat="53.279559" lon="-2.008889"><ele>523</ele><time>2021-11-13T12:00:33Z</time><name>PT4275</name></trkpt>
<trkpt lat="53.279551" lon="-2.008889"><ele>523</ele><time>2021-11-13T12:00:34Z</time><name>PT4276</name></trkpt>
<trkpt lat="53.279543" lon="-2.008888"><ele>522</ele><time>2021-11-13T12:00:35Z</time><name>PT4277</name></trkpt>
<trkpt lat="53.279535" lon="-2.008890"><ele>522</ele><time>2021-11-13T12:00:36Z</time><name>PT4278</name></trkpt>
<trkpt lat="53.279528" lon="-2.008891"><ele>522</ele><time>2021-11-13T12:00:37Z</time><name>PT4279</name></trkpt>
<trkpt lat="53.279520" lon="-2.008890"><ele>522</ele><time>2021-11-13T12:00:38Z</time><name>PT4280</name></trkpt>
<trkpt lat="53.279511" lon="-2.008888"><ele>522</ele><time>2021-11-13T12:00:39Z</time><name>PT4281</name></trkpt>
<trkpt lat="53.279500" lon="-2.008886"><ele>522</ele><time>2021-11-13T12:00:40Z</time><name>PT4282</name></trkpt>
<trkpt lat="53.279491" lon="-2.008884"><ele>522</ele><time>2021-11-13T12:00:41Z</time><name>PT4283</name></trkpt>
<trkpt lat="53.279482" lon="-2.008879"><ele>522</ele><time>2021-11-13T12:00:42Z</time><name>PT4284</name></trkpt>
<trkpt lat="53.279473" lon="-2.008873"><ele>522</ele><time>2021-11-13T12:00:43Z</time><name>PT4285</name></trkpt>
<trkpt lat="53.279465" lon="-2.008868"><ele>522</ele><time>2021-11-13T12:00:44Z</time><name>PT4286</name></trkpt>
<trkpt lat="53.279456" lon="-2.008865"><ele>521</ele><time>2021-11-13T12:00:45Z</time><name>PT4287</name></trkpt>
<trkpt lat="53.279445" lon="-2.008863"><ele>521</ele><time>2021-11-13T12:00:46Z</time><name>PT4288</name></trkpt>
<trkpt lat="53.279438" lon="-2.008859"><ele>521</ele><time>2021-11-13T12:00:47Z</time><name>PT4289</name></trkpt>
<trkpt lat="53.279430" lon="-2.008853"><ele>521</ele><time>2021-11-13T12:00:48Z</time><name>PT4290</name></trkpt>
<trkpt lat="53.279421" lon="-2.008851"><ele>520</ele><time>2021-11-13T12:00:49Z</time><name>PT4291</name></trkpt>
<trkpt lat="53.279412" lon="-2.008848"><ele>520</ele><time>2021-11-13T12:00:50Z</time><name>PT4292</name></trkpt>
<trkpt lat="53.279401" lon="-2.008846"><ele>520</ele><time>2021-11-13T12:00:51Z</time><name>PT4293</name></trkpt>
<trkpt lat="53.279391" lon="-2.008842"><ele>520</ele><time>2021-11-13T12:00:52Z</time><name>PT4294</name></trkpt>
<trkpt lat="53.279382" lon="-2.008839"><ele>520</ele><time>2021-11-13T12:00:53Z</time><name>PT4295</name></trkpt>
<trkpt lat="53.279373" lon="-2.008837"><ele>520</ele><time>2021-11-13T12:00:54Z</time><name>PT4296</name></trkpt>
<trkpt lat="53.279363" lon="-2.008834"><ele>520</ele><time>2021-11-13T12:00:55Z</time><name>PT4297</name></trkpt>
<trkpt lat="53.279352" lon="-2.008833"><ele>520</ele><time>2021-11-13T12:00:56Z</time><name>PT4298</name></trkpt>
<trkpt lat="53.279343" lon="-2.008832"><ele>520</ele><time>2021-11-13T12:00:57Z</time><name>PT4299</name></trkpt>
<trkpt lat="53.279331" lon="-2.008831"><ele>520</ele><time>2021-11-13T12:00:58Z</time><name>PT4300</name></trkpt>
<trkpt lat="53.279323" lon="-2.008829"><ele>520</ele><time>2021-11-13T12:00:59Z</time><name>PT4301</name></trkpt>
<trkpt lat="53.279315" lon="-2.008826"><ele>520</ele><time>2021-11-13T12:01:00Z</time><name>PT4302</name></trkpt>
<trkpt lat="53.279306" lon="-2.008826"><ele>520</ele><time>2021-11-13T12:01:01Z</time><name>PT4303</name></trkpt>
<trkpt lat="53.279296" lon="-2.008825"><ele>521</ele><time>2021-11-13T12:01:02Z</time><name>PT4304</name></trkpt>
<trkpt lat="53.279290" lon="-2.008825"><ele>521</ele><time>2021-11-13T12:01:03Z</time><name>PT4305</name></trkpt>
<trkpt lat="53.279281" lon="-2.008826"><ele>521</ele><time>2021-11-13T12:01:04Z</time><name>PT4306</name></trkpt>
<trkpt lat="53.279275" lon="-2.008825"><ele>521</ele><time>2021-11-13T12:01:05Z</time><name>PT4307</name></trkpt>
<trkpt lat="53.279264" lon="-2.008826"><ele>521</ele><time>2021-11-13T12:01:06Z</time><name>PT4308</name></trkpt>
<trkpt lat="53.279254" lon="-2.008825"><ele>521</ele><time>2021-11-13T12:01:07Z</time><name>PT4309</name></trkpt>
<trkpt lat="53.279245" lon="-2.008825"><ele>521</ele><time>2021-11-13T12:01:08Z</time><name>PT4310</name></trkpt>
<trkpt lat="53.279236" lon="-2.008825"><ele>521</ele><time>2021-11-13T12:01:09Z</time><name>PT4311</name></trkpt>
<trkpt lat="53.279226" lon="-2.008823"><ele>521</ele><time>2021-11-13T12:01:10Z</time><name>PT4312</name></trkpt>
<trkpt lat="53.279214" lon="-2.008820"><ele>520</ele><time>2021-11-13T12:01:11Z</time><name>PT4313</name></trkpt>
<trkpt lat="53.279205" lon="-2.008816"><ele>520</ele><time>2021-11-13T12:01:12Z</time><name>PT4314</name></trkpt>
<trkpt lat="53.279195" lon="-2.008810"><ele>520</ele><time>2021-11-13T12:01:13Z</time><name>PT4315</name></trkpt>
<trkpt lat="53.279186" lon="-2.008809"><ele>520</ele><time>2021-11-13T12:01:14Z</time><name>PT4316</name></trkpt>
<trkpt lat="53.279179" lon="-2.008807"><ele>520</ele><time>2021-11-13T12:01:15Z</time><name>PT4317</name></trkpt>
<trkpt lat="53.279170" lon="-2.008804"><ele>519</ele><time>2021-11-13T12:01:16Z</time><name>PT4318</name></trkpt>
<trkpt lat="53.279161" lon="-2.008800"><ele>519</ele><time>2021-11-13T12:01:17Z</time><name>PT4319</name></trkpt>
<trkpt lat="53.279153" lon="-2.008797"><ele>520</ele><time>2021-11-13T12:01:18Z</time><name>PT4320</name></trkpt>
<trkpt lat="53.279145" lon="-2.008796"><ele>520</ele><time>2021-11-13T12:01:19Z</time><name>PT4321</name></trkpt>
<trkpt lat="53.279137" lon="-2.008793"><ele>520</ele><time>2021-11-13T12:01:20Z</time><name>PT4322</name></trkpt>
<trkpt lat="53.279129" lon="-2.008791"><ele>520</ele><time>2021-11-13T12:01:21Z</time><name>PT4323</name></trkpt>
<trkpt lat="53.279121" lon="-2.008790"><ele>519</ele><time>2021-11-13T12:01:22Z</time><name>PT4324</name></trkpt>
<trkpt lat="53.279112" lon="-2.008787"><ele>519</ele><time>2021-11-13T12:01:23Z</time><name>PT4325</name></trkpt>
<trkpt lat="53.279103" lon="-2.008782"><ele>519</ele><time>2021-11-13T12:01:24Z</time><name>PT4326</name></trkpt>
<trkpt lat="53.279093" lon="-2.008778"><ele>519</ele><time>2021-11-13T12:01:25Z</time><name>PT4327</name></trkpt>
<trkpt lat="53.279085" lon="-2.008771"><ele>520</ele><time>2021-11-13T12:01:26Z</time><name>PT4328</name></trkpt>
<trkpt lat="53.279075" lon="-2.008764"><ele>520</ele><time>2021-11-13T12:01:27Z</time><name>PT4329</name></trkpt>
<trkpt lat="53.279065" lon="-2.008757"><ele>520</ele><time>2021-11-13T12:01:28Z</time><name>PT4330</name></trkpt>
<trkpt lat="53.279053" lon="-2.008753"><ele>520</ele><time>2021-11-13T12:01:29Z</time><name>PT4331</name></trkpt>
<trkpt lat="53.279041" lon="-2.008745"><ele>520</ele><time>2021-11-13T12:01:30Z</time><name>PT4332</name></trkpt>
<trkpt lat="53.279029" lon="-2.008739"><ele>520</ele><time>2021-11-13T12:01:31Z</time><name>PT4333</name></trkpt>
<trkpt lat="53.279016" lon="-2.008731"><ele>520</ele><time>2021-11-13T12:01:32Z</time><name>PT4334</name></trkpt>
<trkpt lat="53.279003" lon="-2.008726"><ele>521</ele><time>2021-11-13T12:01:33Z</time><name>PT4335</name></trkpt>
<trkpt lat="53.278988" lon="-2.008718"><ele>521</ele><time>2021-11-13T12:01:34Z</time><name>PT4336</name></trkpt>
<trkpt lat="53.278974" lon="-2.008713"><ele>520</ele><time>2021-11-13T12:01:35Z</time><name>PT4337</name></trkpt>
<trkpt lat="53.278963" lon="-2.008708"><ele>520</ele><time>2021-11-13T12:01:36Z</time><name>PT4338</name></trkpt>
<trkpt lat="53.278950" lon="-2.008702"><ele>521</ele><time>2021-11-13T12:01:37Z</time><name>PT4339</name></trkpt>
<trkpt lat="53.278938" lon="-2.008698"><ele>520</ele><time>2021-11-13T12:01:38Z</time><name>PT4340</name></trkpt>
<trkpt lat="53.278925" lon="-2.008693"><ele>520</ele><time>2021-11-13T12:01:39Z</time><name>PT4341</name></trkpt>
<trkpt lat="53.278914" lon="-2.008687"><ele>520</ele><time>2021-11-13T12:01:40Z</time><name>PT4342</name></trkpt>
<trkpt lat="53.278902" lon="-2.008682"><ele>520</ele><time>2021-11-13T12:01:41Z</time><name>PT4343</name></trkpt>
<trkpt lat="53.278891" lon="-2.008675"><ele>519</ele><time>2021-11-13T12:01:42Z</time><name>PT4344</name></trkpt>
<trkpt lat="53.278881" lon="-2.008670"><ele>519</ele><time>2021-11-13T12:01:43Z</time><name>PT4345</name></trkpt>
<trkpt lat="53.278869" lon="-2.008666"><ele>519</ele><time>2021-11-13T12:01:44Z</time><name>PT4346</name></trkpt>
<trkpt lat="53.278856" lon="-2.008663"><ele>519</ele><time>2021-11-13T12:01:45Z</time><name>PT4347</name></trkpt>
<trkpt lat="53.278842" lon="-2.008660"><ele>519</ele><time>2021-11-13T12:01:46Z</time><name>PT4348</name></trkpt>
<trkpt lat="53.278830" lon="-2.008656"><ele>518</ele><time>2021-11-13T12:01:47Z</time><name>PT4349</name></trkpt>
<trkpt lat="53.278795" lon="-2.008649"><ele>518</ele><time>2021-11-13T12:01:50Z</time><name>PT4350</name></trkpt>
<trkpt lat="53.278747" lon="-2.008650"><ele>519</ele><time>2021-11-13T12:01:54Z</time><name>PT4351</name></trkpt>
<trkpt lat="53.278731" lon="-2.008645"><ele>519</ele><time>2021-11-13T12:01:58Z</time><name>PT4352</name></trkpt>
<trkpt lat="53.278731" lon="-2.008644"><ele>519</ele><time>2021-11-13T12:02:02Z</time><name>PT4353</name></trkpt>
<trkpt lat="53.278705" lon="-2.008649"><ele>519</ele><time>2021-11-13T12:02:06Z</time><name>PT4354</name></trkpt>
<trkpt lat="53.278679" lon="-2.008648"><ele>519</ele><time>2021-11-13T12:02:08Z</time><name>PT4355</name></trkpt>
<trkpt lat="53.278668" lon="-2.008648"><ele>519</ele><time>2021-11-13T12:02:09Z</time><name>PT4356</name></trkpt>
<trkpt lat="53.278657" lon="-2.008645"><ele>519</ele><time>2021-11-13T12:02:10Z</time><name>PT4357</name></trkpt>
<trkpt lat="53.278644" lon="-2.008640"><ele>519</ele><time>2021-11-13T12:02:11Z</time><name>PT4358</name></trkpt>
<trkpt lat="53.278629" lon="-2.008639"><ele>519</ele><time>2021-11-13T12:02:12Z</time><name>PT4359</name></trkpt>
<trkpt lat="53.278617" lon="-2.008639"><ele>519</ele><time>2021-11-13T12:02:13Z</time><name>PT4360</name></trkpt>
<trkpt lat="53.278605" lon="-2.008638"><ele>519</ele><time>2021-11-13T12:02:14Z</time><name>PT4361</name></trkpt>
<trkpt lat="53.278591" lon="-2.008637"><ele>519</ele><time>2021-11-13T12:02:15Z</time><name>PT4362</name></trkpt>
<trkpt lat="53.278580" lon="-2.008638"><ele>520</ele><time>2021-11-13T12:02:16Z</time><name>PT4363</name></trkpt>
<trkpt lat="53.278567" lon="-2.008636"><ele>520</ele><time>2021-11-13T12:02:17Z</time><name>PT4364</name></trkpt>
<trkpt lat="53.278557" lon="-2.008630"><ele>520</ele><time>2021-11-13T12:02:18Z</time><name>PT4365</name></trkpt>
<trkpt lat="53.278548" lon="-2.008624"><ele>520</ele><time>2021-11-13T12:02:19Z</time><name>PT4366</name></trkpt>
<trkpt lat="53.278540" lon="-2.008621"><ele>520</ele><time>2021-11-13T12:02:20Z</time><name>PT4367</name></trkpt>
<trkpt lat="53.278535" lon="-2.008617"><ele>519</ele><time>2021-11-13T12:02:21Z</time><name>PT4368</name></trkpt>
<trkpt lat="53.278525" lon="-2.008621"><ele>519</ele><time>2021-11-13T12:02:22Z</time><name>PT4369</name></trkpt>
<trkpt lat="53.278511" lon="-2.008620"><ele>519</ele><time>2021-11-13T12:02:23Z</time><name>PT4370</name></trkpt>
<trkpt lat="53.278496" lon="-2.008613"><ele>519</ele><time>2021-11-13T12:02:24Z</time><name>PT4371</name></trkpt>
<trkpt lat="53.278484" lon="-2.008609"><ele>519</ele><time>2021-11-13T12:02:25Z</time><name>PT4372</name></trkpt>
<trkpt lat="53.278472" lon="-2.008602"><ele>518</ele><time>2021-11-13T12:02:26Z</time><name>PT4373</name></trkpt>
<trkpt lat="53.278461" lon="-2.008595"><ele>518</ele><time>2021-11-13T12:02:27Z</time><name>PT4374</name></trkpt>
<trkpt lat="53.278449" lon="-2.008588"><ele>518</ele><time>2021-11-13T12:02:28Z</time><name>PT4375</name></trkpt>
<trkpt lat="53.278435" lon="-2.008579"><ele>517</ele><time>2021-11-13T12:02:29Z</time><name>PT4376</name></trkpt>
<trkpt lat="53.278421" lon="-2.008572"><ele>517</ele><time>2021-11-13T12:02:30Z</time><name>PT4377</name></trkpt>
<trkpt lat="53.278408" lon="-2.008567"><ele>517</ele><time>2021-11-13T12:02:31Z</time><name>PT4378</name></trkpt>
<trkpt lat="53.278394" lon="-2.008558"><ele>517</ele><time>2021-11-13T12:02:32Z</time><name>PT4379</name></trkpt>
<trkpt lat="53.278378" lon="-2.008554"><ele>518</ele><time>2021-11-13T12:02:33Z</time><name>PT4380</name></trkpt>
<trkpt lat="53.278365" lon="-2.008548"><ele>518</ele><time>2021-11-13T12:02:34Z</time><name>PT4381</name></trkpt>
<trkpt lat="53.278356" lon="-2.008543"><ele>518</ele><time>2021-11-13T12:02:35Z</time><name>PT4382</name></trkpt>
<trkpt lat="53.278344" lon="-2.008539"><ele>518</ele><time>2021-11-13T12:02:36Z</time><name>PT4383</name></trkpt>
<trkpt lat="53.278329" lon="-2.008535"><ele>518</ele><time>2021-11-13T12:02:37Z</time><name>PT4384</name></trkpt>
<trkpt lat="53.278317" lon="-2.008532"><ele>517</ele><time>2021-11-13T12:02:38Z</time><name>PT4385</name></trkpt>
<trkpt lat="53.278305" lon="-2.008527"><ele>517</ele><time>2021-11-13T12:02:39Z</time><name>PT4386</name></trkpt>
<trkpt lat="53.278293" lon="-2.008524"><ele>517</ele><time>2021-11-13T12:02:40Z</time><name>PT4387</name></trkpt>
<trkpt lat="53.278280" lon="-2.008523"><ele>518</ele><time>2021-11-13T12:02:41Z</time><name>PT4388</name></trkpt>
<trkpt lat="53.278265" lon="-2.008519"><ele>518</ele><time>2021-11-13T12:02:42Z</time><name>PT4389</name></trkpt>
<trkpt lat="53.278251" lon="-2.008511"><ele>517</ele><time>2021-11-13T12:02:43Z</time><name>PT4390</name></trkpt>
<trkpt lat="53.278241" lon="-2.008504"><ele>517</ele><time>2021-11-13T12:02:44Z</time><name>PT4391</name></trkpt>
<trkpt lat="53.278231" lon="-2.008497"><ele>517</ele><time>2021-11-13T12:02:45Z</time><name>PT4392</name></trkpt>
<trkpt lat="53.278218" lon="-2.008489"><ele>517</ele><time>2021-11-13T12:02:46Z</time><name>PT4393</name></trkpt>
<trkpt lat="53.278202" lon="-2.008482"><ele>517</ele><time>2021-11-13T12:02:47Z</time><name>PT4394</name></trkpt>
<trkpt lat="53.278188" lon="-2.008477"><ele>517</ele><time>2021-11-13T12:02:48Z</time><name>PT4395</name></trkpt>
<trkpt lat="53.278175" lon="-2.008473"><ele>517</ele><time>2021-11-13T12:02:49Z</time><name>PT4396</name></trkpt>
<trkpt lat="53.278160" lon="-2.008467"><ele>517</ele><time>2021-11-13T12:02:50Z</time><name>PT4397</name></trkpt>
<trkpt lat="53.278145" lon="-2.008460"><ele>517</ele><time>2021-11-13T12:02:51Z</time><name>PT4398</name></trkpt>
<trkpt lat="53.278132" lon="-2.008452"><ele>516</ele><time>2021-11-13T12:02:52Z</time><name>PT4399</name></trkpt>
<trkpt lat="53.278120" lon="-2.008445"><ele>516</ele><time>2021-11-13T12:02:53Z</time><name>PT4400</name></trkpt>
<trkpt lat="53.278110" lon="-2.008439"><ele>516</ele><time>2021-11-13T12:02:54Z</time><name>PT4401</name></trkpt>
<trkpt lat="53.278100" lon="-2.008432"><ele>516</ele><time>2021-11-13T12:02:55Z</time><name>PT4402</name></trkpt>
<trkpt lat="53.278088" lon="-2.008425"><ele>515</ele><time>2021-11-13T12:02:56Z</time><name>PT4403</name></trkpt>
<trkpt lat="53.278076" lon="-2.008421"><ele>515</ele><time>2021-11-13T12:02:57Z</time><name>PT4404</name></trkpt>
<trkpt lat="53.278067" lon="-2.008416"><ele>515</ele><time>2021-11-13T12:02:58Z</time><name>PT4405</name></trkpt>
<trkpt lat="53.278057" lon="-2.008408"><ele>514</ele><time>2021-11-13T12:02:59Z</time><name>PT4406</name></trkpt>
<trkpt lat="53.278045" lon="-2.008398"><ele>514</ele><time>2021-11-13T12:03:00Z</time><name>PT4407</name></trkpt>
<trkpt lat="53.278032" lon="-2.008391"><ele>514</ele><time>2021-11-13T12:03:01Z</time><name>PT4408</name></trkpt>
<trkpt lat="53.278021" lon="-2.008382"><ele>514</ele><time>2021-11-13T12:03:02Z</time><name>PT4409</name></trkpt>
<trkpt lat="53.278011" lon="-2.008369"><ele>514</ele><time>2021-11-13T12:03:03Z</time><name>PT4410</name></trkpt>
<trkpt lat="53.277999" lon="-2.008360"><ele>513</ele><time>2021-11-13T12:03:04Z</time><name>PT4411</name></trkpt>
<trkpt lat="53.277984" lon="-2.008352"><ele>513</ele><time>2021-11-13T12:03:05Z</time><name>PT4412</name></trkpt>
<trkpt lat="53.277972" lon="-2.008344"><ele>513</ele><time>2021-11-13T12:03:06Z</time><name>PT4413</name></trkpt>
<trkpt lat="53.277963" lon="-2.008337"><ele>513</ele><time>2021-11-13T12:03:07Z</time><name>PT4414</name></trkpt>
<trkpt lat="53.277951" lon="-2.008328"><ele>514</ele><time>2021-11-13T12:03:08Z</time><name>PT4415</name></trkpt>
<trkpt lat="53.277940" lon="-2.008317"><ele>514</ele><time>2021-11-13T12:03:09Z</time><name>PT4416</name></trkpt>
<trkpt lat="53.277928" lon="-2.008306"><ele>514</ele><time>2021-11-13T12:03:10Z</time><name>PT4417</name></trkpt>
<trkpt lat="53.277919" lon="-2.008299"><ele>514</ele><time>2021-11-13T12:03:11Z</time><name>PT4418</name></trkpt>
<trkpt lat="53.277910" lon="-2.008287"><ele>513</ele><time>2021-11-13T12:03:12Z</time><name>PT4419</name></trkpt>
<trkpt lat="53.277897" lon="-2.008273"><ele>513</ele><time>2021-11-13T12:03:13Z</time><name>PT4420</name></trkpt>
<trkpt lat="53.277884" lon="-2.008263"><ele>513</ele><time>2021-11-13T12:03:14Z</time><name>PT4421</name></trkpt>
<trkpt lat="53.277871" lon="-2.008255"><ele>513</ele><time>2021-11-13T12:03:15Z</time><name>PT4422</name></trkpt>
<trkpt lat="53.277859" lon="-2.008243"><ele>513</ele><time>2021-11-13T12:03:16Z</time><name>PT4423</name></trkpt>
<trkpt lat="53.277848" lon="-2.008233"><ele>513</ele><time>2021-11-13T12:03:17Z</time><name>PT4424</name></trkpt>
<trkpt lat="53.277838" lon="-2.008223"><ele>513</ele><time>2021-11-13T12:03:18Z</time><name>PT4425</name></trkpt>
<trkpt lat="53.277827" lon="-2.008217"><ele>513</ele><time>2021-11-13T12:03:19Z</time><name>PT4426</name></trkpt>
<trkpt lat="53.277816" lon="-2.008206"><ele>513</ele><time>2021-11-13T12:03:20Z</time><name>PT4427</name></trkpt>
<trkpt lat="53.277804" lon="-2.008199"><ele>513</ele><time>2021-11-13T12:03:21Z</time><name>PT4428</name></trkpt>
<trkpt lat="53.277792" lon="-2.008195"><ele>513</ele><time>2021-11-13T12:03:22Z</time><name>PT4429</name></trkpt>
<trkpt lat="53.277777" lon="-2.008187"><ele>513</ele><time>2021-11-13T12:03:23Z</time><name>PT4430</name></trkpt>
<trkpt lat="53.277761" lon="-2.008175"><ele>513</ele><time>2021-11-13T12:03:24Z</time><name>PT4431</name></trkpt>
<trkpt lat="53.277748" lon="-2.008166"><ele>512</ele><time>2021-11-13T12:03:25Z</time><name>PT4432</name></trkpt>
<trkpt lat="53.277737" lon="-2.008161"><ele>512</ele><time>2021-11-13T12:03:26Z</time><name>PT4433</name></trkpt>
<trkpt lat="53.277724" lon="-2.008152"><ele>512</ele><time>2021-11-13T12:03:27Z</time><name>PT4434</name></trkpt>
<trkpt lat="53.277711" lon="-2.008148"><ele>511</ele><time>2021-11-13T12:03:28Z</time><name>PT4435</name></trkpt>
<trkpt lat="53.277698" lon="-2.008145"><ele>510</ele><time>2021-11-13T12:03:29Z</time><name>PT4436</name></trkpt>
<trkpt lat="53.277686" lon="-2.008144"><ele>511</ele><time>2021-11-13T12:03:30Z</time><name>PT4437</name></trkpt>
<trkpt lat="53.277673" lon="-2.008143"><ele>510</ele><time>2021-11-13T12:03:31Z</time><name>PT4438</name></trkpt>
<trkpt lat="53.277662" lon="-2.008141"><ele>510</ele><time>2021-11-13T12:03:32Z</time><name>PT4439</name></trkpt>
<trkpt lat="53.277651" lon="-2.008139"><ele>510</ele><time>2021-11-13T12:03:33Z</time><name>PT4440</name></trkpt>
<trkpt lat="53.277638" lon="-2.008139"><ele>510</ele><time>2021-11-13T12:03:34Z</time><name>PT4441</name></trkpt>
<trkpt lat="53.277625" lon="-2.008142"><ele>510</ele><time>2021-11-13T12:03:35Z</time><name>PT4442</name></trkpt>
<trkpt lat="53.277612" lon="-2.008145"><ele>510</ele><time>2021-11-13T12:03:36Z</time><name>PT4443</name></trkpt>
<trkpt lat="53.277600" lon="-2.008150"><ele>509</ele><time>2021-11-13T12:03:37Z</time><name>PT4444</name></trkpt>
<trkpt lat="53.277587" lon="-2.008151"><ele>509</ele><time>2021-11-13T12:03:38Z</time><name>PT4445</name></trkpt>
<trkpt lat="53.277574" lon="-2.008148"><ele>509</ele><time>2021-11-13T12:03:39Z</time><name>PT4446</name></trkpt>
<trkpt lat="53.277561" lon="-2.008140"><ele>509</ele><time>2021-11-13T12:03:40Z</time><name>PT4447</name></trkpt>
<trkpt lat="53.277547" lon="-2.008133"><ele>508</ele><time>2021-11-13T12:03:41Z</time><name>PT4448</name></trkpt>
<trkpt lat="53.277536" lon="-2.008128"><ele>508</ele><time>2021-11-13T12:03:42Z</time><name>PT4449</name></trkpt>
<trkpt lat="53.277524" lon="-2.008127"><ele>508</ele><time>2021-11-13T12:03:43Z</time><name>PT4450</name></trkpt>
<trkpt lat="53.277512" lon="-2.008121"><ele>508</ele><time>2021-11-13T12:03:44Z</time><name>PT4451</name></trkpt>
<trkpt lat="53.277502" lon="-2.008115"><ele>508</ele><time>2021-11-13T12:03:45Z</time><name>PT4452</name></trkpt>
<trkpt lat="53.277488" lon="-2.008109"><ele>508</ele><time>2021-11-13T12:03:46Z</time><name>PT4453</name></trkpt>
<trkpt lat="53.277476" lon="-2.008104"><ele>508</ele><time>2021-11-13T12:03:47Z</time><name>PT4454</name></trkpt>
<trkpt lat="53.277465" lon="-2.008105"><ele>508</ele><time>2021-11-13T12:03:48Z</time><name>PT4455</name></trkpt>
<trkpt lat="53.277452" lon="-2.008107"><ele>508</ele><time>2021-11-13T12:03:49Z</time><name>PT4456</name></trkpt>
<trkpt lat="53.277439" lon="-2.008108"><ele>508</ele><time>2021-11-13T12:03:50Z</time><name>PT4457</name></trkpt>
<trkpt lat="53.277425" lon="-2.008114"><ele>508</ele><time>2021-11-13T12:03:51Z</time><name>PT4458</name></trkpt>
<trkpt lat="53.277413" lon="-2.008116"><ele>508</ele><time>2021-11-13T12:03:52Z</time><name>PT4459</name></trkpt>
<trkpt lat="53.277402" lon="-2.008113"><ele>508</ele><time>2021-11-13T12:03:53Z</time><name>PT4460</name></trkpt>
<trkpt lat="53.277392" lon="-2.008110"><ele>508</ele><time>2021-11-13T12:03:54Z</time><name>PT4461</name></trkpt>
<trkpt lat="53.277388" lon="-2.008110"><ele>509</ele><time>2021-11-13T12:03:55Z</time><name>PT4462</name></trkpt>
<trkpt lat="53.277388" lon="-2.008110"><ele>509</ele><time>2021-11-13T12:03:56Z</time><name>PT4463</name></trkpt>
<trkpt lat="53.277390" lon="-2.008110"><ele>508</ele><time>2021-11-13T12:03:57Z</time><name>PT4464</name></trkpt>
<trkpt lat="53.277382" lon="-2.008117"><ele>508</ele><time>2021-11-13T12:04:03Z</time><name>PT4465</name></trkpt>
<trkpt lat="53.277374" lon="-2.008115"><ele>509</ele><time>2021-11-13T12:04:04Z</time><name>PT4466</name></trkpt>
<trkpt lat="53.277360" lon="-2.008106"><ele>509</ele><time>2021-11-13T12:04:05Z</time><name>PT4467</name></trkpt>
<trkpt lat="53.277342" lon="-2.008095"><ele>509</ele><time>2021-11-13T12:04:06Z</time><name>PT4468</name></trkpt>
<trkpt lat="53.277329" lon="-2.008093"><ele>508</ele><time>2021-11-13T12:04:07Z</time><name>PT4469</name></trkpt>
<trkpt lat="53.277294" lon="-2.008082"><ele>508</ele><time>2021-11-13T12:04:10Z</time><name>PT4470</name></trkpt>
<trkpt lat="53.277244" lon="-2.008058"><ele>508</ele><time>2021-11-13T12:04:14Z</time><name>PT4471</name></trkpt>
<trkpt lat="53.277191" lon="-2.008036"><ele>507</ele><time>2021-11-13T12:04:18Z</time><name>PT4472</name></trkpt>
<trkpt lat="53.277140" lon="-2.008020"><ele>506</ele><time>2021-11-13T12:04:22Z</time><name>PT4473</name></trkpt>
<trkpt lat="53.277084" lon="-2.008012"><ele>506</ele><time>2021-11-13T12:04:26Z</time><name>PT4474</name></trkpt>
<trkpt lat="53.277028" lon="-2.008002"><ele>508</ele><time>2021-11-13T12:04:30Z</time><name>PT4475</name></trkpt>
<trkpt lat="53.276977" lon="-2.007987"><ele>508</ele><time>2021-11-13T12:04:34Z</time><name>PT4476</name></trkpt>
<trkpt lat="53.276928" lon="-2.007964"><ele>508</ele><time>2021-11-13T12:04:38Z</time><name>PT4477</name></trkpt>
<trkpt lat="53.276877" lon="-2.007939"><ele>507</ele><time>2021-11-13T12:04:42Z</time><name>PT4478</name></trkpt>
<trkpt lat="53.276822" lon="-2.007921"><ele>508</ele><time>2021-11-13T12:04:46Z</time><name>PT4479</name></trkpt>
<trkpt lat="53.276773" lon="-2.007899"><ele>508</ele><time>2021-11-13T12:04:50Z</time><name>PT4480</name></trkpt>
<trkpt lat="53.276725" lon="-2.007872"><ele>509</ele><time>2021-11-13T12:04:54Z</time><name>PT4481</name></trkpt>
<trkpt lat="53.276678" lon="-2.007847"><ele>508</ele><time>2021-11-13T12:04:58Z</time><name>PT4482</name></trkpt>
<trkpt lat="53.276633" lon="-2.007814"><ele>508</ele><time>2021-11-13T12:05:02Z</time><name>PT4483</name></trkpt>
<trkpt lat="53.276583" lon="-2.007780"><ele>507</ele><time>2021-11-13T12:05:06Z</time><name>PT4484</name></trkpt>
<trkpt lat="53.276542" lon="-2.007748"><ele>507</ele><time>2021-11-13T12:05:10Z</time><name>PT4485</name></trkpt>
<trkpt lat="53.276497" lon="-2.007714"><ele>507</ele><time>2021-11-13T12:05:14Z</time><name>PT4486</name></trkpt>
<trkpt lat="53.276448" lon="-2.007690"><ele>507</ele><time>2021-11-13T12:05:18Z</time><name>PT4487</name></trkpt>
<trkpt lat="53.276405" lon="-2.007659"><ele>506</ele><time>2021-11-13T12:05:22Z</time><name>PT4488</name></trkpt>
<trkpt lat="53.276365" lon="-2.007612"><ele>506</ele><time>2021-11-13T12:05:26Z</time><name>PT4489</name></trkpt>
<trkpt lat="53.276317" lon="-2.007574"><ele>507</ele><time>2021-11-13T12:05:30Z</time><name>PT4490</name></trkpt>
<trkpt lat="53.276272" lon="-2.007542"><ele>506</ele><time>2021-11-13T12:05:34Z</time><name>PT4491</name></trkpt>
<trkpt lat="53.276227" lon="-2.007510"><ele>506</ele><time>2021-11-13T12:05:38Z</time><name>PT4492</name></trkpt>
<trkpt lat="53.276181" lon="-2.007464"><ele>506</ele><time>2021-11-13T12:05:42Z</time><name>PT4493</name></trkpt>
<trkpt lat="53.276142" lon="-2.007413"><ele>506</ele><time>2021-11-13T12:05:46Z</time><name>PT4494</name></trkpt>
<trkpt lat="53.276106" lon="-2.007362"><ele>505</ele><time>2021-11-13T12:05:50Z</time><name>PT4495</name></trkpt>
<trkpt lat="53.276062" lon="-2.007322"><ele>505</ele><time>2021-11-13T12:05:54Z</time><name>PT4496</name></trkpt>
<trkpt lat="53.276043" lon="-2.007309"><ele>505</ele><time>2021-11-13T12:05:58Z</time><name>PT4497</name></trkpt>
<trkpt lat="53.276001" lon="-2.007273"><ele>504</ele><time>2021-11-13T12:06:02Z</time><name>PT4498</name></trkpt>
<trkpt lat="53.275962" lon="-2.007229"><ele>504</ele><time>2021-11-13T12:06:06Z</time><name>PT4499</name></trkpt>
<trkpt lat="53.275911" lon="-2.007218"><ele>504</ele><time>2021-11-13T12:06:10Z</time><name>PT4500</name></trkpt>
<trkpt lat="53.275862" lon="-2.007225"><ele>502</ele><time>2021-11-13T12:06:14Z</time><name>PT4501</name></trkpt>
<trkpt lat="53.275812" lon="-2.007213"><ele>503</ele><time>2021-11-13T12:06:18Z</time><name>PT4502</name></trkpt>
<trkpt lat="53.275768" lon="-2.007211"><ele>502</ele><time>2021-11-13T12:06:22Z</time><name>PT4503</name></trkpt>
<trkpt lat="53.275718" lon="-2.007212"><ele>500</ele><time>2021-11-13T12:06:26Z</time><name>PT4504</name></trkpt>
<trkpt lat="53.275670" lon="-2.007211"><ele>500</ele><time>2021-11-13T12:06:30Z</time><name>PT4505</name></trkpt>
<trkpt lat="53.275624" lon="-2.007200"><ele>500</ele><time>2021-11-13T12:06:34Z</time><name>PT4506</name></trkpt>
<trkpt lat="53.275577" lon="-2.007198"><ele>501</ele><time>2021-11-13T12:06:38Z</time><name>PT4507</name></trkpt>
<trkpt lat="53.275531" lon="-2.007195"><ele>501</ele><time>2021-11-13T12:06:42Z</time><name>PT4508</name></trkpt>
<trkpt lat="53.275482" lon="-2.007197"><ele>501</ele><time>2021-11-13T12:06:46Z</time><name>PT4509</name></trkpt>
<trkpt lat="53.275431" lon="-2.007195"><ele>501</ele><time>2021-11-13T12:06:50Z</time><name>PT4510</name></trkpt>
<trkpt lat="53.275379" lon="-2.007189"><ele>502</ele><time>2021-11-13T12:06:54Z</time><name>PT4511</name></trkpt>
<trkpt lat="53.275324" lon="-2.007183"><ele>503</ele><time>2021-11-13T12:06:58Z</time><name>PT4512</name></trkpt>
<trkpt lat="53.275277" lon="-2.007178"><ele>502</ele><time>2021-11-13T12:07:02Z</time><name>PT4513</name></trkpt>
<trkpt lat="53.275231" lon="-2.007173"><ele>502</ele><time>2021-11-13T12:07:06Z</time><name>PT4514</name></trkpt>
<trkpt lat="53.275186" lon="-2.007166"><ele>503</ele><time>2021-11-13T12:07:10Z</time><name>PT4515</name></trkpt>
<trkpt lat="53.275143" lon="-2.007153"><ele>503</ele><time>2021-11-13T12:07:14Z</time><name>PT4516</name></trkpt>
<trkpt lat="53.275101" lon="-2.007146"><ele>502</ele><time>2021-11-13T12:07:18Z</time><name>PT4517</name></trkpt>
<trkpt lat="53.275057" lon="-2.007165"><ele>502</ele><time>2021-11-13T12:07:22Z</time><name>PT4518</name></trkpt>
<trkpt lat="53.275019" lon="-2.007153"><ele>501</ele><time>2021-11-13T12:07:26Z</time><name>PT4519</name></trkpt>
<trkpt lat="53.274982" lon="-2.007137"><ele>501</ele><time>2021-11-13T12:07:30Z</time><name>PT4520</name></trkpt>
<trkpt lat="53.274934" lon="-2.007141"><ele>501</ele><time>2021-11-13T12:07:34Z</time><name>PT4521</name></trkpt>
<trkpt lat="53.274884" lon="-2.007130"><ele>502</ele><time>2021-11-13T12:07:38Z</time><name>PT4522</name></trkpt>
<trkpt lat="53.274836" lon="-2.007112"><ele>503</ele><time>2021-11-13T12:07:42Z</time><name>PT4523</name></trkpt>
<trkpt lat="53.274793" lon="-2.007091"><ele>502</ele><time>2021-11-13T12:07:46Z</time><name>PT4524</name></trkpt>
<trkpt lat="53.274744" lon="-2.007072"><ele>502</ele><time>2021-11-13T12:07:50Z</time><name>PT4525</name></trkpt>
<trkpt lat="53.274706" lon="-2.007048"><ele>501</ele><time>2021-11-13T12:07:54Z</time><name>PT4526</name></trkpt>
<trkpt lat="53.274660" lon="-2.007031"><ele>501</ele><time>2021-11-13T12:07:58Z</time><name>PT4527</name></trkpt>
<trkpt lat="53.274617" lon="-2.007027"><ele>500</ele><time>2021-11-13T12:08:02Z</time><name>PT4528</name></trkpt>
<trkpt lat="53.274571" lon="-2.007018"><ele>500</ele><time>2021-11-13T12:08:06Z</time><name>PT4529</name></trkpt>
<trkpt lat="53.274519" lon="-2.007003"><ele>501</ele><time>2021-11-13T12:08:10Z</time><name>PT4530</name></trkpt>
<trkpt lat="53.274475" lon="-2.006998"><ele>501</ele><time>2021-11-13T12:08:14Z</time><name>PT4531</name></trkpt>
<trkpt lat="53.274427" lon="-2.006991"><ele>500</ele><time>2021-11-13T12:08:18Z</time><name>PT4532</name></trkpt>
<trkpt lat="53.274385" lon="-2.006991"><ele>500</ele><time>2021-11-13T12:08:22Z</time><name>PT4533</name></trkpt>
<trkpt lat="53.274346" lon="-2.006998"><ele>500</ele><time>2021-11-13T12:08:26Z</time><name>PT4534</name></trkpt>
<trkpt lat="53.274304" lon="-2.007002"><ele>499</ele><time>2021-11-13T12:08:30Z</time><name>PT4535</name></trkpt>
<trkpt lat="53.274264" lon="-2.006994"><ele>498</ele><time>2021-11-13T12:08:34Z</time><name>PT4536</name></trkpt>
<trkpt lat="53.274228" lon="-2.006980"><ele>498</ele><time>2021-11-13T12:08:38Z</time><name>PT4537</name></trkpt>
<trkpt lat="53.274182" lon="-2.006973"><ele>497</ele><time>2021-11-13T12:08:42Z</time><name>PT4538</name></trkpt>
<trkpt lat="53.274137" lon="-2.006961"><ele>497</ele><time>2021-11-13T12:08:46Z</time><name>PT4539</name></trkpt>
<trkpt lat="53.274099" lon="-2.006974"><ele>496</ele><time>2021-11-13T12:08:50Z</time><name>PT4540</name></trkpt>
<trkpt lat="53.274090" lon="-2.006953"><ele>495</ele><time>2021-11-13T12:08:54Z</time><name>PT4541</name></trkpt>
<trkpt lat="53.274051" lon="-2.006950"><ele>495</ele><time>2021-11-13T12:08:58Z</time><name>PT4542</name></trkpt>
<trkpt lat="53.274004" lon="-2.006953"><ele>496</ele><time>2021-11-13T12:09:02Z</time><name>PT4543</name></trkpt>
<trkpt lat="53.273962" lon="-2.006944"><ele>495</ele><time>2021-11-13T12:09:06Z</time><name>PT4544</name></trkpt>
<trkpt lat="53.273922" lon="-2.006935"><ele>495</ele><time>2021-11-13T12:09:10Z</time><name>PT4545</name></trkpt>
<trkpt lat="53.273880" lon="-2.006919"><ele>495</ele><time>2021-11-13T12:09:14Z</time><name>PT4546</name></trkpt>
<trkpt lat="53.273830" lon="-2.006914"><ele>495</ele><time>2021-11-13T12:09:18Z</time><name>PT4547</name></trkpt>
<trkpt lat="53.273783" lon="-2.006920"><ele>495</ele><time>2021-11-13T12:09:22Z</time><name>PT4548</name></trkpt>
<trkpt lat="53.273771" lon="-2.006923"><ele>495</ele><time>2021-11-13T12:09:23Z</time><name>PT4549</name></trkpt>
<trkpt lat="53.273758" lon="-2.006925"><ele>495</ele><time>2021-11-13T12:09:24Z</time><name>PT4550</name></trkpt>
<trkpt lat="53.273747" lon="-2.006924"><ele>495</ele><time>2021-11-13T12:09:25Z</time><name>PT4551</name></trkpt>
<trkpt lat="53.273734" lon="-2.006924"><ele>495</ele><time>2021-11-13T12:09:26Z</time><name>PT4552</name></trkpt>
<trkpt lat="53.273723" lon="-2.006920"><ele>495</ele><time>2021-11-13T12:09:27Z</time><name>PT4553</name></trkpt>
<trkpt lat="53.273712" lon="-2.006916"><ele>496</ele><time>2021-11-13T12:09:28Z</time><name>PT4554</name></trkpt>
<trkpt lat="53.273700" lon="-2.006911"><ele>496</ele><time>2021-11-13T12:09:29Z</time><name>PT4555</name></trkpt>
<trkpt lat="53.273691" lon="-2.006906"><ele>496</ele><time>2021-11-13T12:09:30Z</time><name>PT4556</name></trkpt>
<trkpt lat="53.273682" lon="-2.006900"><ele>496</ele><time>2021-11-13T12:09:31Z</time><name>PT4557</name></trkpt>
<trkpt lat="53.273672" lon="-2.006892"><ele>496</ele><time>2021-11-13T12:09:32Z</time><name>PT4558</name></trkpt>
<trkpt lat="53.273662" lon="-2.006888"><ele>495</ele><time>2021-11-13T12:09:33Z</time><name>PT4559</name></trkpt>
<trkpt lat="53.273651" lon="-2.006882"><ele>495</ele><time>2021-11-13T12:09:34Z</time><name>PT4560</name></trkpt>
<trkpt lat="53.273636" lon="-2.006879"><ele>495</ele><time>2021-11-13T12:09:35Z</time><name>PT4561</name></trkpt>
<trkpt lat="53.273626" lon="-2.006873"><ele>496</ele><time>2021-11-13T12:09:36Z</time><name>PT4562</name></trkpt>
<trkpt lat="53.273616" lon="-2.006870"><ele>495</ele><time>2021-11-13T12:09:37Z</time><name>PT4563</name></trkpt>
<trkpt lat="53.273605" lon="-2.006868"><ele>495</ele><time>2021-11-13T12:09:38Z</time><name>PT4564</name></trkpt>
<trkpt lat="53.273594" lon="-2.006867"><ele>495</ele><time>2021-11-13T12:09:39Z</time><name>PT4565</name></trkpt>
<trkpt lat="53.273581" lon="-2.006868"><ele>495</ele><time>2021-11-13T12:09:40Z</time><name>PT4566</name></trkpt>
<trkpt lat="53.273570" lon="-2.006868"><ele>495</ele><time>2021-11-13T12:09:41Z</time><name>PT4567</name></trkpt>
<trkpt lat="53.273558" lon="-2.006867"><ele>495</ele><time>2021-11-13T12:09:42Z</time><name>PT4568</name></trkpt>
<trkpt lat="53.273543" lon="-2.006868"><ele>495</ele><time>2021-11-13T12:09:43Z</time><name>PT4569</name></trkpt>
<trkpt lat="53.273532" lon="-2.006870"><ele>495</ele><time>2021-11-13T12:09:44Z</time><name>PT4570</name></trkpt>
<trkpt lat="53.273520" lon="-2.006866"><ele>495</ele><time>2021-11-13T12:09:45Z</time><name>PT4571</name></trkpt>
<trkpt lat="53.273510" lon="-2.006862"><ele>495</ele><time>2021-11-13T12:09:46Z</time><name>PT4572</name></trkpt>
<trkpt lat="53.273498" lon="-2.006856"><ele>496</ele><time>2021-11-13T12:09:47Z</time><name>PT4573</name></trkpt>
<trkpt lat="53.273485" lon="-2.006853"><ele>496</ele><time>2021-11-13T12:09:48Z</time><name>PT4574</name></trkpt>
<trkpt lat="53.273473" lon="-2.006851"><ele>496</ele><time>2021-11-13T12:09:49Z</time><name>PT4575</name></trkpt>
<trkpt lat="53.273461" lon="-2.006849"><ele>496</ele><time>2021-11-13T12:09:50Z</time><name>PT4576</name></trkpt>
<trkpt lat="53.273449" lon="-2.006845"><ele>495</ele><time>2021-11-13T12:09:51Z</time><name>PT4577</name></trkpt>
<trkpt lat="53.273440" lon="-2.006841"><ele>496</ele><time>2021-11-13T12:09:52Z</time><name>PT4578</name></trkpt>
<trkpt lat="53.273432" lon="-2.006834"><ele>496</ele><time>2021-11-13T12:09:53Z</time><name>PT4579</name></trkpt>
<trkpt lat="53.273418" lon="-2.006829"><ele>496</ele><time>2021-11-13T12:09:54Z</time><name>PT4580</name></trkpt>
<trkpt lat="53.273407" lon="-2.006826"><ele>496</ele><time>2021-11-13T12:09:55Z</time><name>PT4581</name></trkpt>
<trkpt lat="53.273396" lon="-2.006824"><ele>496</ele><time>2021-11-13T12:09:56Z</time><name>PT4582</name></trkpt>
<trkpt lat="53.273384" lon="-2.006820"><ele>495</ele><time>2021-11-13T12:09:57Z</time><name>PT4583</name></trkpt>
<trkpt lat="53.273373" lon="-2.006816"><ele>495</ele><time>2021-11-13T12:09:58Z</time><name>PT4584</name></trkpt>
<trkpt lat="53.273362" lon="-2.006814"><ele>495</ele><time>2021-11-13T12:09:59Z</time><name>PT4585</name></trkpt>
<trkpt lat="53.273349" lon="-2.006810"><ele>495</ele><time>2021-11-13T12:10:00Z</time><name>PT4586</name></trkpt>
<trkpt lat="53.273338" lon="-2.006808"><ele>495</ele><time>2021-11-13T12:10:01Z</time><name>PT4587</name></trkpt>
<trkpt lat="53.273326" lon="-2.006806"><ele>495</ele><time>2021-11-13T12:10:02Z</time><name>PT4588</name></trkpt>
<trkpt lat="53.273314" lon="-2.006802"><ele>495</ele><time>2021-11-13T12:10:03Z</time><name>PT4589</name></trkpt>
<trkpt lat="53.273302" lon="-2.006797"><ele>495</ele><time>2021-11-13T12:10:04Z</time><name>PT4590</name></trkpt>
<trkpt lat="53.273293" lon="-2.006792"><ele>495</ele><time>2021-11-13T12:10:05Z</time><name>PT4591</name></trkpt>
<trkpt lat="53.273282" lon="-2.006787"><ele>495</ele><time>2021-11-13T12:10:06Z</time><name>PT4592</name></trkpt>
<trkpt lat="53.273269" lon="-2.006781"><ele>494</ele><time>2021-11-13T12:10:07Z</time><name>PT4593</name></trkpt>
<trkpt lat="53.273259" lon="-2.006778"><ele>494</ele><time>2021-11-13T12:10:08Z</time><name>PT4594</name></trkpt>
<trkpt lat="53.273248" lon="-2.006777"><ele>494</ele><time>2021-11-13T12:10:09Z</time><name>PT4595</name></trkpt>
<trkpt lat="53.273236" lon="-2.006775"><ele>494</ele><time>2021-11-13T12:10:10Z</time><name>PT4596</name></trkpt>
<trkpt lat="53.273226" lon="-2.006772"><ele>494</ele><time>2021-11-13T12:10:11Z</time><name>PT4597</name></trkpt>
<trkpt lat="53.273215" lon="-2.006770"><ele>494</ele><time>2021-11-13T12:10:12Z</time><name>PT4598</name></trkpt>
<trkpt lat="53.273200" lon="-2.006766"><ele>493</ele><time>2021-11-13T12:10:13Z</time><name>PT4599</name></trkpt>
<trkpt lat="53.273187" lon="-2.006761"><ele>493</ele><time>2021-11-13T12:10:14Z</time><name>PT4600</name></trkpt>
<trkpt lat="53.273176" lon="-2.006757"><ele>493</ele><time>2021-11-13T12:10:15Z</time><name>PT4601</name></trkpt>
<trkpt lat="53.273166" lon="-2.006756"><ele>493</ele><time>2021-11-13T12:10:16Z</time><name>PT4602</name></trkpt>
<trkpt lat="53.273152" lon="-2.006755"><ele>493</ele><time>2021-11-13T12:10:17Z</time><name>PT4603</name></trkpt>
<trkpt lat="53.273141" lon="-2.006755"><ele>493</ele><time>2021-11-13T12:10:18Z</time><name>PT4604</name></trkpt>
<trkpt lat="53.273130" lon="-2.006754"><ele>493</ele><time>2021-11-13T12:10:19Z</time><name>PT4605</name></trkpt>
<trkpt lat="53.273118" lon="-2.006754"><ele>494</ele><time>2021-11-13T12:10:20Z</time><name>PT4606</name></trkpt>
<trkpt lat="53.273104" lon="-2.006753"><ele>493</ele><time>2021-11-13T12:10:21Z</time><name>PT4607</name></trkpt>
<trkpt lat="53.273092" lon="-2.006752"><ele>493</ele><time>2021-11-13T12:10:22Z</time><name>PT4608</name></trkpt>
<trkpt lat="53.273080" lon="-2.006752"><ele>493</ele><time>2021-11-13T12:10:23Z</time><name>PT4609</name></trkpt>
<trkpt lat="53.273067" lon="-2.006751"><ele>493</ele><time>2021-11-13T12:10:24Z</time><name>PT4610</name></trkpt>
<trkpt lat="53.273056" lon="-2.006749"><ele>493</ele><time>2021-11-13T12:10:25Z</time><name>PT4611</name></trkpt>
<trkpt lat="53.273045" lon="-2.006749"><ele>493</ele><time>2021-11-13T12:10:26Z</time><name>PT4612</name></trkpt>
<trkpt lat="53.273030" lon="-2.006749"><ele>493</ele><time>2021-11-13T12:10:27Z</time><name>PT4613</name></trkpt>
<trkpt lat="53.273019" lon="-2.006748"><ele>493</ele><time>2021-11-13T12:10:28Z</time><name>PT4614</name></trkpt>
<trkpt lat="53.273008" lon="-2.006748"><ele>493</ele><time>2021-11-13T12:10:29Z</time><name>PT4615</name></trkpt>
<trkpt lat="53.272996" lon="-2.006747"><ele>493</ele><time>2021-11-13T12:10:30Z</time><name>PT4616</name></trkpt>
<trkpt lat="53.272983" lon="-2.006749"><ele>493</ele><time>2021-11-13T12:10:31Z</time><name>PT4617</name></trkpt>
<trkpt lat="53.272971" lon="-2.006753"><ele>493</ele><time>2021-11-13T12:10:32Z</time><name>PT4618</name></trkpt>
<trkpt lat="53.272960" lon="-2.006758"><ele>493</ele><time>2021-11-13T12:10:33Z</time><name>PT4619</name></trkpt>
<trkpt lat="53.272947" lon="-2.006761"><ele>493</ele><time>2021-11-13T12:10:34Z</time><name>PT4620</name></trkpt>
<trkpt lat="53.272936" lon="-2.006764"><ele>493</ele><time>2021-11-13T12:10:35Z</time><name>PT4621</name></trkpt>
<trkpt lat="53.272923" lon="-2.006764"><ele>493</ele><time>2021-11-13T12:10:36Z</time><name>PT4622</name></trkpt>
<trkpt lat="53.272909" lon="-2.006765"><ele>493</ele><time>2021-11-13T12:10:37Z</time><name>PT4623</name></trkpt>
<trkpt lat="53.272896" lon="-2.006766"><ele>493</ele><time>2021-11-13T12:10:38Z</time><name>PT4624</name></trkpt>
<trkpt lat="53.272886" lon="-2.006766"><ele>494</ele><time>2021-11-13T12:10:39Z</time><name>PT4625</name></trkpt>
<trkpt lat="53.272875" lon="-2.006764"><ele>494</ele><time>2021-11-13T12:10:40Z</time><name>PT4626</name></trkpt>
<trkpt lat="53.272860" lon="-2.006765"><ele>494</ele><time>2021-11-13T12:10:41Z</time><name>PT4627</name></trkpt>
<trkpt lat="53.272848" lon="-2.006764"><ele>493</ele><time>2021-11-13T12:10:42Z</time><name>PT4628</name></trkpt>
<trkpt lat="53.272837" lon="-2.006762"><ele>493</ele><time>2021-11-13T12:10:43Z</time><name>PT4629</name></trkpt>
<trkpt lat="53.272824" lon="-2.006761"><ele>493</ele><time>2021-11-13T12:10:44Z</time><name>PT4630</name></trkpt>
<trkpt lat="53.272813" lon="-2.006759"><ele>493</ele><time>2021-11-13T12:10:45Z</time><name>PT4631</name></trkpt>
<trkpt lat="53.272800" lon="-2.006757"><ele>493</ele><time>2021-11-13T12:10:46Z</time><name>PT4632</name></trkpt>
<trkpt lat="53.272787" lon="-2.006755"><ele>493</ele><time>2021-11-13T12:10:47Z</time><name>PT4633</name></trkpt>
<trkpt lat="53.272776" lon="-2.006755"><ele>492</ele><time>2021-11-13T12:10:48Z</time><name>PT4634</name></trkpt>
<trkpt lat="53.272762" lon="-2.006754"><ele>492</ele><time>2021-11-13T12:10:49Z</time><name>PT4635</name></trkpt>
<trkpt lat="53.272750" lon="-2.006752"><ele>492</ele><time>2021-11-13T12:10:50Z</time><name>PT4636</name></trkpt>
<trkpt lat="53.272739" lon="-2.006751"><ele>492</ele><time>2021-11-13T12:10:51Z</time><name>PT4637</name></trkpt>
<trkpt lat="53.272728" lon="-2.006750"><ele>492</ele><time>2021-11-13T12:10:52Z</time><name>PT4638</name></trkpt>
<trkpt lat="53.272714" lon="-2.006748"><ele>492</ele><time>2021-11-13T12:10:53Z</time><name>PT4639</name></trkpt>
<trkpt lat="53.272702" lon="-2.006747"><ele>492</ele><time>2021-11-13T12:10:54Z</time><name>PT4640</name></trkpt>
<trkpt lat="53.272689" lon="-2.006748"><ele>492</ele><time>2021-11-13T12:10:55Z</time><name>PT4641</name></trkpt>
<trkpt lat="53.272675" lon="-2.006747"><ele>492</ele><time>2021-11-13T12:10:56Z</time><name>PT4642</name></trkpt>
<trkpt lat="53.272663" lon="-2.006744"><ele>492</ele><time>2021-11-13T12:10:57Z</time><name>PT4643</name></trkpt>
<trkpt lat="53.272652" lon="-2.006741"><ele>491</ele><time>2021-11-13T12:10:58Z</time><name>PT4644</name></trkpt>
<trkpt lat="53.272640" lon="-2.006735"><ele>491</ele><time>2021-11-13T12:10:59Z</time><name>PT4645</name></trkpt>
<trkpt lat="53.272625" lon="-2.006730"><ele>491</ele><time>2021-11-13T12:11:00Z</time><name>PT4646</name></trkpt>
<trkpt lat="53.272613" lon="-2.006727"><ele>491</ele><time>2021-11-13T12:11:01Z</time><name>PT4647</name></trkpt>
<trkpt lat="53.272602" lon="-2.006727"><ele>491</ele><time>2021-11-13T12:11:02Z</time><name>PT4648</name></trkpt>
<trkpt lat="53.272588" lon="-2.006728"><ele>491</ele><time>2021-11-13T12:11:03Z</time><name>PT4649</name></trkpt>
<trkpt lat="53.272577" lon="-2.006725"><ele>491</ele><time>2021-11-13T12:11:04Z</time><name>PT4650</name></trkpt>
<trkpt lat="53.272567" lon="-2.006723"><ele>491</ele><time>2021-11-13T12:11:05Z</time><name>PT4651</name></trkpt>
<trkpt lat="53.272555" lon="-2.006721"><ele>491</ele><time>2021-11-13T12:11:06Z</time><name>PT4652</name></trkpt>
<trkpt lat="53.272545" lon="-2.006718"><ele>491</ele><time>2021-11-13T12:11:07Z</time><name>PT4653</name></trkpt>
<trkpt lat="53.272533" lon="-2.006713"><ele>491</ele><time>2021-11-13T12:11:08Z</time><name>PT4654</name></trkpt>
<trkpt lat="53.272521" lon="-2.006709"><ele>491</ele><time>2021-11-13T12:11:09Z</time><name>PT4655</name></trkpt>
<trkpt lat="53.272509" lon="-2.006705"><ele>491</ele><time>2021-11-13T12:11:10Z</time><name>PT4656</name></trkpt>
<trkpt lat="53.272499" lon="-2.006702"><ele>491</ele><time>2021-11-13T12:11:11Z</time><name>PT4657</name></trkpt>
<trkpt lat="53.272488" lon="-2.006698"><ele>491</ele><time>2021-11-13T12:11:12Z</time><name>PT4658</name></trkpt>
<trkpt lat="53.272475" lon="-2.006694"><ele>491</ele><time>2021-11-13T12:11:13Z</time><name>PT4659</name></trkpt>
<trkpt lat="53.272462" lon="-2.006689"><ele>491</ele><time>2021-11-13T12:11:14Z</time><name>PT4660</name></trkpt>
<trkpt lat="53.272451" lon="-2.006687"><ele>491</ele><time>2021-11-13T12:11:15Z</time><name>PT4661</name></trkpt>
<trkpt lat="53.272438" lon="-2.006684"><ele>491</ele><time>2021-11-13T12:11:16Z</time><name>PT4662</name></trkpt>
<trkpt lat="53.272426" lon="-2.006680"><ele>490</ele><time>2021-11-13T12:11:17Z</time><name>PT4663</name></trkpt>
<trkpt lat="53.272413" lon="-2.006675"><ele>491</ele><time>2021-11-13T12:11:18Z</time><name>PT4664</name></trkpt>
<trkpt lat="53.272400" lon="-2.006669"><ele>491</ele><time>2021-11-13T12:11:19Z</time><name>PT4665</name></trkpt>
<trkpt lat="53.272388" lon="-2.006667"><ele>491</ele><time>2021-11-13T12:11:20Z</time><name>PT4666</name></trkpt>
<trkpt lat="53.272375" lon="-2.006667"><ele>491</ele><time>2021-11-13T12:11:21Z</time><name>PT4667</name></trkpt>
<trkpt lat="53.272344" lon="-2.006664"><ele>491</ele><time>2021-11-13T12:11:24Z</time><name>PT4668</name></trkpt>
<trkpt lat="53.272301" lon="-2.006656"><ele>490</ele><time>2021-11-13T12:11:28Z</time><name>PT4669</name></trkpt>
<trkpt lat="53.272258" lon="-2.006647"><ele>491</ele><time>2021-11-13T12:11:32Z</time><name>PT4670</name></trkpt>
<trkpt lat="53.272213" lon="-2.006640"><ele>491</ele><time>2021-11-13T12:11:36Z</time><name>PT4671</name></trkpt>
<trkpt lat="53.272163" lon="-2.006642"><ele>491</ele><time>2021-11-13T12:11:40Z</time><name>PT4672</name></trkpt>
<trkpt lat="53.272113" lon="-2.006631"><ele>491</ele><time>2021-11-13T12:11:44Z</time><name>PT4673</name></trkpt>
<trkpt lat="53.272069" lon="-2.006619"><ele>492</ele><time>2021-11-13T12:11:48Z</time><name>PT4674</name></trkpt>
<trkpt lat="53.272023" lon="-2.006606"><ele>491</ele><time>2021-11-13T12:11:52Z</time><name>PT4675</name></trkpt>
<trkpt lat="53.271975" lon="-2.006601"><ele>492</ele><time>2021-11-13T12:11:56Z</time><name>PT4676</name></trkpt>
<trkpt lat="53.271927" lon="-2.006595"><ele>491</ele><time>2021-11-13T12:12:00Z</time><name>PT4677</name></trkpt>
<trkpt lat="53.271879" lon="-2.006579"><ele>491</ele><time>2021-11-13T12:12:04Z</time><name>PT4678</name></trkpt>
<trkpt lat="53.271833" lon="-2.006555"><ele>492</ele><time>2021-11-13T12:12:08Z</time><name>PT4679</name></trkpt>
<trkpt lat="53.271793" lon="-2.006529"><ele>491</ele><time>2021-11-13T12:12:12Z</time><name>PT4680</name></trkpt>
<trkpt lat="53.271752" lon="-2.006498"><ele>491</ele><time>2021-11-13T12:12:16Z</time><name>PT4681</name></trkpt>
<trkpt lat="53.271729" lon="-2.006455"><ele>491</ele><time>2021-11-13T12:12:20Z</time><name>PT4682</name></trkpt>
<trkpt lat="53.271692" lon="-2.006420"><ele>491</ele><time>2021-11-13T12:12:24Z</time><name>PT4683</name></trkpt>
<trkpt lat="53.271651" lon="-2.006403"><ele>491</ele><time>2021-11-13T12:12:28Z</time><name>PT4684</name></trkpt>
<trkpt lat="53.271611" lon="-2.006377"><ele>492</ele><time>2021-11-13T12:12:32Z</time><name>PT4685</name></trkpt>
<trkpt lat="53.271576" lon="-2.006334"><ele>491</ele><time>2021-11-13T12:12:36Z</time><name>PT4686</name></trkpt>
<trkpt lat="53.271554" lon="-2.006275"><ele>491</ele><time>2021-11-13T12:12:40Z</time><name>PT4687</name></trkpt>
<trkpt lat="53.271529" lon="-2.006238"><ele>491</ele><time>2021-11-13T12:12:44Z</time><name>PT4688</name></trkpt>
<trkpt lat="53.271486" lon="-2.006208"><ele>491</ele><time>2021-11-13T12:12:48Z</time><name>PT4689</name></trkpt>
<trkpt lat="53.271449" lon="-2.006166"><ele>490</ele><time>2021-11-13T12:12:52Z</time><name>PT4690</name></trkpt>
<trkpt lat="53.271410" lon="-2.006147"><ele>491</ele><time>2021-11-13T12:12:56Z</time><name>PT4691</name></trkpt>
<trkpt lat="53.271378" lon="-2.006132"><ele>491</ele><time>2021-11-13T12:12:59Z</time><name>PT4692</name></trkpt>
<trkpt lat="53.271368" lon="-2.006124"><ele>491</ele><time>2021-11-13T12:13:00Z</time><name>PT4693</name></trkpt>
<trkpt lat="53.271357" lon="-2.006120"><ele>491</ele><time>2021-11-13T12:13:01Z</time><name>PT4694</name></trkpt>
<trkpt lat="53.271345" lon="-2.006116"><ele>491</ele><time>2021-11-13T12:13:02Z</time><name>PT4695</name></trkpt>
<trkpt lat="53.271333" lon="-2.006111"><ele>491</ele><time>2021-11-13T12:13:03Z</time><name>PT4696</name></trkpt>
<trkpt lat="53.271325" lon="-2.006107"><ele>491</ele><time>2021-11-13T12:13:04Z</time><name>PT4697</name></trkpt>
<trkpt lat="53.271315" lon="-2.006105"><ele>491</ele><time>2021-11-13T12:13:05Z</time><name>PT4698</name></trkpt>
<trkpt lat="53.271305" lon="-2.006102"><ele>491</ele><time>2021-11-13T12:13:06Z</time><name>PT4699</name></trkpt>
<trkpt lat="53.271296" lon="-2.006102"><ele>491</ele><time>2021-11-13T12:13:07Z</time><name>PT4700</name></trkpt>
<trkpt lat="53.271286" lon="-2.006096"><ele>492</ele><time>2021-11-13T12:13:08Z</time><name>PT4701</name></trkpt>
<trkpt lat="53.271272" lon="-2.006090"><ele>492</ele><time>2021-11-13T12:13:09Z</time><name>PT4702</name></trkpt>
<trkpt lat="53.271260" lon="-2.006086"><ele>492</ele><time>2021-11-13T12:13:10Z</time><name>PT4703</name></trkpt>
<trkpt lat="53.271251" lon="-2.006085"><ele>492</ele><time>2021-11-13T12:13:11Z</time><name>PT4704</name></trkpt>
<trkpt lat="53.271240" lon="-2.006084"><ele>491</ele><time>2021-11-13T12:13:12Z</time><name>PT4705</name></trkpt>
<trkpt lat="53.271235" lon="-2.006080"><ele>491</ele><time>2021-11-13T12:13:13Z</time><name>PT4706</name></trkpt>
<trkpt lat="53.271235" lon="-2.006078"><ele>491</ele><time>2021-11-13T12:13:14Z</time><name>PT4707</name></trkpt>
<trkpt lat="53.271236" lon="-2.006075"><ele>491</ele><time>2021-11-13T12:13:15Z</time><name>PT4708</name></trkpt>
<trkpt lat="53.271233" lon="-2.006073"><ele>491</ele><time>2021-11-13T12:13:16Z</time><name>PT4709</name></trkpt>
<trkpt lat="53.271226" lon="-2.006072"><ele>491</ele><time>2021-11-13T12:13:17Z</time><name>PT4710</name></trkpt>
<trkpt lat="53.271215" lon="-2.006069"><ele>490</ele><time>2021-11-13T12:13:18Z</time><name>PT4711</name></trkpt>
<trkpt lat="53.271204" lon="-2.006066"><ele>490</ele><time>2021-11-13T12:13:19Z</time><name>PT4712</name></trkpt>
<trkpt lat="53.271194" lon="-2.006063"><ele>490</ele><time>2021-11-13T12:13:20Z</time><name>PT4713</name></trkpt>
<trkpt lat="53.271186" lon="-2.006058"><ele>490</ele><time>2021-11-13T12:13:21Z</time><name>PT4714</name></trkpt>
<trkpt lat="53.271175" lon="-2.006052"><ele>490</ele><time>2021-11-13T12:13:22Z</time><name>PT4715</name></trkpt>
<trkpt lat="53.271166" lon="-2.006047"><ele>489</ele><time>2021-11-13T12:13:23Z</time><name>PT4716</name></trkpt>
<trkpt lat="53.271156" lon="-2.006043"><ele>489</ele><time>2021-11-13T12:13:24Z</time><name>PT4717</name></trkpt>
<trkpt lat="53.271141" lon="-2.006037"><ele>490</ele><time>2021-11-13T12:13:25Z</time><name>PT4718</name></trkpt>
<trkpt lat="53.271133" lon="-2.006035"><ele>489</ele><time>2021-11-13T12:13:26Z</time><name>PT4719</name></trkpt>
<trkpt lat="53.271125" lon="-2.006029"><ele>488</ele><time>2021-11-13T12:13:27Z</time><name>PT4720</name></trkpt>
<trkpt lat="53.271113" lon="-2.006022"><ele>489</ele><time>2021-11-13T12:13:28Z</time><name>PT4721</name></trkpt>
<trkpt lat="53.271101" lon="-2.006017"><ele>489</ele><time>2021-11-13T12:13:29Z</time><name>PT4722</name></trkpt>
<trkpt lat="53.271087" lon="-2.006011"><ele>489</ele><time>2021-11-13T12:13:30Z</time><name>PT4723</name></trkpt>
<trkpt lat="53.271075" lon="-2.006006"><ele>489</ele><time>2021-11-13T12:13:31Z</time><name>PT4724</name></trkpt>
<trkpt lat="53.271067" lon="-2.006000"><ele>489</ele><time>2021-11-13T12:13:32Z</time><name>PT4725</name></trkpt>
<trkpt lat="53.271056" lon="-2.005992"><ele>488</ele><time>2021-11-13T12:13:33Z</time><name>PT4726</name></trkpt>
<trkpt lat="53.271043" lon="-2.005987"><ele>488</ele><time>2021-11-13T12:13:34Z</time><name>PT4727</name></trkpt>
<trkpt lat="53.271030" lon="-2.005985"><ele>489</ele><time>2021-11-13T12:13:35Z</time><name>PT4728</name></trkpt>
<trkpt lat="53.271018" lon="-2.005979"><ele>489</ele><time>2021-11-13T12:13:36Z</time><name>PT4729</name></trkpt>
<trkpt lat="53.271009" lon="-2.005973"><ele>489</ele><time>2021-11-13T12:13:37Z</time><name>PT4730</name></trkpt>
<trkpt lat="53.270998" lon="-2.005968"><ele>488</ele><time>2021-11-13T12:13:38Z</time><name>PT4731</name></trkpt>
<trkpt lat="53.270988" lon="-2.005965"><ele>488</ele><time>2021-11-13T12:13:39Z</time><name>PT4732</name></trkpt>
<trkpt lat="53.270978" lon="-2.005963"><ele>489</ele><time>2021-11-13T12:13:40Z</time><name>PT4733</name></trkpt>
<trkpt lat="53.270968" lon="-2.005963"><ele>488</ele><time>2021-11-13T12:13:41Z</time><name>PT4734</name></trkpt>
<trkpt lat="53.270960" lon="-2.005963"><ele>487</ele><time>2021-11-13T12:13:42Z</time><name>PT4735</name></trkpt>
<trkpt lat="53.270951" lon="-2.005961"><ele>487</ele><time>2021-11-13T12:13:43Z</time><name>PT4736</name></trkpt>
<trkpt lat="53.270940" lon="-2.005956"><ele>487</ele><time>2021-11-13T12:13:44Z</time><name>PT4737</name></trkpt>
<trkpt lat="53.270928" lon="-2.005953"><ele>487</ele><time>2021-11-13T12:13:45Z</time><name>PT4738</name></trkpt>
<trkpt lat="53.270914" lon="-2.005946"><ele>488</ele><time>2021-11-13T12:13:46Z</time><name>PT4739</name></trkpt>
<trkpt lat="53.270903" lon="-2.005938"><ele>488</ele><time>2021-11-13T12:13:47Z</time><name>PT4740</name></trkpt>
<trkpt lat="53.270895" lon="-2.005931"><ele>488</ele><time>2021-11-13T12:13:48Z</time><name>PT4741</name></trkpt>
<trkpt lat="53.270885" lon="-2.005925"><ele>488</ele><time>2021-11-13T12:13:49Z</time><name>PT4742</name></trkpt>
<trkpt lat="53.270874" lon="-2.005919"><ele>488</ele><time>2021-11-13T12:13:50Z</time><name>PT4743</name></trkpt>
<trkpt lat="53.270863" lon="-2.005913"><ele>488</ele><time>2021-11-13T12:13:51Z</time><name>PT4744</name></trkpt>
<trkpt lat="53.270853" lon="-2.005906"><ele>488</ele><time>2021-11-13T12:13:52Z</time><name>PT4745</name></trkpt>
<trkpt lat="53.270844" lon="-2.005900"><ele>487</ele><time>2021-11-13T12:13:53Z</time><name>PT4746</name></trkpt>
<trkpt lat="53.270833" lon="-2.005894"><ele>488</ele><time>2021-11-13T12:13:54Z</time><name>PT4747</name></trkpt>
<trkpt lat="53.270826" lon="-2.005888"><ele>487</ele><time>2021-11-13T12:13:55Z</time><name>PT4748</name></trkpt>
<trkpt lat="53.270816" lon="-2.005883"><ele>486</ele><time>2021-11-13T12:13:56Z</time><name>PT4749</name></trkpt>
<trkpt lat="53.270806" lon="-2.005874"><ele>487</ele><time>2021-11-13T12:13:57Z</time><name>PT4750</name></trkpt>
<trkpt lat="53.270798" lon="-2.005868"><ele>486</ele><time>2021-11-13T12:13:58Z</time><name>PT4751</name></trkpt>
<trkpt lat="53.270791" lon="-2.005860"><ele>486</ele><time>2021-11-13T12:13:59Z</time><name>PT4752</name></trkpt>
<trkpt lat="53.270782" lon="-2.005851"><ele>486</ele><time>2021-11-13T12:14:00Z</time><name>PT4753</name></trkpt>
<trkpt lat="53.270772" lon="-2.005846"><ele>486</ele><time>2021-11-13T12:14:01Z</time><name>PT4754</name></trkpt>
<trkpt lat="53.270760" lon="-2.005843"><ele>486</ele><time>2021-11-13T12:14:02Z</time><name>PT4755</name></trkpt>
<trkpt lat="53.270747" lon="-2.005842"><ele>486</ele><time>2021-11-13T12:14:03Z</time><name>PT4756</name></trkpt>
<trkpt lat="53.270737" lon="-2.005842"><ele>486</ele><time>2021-11-13T12:14:04Z</time><name>PT4757</name></trkpt>
<trkpt lat="53.270725" lon="-2.005839"><ele>487</ele><time>2021-11-13T12:14:05Z</time><name>PT4758</name></trkpt>
<trkpt lat="53.270712" lon="-2.005837"><ele>487</ele><time>2021-11-13T12:14:06Z</time><name>PT4759</name></trkpt>
<trkpt lat="53.270701" lon="-2.005835"><ele>487</ele><time>2021-11-13T12:14:07Z</time><name>PT4760</name></trkpt>
<trkpt lat="53.270689" lon="-2.005832"><ele>487</ele><time>2021-11-13T12:14:08Z</time><name>PT4761</name></trkpt>
<trkpt lat="53.270678" lon="-2.005830"><ele>487</ele><time>2021-11-13T12:14:09Z</time><name>PT4762</name></trkpt>
<trkpt lat="53.270669" lon="-2.005827"><ele>487</ele><time>2021-11-13T12:14:10Z</time><name>PT4763</name></trkpt>
<trkpt lat="53.270658" lon="-2.005825"><ele>487</ele><time>2021-11-13T12:14:11Z</time><name>PT4764</name></trkpt>
<trkpt lat="53.270647" lon="-2.005822"><ele>487</ele><time>2021-11-13T12:14:12Z</time><name>PT4765</name></trkpt>
<trkpt lat="53.270634" lon="-2.005814"><ele>488</ele><time>2021-11-13T12:14:13Z</time><name>PT4766</name></trkpt>
<trkpt lat="53.270623" lon="-2.005809"><ele>488</ele><time>2021-11-13T12:14:14Z</time><name>PT4767</name></trkpt>
<trkpt lat="53.270614" lon="-2.005803"><ele>488</ele><time>2021-11-13T12:14:15Z</time><name>PT4768</name></trkpt>
<trkpt lat="53.270604" lon="-2.005798"><ele>488</ele><time>2021-11-13T12:14:16Z</time><name>PT4769</name></trkpt>
<trkpt lat="53.270595" lon="-2.005794"><ele>488</ele><time>2021-11-13T12:14:17Z</time><name>PT4770</name></trkpt>
<trkpt lat="53.270590" lon="-2.005791"><ele>488</ele><time>2021-11-13T12:14:18Z</time><name>PT4771</name></trkpt>
<trkpt lat="53.270581" lon="-2.005784"><ele>488</ele><time>2021-11-13T12:14:19Z</time><name>PT4772</name></trkpt>
<trkpt lat="53.270569" lon="-2.005779"><ele>488</ele><time>2021-11-13T12:14:20Z</time><name>PT4773</name></trkpt>
<trkpt lat="53.270560" lon="-2.005772"><ele>488</ele><time>2021-11-13T12:14:21Z</time><name>PT4774</name></trkpt>
<trkpt lat="53.270551" lon="-2.005762"><ele>488</ele><time>2021-11-13T12:14:22Z</time><name>PT4775</name></trkpt>
<trkpt lat="53.270544" lon="-2.005757"><ele>488</ele><time>2021-11-13T12:14:23Z</time><name>PT4776</name></trkpt>
<trkpt lat="53.270538" lon="-2.005750"><ele>488</ele><time>2021-11-13T12:14:24Z</time><name>PT4777</name></trkpt>
<trkpt lat="53.270528" lon="-2.005745"><ele>488</ele><time>2021-11-13T12:14:25Z</time><name>PT4778</name></trkpt>
<trkpt lat="53.270519" lon="-2.005744"><ele>489</ele><time>2021-11-13T12:14:26Z</time><name>PT4779</name></trkpt>
<trkpt lat="53.270508" lon="-2.005742"><ele>489</ele><time>2021-11-13T12:14:27Z</time><name>PT4780</name></trkpt>
<trkpt lat="53.270498" lon="-2.005739"><ele>489</ele><time>2021-11-13T12:14:28Z</time><name>PT4781</name></trkpt>
<trkpt lat="53.270488" lon="-2.005737"><ele>489</ele><time>2021-11-13T12:14:29Z</time><name>PT4782</name></trkpt>
<trkpt lat="53.270480" lon="-2.005735"><ele>489</ele><time>2021-11-13T12:14:30Z</time><name>PT4783</name></trkpt>
<trkpt lat="53.270472" lon="-2.005733"><ele>489</ele><time>2021-11-13T12:14:31Z</time><name>PT4784</name></trkpt>
<trkpt lat="53.270462" lon="-2.005728"><ele>489</ele><time>2021-11-13T12:14:32Z</time><name>PT4785</name></trkpt>
<trkpt lat="53.270453" lon="-2.005724"><ele>489</ele><time>2021-11-13T12:14:33Z</time><name>PT4786</name></trkpt>
<trkpt lat="53.270443" lon="-2.005720"><ele>489</ele><time>2021-11-13T12:14:34Z</time><name>PT4787</name></trkpt>
<trkpt lat="53.270425" lon="-2.005717"><ele>488</ele><time>2021-11-13T12:14:36Z</time><name>PT4788</name></trkpt>
<trkpt lat="53.270414" lon="-2.005712"><ele>489</ele><time>2021-11-13T12:14:37Z</time><name>PT4789</name></trkpt>
<trkpt lat="53.270402" lon="-2.005708"><ele>489</ele><time>2021-11-13T12:14:38Z</time><name>PT4790</name></trkpt>
<trkpt lat="53.270390" lon="-2.005706"><ele>489</ele><time>2021-11-13T12:14:39Z</time><name>PT4791</name></trkpt>
<trkpt lat="53.270380" lon="-2.005704"><ele>489</ele><time>2021-11-13T12:14:40Z</time><name>PT4792</name></trkpt>
<trkpt lat="53.270372" lon="-2.005698"><ele>489</ele><time>2021-11-13T12:14:41Z</time><name>PT4793</name></trkpt>
<trkpt lat="53.270362" lon="-2.005694"><ele>490</ele><time>2021-11-13T12:14:42Z</time><name>PT4794</name></trkpt>
<trkpt lat="53.270355" lon="-2.005688"><ele>490</ele><time>2021-11-13T12:14:43Z</time><name>PT4795</name></trkpt>
<trkpt lat="53.270347" lon="-2.005681"><ele>490</ele><time>2021-11-13T12:14:44Z</time><name>PT4796</name></trkpt>
<trkpt lat="53.270339" lon="-2.005677"><ele>489</ele><time>2021-11-13T12:14:45Z</time><name>PT4797</name></trkpt>
<trkpt lat="53.270326" lon="-2.005670"><ele>490</ele><time>2021-11-13T12:14:46Z</time><name>PT4798</name></trkpt>
<trkpt lat="53.270317" lon="-2.005668"><ele>490</ele><time>2021-11-13T12:14:47Z</time><name>PT4799</name></trkpt>
<trkpt lat="53.270307" lon="-2.005665"><ele>490</ele><time>2021-11-13T12:14:48Z</time><name>PT4800</name></trkpt>
<trkpt lat="53.270297" lon="-2.005663"><ele>491</ele><time>2021-11-13T12:14:49Z</time><name>PT4801</name></trkpt>
<trkpt lat="53.270287" lon="-2.005662"><ele>490</ele><time>2021-11-13T12:14:50Z</time><name>PT4802</name></trkpt>
<trkpt lat="53.270277" lon="-2.005658"><ele>491</ele><time>2021-11-13T12:14:51Z</time><name>PT4803</name></trkpt>
<trkpt lat="53.270268" lon="-2.005654"><ele>491</ele><time>2021-11-13T12:14:52Z</time><name>PT4804</name></trkpt>
<trkpt lat="53.270259" lon="-2.005649"><ele>491</ele><time>2021-11-13T12:14:53Z</time><name>PT4805</name></trkpt>
<trkpt lat="53.270248" lon="-2.005647"><ele>491</ele><time>2021-11-13T12:14:54Z</time><name>PT4806</name></trkpt>
<trkpt lat="53.270247" lon="-2.005648"><ele>491</ele><time>2021-11-13T12:14:55Z</time><name>PT4807</name></trkpt>
<trkpt lat="53.270247" lon="-2.005648"><ele>491</ele><time>2021-11-13T12:14:56Z</time><name>PT4808</name></trkpt>
<trkpt lat="53.270247" lon="-2.005648"><ele>491</ele><time>2021-11-13T12:14:57Z</time><name>PT4809</name></trkpt>
<trkpt lat="53.270249" lon="-2.005650"><ele>490</ele><time>2021-11-13T12:15:01Z</time><name>PT4810</name></trkpt>
<trkpt lat="53.270238" lon="-2.005642"><ele>490</ele><time>2021-11-13T12:15:02Z</time><name>PT4811</name></trkpt>
<trkpt lat="53.270226" lon="-2.005640"><ele>491</ele><time>2021-11-13T12:15:03Z</time><name>PT4812</name></trkpt>
<trkpt lat="53.270216" lon="-2.005637"><ele>491</ele><time>2021-11-13T12:15:04Z</time><name>PT4813</name></trkpt>
<trkpt lat="53.270203" lon="-2.005631"><ele>491</ele><time>2021-11-13T12:15:05Z</time><name>PT4814</name></trkpt>
<trkpt lat="53.270191" lon="-2.005625"><ele>491</ele><time>2021-11-13T12:15:06Z</time><name>PT4815</name></trkpt>
<trkpt lat="53.270180" lon="-2.005620"><ele>491</ele><time>2021-11-13T12:15:07Z</time><name>PT4816</name></trkpt>
<trkpt lat="53.270171" lon="-2.005617"><ele>491</ele><time>2021-11-13T12:15:08Z</time><name>PT4817</name></trkpt>
<trkpt lat="53.270161" lon="-2.005613"><ele>491</ele><time>2021-11-13T12:15:09Z</time><name>PT4818</name></trkpt>
<trkpt lat="53.270153" lon="-2.005608"><ele>491</ele><time>2021-11-13T12:15:10Z</time><name>PT4819</name></trkpt>
<trkpt lat="53.270143" lon="-2.005602"><ele>491</ele><time>2021-11-13T12:15:11Z</time><name>PT4820</name></trkpt>
<trkpt lat="53.270135" lon="-2.005598"><ele>491</ele><time>2021-11-13T12:15:12Z</time><name>PT4821</name></trkpt>
<trkpt lat="53.270124" lon="-2.005591"><ele>492</ele><time>2021-11-13T12:15:13Z</time><name>PT4822</name></trkpt>
<trkpt lat="53.270115" lon="-2.005585"><ele>492</ele><time>2021-11-13T12:15:14Z</time><name>PT4823</name></trkpt>
<trkpt lat="53.270103" lon="-2.005582"><ele>492</ele><time>2021-11-13T12:15:15Z</time><name>PT4824</name></trkpt>
<trkpt lat="53.270094" lon="-2.005582"><ele>492</ele><time>2021-11-13T12:15:16Z</time><name>PT4825</name></trkpt>
<trkpt lat="53.270083" lon="-2.005580"><ele>492</ele><time>2021-11-13T12:15:17Z</time><name>PT4826</name></trkpt>
<trkpt lat="53.270073" lon="-2.005577"><ele>493</ele><time>2021-11-13T12:15:18Z</time><name>PT4827</name></trkpt>
<trkpt lat="53.270062" lon="-2.005574"><ele>493</ele><time>2021-11-13T12:15:19Z</time><name>PT4828</name></trkpt>
<trkpt lat="53.270053" lon="-2.005569"><ele>493</ele><time>2021-11-13T12:15:20Z</time><name>PT4829</name></trkpt>
<trkpt lat="53.270046" lon="-2.005562"><ele>492</ele><time>2021-11-13T12:15:21Z</time><name>PT4830</name></trkpt>
<trkpt lat="53.270037" lon="-2.005557"><ele>492</ele><time>2021-11-13T12:15:22Z</time><name>PT4831</name></trkpt>
<trkpt lat="53.270028" lon="-2.005553"><ele>492</ele><time>2021-11-13T12:15:23Z</time><name>PT4832</name></trkpt>
<trkpt lat="53.270010" lon="-2.005537"><ele>493</ele><time>2021-11-13T12:15:25Z</time><name>PT4833</name></trkpt>
<trkpt lat="53.270003" lon="-2.005530"><ele>493</ele><time>2021-11-13T12:15:26Z</time><name>PT4834</name></trkpt>
<trkpt lat="53.269995" lon="-2.005523"><ele>493</ele><time>2021-11-13T12:15:27Z</time><name>PT4835</name></trkpt>
<trkpt lat="53.269987" lon="-2.005516"><ele>493</ele><time>2021-11-13T12:15:28Z</time><name>PT4836</name></trkpt>
<trkpt lat="53.269976" lon="-2.005511"><ele>493</ele><time>2021-11-13T12:15:29Z</time><name>PT4837</name></trkpt>
<trkpt lat="53.269966" lon="-2.005506"><ele>493</ele><time>2021-11-13T12:15:30Z</time><name>PT4838</name></trkpt>
<trkpt lat="53.269958" lon="-2.005501"><ele>493</ele><time>2021-11-13T12:15:31Z</time><name>PT4839</name></trkpt>
<trkpt lat="53.269950" lon="-2.005500"><ele>493</ele><time>2021-11-13T12:15:32Z</time><name>PT4840</name></trkpt>
<trkpt lat="53.269943" lon="-2.005495"><ele>493</ele><time>2021-11-13T12:15:33Z</time><name>PT4841</name></trkpt>
<trkpt lat="53.269933" lon="-2.005489"><ele>493</ele><time>2021-11-13T12:15:34Z</time><name>PT4842</name></trkpt>
<trkpt lat="53.269925" lon="-2.005483"><ele>493</ele><time>2021-11-13T12:15:35Z</time><name>PT4843</name></trkpt>
<trkpt lat="53.269918" lon="-2.005476"><ele>493</ele><time>2021-11-13T12:15:36Z</time><name>PT4844</name></trkpt>
<trkpt lat="53.269908" lon="-2.005468"><ele>493</ele><time>2021-11-13T12:15:37Z</time><name>PT4845</name></trkpt>
<trkpt lat="53.269899" lon="-2.005462"><ele>493</ele><time>2021-11-13T12:15:38Z</time><name>PT4846</name></trkpt>
<trkpt lat="53.269883" lon="-2.005459"><ele>494</ele><time>2021-11-13T12:15:39Z</time><name>PT4847</name></trkpt>
<trkpt lat="53.269873" lon="-2.005453"><ele>493</ele><time>2021-11-13T12:15:40Z</time><name>PT4848</name></trkpt>
<trkpt lat="53.269868" lon="-2.005449"><ele>492</ele><time>2021-11-13T12:15:41Z</time><name>PT4849</name></trkpt>
<trkpt lat="53.269859" lon="-2.005441"><ele>492</ele><time>2021-11-13T12:15:42Z</time><name>PT4850</name></trkpt>
<trkpt lat="53.269850" lon="-2.005432"><ele>493</ele><time>2021-11-13T12:15:43Z</time><name>PT4851</name></trkpt>
<trkpt lat="53.269838" lon="-2.005426"><ele>493</ele><time>2021-11-13T12:15:44Z</time><name>PT4852</name></trkpt>
<trkpt lat="53.269829" lon="-2.005424"><ele>494</ele><time>2021-11-13T12:15:45Z</time><name>PT4853</name></trkpt>
<trkpt lat="53.269819" lon="-2.005422"><ele>494</ele><time>2021-11-13T12:15:46Z</time><name>PT4854</name></trkpt>
<trkpt lat="53.269809" lon="-2.005415"><ele>494</ele><time>2021-11-13T12:15:47Z</time><name>PT4855</name></trkpt>
<trkpt lat="53.269799" lon="-2.005410"><ele>495</ele><time>2021-11-13T12:15:48Z</time><name>PT4856</name></trkpt>
<trkpt lat="53.269789" lon="-2.005407"><ele>495</ele><time>2021-11-13T12:15:49Z</time><name>PT4857</name></trkpt>
<trkpt lat="53.269778" lon="-2.005405"><ele>495</ele><time>2021-11-13T12:15:50Z</time><name>PT4858</name></trkpt>
<trkpt lat="53.269769" lon="-2.005401"><ele>495</ele><time>2021-11-13T12:15:51Z</time><name>PT4859</name></trkpt>
<trkpt lat="53.269759" lon="-2.005397"><ele>495</ele><time>2021-11-13T12:15:52Z</time><name>PT4860</name></trkpt>
<trkpt lat="53.269749" lon="-2.005399"><ele>495</ele><time>2021-11-13T12:15:53Z</time><name>PT4861</name></trkpt>
<trkpt lat="53.269740" lon="-2.005400"><ele>495</ele><time>2021-11-13T12:15:54Z</time><name>PT4862</name></trkpt>
<trkpt lat="53.269729" lon="-2.005400"><ele>495</ele><time>2021-11-13T12:15:55Z</time><name>PT4863</name></trkpt>
<trkpt lat="53.269719" lon="-2.005397"><ele>495</ele><time>2021-11-13T12:15:56Z</time><name>PT4864</name></trkpt>
<trkpt lat="53.269710" lon="-2.005392"><ele>495</ele><time>2021-11-13T12:15:57Z</time><name>PT4865</name></trkpt>
<trkpt lat="53.269701" lon="-2.005384"><ele>495</ele><time>2021-11-13T12:15:58Z</time><name>PT4866</name></trkpt>
<trkpt lat="53.269690" lon="-2.005375"><ele>495</ele><time>2021-11-13T12:15:59Z</time><name>PT4867</name></trkpt>
<trkpt lat="53.269680" lon="-2.005368"><ele>495</ele><time>2021-11-13T12:16:00Z</time><name>PT4868</name></trkpt>
<trkpt lat="53.269669" lon="-2.005361"><ele>495</ele><time>2021-11-13T12:16:01Z</time><name>PT4869</name></trkpt>
<trkpt lat="53.269659" lon="-2.005357"><ele>495</ele><time>2021-11-13T12:16:02Z</time><name>PT4870</name></trkpt>
<trkpt lat="53.269647" lon="-2.005355"><ele>495</ele><time>2021-11-13T12:16:03Z</time><name>PT4871</name></trkpt>
<trkpt lat="53.269637" lon="-2.005353"><ele>495</ele><time>2021-11-13T12:16:04Z</time><name>PT4872</name></trkpt>
<trkpt lat="53.269625" lon="-2.005350"><ele>495</ele><time>2021-11-13T12:16:05Z</time><name>PT4873</name></trkpt>
<trkpt lat="53.269615" lon="-2.005347"><ele>495</ele><time>2021-11-13T12:16:06Z</time><name>PT4874</name></trkpt>
<trkpt lat="53.269604" lon="-2.005345"><ele>496</ele><time>2021-11-13T12:16:07Z</time><name>PT4875</name></trkpt>
<trkpt lat="53.269592" lon="-2.005344"><ele>496</ele><time>2021-11-13T12:16:08Z</time><name>PT4876</name></trkpt>
<trkpt lat="53.269581" lon="-2.005342"><ele>496</ele><time>2021-11-13T12:16:09Z</time><name>PT4877</name></trkpt>
<trkpt lat="53.269573" lon="-2.005337"><ele>496</ele><time>2021-11-13T12:16:10Z</time><name>PT4878</name></trkpt>
<trkpt lat="53.269564" lon="-2.005331"><ele>496</ele><time>2021-11-13T12:16:11Z</time><name>PT4879</name></trkpt>
<trkpt lat="53.269552" lon="-2.005326"><ele>496</ele><time>2021-11-13T12:16:12Z</time><name>PT4880</name></trkpt>
<trkpt lat="53.269541" lon="-2.005321"><ele>497</ele><time>2021-11-13T12:16:13Z</time><name>PT4881</name></trkpt>
<trkpt lat="53.269528" lon="-2.005314"><ele>497</ele><time>2021-11-13T12:16:14Z</time><name>PT4882</name></trkpt>
<trkpt lat="53.269518" lon="-2.005307"><ele>497</ele><time>2021-11-13T12:16:15Z</time><name>PT4883</name></trkpt>
<trkpt lat="53.269508" lon="-2.005299"><ele>497</ele><time>2021-11-13T12:16:16Z</time><name>PT4884</name></trkpt>
<trkpt lat="53.269498" lon="-2.005293"><ele>497</ele><time>2021-11-13T12:16:17Z</time><name>PT4885</name></trkpt>
<trkpt lat="53.269486" lon="-2.005291"><ele>498</ele><time>2021-11-13T12:16:18Z</time><name>PT4886</name></trkpt>
<trkpt lat="53.269475" lon="-2.005290"><ele>498</ele><time>2021-11-13T12:16:19Z</time><name>PT4887</name></trkpt>
<trkpt lat="53.269466" lon="-2.005288"><ele>498</ele><time>2021-11-13T12:16:20Z</time><name>PT4888</name></trkpt>
<trkpt lat="53.269456" lon="-2.005284"><ele>498</ele><time>2021-11-13T12:16:21Z</time><name>PT4889</name></trkpt>
<trkpt lat="53.269445" lon="-2.005281"><ele>498</ele><time>2021-11-13T12:16:22Z</time><name>PT4890</name></trkpt>
<trkpt lat="53.269434" lon="-2.005278"><ele>498</ele><time>2021-11-13T12:16:23Z</time><name>PT4891</name></trkpt>
<trkpt lat="53.269422" lon="-2.005278"><ele>498</ele><time>2021-11-13T12:16:24Z</time><name>PT4892</name></trkpt>
<trkpt lat="53.269412" lon="-2.005275"><ele>498</ele><time>2021-11-13T12:16:25Z</time><name>PT4893</name></trkpt>
<trkpt lat="53.269399" lon="-2.005270"><ele>498</ele><time>2021-11-13T12:16:26Z</time><name>PT4894</name></trkpt>
<trkpt lat="53.269389" lon="-2.005263"><ele>498</ele><time>2021-11-13T12:16:27Z</time><name>PT4895</name></trkpt>
<trkpt lat="53.269379" lon="-2.005257"><ele>498</ele><time>2021-11-13T12:16:28Z</time><name>PT4896</name></trkpt>
<trkpt lat="53.269369" lon="-2.005252"><ele>498</ele><time>2021-11-13T12:16:29Z</time><name>PT4897</name></trkpt>
<trkpt lat="53.269360" lon="-2.005247"><ele>498</ele><time>2021-11-13T12:16:30Z</time><name>PT4898</name></trkpt>
<trkpt lat="53.269349" lon="-2.005240"><ele>499</ele><time>2021-11-13T12:16:31Z</time><name>PT4899</name></trkpt>
<trkpt lat="53.269339" lon="-2.005233"><ele>499</ele><time>2021-11-13T12:16:32Z</time><name>PT4900</name></trkpt>
<trkpt lat="53.269294" lon="-2.005212"><ele>499</ele><time>2021-11-13T12:16:36Z</time><name>PT4901</name></trkpt>
<trkpt lat="53.269251" lon="-2.005197"><ele>500</ele><time>2021-11-13T12:16:40Z</time><name>PT4902</name></trkpt>
<trkpt lat="53.269208" lon="-2.005176"><ele>500</ele><time>2021-11-13T12:16:44Z</time><name>PT4903</name></trkpt>
<trkpt lat="53.269172" lon="-2.005152"><ele>500</ele><time>2021-11-13T12:16:48Z</time><name>PT4904</name></trkpt>
<trkpt lat="53.269134" lon="-2.005132"><ele>500</ele><time>2021-11-13T12:16:52Z</time><name>PT4905</name></trkpt>
<trkpt lat="53.269084" lon="-2.005145"><ele>500</ele><time>2021-11-13T12:16:56Z</time><name>PT4906</name></trkpt>
<trkpt lat="53.269081" lon="-2.005156"><ele>500</ele><time>2021-11-13T12:17:00Z</time><name>PT4907</name></trkpt>
<trkpt lat="53.269029" lon="-2.005171"><ele>500</ele><time>2021-11-13T12:17:08Z</time><name>PT4908</name></trkpt>
<trkpt lat="53.268974" lon="-2.005178"><ele>500</ele><time>2021-11-13T12:17:12Z</time><name>PT4909</name></trkpt>
<trkpt lat="53.268924" lon="-2.005195"><ele>501</ele><time>2021-11-13T12:17:16Z</time><name>PT4910</name></trkpt>
<trkpt lat="53.268873" lon="-2.005213"><ele>502</ele><time>2021-11-13T12:17:20Z</time><name>PT4911</name></trkpt>
<trkpt lat="53.268828" lon="-2.005212"><ele>503</ele><time>2021-11-13T12:17:24Z</time><name>PT4912</name></trkpt>
<trkpt lat="53.268780" lon="-2.005211"><ele>503</ele><time>2021-11-13T12:17:28Z</time><name>PT4913</name></trkpt>
<trkpt lat="53.268734" lon="-2.005207"><ele>503</ele><time>2021-11-13T12:17:32Z</time><name>PT4914</name></trkpt>
<trkpt lat="53.268690" lon="-2.005212"><ele>504</ele><time>2021-11-13T12:17:36Z</time><name>PT4915</name></trkpt>
<trkpt lat="53.268649" lon="-2.005225"><ele>504</ele><time>2021-11-13T12:17:40Z</time><name>PT4916</name></trkpt>
<trkpt lat="53.268617" lon="-2.005242"><ele>505</ele><time>2021-11-13T12:17:44Z</time><name>PT4917</name></trkpt>
<trkpt lat="53.268585" lon="-2.005246"><ele>505</ele><time>2021-11-13T12:17:48Z</time><name>PT4918</name></trkpt>
<trkpt lat="53.268542" lon="-2.005247"><ele>506</ele><time>2021-11-13T12:17:52Z</time><name>PT4919</name></trkpt>
<trkpt lat="53.268502" lon="-2.005252"><ele>506</ele><time>2021-11-13T12:17:56Z</time><name>PT4920</name></trkpt>
<trkpt lat="53.268463" lon="-2.005258"><ele>506</ele><time>2021-11-13T12:18:00Z</time><name>PT4921</name></trkpt>
<trkpt lat="53.268425" lon="-2.005266"><ele>507</ele><time>2021-11-13T12:18:04Z</time><name>PT4922</name></trkpt>
<trkpt lat="53.268382" lon="-2.005270"><ele>508</ele><time>2021-11-13T12:18:08Z</time><name>PT4923</name></trkpt>
<trkpt lat="53.268373" lon="-2.005270"><ele>508</ele><time>2021-11-13T12:18:09Z</time><name>PT4924</name></trkpt>
<trkpt lat="53.268364" lon="-2.005274"><ele>508</ele><time>2021-11-13T12:18:10Z</time><name>PT4925</name></trkpt>
<trkpt lat="53.268353" lon="-2.005276"><ele>508</ele><time>2021-11-13T12:18:11Z</time><name>PT4926</name></trkpt>
<trkpt lat="53.268343" lon="-2.005276"><ele>509</ele><time>2021-11-13T12:18:12Z</time><name>PT4927</name></trkpt>
<trkpt lat="53.268332" lon="-2.005277"><ele>509</ele><time>2021-11-13T12:18:13Z</time><name>PT4928</name></trkpt>
<trkpt lat="53.268322" lon="-2.005277"><ele>509</ele><time>2021-11-13T12:18:14Z</time><name>PT4929</name></trkpt>
<trkpt lat="53.268312" lon="-2.005276"><ele>509</ele><time>2021-11-13T12:18:15Z</time><name>PT4930</name></trkpt>
<trkpt lat="53.268300" lon="-2.005276"><ele>509</ele><time>2021-11-13T12:18:16Z</time><name>PT4931</name></trkpt>
<trkpt lat="53.268291" lon="-2.005274"><ele>509</ele><time>2021-11-13T12:18:17Z</time><name>PT4932</name></trkpt>
<trkpt lat="53.268281" lon="-2.005271"><ele>509</ele><time>2021-11-13T12:18:18Z</time><name>PT4933</name></trkpt>
<trkpt lat="53.268271" lon="-2.005274"><ele>509</ele><time>2021-11-13T12:18:19Z</time><name>PT4934</name></trkpt>
<trkpt lat="53.268259" lon="-2.005274"><ele>510</ele><time>2021-11-13T12:18:20Z</time><name>PT4935</name></trkpt>
<trkpt lat="53.268247" lon="-2.005276"><ele>510</ele><time>2021-11-13T12:18:21Z</time><name>PT4936</name></trkpt>
<trkpt lat="53.268238" lon="-2.005279"><ele>510</ele><time>2021-11-13T12:18:22Z</time><name>PT4937</name></trkpt>
<trkpt lat="53.268228" lon="-2.005280"><ele>510</ele><time>2021-11-13T12:18:23Z</time><name>PT4938</name></trkpt>
<trkpt lat="53.268217" lon="-2.005281"><ele>510</ele><time>2021-11-13T12:18:24Z</time><name>PT4939</name></trkpt>
<trkpt lat="53.268211" lon="-2.005279"><ele>511</ele><time>2021-11-13T12:18:25Z</time><name>PT4940</name></trkpt>
<trkpt lat="53.268211" lon="-2.005278"><ele>511</ele><time>2021-11-13T12:18:26Z</time><name>PT4941</name></trkpt>
<trkpt lat="53.268206" lon="-2.005279"><ele>512</ele><time>2021-11-13T12:18:27Z</time><name>PT4942</name></trkpt>
<trkpt lat="53.268204" lon="-2.005277"><ele>512</ele><time>2021-11-13T12:18:28Z</time><name>PT4943</name></trkpt>
<trkpt lat="53.268200" lon="-2.005278"><ele>512</ele><time>2021-11-13T12:18:29Z</time><name>PT4944</name></trkpt>
<trkpt lat="53.268194" lon="-2.005276"><ele>512</ele><time>2021-11-13T12:18:30Z</time><name>PT4945</name></trkpt>
<trkpt lat="53.268186" lon="-2.005276"><ele>512</ele><time>2021-11-13T12:18:31Z</time><name>PT4946</name></trkpt>
<trkpt lat="53.268178" lon="-2.005276"><ele>513</ele><time>2021-11-13T12:18:32Z</time><name>PT4947</name></trkpt>
<trkpt lat="53.268167" lon="-2.005279"><ele>513</ele><time>2021-11-13T12:18:33Z</time><name>PT4948</name></trkpt>
<trkpt lat="53.268155" lon="-2.005279"><ele>513</ele><time>2021-11-13T12:18:34Z</time><name>PT4949</name></trkpt>
<trkpt lat="53.268147" lon="-2.005282"><ele>513</ele><time>2021-11-13T12:18:35Z</time><name>PT4950</name></trkpt>
<trkpt lat="53.268136" lon="-2.005283"><ele>513</ele><time>2021-11-13T12:18:36Z</time><name>PT4951</name></trkpt>
<trkpt lat="53.268125" lon="-2.005283"><ele>513</ele><time>2021-11-13T12:18:37Z</time><name>PT4952</name></trkpt>
<trkpt lat="53.268114" lon="-2.005284"><ele>513</ele><time>2021-11-13T12:18:38Z</time><name>PT4953</name></trkpt>
<trkpt lat="53.268103" lon="-2.005286"><ele>513</ele><time>2021-11-13T12:18:39Z</time><name>PT4954</name></trkpt>
<trkpt lat="53.268094" lon="-2.005288"><ele>513</ele><time>2021-11-13T12:18:40Z</time><name>PT4955</name></trkpt>
<trkpt lat="53.268085" lon="-2.005287"><ele>513</ele><time>2021-11-13T12:18:41Z</time><name>PT4956</name></trkpt>
<trkpt lat="53.268075" lon="-2.005287"><ele>513</ele><time>2021-11-13T12:18:42Z</time><name>PT4957</name></trkpt>
<trkpt lat="53.268065" lon="-2.005290"><ele>514</ele><time>2021-11-13T12:18:43Z</time><name>PT4958</name></trkpt>
<trkpt lat="53.268054" lon="-2.005291"><ele>514</ele><time>2021-11-13T12:18:44Z</time><name>PT4959</name></trkpt>
<trkpt lat="53.268044" lon="-2.005294"><ele>514</ele><time>2021-11-13T12:18:45Z</time><name>PT4960</name></trkpt>
<trkpt lat="53.268034" lon="-2.005296"><ele>514</ele><time>2021-11-13T12:18:46Z</time><name>PT4961</name></trkpt>
<trkpt lat="53.268024" lon="-2.005295"><ele>514</ele><time>2021-11-13T12:18:47Z</time><name>PT4962</name></trkpt>
<trkpt lat="53.268014" lon="-2.005297"><ele>514</ele><time>2021-11-13T12:18:48Z</time><name>PT4963</name></trkpt>
<trkpt lat="53.268003" lon="-2.005299"><ele>515</ele><time>2021-11-13T12:18:49Z</time><name>PT4964</name></trkpt>
<trkpt lat="53.267994" lon="-2.005299"><ele>515</ele><time>2021-11-13T12:18:50Z</time><name>PT4965</name></trkpt>
<trkpt lat="53.267983" lon="-2.005300"><ele>515</ele><time>2021-11-13T12:18:51Z</time><name>PT4966</name></trkpt>
<trkpt lat="53.267974" lon="-2.005301"><ele>515</ele><time>2021-11-13T12:18:52Z</time><name>PT4967</name></trkpt>
<trkpt lat="53.267963" lon="-2.005303"><ele>515</ele><time>2021-11-13T12:18:53Z</time><name>PT4968</name></trkpt>
<trkpt lat="53.267953" lon="-2.005303"><ele>515</ele><time>2021-11-13T12:18:54Z</time><name>PT4969</name></trkpt>
<trkpt lat="53.267944" lon="-2.005303"><ele>515</ele><time>2021-11-13T12:18:55Z</time><name>PT4970</name></trkpt>
<trkpt lat="53.267934" lon="-2.005305"><ele>515</ele><time>2021-11-13T12:18:56Z</time><name>PT4971</name></trkpt>
<trkpt lat="53.267923" lon="-2.005308"><ele>515</ele><time>2021-11-13T12:18:57Z</time><name>PT4972</name></trkpt>
<trkpt lat="53.267911" lon="-2.005310"><ele>516</ele><time>2021-11-13T12:18:58Z</time><name>PT4973</name></trkpt>
<trkpt lat="53.267902" lon="-2.005311"><ele>516</ele><time>2021-11-13T12:18:59Z</time><name>PT4974</name></trkpt>
<trkpt lat="53.267891" lon="-2.005312"><ele>516</ele><time>2021-11-13T12:19:00Z</time><name>PT4975</name></trkpt>
<trkpt lat="53.267882" lon="-2.005314"><ele>516</ele><time>2021-11-13T12:19:01Z</time><name>PT4976</name></trkpt>
<trkpt lat="53.267872" lon="-2.005317"><ele>516</ele><time>2021-11-13T12:19:02Z</time><name>PT4977</name></trkpt>
<trkpt lat="53.267862" lon="-2.005318"><ele>516</ele><time>2021-11-13T12:19:03Z</time><name>PT4978</name></trkpt>
<trkpt lat="53.267853" lon="-2.005320"><ele>516</ele><time>2021-11-13T12:19:04Z</time><name>PT4979</name></trkpt>
<trkpt lat="53.267843" lon="-2.005325"><ele>516</ele><time>2021-11-13T12:19:05Z</time><name>PT4980</name></trkpt>
<trkpt lat="53.267834" lon="-2.005329"><ele>516</ele><time>2021-11-13T12:19:06Z</time><name>PT4981</name></trkpt>
<trkpt lat="53.267823" lon="-2.005332"><ele>516</ele><time>2021-11-13T12:19:07Z</time><name>PT4982</name></trkpt>
<trkpt lat="53.267812" lon="-2.005331"><ele>516</ele><time>2021-11-13T12:19:08Z</time><name>PT4983</name></trkpt>
<trkpt lat="53.267802" lon="-2.005328"><ele>516</ele><time>2021-11-13T12:19:09Z</time><name>PT4984</name></trkpt>
<trkpt lat="53.267793" lon="-2.005325"><ele>516</ele><time>2021-11-13T12:19:10Z</time><name>PT4985</name></trkpt>
<trkpt lat="53.267783" lon="-2.005323"><ele>516</ele><time>2021-11-13T12:19:11Z</time><name>PT4986</name></trkpt>
<trkpt lat="53.267773" lon="-2.005321"><ele>517</ele><time>2021-11-13T12:19:12Z</time><name>PT4987</name></trkpt>
<trkpt lat="53.267764" lon="-2.005318"><ele>516</ele><time>2021-11-13T12:19:13Z</time><name>PT4988</name></trkpt>
<trkpt lat="53.267752" lon="-2.005314"><ele>517</ele><time>2021-11-13T12:19:14Z</time><name>PT4989</name></trkpt>
<trkpt lat="53.267742" lon="-2.005309"><ele>517</ele><time>2021-11-13T12:19:15Z</time><name>PT4990</name></trkpt>
<trkpt lat="53.267731" lon="-2.005303"><ele>517</ele><time>2021-11-13T12:19:16Z</time><name>PT4991</name></trkpt>
<trkpt lat="53.267722" lon="-2.005299"><ele>517</ele><time>2021-11-13T12:19:17Z</time><name>PT4992</name></trkpt>
<trkpt lat="53.267712" lon="-2.005301"><ele>517</ele><time>2021-11-13T12:19:18Z</time><name>PT4993</name></trkpt>
<trkpt lat="53.267702" lon="-2.005305"><ele>518</ele><time>2021-11-13T12:19:19Z</time><name>PT4994</name></trkpt>
<trkpt lat="53.267693" lon="-2.005311"><ele>518</ele><time>2021-11-13T12:19:20Z</time><name>PT4995</name></trkpt>
<trkpt lat="53.267685" lon="-2.005314"><ele>518</ele><time>2021-11-13T12:19:21Z</time><name>PT4996</name></trkpt>
<trkpt lat="53.267676" lon="-2.005318"><ele>518</ele><time>2021-11-13T12:19:22Z</time><name>PT4997</name></trkpt>
<trkpt lat="53.267668" lon="-2.005323"><ele>518</ele><time>2021-11-13T12:19:23Z</time><name>PT4998</name></trkpt>
<trkpt lat="53.267658" lon="-2.005327"><ele>518</ele><time>2021-11-13T12:19:24Z</time><name>PT4999</name></trkpt>
<trkpt lat="53.267650" lon="-2.005332"><ele>518</ele><time>2021-11-13T12:19:25Z</time><name>PT5000</name></trkpt>
<trkpt lat="53.267640" lon="-2.005338"><ele>518</ele><time>2021-11-13T12:19:26Z</time><name>PT5001</name></trkpt>
<trkpt lat="53.267630" lon="-2.005344"><ele>518</ele><time>2021-11-13T12:19:27Z</time><name>PT5002</name></trkpt>
<trkpt lat="53.267622" lon="-2.005349"><ele>518</ele><time>2021-11-13T12:19:28Z</time><name>PT5003</name></trkpt>
<trkpt lat="53.267614" lon="-2.005353"><ele>518</ele><time>2021-11-13T12:19:29Z</time><name>PT5004</name></trkpt>
<trkpt lat="53.267603" lon="-2.005357"><ele>518</ele><time>2021-11-13T12:19:30Z</time><name>PT5005</name></trkpt>
<trkpt lat="53.267594" lon="-2.005361"><ele>518</ele><time>2021-11-13T12:19:31Z</time><name>PT5006</name></trkpt>
<trkpt lat="53.267585" lon="-2.005366"><ele>519</ele><time>2021-11-13T12:19:32Z</time><name>PT5007</name></trkpt>
<trkpt lat="53.267574" lon="-2.005371"><ele>519</ele><time>2021-11-13T12:19:33Z</time><name>PT5008</name></trkpt>
<trkpt lat="53.267565" lon="-2.005375"><ele>519</ele><time>2021-11-13T12:19:34Z</time><name>PT5009</name></trkpt>
<trkpt lat="53.267556" lon="-2.005379"><ele>519</ele><time>2021-11-13T12:19:35Z</time><name>PT5010</name></trkpt>
<trkpt lat="53.267548" lon="-2.005383"><ele>519</ele><time>2021-11-13T12:19:36Z</time><name>PT5011</name></trkpt>
<trkpt lat="53.267540" lon="-2.005385"><ele>519</ele><time>2021-11-13T12:19:37Z</time><name>PT5012</name></trkpt>
<trkpt lat="53.267530" lon="-2.005386"><ele>520</ele><time>2021-11-13T12:19:38Z</time><name>PT5013</name></trkpt>
<trkpt lat="53.267522" lon="-2.005391"><ele>520</ele><time>2021-11-13T12:19:39Z</time><name>PT5014</name></trkpt>
<trkpt lat="53.267514" lon="-2.005395"><ele>520</ele><time>2021-11-13T12:19:40Z</time><name>PT5015</name></trkpt>
<trkpt lat="53.267507" lon="-2.005398"><ele>520</ele><time>2021-11-13T12:19:41Z</time><name>PT5016</name></trkpt>
<trkpt lat="53.267498" lon="-2.005403"><ele>520</ele><time>2021-11-13T12:19:42Z</time><name>PT5017</name></trkpt>
<trkpt lat="53.267489" lon="-2.005409"><ele>520</ele><time>2021-11-13T12:19:43Z</time><name>PT5018</name></trkpt>
<trkpt lat="53.267481" lon="-2.005414"><ele>520</ele><time>2021-11-13T12:19:44Z</time><name>PT5019</name></trkpt>
<trkpt lat="53.267472" lon="-2.005419"><ele>520</ele><time>2021-11-13T12:19:45Z</time><name>PT5020</name></trkpt>
<trkpt lat="53.267462" lon="-2.005425"><ele>520</ele><time>2021-11-13T12:19:46Z</time><name>PT5021</name></trkpt>
<trkpt lat="53.267452" lon="-2.005432"><ele>520</ele><time>2021-11-13T12:19:47Z</time><name>PT5022</name></trkpt>
<trkpt lat="53.267443" lon="-2.005440"><ele>521</ele><time>2021-11-13T12:19:48Z</time><name>PT5023</name></trkpt>
<trkpt lat="53.267431" lon="-2.005447"><ele>521</ele><time>2021-11-13T12:19:49Z</time><name>PT5024</name></trkpt>
<trkpt lat="53.267423" lon="-2.005453"><ele>521</ele><time>2021-11-13T12:19:50Z</time><name>PT5025</name></trkpt>
<trkpt lat="53.267415" lon="-2.005463"><ele>521</ele><time>2021-11-13T12:19:51Z</time><name>PT5026</name></trkpt>
<trkpt lat="53.267406" lon="-2.005469"><ele>521</ele><time>2021-11-13T12:19:52Z</time><name>PT5027</name></trkpt>
<trkpt lat="53.267398" lon="-2.005471"><ele>521</ele><time>2021-11-13T12:19:53Z</time><name>PT5028</name></trkpt>
<trkpt lat="53.267394" lon="-2.005475"><ele>521</ele><time>2021-11-13T12:19:54Z</time><name>PT5029</name></trkpt>
<trkpt lat="53.267387" lon="-2.005480"><ele>521</ele><time>2021-11-13T12:19:55Z</time><name>PT5030</name></trkpt>
<trkpt lat="53.267378" lon="-2.005485"><ele>521</ele><time>2021-11-13T12:19:56Z</time><name>PT5031</name></trkpt>
<trkpt lat="53.267367" lon="-2.005492"><ele>521</ele><time>2021-11-13T12:19:57Z</time><name>PT5032</name></trkpt>
<trkpt lat="53.267358" lon="-2.005496"><ele>522</ele><time>2021-11-13T12:19:58Z</time><name>PT5033</name></trkpt>
<trkpt lat="53.267350" lon="-2.005500"><ele>522</ele><time>2021-11-13T12:19:59Z</time><name>PT5034</name></trkpt>
<trkpt lat="53.267341" lon="-2.005505"><ele>522</ele><time>2021-11-13T12:20:00Z</time><name>PT5035</name></trkpt>
<trkpt lat="53.267331" lon="-2.005509"><ele>522</ele><time>2021-11-13T12:20:01Z</time><name>PT5036</name></trkpt>
<trkpt lat="53.267320" lon="-2.005510"><ele>522</ele><time>2021-11-13T12:20:02Z</time><name>PT5037</name></trkpt>
<trkpt lat="53.267308" lon="-2.005511"><ele>522</ele><time>2021-11-13T12:20:03Z</time><name>PT5038</name></trkpt>
<trkpt lat="53.267299" lon="-2.005513"><ele>522</ele><time>2021-11-13T12:20:04Z</time><name>PT5039</name></trkpt>
<trkpt lat="53.267288" lon="-2.005516"><ele>523</ele><time>2021-11-13T12:20:05Z</time><name>PT5040</name></trkpt>
<trkpt lat="53.267280" lon="-2.005516"><ele>523</ele><time>2021-11-13T12:20:06Z</time><name>PT5041</name></trkpt>
<trkpt lat="53.267269" lon="-2.005518"><ele>523</ele><time>2021-11-13T12:20:07Z</time><name>PT5042</name></trkpt>
<trkpt lat="53.267258" lon="-2.005520"><ele>523</ele><time>2021-11-13T12:20:08Z</time><name>PT5043</name></trkpt>
<trkpt lat="53.267247" lon="-2.005524"><ele>523</ele><time>2021-11-13T12:20:09Z</time><name>PT5044</name></trkpt>
<trkpt lat="53.267237" lon="-2.005526"><ele>522</ele><time>2021-11-13T12:20:10Z</time><name>PT5045</name></trkpt>
<trkpt lat="53.267226" lon="-2.005531"><ele>523</ele><time>2021-11-13T12:20:11Z</time><name>PT5046</name></trkpt>
<trkpt lat="53.267217" lon="-2.005538"><ele>523</ele><time>2021-11-13T12:20:12Z</time><name>PT5047</name></trkpt>
<trkpt lat="53.267206" lon="-2.005545"><ele>523</ele><time>2021-11-13T12:20:13Z</time><name>PT5048</name></trkpt>
<trkpt lat="53.267186" lon="-2.005557"><ele>523</ele><time>2021-11-13T12:20:15Z</time><name>PT5049</name></trkpt>
<trkpt lat="53.267174" lon="-2.005567"><ele>523</ele><time>2021-11-13T12:20:16Z</time><name>PT5050</name></trkpt>
<trkpt lat="53.267164" lon="-2.005576"><ele>523</ele><time>2021-11-13T12:20:17Z</time><name>PT5051</name></trkpt>
<trkpt lat="53.267152" lon="-2.005585"><ele>523</ele><time>2021-11-13T12:20:18Z</time><name>PT5052</name></trkpt>
<trkpt lat="53.267141" lon="-2.005590"><ele>523</ele><time>2021-11-13T12:20:19Z</time><name>PT5053</name></trkpt>
<trkpt lat="53.267131" lon="-2.005596"><ele>523</ele><time>2021-11-13T12:20:20Z</time><name>PT5054</name></trkpt>
<trkpt lat="53.267120" lon="-2.005603"><ele>523</ele><time>2021-11-13T12:20:21Z</time><name>PT5055</name></trkpt>
<trkpt lat="53.267109" lon="-2.005610"><ele>523</ele><time>2021-11-13T12:20:22Z</time><name>PT5056</name></trkpt>
<trkpt lat="53.267098" lon="-2.005617"><ele>523</ele><time>2021-11-13T12:20:23Z</time><name>PT5057</name></trkpt>
<trkpt lat="53.267088" lon="-2.005626"><ele>523</ele><time>2021-11-13T12:20:24Z</time><name>PT5058</name></trkpt>
<trkpt lat="53.267078" lon="-2.005634"><ele>523</ele><time>2021-11-13T12:20:25Z</time><name>PT5059</name></trkpt>
<trkpt lat="53.267067" lon="-2.005642"><ele>523</ele><time>2021-11-13T12:20:26Z</time><name>PT5060</name></trkpt>
<trkpt lat="53.267057" lon="-2.005649"><ele>524</ele><time>2021-11-13T12:20:27Z</time><name>PT5061</name></trkpt>
<trkpt lat="53.267046" lon="-2.005656"><ele>524</ele><time>2021-11-13T12:20:28Z</time><name>PT5062</name></trkpt>
<trkpt lat="53.267045" lon="-2.005657"><ele>524</ele><time>2021-11-13T12:20:29Z</time><name>PT5063</name></trkpt>
<trkpt lat="53.267047" lon="-2.005656"><ele>524</ele><time>2021-11-13T12:20:30Z</time><name>PT5064</name></trkpt>
<trkpt lat="53.267048" lon="-2.005655"><ele>524</ele><time>2021-11-13T12:20:31Z</time><name>PT5065</name></trkpt>
<trkpt lat="53.267047" lon="-2.005657"><ele>524</ele><time>2021-11-13T12:20:32Z</time><name>PT5066</name></trkpt>
<trkpt lat="53.267040" lon="-2.005663"><ele>524</ele><time>2021-11-13T12:20:36Z</time><name>PT5067</name></trkpt>
<trkpt lat="53.267027" lon="-2.005677"><ele>524</ele><time>2021-11-13T12:20:37Z</time><name>PT5068</name></trkpt>
<trkpt lat="53.267016" lon="-2.005683"><ele>524</ele><time>2021-11-13T12:20:38Z</time><name>PT5069</name></trkpt>
<trkpt lat="53.267005" lon="-2.005690"><ele>524</ele><time>2021-11-13T12:20:39Z</time><name>PT5070</name></trkpt>
<trkpt lat="53.266994" lon="-2.005697"><ele>524</ele><time>2021-11-13T12:20:40Z</time><name>PT5071</name></trkpt>
<trkpt lat="53.266984" lon="-2.005702"><ele>524</ele><time>2021-11-13T12:20:41Z</time><name>PT5072</name></trkpt>
<trkpt lat="53.266973" lon="-2.005709"><ele>524</ele><time>2021-11-13T12:20:42Z</time><name>PT5073</name></trkpt>
<trkpt lat="53.266961" lon="-2.005716"><ele>524</ele><time>2021-11-13T12:20:43Z</time><name>PT5074</name></trkpt>
<trkpt lat="53.266950" lon="-2.005724"><ele>524</ele><time>2021-11-13T12:20:44Z</time><name>PT5075</name></trkpt>
<trkpt lat="53.266937" lon="-2.005735"><ele>524</ele><time>2021-11-13T12:20:45Z</time><name>PT5076</name></trkpt>
<trkpt lat="53.266925" lon="-2.005743"><ele>524</ele><time>2021-11-13T12:20:46Z</time><name>PT5077</name></trkpt>
<trkpt lat="53.266915" lon="-2.005748"><ele>524</ele><time>2021-11-13T12:20:47Z</time><name>PT5078</name></trkpt>
<trkpt lat="53.266901" lon="-2.005753"><ele>524</ele><time>2021-11-13T12:20:48Z</time><name>PT5079</name></trkpt>
<trkpt lat="53.266888" lon="-2.005758"><ele>523</ele><time>2021-11-13T12:20:49Z</time><name>PT5080</name></trkpt>
<trkpt lat="53.266876" lon="-2.005763"><ele>524</ele><time>2021-11-13T12:20:50Z</time><name>PT5081</name></trkpt>
<trkpt lat="53.266864" lon="-2.005770"><ele>524</ele><time>2021-11-13T12:20:51Z</time><name>PT5082</name></trkpt>
<trkpt lat="53.266854" lon="-2.005777"><ele>524</ele><time>2021-11-13T12:20:52Z</time><name>PT5083</name></trkpt>
<trkpt lat="53.266845" lon="-2.005785"><ele>524</ele><time>2021-11-13T12:20:53Z</time><name>PT5084</name></trkpt>
<trkpt lat="53.266835" lon="-2.005797"><ele>524</ele><time>2021-11-13T12:20:54Z</time><name>PT5085</name></trkpt>
<trkpt lat="53.266826" lon="-2.005806"><ele>524</ele><time>2021-11-13T12:20:55Z</time><name>PT5086</name></trkpt>
<trkpt lat="53.266814" lon="-2.005814"><ele>524</ele><time>2021-11-13T12:20:56Z</time><name>PT5087</name></trkpt>
<trkpt lat="53.266804" lon="-2.005822"><ele>524</ele><time>2021-11-13T12:20:57Z</time><name>PT5088</name></trkpt>
<trkpt lat="53.266793" lon="-2.005832"><ele>524</ele><time>2021-11-13T12:20:58Z</time><name>PT5089</name></trkpt>
<trkpt lat="53.266780" lon="-2.005844"><ele>524</ele><time>2021-11-13T12:20:59Z</time><name>PT5090</name></trkpt>
<trkpt lat="53.266770" lon="-2.005852"><ele>524</ele><time>2021-11-13T12:21:00Z</time><name>PT5091</name></trkpt>
<trkpt lat="53.266759" lon="-2.005864"><ele>524</ele><time>2021-11-13T12:21:01Z</time><name>PT5092</name></trkpt>
<trkpt lat="53.266746" lon="-2.005874"><ele>524</ele><time>2021-11-13T12:21:02Z</time><name>PT5093</name></trkpt>
<trkpt lat="53.266736" lon="-2.005880"><ele>524</ele><time>2021-11-13T12:21:03Z</time><name>PT5094</name></trkpt>
<trkpt lat="53.266725" lon="-2.005889"><ele>524</ele><time>2021-11-13T12:21:04Z</time><name>PT5095</name></trkpt>
<trkpt lat="53.266714" lon="-2.005896"><ele>524</ele><time>2021-11-13T12:21:05Z</time><name>PT5096</name></trkpt>
<trkpt lat="53.266702" lon="-2.005905"><ele>525</ele><time>2021-11-13T12:21:06Z</time><name>PT5097</name></trkpt>
<trkpt lat="53.266690" lon="-2.005916"><ele>525</ele><time>2021-11-13T12:21:07Z</time><name>PT5098</name></trkpt>
<trkpt lat="53.266679" lon="-2.005922"><ele>525</ele><time>2021-11-13T12:21:08Z</time><name>PT5099</name></trkpt>
<trkpt lat="53.266667" lon="-2.005930"><ele>525</ele><time>2021-11-13T12:21:09Z</time><name>PT5100</name></trkpt>
<trkpt lat="53.266657" lon="-2.005937"><ele>525</ele><time>2021-11-13T12:21:10Z</time><name>PT5101</name></trkpt>
<trkpt lat="53.266647" lon="-2.005945"><ele>525</ele><time>2021-11-13T12:21:11Z</time><name>PT5102</name></trkpt>
<trkpt lat="53.266635" lon="-2.005950"><ele>525</ele><time>2021-11-13T12:21:12Z</time><name>PT5103</name></trkpt>
<trkpt lat="53.266624" lon="-2.005956"><ele>526</ele><time>2021-11-13T12:21:13Z</time><name>PT5104</name></trkpt>
<trkpt lat="53.266613" lon="-2.005962"><ele>526</ele><time>2021-11-13T12:21:14Z</time><name>PT5105</name></trkpt>
<trkpt lat="53.266604" lon="-2.005970"><ele>526</ele><time>2021-11-13T12:21:15Z</time><name>PT5106</name></trkpt>
<trkpt lat="53.266593" lon="-2.005978"><ele>526</ele><time>2021-11-13T12:21:16Z</time><name>PT5107</name></trkpt>
<trkpt lat="53.266583" lon="-2.005986"><ele>526</ele><time>2021-11-13T12:21:17Z</time><name>PT5108</name></trkpt>
<trkpt lat="53.266573" lon="-2.005992"><ele>526</ele><time>2021-11-13T12:21:18Z</time><name>PT5109</name></trkpt>
<trkpt lat="53.266540" lon="-2.006021"><ele>526</ele><time>2021-11-13T12:21:21Z</time><name>PT5110</name></trkpt>
<trkpt lat="53.266501" lon="-2.006053"><ele>526</ele><time>2021-11-13T12:21:25Z</time><name>PT5111</name></trkpt>
<trkpt lat="53.266459" lon="-2.006083"><ele>527</ele><time>2021-11-13T12:21:29Z</time><name>PT5112</name></trkpt>
<trkpt lat="53.266417" lon="-2.006126"><ele>526</ele><time>2021-11-13T12:21:33Z</time><name>PT5113</name></trkpt>
<trkpt lat="53.266376" lon="-2.006165"><ele>527</ele><time>2021-11-13T12:21:37Z</time><name>PT5114</name></trkpt>
<trkpt lat="53.266331" lon="-2.006191"><ele>527</ele><time>2021-11-13T12:21:41Z</time><name>PT5115</name></trkpt>
<trkpt lat="53.266294" lon="-2.006233"><ele>527</ele><time>2021-11-13T12:21:45Z</time><name>PT5116</name></trkpt>
<trkpt lat="53.266254" lon="-2.006264"><ele>527</ele><time>2021-11-13T12:21:49Z</time><name>PT5117</name></trkpt>
<trkpt lat="53.266214" lon="-2.006300"><ele>528</ele><time>2021-11-13T12:21:53Z</time><name>PT5118</name></trkpt>
<trkpt lat="53.266190" lon="-2.006310"><ele>529</ele><time>2021-11-13T12:21:57Z</time><name>PT5119</name></trkpt>
<trkpt lat="53.266154" lon="-2.006341"><ele>528</ele><time>2021-11-13T12:22:01Z</time><name>PT5120</name></trkpt>
<trkpt lat="53.266111" lon="-2.006381"><ele>529</ele><time>2021-11-13T12:22:05Z</time><name>PT5121</name></trkpt>
<trkpt lat="53.266075" lon="-2.006431"><ele>529</ele><time>2021-11-13T12:22:09Z</time><name>PT5122</name></trkpt>
<trkpt lat="53.266040" lon="-2.006473"><ele>529</ele><time>2021-11-13T12:22:13Z</time><name>PT5123</name></trkpt>
<trkpt lat="53.266010" lon="-2.006492"><ele>529</ele><time>2021-11-13T12:22:18Z</time><name>PT5124</name></trkpt>
<trkpt lat="53.266010" lon="-2.006492"><ele>529</ele><time>2021-11-13T12:22:21Z</time><name>PT5125</name></trkpt>
<trkpt lat="53.265970" lon="-2.006510"><ele>530</ele><time>2021-11-13T12:22:25Z</time><name>PT5126</name></trkpt>
<trkpt lat="53.265922" lon="-2.006542"><ele>530</ele><time>2021-11-13T12:22:29Z</time><name>PT5127</name></trkpt>
<trkpt lat="53.265874" lon="-2.006550"><ele>530</ele><time>2021-11-13T12:22:33Z</time><name>PT5128</name></trkpt>
<trkpt lat="53.265827" lon="-2.006573"><ele>531</ele><time>2021-11-13T12:22:37Z</time><name>PT5129</name></trkpt>
<trkpt lat="53.265780" lon="-2.006599"><ele>531</ele><time>2021-11-13T12:22:41Z</time><name>PT5130</name></trkpt>
<trkpt lat="53.265737" lon="-2.006633"><ele>531</ele><time>2021-11-13T12:22:45Z</time><name>PT5131</name></trkpt>
<trkpt lat="53.265695" lon="-2.006676"><ele>531</ele><time>2021-11-13T12:22:49Z</time><name>PT5132</name></trkpt>
<trkpt lat="53.265653" lon="-2.006713"><ele>532</ele><time>2021-11-13T12:22:53Z</time><name>PT5133</name></trkpt>
<trkpt lat="53.265611" lon="-2.006739"><ele>532</ele><time>2021-11-13T12:22:57Z</time><name>PT5134</name></trkpt>
<trkpt lat="53.265567" lon="-2.006767"><ele>532</ele><time>2021-11-13T12:23:01Z</time><name>PT5135</name></trkpt>
<trkpt lat="53.265527" lon="-2.006793"><ele>532</ele><time>2021-11-13T12:23:05Z</time><name>PT5136</name></trkpt>
<trkpt lat="53.265484" lon="-2.006816"><ele>532</ele><time>2021-11-13T12:23:09Z</time><name>PT5137</name></trkpt>
<trkpt lat="53.265446" lon="-2.006849"><ele>533</ele><time>2021-11-13T12:23:13Z</time><name>PT5138</name></trkpt>
<trkpt lat="53.265404" lon="-2.006892"><ele>533</ele><time>2021-11-13T12:23:17Z</time><name>PT5139</name></trkpt>
<trkpt lat="53.265360" lon="-2.006912"><ele>534</ele><time>2021-11-13T12:23:21Z</time><name>PT5140</name></trkpt>
<trkpt lat="53.265314" lon="-2.006937"><ele>534</ele><time>2021-11-13T12:23:25Z</time><name>PT5141</name></trkpt>
<trkpt lat="53.265272" lon="-2.006968"><ele>534</ele><time>2021-11-13T12:23:29Z</time><name>PT5142</name></trkpt>
<trkpt lat="53.265231" lon="-2.007000"><ele>535</ele><time>2021-11-13T12:23:33Z</time><name>PT5143</name></trkpt>
<trkpt lat="53.265186" lon="-2.007031"><ele>536</ele><time>2021-11-13T12:23:37Z</time><name>PT5144</name></trkpt>
<trkpt lat="53.265143" lon="-2.007054"><ele>536</ele><time>2021-11-13T12:23:41Z</time><name>PT5145</name></trkpt>
<trkpt lat="53.265099" lon="-2.007049"><ele>537</ele><time>2021-11-13T12:23:45Z</time><name>PT5146</name></trkpt>
<trkpt lat="53.265050" lon="-2.007052"><ele>537</ele><time>2021-11-13T12:23:49Z</time><name>PT5147</name></trkpt>
<trkpt lat="53.265007" lon="-2.007090"><ele>538</ele><time>2021-11-13T12:23:53Z</time><name>PT5148</name></trkpt>
<trkpt lat="53.264969" lon="-2.007115"><ele>538</ele><time>2021-11-13T12:23:57Z</time><name>PT5149</name></trkpt>
<trkpt lat="53.264927" lon="-2.007126"><ele>539</ele><time>2021-11-13T12:24:01Z</time><name>PT5150</name></trkpt>
<trkpt lat="53.264899" lon="-2.007126"><ele>540</ele><time>2021-11-13T12:24:03Z</time><name>PT5151</name></trkpt>
<trkpt lat="53.264889" lon="-2.007129"><ele>540</ele><time>2021-11-13T12:24:04Z</time><name>PT5152</name></trkpt>
<trkpt lat="53.264879" lon="-2.007133"><ele>540</ele><time>2021-11-13T12:24:05Z</time><name>PT5153</name></trkpt>
<trkpt lat="53.264869" lon="-2.007137"><ele>539</ele><time>2021-11-13T12:24:06Z</time><name>PT5154</name></trkpt>
<trkpt lat="53.264859" lon="-2.007144"><ele>539</ele><time>2021-11-13T12:24:07Z</time><name>PT5155</name></trkpt>
<trkpt lat="53.264847" lon="-2.007153"><ele>539</ele><time>2021-11-13T12:24:08Z</time><name>PT5156</name></trkpt>
<trkpt lat="53.264838" lon="-2.007160"><ele>539</ele><time>2021-11-13T12:24:09Z</time><name>PT5157</name></trkpt>
<trkpt lat="53.264828" lon="-2.007168"><ele>539</ele><time>2021-11-13T12:24:10Z</time><name>PT5158</name></trkpt>
<trkpt lat="53.264818" lon="-2.007177"><ele>540</ele><time>2021-11-13T12:24:11Z</time><name>PT5159</name></trkpt>
<trkpt lat="53.264809" lon="-2.007184"><ele>540</ele><time>2021-11-13T12:24:12Z</time><name>PT5160</name></trkpt>
<trkpt lat="53.264808" lon="-2.007183"><ele>539</ele><time>2021-11-13T12:24:13Z</time><name>PT5161</name></trkpt>
<trkpt lat="53.264801" lon="-2.007189"><ele>540</ele><time>2021-11-13T12:24:14Z</time><name>PT5162</name></trkpt>
<trkpt lat="53.264795" lon="-2.007198"><ele>540</ele><time>2021-11-13T12:24:15Z</time><name>PT5163</name></trkpt>
<trkpt lat="53.264785" lon="-2.007210"><ele>540</ele><time>2021-11-13T12:24:16Z</time><name>PT5164</name></trkpt>
<trkpt lat="53.264773" lon="-2.007222"><ele>540</ele><time>2021-11-13T12:24:17Z</time><name>PT5165</name></trkpt>
<trkpt lat="53.264762" lon="-2.007234"><ele>540</ele><time>2021-11-13T12:24:18Z</time><name>PT5166</name></trkpt>
<trkpt lat="53.264752" lon="-2.007246"><ele>540</ele><time>2021-11-13T12:24:19Z</time><name>PT5167</name></trkpt>
<trkpt lat="53.264739" lon="-2.007258"><ele>540</ele><time>2021-11-13T12:24:20Z</time><name>PT5168</name></trkpt>
<trkpt lat="53.264729" lon="-2.007267"><ele>540</ele><time>2021-11-13T12:24:21Z</time><name>PT5169</name></trkpt>
<trkpt lat="53.264719" lon="-2.007274"><ele>541</ele><time>2021-11-13T12:24:22Z</time><name>PT5170</name></trkpt>
<trkpt lat="53.264706" lon="-2.007285"><ele>541</ele><time>2021-11-13T12:24:23Z</time><name>PT5171</name></trkpt>
<trkpt lat="53.264695" lon="-2.007295"><ele>541</ele><time>2021-11-13T12:24:24Z</time><name>PT5172</name></trkpt>
<trkpt lat="53.264684" lon="-2.007305"><ele>541</ele><time>2021-11-13T12:24:25Z</time><name>PT5173</name></trkpt>
<trkpt lat="53.264672" lon="-2.007315"><ele>541</ele><time>2021-11-13T12:24:26Z</time><name>PT5174</name></trkpt>
<trkpt lat="53.264662" lon="-2.007325"><ele>541</ele><time>2021-11-13T12:24:27Z</time><name>PT5175</name></trkpt>
<trkpt lat="53.264652" lon="-2.007335"><ele>541</ele><time>2021-11-13T12:24:28Z</time><name>PT5176</name></trkpt>
<trkpt lat="53.264640" lon="-2.007344"><ele>541</ele><time>2021-11-13T12:24:29Z</time><name>PT5177</name></trkpt>
<trkpt lat="53.264629" lon="-2.007355"><ele>541</ele><time>2021-11-13T12:24:30Z</time><name>PT5178</name></trkpt>
<trkpt lat="53.264618" lon="-2.007367"><ele>541</ele><time>2021-11-13T12:24:31Z</time><name>PT5179</name></trkpt>
<trkpt lat="53.264607" lon="-2.007375"><ele>541</ele><time>2021-11-13T12:24:32Z</time><name>PT5180</name></trkpt>
<trkpt lat="53.264596" lon="-2.007381"><ele>540</ele><time>2021-11-13T12:24:33Z</time><name>PT5181</name></trkpt>
<trkpt lat="53.264585" lon="-2.007386"><ele>541</ele><time>2021-11-13T12:24:34Z</time><name>PT5182</name></trkpt>
<trkpt lat="53.264572" lon="-2.007393"><ele>541</ele><time>2021-11-13T12:24:35Z</time><name>PT5183</name></trkpt>
<trkpt lat="53.264559" lon="-2.007399"><ele>541</ele><time>2021-11-13T12:24:36Z</time><name>PT5184</name></trkpt>
<trkpt lat="53.264549" lon="-2.007405"><ele>541</ele><time>2021-11-13T12:24:37Z</time><name>PT5185</name></trkpt>
<trkpt lat="53.264537" lon="-2.007410"><ele>541</ele><time>2021-11-13T12:24:38Z</time><name>PT5186</name></trkpt>
<trkpt lat="53.264524" lon="-2.007414"><ele>541</ele><time>2021-11-13T12:24:39Z</time><name>PT5187</name></trkpt>
<trkpt lat="53.264514" lon="-2.007416"><ele>541</ele><time>2021-11-13T12:24:40Z</time><name>PT5188</name></trkpt>
<trkpt lat="53.264503" lon="-2.007420"><ele>541</ele><time>2021-11-13T12:24:41Z</time><name>PT5189</name></trkpt>
<trkpt lat="53.264491" lon="-2.007425"><ele>541</ele><time>2021-11-13T12:24:42Z</time><name>PT5190</name></trkpt>
<trkpt lat="53.264480" lon="-2.007430"><ele>541</ele><time>2021-11-13T12:24:43Z</time><name>PT5191</name></trkpt>
<trkpt lat="53.264468" lon="-2.007434"><ele>542</ele><time>2021-11-13T12:24:44Z</time><name>PT5192</name></trkpt>
<trkpt lat="53.264454" lon="-2.007438"><ele>542</ele><time>2021-11-13T12:24:45Z</time><name>PT5193</name></trkpt>
<trkpt lat="53.264443" lon="-2.007442"><ele>542</ele><time>2021-11-13T12:24:46Z</time><name>PT5194</name></trkpt>
<trkpt lat="53.264433" lon="-2.007446"><ele>542</ele><time>2021-11-13T12:24:47Z</time><name>PT5195</name></trkpt>
<trkpt lat="53.264421" lon="-2.007451"><ele>542</ele><time>2021-11-13T12:24:48Z</time><name>PT5196</name></trkpt>
<trkpt lat="53.264410" lon="-2.007456"><ele>541</ele><time>2021-11-13T12:24:49Z</time><name>PT5197</name></trkpt>
<trkpt lat="53.264400" lon="-2.007461"><ele>541</ele><time>2021-11-13T12:24:50Z</time><name>PT5198</name></trkpt>
<trkpt lat="53.264388" lon="-2.007467"><ele>542</ele><time>2021-11-13T12:24:51Z</time><name>PT5199</name></trkpt>
<trkpt lat="53.264376" lon="-2.007472"><ele>542</ele><time>2021-11-13T12:24:52Z</time><name>PT5200</name></trkpt>
<trkpt lat="53.264366" lon="-2.007476"><ele>542</ele><time>2021-11-13T12:24:53Z</time><name>PT5201</name></trkpt>
<trkpt lat="53.264355" lon="-2.007480"><ele>542</ele><time>2021-11-13T12:24:54Z</time><name>PT5202</name></trkpt>
<trkpt lat="53.264343" lon="-2.007484"><ele>542</ele><time>2021-11-13T12:24:55Z</time><name>PT5203</name></trkpt>
<trkpt lat="53.264330" lon="-2.007489"><ele>542</ele><time>2021-11-13T12:24:56Z</time><name>PT5204</name></trkpt>
<trkpt lat="53.264319" lon="-2.007496"><ele>542</ele><time>2021-11-13T12:24:57Z</time><name>PT5205</name></trkpt>
<trkpt lat="53.264307" lon="-2.007502"><ele>542</ele><time>2021-11-13T12:24:58Z</time><name>PT5206</name></trkpt>
<trkpt lat="53.264298" lon="-2.007508"><ele>542</ele><time>2021-11-13T12:24:59Z</time><name>PT5207</name></trkpt>
<trkpt lat="53.264287" lon="-2.007512"><ele>541</ele><time>2021-11-13T12:25:00Z</time><name>PT5208</name></trkpt>
<trkpt lat="53.264277" lon="-2.007518"><ele>541</ele><time>2021-11-13T12:25:01Z</time><name>PT5209</name></trkpt>
<trkpt lat="53.264267" lon="-2.007522"><ele>542</ele><time>2021-11-13T12:25:02Z</time><name>PT5210</name></trkpt>
<trkpt lat="53.264256" lon="-2.007527"><ele>542</ele><time>2021-11-13T12:25:03Z</time><name>PT5211</name></trkpt>
<trkpt lat="53.264244" lon="-2.007534"><ele>542</ele><time>2021-11-13T12:25:04Z</time><name>PT5212</name></trkpt>
<trkpt lat="53.264235" lon="-2.007541"><ele>542</ele><time>2021-11-13T12:25:05Z</time><name>PT5213</name></trkpt>
<trkpt lat="53.264225" lon="-2.007547"><ele>542</ele><time>2021-11-13T12:25:06Z</time><name>PT5214</name></trkpt>
<trkpt lat="53.264217" lon="-2.007555"><ele>542</ele><time>2021-11-13T12:25:07Z</time><name>PT5215</name></trkpt>
<trkpt lat="53.264202" lon="-2.007566"><ele>542</ele><time>2021-11-13T12:25:08Z</time><name>PT5216</name></trkpt>
<trkpt lat="53.264189" lon="-2.007575"><ele>543</ele><time>2021-11-13T12:25:09Z</time><name>PT5217</name></trkpt>
<trkpt lat="53.264179" lon="-2.007586"><ele>543</ele><time>2021-11-13T12:25:10Z</time><name>PT5218</name></trkpt>
<trkpt lat="53.264169" lon="-2.007599"><ele>543</ele><time>2021-11-13T12:25:11Z</time><name>PT5219</name></trkpt>
<trkpt lat="53.264157" lon="-2.007611"><ele>543</ele><time>2021-11-13T12:25:12Z</time><name>PT5220</name></trkpt>
<trkpt lat="53.264147" lon="-2.007618"><ele>544</ele><time>2021-11-13T12:25:13Z</time><name>PT5221</name></trkpt>
<trkpt lat="53.264137" lon="-2.007627"><ele>544</ele><time>2021-11-13T12:25:14Z</time><name>PT5222</name></trkpt>
<trkpt lat="53.264125" lon="-2.007638"><ele>544</ele><time>2021-11-13T12:25:15Z</time><name>PT5223</name></trkpt>
<trkpt lat="53.264116" lon="-2.007648"><ele>544</ele><time>2021-11-13T12:25:16Z</time><name>PT5224</name></trkpt>
<trkpt lat="53.264105" lon="-2.007657"><ele>544</ele><time>2021-11-13T12:25:17Z</time><name>PT5225</name></trkpt>
<trkpt lat="53.264092" lon="-2.007664"><ele>544</ele><time>2021-11-13T12:25:18Z</time><name>PT5226</name></trkpt>
<trkpt lat="53.264080" lon="-2.007670"><ele>544</ele><time>2021-11-13T12:25:19Z</time><name>PT5227</name></trkpt>
<trkpt lat="53.264068" lon="-2.007673"><ele>544</ele><time>2021-11-13T12:25:20Z</time><name>PT5228</name></trkpt>
<trkpt lat="53.264054" lon="-2.007677"><ele>544</ele><time>2021-11-13T12:25:21Z</time><name>PT5229</name></trkpt>
<trkpt lat="53.264041" lon="-2.007682"><ele>543</ele><time>2021-11-13T12:25:22Z</time><name>PT5230</name></trkpt>
<trkpt lat="53.264030" lon="-2.007685"><ele>543</ele><time>2021-11-13T12:25:23Z</time><name>PT5231</name></trkpt>
<trkpt lat="53.264016" lon="-2.007688"><ele>544</ele><time>2021-11-13T12:25:24Z</time><name>PT5232</name></trkpt>
<trkpt lat="53.264004" lon="-2.007688"><ele>544</ele><time>2021-11-13T12:25:25Z</time><name>PT5233</name></trkpt>
<trkpt lat="53.263994" lon="-2.007687"><ele>544</ele><time>2021-11-13T12:25:26Z</time><name>PT5234</name></trkpt>
<trkpt lat="53.263982" lon="-2.007691"><ele>544</ele><time>2021-11-13T12:25:27Z</time><name>PT5235</name></trkpt>
<trkpt lat="53.263971" lon="-2.007698"><ele>544</ele><time>2021-11-13T12:25:28Z</time><name>PT5236</name></trkpt>
<trkpt lat="53.263962" lon="-2.007702"><ele>544</ele><time>2021-11-13T12:25:29Z</time><name>PT5237</name></trkpt>
<trkpt lat="53.263951" lon="-2.007710"><ele>544</ele><time>2021-11-13T12:25:30Z</time><name>PT5238</name></trkpt>
<trkpt lat="53.263941" lon="-2.007718"><ele>544</ele><time>2021-11-13T12:25:31Z</time><name>PT5239</name></trkpt>
<trkpt lat="53.263929" lon="-2.007725"><ele>545</ele><time>2021-11-13T12:25:32Z</time><name>PT5240</name></trkpt>
<trkpt lat="53.263918" lon="-2.007731"><ele>545</ele><time>2021-11-13T12:25:33Z</time><name>PT5241</name></trkpt>
<trkpt lat="53.263907" lon="-2.007737"><ele>545</ele><time>2021-11-13T12:25:34Z</time><name>PT5242</name></trkpt>
<trkpt lat="53.263897" lon="-2.007745"><ele>545</ele><time>2021-11-13T12:25:35Z</time><name>PT5243</name></trkpt>
<trkpt lat="53.263883" lon="-2.007755"><ele>545</ele><time>2021-11-13T12:25:36Z</time><name>PT5244</name></trkpt>
<trkpt lat="53.263874" lon="-2.007763"><ele>545</ele><time>2021-11-13T12:25:37Z</time><name>PT5245</name></trkpt>
<trkpt lat="53.263865" lon="-2.007772"><ele>545</ele><time>2021-11-13T12:25:38Z</time><name>PT5246</name></trkpt>
<trkpt lat="53.263853" lon="-2.007784"><ele>545</ele><time>2021-11-13T12:25:39Z</time><name>PT5247</name></trkpt>
<trkpt lat="53.263844" lon="-2.007794"><ele>545</ele><time>2021-11-13T12:25:40Z</time><name>PT5248</name></trkpt>
<trkpt lat="53.263834" lon="-2.007803"><ele>545</ele><time>2021-11-13T12:25:41Z</time><name>PT5249</name></trkpt>
<trkpt lat="53.263823" lon="-2.007811"><ele>545</ele><time>2021-11-13T12:25:42Z</time><name>PT5250</name></trkpt>
<trkpt lat="53.263813" lon="-2.007816"><ele>545</ele><time>2021-11-13T12:25:43Z</time><name>PT5251</name></trkpt>
<trkpt lat="53.263802" lon="-2.007821"><ele>545</ele><time>2021-11-13T12:25:44Z</time><name>PT5252</name></trkpt>
<trkpt lat="53.263788" lon="-2.007829"><ele>545</ele><time>2021-11-13T12:25:45Z</time><name>PT5253</name></trkpt>
<trkpt lat="53.263775" lon="-2.007838"><ele>545</ele><time>2021-11-13T12:25:46Z</time><name>PT5254</name></trkpt>
<trkpt lat="53.263763" lon="-2.007848"><ele>546</ele><time>2021-11-13T12:25:47Z</time><name>PT5255</name></trkpt>
<trkpt lat="53.263751" lon="-2.007856"><ele>545</ele><time>2021-11-13T12:25:48Z</time><name>PT5256</name></trkpt>
<trkpt lat="53.263741" lon="-2.007862"><ele>545</ele><time>2021-11-13T12:25:49Z</time><name>PT5257</name></trkpt>
<trkpt lat="53.263730" lon="-2.007866"><ele>545</ele><time>2021-11-13T12:25:50Z</time><name>PT5258</name></trkpt>
<trkpt lat="53.263718" lon="-2.007872"><ele>545</ele><time>2021-11-13T12:25:51Z</time><name>PT5259</name></trkpt>
<trkpt lat="53.263705" lon="-2.007878"><ele>546</ele><time>2021-11-13T12:25:52Z</time><name>PT5260</name></trkpt>
<trkpt lat="53.263693" lon="-2.007886"><ele>546</ele><time>2021-11-13T12:25:53Z</time><name>PT5261</name></trkpt>
<trkpt lat="53.263680" lon="-2.007895"><ele>546</ele><time>2021-11-13T12:25:54Z</time><name>PT5262</name></trkpt>
<trkpt lat="53.263667" lon="-2.007905"><ele>546</ele><time>2021-11-13T12:25:55Z</time><name>PT5263</name></trkpt>
<trkpt lat="53.263656" lon="-2.007910"><ele>546</ele><time>2021-11-13T12:25:56Z</time><name>PT5264</name></trkpt>
<trkpt lat="53.263645" lon="-2.007916"><ele>546</ele><time>2021-11-13T12:25:57Z</time><name>PT5265</name></trkpt>
<trkpt lat="53.263632" lon="-2.007922"><ele>546</ele><time>2021-11-13T12:25:58Z</time><name>PT5266</name></trkpt>
<trkpt lat="53.263622" lon="-2.007929"><ele>546</ele><time>2021-11-13T12:25:59Z</time><name>PT5267</name></trkpt>
<trkpt lat="53.263609" lon="-2.007940"><ele>546</ele><time>2021-11-13T12:26:00Z</time><name>PT5268</name></trkpt>
<trkpt lat="53.263598" lon="-2.007946"><ele>546</ele><time>2021-11-13T12:26:01Z</time><name>PT5269</name></trkpt>
<trkpt lat="53.263589" lon="-2.007950"><ele>546</ele><time>2021-11-13T12:26:02Z</time><name>PT5270</name></trkpt>
<trkpt lat="53.263554" lon="-2.007970"><ele>546</ele><time>2021-11-13T12:26:05Z</time><name>PT5271</name></trkpt>
<trkpt lat="53.263509" lon="-2.007998"><ele>546</ele><time>2021-11-13T12:26:09Z</time><name>PT5272</name></trkpt>
<trkpt lat="53.263466" lon="-2.008018"><ele>546</ele><time>2021-11-13T12:26:13Z</time><name>PT5273</name></trkpt>
<trkpt lat="53.263417" lon="-2.008025"><ele>547</ele><time>2021-11-13T12:26:17Z</time><name>PT5274</name></trkpt>
<trkpt lat="53.263374" lon="-2.008033"><ele>546</ele><time>2021-11-13T12:26:21Z</time><name>PT5275</name></trkpt>
<trkpt lat="53.263328" lon="-2.008053"><ele>547</ele><time>2021-11-13T12:26:25Z</time><name>PT5276</name></trkpt>
<trkpt lat="53.263285" lon="-2.008052"><ele>547</ele><time>2021-11-13T12:26:29Z</time><name>PT5277</name></trkpt>
<trkpt lat="53.263234" lon="-2.008061"><ele>547</ele><time>2021-11-13T12:26:33Z</time><name>PT5278</name></trkpt>
<trkpt lat="53.263184" lon="-2.008082"><ele>547</ele><time>2021-11-13T12:26:37Z</time><name>PT5279</name></trkpt>
<trkpt lat="53.263134" lon="-2.008108"><ele>548</ele><time>2021-11-13T12:26:41Z</time><name>PT5280</name></trkpt>
<trkpt lat="53.263092" lon="-2.008127"><ele>548</ele><time>2021-11-13T12:26:45Z</time><name>PT5281</name></trkpt>
<trkpt lat="53.263055" lon="-2.008150"><ele>549</ele><time>2021-11-13T12:26:49Z</time><name>PT5282</name></trkpt>
<trkpt lat="53.263009" lon="-2.008182"><ele>549</ele><time>2021-11-13T12:26:53Z</time><name>PT5283</name></trkpt>
<trkpt lat="53.262970" lon="-2.008196"><ele>548</ele><time>2021-11-13T12:26:57Z</time><name>PT5284</name></trkpt>
<trkpt lat="53.262921" lon="-2.008199"><ele>549</ele><time>2021-11-13T12:27:01Z</time><name>PT5285</name></trkpt>
<trkpt lat="53.262873" lon="-2.008214"><ele>549</ele><time>2021-11-13T12:27:05Z</time><name>PT5286</name></trkpt>
<trkpt lat="53.262828" lon="-2.008245"><ele>549</ele><time>2021-11-13T12:27:09Z</time><name>PT5287</name></trkpt>
<trkpt lat="53.262792" lon="-2.008274"><ele>550</ele><time>2021-11-13T12:27:13Z</time><name>PT5288</name></trkpt>
<trkpt lat="53.262751" lon="-2.008306"><ele>550</ele><time>2021-11-13T12:27:17Z</time><name>PT5289</name></trkpt>
<trkpt lat="53.262698" lon="-2.008341"><ele>551</ele><time>2021-11-13T12:27:21Z</time><name>PT5290</name></trkpt>
<trkpt lat="53.262651" lon="-2.008365"><ele>551</ele><time>2021-11-13T12:27:25Z</time><name>PT5291</name></trkpt>
<trkpt lat="53.262602" lon="-2.008394"><ele>552</ele><time>2021-11-13T12:27:29Z</time><name>PT5292</name></trkpt>
<trkpt lat="53.262552" lon="-2.008404"><ele>552</ele><time>2021-11-13T12:27:33Z</time><name>PT5293</name></trkpt>
<trkpt lat="53.262502" lon="-2.008415"><ele>552</ele><time>2021-11-13T12:27:37Z</time><name>PT5294</name></trkpt>
<trkpt lat="53.262455" lon="-2.008437"><ele>552</ele><time>2021-11-13T12:27:41Z</time><name>PT5295</name></trkpt>
<trkpt lat="53.262412" lon="-2.008460"><ele>552</ele><time>2021-11-13T12:27:45Z</time><name>PT5296</name></trkpt>
<trkpt lat="53.262365" lon="-2.008489"><ele>553</ele><time>2021-11-13T12:27:49Z</time><name>PT5297</name></trkpt>
<trkpt lat="53.262319" lon="-2.008507"><ele>552</ele><time>2021-11-13T12:27:53Z</time><name>PT5298</name></trkpt>
<trkpt lat="53.262274" lon="-2.008531"><ele>552</ele><time>2021-11-13T12:27:57Z</time><name>PT5299</name></trkpt>
<trkpt lat="53.262222" lon="-2.008561"><ele>553</ele><time>2021-11-13T12:28:01Z</time><name>PT5300</name></trkpt>
<trkpt lat="53.262168" lon="-2.008582"><ele>555</ele><time>2021-11-13T12:28:05Z</time><name>PT5301</name></trkpt>
<trkpt lat="53.262124" lon="-2.008592"><ele>555</ele><time>2021-11-13T12:28:09Z</time><name>PT5302</name></trkpt>
<trkpt lat="53.262078" lon="-2.008595"><ele>556</ele><time>2021-11-13T12:28:13Z</time><name>PT5303</name></trkpt>
<trkpt lat="53.262025" lon="-2.008610"><ele>557</ele><time>2021-11-13T12:28:17Z</time><name>PT5304</name></trkpt>
<trkpt lat="53.261975" lon="-2.008618"><ele>557</ele><time>2021-11-13T12:28:21Z</time><name>PT5305</name></trkpt>
<trkpt lat="53.261924" lon="-2.008624"><ele>557</ele><time>2021-11-13T12:28:25Z</time><name>PT5306</name></trkpt>
<trkpt lat="53.261876" lon="-2.008633"><ele>558</ele><time>2021-11-13T12:28:29Z</time><name>PT5307</name></trkpt>
<trkpt lat="53.261829" lon="-2.008618"><ele>558</ele><time>2021-11-13T12:28:33Z</time><name>PT5308</name></trkpt>
<trkpt lat="53.261810" lon="-2.008616"><ele>558</ele><time>2021-11-13T12:28:35Z</time><name>PT5309</name></trkpt>
<trkpt lat="53.261802" lon="-2.008615"><ele>558</ele><time>2021-11-13T12:28:36Z</time><name>PT5310</name></trkpt>
<trkpt lat="53.261786" lon="-2.008616"><ele>558</ele><time>2021-11-13T12:28:37Z</time><name>PT5311</name></trkpt>
<trkpt lat="53.261767" lon="-2.008620"><ele>558</ele><time>2021-11-13T12:28:38Z</time><name>PT5312</name></trkpt>
<trkpt lat="53.261756" lon="-2.008623"><ele>557</ele><time>2021-11-13T12:28:39Z</time><name>PT5313</name></trkpt>
<trkpt lat="53.261740" lon="-2.008629"><ele>558</ele><time>2021-11-13T12:28:40Z</time><name>PT5314</name></trkpt>
<trkpt lat="53.261727" lon="-2.008637"><ele>558</ele><time>2021-11-13T12:28:41Z</time><name>PT5315</name></trkpt>
<trkpt lat="53.261718" lon="-2.008649"><ele>558</ele><time>2021-11-13T12:28:42Z</time><name>PT5316</name></trkpt>
<trkpt lat="53.261709" lon="-2.008662"><ele>558</ele><time>2021-11-13T12:28:43Z</time><name>PT5317</name></trkpt>
<trkpt lat="53.261697" lon="-2.008670"><ele>558</ele><time>2021-11-13T12:28:44Z</time><name>PT5318</name></trkpt>
<trkpt lat="53.261687" lon="-2.008680"><ele>558</ele><time>2021-11-13T12:28:45Z</time><name>PT5319</name></trkpt>
<trkpt lat="53.261679" lon="-2.008689"><ele>558</ele><time>2021-11-13T12:28:46Z</time><name>PT5320</name></trkpt>
<trkpt lat="53.261669" lon="-2.008699"><ele>558</ele><time>2021-11-13T12:28:47Z</time><name>PT5321</name></trkpt>
<trkpt lat="53.261662" lon="-2.008707"><ele>558</ele><time>2021-11-13T12:28:48Z</time><name>PT5322</name></trkpt>
<trkpt lat="53.261654" lon="-2.008720"><ele>558</ele><time>2021-11-13T12:28:49Z</time><name>PT5323</name></trkpt>
<trkpt lat="53.261645" lon="-2.008727"><ele>559</ele><time>2021-11-13T12:28:50Z</time><name>PT5324</name></trkpt>
<trkpt lat="53.261633" lon="-2.008735"><ele>559</ele><time>2021-11-13T12:28:51Z</time><name>PT5325</name></trkpt>
<trkpt lat="53.261625" lon="-2.008745"><ele>559</ele><time>2021-11-13T12:28:52Z</time><name>PT5326</name></trkpt>
<trkpt lat="53.261617" lon="-2.008760"><ele>558</ele><time>2021-11-13T12:28:53Z</time><name>PT5327</name></trkpt>
<trkpt lat="53.261606" lon="-2.008775"><ele>558</ele><time>2021-11-13T12:28:54Z</time><name>PT5328</name></trkpt>
<trkpt lat="53.261596" lon="-2.008788"><ele>558</ele><time>2021-11-13T12:28:55Z</time><name>PT5329</name></trkpt>
<trkpt lat="53.261586" lon="-2.008799"><ele>558</ele><time>2021-11-13T12:28:56Z</time><name>PT5330</name></trkpt>
<trkpt lat="53.261576" lon="-2.008815"><ele>558</ele><time>2021-11-13T12:28:57Z</time><name>PT5331</name></trkpt>
<trkpt lat="53.261569" lon="-2.008826"><ele>558</ele><time>2021-11-13T12:28:58Z</time><name>PT5332</name></trkpt>
<trkpt lat="53.261563" lon="-2.008840"><ele>558</ele><time>2021-11-13T12:28:59Z</time><name>PT5333</name></trkpt>
<trkpt lat="53.261554" lon="-2.008851"><ele>558</ele><time>2021-11-13T12:29:00Z</time><name>PT5334</name></trkpt>
<trkpt lat="53.261545" lon="-2.008863"><ele>558</ele><time>2021-11-13T12:29:01Z</time><name>PT5335</name></trkpt>
<trkpt lat="53.261535" lon="-2.008875"><ele>558</ele><time>2021-11-13T12:29:02Z</time><name>PT5336</name></trkpt>
<trkpt lat="53.261526" lon="-2.008886"><ele>558</ele><time>2021-11-13T12:29:03Z</time><name>PT5337</name></trkpt>
<trkpt lat="53.261515" lon="-2.008900"><ele>559</ele><time>2021-11-13T12:29:04Z</time><name>PT5338</name></trkpt>
<trkpt lat="53.261505" lon="-2.008911"><ele>559</ele><time>2021-11-13T12:29:05Z</time><name>PT5339</name></trkpt>
<trkpt lat="53.261496" lon="-2.008923"><ele>559</ele><time>2021-11-13T12:29:06Z</time><name>PT5340</name></trkpt>
<trkpt lat="53.261487" lon="-2.008929"><ele>559</ele><time>2021-11-13T12:29:07Z</time><name>PT5341</name></trkpt>
<trkpt lat="53.261477" lon="-2.008937"><ele>559</ele><time>2021-11-13T12:29:08Z</time><name>PT5342</name></trkpt>
<trkpt lat="53.261465" lon="-2.008944"><ele>559</ele><time>2021-11-13T12:29:09Z</time><name>PT5343</name></trkpt>
<trkpt lat="53.261452" lon="-2.008952"><ele>559</ele><time>2021-11-13T12:29:10Z</time><name>PT5344</name></trkpt>
<trkpt lat="53.261441" lon="-2.008960"><ele>558</ele><time>2021-11-13T12:29:11Z</time><name>PT5345</name></trkpt>
<trkpt lat="53.261432" lon="-2.008970"><ele>558</ele><time>2021-11-13T12:29:12Z</time><name>PT5346</name></trkpt>
<trkpt lat="53.261423" lon="-2.008983"><ele>559</ele><time>2021-11-13T12:29:13Z</time><name>PT5347</name></trkpt>
<trkpt lat="53.261414" lon="-2.008992"><ele>559</ele><time>2021-11-13T12:29:14Z</time><name>PT5348</name></trkpt>
<trkpt lat="53.261403" lon="-2.008996"><ele>559</ele><time>2021-11-13T12:29:15Z</time><name>PT5349</name></trkpt>
<trkpt lat="53.261392" lon="-2.009000"><ele>559</ele><time>2021-11-13T12:29:16Z</time><name>PT5350</name></trkpt>
<trkpt lat="53.261383" lon="-2.009007"><ele>559</ele><time>2021-11-13T12:29:17Z</time><name>PT5351</name></trkpt>
<trkpt lat="53.261372" lon="-2.009011"><ele>559</ele><time>2021-11-13T12:29:18Z</time><name>PT5352</name></trkpt>
<trkpt lat="53.261359" lon="-2.009016"><ele>559</ele><time>2021-11-13T12:29:19Z</time><name>PT5353</name></trkpt>
<trkpt lat="53.261345" lon="-2.009023"><ele>559</ele><time>2021-11-13T12:29:20Z</time><name>PT5354</name></trkpt>
<trkpt lat="53.261333" lon="-2.009034"><ele>560</ele><time>2021-11-13T12:29:21Z</time><name>PT5355</name></trkpt>
<trkpt lat="53.261319" lon="-2.009044"><ele>559</ele><time>2021-11-13T12:29:22Z</time><name>PT5356</name></trkpt>
<trkpt lat="53.261309" lon="-2.009050"><ele>559</ele><time>2021-11-13T12:29:23Z</time><name>PT5357</name></trkpt>
<trkpt lat="53.261297" lon="-2.009054"><ele>559</ele><time>2021-11-13T12:29:24Z</time><name>PT5358</name></trkpt>
<trkpt lat="53.261286" lon="-2.009064"><ele>559</ele><time>2021-11-13T12:29:25Z</time><name>PT5359</name></trkpt>
<trkpt lat="53.261277" lon="-2.009074"><ele>559</ele><time>2021-11-13T12:29:26Z</time><name>PT5360</name></trkpt>
<trkpt lat="53.261270" lon="-2.009078"><ele>559</ele><time>2021-11-13T12:29:27Z</time><name>PT5361</name></trkpt>
<trkpt lat="53.261266" lon="-2.009084"><ele>559</ele><time>2021-11-13T12:29:28Z</time><name>PT5362</name></trkpt>
<trkpt lat="53.261261" lon="-2.009084"><ele>559</ele><time>2021-11-13T12:29:29Z</time><name>PT5363</name></trkpt>
<trkpt lat="53.261260" lon="-2.009083"><ele>559</ele><time>2021-11-13T12:29:30Z</time><name>PT5364</name></trkpt>
<trkpt lat="53.261255" lon="-2.009082"><ele>560</ele><time>2021-11-13T12:29:31Z</time><name>PT5365</name></trkpt>
<trkpt lat="53.261249" lon="-2.009081"><ele>560</ele><time>2021-11-13T12:29:32Z</time><name>PT5366</name></trkpt>
<trkpt lat="53.261240" lon="-2.009082"><ele>560</ele><time>2021-11-13T12:29:33Z</time><name>PT5367</name></trkpt>
<trkpt lat="53.261231" lon="-2.009085"><ele>560</ele><time>2021-11-13T12:29:34Z</time><name>PT5368</name></trkpt>
<trkpt lat="53.261217" lon="-2.009089"><ele>561</ele><time>2021-11-13T12:29:35Z</time><name>PT5369</name></trkpt>
<trkpt lat="53.261205" lon="-2.009094"><ele>562</ele><time>2021-11-13T12:29:36Z</time><name>PT5370</name></trkpt>
<trkpt lat="53.261199" lon="-2.009098"><ele>561</ele><time>2021-11-13T12:29:37Z</time><name>PT5371</name></trkpt>
<trkpt lat="53.261197" lon="-2.009097"><ele>561</ele><time>2021-11-13T12:29:38Z</time><name>PT5372</name></trkpt>
<trkpt lat="53.261199" lon="-2.009097"><ele>562</ele><time>2021-11-13T12:29:39Z</time><name>PT5373</name></trkpt>
<trkpt lat="53.261198" lon="-2.009097"><ele>562</ele><time>2021-11-13T12:29:40Z</time><name>PT5374</name></trkpt>
<trkpt lat="53.261197" lon="-2.009099"><ele>562</ele><time>2021-11-13T12:29:43Z</time><name>PT5375</name></trkpt>
<trkpt lat="53.261183" lon="-2.009114"><ele>562</ele><time>2021-11-13T12:29:44Z</time><name>PT5376</name></trkpt>
<trkpt lat="53.261179" lon="-2.009115"><ele>562</ele><time>2021-11-13T12:29:45Z</time><name>PT5377</name></trkpt>
<trkpt lat="53.261170" lon="-2.009120"><ele>561</ele><time>2021-11-13T12:29:46Z</time><name>PT5378</name></trkpt>
<trkpt lat="53.261164" lon="-2.009123"><ele>561</ele><time>2021-11-13T12:29:47Z</time><name>PT5379</name></trkpt>
<trkpt lat="53.261162" lon="-2.009127"><ele>561</ele><time>2021-11-13T12:29:48Z</time><name>PT5380</name></trkpt>
<trkpt lat="53.261162" lon="-2.009133"><ele>561</ele><time>2021-11-13T12:29:49Z</time><name>PT5381</name></trkpt>
<trkpt lat="53.261155" lon="-2.009138"><ele>562</ele><time>2021-11-13T12:29:50Z</time><name>PT5382</name></trkpt>
<trkpt lat="53.261157" lon="-2.009135"><ele>562</ele><time>2021-11-13T12:29:51Z</time><name>PT5383</name></trkpt>
<trkpt lat="53.261155" lon="-2.009137"><ele>562</ele><time>2021-11-13T12:29:52Z</time><name>PT5384</name></trkpt>
<trkpt lat="53.261155" lon="-2.009138"><ele>562</ele><time>2021-11-13T12:29:53Z</time><name>PT5385</name></trkpt>
<trkpt lat="53.261153" lon="-2.009140"><ele>562</ele><time>2021-11-13T12:30:05Z</time><name>PT5386</name></trkpt>
<trkpt lat="53.261153" lon="-2.009141"><ele>562</ele><time>2021-11-13T12:30:06Z</time><name>PT5387</name></trkpt>
<trkpt lat="53.261153" lon="-2.009142"><ele>562</ele><time>2021-11-13T12:30:07Z</time><name>PT5388</name></trkpt>
<trkpt lat="53.261153" lon="-2.009144"><ele>562</ele><time>2021-11-13T12:30:08Z</time><name>PT5389</name></trkpt>
<trkpt lat="53.261153" lon="-2.009144"><ele>562</ele><time>2021-11-13T12:30:09Z</time><name>PT5390</name></trkpt>
<trkpt lat="53.261151" lon="-2.009145"><ele>562</ele><time>2021-11-13T12:30:16Z</time><name>PT5391</name></trkpt>
<trkpt lat="53.261137" lon="-2.009149"><ele>562</ele><time>2021-11-13T12:30:17Z</time><name>PT5392</name></trkpt>
<trkpt lat="53.261122" lon="-2.009158"><ele>562</ele><time>2021-11-13T12:30:18Z</time><name>PT5393</name></trkpt>
<trkpt lat="53.261110" lon="-2.009166"><ele>562</ele><time>2021-11-13T12:30:19Z</time><name>PT5394</name></trkpt>
<trkpt lat="53.261098" lon="-2.009175"><ele>562</ele><time>2021-11-13T12:30:20Z</time><name>PT5395</name></trkpt>
<trkpt lat="53.261085" lon="-2.009183"><ele>562</ele><time>2021-11-13T12:30:21Z</time><name>PT5396</name></trkpt>
<trkpt lat="53.261072" lon="-2.009191"><ele>562</ele><time>2021-11-13T12:30:22Z</time><name>PT5397</name></trkpt>
<trkpt lat="53.261059" lon="-2.009193"><ele>562</ele><time>2021-11-13T12:30:23Z</time><name>PT5398</name></trkpt>
<trkpt lat="53.261047" lon="-2.009197"><ele>562</ele><time>2021-11-13T12:30:24Z</time><name>PT5399</name></trkpt>
<trkpt lat="53.261037" lon="-2.009205"><ele>561</ele><time>2021-11-13T12:30:25Z</time><name>PT5400</name></trkpt>
<trkpt lat="53.261023" lon="-2.009210"><ele>561</ele><time>2021-11-13T12:30:26Z</time><name>PT5401</name></trkpt>
<trkpt lat="53.261014" lon="-2.009215"><ele>561</ele><time>2021-11-13T12:30:27Z</time><name>PT5402</name></trkpt>
<trkpt lat="53.261000" lon="-2.009221"><ele>561</ele><time>2021-11-13T12:30:28Z</time><name>PT5403</name></trkpt>
<trkpt lat="53.260987" lon="-2.009227"><ele>560</ele><time>2021-11-13T12:30:29Z</time><name>PT5404</name></trkpt>
<trkpt lat="53.260974" lon="-2.009231"><ele>560</ele><time>2021-11-13T12:30:30Z</time><name>PT5405</name></trkpt>
<trkpt lat="53.260962" lon="-2.009238"><ele>560</ele><time>2021-11-13T12:30:31Z</time><name>PT5406</name></trkpt>
<trkpt lat="53.260948" lon="-2.009250"><ele>560</ele><time>2021-11-13T12:30:32Z</time><name>PT5407</name></trkpt>
<trkpt lat="53.260937" lon="-2.009254"><ele>560</ele><time>2021-11-13T12:30:33Z</time><name>PT5408</name></trkpt>
<trkpt lat="53.260927" lon="-2.009260"><ele>560</ele><time>2021-11-13T12:30:34Z</time><name>PT5409</name></trkpt>
<trkpt lat="53.260916" lon="-2.009268"><ele>560</ele><time>2021-11-13T12:30:35Z</time><name>PT5410</name></trkpt>
<trkpt lat="53.260904" lon="-2.009275"><ele>560</ele><time>2021-11-13T12:30:36Z</time><name>PT5411</name></trkpt>
<trkpt lat="53.260892" lon="-2.009281"><ele>560</ele><time>2021-11-13T12:30:37Z</time><name>PT5412</name></trkpt>
<trkpt lat="53.260880" lon="-2.009288"><ele>561</ele><time>2021-11-13T12:30:38Z</time><name>PT5413</name></trkpt>
<trkpt lat="53.260868" lon="-2.009295"><ele>561</ele><time>2021-11-13T12:30:39Z</time><name>PT5414</name></trkpt>
<trkpt lat="53.260857" lon="-2.009301"><ele>560</ele><time>2021-11-13T12:30:40Z</time><name>PT5415</name></trkpt>
<trkpt lat="53.260846" lon="-2.009307"><ele>560</ele><time>2021-11-13T12:30:41Z</time><name>PT5416</name></trkpt>
<trkpt lat="53.260834" lon="-2.009313"><ele>560</ele><time>2021-11-13T12:30:42Z</time><name>PT5417</name></trkpt>
<trkpt lat="53.260822" lon="-2.009319"><ele>560</ele><time>2021-11-13T12:30:43Z</time><name>PT5418</name></trkpt>
<trkpt lat="53.260809" lon="-2.009324"><ele>561</ele><time>2021-11-13T12:30:44Z</time><name>PT5419</name></trkpt>
<trkpt lat="53.260796" lon="-2.009329"><ele>560</ele><time>2021-11-13T12:30:45Z</time><name>PT5420</name></trkpt>
<trkpt lat="53.260784" lon="-2.009336"><ele>560</ele><time>2021-11-13T12:30:46Z</time><name>PT5421</name></trkpt>
<trkpt lat="53.260772" lon="-2.009339"><ele>560</ele><time>2021-11-13T12:30:47Z</time><name>PT5422</name></trkpt>
<trkpt lat="53.260757" lon="-2.009344"><ele>560</ele><time>2021-11-13T12:30:48Z</time><name>PT5423</name></trkpt>
<trkpt lat="53.260741" lon="-2.009352"><ele>561</ele><time>2021-11-13T12:30:49Z</time><name>PT5424</name></trkpt>
<trkpt lat="53.260730" lon="-2.009357"><ele>561</ele><time>2021-11-13T12:30:50Z</time><name>PT5425</name></trkpt>
<trkpt lat="53.260720" lon="-2.009359"><ele>561</ele><time>2021-11-13T12:30:51Z</time><name>PT5426</name></trkpt>
<trkpt lat="53.260710" lon="-2.009372"><ele>561</ele><time>2021-11-13T12:30:52Z</time><name>PT5427</name></trkpt>
<trkpt lat="53.260701" lon="-2.009383"><ele>561</ele><time>2021-11-13T12:30:53Z</time><name>PT5428</name></trkpt>
<trkpt lat="53.260691" lon="-2.009395"><ele>561</ele><time>2021-11-13T12:30:54Z</time><name>PT5429</name></trkpt>
<trkpt lat="53.260683" lon="-2.009407"><ele>561</ele><time>2021-11-13T12:30:55Z</time><name>PT5430</name></trkpt>
<trkpt lat="53.260682" lon="-2.009412"><ele>561</ele><time>2021-11-13T12:30:56Z</time><name>PT5431</name></trkpt>
<trkpt lat="53.260680" lon="-2.009414"><ele>561</ele><time>2021-11-13T12:30:57Z</time><name>PT5432</name></trkpt>
<trkpt lat="53.260678" lon="-2.009415"><ele>562</ele><time>2021-11-13T12:30:58Z</time><name>PT5433</name></trkpt>
<trkpt lat="53.260681" lon="-2.009419"><ele>562</ele><time>2021-11-13T12:30:59Z</time><name>PT5434</name></trkpt>
<trkpt lat="53.260679" lon="-2.009425"><ele>562</ele><time>2021-11-13T12:31:00Z</time><name>PT5435</name></trkpt>
<trkpt lat="53.260683" lon="-2.009434"><ele>562</ele><time>2021-11-13T12:31:01Z</time><name>PT5436</name></trkpt>
<trkpt lat="53.260687" lon="-2.009444"><ele>562</ele><time>2021-11-13T12:31:02Z</time><name>PT5437</name></trkpt>
<trkpt lat="53.260689" lon="-2.009453"><ele>562</ele><time>2021-11-13T12:31:03Z</time><name>PT5438</name></trkpt>
<trkpt lat="53.260690" lon="-2.009463"><ele>562</ele><time>2021-11-13T12:31:04Z</time><name>PT5439</name></trkpt>
<trkpt lat="53.260691" lon="-2.009467"><ele>562</ele><time>2021-11-13T12:31:05Z</time><name>PT5440</name></trkpt>
<trkpt lat="53.260692" lon="-2.009466"><ele>562</ele><time>2021-11-13T12:31:06Z</time><name>PT5441</name></trkpt>
<trkpt lat="53.260695" lon="-2.009480"><ele>563</ele><time>2021-11-13T12:31:07Z</time><name>PT5442</name></trkpt>
<trkpt lat="53.260697" lon="-2.009481"><ele>563</ele><time>2021-11-13T12:31:08Z</time><name>PT5443</name></trkpt>
<trkpt lat="53.260697" lon="-2.009484"><ele>563</ele><time>2021-11-13T12:31:09Z</time><name>PT5444</name></trkpt>
<trkpt lat="53.260695" lon="-2.009488"><ele>563</ele><time>2021-11-13T12:31:10Z</time><name>PT5445</name></trkpt>
<trkpt lat="53.260688" lon="-2.009485"><ele>563</ele><time>2021-11-13T12:31:46Z</time><name>PT5446</name></trkpt>
<trkpt lat="53.260688" lon="-2.009482"><ele>563</ele><time>2021-11-13T12:31:47Z</time><name>PT5447</name></trkpt>
<trkpt lat="53.260689" lon="-2.009487"><ele>563</ele><time>2021-11-13T12:31:48Z</time><name>PT5448</name></trkpt>
<trkpt lat="53.260693" lon="-2.009484"><ele>563</ele><time>2021-11-13T12:32:31Z</time><name>PT5449</name></trkpt>
<trkpt lat="53.260689" lon="-2.009485"><ele>561</ele><time>2021-11-13T12:32:35Z</time><name>PT5450</name></trkpt>
<trkpt lat="53.260692" lon="-2.009501"><ele>561</ele><time>2021-11-13T12:33:03Z</time><name>PT5451</name></trkpt>
<trkpt lat="53.260692" lon="-2.009502"><ele>561</ele><time>2021-11-13T12:33:07Z</time><name>PT5452</name></trkpt>
<trkpt lat="53.260693" lon="-2.009503"><ele>561</ele><time>2021-11-13T12:33:31Z</time><name>PT5453</name></trkpt>
<trkpt lat="53.260685" lon="-2.009494"><ele>561</ele><time>2021-11-13T12:33:35Z</time><name>PT5454</name></trkpt>
<trkpt lat="53.260685" lon="-2.009470"><ele>562</ele><time>2021-11-13T12:34:19Z</time><name>PT5455</name></trkpt>
<trkpt lat="53.260682" lon="-2.009463"><ele>562</ele><time>2021-11-13T12:34:23Z</time><name>PT5456</name></trkpt>
<trkpt lat="53.260677" lon="-2.009454"><ele>562</ele><time>2021-11-13T12:34:31Z</time><name>PT5457</name></trkpt>
<trkpt lat="53.260676" lon="-2.009441"><ele>562</ele><time>2021-11-13T12:34:43Z</time><name>PT5458</name></trkpt>
<trkpt lat="53.260677" lon="-2.009392"><ele>562</ele><time>2021-11-13T12:34:47Z</time><name>PT5459</name></trkpt>
<trkpt lat="53.260671" lon="-2.009382"><ele>562</ele><time>2021-11-13T12:34:51Z</time><name>PT5460</name></trkpt>
<trkpt lat="53.260665" lon="-2.009369"><ele>562</ele><time>2021-11-13T12:34:55Z</time><name>PT5461</name></trkpt>
<trkpt lat="53.260649" lon="-2.009297"><ele>562</ele><time>2021-11-13T12:34:59Z</time><name>PT5462</name></trkpt>
<trkpt lat="53.260616" lon="-2.009257"><ele>562</ele><time>2021-11-13T12:35:03Z</time><name>PT5463</name></trkpt>
<trkpt lat="53.260584" lon="-2.009270"><ele>562</ele><time>2021-11-13T12:35:07Z</time><name>PT5464</name></trkpt>
<trkpt lat="53.260553" lon="-2.009280"><ele>562</ele><time>2021-11-13T12:35:11Z</time><name>PT5465</name></trkpt>
<trkpt lat="53.260539" lon="-2.009272"><ele>562</ele><time>2021-11-13T12:35:15Z</time><name>PT5466</name></trkpt>
<trkpt lat="53.260536" lon="-2.009266"><ele>562</ele><time>2021-11-13T12:35:19Z</time><name>PT5467</name></trkpt>
<trkpt lat="53.260520" lon="-2.009233"><ele>562</ele><time>2021-11-13T12:35:23Z</time><name>PT5468</name></trkpt>
<trkpt lat="53.260499" lon="-2.009202"><ele>561</ele><time>2021-11-13T12:35:27Z</time><name>PT5469</name></trkpt>
<trkpt lat="53.260471" lon="-2.009156"><ele>561</ele><time>2021-11-13T12:35:31Z</time><name>PT5470</name></trkpt>
<trkpt lat="53.260441" lon="-2.009107"><ele>561</ele><time>2021-11-13T12:35:35Z</time><name>PT5471</name></trkpt>
<trkpt lat="53.260408" lon="-2.009059"><ele>561</ele><time>2021-11-13T12:35:39Z</time><name>PT5472</name></trkpt>
<trkpt lat="53.260375" lon="-2.009009"><ele>562</ele><time>2021-11-13T12:35:43Z</time><name>PT5473</name></trkpt>
<trkpt lat="53.260339" lon="-2.008947"><ele>561</ele><time>2021-11-13T12:35:47Z</time><name>PT5474</name></trkpt>
<trkpt lat="53.260307" lon="-2.008891"><ele>559</ele><time>2021-11-13T12:35:51Z</time><name>PT5475</name></trkpt>
<trkpt lat="53.260276" lon="-2.008834"><ele>559</ele><time>2021-11-13T12:35:55Z</time><name>PT5476</name></trkpt>
<trkpt lat="53.260242" lon="-2.008777"><ele>559</ele><time>2021-11-13T12:35:59Z</time><name>PT5477</name></trkpt>
<trkpt lat="53.260202" lon="-2.008720"><ele>559</ele><time>2021-11-13T12:36:03Z</time><name>PT5478</name></trkpt>
<trkpt lat="53.260165" lon="-2.008658"><ele>558</ele><time>2021-11-13T12:36:07Z</time><name>PT5479</name></trkpt>
<trkpt lat="53.260129" lon="-2.008598"><ele>558</ele><time>2021-11-13T12:36:11Z</time><name>PT5480</name></trkpt>
<trkpt lat="53.260092" lon="-2.008531"><ele>557</ele><time>2021-11-13T12:36:15Z</time><name>PT5481</name></trkpt>
<trkpt lat="53.260056" lon="-2.008474"><ele>558</ele><time>2021-11-13T12:36:19Z</time><name>PT5482</name></trkpt>
<trkpt lat="53.260019" lon="-2.008420"><ele>557</ele><time>2021-11-13T12:36:23Z</time><name>PT5483</name></trkpt>
<trkpt lat="53.259984" lon="-2.008351"><ele>558</ele><time>2021-11-13T12:36:27Z</time><name>PT5484</name></trkpt>
<trkpt lat="53.259949" lon="-2.008293"><ele>557</ele><time>2021-11-13T12:36:31Z</time><name>PT5485</name></trkpt>
<trkpt lat="53.259921" lon="-2.008230"><ele>556</ele><time>2021-11-13T12:36:35Z</time><name>PT5486</name></trkpt>
<trkpt lat="53.259887" lon="-2.008178"><ele>556</ele><time>2021-11-13T12:36:39Z</time><name>PT5487</name></trkpt>
<trkpt lat="53.259857" lon="-2.008120"><ele>555</ele><time>2021-11-13T12:36:43Z</time><name>PT5488</name></trkpt>
<trkpt lat="53.259818" lon="-2.008052"><ele>555</ele><time>2021-11-13T12:36:47Z</time><name>PT5489</name></trkpt>
<trkpt lat="53.259785" lon="-2.007986"><ele>554</ele><time>2021-11-13T12:36:51Z</time><name>PT5490</name></trkpt>
<trkpt lat="53.259755" lon="-2.007923"><ele>553</ele><time>2021-11-13T12:36:55Z</time><name>PT5491</name></trkpt>
<trkpt lat="53.259728" lon="-2.007862"><ele>553</ele><time>2021-11-13T12:36:59Z</time><name>PT5492</name></trkpt>
<trkpt lat="53.259708" lon="-2.007798"><ele>552</ele><time>2021-11-13T12:37:03Z</time><name>PT5493</name></trkpt>
<trkpt lat="53.259704" lon="-2.007764"><ele>552</ele><time>2021-11-13T12:37:07Z</time><name>PT5494</name></trkpt>
<trkpt lat="53.259694" lon="-2.007729"><ele>552</ele><time>2021-11-13T12:37:15Z</time><name>PT5495</name></trkpt>
<trkpt lat="53.259664" lon="-2.007667"><ele>551</ele><time>2021-11-13T12:37:19Z</time><name>PT5496</name></trkpt>
<trkpt lat="53.259628" lon="-2.007593"><ele>550</ele><time>2021-11-13T12:37:23Z</time><name>PT5497</name></trkpt>
<trkpt lat="53.259588" lon="-2.007537"><ele>549</ele><time>2021-11-13T12:37:27Z</time><name>PT5498</name></trkpt>
<trkpt lat="53.259536" lon="-2.007490"><ele>549</ele><time>2021-11-13T12:37:31Z</time><name>PT5499</name></trkpt>
<trkpt lat="53.259489" lon="-2.007449"><ele>550</ele><time>2021-11-13T12:37:35Z</time><name>PT5500</name></trkpt>
<trkpt lat="53.259444" lon="-2.007410"><ele>550</ele><time>2021-11-13T12:37:39Z</time><name>PT5501</name></trkpt>
<trkpt lat="53.259415" lon="-2.007352"><ele>550</ele><time>2021-11-13T12:37:43Z</time><name>PT5502</name></trkpt>
<trkpt lat="53.259382" lon="-2.007296"><ele>549</ele><time>2021-11-13T12:37:47Z</time><name>PT5503</name></trkpt>
<trkpt lat="53.259350" lon="-2.007239"><ele>549</ele><time>2021-11-13T12:37:51Z</time><name>PT5504</name></trkpt>
<trkpt lat="53.259326" lon="-2.007199"><ele>548</ele><time>2021-11-13T12:37:55Z</time><name>PT5505</name></trkpt>
<trkpt lat="53.259296" lon="-2.007149"><ele>547</ele><time>2021-11-13T12:37:59Z</time><name>PT5506</name></trkpt>
<trkpt lat="53.259267" lon="-2.007085"><ele>547</ele><time>2021-11-13T12:38:03Z</time><name>PT5507</name></trkpt>
<trkpt lat="53.259235" lon="-2.007027"><ele>546</ele><time>2021-11-13T12:38:07Z</time><name>PT5508</name></trkpt>
<trkpt lat="53.259213" lon="-2.006974"><ele>545</ele><time>2021-11-13T12:38:11Z</time><name>PT5509</name></trkpt>
<trkpt lat="53.259203" lon="-2.006908"><ele>544</ele><time>2021-11-13T12:38:15Z</time><name>PT5510</name></trkpt>
<trkpt lat="53.259191" lon="-2.006859"><ele>543</ele><time>2021-11-13T12:38:19Z</time><name>PT5511</name></trkpt>
<trkpt lat="53.259175" lon="-2.006825"><ele>543</ele><time>2021-11-13T12:38:23Z</time><name>PT5512</name></trkpt>
<trkpt lat="53.259136" lon="-2.006784"><ele>543</ele><time>2021-11-13T12:38:27Z</time><name>PT5513</name></trkpt>
<trkpt lat="53.259101" lon="-2.006746"><ele>543</ele><time>2021-11-13T12:38:31Z</time><name>PT5514</name></trkpt>
<trkpt lat="53.259064" lon="-2.006698"><ele>542</ele><time>2021-11-13T12:38:35Z</time><name>PT5515</name></trkpt>
<trkpt lat="53.259032" lon="-2.006641"><ele>542</ele><time>2021-11-13T12:38:39Z</time><name>PT5516</name></trkpt>
<trkpt lat="53.258999" lon="-2.006584"><ele>541</ele><time>2021-11-13T12:38:43Z</time><name>PT5517</name></trkpt>
<trkpt lat="53.258966" lon="-2.006524"><ele>542</ele><time>2021-11-13T12:38:47Z</time><name>PT5518</name></trkpt>
<trkpt lat="53.258928" lon="-2.006466"><ele>541</ele><time>2021-11-13T12:38:51Z</time><name>PT5519</name></trkpt>
<trkpt lat="53.258899" lon="-2.006410"><ele>541</ele><time>2021-11-13T12:38:55Z</time><name>PT5520</name></trkpt>
<trkpt lat="53.258862" lon="-2.006353"><ele>540</ele><time>2021-11-13T12:38:59Z</time><name>PT5521</name></trkpt>
<trkpt lat="53.258834" lon="-2.006290"><ele>540</ele><time>2021-11-13T12:39:03Z</time><name>PT5522</name></trkpt>
<trkpt lat="53.258793" lon="-2.006230"><ele>539</ele><time>2021-11-13T12:39:07Z</time><name>PT5523</name></trkpt>
<trkpt lat="53.258761" lon="-2.006172"><ele>538</ele><time>2021-11-13T12:39:11Z</time><name>PT5524</name></trkpt>
<trkpt lat="53.258732" lon="-2.006114"><ele>537</ele><time>2021-11-13T12:39:15Z</time><name>PT5525</name></trkpt>
<trkpt lat="53.258699" lon="-2.006061"><ele>537</ele><time>2021-11-13T12:39:19Z</time><name>PT5526</name></trkpt>
<trkpt lat="53.258664" lon="-2.006003"><ele>536</ele><time>2021-11-13T12:39:23Z</time><name>PT5527</name></trkpt>
<trkpt lat="53.258636" lon="-2.005936"><ele>535</ele><time>2021-11-13T12:39:27Z</time><name>PT5528</name></trkpt>
<trkpt lat="53.258619" lon="-2.005871"><ele>534</ele><time>2021-11-13T12:39:31Z</time><name>PT5529</name></trkpt>
<trkpt lat="53.258588" lon="-2.005824"><ele>533</ele><time>2021-11-13T12:39:35Z</time><name>PT5530</name></trkpt>
<trkpt lat="53.258555" lon="-2.005771"><ele>532</ele><time>2021-11-13T12:39:39Z</time><name>PT5531</name></trkpt>
<trkpt lat="53.258522" lon="-2.005723"><ele>532</ele><time>2021-11-13T12:39:43Z</time><name>PT5532</name></trkpt>
<trkpt lat="53.258487" lon="-2.005670"><ele>531</ele><time>2021-11-13T12:39:47Z</time><name>PT5533</name></trkpt>
<trkpt lat="53.258454" lon="-2.005618"><ele>531</ele><time>2021-11-13T12:39:51Z</time><name>PT5534</name></trkpt>
<trkpt lat="53.258441" lon="-2.005542"><ele>529</ele><time>2021-11-13T12:39:55Z</time><name>PT5535</name></trkpt>
<trkpt lat="53.258414" lon="-2.005482"><ele>529</ele><time>2021-11-13T12:39:59Z</time><name>PT5536</name></trkpt>
<trkpt lat="53.258385" lon="-2.005416"><ele>528</ele><time>2021-11-13T12:40:03Z</time><name>PT5537</name></trkpt>
<trkpt lat="53.258364" lon="-2.005346"><ele>528</ele><time>2021-11-13T12:40:07Z</time><name>PT5538</name></trkpt>
<trkpt lat="53.258337" lon="-2.005286"><ele>528</ele><time>2021-11-13T12:40:11Z</time><name>PT5539</name></trkpt>
<trkpt lat="53.258307" lon="-2.005224"><ele>527</ele><time>2021-11-13T12:40:15Z</time><name>PT5540</name></trkpt>
<trkpt lat="53.258260" lon="-2.005157"><ele>527</ele><time>2021-11-13T12:40:19Z</time><name>PT5541</name></trkpt>
<trkpt lat="53.258224" lon="-2.005100"><ele>527</ele><time>2021-11-13T12:40:23Z</time><name>PT5542</name></trkpt>
<trkpt lat="53.258180" lon="-2.005057"><ele>527</ele><time>2021-11-13T12:40:27Z</time><name>PT5543</name></trkpt>
<trkpt lat="53.258136" lon="-2.005017"><ele>527</ele><time>2021-11-13T12:40:31Z</time><name>PT5544</name></trkpt>
<trkpt lat="53.258095" lon="-2.004968"><ele>525</ele><time>2021-11-13T12:40:35Z</time><name>PT5545</name></trkpt>
<trkpt lat="53.258054" lon="-2.004938"><ele>525</ele><time>2021-11-13T12:40:39Z</time><name>PT5546</name></trkpt>
<trkpt lat="53.258013" lon="-2.004884"><ele>525</ele><time>2021-11-13T12:40:43Z</time><name>PT5547</name></trkpt>
<trkpt lat="53.257977" lon="-2.004834"><ele>524</ele><time>2021-11-13T12:40:47Z</time><name>PT5548</name></trkpt>
<trkpt lat="53.257944" lon="-2.004778"><ele>523</ele><time>2021-11-13T12:40:51Z</time><name>PT5549</name></trkpt>
<trkpt lat="53.257918" lon="-2.004718"><ele>522</ele><time>2021-11-13T12:40:55Z</time><name>PT5550</name></trkpt>
<trkpt lat="53.257889" lon="-2.004655"><ele>520</ele><time>2021-11-13T12:40:59Z</time><name>PT5551</name></trkpt>
<trkpt lat="53.257850" lon="-2.004595"><ele>520</ele><time>2021-11-13T12:41:03Z</time><name>PT5552</name></trkpt>
<trkpt lat="53.257810" lon="-2.004548"><ele>520</ele><time>2021-11-13T12:41:07Z</time><name>PT5553</name></trkpt>
<trkpt lat="53.257777" lon="-2.004490"><ele>519</ele><time>2021-11-13T12:41:11Z</time><name>PT5554</name></trkpt>
<trkpt lat="53.257765" lon="-2.004408"><ele>517</ele><time>2021-11-13T12:41:15Z</time><name>PT5555</name></trkpt>
<trkpt lat="53.257744" lon="-2.004344"><ele>517</ele><time>2021-11-13T12:41:19Z</time><name>PT5556</name></trkpt>
<trkpt lat="53.257716" lon="-2.004295"><ele>517</ele><time>2021-11-13T12:41:23Z</time><name>PT5557</name></trkpt>
<trkpt lat="53.257668" lon="-2.004249"><ele>518</ele><time>2021-11-13T12:41:27Z</time><name>PT5558</name></trkpt>
<trkpt lat="53.257631" lon="-2.004203"><ele>518</ele><time>2021-11-13T12:41:31Z</time><name>PT5559</name></trkpt>
<trkpt lat="53.257601" lon="-2.004140"><ele>517</ele><time>2021-11-13T12:41:35Z</time><name>PT5560</name></trkpt>
<trkpt lat="53.257584" lon="-2.004077"><ele>516</ele><time>2021-11-13T12:41:39Z</time><name>PT5561</name></trkpt>
<trkpt lat="53.257560" lon="-2.004010"><ele>514</ele><time>2021-11-13T12:41:43Z</time><name>PT5562</name></trkpt>
<trkpt lat="53.257526" lon="-2.003952"><ele>514</ele><time>2021-11-13T12:41:47Z</time><name>PT5563</name></trkpt>
<trkpt lat="53.257481" lon="-2.003921"><ele>514</ele><time>2021-11-13T12:41:51Z</time><name>PT5564</name></trkpt>
<trkpt lat="53.257437" lon="-2.003863"><ele>513</ele><time>2021-11-13T12:41:55Z</time><name>PT5565</name></trkpt>
<trkpt lat="53.257392" lon="-2.003812"><ele>513</ele><time>2021-11-13T12:41:59Z</time><name>PT5566</name></trkpt>
<trkpt lat="53.257359" lon="-2.003747"><ele>513</ele><time>2021-11-13T12:42:03Z</time><name>PT5567</name></trkpt>
<trkpt lat="53.257328" lon="-2.003692"><ele>513</ele><time>2021-11-13T12:42:07Z</time><name>PT5568</name></trkpt>
<trkpt lat="53.257296" lon="-2.003628"><ele>513</ele><time>2021-11-13T12:42:11Z</time><name>PT5569</name></trkpt>
<trkpt lat="53.257263" lon="-2.003565"><ele>513</ele><time>2021-11-13T12:42:15Z</time><name>PT5570</name></trkpt>
<trkpt lat="53.257229" lon="-2.003503"><ele>512</ele><time>2021-11-13T12:42:19Z</time><name>PT5571</name></trkpt>
<trkpt lat="53.257201" lon="-2.003455"><ele>512</ele><time>2021-11-13T12:42:23Z</time><name>PT5572</name></trkpt>
<trkpt lat="53.257172" lon="-2.003393"><ele>511</ele><time>2021-11-13T12:42:27Z</time><name>PT5573</name></trkpt>
<trkpt lat="53.257136" lon="-2.003327"><ele>512</ele><time>2021-11-13T12:42:31Z</time><name>PT5574</name></trkpt>
<trkpt lat="53.257105" lon="-2.003268"><ele>512</ele><time>2021-11-13T12:42:35Z</time><name>PT5575</name></trkpt>
<trkpt lat="53.257063" lon="-2.003203"><ele>512</ele><time>2021-11-13T12:42:39Z</time><name>PT5576</name></trkpt>
<trkpt lat="53.257028" lon="-2.003142"><ele>512</ele><time>2021-11-13T12:42:43Z</time><name>PT5577</name></trkpt>
<trkpt lat="53.256986" lon="-2.003079"><ele>512</ele><time>2021-11-13T12:42:47Z</time><name>PT5578</name></trkpt>
<trkpt lat="53.256950" lon="-2.003018"><ele>512</ele><time>2021-11-13T12:42:51Z</time><name>PT5579</name></trkpt>
<trkpt lat="53.256923" lon="-2.002960"><ele>511</ele><time>2021-11-13T12:42:55Z</time><name>PT5580</name></trkpt>
<trkpt lat="53.256886" lon="-2.002895"><ele>512</ele><time>2021-11-13T12:42:59Z</time><name>PT5581</name></trkpt>
<trkpt lat="53.256847" lon="-2.002830"><ele>512</ele><time>2021-11-13T12:43:03Z</time><name>PT5582</name></trkpt>
<trkpt lat="53.256811" lon="-2.002773"><ele>512</ele><time>2021-11-13T12:43:07Z</time><name>PT5583</name></trkpt>
<trkpt lat="53.256785" lon="-2.002710"><ele>512</ele><time>2021-11-13T12:43:11Z</time><name>PT5584</name></trkpt>
<trkpt lat="53.256753" lon="-2.002655"><ele>512</ele><time>2021-11-13T12:43:15Z</time><name>PT5585</name></trkpt>
<trkpt lat="53.256727" lon="-2.002598"><ele>512</ele><time>2021-11-13T12:43:19Z</time><name>PT5586</name></trkpt>
<trkpt lat="53.256694" lon="-2.002535"><ele>512</ele><time>2021-11-13T12:43:23Z</time><name>PT5587</name></trkpt>
<trkpt lat="53.256667" lon="-2.002469"><ele>512</ele><time>2021-11-13T12:43:27Z</time><name>PT5588</name></trkpt>
<trkpt lat="53.256637" lon="-2.002411"><ele>511</ele><time>2021-11-13T12:43:31Z</time><name>PT5589</name></trkpt>
<trkpt lat="53.256599" lon="-2.002353"><ele>511</ele><time>2021-11-13T12:43:35Z</time><name>PT5590</name></trkpt>
<trkpt lat="53.256564" lon="-2.002290"><ele>511</ele><time>2021-11-13T12:43:39Z</time><name>PT5591</name></trkpt>
<trkpt lat="53.256524" lon="-2.002226"><ele>512</ele><time>2021-11-13T12:43:43Z</time><name>PT5592</name></trkpt>
<trkpt lat="53.256488" lon="-2.002171"><ele>512</ele><time>2021-11-13T12:43:47Z</time><name>PT5593</name></trkpt>
<trkpt lat="53.256451" lon="-2.002114"><ele>513</ele><time>2021-11-13T12:43:51Z</time><name>PT5594</name></trkpt>
<trkpt lat="53.256420" lon="-2.002056"><ele>513</ele><time>2021-11-13T12:43:55Z</time><name>PT5595</name></trkpt>
<trkpt lat="53.256393" lon="-2.002007"><ele>513</ele><time>2021-11-13T12:43:59Z</time><name>PT5596</name></trkpt>
<trkpt lat="53.256366" lon="-2.001953"><ele>514</ele><time>2021-11-13T12:44:03Z</time><name>PT5597</name></trkpt>
<trkpt lat="53.256339" lon="-2.001900"><ele>514</ele><time>2021-11-13T12:44:07Z</time><name>PT5598</name></trkpt>
<trkpt lat="53.256311" lon="-2.001848"><ele>514</ele><time>2021-11-13T12:44:11Z</time><name>PT5599</name></trkpt>
<trkpt lat="53.256279" lon="-2.001791"><ele>515</ele><time>2021-11-13T12:44:15Z</time><name>PT5600</name></trkpt>
<trkpt lat="53.256252" lon="-2.001743"><ele>515</ele><time>2021-11-13T12:44:19Z</time><name>PT5601</name></trkpt>
<trkpt lat="53.256219" lon="-2.001691"><ele>516</ele><time>2021-11-13T12:44:23Z</time><name>PT5602</name></trkpt>
<trkpt lat="53.256190" lon="-2.001637"><ele>516</ele><time>2021-11-13T12:44:27Z</time><name>PT5603</name></trkpt>
<trkpt lat="53.256162" lon="-2.001585"><ele>517</ele><time>2021-11-13T12:44:31Z</time><name>PT5604</name></trkpt>
<trkpt lat="53.256135" lon="-2.001531"><ele>517</ele><time>2021-11-13T12:44:35Z</time><name>PT5605</name></trkpt>
<trkpt lat="53.256110" lon="-2.001488"><ele>518</ele><time>2021-11-13T12:44:39Z</time><name>PT5606</name></trkpt>
<trkpt lat="53.256078" lon="-2.001436"><ele>518</ele><time>2021-11-13T12:44:43Z</time><name>PT5607</name></trkpt>
<trkpt lat="53.256052" lon="-2.001392"><ele>519</ele><time>2021-11-13T12:44:47Z</time><name>PT5608</name></trkpt>
<trkpt lat="53.256020" lon="-2.001346"><ele>520</ele><time>2021-11-13T12:44:51Z</time><name>PT5609</name></trkpt>
<trkpt lat="53.255993" lon="-2.001305"><ele>520</ele><time>2021-11-13T12:44:55Z</time><name>PT5610</name></trkpt>
<trkpt lat="53.255969" lon="-2.001268"><ele>521</ele><time>2021-11-13T12:44:59Z</time><name>PT5611</name></trkpt>
<trkpt lat="53.255939" lon="-2.001224"><ele>521</ele><time>2021-11-13T12:45:03Z</time><name>PT5612</name></trkpt>
<trkpt lat="53.255914" lon="-2.001181"><ele>521</ele><time>2021-11-13T12:45:07Z</time><name>PT5613</name></trkpt>
<trkpt lat="53.255882" lon="-2.001127"><ele>521</ele><time>2021-11-13T12:45:11Z</time><name>PT5614</name></trkpt>
<trkpt lat="53.255850" lon="-2.001065"><ele>523</ele><time>2021-11-13T12:45:15Z</time><name>PT5615</name></trkpt>
<trkpt lat="53.255817" lon="-2.001007"><ele>523</ele><time>2021-11-13T12:45:19Z</time><name>PT5616</name></trkpt>
<trkpt lat="53.255786" lon="-2.000962"><ele>523</ele><time>2021-11-13T12:45:23Z</time><name>PT5617</name></trkpt>
<trkpt lat="53.255750" lon="-2.000910"><ele>524</ele><time>2021-11-13T12:45:27Z</time><name>PT5618</name></trkpt>
<trkpt lat="53.255714" lon="-2.000854"><ele>525</ele><time>2021-11-13T12:45:31Z</time><name>PT5619</name></trkpt>
<trkpt lat="53.255679" lon="-2.000798"><ele>525</ele><time>2021-11-13T12:45:35Z</time><name>PT5620</name></trkpt>
<trkpt lat="53.255652" lon="-2.000746"><ele>524</ele><time>2021-11-13T12:45:39Z</time><name>PT5621</name></trkpt>
<trkpt lat="53.255621" lon="-2.000697"><ele>525</ele><time>2021-11-13T12:45:43Z</time><name>PT5622</name></trkpt>
<trkpt lat="53.255600" lon="-2.000656"><ele>526</ele><time>2021-11-13T12:45:47Z</time><name>PT5623</name></trkpt>
<trkpt lat="53.255569" lon="-2.000609"><ele>527</ele><time>2021-11-13T12:45:51Z</time><name>PT5624</name></trkpt>
<trkpt lat="53.255548" lon="-2.000551"><ele>528</ele><time>2021-11-13T12:45:55Z</time><name>PT5625</name></trkpt>
<trkpt lat="53.255529" lon="-2.000502"><ele>528</ele><time>2021-11-13T12:45:59Z</time><name>PT5626</name></trkpt>
<trkpt lat="53.255509" lon="-2.000441"><ele>529</ele><time>2021-11-13T12:46:03Z</time><name>PT5627</name></trkpt>
<trkpt lat="53.255491" lon="-2.000392"><ele>529</ele><time>2021-11-13T12:46:07Z</time><name>PT5628</name></trkpt>
<trkpt lat="53.255472" lon="-2.000338"><ele>528</ele><time>2021-11-13T12:46:11Z</time><name>PT5629</name></trkpt>
<trkpt lat="53.255450" lon="-2.000301"><ele>529</ele><time>2021-11-13T12:46:15Z</time><name>PT5630</name></trkpt>
<trkpt lat="53.255442" lon="-2.000288"><ele>528</ele><time>2021-11-13T12:46:19Z</time><name>PT5631</name></trkpt>
<trkpt lat="53.255444" lon="-2.000287"><ele>528</ele><time>2021-11-13T12:46:23Z</time><name>PT5632</name></trkpt>
<trkpt lat="53.255432" lon="-2.000287"><ele>528</ele><time>2021-11-13T12:46:27Z</time><name>PT5633</name></trkpt>
<trkpt lat="53.255435" lon="-2.000284"><ele>528</ele><time>2021-11-13T12:46:32Z</time><name>PT5634</name></trkpt>
<trkpt lat="53.255436" lon="-2.000278"><ele>528</ele><time>2021-11-13T12:46:33Z</time><name>PT5635</name></trkpt>
<trkpt lat="53.255435" lon="-2.000273"><ele>529</ele><time>2021-11-13T12:46:34Z</time><name>PT5636</name></trkpt>
<trkpt lat="53.255434" lon="-2.000272"><ele>529</ele><time>2021-11-13T12:46:49Z</time><name>PT5637</name></trkpt>
<trkpt lat="53.255431" lon="-2.000266"><ele>529</ele><time>2021-11-13T12:46:50Z</time><name>PT5638</name></trkpt>
<trkpt lat="53.255428" lon="-2.000264"><ele>529</ele><time>2021-11-13T12:46:51Z</time><name>PT5639</name></trkpt>
<trkpt lat="53.255425" lon="-2.000268"><ele>529</ele><time>2021-11-13T12:46:52Z</time><name>PT5640</name></trkpt>
<trkpt lat="53.255415" lon="-2.000271"><ele>529</ele><time>2021-11-13T12:46:53Z</time><name>PT5641</name></trkpt>
<trkpt lat="53.255410" lon="-2.000274"><ele>528</ele><time>2021-11-13T12:46:54Z</time><name>PT5642</name></trkpt>
<trkpt lat="53.255401" lon="-2.000279"><ele>528</ele><time>2021-11-13T12:46:55Z</time><name>PT5643</name></trkpt>
<trkpt lat="53.255393" lon="-2.000282"><ele>528</ele><time>2021-11-13T12:46:56Z</time><name>PT5644</name></trkpt>
<trkpt lat="53.255381" lon="-2.000292"><ele>528</ele><time>2021-11-13T12:46:57Z</time><name>PT5645</name></trkpt>
<trkpt lat="53.255371" lon="-2.000291"><ele>528</ele><time>2021-11-13T12:46:58Z</time><name>PT5646</name></trkpt>
<trkpt lat="53.255362" lon="-2.000293"><ele>528</ele><time>2021-11-13T12:46:59Z</time><name>PT5647</name></trkpt>
<trkpt lat="53.255349" lon="-2.000295"><ele>528</ele><time>2021-11-13T12:47:00Z</time><name>PT5648</name></trkpt>
<trkpt lat="53.255333" lon="-2.000298"><ele>528</ele><time>2021-11-13T12:47:01Z</time><name>PT5649</name></trkpt>
<trkpt lat="53.255320" lon="-2.000303"><ele>528</ele><time>2021-11-13T12:47:02Z</time><name>PT5650</name></trkpt>
<trkpt lat="53.255310" lon="-2.000302"><ele>528</ele><time>2021-11-13T12:47:03Z</time><name>PT5651</name></trkpt>
<trkpt lat="53.255295" lon="-2.000301"><ele>528</ele><time>2021-11-13T12:47:04Z</time><name>PT5652</name></trkpt>
<trkpt lat="53.255286" lon="-2.000303"><ele>528</ele><time>2021-11-13T12:47:05Z</time><name>PT5653</name></trkpt>
<trkpt lat="53.255274" lon="-2.000303"><ele>528</ele><time>2021-11-13T12:47:06Z</time><name>PT5654</name></trkpt>
<trkpt lat="53.255263" lon="-2.000306"><ele>528</ele><time>2021-11-13T12:47:07Z</time><name>PT5655</name></trkpt>
<trkpt lat="53.255253" lon="-2.000308"><ele>528</ele><time>2021-11-13T12:47:08Z</time><name>PT5656</name></trkpt>
<trkpt lat="53.255239" lon="-2.000312"><ele>528</ele><time>2021-11-13T12:47:09Z</time><name>PT5657</name></trkpt>
<trkpt lat="53.255225" lon="-2.000315"><ele>528</ele><time>2021-11-13T12:47:10Z</time><name>PT5658</name></trkpt>
<trkpt lat="53.255210" lon="-2.000317"><ele>528</ele><time>2021-11-13T12:47:11Z</time><name>PT5659</name></trkpt>
<trkpt lat="53.255196" lon="-2.000321"><ele>529</ele><time>2021-11-13T12:47:12Z</time><name>PT5660</name></trkpt>
<trkpt lat="53.255185" lon="-2.000324"><ele>529</ele><time>2021-11-13T12:47:13Z</time><name>PT5661</name></trkpt>
<trkpt lat="53.255175" lon="-2.000324"><ele>529</ele><time>2021-11-13T12:47:14Z</time><name>PT5662</name></trkpt>
<trkpt lat="53.255163" lon="-2.000324"><ele>529</ele><time>2021-11-13T12:47:15Z</time><name>PT5663</name></trkpt>
<trkpt lat="53.255153" lon="-2.000327"><ele>529</ele><time>2021-11-13T12:47:16Z</time><name>PT5664</name></trkpt>
<trkpt lat="53.255143" lon="-2.000330"><ele>529</ele><time>2021-11-13T12:47:17Z</time><name>PT5665</name></trkpt>
<trkpt lat="53.255132" lon="-2.000335"><ele>529</ele><time>2021-11-13T12:47:18Z</time><name>PT5666</name></trkpt>
<trkpt lat="53.255121" lon="-2.000341"><ele>529</ele><time>2021-11-13T12:47:19Z</time><name>PT5667</name></trkpt>
<trkpt lat="53.255109" lon="-2.000341"><ele>530</ele><time>2021-11-13T12:47:20Z</time><name>PT5668</name></trkpt>
<trkpt lat="53.255098" lon="-2.000344"><ele>529</ele><time>2021-11-13T12:47:21Z</time><name>PT5669</name></trkpt>
<trkpt lat="53.255089" lon="-2.000348"><ele>529</ele><time>2021-11-13T12:47:22Z</time><name>PT5670</name></trkpt>
<trkpt lat="53.255080" lon="-2.000354"><ele>529</ele><time>2021-11-13T12:47:23Z</time><name>PT5671</name></trkpt>
<trkpt lat="53.255068" lon="-2.000359"><ele>529</ele><time>2021-11-13T12:47:24Z</time><name>PT5672</name></trkpt>
<trkpt lat="53.255059" lon="-2.000364"><ele>529</ele><time>2021-11-13T12:47:25Z</time><name>PT5673</name></trkpt>
<trkpt lat="53.255049" lon="-2.000365"><ele>529</ele><time>2021-11-13T12:47:26Z</time><name>PT5674</name></trkpt>
<trkpt lat="53.255036" lon="-2.000370"><ele>529</ele><time>2021-11-13T12:47:27Z</time><name>PT5675</name></trkpt>
<trkpt lat="53.255024" lon="-2.000377"><ele>529</ele><time>2021-11-13T12:47:28Z</time><name>PT5676</name></trkpt>
<trkpt lat="53.255008" lon="-2.000385"><ele>529</ele><time>2021-11-13T12:47:29Z</time><name>PT5677</name></trkpt>
<trkpt lat="53.254995" lon="-2.000393"><ele>529</ele><time>2021-11-13T12:47:30Z</time><name>PT5678</name></trkpt>
<trkpt lat="53.254985" lon="-2.000397"><ele>529</ele><time>2021-11-13T12:47:31Z</time><name>PT5679</name></trkpt>
<trkpt lat="53.254973" lon="-2.000399"><ele>529</ele><time>2021-11-13T12:47:32Z</time><name>PT5680</name></trkpt>
<trkpt lat="53.254959" lon="-2.000402"><ele>529</ele><time>2021-11-13T12:47:33Z</time><name>PT5681</name></trkpt>
<trkpt lat="53.254947" lon="-2.000408"><ele>529</ele><time>2021-11-13T12:47:34Z</time><name>PT5682</name></trkpt>
<trkpt lat="53.254936" lon="-2.000414"><ele>528</ele><time>2021-11-13T12:47:35Z</time><name>PT5683</name></trkpt>
<trkpt lat="53.254921" lon="-2.000422"><ele>529</ele><time>2021-11-13T12:47:36Z</time><name>PT5684</name></trkpt>
<trkpt lat="53.254910" lon="-2.000425"><ele>529</ele><time>2021-11-13T12:47:37Z</time><name>PT5685</name></trkpt>
<trkpt lat="53.254895" lon="-2.000429"><ele>529</ele><time>2021-11-13T12:47:38Z</time><name>PT5686</name></trkpt>
<trkpt lat="53.254881" lon="-2.000435"><ele>529</ele><time>2021-11-13T12:47:39Z</time><name>PT5687</name></trkpt>
<trkpt lat="53.254871" lon="-2.000439"><ele>529</ele><time>2021-11-13T12:47:40Z</time><name>PT5688</name></trkpt>
<trkpt lat="53.254858" lon="-2.000446"><ele>529</ele><time>2021-11-13T12:47:41Z</time><name>PT5689</name></trkpt>
<trkpt lat="53.254845" lon="-2.000449"><ele>528</ele><time>2021-11-13T12:47:42Z</time><name>PT5690</name></trkpt>
<trkpt lat="53.254832" lon="-2.000450"><ele>528</ele><time>2021-11-13T12:47:43Z</time><name>PT5691</name></trkpt>
<trkpt lat="53.254822" lon="-2.000454"><ele>528</ele><time>2021-11-13T12:47:44Z</time><name>PT5692</name></trkpt>
<trkpt lat="53.254811" lon="-2.000456"><ele>528</ele><time>2021-11-13T12:47:45Z</time><name>PT5693</name></trkpt>
<trkpt lat="53.254798" lon="-2.000458"><ele>528</ele><time>2021-11-13T12:47:46Z</time><name>PT5694</name></trkpt>
<trkpt lat="53.254787" lon="-2.000465"><ele>529</ele><time>2021-11-13T12:47:47Z</time><name>PT5695</name></trkpt>
<trkpt lat="53.254774" lon="-2.000474"><ele>528</ele><time>2021-11-13T12:47:48Z</time><name>PT5696</name></trkpt>
<trkpt lat="53.254759" lon="-2.000484"><ele>528</ele><time>2021-11-13T12:47:49Z</time><name>PT5697</name></trkpt>
<trkpt lat="53.254746" lon="-2.000489"><ele>528</ele><time>2021-11-13T12:47:50Z</time><name>PT5698</name></trkpt>
<trkpt lat="53.254734" lon="-2.000492"><ele>528</ele><time>2021-11-13T12:47:51Z</time><name>PT5699</name></trkpt>
<trkpt lat="53.254721" lon="-2.000498"><ele>528</ele><time>2021-11-13T12:47:52Z</time><name>PT5700</name></trkpt>
<trkpt lat="53.254707" lon="-2.000508"><ele>528</ele><time>2021-11-13T12:47:53Z</time><name>PT5701</name></trkpt>
<trkpt lat="53.254694" lon="-2.000514"><ele>528</ele><time>2021-11-13T12:47:54Z</time><name>PT5702</name></trkpt>
<trkpt lat="53.254683" lon="-2.000521"><ele>528</ele><time>2021-11-13T12:47:55Z</time><name>PT5703</name></trkpt>
<trkpt lat="53.254672" lon="-2.000524"><ele>528</ele><time>2021-11-13T12:47:56Z</time><name>PT5704</name></trkpt>
<trkpt lat="53.254661" lon="-2.000525"><ele>528</ele><time>2021-11-13T12:47:57Z</time><name>PT5705</name></trkpt>
<trkpt lat="53.254651" lon="-2.000525"><ele>528</ele><time>2021-11-13T12:47:58Z</time><name>PT5706</name></trkpt>
<trkpt lat="53.254641" lon="-2.000529"><ele>528</ele><time>2021-11-13T12:47:59Z</time><name>PT5707</name></trkpt>
<trkpt lat="53.254631" lon="-2.000531"><ele>528</ele><time>2021-11-13T12:48:00Z</time><name>PT5708</name></trkpt>
<trkpt lat="53.254621" lon="-2.000536"><ele>528</ele><time>2021-11-13T12:48:01Z</time><name>PT5709</name></trkpt>
<trkpt lat="53.254614" lon="-2.000544"><ele>528</ele><time>2021-11-13T12:48:02Z</time><name>PT5710</name></trkpt>
<trkpt lat="53.254607" lon="-2.000558"><ele>527</ele><time>2021-11-13T12:48:03Z</time><name>PT5711</name></trkpt>
<trkpt lat="53.254596" lon="-2.000571"><ele>527</ele><time>2021-11-13T12:48:04Z</time><name>PT5712</name></trkpt>
<trkpt lat="53.254583" lon="-2.000580"><ele>527</ele><time>2021-11-13T12:48:05Z</time><name>PT5713</name></trkpt>
<trkpt lat="53.254572" lon="-2.000585"><ele>527</ele><time>2021-11-13T12:48:06Z</time><name>PT5714</name></trkpt>
<trkpt lat="53.254559" lon="-2.000591"><ele>527</ele><time>2021-11-13T12:48:07Z</time><name>PT5715</name></trkpt>
<trkpt lat="53.254547" lon="-2.000594"><ele>527</ele><time>2021-11-13T12:48:08Z</time><name>PT5716</name></trkpt>
<trkpt lat="53.254536" lon="-2.000599"><ele>528</ele><time>2021-11-13T12:48:09Z</time><name>PT5717</name></trkpt>
<trkpt lat="53.254526" lon="-2.000601"><ele>527</ele><time>2021-11-13T12:48:10Z</time><name>PT5718</name></trkpt>
<trkpt lat="53.254511" lon="-2.000607"><ele>527</ele><time>2021-11-13T12:48:11Z</time><name>PT5719</name></trkpt>
<trkpt lat="53.254496" lon="-2.000614"><ele>527</ele><time>2021-11-13T12:48:12Z</time><name>PT5720</name></trkpt>
<trkpt lat="53.254481" lon="-2.000622"><ele>527</ele><time>2021-11-13T12:48:13Z</time><name>PT5721</name></trkpt>
<trkpt lat="53.254465" lon="-2.000630"><ele>528</ele><time>2021-11-13T12:48:14Z</time><name>PT5722</name></trkpt>
<trkpt lat="53.254450" lon="-2.000635"><ele>528</ele><time>2021-11-13T12:48:15Z</time><name>PT5723</name></trkpt>
<trkpt lat="53.254441" lon="-2.000639"><ele>528</ele><time>2021-11-13T12:48:16Z</time><name>PT5724</name></trkpt>
<trkpt lat="53.254428" lon="-2.000646"><ele>527</ele><time>2021-11-13T12:48:17Z</time><name>PT5725</name></trkpt>
<trkpt lat="53.254416" lon="-2.000656"><ele>527</ele><time>2021-11-13T12:48:18Z</time><name>PT5726</name></trkpt>
<trkpt lat="53.254404" lon="-2.000668"><ele>527</ele><time>2021-11-13T12:48:19Z</time><name>PT5727</name></trkpt>
<trkpt lat="53.254390" lon="-2.000676"><ele>528</ele><time>2021-11-13T12:48:20Z</time><name>PT5728</name></trkpt>
<trkpt lat="53.254380" lon="-2.000682"><ele>527</ele><time>2021-11-13T12:48:21Z</time><name>PT5729</name></trkpt>
<trkpt lat="53.254367" lon="-2.000686"><ele>527</ele><time>2021-11-13T12:48:22Z</time><name>PT5730</name></trkpt>
<trkpt lat="53.254353" lon="-2.000692"><ele>528</ele><time>2021-11-13T12:48:23Z</time><name>PT5731</name></trkpt>
<trkpt lat="53.254341" lon="-2.000700"><ele>528</ele><time>2021-11-13T12:48:24Z</time><name>PT5732</name></trkpt>
<trkpt lat="53.254330" lon="-2.000709"><ele>528</ele><time>2021-11-13T12:48:25Z</time><name>PT5733</name></trkpt>
<trkpt lat="53.254315" lon="-2.000714"><ele>528</ele><time>2021-11-13T12:48:26Z</time><name>PT5734</name></trkpt>
<trkpt lat="53.254304" lon="-2.000717"><ele>528</ele><time>2021-11-13T12:48:27Z</time><name>PT5735</name></trkpt>
<trkpt lat="53.254255" lon="-2.000738"><ele>527</ele><time>2021-11-13T12:48:31Z</time><name>PT5736</name></trkpt>
<trkpt lat="53.254207" lon="-2.000757"><ele>526</ele><time>2021-11-13T12:48:35Z</time><name>PT5737</name></trkpt>
<trkpt lat="53.254157" lon="-2.000774"><ele>526</ele><time>2021-11-13T12:48:39Z</time><name>PT5738</name></trkpt>
<trkpt lat="53.254108" lon="-2.000784"><ele>526</ele><time>2021-11-13T12:48:43Z</time><name>PT5739</name></trkpt>
<trkpt lat="53.254060" lon="-2.000777"><ele>527</ele><time>2021-11-13T12:48:47Z</time><name>PT5740</name></trkpt>
<trkpt lat="53.254018" lon="-2.000763"><ele>527</ele><time>2021-11-13T12:48:51Z</time><name>PT5741</name></trkpt>
<trkpt lat="53.253966" lon="-2.000759"><ele>527</ele><time>2021-11-13T12:48:55Z</time><name>PT5742</name></trkpt>
<trkpt lat="53.253923" lon="-2.000744"><ele>527</ele><time>2021-11-13T12:48:59Z</time><name>PT5743</name></trkpt>
<trkpt lat="53.253901" lon="-2.000735"><ele>527</ele><time>2021-11-13T12:49:03Z</time><name>PT5744</name></trkpt>
<trkpt lat="53.253892" lon="-2.000735"><ele>527</ele><time>2021-11-13T12:49:07Z</time><name>PT5745</name></trkpt>
<trkpt lat="53.253879" lon="-2.000733"><ele>527</ele><time>2021-11-13T12:49:11Z</time><name>PT5746</name></trkpt>
<trkpt lat="53.253878" lon="-2.000734"><ele>527</ele><time>2021-11-13T12:49:15Z</time><name>PT5747</name></trkpt>
<trkpt lat="53.253875" lon="-2.000740"><ele>527</ele><time>2021-11-13T12:49:19Z</time><name>PT5748</name></trkpt>
<trkpt lat="53.253875" lon="-2.000739"><ele>527</ele><time>2021-11-13T12:49:23Z</time><name>PT5749</name></trkpt>
<trkpt lat="53.253869" lon="-2.000748"><ele>527</ele><time>2021-11-13T12:49:27Z</time><name>PT5750</name></trkpt>
<trkpt lat="53.253854" lon="-2.000759"><ele>526</ele><time>2021-11-13T12:49:31Z</time><name>PT5751</name></trkpt>
<trkpt lat="53.253829" lon="-2.000778"><ele>527</ele><time>2021-11-13T12:49:35Z</time><name>PT5752</name></trkpt>
<trkpt lat="53.253793" lon="-2.000799"><ele>526</ele><time>2021-11-13T12:49:39Z</time><name>PT5753</name></trkpt>
<trkpt lat="53.253747" lon="-2.000818"><ele>526</ele><time>2021-11-13T12:49:43Z</time><name>PT5754</name></trkpt>
<trkpt lat="53.253701" lon="-2.000838"><ele>526</ele><time>2021-11-13T12:49:47Z</time><name>PT5755</name></trkpt>
<trkpt lat="53.253652" lon="-2.000861"><ele>526</ele><time>2021-11-13T12:49:51Z</time><name>PT5756</name></trkpt>
<trkpt lat="53.253604" lon="-2.000866"><ele>525</ele><time>2021-11-13T12:49:55Z</time><name>PT5757</name></trkpt>
<trkpt lat="53.253557" lon="-2.000886"><ele>525</ele><time>2021-11-13T12:49:59Z</time><name>PT5758</name></trkpt>
<trkpt lat="53.253512" lon="-2.000887"><ele>524</ele><time>2021-11-13T12:50:03Z</time><name>PT5759</name></trkpt>
<trkpt lat="53.253468" lon="-2.000896"><ele>523</ele><time>2021-11-13T12:50:07Z</time><name>PT5760</name></trkpt>
<trkpt lat="53.253442" lon="-2.000883"><ele>523</ele><time>2021-11-13T12:50:11Z</time><name>PT5761</name></trkpt>
<trkpt lat="53.253446" lon="-2.000854"><ele>523</ele><time>2021-11-13T12:50:15Z</time><name>PT5762</name></trkpt>
<trkpt lat="53.253446" lon="-2.000847"><ele>524</ele><time>2021-11-13T12:50:19Z</time><name>PT5763</name></trkpt>
<trkpt lat="53.253449" lon="-2.000810"><ele>523</ele><time>2021-11-13T12:50:31Z</time><name>PT5764</name></trkpt>
<trkpt lat="53.253448" lon="-2.000801"><ele>523</ele><time>2021-11-13T12:50:35Z</time><name>PT5765</name></trkpt>
<trkpt lat="53.253452" lon="-2.000773"><ele>523</ele><time>2021-11-13T12:50:39Z</time><name>PT5766</name></trkpt>
<trkpt lat="53.253484" lon="-2.000700"><ele>523</ele><time>2021-11-13T12:50:43Z</time><name>PT5767</name></trkpt>
<trkpt lat="53.253514" lon="-2.000639"><ele>524</ele><time>2021-11-13T12:50:47Z</time><name>PT5768</name></trkpt>
<trkpt lat="53.253541" lon="-2.000584"><ele>522</ele><time>2021-11-13T12:50:51Z</time><name>PT5769</name></trkpt>
<trkpt lat="53.253570" lon="-2.000522"><ele>523</ele><time>2021-11-13T12:50:55Z</time><name>PT5770</name></trkpt>
<trkpt lat="53.253600" lon="-2.000469"><ele>523</ele><time>2021-11-13T12:50:59Z</time><name>PT5771</name></trkpt>
<trkpt lat="53.253613" lon="-2.000386"><ele>522</ele><time>2021-11-13T12:51:03Z</time><name>PT5772</name></trkpt>
<trkpt lat="53.253639" lon="-2.000326"><ele>522</ele><time>2021-11-13T12:51:07Z</time><name>PT5773</name></trkpt>
<trkpt lat="53.253664" lon="-2.000260"><ele>522</ele><time>2021-11-13T12:51:11Z</time><name>PT5774</name></trkpt>
<trkpt lat="53.253673" lon="-2.000205"><ele>522</ele><time>2021-11-13T12:51:15Z</time><name>PT5775</name></trkpt>
<trkpt lat="53.253680" lon="-2.000148"><ele>522</ele><time>2021-11-13T12:51:19Z</time><name>PT5776</name></trkpt>
<trkpt lat="53.253686" lon="-2.000082"><ele>522</ele><time>2021-11-13T12:51:23Z</time><name>PT5777</name></trkpt>
<trkpt lat="53.253693" lon="-2.000026"><ele>521</ele><time>2021-11-13T12:51:27Z</time><name>PT5778</name></trkpt>
<trkpt lat="53.253702" lon="-1.999961"><ele>521</ele><time>2021-11-13T12:51:31Z</time><name>PT5779</name></trkpt>
<trkpt lat="53.253703" lon="-1.999907"><ele>520</ele><time>2021-11-13T12:51:35Z</time><name>PT5780</name></trkpt>
<trkpt lat="53.253697" lon="-1.999843"><ele>520</ele><time>2021-11-13T12:51:39Z</time><name>PT5781</name></trkpt>
<trkpt lat="53.253696" lon="-1.999778"><ele>520</ele><time>2021-11-13T12:51:43Z</time><name>PT5782</name></trkpt>
<trkpt lat="53.253690" lon="-1.999708"><ele>520</ele><time>2021-11-13T12:51:47Z</time><name>PT5783</name></trkpt>
<trkpt lat="53.253680" lon="-1.999637"><ele>520</ele><time>2021-11-13T12:51:51Z</time><name>PT5784</name></trkpt>
<trkpt lat="53.253680" lon="-1.999562"><ele>519</ele><time>2021-11-13T12:51:55Z</time><name>PT5785</name></trkpt>
<trkpt lat="53.253668" lon="-1.999488"><ele>519</ele><time>2021-11-13T12:51:59Z</time><name>PT5786</name></trkpt>
<trkpt lat="53.253648" lon="-1.999420"><ele>518</ele><time>2021-11-13T12:52:03Z</time><name>PT5787</name></trkpt>
<trkpt lat="53.253641" lon="-1.999354"><ele>517</ele><time>2021-11-13T12:52:07Z</time><name>PT5788</name></trkpt>
<trkpt lat="53.253631" lon="-1.999289"><ele>516</ele><time>2021-11-13T12:52:11Z</time><name>PT5789</name></trkpt>
<trkpt lat="53.253625" lon="-1.999229"><ele>516</ele><time>2021-11-13T12:52:15Z</time><name>PT5790</name></trkpt>
<trkpt lat="53.253614" lon="-1.999173"><ele>516</ele><time>2021-11-13T12:52:19Z</time><name>PT5791</name></trkpt>
<trkpt lat="53.253605" lon="-1.999113"><ele>516</ele><time>2021-11-13T12:52:23Z</time><name>PT5792</name></trkpt>
<trkpt lat="53.253597" lon="-1.999055"><ele>515</ele><time>2021-11-13T12:52:27Z</time><name>PT5793</name></trkpt>
<trkpt lat="53.253585" lon="-1.998989"><ele>515</ele><time>2021-11-13T12:52:31Z</time><name>PT5794</name></trkpt>
<trkpt lat="53.253573" lon="-1.998934"><ele>515</ele><time>2021-11-13T12:52:35Z</time><name>PT5795</name></trkpt>
<trkpt lat="53.253564" lon="-1.998879"><ele>514</ele><time>2021-11-13T12:52:39Z</time><name>PT5796</name></trkpt>
<trkpt lat="53.253551" lon="-1.998829"><ele>513</ele><time>2021-11-13T12:52:43Z</time><name>PT5797</name></trkpt>
<trkpt lat="53.253535" lon="-1.998768"><ele>512</ele><time>2021-11-13T12:52:47Z</time><name>PT5798</name></trkpt>
<trkpt lat="53.253528" lon="-1.998713"><ele>512</ele><time>2021-11-13T12:52:51Z</time><name>PT5799</name></trkpt>
<trkpt lat="53.253523" lon="-1.998649"><ele>511</ele><time>2021-11-13T12:52:55Z</time><name>PT5800</name></trkpt>
<trkpt lat="53.253508" lon="-1.998589"><ele>511</ele><time>2021-11-13T12:52:59Z</time><name>PT5801</name></trkpt>
<trkpt lat="53.253494" lon="-1.998529"><ele>510</ele><time>2021-11-13T12:53:03Z</time><name>PT5802</name></trkpt>
<trkpt lat="53.253489" lon="-1.998468"><ele>508</ele><time>2021-11-13T12:53:07Z</time><name>PT5803</name></trkpt>
<trkpt lat="53.253491" lon="-1.998412"><ele>508</ele><time>2021-11-13T12:53:11Z</time><name>PT5804</name></trkpt>
<trkpt lat="53.253489" lon="-1.998351"><ele>506</ele><time>2021-11-13T12:53:15Z</time><name>PT5805</name></trkpt>
<trkpt lat="53.253485" lon="-1.998284"><ele>505</ele><time>2021-11-13T12:53:19Z</time><name>PT5806</name></trkpt>
<trkpt lat="53.253478" lon="-1.998225"><ele>504</ele><time>2021-11-13T12:53:23Z</time><name>PT5807</name></trkpt>
<trkpt lat="53.253475" lon="-1.998155"><ele>503</ele><time>2021-11-13T12:53:27Z</time><name>PT5808</name></trkpt>
<trkpt lat="53.253473" lon="-1.998089"><ele>503</ele><time>2021-11-13T12:53:31Z</time><name>PT5809</name></trkpt>
<trkpt lat="53.253478" lon="-1.998035"><ele>502</ele><time>2021-11-13T12:53:35Z</time><name>PT5810</name></trkpt>
<trkpt lat="53.253475" lon="-1.997988"><ele>502</ele><time>2021-11-13T12:53:39Z</time><name>PT5811</name></trkpt>
<trkpt lat="53.253469" lon="-1.997925"><ele>501</ele><time>2021-11-13T12:53:43Z</time><name>PT5812</name></trkpt>
<trkpt lat="53.253473" lon="-1.997861"><ele>499</ele><time>2021-11-13T12:53:47Z</time><name>PT5813</name></trkpt>
<trkpt lat="53.253475" lon="-1.997804"><ele>499</ele><time>2021-11-13T12:53:51Z</time><name>PT5814</name></trkpt>
<trkpt lat="53.253480" lon="-1.997747"><ele>498</ele><time>2021-11-13T12:53:55Z</time><name>PT5815</name></trkpt>
<trkpt lat="53.253488" lon="-1.997690"><ele>498</ele><time>2021-11-13T12:53:59Z</time><name>PT5816</name></trkpt>
<trkpt lat="53.253498" lon="-1.997630"><ele>497</ele><time>2021-11-13T12:54:03Z</time><name>PT5817</name></trkpt>
<trkpt lat="53.253515" lon="-1.997576"><ele>497</ele><time>2021-11-13T12:54:07Z</time><name>PT5818</name></trkpt>
<trkpt lat="53.253531" lon="-1.997522"><ele>495</ele><time>2021-11-13T12:54:11Z</time><name>PT5819</name></trkpt>
<trkpt lat="53.253539" lon="-1.997466"><ele>495</ele><time>2021-11-13T12:54:15Z</time><name>PT5820</name></trkpt>
<trkpt lat="53.253545" lon="-1.997407"><ele>494</ele><time>2021-11-13T12:54:19Z</time><name>PT5821</name></trkpt>
<trkpt lat="53.253553" lon="-1.997354"><ele>493</ele><time>2021-11-13T12:54:23Z</time><name>PT5822</name></trkpt>
<trkpt lat="53.253559" lon="-1.997300"><ele>492</ele><time>2021-11-13T12:54:27Z</time><name>PT5823</name></trkpt>
<trkpt lat="53.253558" lon="-1.997227"><ele>492</ele><time>2021-11-13T12:54:31Z</time><name>PT5824</name></trkpt>
<trkpt lat="53.253551" lon="-1.997163"><ele>492</ele><time>2021-11-13T12:54:35Z</time><name>PT5825</name></trkpt>
<trkpt lat="53.253555" lon="-1.997107"><ele>491</ele><time>2021-11-13T12:54:39Z</time><name>PT5826</name></trkpt>
<trkpt lat="53.253566" lon="-1.997050"><ele>490</ele><time>2021-11-13T12:54:43Z</time><name>PT5827</name></trkpt>
<trkpt lat="53.253576" lon="-1.996990"><ele>489</ele><time>2021-11-13T12:54:47Z</time><name>PT5828</name></trkpt>
<trkpt lat="53.253587" lon="-1.996935"><ele>487</ele><time>2021-11-13T12:54:51Z</time><name>PT5829</name></trkpt>
<trkpt lat="53.253596" lon="-1.996890"><ele>486</ele><time>2021-11-13T12:54:55Z</time><name>PT5830</name></trkpt>
<trkpt lat="53.253608" lon="-1.996831"><ele>484</ele><time>2021-11-13T12:54:59Z</time><name>PT5831</name></trkpt>
<trkpt lat="53.253609" lon="-1.996766"><ele>484</ele><time>2021-11-13T12:55:03Z</time><name>PT5832</name></trkpt>
<trkpt lat="53.253623" lon="-1.996700"><ele>483</ele><time>2021-11-13T12:55:07Z</time><name>PT5833</name></trkpt>
<trkpt lat="53.253630" lon="-1.996645"><ele>482</ele><time>2021-11-13T12:55:11Z</time><name>PT5834</name></trkpt>
<trkpt lat="53.253635" lon="-1.996588"><ele>481</ele><time>2021-11-13T12:55:15Z</time><name>PT5835</name></trkpt>
<trkpt lat="53.253636" lon="-1.996522"><ele>482</ele><time>2021-11-13T12:55:19Z</time><name>PT5836</name></trkpt>
<trkpt lat="53.253635" lon="-1.996440"><ele>481</ele><time>2021-11-13T12:55:23Z</time><name>PT5837</name></trkpt>
<trkpt lat="53.253650" lon="-1.996382"><ele>480</ele><time>2021-11-13T12:55:27Z</time><name>PT5838</name></trkpt>
<trkpt lat="53.253649" lon="-1.996318"><ele>480</ele><time>2021-11-13T12:55:31Z</time><name>PT5839</name></trkpt>
<trkpt lat="53.253656" lon="-1.996254"><ele>479</ele><time>2021-11-13T12:55:35Z</time><name>PT5840</name></trkpt>
<trkpt lat="53.253656" lon="-1.996196"><ele>478</ele><time>2021-11-13T12:55:39Z</time><name>PT5841</name></trkpt>
<trkpt lat="53.253672" lon="-1.996153"><ele>476</ele><time>2021-11-13T12:55:43Z</time><name>PT5842</name></trkpt>
<trkpt lat="53.253673" lon="-1.996106"><ele>475</ele><time>2021-11-13T12:55:47Z</time><name>PT5843</name></trkpt>
<trkpt lat="53.253675" lon="-1.996042"><ele>474</ele><time>2021-11-13T12:55:51Z</time><name>PT5844</name></trkpt>
<trkpt lat="53.253685" lon="-1.995984"><ele>474</ele><time>2021-11-13T12:55:55Z</time><name>PT5845</name></trkpt>
<trkpt lat="53.253683" lon="-1.995925"><ele>473</ele><time>2021-11-13T12:55:59Z</time><name>PT5846</name></trkpt>
<trkpt lat="53.253674" lon="-1.995855"><ele>474</ele><time>2021-11-13T12:56:03Z</time><name>PT5847</name></trkpt>
<trkpt lat="53.253687" lon="-1.995798"><ele>473</ele><time>2021-11-13T12:56:07Z</time><name>PT5848</name></trkpt>
<trkpt lat="53.253691" lon="-1.995744"><ele>472</ele><time>2021-11-13T12:56:11Z</time><name>PT5849</name></trkpt>
<trkpt lat="53.253687" lon="-1.995701"><ele>471</ele><time>2021-11-13T12:56:15Z</time><name>PT5850</name></trkpt>
<trkpt lat="53.253675" lon="-1.995643"><ele>472</ele><time>2021-11-13T12:56:19Z</time><name>PT5851</name></trkpt>
<trkpt lat="53.253682" lon="-1.995604"><ele>471</ele><time>2021-11-13T12:56:23Z</time><name>PT5852</name></trkpt>
<trkpt lat="53.253682" lon="-1.995543"><ele>470</ele><time>2021-11-13T12:56:27Z</time><name>PT5853</name></trkpt>
<trkpt lat="53.253657" lon="-1.995464"><ele>470</ele><time>2021-11-13T12:56:31Z</time><name>PT5854</name></trkpt>
<trkpt lat="53.253646" lon="-1.995405"><ele>470</ele><time>2021-11-13T12:56:35Z</time><name>PT5855</name></trkpt>
<trkpt lat="53.253644" lon="-1.995358"><ele>469</ele><time>2021-11-13T12:56:39Z</time><name>PT5856</name></trkpt>
<trkpt lat="53.253649" lon="-1.995314"><ele>468</ele><time>2021-11-13T12:56:43Z</time><name>PT5857</name></trkpt>
<trkpt lat="53.253663" lon="-1.995267"><ele>466</ele><time>2021-11-13T12:56:47Z</time><name>PT5858</name></trkpt>
<trkpt lat="53.253678" lon="-1.995212"><ele>465</ele><time>2021-11-13T12:56:51Z</time><name>PT5859</name></trkpt>
<trkpt lat="53.253681" lon="-1.995155"><ele>464</ele><time>2021-11-13T12:56:55Z</time><name>PT5860</name></trkpt>
<trkpt lat="53.253686" lon="-1.995106"><ele>463</ele><time>2021-11-13T12:56:59Z</time><name>PT5861</name></trkpt>
<trkpt lat="53.253679" lon="-1.995046"><ele>462</ele><time>2021-11-13T12:57:03Z</time><name>PT5862</name></trkpt>
<trkpt lat="53.253685" lon="-1.994987"><ele>461</ele><time>2021-11-13T12:57:07Z</time><name>PT5863</name></trkpt>
<trkpt lat="53.253689" lon="-1.994919"><ele>460</ele><time>2021-11-13T12:57:11Z</time><name>PT5864</name></trkpt>
<trkpt lat="53.253694" lon="-1.994858"><ele>460</ele><time>2021-11-13T12:57:15Z</time><name>PT5865</name></trkpt>
<trkpt lat="53.253690" lon="-1.994804"><ele>459</ele><time>2021-11-13T12:57:19Z</time><name>PT5866</name></trkpt>
<trkpt lat="53.253691" lon="-1.994739"><ele>459</ele><time>2021-11-13T12:57:23Z</time><name>PT5867</name></trkpt>
<trkpt lat="53.253703" lon="-1.994689"><ele>458</ele><time>2021-11-13T12:57:27Z</time><name>PT5868</name></trkpt>
<trkpt lat="53.253715" lon="-1.994639"><ele>457</ele><time>2021-11-13T12:57:31Z</time><name>PT5869</name></trkpt>
<trkpt lat="53.253727" lon="-1.994595"><ele>456</ele><time>2021-11-13T12:57:35Z</time><name>PT5870</name></trkpt>
<trkpt lat="53.253738" lon="-1.994539"><ele>455</ele><time>2021-11-13T12:57:39Z</time><name>PT5871</name></trkpt>
<trkpt lat="53.253752" lon="-1.994479"><ele>454</ele><time>2021-11-13T12:57:43Z</time><name>PT5872</name></trkpt>
<trkpt lat="53.253764" lon="-1.994421"><ele>454</ele><time>2021-11-13T12:57:47Z</time><name>PT5873</name></trkpt>
<trkpt lat="53.253762" lon="-1.994356"><ele>453</ele><time>2021-11-13T12:57:51Z</time><name>PT5874</name></trkpt>
<trkpt lat="53.253763" lon="-1.994300"><ele>452</ele><time>2021-11-13T12:57:55Z</time><name>PT5875</name></trkpt>
<trkpt lat="53.253757" lon="-1.994238"><ele>451</ele><time>2021-11-13T12:57:59Z</time><name>PT5876</name></trkpt>
<trkpt lat="53.253764" lon="-1.994198"><ele>450</ele><time>2021-11-13T12:58:03Z</time><name>PT5877</name></trkpt>
<trkpt lat="53.253766" lon="-1.994138"><ele>449</ele><time>2021-11-13T12:58:07Z</time><name>PT5878</name></trkpt>
<trkpt lat="53.253772" lon="-1.994090"><ele>449</ele><time>2021-11-13T12:58:11Z</time><name>PT5879</name></trkpt>
<trkpt lat="53.253775" lon="-1.994037"><ele>449</ele><time>2021-11-13T12:58:15Z</time><name>PT5880</name></trkpt>
<trkpt lat="53.253781" lon="-1.993973"><ele>448</ele><time>2021-11-13T12:58:19Z</time><name>PT5881</name></trkpt>
<trkpt lat="53.253796" lon="-1.993922"><ele>448</ele><time>2021-11-13T12:58:23Z</time><name>PT5882</name></trkpt>
<trkpt lat="53.253817" lon="-1.993868"><ele>448</ele><time>2021-11-13T12:58:27Z</time><name>PT5883</name></trkpt>
<trkpt lat="53.253824" lon="-1.993808"><ele>447</ele><time>2021-11-13T12:58:31Z</time><name>PT5884</name></trkpt>
<trkpt lat="53.253829" lon="-1.993753"><ele>446</ele><time>2021-11-13T12:58:35Z</time><name>PT5885</name></trkpt>
<trkpt lat="53.253831" lon="-1.993699"><ele>445</ele><time>2021-11-13T12:58:39Z</time><name>PT5886</name></trkpt>
<trkpt lat="53.253833" lon="-1.993649"><ele>444</ele><time>2021-11-13T12:58:43Z</time><name>PT5887</name></trkpt>
<trkpt lat="53.253849" lon="-1.993601"><ele>443</ele><time>2021-11-13T12:58:47Z</time><name>PT5888</name></trkpt>
<trkpt lat="53.253863" lon="-1.993550"><ele>442</ele><time>2021-11-13T12:58:51Z</time><name>PT5889</name></trkpt>
<trkpt lat="53.253878" lon="-1.993492"><ele>441</ele><time>2021-11-13T12:58:55Z</time><name>PT5890</name></trkpt>
<trkpt lat="53.253886" lon="-1.993433"><ele>440</ele><time>2021-11-13T12:58:59Z</time><name>PT5891</name></trkpt>
<trkpt lat="53.253895" lon="-1.993397"><ele>440</ele><time>2021-11-13T12:59:03Z</time><name>PT5892</name></trkpt>
<trkpt lat="53.253901" lon="-1.993346"><ele>439</ele><time>2021-11-13T12:59:07Z</time><name>PT5893</name></trkpt>
<trkpt lat="53.253907" lon="-1.993297"><ele>439</ele><time>2021-11-13T12:59:11Z</time><name>PT5894</name></trkpt>
<trkpt lat="53.253907" lon="-1.993239"><ele>438</ele><time>2021-11-13T12:59:15Z</time><name>PT5895</name></trkpt>
<trkpt lat="53.253913" lon="-1.993190"><ele>437</ele><time>2021-11-13T12:59:19Z</time><name>PT5896</name></trkpt>
<trkpt lat="53.253924" lon="-1.993147"><ele>437</ele><time>2021-11-13T12:59:23Z</time><name>PT5897</name></trkpt>
<trkpt lat="53.253912" lon="-1.993088"><ele>437</ele><time>2021-11-13T12:59:27Z</time><name>PT5898</name></trkpt>
<trkpt lat="53.253918" lon="-1.993042"><ele>435</ele><time>2021-11-13T12:59:31Z</time><name>PT5899</name></trkpt>
<trkpt lat="53.253904" lon="-1.992980"><ele>434</ele><time>2021-11-13T12:59:35Z</time><name>PT5900</name></trkpt>
<trkpt lat="53.253889" lon="-1.992930"><ele>434</ele><time>2021-11-13T12:59:39Z</time><name>PT5901</name></trkpt>
<trkpt lat="53.253896" lon="-1.992888"><ele>433</ele><time>2021-11-13T12:59:43Z</time><name>PT5902</name></trkpt>
<trkpt lat="53.253914" lon="-1.992848"><ele>432</ele><time>2021-11-13T12:59:47Z</time><name>PT5903</name></trkpt>
<trkpt lat="53.253931" lon="-1.992805"><ele>432</ele><time>2021-11-13T12:59:51Z</time><name>PT5904</name></trkpt>
<trkpt lat="53.253946" lon="-1.992745"><ele>431</ele><time>2021-11-13T12:59:55Z</time><name>PT5905</name></trkpt>
<trkpt lat="53.253951" lon="-1.992692"><ele>430</ele><time>2021-11-13T12:59:59Z</time><name>PT5906</name></trkpt>
<trkpt lat="53.253950" lon="-1.992647"><ele>429</ele><time>2021-11-13T13:00:03Z</time><name>PT5907</name></trkpt>
<trkpt lat="53.253958" lon="-1.992597"><ele>427</ele><time>2021-11-13T13:00:07Z</time><name>PT5908</name></trkpt>
<trkpt lat="53.253959" lon="-1.992574"><ele>426</ele><time>2021-11-13T13:00:09Z</time><name>PT5909</name></trkpt>
<trkpt lat="53.253953" lon="-1.992550"><ele>427</ele><time>2021-11-13T13:00:10Z</time><name>PT5910</name></trkpt>
<trkpt lat="53.253949" lon="-1.992531"><ele>429</ele><time>2021-11-13T13:00:11Z</time><name>PT5911</name></trkpt>
<trkpt lat="53.253945" lon="-1.992537"><ele>428</ele><time>2021-11-13T13:00:16Z</time><name>PT5912</name></trkpt>
<trkpt lat="53.253946" lon="-1.992519"><ele>427</ele><time>2021-11-13T13:00:17Z</time><name>PT5913</name></trkpt>
<trkpt lat="53.253948" lon="-1.992519"><ele>428</ele><time>2021-11-13T13:00:18Z</time><name>PT5914</name></trkpt>
<trkpt lat="53.253949" lon="-1.992519"><ele>428</ele><time>2021-11-13T13:00:19Z</time><name>PT5915</name></trkpt>
<trkpt lat="53.253955" lon="-1.992490"><ele>428</ele><time>2021-11-13T13:00:44Z</time><name>PT5916</name></trkpt>
<trkpt lat="53.253961" lon="-1.992475"><ele>428</ele><time>2021-11-13T13:00:45Z</time><name>PT5917</name></trkpt>
<trkpt lat="53.253965" lon="-1.992464"><ele>428</ele><time>2021-11-13T13:00:46Z</time><name>PT5918</name></trkpt>
<trkpt lat="53.253970" lon="-1.992453"><ele>427</ele><time>2021-11-13T13:00:47Z</time><name>PT5919</name></trkpt>
<trkpt lat="53.253974" lon="-1.992441"><ele>427</ele><time>2021-11-13T13:00:48Z</time><name>PT5920</name></trkpt>
<trkpt lat="53.253978" lon="-1.992426"><ele>427</ele><time>2021-11-13T13:00:49Z</time><name>PT5921</name></trkpt>
<trkpt lat="53.253980" lon="-1.992406"><ele>426</ele><time>2021-11-13T13:00:50Z</time><name>PT5922</name></trkpt>
<trkpt lat="53.253986" lon="-1.992399"><ele>426</ele><time>2021-11-13T13:00:51Z</time><name>PT5923</name></trkpt>
<trkpt lat="53.253992" lon="-1.992390"><ele>425</ele><time>2021-11-13T13:00:52Z</time><name>PT5924</name></trkpt>
<trkpt lat="53.253997" lon="-1.992379"><ele>425</ele><time>2021-11-13T13:00:53Z</time><name>PT5925</name></trkpt>
<trkpt lat="53.254003" lon="-1.992367"><ele>424</ele><time>2021-11-13T13:00:54Z</time><name>PT5926</name></trkpt>
<trkpt lat="53.254009" lon="-1.992352"><ele>424</ele><time>2021-11-13T13:00:55Z</time><name>PT5927</name></trkpt>
<trkpt lat="53.254015" lon="-1.992335"><ele>423</ele><time>2021-11-13T13:00:56Z</time><name>PT5928</name></trkpt>
<trkpt lat="53.254021" lon="-1.992318"><ele>423</ele><time>2021-11-13T13:00:57Z</time><name>PT5929</name></trkpt>
<trkpt lat="53.254025" lon="-1.992309"><ele>423</ele><time>2021-11-13T13:00:58Z</time><name>PT5930</name></trkpt>
<trkpt lat="53.254029" lon="-1.992299"><ele>423</ele><time>2021-11-13T13:00:59Z</time><name>PT5931</name></trkpt>
<trkpt lat="53.254035" lon="-1.992287"><ele>422</ele><time>2021-11-13T13:01:00Z</time><name>PT5932</name></trkpt>
<trkpt lat="53.254044" lon="-1.992274"><ele>422</ele><time>2021-11-13T13:01:01Z</time><name>PT5933</name></trkpt>
<trkpt lat="53.254052" lon="-1.992261"><ele>421</ele><time>2021-11-13T13:01:02Z</time><name>PT5934</name></trkpt>
<trkpt lat="53.254061" lon="-1.992251"><ele>421</ele><time>2021-11-13T13:01:03Z</time><name>PT5935</name></trkpt>
<trkpt lat="53.254069" lon="-1.992237"><ele>421</ele><time>2021-11-13T13:01:04Z</time><name>PT5936</name></trkpt>
<trkpt lat="53.254078" lon="-1.992223"><ele>420</ele><time>2021-11-13T13:01:05Z</time><name>PT5937</name></trkpt>
<trkpt lat="53.254085" lon="-1.992205"><ele>421</ele><time>2021-11-13T13:01:06Z</time><name>PT5938</name></trkpt>
<trkpt lat="53.254095" lon="-1.992192"><ele>420</ele><time>2021-11-13T13:01:07Z</time><name>PT5939</name></trkpt>
<trkpt lat="53.254102" lon="-1.992177"><ele>420</ele><time>2021-11-13T13:01:08Z</time><name>PT5940</name></trkpt>
<trkpt lat="53.254110" lon="-1.992163"><ele>419</ele><time>2021-11-13T13:01:09Z</time><name>PT5941</name></trkpt>
<trkpt lat="53.254118" lon="-1.992154"><ele>419</ele><time>2021-11-13T13:01:10Z</time><name>PT5942</name></trkpt>
<trkpt lat="53.254126" lon="-1.992146"><ele>419</ele><time>2021-11-13T13:01:11Z</time><name>PT5943</name></trkpt>
<trkpt lat="53.254133" lon="-1.992130"><ele>419</ele><time>2021-11-13T13:01:12Z</time><name>PT5944</name></trkpt>
<trkpt lat="53.254138" lon="-1.992113"><ele>419</ele><time>2021-11-13T13:01:13Z</time><name>PT5945</name></trkpt>
<trkpt lat="53.254143" lon="-1.992094"><ele>418</ele><time>2021-11-13T13:01:14Z</time><name>PT5946</name></trkpt>
<trkpt lat="53.254150" lon="-1.992081"><ele>418</ele><time>2021-11-13T13:01:15Z</time><name>PT5947</name></trkpt>
<trkpt lat="53.254158" lon="-1.992070"><ele>418</ele><time>2021-11-13T13:01:16Z</time><name>PT5948</name></trkpt>
<trkpt lat="53.254164" lon="-1.992055"><ele>418</ele><time>2021-11-13T13:01:17Z</time><name>PT5949</name></trkpt>
<trkpt lat="53.254170" lon="-1.992046"><ele>417</ele><time>2021-11-13T13:01:18Z</time><name>PT5950</name></trkpt>
<trkpt lat="53.254171" lon="-1.992032"><ele>417</ele><time>2021-11-13T13:01:19Z</time><name>PT5951</name></trkpt>
<trkpt lat="53.254172" lon="-1.992016"><ele>417</ele><time>2021-11-13T13:01:20Z</time><name>PT5952</name></trkpt>
<trkpt lat="53.254175" lon="-1.992002"><ele>417</ele><time>2021-11-13T13:01:21Z</time><name>PT5953</name></trkpt>
<trkpt lat="53.254177" lon="-1.991987"><ele>417</ele><time>2021-11-13T13:01:22Z</time><name>PT5954</name></trkpt>
<trkpt lat="53.254185" lon="-1.991973"><ele>416</ele><time>2021-11-13T13:01:23Z</time><name>PT5955</name></trkpt>
<trkpt lat="53.254191" lon="-1.991962"><ele>416</ele><time>2021-11-13T13:01:24Z</time><name>PT5956</name></trkpt>
<trkpt lat="53.254193" lon="-1.991946"><ele>417</ele><time>2021-11-13T13:01:25Z</time><name>PT5957</name></trkpt>
<trkpt lat="53.254195" lon="-1.991929"><ele>417</ele><time>2021-11-13T13:01:26Z</time><name>PT5958</name></trkpt>
<trkpt lat="53.254192" lon="-1.991918"><ele>417</ele><time>2021-11-13T13:01:27Z</time><name>PT5959</name></trkpt>
<trkpt lat="53.254194" lon="-1.991904"><ele>416</ele><time>2021-11-13T13:01:28Z</time><name>PT5960</name></trkpt>
<trkpt lat="53.254199" lon="-1.991890"><ele>416</ele><time>2021-11-13T13:01:29Z</time><name>PT5961</name></trkpt>
<trkpt lat="53.254204" lon="-1.991875"><ele>417</ele><time>2021-11-13T13:01:30Z</time><name>PT5962</name></trkpt>
<trkpt lat="53.254207" lon="-1.991866"><ele>416</ele><time>2021-11-13T13:01:31Z</time><name>PT5963</name></trkpt>
<trkpt lat="53.254218" lon="-1.991860"><ele>416</ele><time>2021-11-13T13:01:32Z</time><name>PT5964</name></trkpt>
<trkpt lat="53.254228" lon="-1.991844"><ele>416</ele><time>2021-11-13T13:01:33Z</time><name>PT5965</name></trkpt>
<trkpt lat="53.254233" lon="-1.991830"><ele>416</ele><time>2021-11-13T13:01:34Z</time><name>PT5966</name></trkpt>
<trkpt lat="53.254236" lon="-1.991817"><ele>416</ele><time>2021-11-13T13:01:35Z</time><name>PT5967</name></trkpt>
<trkpt lat="53.254236" lon="-1.991805"><ele>416</ele><time>2021-11-13T13:01:36Z</time><name>PT5968</name></trkpt>
<trkpt lat="53.254239" lon="-1.991791"><ele>416</ele><time>2021-11-13T13:01:37Z</time><name>PT5969</name></trkpt>
<trkpt lat="53.254241" lon="-1.991788"><ele>414</ele><time>2021-11-13T13:01:38Z</time><name>PT5970</name></trkpt>
<trkpt lat="53.254244" lon="-1.991777"><ele>414</ele><time>2021-11-13T13:01:39Z</time><name>PT5971</name></trkpt>
<trkpt lat="53.254252" lon="-1.991765"><ele>413</ele><time>2021-11-13T13:01:40Z</time><name>PT5972</name></trkpt>
<trkpt lat="53.254258" lon="-1.991749"><ele>414</ele><time>2021-11-13T13:01:41Z</time><name>PT5973</name></trkpt>
<trkpt lat="53.254262" lon="-1.991732"><ele>414</ele><time>2021-11-13T13:01:42Z</time><name>PT5974</name></trkpt>
<trkpt lat="53.254263" lon="-1.991719"><ele>414</ele><time>2021-11-13T13:01:43Z</time><name>PT5975</name></trkpt>
<trkpt lat="53.254268" lon="-1.991708"><ele>413</ele><time>2021-11-13T13:01:44Z</time><name>PT5976</name></trkpt>
<trkpt lat="53.254272" lon="-1.991697"><ele>413</ele><time>2021-11-13T13:01:45Z</time><name>PT5977</name></trkpt>
<trkpt lat="53.254278" lon="-1.991688"><ele>413</ele><time>2021-11-13T13:01:46Z</time><name>PT5978</name></trkpt>
<trkpt lat="53.254283" lon="-1.991677"><ele>413</ele><time>2021-11-13T13:01:47Z</time><name>PT5979</name></trkpt>
<trkpt lat="53.254285" lon="-1.991661"><ele>414</ele><time>2021-11-13T13:01:48Z</time><name>PT5980</name></trkpt>
<trkpt lat="53.254290" lon="-1.991648"><ele>414</ele><time>2021-11-13T13:01:49Z</time><name>PT5981</name></trkpt>
<trkpt lat="53.254297" lon="-1.991634"><ele>413</ele><time>2021-11-13T13:01:50Z</time><name>PT5982</name></trkpt>
<trkpt lat="53.254298" lon="-1.991621"><ele>414</ele><time>2021-11-13T13:01:51Z</time><name>PT5983</name></trkpt>
<trkpt lat="53.254296" lon="-1.991602"><ele>414</ele><time>2021-11-13T13:01:52Z</time><name>PT5984</name></trkpt>
<trkpt lat="53.254292" lon="-1.991587"><ele>414</ele><time>2021-11-13T13:01:53Z</time><name>PT5985</name></trkpt>
<trkpt lat="53.254293" lon="-1.991571"><ele>415</ele><time>2021-11-13T13:01:54Z</time><name>PT5986</name></trkpt>
<trkpt lat="53.254296" lon="-1.991552"><ele>415</ele><time>2021-11-13T13:01:55Z</time><name>PT5987</name></trkpt>
<trkpt lat="53.254302" lon="-1.991536"><ele>415</ele><time>2021-11-13T13:01:56Z</time><name>PT5988</name></trkpt>
<trkpt lat="53.254310" lon="-1.991521"><ele>414</ele><time>2021-11-13T13:01:57Z</time><name>PT5989</name></trkpt>
<trkpt lat="53.254317" lon="-1.991508"><ele>414</ele><time>2021-11-13T13:01:58Z</time><name>PT5990</name></trkpt>
<trkpt lat="53.254320" lon="-1.991492"><ele>414</ele><time>2021-11-13T13:01:59Z</time><name>PT5991</name></trkpt>
<trkpt lat="53.254327" lon="-1.991473"><ele>414</ele><time>2021-11-13T13:02:00Z</time><name>PT5992</name></trkpt>
<trkpt lat="53.254334" lon="-1.991456"><ele>414</ele><time>2021-11-13T13:02:01Z</time><name>PT5993</name></trkpt>
<trkpt lat="53.254342" lon="-1.991438"><ele>413</ele><time>2021-11-13T13:02:02Z</time><name>PT5994</name></trkpt>
<trkpt lat="53.254348" lon="-1.991423"><ele>413</ele><time>2021-11-13T13:02:03Z</time><name>PT5995</name></trkpt>
<trkpt lat="53.254357" lon="-1.991408"><ele>413</ele><time>2021-11-13T13:02:04Z</time><name>PT5996</name></trkpt>
<trkpt lat="53.254365" lon="-1.991392"><ele>413</ele><time>2021-11-13T13:02:05Z</time><name>PT5997</name></trkpt>
<trkpt lat="53.254373" lon="-1.991374"><ele>413</ele><time>2021-11-13T13:02:06Z</time><name>PT5998</name></trkpt>
<trkpt lat="53.254381" lon="-1.991357"><ele>413</ele><time>2021-11-13T13:02:07Z</time><name>PT5999</name></trkpt>
<trkpt lat="53.254388" lon="-1.991341"><ele>413</ele><time>2021-11-13T13:02:08Z</time><name>PT6000</name></trkpt>
<trkpt lat="53.254404" lon="-1.991302"><ele>413</ele><time>2021-11-13T13:02:11Z</time><name>PT6001</name></trkpt>
<trkpt lat="53.254431" lon="-1.991264"><ele>414</ele><time>2021-11-13T13:02:15Z</time><name>PT6002</name></trkpt>
<trkpt lat="53.254466" lon="-1.991215"><ele>413</ele><time>2021-11-13T13:02:19Z</time><name>PT6003</name></trkpt>
<trkpt lat="53.254507" lon="-1.991168"><ele>412</ele><time>2021-11-13T13:02:23Z</time><name>PT6004</name></trkpt>
<trkpt lat="53.254544" lon="-1.991119"><ele>412</ele><time>2021-11-13T13:02:27Z</time><name>PT6005</name></trkpt>
<trkpt lat="53.254570" lon="-1.991085"><ele>411</ele><time>2021-11-13T13:02:31Z</time><name>PT6006</name></trkpt>
<trkpt lat="53.254597" lon="-1.991045"><ele>408</ele><time>2021-11-13T13:02:35Z</time><name>PT6007</name></trkpt>
<trkpt lat="53.254640" lon="-1.990994"><ele>407</ele><time>2021-11-13T13:02:39Z</time><name>PT6008</name></trkpt>
<trkpt lat="53.254686" lon="-1.990962"><ele>408</ele><time>2021-11-13T13:02:43Z</time><name>PT6009</name></trkpt>
<trkpt lat="53.254724" lon="-1.990935"><ele>408</ele><time>2021-11-13T13:02:47Z</time><name>PT6010</name></trkpt>
<trkpt lat="53.254758" lon="-1.990889"><ele>409</ele><time>2021-11-13T13:02:51Z</time><name>PT6011</name></trkpt>
<trkpt lat="53.254792" lon="-1.990860"><ele>409</ele><time>2021-11-13T13:02:55Z</time><name>PT6012</name></trkpt>
<trkpt lat="53.254823" lon="-1.990860"><ele>409</ele><time>2021-11-13T13:02:59Z</time><name>PT6013</name></trkpt>
<trkpt lat="53.254862" lon="-1.990851"><ele>408</ele><time>2021-11-13T13:03:03Z</time><name>PT6014</name></trkpt>
<trkpt lat="53.254905" lon="-1.990842"><ele>408</ele><time>2021-11-13T13:03:07Z</time><name>PT6015</name></trkpt>
<trkpt lat="53.254950" lon="-1.990807"><ele>409</ele><time>2021-11-13T13:03:11Z</time><name>PT6016</name></trkpt>
<trkpt lat="53.254986" lon="-1.990777"><ele>409</ele><time>2021-11-13T13:03:15Z</time><name>PT6017</name></trkpt>
<trkpt lat="53.255022" lon="-1.990756"><ele>409</ele><time>2021-11-13T13:03:19Z</time><name>PT6018</name></trkpt>
<trkpt lat="53.255053" lon="-1.990733"><ele>408</ele><time>2021-11-13T13:03:23Z</time><name>PT6019</name></trkpt>
<trkpt lat="53.255087" lon="-1.990686"><ele>407</ele><time>2021-11-13T13:03:27Z</time><name>PT6020</name></trkpt>
<trkpt lat="53.255113" lon="-1.990666"><ele>406</ele><time>2021-11-13T13:03:31Z</time><name>PT6021</name></trkpt>
<trkpt lat="53.255138" lon="-1.990649"><ele>406</ele><time>2021-11-13T13:03:34Z</time><name>PT6022</name></trkpt>
<trkpt lat="53.255147" lon="-1.990648"><ele>406</ele><time>2021-11-13T13:03:35Z</time><name>PT6023</name></trkpt>
<trkpt lat="53.255161" lon="-1.990641"><ele>405</ele><time>2021-11-13T13:03:36Z</time><name>PT6024</name></trkpt>
<trkpt lat="53.255176" lon="-1.990634"><ele>406</ele><time>2021-11-13T13:03:37Z</time><name>PT6025</name></trkpt>
<trkpt lat="53.255189" lon="-1.990628"><ele>407</ele><time>2021-11-13T13:03:38Z</time><name>PT6026</name></trkpt>
<trkpt lat="53.255196" lon="-1.990621"><ele>407</ele><time>2021-11-13T13:03:39Z</time><name>PT6027</name></trkpt>
<trkpt lat="53.255204" lon="-1.990614"><ele>407</ele><time>2021-11-13T13:03:40Z</time><name>PT6028</name></trkpt>
<trkpt lat="53.255212" lon="-1.990608"><ele>407</ele><time>2021-11-13T13:03:41Z</time><name>PT6029</name></trkpt>
<trkpt lat="53.255216" lon="-1.990602"><ele>408</ele><time>2021-11-13T13:03:42Z</time><name>PT6030</name></trkpt>
<trkpt lat="53.255222" lon="-1.990595"><ele>407</ele><time>2021-11-13T13:03:43Z</time><name>PT6031</name></trkpt>
<trkpt lat="53.255228" lon="-1.990589"><ele>408</ele><time>2021-11-13T13:03:44Z</time><name>PT6032</name></trkpt>
<trkpt lat="53.255234" lon="-1.990582"><ele>408</ele><time>2021-11-13T13:03:45Z</time><name>PT6033</name></trkpt>
<trkpt lat="53.255236" lon="-1.990573"><ele>408</ele><time>2021-11-13T13:03:46Z</time><name>PT6034</name></trkpt>
<trkpt lat="53.255239" lon="-1.990566"><ele>407</ele><time>2021-11-13T13:03:47Z</time><name>PT6035</name></trkpt>
<trkpt lat="53.255242" lon="-1.990560"><ele>407</ele><time>2021-11-13T13:03:48Z</time><name>PT6036</name></trkpt>
<trkpt lat="53.255246" lon="-1.990552"><ele>407</ele><time>2021-11-13T13:03:49Z</time><name>PT6037</name></trkpt>
<trkpt lat="53.255250" lon="-1.990545"><ele>407</ele><time>2021-11-13T13:03:50Z</time><name>PT6038</name></trkpt>
<trkpt lat="53.255253" lon="-1.990535"><ele>407</ele><time>2021-11-13T13:03:51Z</time><name>PT6039</name></trkpt>
<trkpt lat="53.255256" lon="-1.990529"><ele>408</ele><time>2021-11-13T13:03:52Z</time><name>PT6040</name></trkpt>
<trkpt lat="53.255257" lon="-1.990526"><ele>408</ele><time>2021-11-13T13:03:53Z</time><name>PT6041</name></trkpt>
<trkpt lat="53.255256" lon="-1.990530"><ele>408</ele><time>2021-11-13T13:03:54Z</time><name>PT6042</name></trkpt>
<trkpt lat="53.255258" lon="-1.990532"><ele>409</ele><time>2021-11-13T13:03:55Z</time><name>PT6043</name></trkpt>
<trkpt lat="53.255256" lon="-1.990536"><ele>409</ele><time>2021-11-13T13:04:08Z</time><name>PT6044</name></trkpt>
<trkpt lat="53.255258" lon="-1.990533"><ele>409</ele><time>2021-11-13T13:04:09Z</time><name>PT6045</name></trkpt>
<trkpt lat="53.255256" lon="-1.990538"><ele>408</ele><time>2021-11-13T13:04:10Z</time><name>PT6046</name></trkpt>
<trkpt lat="53.255256" lon="-1.990538"><ele>408</ele><time>2021-11-13T13:04:11Z</time><name>PT6047</name></trkpt>
<trkpt lat="53.255256" lon="-1.990538"><ele>408</ele><time>2021-11-13T13:04:12Z</time><name>PT6048</name></trkpt>
<trkpt lat="53.255255" lon="-1.990543"><ele>408</ele><time>2021-11-13T13:04:51Z</time><name>PT6049</name></trkpt>
<trkpt lat="53.255246" lon="-1.990554"><ele>408</ele><time>2021-11-13T13:04:52Z</time><name>PT6050</name></trkpt>
<trkpt lat="53.255242" lon="-1.990559"><ele>408</ele><time>2021-11-13T13:04:53Z</time><name>PT6051</name></trkpt>
<trkpt lat="53.255244" lon="-1.990557"><ele>408</ele><time>2021-11-13T13:04:54Z</time><name>PT6052</name></trkpt>
<trkpt lat="53.255243" lon="-1.990565"><ele>408</ele><time>2021-11-13T13:04:55Z</time><name>PT6053</name></trkpt>
<trkpt lat="53.255242" lon="-1.990569"><ele>407</ele><time>2021-11-13T13:04:56Z</time><name>PT6054</name></trkpt>
<trkpt lat="53.255243" lon="-1.990568"><ele>407</ele><time>2021-11-13T13:04:57Z</time><name>PT6055</name></trkpt>
<trkpt lat="53.255243" lon="-1.990564"><ele>408</ele><time>2021-11-13T13:04:58Z</time><name>PT6056</name></trkpt>
<trkpt lat="53.255242" lon="-1.990566"><ele>407</ele><time>2021-11-13T13:05:17Z</time><name>PT6057</name></trkpt>
<trkpt lat="53.255248" lon="-1.990552"><ele>408</ele><time>2021-11-13T13:05:18Z</time><name>PT6058</name></trkpt>
<trkpt lat="53.255249" lon="-1.990549"><ele>408</ele><time>2021-11-13T13:05:19Z</time><name>PT6059</name></trkpt>
<trkpt lat="53.255250" lon="-1.990549"><ele>407</ele><time>2021-11-13T13:05:20Z</time><name>PT6060</name></trkpt>
<trkpt lat="53.255249" lon="-1.990549"><ele>407</ele><time>2021-11-13T13:05:32Z</time><name>PT6061</name></trkpt>
<trkpt lat="53.255249" lon="-1.990548"><ele>407</ele><time>2021-11-13T13:05:33Z</time><name>PT6062</name></trkpt>
<trkpt lat="53.255249" lon="-1.990549"><ele>407</ele><time>2021-11-13T13:05:37Z</time><name>PT6063</name></trkpt>
<trkpt lat="53.255241" lon="-1.990548"><ele>407</ele><time>2021-11-13T13:06:13Z</time><name>PT6064</name></trkpt>
<trkpt lat="53.255240" lon="-1.990553"><ele>407</ele><time>2021-11-13T13:06:17Z</time><name>PT6065</name></trkpt>
<trkpt lat="53.255253" lon="-1.990529"><ele>407</ele><time>2021-11-13T13:06:21Z</time><name>PT6066</name></trkpt>
<trkpt lat="53.255268" lon="-1.990471"><ele>407</ele><time>2021-11-13T13:06:25Z</time><name>PT6067</name></trkpt>
<trkpt lat="53.255275" lon="-1.990412"><ele>407</ele><time>2021-11-13T13:06:29Z</time><name>PT6068</name></trkpt>
<trkpt lat="53.255291" lon="-1.990367"><ele>407</ele><time>2021-11-13T13:06:33Z</time><name>PT6069</name></trkpt>
<trkpt lat="53.255299" lon="-1.990296"><ele>407</ele><time>2021-11-13T13:06:37Z</time><name>PT6070</name></trkpt>
<trkpt lat="53.255305" lon="-1.990234"><ele>407</ele><time>2021-11-13T13:06:41Z</time><name>PT6071</name></trkpt>
<trkpt lat="53.255319" lon="-1.990169"><ele>407</ele><time>2021-11-13T13:06:45Z</time><name>PT6072</name></trkpt>
<trkpt lat="53.255335" lon="-1.990091"><ele>407</ele><time>2021-11-13T13:06:49Z</time><name>PT6073</name></trkpt>
<trkpt lat="53.255346" lon="-1.990011"><ele>407</ele><time>2021-11-13T13:06:53Z</time><name>PT6074</name></trkpt>
<trkpt lat="53.255355" lon="-1.989931"><ele>407</ele><time>2021-11-13T13:06:57Z</time><name>PT6075</name></trkpt>
<trkpt lat="53.255365" lon="-1.989858"><ele>407</ele><time>2021-11-13T13:07:01Z</time><name>PT6076</name></trkpt>
<trkpt lat="53.255371" lon="-1.989783"><ele>407</ele><time>2021-11-13T13:07:05Z</time><name>PT6077</name></trkpt>
<trkpt lat="53.255359" lon="-1.989722"><ele>407</ele><time>2021-11-13T13:07:09Z</time><name>PT6078</name></trkpt>
<trkpt lat="53.255334" lon="-1.989673"><ele>406</ele><time>2021-11-13T13:07:13Z</time><name>PT6079</name></trkpt>
<trkpt lat="53.255323" lon="-1.989623"><ele>406</ele><time>2021-11-13T13:07:17Z</time><name>PT6080</name></trkpt>
<trkpt lat="53.255325" lon="-1.989575"><ele>406</ele><time>2021-11-13T13:07:21Z</time><name>PT6081</name></trkpt>
<trkpt lat="53.255317" lon="-1.989518"><ele>405</ele><time>2021-11-13T13:07:25Z</time><name>PT6082</name></trkpt>
<trkpt lat="53.255315" lon="-1.989472"><ele>407</ele><time>2021-11-13T13:07:29Z</time><name>PT6083</name></trkpt>
<trkpt lat="53.255324" lon="-1.989407"><ele>407</ele><time>2021-11-13T13:07:33Z</time><name>PT6084</name></trkpt>
<trkpt lat="53.255336" lon="-1.989345"><ele>408</ele><time>2021-11-13T13:07:37Z</time><name>PT6085</name></trkpt>
<trkpt lat="53.255340" lon="-1.989288"><ele>407</ele><time>2021-11-13T13:07:41Z</time><name>PT6086</name></trkpt>
<trkpt lat="53.255324" lon="-1.989229"><ele>408</ele><time>2021-11-13T13:07:45Z</time><name>PT6087</name></trkpt>
<trkpt lat="53.255312" lon="-1.989181"><ele>407</ele><time>2021-11-13T13:07:49Z</time><name>PT6088</name></trkpt>
<trkpt lat="53.255298" lon="-1.989134"><ele>407</ele><time>2021-11-13T13:07:53Z</time><name>PT6089</name></trkpt>
<trkpt lat="53.255284" lon="-1.989084"><ele>406</ele><time>2021-11-13T13:07:57Z</time><name>PT6090</name></trkpt>
<trkpt lat="53.255277" lon="-1.989018"><ele>407</ele><time>2021-11-13T13:08:01Z</time><name>PT6091</name></trkpt>
<trkpt lat="53.255269" lon="-1.988965"><ele>405</ele><time>2021-11-13T13:08:05Z</time><name>PT6092</name></trkpt>
<trkpt lat="53.255253" lon="-1.988906"><ele>405</ele><time>2021-11-13T13:08:09Z</time><name>PT6093</name></trkpt>
<trkpt lat="53.255257" lon="-1.988831"><ele>405</ele><time>2021-11-13T13:08:13Z</time><name>PT6094</name></trkpt>
<trkpt lat="53.255258" lon="-1.988749"><ele>406</ele><time>2021-11-13T13:08:17Z</time><name>PT6095</name></trkpt>
<trkpt lat="53.255254" lon="-1.988688"><ele>405</ele><time>2021-11-13T13:08:21Z</time><name>PT6096</name></trkpt>
<trkpt lat="53.255234" lon="-1.988619"><ele>405</ele><time>2021-11-13T13:08:25Z</time><name>PT6097</name></trkpt>
<trkpt lat="53.255225" lon="-1.988544"><ele>405</ele><time>2021-11-13T13:08:29Z</time><name>PT6098</name></trkpt>
<trkpt lat="53.255222" lon="-1.988477"><ele>405</ele><time>2021-11-13T13:08:33Z</time><name>PT6099</name></trkpt>
<trkpt lat="53.255229" lon="-1.988430"><ele>406</ele><time>2021-11-13T13:08:37Z</time><name>PT6100</name></trkpt>
<trkpt lat="53.255221" lon="-1.988367"><ele>406</ele><time>2021-11-13T13:08:41Z</time><name>PT6101</name></trkpt>
<trkpt lat="53.255213" lon="-1.988303"><ele>405</ele><time>2021-11-13T13:08:45Z</time><name>PT6102</name></trkpt>
<trkpt lat="53.255207" lon="-1.988242"><ele>406</ele><time>2021-11-13T13:08:49Z</time><name>PT6103</name></trkpt>
<trkpt lat="53.255216" lon="-1.988181"><ele>406</ele><time>2021-11-13T13:08:53Z</time><name>PT6104</name></trkpt>
<trkpt lat="53.255227" lon="-1.988111"><ele>405</ele><time>2021-11-13T13:08:57Z</time><name>PT6105</name></trkpt>
<trkpt lat="53.255237" lon="-1.988045"><ele>406</ele><time>2021-11-13T13:09:01Z</time><name>PT6106</name></trkpt>
<trkpt lat="53.255252" lon="-1.987988"><ele>405</ele><time>2021-11-13T13:09:05Z</time><name>PT6107</name></trkpt>
<trkpt lat="53.255248" lon="-1.987925"><ele>404</ele><time>2021-11-13T13:09:09Z</time><name>PT6108</name></trkpt>
<trkpt lat="53.255253" lon="-1.987843"><ele>404</ele><time>2021-11-13T13:09:13Z</time><name>PT6109</name></trkpt>
<trkpt lat="53.255262" lon="-1.987769"><ele>405</ele><time>2021-11-13T13:09:17Z</time><name>PT6110</name></trkpt>
<trkpt lat="53.255273" lon="-1.987710"><ele>404</ele><time>2021-11-13T13:09:21Z</time><name>PT6111</name></trkpt>
<trkpt lat="53.255262" lon="-1.987654"><ele>405</ele><time>2021-11-13T13:09:25Z</time><name>PT6112</name></trkpt>
<trkpt lat="53.255273" lon="-1.987607"><ele>405</ele><time>2021-11-13T13:09:29Z</time><name>PT6113</name></trkpt>
<trkpt lat="53.255285" lon="-1.987549"><ele>405</ele><time>2021-11-13T13:09:33Z</time><name>PT6114</name></trkpt>
<trkpt lat="53.255287" lon="-1.987496"><ele>404</ele><time>2021-11-13T13:09:37Z</time><name>PT6115</name></trkpt>
<trkpt lat="53.255296" lon="-1.987459"><ele>404</ele><time>2021-11-13T13:09:41Z</time><name>PT6116</name></trkpt>
<trkpt lat="53.255318" lon="-1.987428"><ele>403</ele><time>2021-11-13T13:09:45Z</time><name>PT6117</name></trkpt>
<trkpt lat="53.255317" lon="-1.987389"><ele>402</ele><time>2021-11-13T13:09:49Z</time><name>PT6118</name></trkpt>
<trkpt lat="53.255319" lon="-1.987351"><ele>402</ele><time>2021-11-13T13:09:53Z</time><name>PT6119</name></trkpt>
<trkpt lat="53.255325" lon="-1.987303"><ele>401</ele><time>2021-11-13T13:09:57Z</time><name>PT6120</name></trkpt>
<trkpt lat="53.255326" lon="-1.987244"><ele>401</ele><time>2021-11-13T13:10:01Z</time><name>PT6121</name></trkpt>
<trkpt lat="53.255343" lon="-1.987207"><ele>399</ele><time>2021-11-13T13:10:05Z</time><name>PT6122</name></trkpt>
<trkpt lat="53.255356" lon="-1.987150"><ele>399</ele><time>2021-11-13T13:10:09Z</time><name>PT6123</name></trkpt>
<trkpt lat="53.255370" lon="-1.987093"><ele>398</ele><time>2021-11-13T13:10:13Z</time><name>PT6124</name></trkpt>
<trkpt lat="53.255383" lon="-1.987042"><ele>397</ele><time>2021-11-13T13:10:17Z</time><name>PT6125</name></trkpt>
<trkpt lat="53.255384" lon="-1.987029"><ele>397</ele><time>2021-11-13T13:10:18Z</time><name>PT6126</name></trkpt>
<trkpt lat="53.255385" lon="-1.987017"><ele>397</ele><time>2021-11-13T13:10:19Z</time><name>PT6127</name></trkpt>
<trkpt lat="53.255388" lon="-1.987001"><ele>396</ele><time>2021-11-13T13:10:20Z</time><name>PT6128</name></trkpt>
<trkpt lat="53.255390" lon="-1.986988"><ele>396</ele><time>2021-11-13T13:10:21Z</time><name>PT6129</name></trkpt>
<trkpt lat="53.255392" lon="-1.986978"><ele>396</ele><time>2021-11-13T13:10:22Z</time><name>PT6130</name></trkpt>
<trkpt lat="53.255392" lon="-1.986965"><ele>396</ele><time>2021-11-13T13:10:23Z</time><name>PT6131</name></trkpt>
<trkpt lat="53.255393" lon="-1.986945"><ele>396</ele><time>2021-11-13T13:10:24Z</time><name>PT6132</name></trkpt>
<trkpt lat="53.255394" lon="-1.986932"><ele>395</ele><time>2021-11-13T13:10:25Z</time><name>PT6133</name></trkpt>
<trkpt lat="53.255394" lon="-1.986922"><ele>395</ele><time>2021-11-13T13:10:26Z</time><name>PT6134</name></trkpt>
<trkpt lat="53.255395" lon="-1.986912"><ele>395</ele><time>2021-11-13T13:10:27Z</time><name>PT6135</name></trkpt>
<trkpt lat="53.255394" lon="-1.986896"><ele>395</ele><time>2021-11-13T13:10:28Z</time><name>PT6136</name></trkpt>
<trkpt lat="53.255394" lon="-1.986884"><ele>394</ele><time>2021-11-13T13:10:29Z</time><name>PT6137</name></trkpt>
<trkpt lat="53.255396" lon="-1.986878"><ele>394</ele><time>2021-11-13T13:10:30Z</time><name>PT6138</name></trkpt>
<trkpt lat="53.255397" lon="-1.986869"><ele>394</ele><time>2021-11-13T13:10:31Z</time><name>PT6139</name></trkpt>
<trkpt lat="53.255397" lon="-1.986854"><ele>393</ele><time>2021-11-13T13:10:32Z</time><name>PT6140</name></trkpt>
<trkpt lat="53.255395" lon="-1.986835"><ele>393</ele><time>2021-11-13T13:10:33Z</time><name>PT6141</name></trkpt>
<trkpt lat="53.255395" lon="-1.986824"><ele>392</ele><time>2021-11-13T13:10:34Z</time><name>PT6142</name></trkpt>
<trkpt lat="53.255396" lon="-1.986813"><ele>392</ele><time>2021-11-13T13:10:35Z</time><name>PT6143</name></trkpt>
<trkpt lat="53.255397" lon="-1.986793"><ele>391</ele><time>2021-11-13T13:10:36Z</time><name>PT6144</name></trkpt>
<trkpt lat="53.255395" lon="-1.986777"><ele>391</ele><time>2021-11-13T13:10:37Z</time><name>PT6145</name></trkpt>
<trkpt lat="53.255394" lon="-1.986766"><ele>391</ele><time>2021-11-13T13:10:38Z</time><name>PT6146</name></trkpt>
<trkpt lat="53.255393" lon="-1.986752"><ele>391</ele><time>2021-11-13T13:10:39Z</time><name>PT6147</name></trkpt>
<trkpt lat="53.255392" lon="-1.986735"><ele>392</ele><time>2021-11-13T13:10:40Z</time><name>PT6148</name></trkpt>
<trkpt lat="53.255390" lon="-1.986713"><ele>392</ele><time>2021-11-13T13:10:41Z</time><name>PT6149</name></trkpt>
<trkpt lat="53.255387" lon="-1.986697"><ele>392</ele><time>2021-11-13T13:10:42Z</time><name>PT6150</name></trkpt>
<trkpt lat="53.255386" lon="-1.986681"><ele>392</ele><time>2021-11-13T13:10:43Z</time><name>PT6151</name></trkpt>
<trkpt lat="53.255385" lon="-1.986673"><ele>392</ele><time>2021-11-13T13:10:44Z</time><name>PT6152</name></trkpt>
<trkpt lat="53.255383" lon="-1.986656"><ele>391</ele><time>2021-11-13T13:10:45Z</time><name>PT6153</name></trkpt>
<trkpt lat="53.255381" lon="-1.986636"><ele>392</ele><time>2021-11-13T13:10:46Z</time><name>PT6154</name></trkpt>
<trkpt lat="53.255381" lon="-1.986624"><ele>392</ele><time>2021-11-13T13:10:47Z</time><name>PT6155</name></trkpt>
<trkpt lat="53.255379" lon="-1.986606"><ele>391</ele><time>2021-11-13T13:10:48Z</time><name>PT6156</name></trkpt>
<trkpt lat="53.255373" lon="-1.986589"><ele>391</ele><time>2021-11-13T13:10:49Z</time><name>PT6157</name></trkpt>
<trkpt lat="53.255369" lon="-1.986571"><ele>391</ele><time>2021-11-13T13:10:50Z</time><name>PT6158</name></trkpt>
<trkpt lat="53.255365" lon="-1.986555"><ele>391</ele><time>2021-11-13T13:10:51Z</time><name>PT6159</name></trkpt>
<trkpt lat="53.255361" lon="-1.986540"><ele>391</ele><time>2021-11-13T13:10:52Z</time><name>PT6160</name></trkpt>
<trkpt lat="53.255357" lon="-1.986525"><ele>391</ele><time>2021-11-13T13:10:53Z</time><name>PT6161</name></trkpt>
<trkpt lat="53.255353" lon="-1.986496"><ele>391</ele><time>2021-11-13T13:10:54Z</time><name>PT6162</name></trkpt>
<trkpt lat="53.255349" lon="-1.986477"><ele>391</ele><time>2021-11-13T13:10:55Z</time><name>PT6163</name></trkpt>
<trkpt lat="53.255345" lon="-1.986455"><ele>391</ele><time>2021-11-13T13:10:56Z</time><name>PT6164</name></trkpt>
<trkpt lat="53.255343" lon="-1.986442"><ele>391</ele><time>2021-11-13T13:10:57Z</time><name>PT6165</name></trkpt>
<trkpt lat="53.255337" lon="-1.986423"><ele>391</ele><time>2021-11-13T13:10:58Z</time><name>PT6166</name></trkpt>
<trkpt lat="53.255334" lon="-1.986407"><ele>391</ele><time>2021-11-13T13:10:59Z</time><name>PT6167</name></trkpt>
<trkpt lat="53.255333" lon="-1.986393"><ele>391</ele><time>2021-11-13T13:11:00Z</time><name>PT6168</name></trkpt>
<trkpt lat="53.255333" lon="-1.986383"><ele>392</ele><time>2021-11-13T13:11:01Z</time><name>PT6169</name></trkpt>
<trkpt lat="53.255333" lon="-1.986373"><ele>392</ele><time>2021-11-13T13:11:02Z</time><name>PT6170</name></trkpt>
<trkpt lat="53.255330" lon="-1.986366"><ele>392</ele><time>2021-11-13T13:11:03Z</time><name>PT6171</name></trkpt>
<trkpt lat="53.255326" lon="-1.986359"><ele>393</ele><time>2021-11-13T13:11:04Z</time><name>PT6172</name></trkpt>
<trkpt lat="53.255320" lon="-1.986348"><ele>392</ele><time>2021-11-13T13:11:05Z</time><name>PT6173</name></trkpt>
<trkpt lat="53.255318" lon="-1.986333"><ele>392</ele><time>2021-11-13T13:11:06Z</time><name>PT6174</name></trkpt>
<trkpt lat="53.255314" lon="-1.986317"><ele>393</ele><time>2021-11-13T13:11:07Z</time><name>PT6175</name></trkpt>
<trkpt lat="53.255310" lon="-1.986304"><ele>393</ele><time>2021-11-13T13:11:08Z</time><name>PT6176</name></trkpt>
<trkpt lat="53.255308" lon="-1.986302"><ele>392</ele><time>2021-11-13T13:11:09Z</time><name>PT6177</name></trkpt>
<trkpt lat="53.255304" lon="-1.986296"><ele>391</ele><time>2021-11-13T13:11:10Z</time><name>PT6178</name></trkpt>
<trkpt lat="53.255302" lon="-1.986289"><ele>391</ele><time>2021-11-13T13:11:11Z</time><name>PT6179</name></trkpt>
<trkpt lat="53.255303" lon="-1.986282"><ele>391</ele><time>2021-11-13T13:11:12Z</time><name>PT6180</name></trkpt>
<trkpt lat="53.255302" lon="-1.986279"><ele>391</ele><time>2021-11-13T13:11:13Z</time><name>PT6181</name></trkpt>
<trkpt lat="53.255301" lon="-1.986278"><ele>390</ele><time>2021-11-13T13:11:14Z</time><name>PT6182</name></trkpt>
<trkpt lat="53.255297" lon="-1.986269"><ele>390</ele><time>2021-11-13T13:11:15Z</time><name>PT6183</name></trkpt>
<trkpt lat="53.255291" lon="-1.986269"><ele>390</ele><time>2021-11-13T13:11:16Z</time><name>PT6184</name></trkpt>
<trkpt lat="53.255285" lon="-1.986261"><ele>391</ele><time>2021-11-13T13:11:17Z</time><name>PT6185</name></trkpt>
<trkpt lat="53.255283" lon="-1.986256"><ele>391</ele><time>2021-11-13T13:11:18Z</time><name>PT6186</name></trkpt>
<trkpt lat="53.255280" lon="-1.986245"><ele>391</ele><time>2021-11-13T13:11:19Z</time><name>PT6187</name></trkpt>
<trkpt lat="53.255277" lon="-1.986233"><ele>391</ele><time>2021-11-13T13:11:20Z</time><name>PT6188</name></trkpt>
<trkpt lat="53.255276" lon="-1.986229"><ele>391</ele><time>2021-11-13T13:11:21Z</time><name>PT6189</name></trkpt>
<trkpt lat="53.255276" lon="-1.986215"><ele>390</ele><time>2021-11-13T13:11:22Z</time><name>PT6190</name></trkpt>
<trkpt lat="53.255279" lon="-1.986199"><ele>390</ele><time>2021-11-13T13:11:23Z</time><name>PT6191</name></trkpt>
<trkpt lat="53.255278" lon="-1.986187"><ele>390</ele><time>2021-11-13T13:11:24Z</time><name>PT6192</name></trkpt>
<trkpt lat="53.255273" lon="-1.986175"><ele>390</ele><time>2021-11-13T13:11:25Z</time><name>PT6193</name></trkpt>
<trkpt lat="53.255267" lon="-1.986158"><ele>390</ele><time>2021-11-13T13:11:26Z</time><name>PT6194</name></trkpt>
<trkpt lat="53.255257" lon="-1.986144"><ele>390</ele><time>2021-11-13T13:11:27Z</time><name>PT6195</name></trkpt>
<trkpt lat="53.255244" lon="-1.986127"><ele>390</ele><time>2021-11-13T13:11:28Z</time><name>PT6196</name></trkpt>
<trkpt lat="53.255233" lon="-1.986116"><ele>389</ele><time>2021-11-13T13:11:29Z</time><name>PT6197</name></trkpt>
<trkpt lat="53.255223" lon="-1.986105"><ele>389</ele><time>2021-11-13T13:11:30Z</time><name>PT6198</name></trkpt>
<trkpt lat="53.255213" lon="-1.986092"><ele>390</ele><time>2021-11-13T13:11:31Z</time><name>PT6199</name></trkpt>
<trkpt lat="53.255203" lon="-1.986080"><ele>390</ele><time>2021-11-13T13:11:32Z</time><name>PT6200</name></trkpt>
<trkpt lat="53.255190" lon="-1.986070"><ele>389</ele><time>2021-11-13T13:11:33Z</time><name>PT6201</name></trkpt>
<trkpt lat="53.255185" lon="-1.986056"><ele>389</ele><time>2021-11-13T13:11:34Z</time><name>PT6202</name></trkpt>
<trkpt lat="53.255177" lon="-1.986039"><ele>390</ele><time>2021-11-13T13:11:35Z</time><name>PT6203</name></trkpt>
<trkpt lat="53.255168" lon="-1.986023"><ele>390</ele><time>2021-11-13T13:11:36Z</time><name>PT6204</name></trkpt>
<trkpt lat="53.255159" lon="-1.986013"><ele>390</ele><time>2021-11-13T13:11:37Z</time><name>PT6205</name></trkpt>
<trkpt lat="53.255151" lon="-1.986007"><ele>389</ele><time>2021-11-13T13:11:38Z</time><name>PT6206</name></trkpt>
<trkpt lat="53.255142" lon="-1.985999"><ele>389</ele><time>2021-11-13T13:11:39Z</time><name>PT6207</name></trkpt>
<trkpt lat="53.255137" lon="-1.985992"><ele>388</ele><time>2021-11-13T13:11:40Z</time><name>PT6208</name></trkpt>
<trkpt lat="53.255131" lon="-1.985985"><ele>387</ele><time>2021-11-13T13:11:41Z</time><name>PT6209</name></trkpt>
<trkpt lat="53.255122" lon="-1.985977"><ele>386</ele><time>2021-11-13T13:11:42Z</time><name>PT6210</name></trkpt>
<trkpt lat="53.255111" lon="-1.985966"><ele>386</ele><time>2021-11-13T13:11:43Z</time><name>PT6211</name></trkpt>
<trkpt lat="53.255097" lon="-1.985950"><ele>387</ele><time>2021-11-13T13:11:44Z</time><name>PT6212</name></trkpt>
<trkpt lat="53.255088" lon="-1.985937"><ele>387</ele><time>2021-11-13T13:11:45Z</time><name>PT6213</name></trkpt>
<trkpt lat="53.255076" lon="-1.985928"><ele>387</ele><time>2021-11-13T13:11:46Z</time><name>PT6214</name></trkpt>
<trkpt lat="53.255066" lon="-1.985916"><ele>387</ele><time>2021-11-13T13:11:47Z</time><name>PT6215</name></trkpt>
<trkpt lat="53.255055" lon="-1.985911"><ele>386</ele><time>2021-11-13T13:11:48Z</time><name>PT6216</name></trkpt>
<trkpt lat="53.255042" lon="-1.985898"><ele>387</ele><time>2021-11-13T13:11:49Z</time><name>PT6217</name></trkpt>
<trkpt lat="53.255033" lon="-1.985895"><ele>386</ele><time>2021-11-13T13:11:50Z</time><name>PT6218</name></trkpt>
<trkpt lat="53.255024" lon="-1.985891"><ele>385</ele><time>2021-11-13T13:11:51Z</time><name>PT6219</name></trkpt>
<trkpt lat="53.255016" lon="-1.985888"><ele>385</ele><time>2021-11-13T13:11:52Z</time><name>PT6220</name></trkpt>
<trkpt lat="53.255005" lon="-1.985880"><ele>385</ele><time>2021-11-13T13:11:53Z</time><name>PT6221</name></trkpt>
<trkpt lat="53.254996" lon="-1.985872"><ele>385</ele><time>2021-11-13T13:11:54Z</time><name>PT6222</name></trkpt>
<trkpt lat="53.254989" lon="-1.985871"><ele>385</ele><time>2021-11-13T13:11:55Z</time><name>PT6223</name></trkpt>
<trkpt lat="53.254981" lon="-1.985862"><ele>385</ele><time>2021-11-13T13:11:56Z</time><name>PT6224</name></trkpt>
<trkpt lat="53.254971" lon="-1.985854"><ele>385</ele><time>2021-11-13T13:11:57Z</time><name>PT6225</name></trkpt>
<trkpt lat="53.254964" lon="-1.985847"><ele>385</ele><time>2021-11-13T13:11:58Z</time><name>PT6226</name></trkpt>
<trkpt lat="53.254957" lon="-1.985834"><ele>385</ele><time>2021-11-13T13:11:59Z</time><name>PT6227</name></trkpt>
<trkpt lat="53.254944" lon="-1.985811"><ele>386</ele><time>2021-11-13T13:12:00Z</time><name>PT6228</name></trkpt>
<trkpt lat="53.254934" lon="-1.985797"><ele>386</ele><time>2021-11-13T13:12:01Z</time><name>PT6229</name></trkpt>
<trkpt lat="53.254928" lon="-1.985790"><ele>385</ele><time>2021-11-13T13:12:02Z</time><name>PT6230</name></trkpt>
<trkpt lat="53.254920" lon="-1.985774"><ele>385</ele><time>2021-11-13T13:12:03Z</time><name>PT6231</name></trkpt>
<trkpt lat="53.254903" lon="-1.985757"><ele>386</ele><time>2021-11-13T13:12:04Z</time><name>PT6232</name></trkpt>
<trkpt lat="53.254897" lon="-1.985746"><ele>385</ele><time>2021-11-13T13:12:05Z</time><name>PT6233</name></trkpt>
<trkpt lat="53.254888" lon="-1.985736"><ele>385</ele><time>2021-11-13T13:12:06Z</time><name>PT6234</name></trkpt>
<trkpt lat="53.254878" lon="-1.985724"><ele>385</ele><time>2021-11-13T13:12:07Z</time><name>PT6235</name></trkpt>
<trkpt lat="53.254870" lon="-1.985714"><ele>385</ele><time>2021-11-13T13:12:08Z</time><name>PT6236</name></trkpt>
<trkpt lat="53.254862" lon="-1.985703"><ele>384</ele><time>2021-11-13T13:12:09Z</time><name>PT6237</name></trkpt>
<trkpt lat="53.254857" lon="-1.985690"><ele>384</ele><time>2021-11-13T13:12:10Z</time><name>PT6238</name></trkpt>
<trkpt lat="53.254850" lon="-1.985680"><ele>384</ele><time>2021-11-13T13:12:11Z</time><name>PT6239</name></trkpt>
<trkpt lat="53.254843" lon="-1.985675"><ele>384</ele><time>2021-11-13T13:12:12Z</time><name>PT6240</name></trkpt>
<trkpt lat="53.254837" lon="-1.985665"><ele>384</ele><time>2021-11-13T13:12:13Z</time><name>PT6241</name></trkpt>
<trkpt lat="53.254832" lon="-1.985655"><ele>384</ele><time>2021-11-13T13:12:14Z</time><name>PT6242</name></trkpt>
<trkpt lat="53.254824" lon="-1.985642"><ele>384</ele><time>2021-11-13T13:12:15Z</time><name>PT6243</name></trkpt>
<trkpt lat="53.254817" lon="-1.985629"><ele>384</ele><time>2021-11-13T13:12:16Z</time><name>PT6244</name></trkpt>
<trkpt lat="53.254801" lon="-1.985584"><ele>384</ele><time>2021-11-13T13:12:19Z</time><name>PT6245</name></trkpt>
<trkpt lat="53.254763" lon="-1.985530"><ele>384</ele><time>2021-11-13T13:12:23Z</time><name>PT6246</name></trkpt>
<trkpt lat="53.254700" lon="-1.985455"><ele>387</ele><time>2021-11-13T13:12:27Z</time><name>PT6247</name></trkpt>
<trkpt lat="53.254670" lon="-1.985431"><ele>387</ele><time>2021-11-13T13:12:31Z</time><name>PT6248</name></trkpt>
<trkpt lat="53.254641" lon="-1.985417"><ele>384</ele><time>2021-11-13T13:12:35Z</time><name>PT6249</name></trkpt>
<trkpt lat="53.254607" lon="-1.985394"><ele>384</ele><time>2021-11-13T13:12:39Z</time><name>PT6250</name></trkpt>
<trkpt lat="53.254570" lon="-1.985356"><ele>383</ele><time>2021-11-13T13:12:43Z</time><name>PT6251</name></trkpt>
<trkpt lat="53.254544" lon="-1.985312"><ele>382</ele><time>2021-11-13T13:12:47Z</time><name>PT6252</name></trkpt>
<trkpt lat="53.254524" lon="-1.985259"><ele>381</ele><time>2021-11-13T13:12:51Z</time><name>PT6253</name></trkpt>
<trkpt lat="53.254498" lon="-1.985219"><ele>380</ele><time>2021-11-13T13:12:55Z</time><name>PT6254</name></trkpt>
<trkpt lat="53.254473" lon="-1.985171"><ele>379</ele><time>2021-11-13T13:12:59Z</time><name>PT6255</name></trkpt>
<trkpt lat="53.254452" lon="-1.985147"><ele>379</ele><time>2021-11-13T13:13:02Z</time><name>PT6256</name></trkpt>
<trkpt lat="53.254431" lon="-1.985105"><ele>378</ele><time>2021-11-13T13:13:06Z</time><name>PT6257</name></trkpt>
<trkpt lat="53.254409" lon="-1.985073"><ele>376</ele><time>2021-11-13T13:13:10Z</time><name>PT6258</name></trkpt>
<trkpt lat="53.254389" lon="-1.985035"><ele>377</ele><time>2021-11-13T13:13:14Z</time><name>PT6259</name></trkpt>
<trkpt lat="53.254388" lon="-1.985005"><ele>375</ele><time>2021-11-13T13:13:18Z</time><name>PT6260</name></trkpt>
<trkpt lat="53.254383" lon="-1.984952"><ele>375</ele><time>2021-11-13T13:13:22Z</time><name>PT6261</name></trkpt>
<trkpt lat="53.254377" lon="-1.984873"><ele>374</ele><time>2021-11-13T13:13:26Z</time><name>PT6262</name></trkpt>
<trkpt lat="53.254361" lon="-1.984802"><ele>373</ele><time>2021-11-13T13:13:30Z</time><name>PT6263</name></trkpt>
<trkpt lat="53.254334" lon="-1.984729"><ele>374</ele><time>2021-11-13T13:13:34Z</time><name>PT6264</name></trkpt>
<trkpt lat="53.254308" lon="-1.984665"><ele>376</ele><time>2021-11-13T13:13:38Z</time><name>PT6265</name></trkpt>
<trkpt lat="53.254283" lon="-1.984647"><ele>376</ele><time>2021-11-13T13:13:42Z</time><name>PT6266</name></trkpt>
<trkpt lat="53.254244" lon="-1.984632"><ele>373</ele><time>2021-11-13T13:13:46Z</time><name>PT6267</name></trkpt>
<trkpt lat="53.254213" lon="-1.984610"><ele>374</ele><time>2021-11-13T13:13:50Z</time><name>PT6268</name></trkpt>
<trkpt lat="53.254182" lon="-1.984606"><ele>373</ele><time>2021-11-13T13:13:54Z</time><name>PT6269</name></trkpt>
<trkpt lat="53.254150" lon="-1.984607"><ele>372</ele><time>2021-11-13T13:13:58Z</time><name>PT6270</name></trkpt>
<trkpt lat="53.254108" lon="-1.984587"><ele>373</ele><time>2021-11-13T13:14:02Z</time><name>PT6271</name></trkpt>
<trkpt lat="53.254066" lon="-1.984525"><ele>376</ele><time>2021-11-13T13:14:06Z</time><name>PT6272</name></trkpt>
<trkpt lat="53.254051" lon="-1.984480"><ele>375</ele><time>2021-11-13T13:14:10Z</time><name>PT6273</name></trkpt>
<trkpt lat="53.254028" lon="-1.984412"><ele>378</ele><time>2021-11-13T13:14:14Z</time><name>PT6274</name></trkpt>
<trkpt lat="53.254025" lon="-1.984373"><ele>378</ele><time>2021-11-13T13:14:18Z</time><name>PT6275</name></trkpt>
<trkpt lat="53.254017" lon="-1.984356"><ele>376</ele><time>2021-11-13T13:14:22Z</time><name>PT6276</name></trkpt>
<trkpt lat="53.254002" lon="-1.984324"><ele>375</ele><time>2021-11-13T13:14:26Z</time><name>PT6277</name></trkpt>
<trkpt lat="53.253985" lon="-1.984272"><ele>373</ele><time>2021-11-13T13:14:30Z</time><name>PT6278</name></trkpt>
<trkpt lat="53.253967" lon="-1.984220"><ele>369</ele><time>2021-11-13T13:14:34Z</time><name>PT6279</name></trkpt>
<trkpt lat="53.253941" lon="-1.984147"><ele>369</ele><time>2021-11-13T13:14:38Z</time><name>PT6280</name></trkpt>
<trkpt lat="53.253921" lon="-1.984046"><ele>369</ele><time>2021-11-13T13:14:42Z</time><name>PT6281</name></trkpt>
<trkpt lat="53.253917" lon="-1.984022"><ele>369</ele><time>2021-11-13T13:14:44Z</time><name>PT6282</name></trkpt>
<trkpt lat="53.253912" lon="-1.984009"><ele>369</ele><time>2021-11-13T13:14:45Z</time><name>PT6283</name></trkpt>
<trkpt lat="53.253907" lon="-1.983999"><ele>369</ele><time>2021-11-13T13:14:46Z</time><name>PT6284</name></trkpt>
<trkpt lat="53.253898" lon="-1.983990"><ele>368</ele><time>2021-11-13T13:14:47Z</time><name>PT6285</name></trkpt>
<trkpt lat="53.253893" lon="-1.983981"><ele>368</ele><time>2021-11-13T13:14:48Z</time><name>PT6286</name></trkpt>
<trkpt lat="53.253887" lon="-1.983977"><ele>368</ele><time>2021-11-13T13:14:49Z</time><name>PT6287</name></trkpt>
<trkpt lat="53.253882" lon="-1.983966"><ele>367</ele><time>2021-11-13T13:14:50Z</time><name>PT6288</name></trkpt>
<trkpt lat="53.253874" lon="-1.983955"><ele>367</ele><time>2021-11-13T13:14:51Z</time><name>PT6289</name></trkpt>
<trkpt lat="53.253869" lon="-1.983949"><ele>367</ele><time>2021-11-13T13:14:52Z</time><name>PT6290</name></trkpt>
<trkpt lat="53.253865" lon="-1.983937"><ele>367</ele><time>2021-11-13T13:14:53Z</time><name>PT6291</name></trkpt>
<trkpt lat="53.253864" lon="-1.983922"><ele>367</ele><time>2021-11-13T13:14:54Z</time><name>PT6292</name></trkpt>
<trkpt lat="53.253863" lon="-1.983910"><ele>367</ele><time>2021-11-13T13:14:55Z</time><name>PT6293</name></trkpt>
<trkpt lat="53.253860" lon="-1.983896"><ele>367</ele><time>2021-11-13T13:14:56Z</time><name>PT6294</name></trkpt>
<trkpt lat="53.253854" lon="-1.983877"><ele>368</ele><time>2021-11-13T13:14:57Z</time><name>PT6295</name></trkpt>
<trkpt lat="53.253845" lon="-1.983868"><ele>368</ele><time>2021-11-13T13:14:58Z</time><name>PT6296</name></trkpt>
<trkpt lat="53.253835" lon="-1.983854"><ele>368</ele><time>2021-11-13T13:14:59Z</time><name>PT6297</name></trkpt>
<trkpt lat="53.253832" lon="-1.983847"><ele>368</ele><time>2021-11-13T13:15:00Z</time><name>PT6298</name></trkpt>
<trkpt lat="53.253830" lon="-1.983844"><ele>368</ele><time>2021-11-13T13:15:01Z</time><name>PT6299</name></trkpt>
<trkpt lat="53.253832" lon="-1.983839"><ele>368</ele><time>2021-11-13T13:15:02Z</time><name>PT6300</name></trkpt>
<trkpt lat="53.253833" lon="-1.983826"><ele>367</ele><time>2021-11-13T13:15:03Z</time><name>PT6301</name></trkpt>
<trkpt lat="53.253834" lon="-1.983811"><ele>367</ele><time>2021-11-13T13:15:04Z</time><name>PT6302</name></trkpt>
<trkpt lat="53.253834" lon="-1.983797"><ele>367</ele><time>2021-11-13T13:15:05Z</time><name>PT6303</name></trkpt>
<trkpt lat="53.253834" lon="-1.983784"><ele>367</ele><time>2021-11-13T13:15:06Z</time><name>PT6304</name></trkpt>
<trkpt lat="53.253834" lon="-1.983770"><ele>367</ele><time>2021-11-13T13:15:07Z</time><name>PT6305</name></trkpt>
<trkpt lat="53.253829" lon="-1.983769"><ele>368</ele><time>2021-11-13T13:15:08Z</time><name>PT6306</name></trkpt>
<trkpt lat="53.253823" lon="-1.983755"><ele>369</ele><time>2021-11-13T13:15:09Z</time><name>PT6307</name></trkpt>
<trkpt lat="53.253818" lon="-1.983741"><ele>371</ele><time>2021-11-13T13:15:10Z</time><name>PT6308</name></trkpt>
<trkpt lat="53.253821" lon="-1.983738"><ele>371</ele><time>2021-11-13T13:15:11Z</time><name>PT6309</name></trkpt>
<trkpt lat="53.253825" lon="-1.983735"><ele>371</ele><time>2021-11-13T13:15:12Z</time><name>PT6310</name></trkpt>
<trkpt lat="53.253833" lon="-1.983732"><ele>371</ele><time>2021-11-13T13:15:13Z</time><name>PT6311</name></trkpt>
<trkpt lat="53.253838" lon="-1.983728"><ele>371</ele><time>2021-11-13T13:15:14Z</time><name>PT6312</name></trkpt>
<trkpt lat="53.253841" lon="-1.983723"><ele>371</ele><time>2021-11-13T13:15:15Z</time><name>PT6313</name></trkpt>
<trkpt lat="53.253844" lon="-1.983718"><ele>370</ele><time>2021-11-13T13:15:16Z</time><name>PT6314</name></trkpt>
<trkpt lat="53.253849" lon="-1.983715"><ele>371</ele><time>2021-11-13T13:15:17Z</time><name>PT6315</name></trkpt>
<trkpt lat="53.253848" lon="-1.983707"><ele>370</ele><time>2021-11-13T13:15:18Z</time><name>PT6316</name></trkpt>
<trkpt lat="53.253854" lon="-1.983701"><ele>370</ele><time>2021-11-13T13:15:19Z</time><name>PT6317</name></trkpt>
<trkpt lat="53.253862" lon="-1.983695"><ele>370</ele><time>2021-11-13T13:15:20Z</time><name>PT6318</name></trkpt>
<trkpt lat="53.253867" lon="-1.983696"><ele>370</ele><time>2021-11-13T13:15:21Z</time><name>PT6319</name></trkpt>
<trkpt lat="53.253874" lon="-1.983692"><ele>370</ele><time>2021-11-13T13:15:22Z</time><name>PT6320</name></trkpt>
<trkpt lat="53.253878" lon="-1.983683"><ele>370</ele><time>2021-11-13T13:15:23Z</time><name>PT6321</name></trkpt>
<trkpt lat="53.253889" lon="-1.983687"><ele>371</ele><time>2021-11-13T13:15:24Z</time><name>PT6322</name></trkpt>
<trkpt lat="53.253893" lon="-1.983684"><ele>372</ele><time>2021-11-13T13:15:25Z</time><name>PT6323</name></trkpt>
<trkpt lat="53.253904" lon="-1.983681"><ele>372</ele><time>2021-11-13T13:15:26Z</time><name>PT6324</name></trkpt>
<trkpt lat="53.253919" lon="-1.983684"><ele>374</ele><time>2021-11-13T13:15:27Z</time><name>PT6325</name></trkpt>
<trkpt lat="53.253930" lon="-1.983692"><ele>375</ele><time>2021-11-13T13:15:28Z</time><name>PT6326</name></trkpt>
<trkpt lat="53.253935" lon="-1.983693"><ele>375</ele><time>2021-11-13T13:15:29Z</time><name>PT6327</name></trkpt>
<trkpt lat="53.253946" lon="-1.983694"><ele>376</ele><time>2021-11-13T13:15:30Z</time><name>PT6328</name></trkpt>
<trkpt lat="53.253959" lon="-1.983701"><ele>376</ele><time>2021-11-13T13:15:31Z</time><name>PT6329</name></trkpt>
<trkpt lat="53.253973" lon="-1.983699"><ele>376</ele><time>2021-11-13T13:15:32Z</time><name>PT6330</name></trkpt>
<trkpt lat="53.253987" lon="-1.983697"><ele>377</ele><time>2021-11-13T13:15:33Z</time><name>PT6331</name></trkpt>
<trkpt lat="53.253992" lon="-1.983699"><ele>378</ele><time>2021-11-13T13:15:34Z</time><name>PT6332</name></trkpt>
<trkpt lat="53.254007" lon="-1.983695"><ele>379</ele><time>2021-11-13T13:15:35Z</time><name>PT6333</name></trkpt>
<trkpt lat="53.254026" lon="-1.983694"><ele>379</ele><time>2021-11-13T13:15:36Z</time><name>PT6334</name></trkpt>
<trkpt lat="53.254038" lon="-1.983693"><ele>379</ele><time>2021-11-13T13:15:37Z</time><name>PT6335</name></trkpt>
<trkpt lat="53.254045" lon="-1.983700"><ele>379</ele><time>2021-11-13T13:15:38Z</time><name>PT6336</name></trkpt>
<trkpt lat="53.254056" lon="-1.983699"><ele>380</ele><time>2021-11-13T13:15:39Z</time><name>PT6337</name></trkpt>
<trkpt lat="53.254064" lon="-1.983693"><ele>380</ele><time>2021-11-13T13:15:40Z</time><name>PT6338</name></trkpt>
<trkpt lat="53.254077" lon="-1.983689"><ele>380</ele><time>2021-11-13T13:15:41Z</time><name>PT6339</name></trkpt>
<trkpt lat="53.254094" lon="-1.983685"><ele>380</ele><time>2021-11-13T13:15:42Z</time><name>PT6340</name></trkpt>
<trkpt lat="53.254103" lon="-1.983674"><ele>381</ele><time>2021-11-13T13:15:43Z</time><name>PT6341</name></trkpt>
<trkpt lat="53.254114" lon="-1.983668"><ele>381</ele><time>2021-11-13T13:15:44Z</time><name>PT6342</name></trkpt>
<trkpt lat="53.254131" lon="-1.983666"><ele>382</ele><time>2021-11-13T13:15:45Z</time><name>PT6343</name></trkpt>
<trkpt lat="53.254148" lon="-1.983652"><ele>382</ele><time>2021-11-13T13:15:46Z</time><name>PT6344</name></trkpt>
<trkpt lat="53.254159" lon="-1.983646"><ele>381</ele><time>2021-11-13T13:15:47Z</time><name>PT6345</name></trkpt>
<trkpt lat="53.254168" lon="-1.983633"><ele>380</ele><time>2021-11-13T13:15:48Z</time><name>PT6346</name></trkpt>
<trkpt lat="53.254182" lon="-1.983624"><ele>379</ele><time>2021-11-13T13:15:49Z</time><name>PT6347</name></trkpt>
<trkpt lat="53.254189" lon="-1.983621"><ele>379</ele><time>2021-11-13T13:15:50Z</time><name>PT6348</name></trkpt>
<trkpt lat="53.254194" lon="-1.983624"><ele>379</ele><time>2021-11-13T13:15:51Z</time><name>PT6349</name></trkpt>
<trkpt lat="53.254198" lon="-1.983623"><ele>379</ele><time>2021-11-13T13:15:52Z</time><name>PT6350</name></trkpt>
<trkpt lat="53.254201" lon="-1.983618"><ele>378</ele><time>2021-11-13T13:15:53Z</time><name>PT6351</name></trkpt>
<trkpt lat="53.254211" lon="-1.983613"><ele>378</ele><time>2021-11-13T13:15:54Z</time><name>PT6352</name></trkpt>
<trkpt lat="53.254215" lon="-1.983602"><ele>378</ele><time>2021-11-13T13:15:55Z</time><name>PT6353</name></trkpt>
<trkpt lat="53.254224" lon="-1.983598"><ele>378</ele><time>2021-11-13T13:15:56Z</time><name>PT6354</name></trkpt>
<trkpt lat="53.254235" lon="-1.983596"><ele>379</ele><time>2021-11-13T13:15:57Z</time><name>PT6355</name></trkpt>
<trkpt lat="53.254239" lon="-1.983585"><ele>379</ele><time>2021-11-13T13:15:58Z</time><name>PT6356</name></trkpt>
<trkpt lat="53.254245" lon="-1.983571"><ele>379</ele><time>2021-11-13T13:15:59Z</time><name>PT6357</name></trkpt>
<trkpt lat="53.254248" lon="-1.983558"><ele>378</ele><time>2021-11-13T13:16:00Z</time><name>PT6358</name></trkpt>
<trkpt lat="53.254245" lon="-1.983544"><ele>377</ele><time>2021-11-13T13:16:01Z</time><name>PT6359</name></trkpt>
<trkpt lat="53.254252" lon="-1.983535"><ele>378</ele><time>2021-11-13T13:16:02Z</time><name>PT6360</name></trkpt>
<trkpt lat="53.254258" lon="-1.983525"><ele>378</ele><time>2021-11-13T13:16:03Z</time><name>PT6361</name></trkpt>
<trkpt lat="53.254260" lon="-1.983515"><ele>378</ele><time>2021-11-13T13:16:04Z</time><name>PT6362</name></trkpt>
<trkpt lat="53.254265" lon="-1.983502"><ele>377</ele><time>2021-11-13T13:16:05Z</time><name>PT6363</name></trkpt>
<trkpt lat="53.254269" lon="-1.983491"><ele>377</ele><time>2021-11-13T13:16:06Z</time><name>PT6364</name></trkpt>
<trkpt lat="53.254266" lon="-1.983479"><ele>376</ele><time>2021-11-13T13:16:07Z</time><name>PT6365</name></trkpt>
<trkpt lat="53.254272" lon="-1.983467"><ele>376</ele><time>2021-11-13T13:16:08Z</time><name>PT6366</name></trkpt>
<trkpt lat="53.254274" lon="-1.983449"><ele>376</ele><time>2021-11-13T13:16:09Z</time><name>PT6367</name></trkpt>
<trkpt lat="53.254279" lon="-1.983440"><ele>376</ele><time>2021-11-13T13:16:10Z</time><name>PT6368</name></trkpt>
<trkpt lat="53.254283" lon="-1.983430"><ele>376</ele><time>2021-11-13T13:16:11Z</time><name>PT6369</name></trkpt>
<trkpt lat="53.254291" lon="-1.983428"><ele>376</ele><time>2021-11-13T13:16:12Z</time><name>PT6370</name></trkpt>
<trkpt lat="53.254300" lon="-1.983423"><ele>376</ele><time>2021-11-13T13:16:13Z</time><name>PT6371</name></trkpt>
<trkpt lat="53.254306" lon="-1.983419"><ele>376</ele><time>2021-11-13T13:16:14Z</time><name>PT6372</name></trkpt>
<trkpt lat="53.254311" lon="-1.983415"><ele>376</ele><time>2021-11-13T13:16:15Z</time><name>PT6373</name></trkpt>
<trkpt lat="53.254320" lon="-1.983412"><ele>376</ele><time>2021-11-13T13:16:16Z</time><name>PT6374</name></trkpt>
<trkpt lat="53.254325" lon="-1.983403"><ele>375</ele><time>2021-11-13T13:16:17Z</time><name>PT6375</name></trkpt>
<trkpt lat="53.254333" lon="-1.983396"><ele>375</ele><time>2021-11-13T13:16:18Z</time><name>PT6376</name></trkpt>
<trkpt lat="53.254341" lon="-1.983397"><ele>375</ele><time>2021-11-13T13:16:19Z</time><name>PT6377</name></trkpt>
<trkpt lat="53.254351" lon="-1.983386"><ele>375</ele><time>2021-11-13T13:16:20Z</time><name>PT6378</name></trkpt>
<trkpt lat="53.254360" lon="-1.983374"><ele>376</ele><time>2021-11-13T13:16:21Z</time><name>PT6379</name></trkpt>
<trkpt lat="53.254369" lon="-1.983363"><ele>377</ele><time>2021-11-13T13:16:22Z</time><name>PT6380</name></trkpt>
<trkpt lat="53.254373" lon="-1.983353"><ele>376</ele><time>2021-11-13T13:16:23Z</time><name>PT6381</name></trkpt>
<trkpt lat="53.254384" lon="-1.983347"><ele>377</ele><time>2021-11-13T13:16:24Z</time><name>PT6382</name></trkpt>
<trkpt lat="53.254390" lon="-1.983343"><ele>376</ele><time>2021-11-13T13:16:25Z</time><name>PT6383</name></trkpt>
<trkpt lat="53.254392" lon="-1.983337"><ele>376</ele><time>2021-11-13T13:16:26Z</time><name>PT6384</name></trkpt>
<trkpt lat="53.254395" lon="-1.983326"><ele>376</ele><time>2021-11-13T13:16:27Z</time><name>PT6385</name></trkpt>
<trkpt lat="53.254401" lon="-1.983313"><ele>376</ele><time>2021-11-13T13:16:28Z</time><name>PT6386</name></trkpt>
<trkpt lat="53.254406" lon="-1.983303"><ele>376</ele><time>2021-11-13T13:16:29Z</time><name>PT6387</name></trkpt>
<trkpt lat="53.254415" lon="-1.983295"><ele>377</ele><time>2021-11-13T13:16:30Z</time><name>PT6388</name></trkpt>
<trkpt lat="53.254430" lon="-1.983293"><ele>379</ele><time>2021-11-13T13:16:31Z</time><name>PT6389</name></trkpt>
<trkpt lat="53.254446" lon="-1.983288"><ele>380</ele><time>2021-11-13T13:16:32Z</time><name>PT6390</name></trkpt>
<trkpt lat="53.254455" lon="-1.983278"><ele>381</ele><time>2021-11-13T13:16:33Z</time><name>PT6391</name></trkpt>
<trkpt lat="53.254460" lon="-1.983262"><ele>381</ele><time>2021-11-13T13:16:34Z</time><name>PT6392</name></trkpt>
<trkpt lat="53.254465" lon="-1.983252"><ele>380</ele><time>2021-11-13T13:16:35Z</time><name>PT6393</name></trkpt>
<trkpt lat="53.254479" lon="-1.983241"><ele>380</ele><time>2021-11-13T13:16:36Z</time><name>PT6394</name></trkpt>
<trkpt lat="53.254486" lon="-1.983227"><ele>380</ele><time>2021-11-13T13:16:37Z</time><name>PT6395</name></trkpt>
<trkpt lat="53.254495" lon="-1.983220"><ele>380</ele><time>2021-11-13T13:16:38Z</time><name>PT6396</name></trkpt>
<trkpt lat="53.254497" lon="-1.983207"><ele>379</ele><time>2021-11-13T13:16:39Z</time><name>PT6397</name></trkpt>
<trkpt lat="53.254502" lon="-1.983199"><ele>378</ele><time>2021-11-13T13:16:40Z</time><name>PT6398</name></trkpt>
<trkpt lat="53.254506" lon="-1.983190"><ele>377</ele><time>2021-11-13T13:16:41Z</time><name>PT6399</name></trkpt>
<trkpt lat="53.254514" lon="-1.983175"><ele>377</ele><time>2021-11-13T13:16:42Z</time><name>PT6400</name></trkpt>
<trkpt lat="53.254522" lon="-1.983170"><ele>377</ele><time>2021-11-13T13:16:43Z</time><name>PT6401</name></trkpt>
<trkpt lat="53.254549" lon="-1.983137"><ele>374</ele><time>2021-11-13T13:16:47Z</time><name>PT6402</name></trkpt>
<trkpt lat="53.254571" lon="-1.983089"><ele>371</ele><time>2021-11-13T13:16:51Z</time><name>PT6403</name></trkpt>
<trkpt lat="53.254604" lon="-1.983062"><ele>368</ele><time>2021-11-13T13:16:55Z</time><name>PT6404</name></trkpt>
<trkpt lat="53.254643" lon="-1.983000"><ele>368</ele><time>2021-11-13T13:16:59Z</time><name>PT6405</name></trkpt>
<trkpt lat="53.254670" lon="-1.982944"><ele>367</ele><time>2021-11-13T13:17:03Z</time><name>PT6406</name></trkpt>
<trkpt lat="53.254715" lon="-1.982889"><ele>368</ele><time>2021-11-13T13:17:07Z</time><name>PT6407</name></trkpt>
<trkpt lat="53.254756" lon="-1.982851"><ele>369</ele><time>2021-11-13T13:17:11Z</time><name>PT6408</name></trkpt>
<trkpt lat="53.254806" lon="-1.982809"><ele>374</ele><time>2021-11-13T13:17:15Z</time><name>PT6409</name></trkpt>
<trkpt lat="53.254842" lon="-1.982765"><ele>377</ele><time>2021-11-13T13:17:19Z</time><name>PT6410</name></trkpt>
<trkpt lat="53.254876" lon="-1.982709"><ele>378</ele><time>2021-11-13T13:17:23Z</time><name>PT6411</name></trkpt>
<trkpt lat="53.254886" lon="-1.982647"><ele>376</ele><time>2021-11-13T13:17:27Z</time><name>PT6412</name></trkpt>
<trkpt lat="53.254888" lon="-1.982579"><ele>374</ele><time>2021-11-13T13:17:31Z</time><name>PT6413</name></trkpt>
<trkpt lat="53.254897" lon="-1.982514"><ele>374</ele><time>2021-11-13T13:17:35Z</time><name>PT6414</name></trkpt>
<trkpt lat="53.254891" lon="-1.982476"><ele>372</ele><time>2021-11-13T13:17:39Z</time><name>PT6415</name></trkpt>
<trkpt lat="53.254892" lon="-1.982445"><ele>371</ele><time>2021-11-13T13:17:43Z</time><name>PT6416</name></trkpt>
<trkpt lat="53.254879" lon="-1.982377"><ele>371</ele><time>2021-11-13T13:17:47Z</time><name>PT6417</name></trkpt>
<trkpt lat="53.254865" lon="-1.982304"><ele>370</ele><time>2021-11-13T13:17:51Z</time><name>PT6418</name></trkpt>
<trkpt lat="53.254850" lon="-1.982241"><ele>369</ele><time>2021-11-13T13:17:55Z</time><name>PT6419</name></trkpt>
<trkpt lat="53.254823" lon="-1.982168"><ele>370</ele><time>2021-11-13T13:17:59Z</time><name>PT6420</name></trkpt>
<trkpt lat="53.254792" lon="-1.982113"><ele>369</ele><time>2021-11-13T13:18:03Z</time><name>PT6421</name></trkpt>
<trkpt lat="53.254762" lon="-1.982048"><ele>368</ele><time>2021-11-13T13:18:07Z</time><name>PT6422</name></trkpt>
<trkpt lat="53.254716" lon="-1.981951"><ele>371</ele><time>2021-11-13T13:18:11Z</time><name>PT6423</name></trkpt>
<trkpt lat="53.254679" lon="-1.981895"><ele>370</ele><time>2021-11-13T13:18:15Z</time><name>PT6424</name></trkpt>
<trkpt lat="53.254633" lon="-1.981842"><ele>372</ele><time>2021-11-13T13:18:19Z</time><name>PT6425</name></trkpt>
<trkpt lat="53.254581" lon="-1.981776"><ele>373</ele><time>2021-11-13T13:18:23Z</time><name>PT6426</name></trkpt>
<trkpt lat="53.254531" lon="-1.981700"><ele>377</ele><time>2021-11-13T13:18:27Z</time><name>PT6427</name></trkpt>
<trkpt lat="53.254522" lon="-1.981638"><ele>374</ele><time>2021-11-13T13:18:31Z</time><name>PT6428</name></trkpt>
<trkpt lat="53.254485" lon="-1.981572"><ele>375</ele><time>2021-11-13T13:18:35Z</time><name>PT6429</name></trkpt>
<trkpt lat="53.254457" lon="-1.981494"><ele>375</ele><time>2021-11-13T13:18:39Z</time><name>PT6430</name></trkpt>
<trkpt lat="53.254435" lon="-1.981425"><ele>375</ele><time>2021-11-13T13:18:43Z</time><name>PT6431</name></trkpt>
<trkpt lat="53.254413" lon="-1.981370"><ele>373</ele><time>2021-11-13T13:18:47Z</time><name>PT6432</name></trkpt>
<trkpt lat="53.254391" lon="-1.981305"><ele>371</ele><time>2021-11-13T13:18:51Z</time><name>PT6433</name></trkpt>
<trkpt lat="53.254362" lon="-1.981234"><ele>370</ele><time>2021-11-13T13:18:55Z</time><name>PT6434</name></trkpt>
<trkpt lat="53.254348" lon="-1.981187"><ele>369</ele><time>2021-11-13T13:18:59Z</time><name>PT6435</name></trkpt>
<trkpt lat="53.254343" lon="-1.981154"><ele>370</ele><time>2021-11-13T13:19:03Z</time><name>PT6436</name></trkpt>
<trkpt lat="53.254319" lon="-1.981126"><ele>369</ele><time>2021-11-13T13:19:07Z</time><name>PT6437</name></trkpt>
<trkpt lat="53.254291" lon="-1.981092"><ele>369</ele><time>2021-11-13T13:19:11Z</time><name>PT6438</name></trkpt>
<trkpt lat="53.254289" lon="-1.981027"><ele>368</ele><time>2021-11-13T13:19:15Z</time><name>PT6439</name></trkpt>
<trkpt lat="53.254306" lon="-1.980974"><ele>369</ele><time>2021-11-13T13:19:19Z</time><name>PT6440</name></trkpt>
<trkpt lat="53.254295" lon="-1.980938"><ele>371</ele><time>2021-11-13T13:19:23Z</time><name>PT6441</name></trkpt>
<trkpt lat="53.254264" lon="-1.980900"><ele>373</ele><time>2021-11-13T13:19:27Z</time><name>PT6442</name></trkpt>
<trkpt lat="53.254228" lon="-1.980868"><ele>372</ele><time>2021-11-13T13:19:31Z</time><name>PT6443</name></trkpt>
<trkpt lat="53.254200" lon="-1.980821"><ele>371</ele><time>2021-11-13T13:19:35Z</time><name>PT6444</name></trkpt>
<trkpt lat="53.254175" lon="-1.980787"><ele>370</ele><time>2021-11-13T13:19:39Z</time><name>PT6445</name></trkpt>
<trkpt lat="53.254174" lon="-1.980785"><ele>370</ele><time>2021-11-13T13:19:43Z</time><name>PT6446</name></trkpt>
<trkpt lat="53.254189" lon="-1.980783"><ele>370</ele><time>2021-11-13T13:19:47Z</time><name>PT6447</name></trkpt>
<trkpt lat="53.254192" lon="-1.980777"><ele>371</ele><time>2021-11-13T13:19:50Z</time><name>PT6448</name></trkpt>
<trkpt lat="53.254196" lon="-1.980754"><ele>369</ele><time>2021-11-13T13:19:51Z</time><name>PT6449</name></trkpt>
<trkpt lat="53.254207" lon="-1.980740"><ele>371</ele><time>2021-11-13T13:19:52Z</time><name>PT6450</name></trkpt>
<trkpt lat="53.254207" lon="-1.980741"><ele>371</ele><time>2021-11-13T13:19:53Z</time><name>PT6451</name></trkpt>
<trkpt lat="53.254203" lon="-1.980739"><ele>371</ele><time>2021-11-13T13:19:54Z</time><name>PT6452</name></trkpt>
<trkpt lat="53.254202" lon="-1.980728"><ele>371</ele><time>2021-11-13T13:19:55Z</time><name>PT6453</name></trkpt>
<trkpt lat="53.254202" lon="-1.980717"><ele>371</ele><time>2021-11-13T13:19:56Z</time><name>PT6454</name></trkpt>
<trkpt lat="53.254202" lon="-1.980708"><ele>371</ele><time>2021-11-13T13:19:57Z</time><name>PT6455</name></trkpt>
<trkpt lat="53.254205" lon="-1.980707"><ele>372</ele><time>2021-11-13T13:19:58Z</time><name>PT6456</name></trkpt>
<trkpt lat="53.254206" lon="-1.980708"><ele>372</ele><time>2021-11-13T13:19:59Z</time><name>PT6457</name></trkpt>
<trkpt lat="53.254203" lon="-1.980709"><ele>371</ele><time>2021-11-13T13:20:00Z</time><name>PT6458</name></trkpt>
<trkpt lat="53.254200" lon="-1.980703"><ele>372</ele><time>2021-11-13T13:20:01Z</time><name>PT6459</name></trkpt>
<trkpt lat="53.254199" lon="-1.980698"><ele>372</ele><time>2021-11-13T13:20:02Z</time><name>PT6460</name></trkpt>
<trkpt lat="53.254197" lon="-1.980693"><ele>372</ele><time>2021-11-13T13:20:03Z</time><name>PT6461</name></trkpt>
<trkpt lat="53.254196" lon="-1.980692"><ele>372</ele><time>2021-11-13T13:20:07Z</time><name>PT6462</name></trkpt>
<trkpt lat="53.254193" lon="-1.980702"><ele>372</ele><time>2021-11-13T13:20:08Z</time><name>PT6463</name></trkpt>
<trkpt lat="53.254189" lon="-1.980712"><ele>372</ele><time>2021-11-13T13:20:09Z</time><name>PT6464</name></trkpt>
<trkpt lat="53.254182" lon="-1.980720"><ele>373</ele><time>2021-11-13T13:20:10Z</time><name>PT6465</name></trkpt>
<trkpt lat="53.254171" lon="-1.980728"><ele>373</ele><time>2021-11-13T13:20:11Z</time><name>PT6466</name></trkpt>
<trkpt lat="53.254162" lon="-1.980727"><ele>373</ele><time>2021-11-13T13:20:12Z</time><name>PT6467</name></trkpt>
<trkpt lat="53.254157" lon="-1.980721"><ele>373</ele><time>2021-11-13T13:20:13Z</time><name>PT6468</name></trkpt>
<trkpt lat="53.254152" lon="-1.980713"><ele>373</ele><time>2021-11-13T13:20:14Z</time><name>PT6469</name></trkpt>
<trkpt lat="53.254146" lon="-1.980702"><ele>373</ele><time>2021-11-13T13:20:15Z</time><name>PT6470</name></trkpt>
<trkpt lat="53.254140" lon="-1.980696"><ele>373</ele><time>2021-11-13T13:20:16Z</time><name>PT6471</name></trkpt>
<trkpt lat="53.254138" lon="-1.980693"><ele>373</ele><time>2021-11-13T13:20:17Z</time><name>PT6472</name></trkpt>
<trkpt lat="53.254138" lon="-1.980691"><ele>374</ele><time>2021-11-13T13:20:18Z</time><name>PT6473</name></trkpt>
<trkpt lat="53.254138" lon="-1.980690"><ele>374</ele><time>2021-11-13T13:20:19Z</time><name>PT6474</name></trkpt>
<trkpt lat="53.254136" lon="-1.980693"><ele>373</ele><time>2021-11-13T13:20:25Z</time><name>PT6475</name></trkpt>
<trkpt lat="53.254130" lon="-1.980690"><ele>373</ele><time>2021-11-13T13:20:26Z</time><name>PT6476</name></trkpt>
<trkpt lat="53.254127" lon="-1.980688"><ele>374</ele><time>2021-11-13T13:20:27Z</time><name>PT6477</name></trkpt>
<trkpt lat="53.254127" lon="-1.980690"><ele>374</ele><time>2021-11-13T13:20:28Z</time><name>PT6478</name></trkpt>
<trkpt lat="53.254134" lon="-1.980696"><ele>374</ele><time>2021-11-13T13:20:29Z</time><name>PT6479</name></trkpt>
<trkpt lat="53.254140" lon="-1.980699"><ele>374</ele><time>2021-11-13T13:20:30Z</time><name>PT6480</name></trkpt>
<trkpt lat="53.254144" lon="-1.980698"><ele>374</ele><time>2021-11-13T13:20:31Z</time><name>PT6481</name></trkpt>
<trkpt lat="53.254147" lon="-1.980708"><ele>374</ele><time>2021-11-13T13:20:32Z</time><name>PT6482</name></trkpt>
<trkpt lat="53.254152" lon="-1.980716"><ele>374</ele><time>2021-11-13T13:20:33Z</time><name>PT6483</name></trkpt>
<trkpt lat="53.254157" lon="-1.980726"><ele>374</ele><time>2021-11-13T13:20:34Z</time><name>PT6484</name></trkpt>
<trkpt lat="53.254164" lon="-1.980729"><ele>374</ele><time>2021-11-13T13:20:35Z</time><name>PT6485</name></trkpt>
<trkpt lat="53.254171" lon="-1.980731"><ele>374</ele><time>2021-11-13T13:20:36Z</time><name>PT6486</name></trkpt>
<trkpt lat="53.254176" lon="-1.980736"><ele>374</ele><time>2021-11-13T13:20:37Z</time><name>PT6487</name></trkpt>
<trkpt lat="53.254178" lon="-1.980741"><ele>374</ele><time>2021-11-13T13:20:38Z</time><name>PT6488</name></trkpt>
<trkpt lat="53.254181" lon="-1.980741"><ele>375</ele><time>2021-11-13T13:20:39Z</time><name>PT6489</name></trkpt>
<trkpt lat="53.254182" lon="-1.980741"><ele>375</ele><time>2021-11-13T13:20:40Z</time><name>PT6490</name></trkpt>
<trkpt lat="53.254182" lon="-1.980739"><ele>375</ele><time>2021-11-13T13:20:41Z</time><name>PT6491</name></trkpt>
<trkpt lat="53.254180" lon="-1.980738"><ele>375</ele><time>2021-11-13T13:20:42Z</time><name>PT6492</name></trkpt>
<trkpt lat="53.254177" lon="-1.980735"><ele>375</ele><time>2021-11-13T13:20:53Z</time><name>PT6493</name></trkpt>
<trkpt lat="53.254179" lon="-1.980732"><ele>375</ele><time>2021-11-13T13:20:54Z</time><name>PT6494</name></trkpt>
<trkpt lat="53.254175" lon="-1.980732"><ele>375</ele><time>2021-11-13T13:20:55Z</time><name>PT6495</name></trkpt>
<trkpt lat="53.254177" lon="-1.980728"><ele>375</ele><time>2021-11-13T13:20:56Z</time><name>PT6496</name></trkpt>
<trkpt lat="53.254177" lon="-1.980729"><ele>375</ele><time>2021-11-13T13:20:57Z</time><name>PT6497</name></trkpt>
<trkpt lat="53.254176" lon="-1.980731"><ele>374</ele><time>2021-11-13T13:20:58Z</time><name>PT6498</name></trkpt>
<trkpt lat="53.254177" lon="-1.980736"><ele>375</ele><time>2021-11-13T13:20:59Z</time><name>PT6499</name></trkpt>
<trkpt lat="53.254182" lon="-1.980735"><ele>375</ele><time>2021-11-13T13:21:00Z</time><name>PT6500</name></trkpt>
<trkpt lat="53.254182" lon="-1.980737"><ele>375</ele><time>2021-11-13T13:21:01Z</time><name>PT6501</name></trkpt>
<trkpt lat="53.254187" lon="-1.980742"><ele>375</ele><time>2021-11-13T13:21:02Z</time><name>PT6502</name></trkpt>
<trkpt lat="53.254195" lon="-1.980721"><ele>375</ele><time>2021-11-13T13:21:42Z</time><name>PT6503</name></trkpt>
<trkpt lat="53.254201" lon="-1.980712"><ele>375</ele><time>2021-11-13T13:21:43Z</time><name>PT6504</name></trkpt>
<trkpt lat="53.254201" lon="-1.980711"><ele>375</ele><time>2021-11-13T13:21:44Z</time><name>PT6505</name></trkpt>
<trkpt lat="53.254199" lon="-1.980721"><ele>375</ele><time>2021-11-13T13:21:45Z</time><name>PT6506</name></trkpt>
<trkpt lat="53.254199" lon="-1.980723"><ele>375</ele><time>2021-11-13T13:21:46Z</time><name>PT6507</name></trkpt>
<trkpt lat="53.254209" lon="-1.980712"><ele>375</ele><time>2021-11-13T13:21:59Z</time><name>PT6508</name></trkpt>
<trkpt lat="53.254209" lon="-1.980704"><ele>375</ele><time>2021-11-13T13:22:00Z</time><name>PT6509</name></trkpt>
<trkpt lat="53.254205" lon="-1.980690"><ele>375</ele><time>2021-11-13T13:22:01Z</time><name>PT6510</name></trkpt>
<trkpt lat="53.254203" lon="-1.980676"><ele>375</ele><time>2021-11-13T13:22:02Z</time><name>PT6511</name></trkpt>
<trkpt lat="53.254205" lon="-1.980671"><ele>375</ele><time>2021-11-13T13:22:03Z</time><name>PT6512</name></trkpt>
<trkpt lat="53.254209" lon="-1.980664"><ele>374</ele><time>2021-11-13T13:22:04Z</time><name>PT6513</name></trkpt>
<trkpt lat="53.254207" lon="-1.980654"><ele>374</ele><time>2021-11-13T13:22:05Z</time><name>PT6514</name></trkpt>
<trkpt lat="53.254202" lon="-1.980642"><ele>374</ele><time>2021-11-13T13:22:06Z</time><name>PT6515</name></trkpt>
<trkpt lat="53.254195" lon="-1.980632"><ele>375</ele><time>2021-11-13T13:22:07Z</time><name>PT6516</name></trkpt>
<trkpt lat="53.254192" lon="-1.980621"><ele>374</ele><time>2021-11-13T13:22:08Z</time><name>PT6517</name></trkpt>
<trkpt lat="53.254185" lon="-1.980611"><ele>374</ele><time>2021-11-13T13:22:09Z</time><name>PT6518</name></trkpt>
<trkpt lat="53.254179" lon="-1.980599"><ele>374</ele><time>2021-11-13T13:22:10Z</time><name>PT6519</name></trkpt>
<trkpt lat="53.254172" lon="-1.980585"><ele>374</ele><time>2021-11-13T13:22:11Z</time><name>PT6520</name></trkpt>
<trkpt lat="53.254169" lon="-1.980575"><ele>374</ele><time>2021-11-13T13:22:12Z</time><name>PT6521</name></trkpt>
<trkpt lat="53.254169" lon="-1.980564"><ele>374</ele><time>2021-11-13T13:22:13Z</time><name>PT6522</name></trkpt>
<trkpt lat="53.254168" lon="-1.980550"><ele>374</ele><time>2021-11-13T13:22:14Z</time><name>PT6523</name></trkpt>
<trkpt lat="53.254167" lon="-1.980540"><ele>373</ele><time>2021-11-13T13:22:15Z</time><name>PT6524</name></trkpt>
<trkpt lat="53.254169" lon="-1.980525"><ele>373</ele><time>2021-11-13T13:22:16Z</time><name>PT6525</name></trkpt>
<trkpt lat="53.254173" lon="-1.980513"><ele>373</ele><time>2021-11-13T13:22:17Z</time><name>PT6526</name></trkpt>
<trkpt lat="53.254177" lon="-1.980497"><ele>373</ele><time>2021-11-13T13:22:18Z</time><name>PT6527</name></trkpt>
<trkpt lat="53.254179" lon="-1.980486"><ele>373</ele><time>2021-11-13T13:22:19Z</time><name>PT6528</name></trkpt>
<trkpt lat="53.254182" lon="-1.980473"><ele>373</ele><time>2021-11-13T13:22:20Z</time><name>PT6529</name></trkpt>
<trkpt lat="53.254182" lon="-1.980458"><ele>373</ele><time>2021-11-13T13:22:21Z</time><name>PT6530</name></trkpt>
<trkpt lat="53.254182" lon="-1.980443"><ele>373</ele><time>2021-11-13T13:22:22Z</time><name>PT6531</name></trkpt>
<trkpt lat="53.254181" lon="-1.980430"><ele>373</ele><time>2021-11-13T13:22:23Z</time><name>PT6532</name></trkpt>
<trkpt lat="53.254176" lon="-1.980418"><ele>372</ele><time>2021-11-13T13:22:24Z</time><name>PT6533</name></trkpt>
<trkpt lat="53.254172" lon="-1.980401"><ele>372</ele><time>2021-11-13T13:22:25Z</time><name>PT6534</name></trkpt>
<trkpt lat="53.254169" lon="-1.980383"><ele>372</ele><time>2021-11-13T13:22:26Z</time><name>PT6535</name></trkpt>
<trkpt lat="53.254163" lon="-1.980367"><ele>372</ele><time>2021-11-13T13:22:27Z</time><name>PT6536</name></trkpt>
<trkpt lat="53.254157" lon="-1.980354"><ele>372</ele><time>2021-11-13T13:22:28Z</time><name>PT6537</name></trkpt>
<trkpt lat="53.254152" lon="-1.980342"><ele>372</ele><time>2021-11-13T13:22:29Z</time><name>PT6538</name></trkpt>
<trkpt lat="53.254146" lon="-1.980334"><ele>372</ele><time>2021-11-13T13:22:30Z</time><name>PT6539</name></trkpt>
<trkpt lat="53.254141" lon="-1.980325"><ele>372</ele><time>2021-11-13T13:22:31Z</time><name>PT6540</name></trkpt>
<trkpt lat="53.254136" lon="-1.980315"><ele>371</ele><time>2021-11-13T13:22:32Z</time><name>PT6541</name></trkpt>
<trkpt lat="53.254132" lon="-1.980304"><ele>371</ele><time>2021-11-13T13:22:33Z</time><name>PT6542</name></trkpt>
<trkpt lat="53.254131" lon="-1.980296"><ele>371</ele><time>2021-11-13T13:22:34Z</time><name>PT6543</name></trkpt>
<trkpt lat="53.254131" lon="-1.980277"><ele>371</ele><time>2021-11-13T13:22:35Z</time><name>PT6544</name></trkpt>
<trkpt lat="53.254129" lon="-1.980262"><ele>371</ele><time>2021-11-13T13:22:36Z</time><name>PT6545</name></trkpt>
<trkpt lat="53.254126" lon="-1.980250"><ele>371</ele><time>2021-11-13T13:22:37Z</time><name>PT6546</name></trkpt>
<trkpt lat="53.254122" lon="-1.980238"><ele>371</ele><time>2021-11-13T13:22:38Z</time><name>PT6547</name></trkpt>
<trkpt lat="53.254119" lon="-1.980221"><ele>371</ele><time>2021-11-13T13:22:39Z</time><name>PT6548</name></trkpt>
<trkpt lat="53.254116" lon="-1.980203"><ele>370</ele><time>2021-11-13T13:22:40Z</time><name>PT6549</name></trkpt>
<trkpt lat="53.254113" lon="-1.980187"><ele>370</ele><time>2021-11-13T13:22:41Z</time><name>PT6550</name></trkpt>
<trkpt lat="53.254111" lon="-1.980175"><ele>370</ele><time>2021-11-13T13:22:42Z</time><name>PT6551</name></trkpt>
<trkpt lat="53.254109" lon="-1.980159"><ele>370</ele><time>2021-11-13T13:22:43Z</time><name>PT6552</name></trkpt>
<trkpt lat="53.254104" lon="-1.980143"><ele>370</ele><time>2021-11-13T13:22:44Z</time><name>PT6553</name></trkpt>
<trkpt lat="53.254099" lon="-1.980127"><ele>369</ele><time>2021-11-13T13:22:45Z</time><name>PT6554</name></trkpt>
<trkpt lat="53.254097" lon="-1.980113"><ele>369</ele><time>2021-11-13T13:22:46Z</time><name>PT6555</name></trkpt>
<trkpt lat="53.254096" lon="-1.980090"><ele>369</ele><time>2021-11-13T13:22:47Z</time><name>PT6556</name></trkpt>
<trkpt lat="53.254093" lon="-1.980069"><ele>369</ele><time>2021-11-13T13:22:48Z</time><name>PT6557</name></trkpt>
<trkpt lat="53.254087" lon="-1.980051"><ele>368</ele><time>2021-11-13T13:22:49Z</time><name>PT6558</name></trkpt>
<trkpt lat="53.254081" lon="-1.980038"><ele>368</ele><time>2021-11-13T13:22:50Z</time><name>PT6559</name></trkpt>
<trkpt lat="53.254073" lon="-1.980027"><ele>368</ele><time>2021-11-13T13:22:51Z</time><name>PT6560</name></trkpt>
<trkpt lat="53.254068" lon="-1.980014"><ele>368</ele><time>2021-11-13T13:22:52Z</time><name>PT6561</name></trkpt>
<trkpt lat="53.254061" lon="-1.979996"><ele>368</ele><time>2021-11-13T13:22:53Z</time><name>PT6562</name></trkpt>
<trkpt lat="53.254054" lon="-1.979977"><ele>368</ele><time>2021-11-13T13:22:54Z</time><name>PT6563</name></trkpt>
<trkpt lat="53.254048" lon="-1.979962"><ele>368</ele><time>2021-11-13T13:22:55Z</time><name>PT6564</name></trkpt>
<trkpt lat="53.254041" lon="-1.979947"><ele>368</ele><time>2021-11-13T13:22:56Z</time><name>PT6565</name></trkpt>
<trkpt lat="53.254031" lon="-1.979934"><ele>368</ele><time>2021-11-13T13:22:57Z</time><name>PT6566</name></trkpt>
<trkpt lat="53.254024" lon="-1.979923"><ele>368</ele><time>2021-11-13T13:22:58Z</time><name>PT6567</name></trkpt>
<trkpt lat="53.254017" lon="-1.979906"><ele>368</ele><time>2021-11-13T13:22:59Z</time><name>PT6568</name></trkpt>
<trkpt lat="53.254009" lon="-1.979890"><ele>368</ele><time>2021-11-13T13:23:00Z</time><name>PT6569</name></trkpt>
<trkpt lat="53.254003" lon="-1.979877"><ele>367</ele><time>2021-11-13T13:23:01Z</time><name>PT6570</name></trkpt>
<trkpt lat="53.253997" lon="-1.979861"><ele>368</ele><time>2021-11-13T13:23:02Z</time><name>PT6571</name></trkpt>
<trkpt lat="53.253989" lon="-1.979845"><ele>367</ele><time>2021-11-13T13:23:03Z</time><name>PT6572</name></trkpt>
<trkpt lat="53.253982" lon="-1.979831"><ele>367</ele><time>2021-11-13T13:23:04Z</time><name>PT6573</name></trkpt>
<trkpt lat="53.253975" lon="-1.979818"><ele>367</ele><time>2021-11-13T13:23:05Z</time><name>PT6574</name></trkpt>
<trkpt lat="53.253970" lon="-1.979803"><ele>366</ele><time>2021-11-13T13:23:06Z</time><name>PT6575</name></trkpt>
<trkpt lat="53.253966" lon="-1.979784"><ele>367</ele><time>2021-11-13T13:23:07Z</time><name>PT6576</name></trkpt>
<trkpt lat="53.253963" lon="-1.979763"><ele>366</ele><time>2021-11-13T13:23:08Z</time><name>PT6577</name></trkpt>
<trkpt lat="53.253960" lon="-1.979746"><ele>366</ele><time>2021-11-13T13:23:09Z</time><name>PT6578</name></trkpt>
<trkpt lat="53.253954" lon="-1.979731"><ele>366</ele><time>2021-11-13T13:23:10Z</time><name>PT6579</name></trkpt>
<trkpt lat="53.253951" lon="-1.979714"><ele>366</ele><time>2021-11-13T13:23:11Z</time><name>PT6580</name></trkpt>
<trkpt lat="53.253949" lon="-1.979696"><ele>366</ele><time>2021-11-13T13:23:12Z</time><name>PT6581</name></trkpt>
<trkpt lat="53.253946" lon="-1.979678"><ele>366</ele><time>2021-11-13T13:23:13Z</time><name>PT6582</name></trkpt>
<trkpt lat="53.253942" lon="-1.979660"><ele>366</ele><time>2021-11-13T13:23:14Z</time><name>PT6583</name></trkpt>
<trkpt lat="53.253941" lon="-1.979641"><ele>365</ele><time>2021-11-13T13:23:15Z</time><name>PT6584</name></trkpt>
<trkpt lat="53.253939" lon="-1.979625"><ele>365</ele><time>2021-11-13T13:23:16Z</time><name>PT6585</name></trkpt>
<trkpt lat="53.253935" lon="-1.979610"><ele>365</ele><time>2021-11-13T13:23:17Z</time><name>PT6586</name></trkpt>
<trkpt lat="53.253932" lon="-1.979594"><ele>365</ele><time>2021-11-13T13:23:18Z</time><name>PT6587</name></trkpt>
<trkpt lat="53.253928" lon="-1.979583"><ele>365</ele><time>2021-11-13T13:23:19Z</time><name>PT6588</name></trkpt>
<trkpt lat="53.253922" lon="-1.979573"><ele>365</ele><time>2021-11-13T13:23:20Z</time><name>PT6589</name></trkpt>
<trkpt lat="53.253914" lon="-1.979568"><ele>365</ele><time>2021-11-13T13:23:21Z</time><name>PT6590</name></trkpt>
<trkpt lat="53.253907" lon="-1.979560"><ele>365</ele><time>2021-11-13T13:23:22Z</time><name>PT6591</name></trkpt>
<trkpt lat="53.253905" lon="-1.979554"><ele>365</ele><time>2021-11-13T13:23:23Z</time><name>PT6592</name></trkpt>
<trkpt lat="53.253904" lon="-1.979546"><ele>365</ele><time>2021-11-13T13:23:24Z</time><name>PT6593</name></trkpt>
<trkpt lat="53.253904" lon="-1.979528"><ele>365</ele><time>2021-11-13T13:23:25Z</time><name>PT6594</name></trkpt>
<trkpt lat="53.253905" lon="-1.979503"><ele>365</ele><time>2021-11-13T13:23:26Z</time><name>PT6595</name></trkpt>
<trkpt lat="53.253905" lon="-1.979486"><ele>365</ele><time>2021-11-13T13:23:27Z</time><name>PT6596</name></trkpt>
<trkpt lat="53.253903" lon="-1.979474"><ele>365</ele><time>2021-11-13T13:23:28Z</time><name>PT6597</name></trkpt>
<trkpt lat="53.253899" lon="-1.979466"><ele>364</ele><time>2021-11-13T13:23:29Z</time><name>PT6598</name></trkpt>
<trkpt lat="53.253900" lon="-1.979457"><ele>364</ele><time>2021-11-13T13:23:30Z</time><name>PT6599</name></trkpt>
<trkpt lat="53.253899" lon="-1.979448"><ele>364</ele><time>2021-11-13T13:23:31Z</time><name>PT6600</name></trkpt>
<trkpt lat="53.253893" lon="-1.979433"><ele>363</ele><time>2021-11-13T13:23:32Z</time><name>PT6601</name></trkpt>
<trkpt lat="53.253885" lon="-1.979416"><ele>363</ele><time>2021-11-13T13:23:33Z</time><name>PT6602</name></trkpt>
<trkpt lat="53.253874" lon="-1.979402"><ele>363</ele><time>2021-11-13T13:23:34Z</time><name>PT6603</name></trkpt>
<trkpt lat="53.253865" lon="-1.979391"><ele>363</ele><time>2021-11-13T13:23:35Z</time><name>PT6604</name></trkpt>
<trkpt lat="53.253857" lon="-1.979378"><ele>364</ele><time>2021-11-13T13:23:36Z</time><name>PT6605</name></trkpt>
<trkpt lat="53.253852" lon="-1.979363"><ele>364</ele><time>2021-11-13T13:23:37Z</time><name>PT6606</name></trkpt>
<trkpt lat="53.253847" lon="-1.979346"><ele>364</ele><time>2021-11-13T13:23:38Z</time><name>PT6607</name></trkpt>
<trkpt lat="53.253845" lon="-1.979335"><ele>364</ele><time>2021-11-13T13:23:39Z</time><name>PT6608</name></trkpt>
<trkpt lat="53.253843" lon="-1.979325"><ele>364</ele><time>2021-11-13T13:23:40Z</time><name>PT6609</name></trkpt>
<trkpt lat="53.253833" lon="-1.979257"><ele>363</ele><time>2021-11-13T13:23:44Z</time><name>PT6610</name></trkpt>
<trkpt lat="53.253823" lon="-1.979211"><ele>363</ele><time>2021-11-13T13:23:48Z</time><name>PT6611</name></trkpt>
<trkpt lat="53.253813" lon="-1.979160"><ele>362</ele><time>2021-11-13T13:23:52Z</time><name>PT6612</name></trkpt>
<trkpt lat="53.253802" lon="-1.979078"><ele>361</ele><time>2021-11-13T13:23:56Z</time><name>PT6613</name></trkpt>
<trkpt lat="53.253792" lon="-1.979003"><ele>360</ele><time>2021-11-13T13:24:00Z</time><name>PT6614</name></trkpt>
<trkpt lat="53.253773" lon="-1.978937"><ele>359</ele><time>2021-11-13T13:24:04Z</time><name>PT6615</name></trkpt>
<trkpt lat="53.253764" lon="-1.978904"><ele>360</ele><time>2021-11-13T13:24:08Z</time><name>PT6616</name></trkpt>
<trkpt lat="53.253757" lon="-1.978877"><ele>360</ele><time>2021-11-13T13:24:12Z</time><name>PT6617</name></trkpt>
<trkpt lat="53.253755" lon="-1.978848"><ele>360</ele><time>2021-11-13T13:24:16Z</time><name>PT6618</name></trkpt>
<trkpt lat="53.253751" lon="-1.978798"><ele>359</ele><time>2021-11-13T13:24:24Z</time><name>PT6619</name></trkpt>
<trkpt lat="53.253726" lon="-1.978708"><ele>358</ele><time>2021-11-13T13:24:28Z</time><name>PT6620</name></trkpt>
<trkpt lat="53.253697" lon="-1.978644"><ele>358</ele><time>2021-11-13T13:24:32Z</time><name>PT6621</name></trkpt>
<trkpt lat="53.253661" lon="-1.978595"><ele>358</ele><time>2021-11-13T13:24:36Z</time><name>PT6622</name></trkpt>
<trkpt lat="53.253625" lon="-1.978537"><ele>357</ele><time>2021-11-13T13:24:40Z</time><name>PT6623</name></trkpt>
<trkpt lat="53.253585" lon="-1.978479"><ele>357</ele><time>2021-11-13T13:24:44Z</time><name>PT6624</name></trkpt>
<trkpt lat="53.253567" lon="-1.978425"><ele>359</ele><time>2021-11-13T13:24:48Z</time><name>PT6625</name></trkpt>
<trkpt lat="53.253594" lon="-1.978428"><ele>359</ele><time>2021-11-13T13:24:52Z</time><name>PT6626</name></trkpt>
<trkpt lat="53.253630" lon="-1.978467"><ele>360</ele><time>2021-11-13T13:24:56Z</time><name>PT6627</name></trkpt>
<trkpt lat="53.253665" lon="-1.978517"><ele>359</ele><time>2021-11-13T13:25:00Z</time><name>PT6628</name></trkpt>
<trkpt lat="53.253690" lon="-1.978569"><ele>358</ele><time>2021-11-13T13:25:04Z</time><name>PT6629</name></trkpt>
<trkpt lat="53.253713" lon="-1.978603"><ele>357</ele><time>2021-11-13T13:25:08Z</time><name>PT6630</name></trkpt>
<trkpt lat="53.253721" lon="-1.978632"><ele>357</ele><time>2021-11-13T13:25:12Z</time><name>PT6631</name></trkpt>
<trkpt lat="53.253728" lon="-1.978638"><ele>356</ele><time>2021-11-13T13:25:16Z</time><name>PT6632</name></trkpt>
<trkpt lat="53.253729" lon="-1.978640"><ele>356</ele><time>2021-11-13T13:25:20Z</time><name>PT6633</name></trkpt>
<trkpt lat="53.253726" lon="-1.978655"><ele>355</ele><time>2021-11-13T13:25:32Z</time><name>PT6634</name></trkpt>
<trkpt lat="53.253729" lon="-1.978662"><ele>355</ele><time>2021-11-13T13:25:36Z</time><name>PT6635</name></trkpt>
<trkpt lat="53.253723" lon="-1.978666"><ele>355</ele><time>2021-11-13T13:25:43Z</time><name>PT6636</name></trkpt>
<trkpt lat="53.253723" lon="-1.978671"><ele>355</ele><time>2021-11-13T13:25:44Z</time><name>PT6637</name></trkpt>
<trkpt lat="53.253720" lon="-1.978675"><ele>354</ele><time>2021-11-13T13:25:45Z</time><name>PT6638</name></trkpt>
<trkpt lat="53.253718" lon="-1.978677"><ele>354</ele><time>2021-11-13T13:25:46Z</time><name>PT6639</name></trkpt>
<trkpt lat="53.253719" lon="-1.978678"><ele>354</ele><time>2021-11-13T13:25:55Z</time><name>PT6640</name></trkpt>
<trkpt lat="53.253721" lon="-1.978679"><ele>354</ele><time>2021-11-13T13:25:56Z</time><name>PT6641</name></trkpt>
<trkpt lat="53.253723" lon="-1.978682"><ele>355</ele><time>2021-11-13T13:25:57Z</time><name>PT6642</name></trkpt>
<trkpt lat="53.253723" lon="-1.978681"><ele>354</ele><time>2021-11-13T13:25:58Z</time><name>PT6643</name></trkpt>
<trkpt lat="53.253727" lon="-1.978680"><ele>354</ele><time>2021-11-13T13:26:16Z</time><name>PT6644</name></trkpt>
<trkpt lat="53.253728" lon="-1.978679"><ele>354</ele><time>2021-11-13T13:26:17Z</time><name>PT6645</name></trkpt>
<trkpt lat="53.253728" lon="-1.978678"><ele>354</ele><time>2021-11-13T13:26:18Z</time><name>PT6646</name></trkpt>
<trkpt lat="53.253732" lon="-1.978677"><ele>354</ele><time>2021-11-13T13:26:23Z</time><name>PT6647</name></trkpt>
<trkpt lat="53.253735" lon="-1.978678"><ele>354</ele><time>2021-11-13T13:26:24Z</time><name>PT6648</name></trkpt>
<trkpt lat="53.253736" lon="-1.978685"><ele>354</ele><time>2021-11-13T13:26:25Z</time><name>PT6649</name></trkpt>
<trkpt lat="53.253734" lon="-1.978694"><ele>354</ele><time>2021-11-13T13:26:26Z</time><name>PT6650</name></trkpt>
<trkpt lat="53.253736" lon="-1.978692"><ele>354</ele><time>2021-11-13T13:26:27Z</time><name>PT6651</name></trkpt>
<trkpt lat="53.253737" lon="-1.978688"><ele>354</ele><time>2021-11-13T13:26:28Z</time><name>PT6652</name></trkpt>
<trkpt lat="53.253739" lon="-1.978686"><ele>354</ele><time>2021-11-13T13:26:29Z</time><name>PT6653</name></trkpt>
<trkpt lat="53.253738" lon="-1.978686"><ele>354</ele><time>2021-11-13T13:26:30Z</time><name>PT6654</name></trkpt>
<trkpt lat="53.253737" lon="-1.978691"><ele>354</ele><time>2021-11-13T13:26:31Z</time><name>PT6655</name></trkpt>
<trkpt lat="53.253735" lon="-1.978690"><ele>354</ele><time>2021-11-13T13:26:32Z</time><name>PT6656</name></trkpt>
<trkpt lat="53.253734" lon="-1.978686"><ele>354</ele><time>2021-11-13T13:26:33Z</time><name>PT6657</name></trkpt>
<trkpt lat="53.253732" lon="-1.978688"><ele>354</ele><time>2021-11-13T13:26:34Z</time><name>PT6658</name></trkpt>
<trkpt lat="53.253733" lon="-1.978685"><ele>354</ele><time>2021-11-13T13:26:35Z</time><name>PT6659</name></trkpt>
<trkpt lat="53.253732" lon="-1.978683"><ele>353</ele><time>2021-11-13T13:26:36Z</time><name>PT6660</name></trkpt>
<trkpt lat="53.253733" lon="-1.978681"><ele>354</ele><time>2021-11-13T13:26:37Z</time><name>PT6661</name></trkpt>
<trkpt lat="53.253734" lon="-1.978678"><ele>354</ele><time>2021-11-13T13:26:38Z</time><name>PT6662</name></trkpt>
<trkpt lat="53.253732" lon="-1.978675"><ele>354</ele><time>2021-11-13T13:26:39Z</time><name>PT6663</name></trkpt>
<trkpt lat="53.253730" lon="-1.978669"><ele>353</ele><time>2021-11-13T13:26:40Z</time><name>PT6664</name></trkpt>
<trkpt lat="53.253728" lon="-1.978669"><ele>354</ele><time>2021-11-13T13:26:41Z</time><name>PT6665</name></trkpt>
<trkpt lat="53.253728" lon="-1.978672"><ele>354</ele><time>2021-11-13T13:26:42Z</time><name>PT6666</name></trkpt>
<trkpt lat="53.253728" lon="-1.978671"><ele>353</ele><time>2021-11-13T13:26:43Z</time><name>PT6667</name></trkpt>
<trkpt lat="53.253728" lon="-1.978668"><ele>353</ele><time>2021-11-13T13:26:44Z</time><name>PT6668</name></trkpt>
<trkpt lat="53.253725" lon="-1.978664"><ele>354</ele><time>2021-11-13T13:26:45Z</time><name>PT6669</name></trkpt>
<trkpt lat="53.253725" lon="-1.978659"><ele>354</ele><time>2021-11-13T13:26:46Z</time><name>PT6670</name></trkpt>
<trkpt lat="53.253725" lon="-1.978661"><ele>354</ele><time>2021-11-13T13:26:47Z</time><name>PT6671</name></trkpt>
<trkpt lat="53.253726" lon="-1.978662"><ele>354</ele><time>2021-11-13T13:26:48Z</time><name>PT6672</name></trkpt>
<trkpt lat="53.253726" lon="-1.978663"><ele>354</ele><time>2021-11-13T13:26:49Z</time><name>PT6673</name></trkpt>
<trkpt lat="53.253726" lon="-1.978680"><ele>355</ele><time>2021-11-13T13:26:55Z</time><name>PT6674</name></trkpt>
<trkpt lat="53.253728" lon="-1.978675"><ele>356</ele><time>2021-11-13T13:26:56Z</time><name>PT6675</name></trkpt>
<trkpt lat="53.253726" lon="-1.978665"><ele>355</ele><time>2021-11-13T13:26:57Z</time><name>PT6676</name></trkpt>
<trkpt lat="53.253723" lon="-1.978664"><ele>356</ele><time>2021-11-13T13:26:58Z</time><name>PT6677</name></trkpt>
<trkpt lat="53.253722" lon="-1.978657"><ele>355</ele><time>2021-11-13T13:26:59Z</time><name>PT6678</name></trkpt>
<trkpt lat="53.253723" lon="-1.978651"><ele>355</ele><time>2021-11-13T13:27:00Z</time><name>PT6679</name></trkpt>
<trkpt lat="53.253723" lon="-1.978649"><ele>355</ele><time>2021-11-13T13:27:01Z</time><name>PT6680</name></trkpt>
<trkpt lat="53.253722" lon="-1.978646"><ele>355</ele><time>2021-11-13T13:27:02Z</time><name>PT6681</name></trkpt>
<trkpt lat="53.253722" lon="-1.978641"><ele>355</ele><time>2021-11-13T13:27:03Z</time><name>PT6682</name></trkpt>
<trkpt lat="53.253722" lon="-1.978641"><ele>355</ele><time>2021-11-13T13:27:04Z</time><name>PT6683</name></trkpt>
<trkpt lat="53.253718" lon="-1.978644"><ele>355</ele><time>2021-11-13T13:27:05Z</time><name>PT6684</name></trkpt>
<trkpt lat="53.253720" lon="-1.978639"><ele>355</ele><time>2021-11-13T13:27:27Z</time><name>PT6685</name></trkpt>
<trkpt lat="53.253721" lon="-1.978638"><ele>355</ele><time>2021-11-13T13:27:28Z</time><name>PT6686</name></trkpt>
<trkpt lat="53.253723" lon="-1.978641"><ele>355</ele><time>2021-11-13T13:27:29Z</time><name>PT6687</name></trkpt>
<trkpt lat="53.253723" lon="-1.978642"><ele>354</ele><time>2021-11-13T13:27:30Z</time><name>PT6688</name></trkpt>
<trkpt lat="53.253721" lon="-1.978639"><ele>354</ele><time>2021-11-13T13:27:31Z</time><name>PT6689</name></trkpt>
<trkpt lat="53.253723" lon="-1.978634"><ele>353</ele><time>2021-11-13T13:27:44Z</time><name>PT6690</name></trkpt>
<trkpt lat="53.253722" lon="-1.978613"><ele>353</ele><time>2021-11-13T13:27:45Z</time><name>PT6691</name></trkpt>
<trkpt lat="53.253723" lon="-1.978590"><ele>353</ele><time>2021-11-13T13:27:46Z</time><name>PT6692</name></trkpt>
<trkpt lat="53.253721" lon="-1.978578"><ele>352</ele><time>2021-11-13T13:27:47Z</time><name>PT6693</name></trkpt>
<trkpt lat="53.253721" lon="-1.978565"><ele>352</ele><time>2021-11-13T13:27:48Z</time><name>PT6694</name></trkpt>
<trkpt lat="53.253719" lon="-1.978557"><ele>352</ele><time>2021-11-13T13:27:49Z</time><name>PT6695</name></trkpt>
<trkpt lat="53.253718" lon="-1.978557"><ele>351</ele><time>2021-11-13T13:27:50Z</time><name>PT6696</name></trkpt>
<trkpt lat="53.253715" lon="-1.978555"><ele>351</ele><time>2021-11-13T13:27:51Z</time><name>PT6697</name></trkpt>
<trkpt lat="53.253714" lon="-1.978545"><ele>351</ele><time>2021-11-13T13:27:52Z</time><name>PT6698</name></trkpt>
<trkpt lat="53.253715" lon="-1.978532"><ele>351</ele><time>2021-11-13T13:27:53Z</time><name>PT6699</name></trkpt>
<trkpt lat="53.253712" lon="-1.978519"><ele>350</ele><time>2021-11-13T13:27:54Z</time><name>PT6700</name></trkpt>
<trkpt lat="53.253709" lon="-1.978509"><ele>350</ele><time>2021-11-13T13:27:55Z</time><name>PT6701</name></trkpt>
<trkpt lat="53.253706" lon="-1.978506"><ele>350</ele><time>2021-11-13T13:27:56Z</time><name>PT6702</name></trkpt>
<trkpt lat="53.253700" lon="-1.978492"><ele>350</ele><time>2021-11-13T13:27:57Z</time><name>PT6703</name></trkpt>
<trkpt lat="53.253698" lon="-1.978480"><ele>350</ele><time>2021-11-13T13:27:58Z</time><name>PT6704</name></trkpt>
<trkpt lat="53.253694" lon="-1.978464"><ele>350</ele><time>2021-11-13T13:27:59Z</time><name>PT6705</name></trkpt>
<trkpt lat="53.253690" lon="-1.978452"><ele>349</ele><time>2021-11-13T13:28:00Z</time><name>PT6706</name></trkpt>
<trkpt lat="53.253683" lon="-1.978438"><ele>349</ele><time>2021-11-13T13:28:01Z</time><name>PT6707</name></trkpt>
<trkpt lat="53.253678" lon="-1.978426"><ele>348</ele><time>2021-11-13T13:28:02Z</time><name>PT6708</name></trkpt>
<trkpt lat="53.253675" lon="-1.978416"><ele>348</ele><time>2021-11-13T13:28:03Z</time><name>PT6709</name></trkpt>
<trkpt lat="53.253673" lon="-1.978406"><ele>348</ele><time>2021-11-13T13:28:04Z</time><name>PT6710</name></trkpt>
<trkpt lat="53.253673" lon="-1.978394"><ele>348</ele><time>2021-11-13T13:28:05Z</time><name>PT6711</name></trkpt>
<trkpt lat="53.253672" lon="-1.978380"><ele>347</ele><time>2021-11-13T13:28:06Z</time><name>PT6712</name></trkpt>
<trkpt lat="53.253669" lon="-1.978366"><ele>347</ele><time>2021-11-13T13:28:07Z</time><name>PT6713</name></trkpt>
<trkpt lat="53.253666" lon="-1.978352"><ele>346</ele><time>2021-11-13T13:28:08Z</time><name>PT6714</name></trkpt>
<trkpt lat="53.253664" lon="-1.978336"><ele>346</ele><time>2021-11-13T13:28:09Z</time><name>PT6715</name></trkpt>
<trkpt lat="53.253659" lon="-1.978322"><ele>346</ele><time>2021-11-13T13:28:10Z</time><name>PT6716</name></trkpt>
<trkpt lat="53.253648" lon="-1.978301"><ele>346</ele><time>2021-11-13T13:28:11Z</time><name>PT6717</name></trkpt>
<trkpt lat="53.253636" lon="-1.978272"><ele>346</ele><time>2021-11-13T13:28:12Z</time><name>PT6718</name></trkpt>
<trkpt lat="53.253628" lon="-1.978242"><ele>347</ele><time>2021-11-13T13:28:13Z</time><name>PT6719</name></trkpt>
<trkpt lat="53.253619" lon="-1.978222"><ele>347</ele><time>2021-11-13T13:28:14Z</time><name>PT6720</name></trkpt>
<trkpt lat="53.253614" lon="-1.978200"><ele>348</ele><time>2021-11-13T13:28:15Z</time><name>PT6721</name></trkpt>
<trkpt lat="53.253608" lon="-1.978183"><ele>348</ele><time>2021-11-13T13:28:16Z</time><name>PT6722</name></trkpt>
<trkpt lat="53.253603" lon="-1.978163"><ele>349</ele><time>2021-11-13T13:28:17Z</time><name>PT6723</name></trkpt>
<trkpt lat="53.253595" lon="-1.978145"><ele>349</ele><time>2021-11-13T13:28:18Z</time><name>PT6724</name></trkpt>
<trkpt lat="53.253586" lon="-1.978131"><ele>349</ele><time>2021-11-13T13:28:19Z</time><name>PT6725</name></trkpt>
<trkpt lat="53.253580" lon="-1.978120"><ele>349</ele><time>2021-11-13T13:28:20Z</time><name>PT6726</name></trkpt>
<trkpt lat="53.253577" lon="-1.978108"><ele>349</ele><time>2021-11-13T13:28:21Z</time><name>PT6727</name></trkpt>
<trkpt lat="53.253575" lon="-1.978095"><ele>349</ele><time>2021-11-13T13:28:22Z</time><name>PT6728</name></trkpt>
<trkpt lat="53.253572" lon="-1.978085"><ele>348</ele><time>2021-11-13T13:28:23Z</time><name>PT6729</name></trkpt>
<trkpt lat="53.253569" lon="-1.978074"><ele>348</ele><time>2021-11-13T13:28:24Z</time><name>PT6730</name></trkpt>
<trkpt lat="53.253564" lon="-1.978060"><ele>347</ele><time>2021-11-13T13:28:25Z</time><name>PT6731</name></trkpt>
<trkpt lat="53.253560" lon="-1.978045"><ele>347</ele><time>2021-11-13T13:28:26Z</time><name>PT6732</name></trkpt>
<trkpt lat="53.253556" lon="-1.978026"><ele>346</ele><time>2021-11-13T13:28:27Z</time><name>PT6733</name></trkpt>
<trkpt lat="53.253550" lon="-1.978015"><ele>346</ele><time>2021-11-13T13:28:28Z</time><name>PT6734</name></trkpt>
<trkpt lat="53.253544" lon="-1.978004"><ele>346</ele><time>2021-11-13T13:28:29Z</time><name>PT6735</name></trkpt>
<trkpt lat="53.253537" lon="-1.977987"><ele>346</ele><time>2021-11-13T13:28:30Z</time><name>PT6736</name></trkpt>
<trkpt lat="53.253531" lon="-1.977971"><ele>346</ele><time>2021-11-13T13:28:31Z</time><name>PT6737</name></trkpt>
<trkpt lat="53.253525" lon="-1.977960"><ele>345</ele><time>2021-11-13T13:28:32Z</time><name>PT6738</name></trkpt>
<trkpt lat="53.253521" lon="-1.977951"><ele>345</ele><time>2021-11-13T13:28:33Z</time><name>PT6739</name></trkpt>
<trkpt lat="53.253517" lon="-1.977941"><ele>345</ele><time>2021-11-13T13:28:34Z</time><name>PT6740</name></trkpt>
<trkpt lat="53.253513" lon="-1.977926"><ele>345</ele><time>2021-11-13T13:28:35Z</time><name>PT6741</name></trkpt>
<trkpt lat="53.253512" lon="-1.977912"><ele>344</ele><time>2021-11-13T13:28:36Z</time><name>PT6742</name></trkpt>
<trkpt lat="53.253511" lon="-1.977897"><ele>344</ele><time>2021-11-13T13:28:37Z</time><name>PT6743</name></trkpt>
<trkpt lat="53.253505" lon="-1.977878"><ele>344</ele><time>2021-11-13T13:28:38Z</time><name>PT6744</name></trkpt>
<trkpt lat="53.253498" lon="-1.977864"><ele>344</ele><time>2021-11-13T13:28:39Z</time><name>PT6745</name></trkpt>
<trkpt lat="53.253495" lon="-1.977854"><ele>344</ele><time>2021-11-13T13:28:40Z</time><name>PT6746</name></trkpt>
<trkpt lat="53.253494" lon="-1.977841"><ele>344</ele><time>2021-11-13T13:28:41Z</time><name>PT6747</name></trkpt>
<trkpt lat="53.253497" lon="-1.977828"><ele>344</ele><time>2021-11-13T13:28:42Z</time><name>PT6748</name></trkpt>
<trkpt lat="53.253500" lon="-1.977812"><ele>344</ele><time>2021-11-13T13:28:43Z</time><name>PT6749</name></trkpt>
<trkpt lat="53.253498" lon="-1.977800"><ele>344</ele><time>2021-11-13T13:28:44Z</time><name>PT6750</name></trkpt>
<trkpt lat="53.253499" lon="-1.977789"><ele>344</ele><time>2021-11-13T13:28:45Z</time><name>PT6751</name></trkpt>
<trkpt lat="53.253501" lon="-1.977774"><ele>344</ele><time>2021-11-13T13:28:46Z</time><name>PT6752</name></trkpt>
<trkpt lat="53.253500" lon="-1.977757"><ele>344</ele><time>2021-11-13T13:28:47Z</time><name>PT6753</name></trkpt>
<trkpt lat="53.253502" lon="-1.977743"><ele>344</ele><time>2021-11-13T13:28:48Z</time><name>PT6754</name></trkpt>
<trkpt lat="53.253503" lon="-1.977732"><ele>344</ele><time>2021-11-13T13:28:49Z</time><name>PT6755</name></trkpt>
<trkpt lat="53.253507" lon="-1.977721"><ele>344</ele><time>2021-11-13T13:28:50Z</time><name>PT6756</name></trkpt>
<trkpt lat="53.253512" lon="-1.977702"><ele>346</ele><time>2021-11-13T13:28:51Z</time><name>PT6757</name></trkpt>
<trkpt lat="53.253517" lon="-1.977693"><ele>346</ele><time>2021-11-13T13:28:52Z</time><name>PT6758</name></trkpt>
<trkpt lat="53.253523" lon="-1.977688"><ele>346</ele><time>2021-11-13T13:28:53Z</time><name>PT6759</name></trkpt>
<trkpt lat="53.253527" lon="-1.977674"><ele>347</ele><time>2021-11-13T13:28:54Z</time><name>PT6760</name></trkpt>
<trkpt lat="53.253530" lon="-1.977664"><ele>348</ele><time>2021-11-13T13:28:55Z</time><name>PT6761</name></trkpt>
<trkpt lat="53.253533" lon="-1.977655"><ele>348</ele><time>2021-11-13T13:28:56Z</time><name>PT6762</name></trkpt>
<trkpt lat="53.253533" lon="-1.977648"><ele>348</ele><time>2021-11-13T13:28:57Z</time><name>PT6763</name></trkpt>
<trkpt lat="53.253533" lon="-1.977643"><ele>348</ele><time>2021-11-13T13:28:58Z</time><name>PT6764</name></trkpt>
<trkpt lat="53.253533" lon="-1.977640"><ele>347</ele><time>2021-11-13T13:28:59Z</time><name>PT6765</name></trkpt>
<trkpt lat="53.253529" lon="-1.977624"><ele>348</ele><time>2021-11-13T13:29:17Z</time><name>PT6766</name></trkpt>
<trkpt lat="53.253521" lon="-1.977613"><ele>349</ele><time>2021-11-13T13:29:18Z</time><name>PT6767</name></trkpt>
<trkpt lat="53.253516" lon="-1.977600"><ele>349</ele><time>2021-11-13T13:29:19Z</time><name>PT6768</name></trkpt>
<trkpt lat="53.253513" lon="-1.977580"><ele>349</ele><time>2021-11-13T13:29:20Z</time><name>PT6769</name></trkpt>
<trkpt lat="53.253510" lon="-1.977558"><ele>349</ele><time>2021-11-13T13:29:21Z</time><name>PT6770</name></trkpt>
<trkpt lat="53.253505" lon="-1.977553"><ele>349</ele><time>2021-11-13T13:29:22Z</time><name>PT6771</name></trkpt>
<trkpt lat="53.253503" lon="-1.977548"><ele>349</ele><time>2021-11-13T13:29:23Z</time><name>PT6772</name></trkpt>
<trkpt lat="53.253500" lon="-1.977541"><ele>349</ele><time>2021-11-13T13:29:24Z</time><name>PT6773</name></trkpt>
<trkpt lat="53.253494" lon="-1.977527"><ele>348</ele><time>2021-11-13T13:29:25Z</time><name>PT6774</name></trkpt>
<trkpt lat="53.253485" lon="-1.977511"><ele>348</ele><time>2021-11-13T13:29:26Z</time><name>PT6775</name></trkpt>
<trkpt lat="53.253476" lon="-1.977503"><ele>348</ele><time>2021-11-13T13:29:27Z</time><name>PT6776</name></trkpt>
<trkpt lat="53.253468" lon="-1.977486"><ele>347</ele><time>2021-11-13T13:29:28Z</time><name>PT6777</name></trkpt>
<trkpt lat="53.253459" lon="-1.977480"><ele>347</ele><time>2021-11-13T13:29:29Z</time><name>PT6778</name></trkpt>
<trkpt lat="53.253450" lon="-1.977472"><ele>347</ele><time>2021-11-13T13:29:30Z</time><name>PT6779</name></trkpt>
<trkpt lat="53.253439" lon="-1.977460"><ele>347</ele><time>2021-11-13T13:29:31Z</time><name>PT6780</name></trkpt>
<trkpt lat="53.253435" lon="-1.977450"><ele>347</ele><time>2021-11-13T13:29:32Z</time><name>PT6781</name></trkpt>
<trkpt lat="53.253431" lon="-1.977442"><ele>347</ele><time>2021-11-13T13:29:33Z</time><name>PT6782</name></trkpt>
<trkpt lat="53.253427" lon="-1.977433"><ele>347</ele><time>2021-11-13T13:29:34Z</time><name>PT6783</name></trkpt>
<trkpt lat="53.253420" lon="-1.977427"><ele>347</ele><time>2021-11-13T13:29:35Z</time><name>PT6784</name></trkpt>
<trkpt lat="53.253414" lon="-1.977419"><ele>347</ele><time>2021-11-13T13:29:36Z</time><name>PT6785</name></trkpt>
<trkpt lat="53.253407" lon="-1.977413"><ele>347</ele><time>2021-11-13T13:29:37Z</time><name>PT6786</name></trkpt>
<trkpt lat="53.253400" lon="-1.977406"><ele>347</ele><time>2021-11-13T13:29:38Z</time><name>PT6787</name></trkpt>
<trkpt lat="53.253393" lon="-1.977396"><ele>348</ele><time>2021-11-13T13:29:39Z</time><name>PT6788</name></trkpt>
<trkpt lat="53.253386" lon="-1.977389"><ele>348</ele><time>2021-11-13T13:29:40Z</time><name>PT6789</name></trkpt>
<trkpt lat="53.253378" lon="-1.977383"><ele>348</ele><time>2021-11-13T13:29:41Z</time><name>PT6790</name></trkpt>
<trkpt lat="53.253372" lon="-1.977373"><ele>349</ele><time>2021-11-13T13:29:42Z</time><name>PT6791</name></trkpt>
<trkpt lat="53.253370" lon="-1.977364"><ele>348</ele><time>2021-11-13T13:29:43Z</time><name>PT6792</name></trkpt>
<trkpt lat="53.253366" lon="-1.977357"><ele>349</ele><time>2021-11-13T13:29:44Z</time><name>PT6793</name></trkpt>
<trkpt lat="53.253363" lon="-1.977350"><ele>349</ele><time>2021-11-13T13:29:45Z</time><name>PT6794</name></trkpt>
<trkpt lat="53.253356" lon="-1.977343"><ele>350</ele><time>2021-11-13T13:29:46Z</time><name>PT6795</name></trkpt>
<trkpt lat="53.253347" lon="-1.977339"><ele>349</ele><time>2021-11-13T13:29:47Z</time><name>PT6796</name></trkpt>
<trkpt lat="53.253337" lon="-1.977331"><ele>350</ele><time>2021-11-13T13:29:48Z</time><name>PT6797</name></trkpt>
<trkpt lat="53.253330" lon="-1.977325"><ele>350</ele><time>2021-11-13T13:29:49Z</time><name>PT6798</name></trkpt>
<trkpt lat="53.253325" lon="-1.977318"><ele>351</ele><time>2021-11-13T13:29:50Z</time><name>PT6799</name></trkpt>
<trkpt lat="53.253318" lon="-1.977306"><ele>351</ele><time>2021-11-13T13:29:51Z</time><name>PT6800</name></trkpt>
<trkpt lat="53.253313" lon="-1.977293"><ele>351</ele><time>2021-11-13T13:29:52Z</time><name>PT6801</name></trkpt>
<trkpt lat="53.253307" lon="-1.977287"><ele>351</ele><time>2021-11-13T13:29:53Z</time><name>PT6802</name></trkpt>
<trkpt lat="53.253309" lon="-1.977279"><ele>352</ele><time>2021-11-13T13:29:54Z</time><name>PT6803</name></trkpt>
<trkpt lat="53.253307" lon="-1.977274"><ele>351</ele><time>2021-11-13T13:29:55Z</time><name>PT6804</name></trkpt>
<trkpt lat="53.253305" lon="-1.977266"><ele>351</ele><time>2021-11-13T13:29:56Z</time><name>PT6805</name></trkpt>
<trkpt lat="53.253304" lon="-1.977253"><ele>351</ele><time>2021-11-13T13:29:57Z</time><name>PT6806</name></trkpt>
<trkpt lat="53.253302" lon="-1.977248"><ele>351</ele><time>2021-11-13T13:29:58Z</time><name>PT6807</name></trkpt>
<trkpt lat="53.253297" lon="-1.977245"><ele>351</ele><time>2021-11-13T13:29:59Z</time><name>PT6808</name></trkpt>
<trkpt lat="53.253294" lon="-1.977241"><ele>351</ele><time>2021-11-13T13:30:00Z</time><name>PT6809</name></trkpt>
<trkpt lat="53.253294" lon="-1.977240"><ele>351</ele><time>2021-11-13T13:30:01Z</time><name>PT6810</name></trkpt>
<trkpt lat="53.253293" lon="-1.977241"><ele>351</ele><time>2021-11-13T13:30:02Z</time><name>PT6811</name></trkpt>
<trkpt lat="53.253293" lon="-1.977242"><ele>351</ele><time>2021-11-13T13:30:04Z</time><name>PT6812</name></trkpt>
<trkpt lat="53.253291" lon="-1.977238"><ele>351</ele><time>2021-11-13T13:30:05Z</time><name>PT6813</name></trkpt>
<trkpt lat="53.253292" lon="-1.977224"><ele>351</ele><time>2021-11-13T13:30:06Z</time><name>PT6814</name></trkpt>
<trkpt lat="53.253297" lon="-1.977212"><ele>351</ele><time>2021-11-13T13:30:07Z</time><name>PT6815</name></trkpt>
<trkpt lat="53.253292" lon="-1.977200"><ele>352</ele><time>2021-11-13T13:30:08Z</time><name>PT6816</name></trkpt>
<trkpt lat="53.253290" lon="-1.977187"><ele>353</ele><time>2021-11-13T13:30:09Z</time><name>PT6817</name></trkpt>
<trkpt lat="53.253285" lon="-1.977180"><ele>352</ele><time>2021-11-13T13:30:10Z</time><name>PT6818</name></trkpt>
<trkpt lat="53.253282" lon="-1.977176"><ele>352</ele><time>2021-11-13T13:30:11Z</time><name>PT6819</name></trkpt>
<trkpt lat="53.253281" lon="-1.977173"><ele>352</ele><time>2021-11-13T13:30:12Z</time><name>PT6820</name></trkpt>
<trkpt lat="53.253279" lon="-1.977171"><ele>352</ele><time>2021-11-13T13:30:15Z</time><name>PT6821</name></trkpt>
<trkpt lat="53.253274" lon="-1.977145"><ele>352</ele><time>2021-11-13T13:30:23Z</time><name>PT6822</name></trkpt>
<trkpt lat="53.253254" lon="-1.977099"><ele>353</ele><time>2021-11-13T13:30:27Z</time><name>PT6823</name></trkpt>
<trkpt lat="53.253240" lon="-1.977042"><ele>353</ele><time>2021-11-13T13:30:31Z</time><name>PT6824</name></trkpt>
<trkpt lat="53.253229" lon="-1.976984"><ele>355</ele><time>2021-11-13T13:30:35Z</time><name>PT6825</name></trkpt>
<trkpt lat="53.253218" lon="-1.976920"><ele>355</ele><time>2021-11-13T13:30:39Z</time><name>PT6826</name></trkpt>
<trkpt lat="53.253216" lon="-1.976865"><ele>355</ele><time>2021-11-13T13:30:43Z</time><name>PT6827</name></trkpt>
<trkpt lat="53.253204" lon="-1.976807"><ele>356</ele><time>2021-11-13T13:30:47Z</time><name>PT6828</name></trkpt>
<trkpt lat="53.253193" lon="-1.976759"><ele>356</ele><time>2021-11-13T13:30:51Z</time><name>PT6829</name></trkpt>
<trkpt lat="53.253192" lon="-1.976721"><ele>357</ele><time>2021-11-13T13:30:55Z</time><name>PT6830</name></trkpt>
<trkpt lat="53.253189" lon="-1.976668"><ele>356</ele><time>2021-11-13T13:30:59Z</time><name>PT6831</name></trkpt>
<trkpt lat="53.253188" lon="-1.976651"><ele>356</ele><time>2021-11-13T13:31:03Z</time><name>PT6832</name></trkpt>
<trkpt lat="53.253187" lon="-1.976643"><ele>356</ele><time>2021-11-13T13:31:07Z</time><name>PT6833</name></trkpt>
<trkpt lat="53.253190" lon="-1.976565"><ele>358</ele><time>2021-11-13T13:31:11Z</time><name>PT6834</name></trkpt>
<trkpt lat="53.253176" lon="-1.976520"><ele>356</ele><time>2021-11-13T13:31:15Z</time><name>PT6835</name></trkpt>
<trkpt lat="53.253169" lon="-1.976468"><ele>356</ele><time>2021-11-13T13:31:19Z</time><name>PT6836</name></trkpt>
<trkpt lat="53.253164" lon="-1.976413"><ele>356</ele><time>2021-11-13T13:31:23Z</time><name>PT6837</name></trkpt>
<trkpt lat="53.253152" lon="-1.976370"><ele>356</ele><time>2021-11-13T13:31:26Z</time><name>PT6838</name></trkpt>
<trkpt lat="53.253142" lon="-1.976308"><ele>356</ele><time>2021-11-13T13:31:30Z</time><name>PT6839</name></trkpt>
<trkpt lat="53.253140" lon="-1.976246"><ele>358</ele><time>2021-11-13T13:31:34Z</time><name>PT6840</name></trkpt>
<trkpt lat="53.253122" lon="-1.976183"><ele>357</ele><time>2021-11-13T13:31:38Z</time><name>PT6841</name></trkpt>
<trkpt lat="53.253106" lon="-1.976117"><ele>356</ele><time>2021-11-13T13:31:42Z</time><name>PT6842</name></trkpt>
<trkpt lat="53.253090" lon="-1.976051"><ele>358</ele><time>2021-11-13T13:31:46Z</time><name>PT6843</name></trkpt>
<trkpt lat="53.253069" lon="-1.975992"><ele>357</ele><time>2021-11-13T13:31:50Z</time><name>PT6844</name></trkpt>
<trkpt lat="53.253063" lon="-1.975942"><ele>359</ele><time>2021-11-13T13:31:54Z</time><name>PT6845</name></trkpt>
<trkpt lat="53.253061" lon="-1.975880"><ele>359</ele><time>2021-11-13T13:31:58Z</time><name>PT6846</name></trkpt>
<trkpt lat="53.253045" lon="-1.975828"><ele>358</ele><time>2021-11-13T13:32:02Z</time><name>PT6847</name></trkpt>
<trkpt lat="53.253044" lon="-1.975821"><ele>359</ele><time>2021-11-13T13:32:06Z</time><name>PT6848</name></trkpt>
<trkpt lat="53.253026" lon="-1.975749"><ele>361</ele><time>2021-11-13T13:32:22Z</time><name>PT6849</name></trkpt>
<trkpt lat="53.253010" lon="-1.975688"><ele>359</ele><time>2021-11-13T13:32:26Z</time><name>PT6850</name></trkpt>
<trkpt lat="53.252998" lon="-1.975622"><ele>360</ele><time>2021-11-13T13:32:30Z</time><name>PT6851</name></trkpt>
<trkpt lat="53.253011" lon="-1.975560"><ele>361</ele><time>2021-11-13T13:32:34Z</time><name>PT6852</name></trkpt>
<trkpt lat="53.253021" lon="-1.975496"><ele>360</ele><time>2021-11-13T13:32:38Z</time><name>PT6853</name></trkpt>
<trkpt lat="53.253007" lon="-1.975420"><ele>361</ele><time>2021-11-13T13:32:42Z</time><name>PT6854</name></trkpt>
<trkpt lat="53.252993" lon="-1.975360"><ele>362</ele><time>2021-11-13T13:32:46Z</time><name>PT6855</name></trkpt>
<trkpt lat="53.252998" lon="-1.975295"><ele>362</ele><time>2021-11-13T13:32:50Z</time><name>PT6856</name></trkpt>
<trkpt lat="53.253003" lon="-1.975236"><ele>362</ele><time>2021-11-13T13:32:54Z</time><name>PT6857</name></trkpt>
<trkpt lat="53.253006" lon="-1.975166"><ele>362</ele><time>2021-11-13T13:32:58Z</time><name>PT6858</name></trkpt>
<trkpt lat="53.253008" lon="-1.975099"><ele>364</ele><time>2021-11-13T13:33:02Z</time><name>PT6859</name></trkpt>
<trkpt lat="53.253003" lon="-1.975044"><ele>364</ele><time>2021-11-13T13:33:06Z</time><name>PT6860</name></trkpt>
<trkpt lat="53.252988" lon="-1.974981"><ele>364</ele><time>2021-11-13T13:33:10Z</time><name>PT6861</name></trkpt>
<trkpt lat="53.252992" lon="-1.974923"><ele>364</ele><time>2021-11-13T13:33:14Z</time><name>PT6862</name></trkpt>
<trkpt lat="53.252997" lon="-1.974877"><ele>364</ele><time>2021-11-13T13:33:18Z</time><name>PT6863</name></trkpt>
<trkpt lat="53.252992" lon="-1.974870"><ele>364</ele><time>2021-11-13T13:33:22Z</time><name>PT6864</name></trkpt>
<trkpt lat="53.252992" lon="-1.974857"><ele>364</ele><time>2021-11-13T13:33:26Z</time><name>PT6865</name></trkpt>
<trkpt lat="53.252975" lon="-1.974775"><ele>365</ele><time>2021-11-13T13:33:34Z</time><name>PT6866</name></trkpt>
<trkpt lat="53.252952" lon="-1.974700"><ele>364</ele><time>2021-11-13T13:33:38Z</time><name>PT6867</name></trkpt>
<trkpt lat="53.252927" lon="-1.974617"><ele>364</ele><time>2021-11-13T13:33:42Z</time><name>PT6868</name></trkpt>
<trkpt lat="53.252909" lon="-1.974542"><ele>363</ele><time>2021-11-13T13:33:46Z</time><name>PT6869</name></trkpt>
<trkpt lat="53.252893" lon="-1.974464"><ele>364</ele><time>2021-11-13T13:33:50Z</time><name>PT6870</name></trkpt>
<trkpt lat="53.252876" lon="-1.974398"><ele>365</ele><time>2021-11-13T13:33:54Z</time><name>PT6871</name></trkpt>
<trkpt lat="53.252858" lon="-1.974333"><ele>364</ele><time>2021-11-13T13:33:58Z</time><name>PT6872</name></trkpt>
<trkpt lat="53.252849" lon="-1.974255"><ele>366</ele><time>2021-11-13T13:34:02Z</time><name>PT6873</name></trkpt>
<trkpt lat="53.252831" lon="-1.974179"><ele>366</ele><time>2021-11-13T13:34:06Z</time><name>PT6874</name></trkpt>
<trkpt lat="53.252819" lon="-1.974110"><ele>367</ele><time>2021-11-13T13:34:10Z</time><name>PT6875</name></trkpt>
<trkpt lat="53.252802" lon="-1.974034"><ele>367</ele><time>2021-11-13T13:34:14Z</time><name>PT6876</name></trkpt>
<trkpt lat="53.252781" lon="-1.973977"><ele>368</ele><time>2021-11-13T13:34:18Z</time><name>PT6877</name></trkpt>
<trkpt lat="53.252767" lon="-1.973923"><ele>367</ele><time>2021-11-13T13:34:21Z</time><name>PT6878</name></trkpt>
<trkpt lat="53.252756" lon="-1.973865"><ele>368</ele><time>2021-11-13T13:34:25Z</time><name>PT6879</name></trkpt>
<trkpt lat="53.252744" lon="-1.973812"><ele>368</ele><time>2021-11-13T13:34:29Z</time><name>PT6880</name></trkpt>
<trkpt lat="53.252736" lon="-1.973751"><ele>369</ele><time>2021-11-13T13:34:33Z</time><name>PT6881</name></trkpt>
<trkpt lat="53.252732" lon="-1.973705"><ele>371</ele><time>2021-11-13T13:34:37Z</time><name>PT6882</name></trkpt>
<trkpt lat="53.252732" lon="-1.973651"><ele>372</ele><time>2021-11-13T13:34:41Z</time><name>PT6883</name></trkpt>
<trkpt lat="53.252728" lon="-1.973591"><ele>372</ele><time>2021-11-13T13:34:45Z</time><name>PT6884</name></trkpt>
<trkpt lat="53.252725" lon="-1.973521"><ele>373</ele><time>2021-11-13T13:34:49Z</time><name>PT6885</name></trkpt>
<trkpt lat="53.252728" lon="-1.973456"><ele>372</ele><time>2021-11-13T13:34:53Z</time><name>PT6886</name></trkpt>
<trkpt lat="53.252732" lon="-1.973407"><ele>371</ele><time>2021-11-13T13:34:57Z</time><name>PT6887</name></trkpt>
<trkpt lat="53.252732" lon="-1.973335"><ele>371</ele><time>2021-11-13T13:35:01Z</time><name>PT6888</name></trkpt>
<trkpt lat="53.252727" lon="-1.973273"><ele>372</ele><time>2021-11-13T13:35:05Z</time><name>PT6889</name></trkpt>
<trkpt lat="53.252735" lon="-1.973221"><ele>371</ele><time>2021-11-13T13:35:09Z</time><name>PT6890</name></trkpt>
<trkpt lat="53.252732" lon="-1.973175"><ele>373</ele><time>2021-11-13T13:35:13Z</time><name>PT6891</name></trkpt>
<trkpt lat="53.252731" lon="-1.973136"><ele>373</ele><time>2021-11-13T13:35:17Z</time><name>PT6892</name></trkpt>
<trkpt lat="53.252727" lon="-1.973084"><ele>374</ele><time>2021-11-13T13:35:21Z</time><name>PT6893</name></trkpt>
<trkpt lat="53.252717" lon="-1.973022"><ele>374</ele><time>2021-11-13T13:35:25Z</time><name>PT6894</name></trkpt>
<trkpt lat="53.252725" lon="-1.972945"><ele>373</ele><time>2021-11-13T13:35:29Z</time><name>PT6895</name></trkpt>
<trkpt lat="53.252734" lon="-1.972870"><ele>375</ele><time>2021-11-13T13:35:33Z</time><name>PT6896</name></trkpt>
<trkpt lat="53.252729" lon="-1.972851"><ele>375</ele><time>2021-11-13T13:35:37Z</time><name>PT6897</name></trkpt>
<trkpt lat="53.252741" lon="-1.972825"><ele>376</ele><time>2021-11-13T13:35:41Z</time><name>PT6898</name></trkpt>
<trkpt lat="53.252751" lon="-1.972793"><ele>376</ele><time>2021-11-13T13:35:45Z</time><name>PT6899</name></trkpt>
<trkpt lat="53.252757" lon="-1.972759"><ele>376</ele><time>2021-11-13T13:35:49Z</time><name>PT6900</name></trkpt>
<trkpt lat="53.252754" lon="-1.972717"><ele>377</ele><time>2021-11-13T13:35:53Z</time><name>PT6901</name></trkpt>
<trkpt lat="53.252764" lon="-1.972668"><ele>378</ele><time>2021-11-13T13:35:57Z</time><name>PT6902</name></trkpt>
<trkpt lat="53.252758" lon="-1.972629"><ele>378</ele><time>2021-11-13T13:36:01Z</time><name>PT6903</name></trkpt>
<trkpt lat="53.252759" lon="-1.972569"><ele>378</ele><time>2021-11-13T13:36:05Z</time><name>PT6904</name></trkpt>
<trkpt lat="53.252735" lon="-1.972507"><ele>378</ele><time>2021-11-13T13:36:09Z</time><name>PT6905</name></trkpt>
<trkpt lat="53.252737" lon="-1.972447"><ele>379</ele><time>2021-11-13T13:36:13Z</time><name>PT6906</name></trkpt>
<trkpt lat="53.252743" lon="-1.972389"><ele>379</ele><time>2021-11-13T13:36:17Z</time><name>PT6907</name></trkpt>
<trkpt lat="53.252739" lon="-1.972332"><ele>378</ele><time>2021-11-13T13:36:21Z</time><name>PT6908</name></trkpt>
<trkpt lat="53.252716" lon="-1.972267"><ele>378</ele><time>2021-11-13T13:36:25Z</time><name>PT6909</name></trkpt>
<trkpt lat="53.252710" lon="-1.972217"><ele>377</ele><time>2021-11-13T13:36:29Z</time><name>PT6910</name></trkpt>
<trkpt lat="53.252707" lon="-1.972167"><ele>377</ele><time>2021-11-13T13:36:33Z</time><name>PT6911</name></trkpt>
<trkpt lat="53.252706" lon="-1.972128"><ele>379</ele><time>2021-11-13T13:36:36Z</time><name>PT6912</name></trkpt>
<trkpt lat="53.252704" lon="-1.972071"><ele>379</ele><time>2021-11-13T13:36:40Z</time><name>PT6913</name></trkpt>
<trkpt lat="53.252703" lon="-1.971999"><ele>380</ele><time>2021-11-13T13:36:44Z</time><name>PT6914</name></trkpt>
<trkpt lat="53.252711" lon="-1.971942"><ele>381</ele><time>2021-11-13T13:36:48Z</time><name>PT6915</name></trkpt>
<trkpt lat="53.252707" lon="-1.971884"><ele>381</ele><time>2021-11-13T13:36:52Z</time><name>PT6916</name></trkpt>
<trkpt lat="53.252705" lon="-1.971822"><ele>381</ele><time>2021-11-13T13:36:56Z</time><name>PT6917</name></trkpt>
<trkpt lat="53.252703" lon="-1.971758"><ele>383</ele><time>2021-11-13T13:37:00Z</time><name>PT6918</name></trkpt>
<trkpt lat="53.252700" lon="-1.971702"><ele>383</ele><time>2021-11-13T13:37:04Z</time><name>PT6919</name></trkpt>
<trkpt lat="53.252699" lon="-1.971639"><ele>382</ele><time>2021-11-13T13:37:08Z</time><name>PT6920</name></trkpt>
<trkpt lat="53.252687" lon="-1.971584"><ele>383</ele><time>2021-11-13T13:37:12Z</time><name>PT6921</name></trkpt>
<trkpt lat="53.252685" lon="-1.971527"><ele>383</ele><time>2021-11-13T13:37:16Z</time><name>PT6922</name></trkpt>
<trkpt lat="53.252680" lon="-1.971471"><ele>385</ele><time>2021-11-13T13:37:20Z</time><name>PT6923</name></trkpt>
<trkpt lat="53.252678" lon="-1.971424"><ele>386</ele><time>2021-11-13T13:37:24Z</time><name>PT6924</name></trkpt>
<trkpt lat="53.252682" lon="-1.971382"><ele>387</ele><time>2021-11-13T13:37:28Z</time><name>PT6925</name></trkpt>
<trkpt lat="53.252684" lon="-1.971325"><ele>386</ele><time>2021-11-13T13:37:32Z</time><name>PT6926</name></trkpt>
<trkpt lat="53.252679" lon="-1.971255"><ele>386</ele><time>2021-11-13T13:37:36Z</time><name>PT6927</name></trkpt>
<trkpt lat="53.252674" lon="-1.971200"><ele>386</ele><time>2021-11-13T13:37:40Z</time><name>PT6928</name></trkpt>
<trkpt lat="53.252671" lon="-1.971150"><ele>388</ele><time>2021-11-13T13:37:44Z</time><name>PT6929</name></trkpt>
<trkpt lat="53.252670" lon="-1.971103"><ele>388</ele><time>2021-11-13T13:37:48Z</time><name>PT6930</name></trkpt>
<trkpt lat="53.252675" lon="-1.971049"><ele>388</ele><time>2021-11-13T13:37:52Z</time><name>PT6931</name></trkpt>
<trkpt lat="53.252678" lon="-1.971012"><ele>389</ele><time>2021-11-13T13:37:55Z</time><name>PT6932</name></trkpt>
<trkpt lat="53.252676" lon="-1.970978"><ele>390</ele><time>2021-11-13T13:37:58Z</time><name>PT6933</name></trkpt>
<trkpt lat="53.252680" lon="-1.970925"><ele>390</ele><time>2021-11-13T13:38:02Z</time><name>PT6934</name></trkpt>
<trkpt lat="53.252681" lon="-1.970880"><ele>389</ele><time>2021-11-13T13:38:06Z</time><name>PT6935</name></trkpt>
<trkpt lat="53.252677" lon="-1.970829"><ele>390</ele><time>2021-11-13T13:38:09Z</time><name>PT6936</name></trkpt>
<trkpt lat="53.252668" lon="-1.970773"><ele>392</ele><time>2021-11-13T13:38:13Z</time><name>PT6937</name></trkpt>
<trkpt lat="53.252660" lon="-1.970713"><ele>391</ele><time>2021-11-13T13:38:17Z</time><name>PT6938</name></trkpt>
<trkpt lat="53.252645" lon="-1.970678"><ele>392</ele><time>2021-11-13T13:38:21Z</time><name>PT6939</name></trkpt>
<trkpt lat="53.252619" lon="-1.970645"><ele>390</ele><time>2021-11-13T13:38:25Z</time><name>PT6940</name></trkpt>
<trkpt lat="53.252613" lon="-1.970607"><ele>391</ele><time>2021-11-13T13:38:29Z</time><name>PT6941</name></trkpt>
<trkpt lat="53.252600" lon="-1.970548"><ele>391</ele><time>2021-11-13T13:38:33Z</time><name>PT6942</name></trkpt>
<trkpt lat="53.252586" lon="-1.970496"><ele>392</ele><time>2021-11-13T13:38:37Z</time><name>PT6943</name></trkpt>
<trkpt lat="53.252573" lon="-1.970441"><ele>392</ele><time>2021-11-13T13:38:41Z</time><name>PT6944</name></trkpt>
<trkpt lat="53.252559" lon="-1.970385"><ele>392</ele><time>2021-11-13T13:38:45Z</time><name>PT6945</name></trkpt>
<trkpt lat="53.252558" lon="-1.970322"><ele>392</ele><time>2021-11-13T13:38:48Z</time><name>PT6946</name></trkpt>
<trkpt lat="53.252538" lon="-1.970272"><ele>392</ele><time>2021-11-13T13:38:52Z</time><name>PT6947</name></trkpt>
<trkpt lat="53.252528" lon="-1.970216"><ele>394</ele><time>2021-11-13T13:38:56Z</time><name>PT6948</name></trkpt>
<trkpt lat="53.252522" lon="-1.970189"><ele>396</ele><time>2021-11-13T13:39:00Z</time><name>PT6949</name></trkpt>
<trkpt lat="53.252508" lon="-1.970141"><ele>396</ele><time>2021-11-13T13:39:04Z</time><name>PT6950</name></trkpt>
<trkpt lat="53.252498" lon="-1.970103"><ele>396</ele><time>2021-11-13T13:39:08Z</time><name>PT6951</name></trkpt>
<trkpt lat="53.252484" lon="-1.970046"><ele>396</ele><time>2021-11-13T13:39:12Z</time><name>PT6952</name></trkpt>
<trkpt lat="53.252468" lon="-1.969989"><ele>396</ele><time>2021-11-13T13:39:16Z</time><name>PT6953</name></trkpt>
<trkpt lat="53.252459" lon="-1.969937"><ele>397</ele><time>2021-11-13T13:39:20Z</time><name>PT6954</name></trkpt>
<trkpt lat="53.252444" lon="-1.969908"><ele>397</ele><time>2021-11-13T13:39:24Z</time><name>PT6955</name></trkpt>
<trkpt lat="53.252438" lon="-1.969882"><ele>396</ele><time>2021-11-13T13:39:28Z</time><name>PT6956</name></trkpt>
<trkpt lat="53.252430" lon="-1.969845"><ele>398</ele><time>2021-11-13T13:39:32Z</time><name>PT6957</name></trkpt>
<trkpt lat="53.252426" lon="-1.969787"><ele>398</ele><time>2021-11-13T13:39:36Z</time><name>PT6958</name></trkpt>
<trkpt lat="53.252417" lon="-1.969750"><ele>399</ele><time>2021-11-13T13:39:40Z</time><name>PT6959</name></trkpt>
<trkpt lat="53.252399" lon="-1.969722"><ele>400</ele><time>2021-11-13T13:39:43Z</time><name>PT6960</name></trkpt>
<trkpt lat="53.252392" lon="-1.969684"><ele>401</ele><time>2021-11-13T13:39:47Z</time><name>PT6961</name></trkpt>
<trkpt lat="53.252383" lon="-1.969624"><ele>402</ele><time>2021-11-13T13:39:51Z</time><name>PT6962</name></trkpt>
<trkpt lat="53.252374" lon="-1.969578"><ele>403</ele><time>2021-11-13T13:39:55Z</time><name>PT6963</name></trkpt>
<trkpt lat="53.252369" lon="-1.969548"><ele>403</ele><time>2021-11-13T13:39:58Z</time><name>PT6964</name></trkpt>
<trkpt lat="53.252352" lon="-1.969517"><ele>404</ele><time>2021-11-13T13:40:02Z</time><name>PT6965</name></trkpt>
<trkpt lat="53.252338" lon="-1.969463"><ele>405</ele><time>2021-11-13T13:40:06Z</time><name>PT6966</name></trkpt>
<trkpt lat="53.252323" lon="-1.969417"><ele>405</ele><time>2021-11-13T13:40:10Z</time><name>PT6967</name></trkpt>
<trkpt lat="53.252308" lon="-1.969358"><ele>404</ele><time>2021-11-13T13:40:14Z</time><name>PT6968</name></trkpt>
<trkpt lat="53.252288" lon="-1.969309"><ele>404</ele><time>2021-11-13T13:40:18Z</time><name>PT6969</name></trkpt>
<trkpt lat="53.252286" lon="-1.969298"><ele>404</ele><time>2021-11-13T13:40:19Z</time><name>PT6970</name></trkpt>
<trkpt lat="53.252282" lon="-1.969285"><ele>405</ele><time>2021-11-13T13:40:20Z</time><name>PT6971</name></trkpt>
<trkpt lat="53.252279" lon="-1.969271"><ele>404</ele><time>2021-11-13T13:40:21Z</time><name>PT6972</name></trkpt>
<trkpt lat="53.252277" lon="-1.969258"><ele>404</ele><time>2021-11-13T13:40:22Z</time><name>PT6973</name></trkpt>
<trkpt lat="53.252278" lon="-1.969245"><ele>404</ele><time>2021-11-13T13:40:23Z</time><name>PT6974</name></trkpt>
<trkpt lat="53.252276" lon="-1.969231"><ele>404</ele><time>2021-11-13T13:40:24Z</time><name>PT6975</name></trkpt>
<trkpt lat="53.252277" lon="-1.969222"><ele>404</ele><time>2021-11-13T13:40:25Z</time><name>PT6976</name></trkpt>
<trkpt lat="53.252278" lon="-1.969212"><ele>404</ele><time>2021-11-13T13:40:26Z</time><name>PT6977</name></trkpt>
<trkpt lat="53.252278" lon="-1.969202"><ele>405</ele><time>2021-11-13T13:40:27Z</time><name>PT6978</name></trkpt>
<trkpt lat="53.252275" lon="-1.969190"><ele>405</ele><time>2021-11-13T13:40:28Z</time><name>PT6979</name></trkpt>
<trkpt lat="53.252272" lon="-1.969177"><ele>406</ele><time>2021-11-13T13:40:29Z</time><name>PT6980</name></trkpt>
<trkpt lat="53.252273" lon="-1.969163"><ele>406</ele><time>2021-11-13T13:40:30Z</time><name>PT6981</name></trkpt>
<trkpt lat="53.252270" lon="-1.969145"><ele>407</ele><time>2021-11-13T13:40:31Z</time><name>PT6982</name></trkpt>
<trkpt lat="53.252265" lon="-1.969130"><ele>407</ele><time>2021-11-13T13:40:32Z</time><name>PT6983</name></trkpt>
<trkpt lat="53.252262" lon="-1.969117"><ele>407</ele><time>2021-11-13T13:40:33Z</time><name>PT6984</name></trkpt>
<trkpt lat="53.252258" lon="-1.969107"><ele>408</ele><time>2021-11-13T13:40:34Z</time><name>PT6985</name></trkpt>
<trkpt lat="53.252253" lon="-1.969093"><ele>408</ele><time>2021-11-13T13:40:35Z</time><name>PT6986</name></trkpt>
<trkpt lat="53.252249" lon="-1.969080"><ele>407</ele><time>2021-11-13T13:40:36Z</time><name>PT6987</name></trkpt>
<trkpt lat="53.252247" lon="-1.969065"><ele>407</ele><time>2021-11-13T13:40:37Z</time><name>PT6988</name></trkpt>
<trkpt lat="53.252244" lon="-1.969051"><ele>407</ele><time>2021-11-13T13:40:38Z</time><name>PT6989</name></trkpt>
<trkpt lat="53.252242" lon="-1.969043"><ele>407</ele><time>2021-11-13T13:40:39Z</time><name>PT6990</name></trkpt>
<trkpt lat="53.252236" lon="-1.969034"><ele>408</ele><time>2021-11-13T13:40:40Z</time><name>PT6991</name></trkpt>
<trkpt lat="53.252229" lon="-1.969021"><ele>408</ele><time>2021-11-13T13:40:41Z</time><name>PT6992</name></trkpt>
<trkpt lat="53.252224" lon="-1.969013"><ele>408</ele><time>2021-11-13T13:40:42Z</time><name>PT6993</name></trkpt>
<trkpt lat="53.252219" lon="-1.969003"><ele>408</ele><time>2021-11-13T13:40:43Z</time><name>PT6994</name></trkpt>
<trkpt lat="53.252220" lon="-1.968991"><ele>408</ele><time>2021-11-13T13:40:44Z</time><name>PT6995</name></trkpt>
<trkpt lat="53.252220" lon="-1.968984"><ele>408</ele><time>2021-11-13T13:40:45Z</time><name>PT6996</name></trkpt>
<trkpt lat="53.252216" lon="-1.968978"><ele>407</ele><time>2021-11-13T13:40:46Z</time><name>PT6997</name></trkpt>
<trkpt lat="53.252211" lon="-1.968972"><ele>407</ele><time>2021-11-13T13:40:47Z</time><name>PT6998</name></trkpt>
<trkpt lat="53.252207" lon="-1.968968"><ele>407</ele><time>2021-11-13T13:40:48Z</time><name>PT6999</name></trkpt>
<trkpt lat="53.252205" lon="-1.968963"><ele>406</ele><time>2021-11-13T13:40:49Z</time><name>PT7000</name></trkpt>
<trkpt lat="53.252200" lon="-1.968954"><ele>406</ele><time>2021-11-13T13:40:50Z</time><name>PT7001</name></trkpt>
<trkpt lat="53.252196" lon="-1.968942"><ele>407</ele><time>2021-11-13T13:40:51Z</time><name>PT7002</name></trkpt>
<trkpt lat="53.252191" lon="-1.968929"><ele>408</ele><time>2021-11-13T13:40:52Z</time><name>PT7003</name></trkpt>
<trkpt lat="53.252194" lon="-1.968918"><ele>407</ele><time>2021-11-13T13:40:53Z</time><name>PT7004</name></trkpt>
<trkpt lat="53.252194" lon="-1.968905"><ele>407</ele><time>2021-11-13T13:40:54Z</time><name>PT7005</name></trkpt>
<trkpt lat="53.252198" lon="-1.968894"><ele>408</ele><time>2021-11-13T13:40:55Z</time><name>PT7006</name></trkpt>
<trkpt lat="53.252197" lon="-1.968875"><ele>408</ele><time>2021-11-13T13:40:56Z</time><name>PT7007</name></trkpt>
<trkpt lat="53.252201" lon="-1.968858"><ele>409</ele><time>2021-11-13T13:40:57Z</time><name>PT7008</name></trkpt>
<trkpt lat="53.252203" lon="-1.968843"><ele>409</ele><time>2021-11-13T13:40:58Z</time><name>PT7009</name></trkpt>
<trkpt lat="53.252207" lon="-1.968833"><ele>409</ele><time>2021-11-13T13:40:59Z</time><name>PT7010</name></trkpt>
<trkpt lat="53.252213" lon="-1.968818"><ele>409</ele><time>2021-11-13T13:41:00Z</time><name>PT7011</name></trkpt>
<trkpt lat="53.252218" lon="-1.968804"><ele>409</ele><time>2021-11-13T13:41:01Z</time><name>PT7012</name></trkpt>
<trkpt lat="53.252221" lon="-1.968789"><ele>409</ele><time>2021-11-13T13:41:02Z</time><name>PT7013</name></trkpt>
<trkpt lat="53.252223" lon="-1.968780"><ele>409</ele><time>2021-11-13T13:41:03Z</time><name>PT7014</name></trkpt>
<trkpt lat="53.252227" lon="-1.968771"><ele>409</ele><time>2021-11-13T13:41:04Z</time><name>PT7015</name></trkpt>
<trkpt lat="53.252230" lon="-1.968767"><ele>410</ele><time>2021-11-13T13:41:05Z</time><name>PT7016</name></trkpt>
<trkpt lat="53.252234" lon="-1.968761"><ele>410</ele><time>2021-11-13T13:41:06Z</time><name>PT7017</name></trkpt>
<trkpt lat="53.252237" lon="-1.968753"><ele>410</ele><time>2021-11-13T13:41:07Z</time><name>PT7018</name></trkpt>
<trkpt lat="53.252242" lon="-1.968745"><ele>410</ele><time>2021-11-13T13:41:08Z</time><name>PT7019</name></trkpt>
<trkpt lat="53.252247" lon="-1.968733"><ele>411</ele><time>2021-11-13T13:41:09Z</time><name>PT7020</name></trkpt>
<trkpt lat="53.252248" lon="-1.968718"><ele>411</ele><time>2021-11-13T13:41:10Z</time><name>PT7021</name></trkpt>
<trkpt lat="53.252251" lon="-1.968703"><ele>411</ele><time>2021-11-13T13:41:11Z</time><name>PT7022</name></trkpt>
<trkpt lat="53.252255" lon="-1.968689"><ele>411</ele><time>2021-11-13T13:41:12Z</time><name>PT7023</name></trkpt>
<trkpt lat="53.252255" lon="-1.968675"><ele>412</ele><time>2021-11-13T13:41:13Z</time><name>PT7024</name></trkpt>
<trkpt lat="53.252254" lon="-1.968663"><ele>412</ele><time>2021-11-13T13:41:14Z</time><name>PT7025</name></trkpt>
<trkpt lat="53.252249" lon="-1.968657"><ele>411</ele><time>2021-11-13T13:41:15Z</time><name>PT7026</name></trkpt>
<trkpt lat="53.252246" lon="-1.968648"><ele>412</ele><time>2021-11-13T13:41:16Z</time><name>PT7027</name></trkpt>
<trkpt lat="53.252243" lon="-1.968636"><ele>412</ele><time>2021-11-13T13:41:17Z</time><name>PT7028</name></trkpt>
<trkpt lat="53.252239" lon="-1.968624"><ele>412</ele><time>2021-11-13T13:41:18Z</time><name>PT7029</name></trkpt>
<trkpt lat="53.252235" lon="-1.968614"><ele>412</ele><time>2021-11-13T13:41:19Z</time><name>PT7030</name></trkpt>
<trkpt lat="53.252230" lon="-1.968602"><ele>412</ele><time>2021-11-13T13:41:20Z</time><name>PT7031</name></trkpt>
<trkpt lat="53.252226" lon="-1.968593"><ele>412</ele><time>2021-11-13T13:41:21Z</time><name>PT7032</name></trkpt>
<trkpt lat="53.252223" lon="-1.968579"><ele>412</ele><time>2021-11-13T13:41:22Z</time><name>PT7033</name></trkpt>
<trkpt lat="53.252222" lon="-1.968568"><ele>413</ele><time>2021-11-13T13:41:23Z</time><name>PT7034</name></trkpt>
<trkpt lat="53.252221" lon="-1.968556"><ele>413</ele><time>2021-11-13T13:41:24Z</time><name>PT7035</name></trkpt>
<trkpt lat="53.252219" lon="-1.968541"><ele>413</ele><time>2021-11-13T13:41:25Z</time><name>PT7036</name></trkpt>
<trkpt lat="53.252217" lon="-1.968526"><ele>413</ele><time>2021-11-13T13:41:26Z</time><name>PT7037</name></trkpt>
<trkpt lat="53.252216" lon="-1.968510"><ele>413</ele><time>2021-11-13T13:41:27Z</time><name>PT7038</name></trkpt>
<trkpt lat="53.252208" lon="-1.968499"><ele>411</ele><time>2021-11-13T13:41:28Z</time><name>PT7039</name></trkpt>
<trkpt lat="53.252204" lon="-1.968488"><ele>412</ele><time>2021-11-13T13:41:29Z</time><name>PT7040</name></trkpt>
<trkpt lat="53.252199" lon="-1.968475"><ele>412</ele><time>2021-11-13T13:41:30Z</time><name>PT7041</name></trkpt>
<trkpt lat="53.252195" lon="-1.968462"><ele>412</ele><time>2021-11-13T13:41:31Z</time><name>PT7042</name></trkpt>
<trkpt lat="53.252190" lon="-1.968448"><ele>412</ele><time>2021-11-13T13:41:32Z</time><name>PT7043</name></trkpt>
<trkpt lat="53.252187" lon="-1.968437"><ele>412</ele><time>2021-11-13T13:41:33Z</time><name>PT7044</name></trkpt>
<trkpt lat="53.252184" lon="-1.968429"><ele>412</ele><time>2021-11-13T13:41:34Z</time><name>PT7045</name></trkpt>
<trkpt lat="53.252185" lon="-1.968420"><ele>413</ele><time>2021-11-13T13:41:35Z</time><name>PT7046</name></trkpt>
<trkpt lat="53.252185" lon="-1.968406"><ele>414</ele><time>2021-11-13T13:41:36Z</time><name>PT7047</name></trkpt>
<trkpt lat="53.252184" lon="-1.968393"><ele>414</ele><time>2021-11-13T13:41:37Z</time><name>PT7048</name></trkpt>
<trkpt lat="53.252180" lon="-1.968382"><ele>414</ele><time>2021-11-13T13:41:38Z</time><name>PT7049</name></trkpt>
<trkpt lat="53.252177" lon="-1.968369"><ele>414</ele><time>2021-11-13T13:41:39Z</time><name>PT7050</name></trkpt>
<trkpt lat="53.252172" lon="-1.968357"><ele>414</ele><time>2021-11-13T13:41:40Z</time><name>PT7051</name></trkpt>
<trkpt lat="53.252168" lon="-1.968344"><ele>414</ele><time>2021-11-13T13:41:41Z</time><name>PT7052</name></trkpt>
<trkpt lat="53.252161" lon="-1.968337"><ele>414</ele><time>2021-11-13T13:41:42Z</time><name>PT7053</name></trkpt>
<trkpt lat="53.252158" lon="-1.968322"><ele>415</ele><time>2021-11-13T13:41:43Z</time><name>PT7054</name></trkpt>
<trkpt lat="53.252156" lon="-1.968308"><ele>415</ele><time>2021-11-13T13:41:44Z</time><name>PT7055</name></trkpt>
<trkpt lat="53.252153" lon="-1.968298"><ele>414</ele><time>2021-11-13T13:41:45Z</time><name>PT7056</name></trkpt>
<trkpt lat="53.252148" lon="-1.968289"><ele>415</ele><time>2021-11-13T13:41:46Z</time><name>PT7057</name></trkpt>
<trkpt lat="53.252144" lon="-1.968276"><ele>415</ele><time>2021-11-13T13:41:47Z</time><name>PT7058</name></trkpt>
<trkpt lat="53.252140" lon="-1.968261"><ele>415</ele><time>2021-11-13T13:41:48Z</time><name>PT7059</name></trkpt>
<trkpt lat="53.252137" lon="-1.968245"><ele>416</ele><time>2021-11-13T13:41:49Z</time><name>PT7060</name></trkpt>
<trkpt lat="53.252135" lon="-1.968233"><ele>416</ele><time>2021-11-13T13:41:50Z</time><name>PT7061</name></trkpt>
<trkpt lat="53.252133" lon="-1.968219"><ele>416</ele><time>2021-11-13T13:41:51Z</time><name>PT7062</name></trkpt>
<trkpt lat="53.252130" lon="-1.968207"><ele>416</ele><time>2021-11-13T13:41:52Z</time><name>PT7063</name></trkpt>
<trkpt lat="53.252128" lon="-1.968188"><ele>416</ele><time>2021-11-13T13:41:53Z</time><name>PT7064</name></trkpt>
<trkpt lat="53.252125" lon="-1.968172"><ele>416</ele><time>2021-11-13T13:41:54Z</time><name>PT7065</name></trkpt>
<trkpt lat="53.252123" lon="-1.968159"><ele>416</ele><time>2021-11-13T13:41:55Z</time><name>PT7066</name></trkpt>
<trkpt lat="53.252120" lon="-1.968145"><ele>416</ele><time>2021-11-13T13:41:56Z</time><name>PT7067</name></trkpt>
<trkpt lat="53.252116" lon="-1.968135"><ele>416</ele><time>2021-11-13T13:41:57Z</time><name>PT7068</name></trkpt>
<trkpt lat="53.252112" lon="-1.968123"><ele>416</ele><time>2021-11-13T13:41:58Z</time><name>PT7069</name></trkpt>
<trkpt lat="53.252111" lon="-1.968113"><ele>416</ele><time>2021-11-13T13:41:59Z</time><name>PT7070</name></trkpt>
<trkpt lat="53.252111" lon="-1.968104"><ele>416</ele><time>2021-11-13T13:42:00Z</time><name>PT7071</name></trkpt>
<trkpt lat="53.252111" lon="-1.968094"><ele>416</ele><time>2021-11-13T13:42:01Z</time><name>PT7072</name></trkpt>
<trkpt lat="53.252111" lon="-1.968086"><ele>416</ele><time>2021-11-13T13:42:02Z</time><name>PT7073</name></trkpt>
<trkpt lat="53.252110" lon="-1.968077"><ele>416</ele><time>2021-11-13T13:42:03Z</time><name>PT7074</name></trkpt>
<trkpt lat="53.252107" lon="-1.968063"><ele>416</ele><time>2021-11-13T13:42:04Z</time><name>PT7075</name></trkpt>
<trkpt lat="53.252105" lon="-1.968049"><ele>416</ele><time>2021-11-13T13:42:05Z</time><name>PT7076</name></trkpt>
<trkpt lat="53.252102" lon="-1.968040"><ele>416</ele><time>2021-11-13T13:42:06Z</time><name>PT7077</name></trkpt>
<trkpt lat="53.252098" lon="-1.968030"><ele>417</ele><time>2021-11-13T13:42:07Z</time><name>PT7078</name></trkpt>
<trkpt lat="53.252096" lon="-1.968019"><ele>416</ele><time>2021-11-13T13:42:08Z</time><name>PT7079</name></trkpt>
<trkpt lat="53.252092" lon="-1.968007"><ele>416</ele><time>2021-11-13T13:42:09Z</time><name>PT7080</name></trkpt>
<trkpt lat="53.252088" lon="-1.967995"><ele>416</ele><time>2021-11-13T13:42:10Z</time><name>PT7081</name></trkpt>
<trkpt lat="53.252084" lon="-1.967985"><ele>416</ele><time>2021-11-13T13:42:11Z</time><name>PT7082</name></trkpt>
<trkpt lat="53.252081" lon="-1.967977"><ele>416</ele><time>2021-11-13T13:42:12Z</time><name>PT7083</name></trkpt>
<trkpt lat="53.252078" lon="-1.967964"><ele>416</ele><time>2021-11-13T13:42:13Z</time><name>PT7084</name></trkpt>
<trkpt lat="53.252076" lon="-1.967951"><ele>416</ele><time>2021-11-13T13:42:14Z</time><name>PT7085</name></trkpt>
<trkpt lat="53.252074" lon="-1.967937"><ele>417</ele><time>2021-11-13T13:42:15Z</time><name>PT7086</name></trkpt>
<trkpt lat="53.252069" lon="-1.967921"><ele>416</ele><time>2021-11-13T13:42:16Z</time><name>PT7087</name></trkpt>
<trkpt lat="53.252067" lon="-1.967908"><ele>416</ele><time>2021-11-13T13:42:17Z</time><name>PT7088</name></trkpt>
<trkpt lat="53.252070" lon="-1.967850"><ele>418</ele><time>2021-11-13T13:42:21Z</time><name>PT7089</name></trkpt>
<trkpt lat="53.252062" lon="-1.967800"><ele>419</ele><time>2021-11-13T13:42:25Z</time><name>PT7090</name></trkpt>
<trkpt lat="53.252051" lon="-1.967774"><ele>419</ele><time>2021-11-13T13:42:29Z</time><name>PT7091</name></trkpt>
<trkpt lat="53.252049" lon="-1.967746"><ele>419</ele><time>2021-11-13T13:42:32Z</time><name>PT7092</name></trkpt>
<trkpt lat="53.252043" lon="-1.967702"><ele>420</ele><time>2021-11-13T13:42:36Z</time><name>PT7093</name></trkpt>
<trkpt lat="53.252038" lon="-1.967653"><ele>420</ele><time>2021-11-13T13:42:40Z</time><name>PT7094</name></trkpt>
<trkpt lat="53.252038" lon="-1.967599"><ele>420</ele><time>2021-11-13T13:42:44Z</time><name>PT7095</name></trkpt>
<trkpt lat="53.252035" lon="-1.967557"><ele>420</ele><time>2021-11-13T13:42:47Z</time><name>PT7096</name></trkpt>
<trkpt lat="53.252029" lon="-1.967511"><ele>421</ele><time>2021-11-13T13:42:51Z</time><name>PT7097</name></trkpt>
<trkpt lat="53.252028" lon="-1.967457"><ele>422</ele><time>2021-11-13T13:42:55Z</time><name>PT7098</name></trkpt>
<trkpt lat="53.252023" lon="-1.967398"><ele>422</ele><time>2021-11-13T13:42:59Z</time><name>PT7099</name></trkpt>
<trkpt lat="53.252019" lon="-1.967351"><ele>422</ele><time>2021-11-13T13:43:03Z</time><name>PT7100</name></trkpt>
<trkpt lat="53.252014" lon="-1.967319"><ele>423</ele><time>2021-11-13T13:43:06Z</time><name>PT7101</name></trkpt>
<trkpt lat="53.252016" lon="-1.967255"><ele>424</ele><time>2021-11-13T13:43:10Z</time><name>PT7102</name></trkpt>
<trkpt lat="53.252011" lon="-1.967218"><ele>423</ele><time>2021-11-13T13:43:13Z</time><name>PT7103</name></trkpt>
<trkpt lat="53.252007" lon="-1.967186"><ele>424</ele><time>2021-11-13T13:43:17Z</time><name>PT7104</name></trkpt>
<trkpt lat="53.252001" lon="-1.967145"><ele>424</ele><time>2021-11-13T13:43:20Z</time><name>PT7105</name></trkpt>
<trkpt lat="53.251998" lon="-1.967080"><ele>424</ele><time>2021-11-13T13:43:24Z</time><name>PT7106</name></trkpt>
<trkpt lat="53.251986" lon="-1.967030"><ele>423</ele><time>2021-11-13T13:43:28Z</time><name>PT7107</name></trkpt>
<trkpt lat="53.251981" lon="-1.966976"><ele>424</ele><time>2021-11-13T13:43:32Z</time><name>PT7108</name></trkpt>
<trkpt lat="53.251980" lon="-1.966927"><ele>425</ele><time>2021-11-13T13:43:36Z</time><name>PT7109</name></trkpt>
<trkpt lat="53.251985" lon="-1.966873"><ele>425</ele><time>2021-11-13T13:43:39Z</time><name>PT7110</name></trkpt>
<trkpt lat="53.251984" lon="-1.966810"><ele>426</ele><time>2021-11-13T13:43:43Z</time><name>PT7111</name></trkpt>
<trkpt lat="53.251985" lon="-1.966740"><ele>426</ele><time>2021-11-13T13:43:47Z</time><name>PT7112</name></trkpt>
<trkpt lat="53.251988" lon="-1.966675"><ele>426</ele><time>2021-11-13T13:43:51Z</time><name>PT7113</name></trkpt>
<trkpt lat="53.251984" lon="-1.966625"><ele>427</ele><time>2021-11-13T13:43:54Z</time><name>PT7114</name></trkpt>
<trkpt lat="53.251990" lon="-1.966553"><ele>427</ele><time>2021-11-13T13:43:58Z</time><name>PT7115</name></trkpt>
<trkpt lat="53.251987" lon="-1.966526"><ele>427</ele><time>2021-11-13T13:44:01Z</time><name>PT7116</name></trkpt>
<trkpt lat="53.251974" lon="-1.966501"><ele>428</ele><time>2021-11-13T13:44:05Z</time><name>PT7117</name></trkpt>
<trkpt lat="53.251971" lon="-1.966487"><ele>429</ele><time>2021-11-13T13:44:08Z</time><name>PT7118</name></trkpt>
<trkpt lat="53.251969" lon="-1.966418"><ele>431</ele><time>2021-11-13T13:44:24Z</time><name>PT7119</name></trkpt>
<trkpt lat="53.251973" lon="-1.966302"><ele>431</ele><time>2021-11-13T13:44:28Z</time><name>PT7120</name></trkpt>
<trkpt lat="53.251969" lon="-1.966239"><ele>431</ele><time>2021-11-13T13:44:31Z</time><name>PT7121</name></trkpt>
<trkpt lat="53.251964" lon="-1.966171"><ele>431</ele><time>2021-11-13T13:44:35Z</time><name>PT7122</name></trkpt>
<trkpt lat="53.251951" lon="-1.966106"><ele>431</ele><time>2021-11-13T13:44:39Z</time><name>PT7123</name></trkpt>
<trkpt lat="53.251944" lon="-1.966037"><ele>431</ele><time>2021-11-13T13:44:43Z</time><name>PT7124</name></trkpt>
<trkpt lat="53.251939" lon="-1.965973"><ele>432</ele><time>2021-11-13T13:44:46Z</time><name>PT7125</name></trkpt>
<trkpt lat="53.251938" lon="-1.965900"><ele>433</ele><time>2021-11-13T13:44:50Z</time><name>PT7126</name></trkpt>
<trkpt lat="53.251922" lon="-1.965837"><ele>433</ele><time>2021-11-13T13:44:54Z</time><name>PT7127</name></trkpt>
<trkpt lat="53.251914" lon="-1.965789"><ele>434</ele><time>2021-11-13T13:44:58Z</time><name>PT7128</name></trkpt>
<trkpt lat="53.251900" lon="-1.965753"><ele>434</ele><time>2021-11-13T13:45:01Z</time><name>PT7129</name></trkpt>
<trkpt lat="53.251881" lon="-1.965707"><ele>433</ele><time>2021-11-13T13:45:04Z</time><name>PT7130</name></trkpt>
<trkpt lat="53.251850" lon="-1.965676"><ele>432</ele><time>2021-11-13T13:45:07Z</time><name>PT7131</name></trkpt>
<trkpt lat="53.251813" lon="-1.965658"><ele>435</ele><time>2021-11-13T13:45:11Z</time><name>PT7132</name></trkpt>
<trkpt lat="53.251796" lon="-1.965652"><ele>434</ele><time>2021-11-13T13:45:15Z</time><name>PT7133</name></trkpt>
<trkpt lat="53.251780" lon="-1.965668"><ele>435</ele><time>2021-11-13T13:45:19Z</time><name>PT7134</name></trkpt>
<trkpt lat="53.251766" lon="-1.965689"><ele>436</ele><time>2021-11-13T13:45:22Z</time><name>PT7135</name></trkpt>
<trkpt lat="53.251751" lon="-1.965710"><ele>435</ele><time>2021-11-13T13:45:25Z</time><name>PT7136</name></trkpt>
<trkpt lat="53.251738" lon="-1.965729"><ele>435</ele><time>2021-11-13T13:45:29Z</time><name>PT7137</name></trkpt>
<trkpt lat="53.251709" lon="-1.965756"><ele>435</ele><time>2021-11-13T13:45:32Z</time><name>PT7138</name></trkpt>
<trkpt lat="53.251676" lon="-1.965771"><ele>435</ele><time>2021-11-13T13:45:35Z</time><name>PT7139</name></trkpt>
<trkpt lat="53.251651" lon="-1.965783"><ele>435</ele><time>2021-11-13T13:45:39Z</time><name>PT7140</name></trkpt>
<trkpt lat="53.251620" lon="-1.965806"><ele>436</ele><time>2021-11-13T13:45:43Z</time><name>PT7141</name></trkpt>
<trkpt lat="53.251603" lon="-1.965820"><ele>437</ele><time>2021-11-13T13:45:46Z</time><name>PT7142</name></trkpt>
<trkpt lat="53.251572" lon="-1.965827"><ele>437</ele><time>2021-11-13T13:45:49Z</time><name>PT7143</name></trkpt>
<trkpt lat="53.251536" lon="-1.965834"><ele>437</ele><time>2021-11-13T13:45:53Z</time><name>PT7144</name></trkpt>
<trkpt lat="53.251503" lon="-1.965824"><ele>438</ele><time>2021-11-13T13:45:56Z</time><name>PT7145</name></trkpt>
<trkpt lat="53.251477" lon="-1.965801"><ele>439</ele><time>2021-11-13T13:45:59Z</time><name>PT7146</name></trkpt>
<trkpt lat="53.251450" lon="-1.965784"><ele>440</ele><time>2021-11-13T13:46:02Z</time><name>PT7147</name></trkpt>
<trkpt lat="53.251418" lon="-1.965746"><ele>440</ele><time>2021-11-13T13:46:06Z</time><name>PT7148</name></trkpt>
<trkpt lat="53.251393" lon="-1.965711"><ele>439</ele><time>2021-11-13T13:46:09Z</time><name>PT7149</name></trkpt>
<trkpt lat="53.251386" lon="-1.965670"><ele>441</ele><time>2021-11-13T13:46:12Z</time><name>PT7150</name></trkpt>
<trkpt lat="53.251353" lon="-1.965603"><ele>442</ele><time>2021-11-13T13:46:16Z</time><name>PT7151</name></trkpt>
<trkpt lat="53.251340" lon="-1.965555"><ele>442</ele><time>2021-11-13T13:46:19Z</time><name>PT7152</name></trkpt>
<trkpt lat="53.251326" lon="-1.965505"><ele>442</ele><time>2021-11-13T13:46:22Z</time><name>PT7153</name></trkpt>
<trkpt lat="53.251314" lon="-1.965431"><ele>444</ele><time>2021-11-13T13:46:26Z</time><name>PT7154</name></trkpt>
<trkpt lat="53.251306" lon="-1.965389"><ele>444</ele><time>2021-11-13T13:46:29Z</time><name>PT7155</name></trkpt>
<trkpt lat="53.251291" lon="-1.965326"><ele>444</ele><time>2021-11-13T13:46:33Z</time><name>PT7156</name></trkpt>
<trkpt lat="53.251286" lon="-1.965280"><ele>444</ele><time>2021-11-13T13:46:36Z</time><name>PT7157</name></trkpt>
<trkpt lat="53.251280" lon="-1.965231"><ele>444</ele><time>2021-11-13T13:46:39Z</time><name>PT7158</name></trkpt>
<trkpt lat="53.251274" lon="-1.965156"><ele>444</ele><time>2021-11-13T13:46:43Z</time><name>PT7159</name></trkpt>
<trkpt lat="53.251268" lon="-1.965108"><ele>444</ele><time>2021-11-13T13:46:46Z</time><name>PT7160</name></trkpt>
<trkpt lat="53.251256" lon="-1.965052"><ele>444</ele><time>2021-11-13T13:46:49Z</time><name>PT7161</name></trkpt>
<trkpt lat="53.251255" lon="-1.964993"><ele>444</ele><time>2021-11-13T13:46:53Z</time><name>PT7162</name></trkpt>
<trkpt lat="53.251248" lon="-1.964933"><ele>446</ele><time>2021-11-13T13:46:57Z</time><name>PT7163</name></trkpt>
<trkpt lat="53.251241" lon="-1.964891"><ele>447</ele><time>2021-11-13T13:47:00Z</time><name>PT7164</name></trkpt>
<trkpt lat="53.251237" lon="-1.964847"><ele>447</ele><time>2021-11-13T13:47:04Z</time><name>PT7165</name></trkpt>
<trkpt lat="53.251242" lon="-1.964785"><ele>449</ele><time>2021-11-13T13:47:08Z</time><name>PT7166</name></trkpt>
<trkpt lat="53.251245" lon="-1.964741"><ele>449</ele><time>2021-11-13T13:47:11Z</time><name>PT7167</name></trkpt>
<trkpt lat="53.251249" lon="-1.964678"><ele>450</ele><time>2021-11-13T13:47:15Z</time><name>PT7168</name></trkpt>
<trkpt lat="53.251252" lon="-1.964627"><ele>451</ele><time>2021-11-13T13:47:19Z</time><name>PT7169</name></trkpt>
<trkpt lat="53.251258" lon="-1.964573"><ele>453</ele><time>2021-11-13T13:47:23Z</time><name>PT7170</name></trkpt>
<trkpt lat="53.251259" lon="-1.964540"><ele>454</ele><time>2021-11-13T13:47:26Z</time><name>PT7171</name></trkpt>
<trkpt lat="53.251265" lon="-1.964470"><ele>453</ele><time>2021-11-13T13:47:30Z</time><name>PT7172</name></trkpt>
<trkpt lat="53.251268" lon="-1.964400"><ele>454</ele><time>2021-11-13T13:47:34Z</time><name>PT7173</name></trkpt>
<trkpt lat="53.251269" lon="-1.964358"><ele>455</ele><time>2021-11-13T13:47:37Z</time><name>PT7174</name></trkpt>
<trkpt lat="53.251270" lon="-1.964299"><ele>455</ele><time>2021-11-13T13:47:41Z</time><name>PT7175</name></trkpt>
<trkpt lat="53.251277" lon="-1.964232"><ele>456</ele><time>2021-11-13T13:47:45Z</time><name>PT7176</name></trkpt>
<trkpt lat="53.251279" lon="-1.964168"><ele>456</ele><time>2021-11-13T13:47:49Z</time><name>PT7177</name></trkpt>
<trkpt lat="53.251281" lon="-1.964094"><ele>456</ele><time>2021-11-13T13:47:53Z</time><name>PT7178</name></trkpt>
<trkpt lat="53.251286" lon="-1.964043"><ele>457</ele><time>2021-11-13T13:47:56Z</time><name>PT7179</name></trkpt>
<trkpt lat="53.251293" lon="-1.963980"><ele>457</ele><time>2021-11-13T13:48:00Z</time><name>PT7180</name></trkpt>
<trkpt lat="53.251302" lon="-1.963919"><ele>457</ele><time>2021-11-13T13:48:04Z</time><name>PT7181</name></trkpt>
<trkpt lat="53.251304" lon="-1.963876"><ele>458</ele><time>2021-11-13T13:48:07Z</time><name>PT7182</name></trkpt>
<trkpt lat="53.251307" lon="-1.963817"><ele>459</ele><time>2021-11-13T13:48:11Z</time><name>PT7183</name></trkpt>
<trkpt lat="53.251306" lon="-1.963764"><ele>459</ele><time>2021-11-13T13:48:15Z</time><name>PT7184</name></trkpt>
<trkpt lat="53.251307" lon="-1.963719"><ele>459</ele><time>2021-11-13T13:48:18Z</time><name>PT7185</name></trkpt>
<trkpt lat="53.251314" lon="-1.963668"><ele>460</ele><time>2021-11-13T13:48:22Z</time><name>PT7186</name></trkpt>
<trkpt lat="53.251312" lon="-1.963635"><ele>460</ele><time>2021-11-13T13:48:25Z</time><name>PT7187</name></trkpt>
<trkpt lat="53.251314" lon="-1.963606"><ele>461</ele><time>2021-11-13T13:48:28Z</time><name>PT7188</name></trkpt>
<trkpt lat="53.251316" lon="-1.963558"><ele>462</ele><time>2021-11-13T13:48:32Z</time><name>PT7189</name></trkpt>
<trkpt lat="53.251321" lon="-1.963518"><ele>462</ele><time>2021-11-13T13:48:35Z</time><name>PT7190</name></trkpt>
<trkpt lat="53.251321" lon="-1.963478"><ele>463</ele><time>2021-11-13T13:48:38Z</time><name>PT7191</name></trkpt>
<trkpt lat="53.251310" lon="-1.963440"><ele>464</ele><time>2021-11-13T13:48:42Z</time><name>PT7192</name></trkpt>
<trkpt lat="53.251297" lon="-1.963392"><ele>465</ele><time>2021-11-13T13:48:46Z</time><name>PT7193</name></trkpt>
<trkpt lat="53.251287" lon="-1.963347"><ele>465</ele><time>2021-11-13T13:48:49Z</time><name>PT7194</name></trkpt>
<trkpt lat="53.251275" lon="-1.963300"><ele>466</ele><time>2021-11-13T13:48:52Z</time><name>PT7195</name></trkpt>
<trkpt lat="53.251267" lon="-1.963234"><ele>466</ele><time>2021-11-13T13:48:56Z</time><name>PT7196</name></trkpt>
<trkpt lat="53.251260" lon="-1.963181"><ele>466</ele><time>2021-11-13T13:49:00Z</time><name>PT7197</name></trkpt>
<trkpt lat="53.251259" lon="-1.963123"><ele>467</ele><time>2021-11-13T13:49:04Z</time><name>PT7198</name></trkpt>
<trkpt lat="53.251254" lon="-1.963066"><ele>467</ele><time>2021-11-13T13:49:07Z</time><name>PT7199</name></trkpt>
<trkpt lat="53.251250" lon="-1.963014"><ele>468</ele><time>2021-11-13T13:49:10Z</time><name>PT7200</name></trkpt>
<trkpt lat="53.251253" lon="-1.962945"><ele>468</ele><time>2021-11-13T13:49:14Z</time><name>PT7201</name></trkpt>
<trkpt lat="53.251251" lon="-1.962896"><ele>469</ele><time>2021-11-13T13:49:17Z</time><name>PT7202</name></trkpt>
<trkpt lat="53.251252" lon="-1.962847"><ele>470</ele><time>2021-11-13T13:49:20Z</time><name>PT7203</name></trkpt>
<trkpt lat="53.251240" lon="-1.962810"><ele>470</ele><time>2021-11-13T13:49:23Z</time><name>PT7204</name></trkpt>
<trkpt lat="53.251224" lon="-1.962750"><ele>469</ele><time>2021-11-13T13:49:27Z</time><name>PT7205</name></trkpt>
<trkpt lat="53.251219" lon="-1.962677"><ele>470</ele><time>2021-11-13T13:49:31Z</time><name>PT7206</name></trkpt>
<trkpt lat="53.251213" lon="-1.962606"><ele>471</ele><time>2021-11-13T13:49:35Z</time><name>PT7207</name></trkpt>
<trkpt lat="53.251207" lon="-1.962534"><ele>472</ele><time>2021-11-13T13:49:39Z</time><name>PT7208</name></trkpt>
<trkpt lat="53.251206" lon="-1.962485"><ele>472</ele><time>2021-11-13T13:49:43Z</time><name>PT7209</name></trkpt>
<trkpt lat="53.251208" lon="-1.962470"><ele>471</ele><time>2021-11-13T13:49:47Z</time><name>PT7210</name></trkpt>
<trkpt lat="53.251208" lon="-1.962475"><ele>471</ele><time>2021-11-13T13:51:28Z</time><name>PT7211</name></trkpt>
<trkpt lat="53.251210" lon="-1.962479"><ele>471</ele><time>2021-11-13T13:51:29Z</time><name>PT7212</name></trkpt>
<trkpt lat="53.251210" lon="-1.962479"><ele>471</ele><time>2021-11-13T13:51:30Z</time><name>PT7213</name></trkpt>
<trkpt lat="53.251210" lon="-1.962479"><ele>471</ele><time>2021-11-13T13:51:31Z</time><name>PT7214</name></trkpt>
<trkpt lat="53.251209" lon="-1.962478"><ele>471</ele><time>2021-11-13T13:51:32Z</time><name>PT7215</name></trkpt>
<trkpt lat="53.251210" lon="-1.962479"><ele>471</ele><time>2021-11-13T13:51:33Z</time><name>PT7216</name></trkpt>
<trkpt lat="53.251214" lon="-1.962480"><ele>471</ele><time>2021-11-13T13:51:41Z</time><name>PT7217</name></trkpt>
<trkpt lat="53.251211" lon="-1.962478"><ele>470</ele><time>2021-11-13T13:51:42Z</time><name>PT7218</name></trkpt>
<trkpt lat="53.251206" lon="-1.962471"><ele>470</ele><time>2021-11-13T13:51:43Z</time><name>PT7219</name></trkpt>
<trkpt lat="53.251207" lon="-1.962455"><ele>470</ele><time>2021-11-13T13:51:44Z</time><name>PT7220</name></trkpt>
<trkpt lat="53.251200" lon="-1.962449"><ele>470</ele><time>2021-11-13T13:51:45Z</time><name>PT7221</name></trkpt>
<trkpt lat="53.251195" lon="-1.962444"><ele>470</ele><time>2021-11-13T13:51:46Z</time><name>PT7222</name></trkpt>
<trkpt lat="53.251189" lon="-1.962430"><ele>470</ele><time>2021-11-13T13:51:47Z</time><name>PT7223</name></trkpt>
<trkpt lat="53.251186" lon="-1.962421"><ele>470</ele><time>2021-11-13T13:51:48Z</time><name>PT7224</name></trkpt>
<trkpt lat="53.251185" lon="-1.962413"><ele>470</ele><time>2021-11-13T13:51:49Z</time><name>PT7225</name></trkpt>
<trkpt lat="53.251181" lon="-1.962408"><ele>470</ele><time>2021-11-13T13:51:50Z</time><name>PT7226</name></trkpt>
<trkpt lat="53.251179" lon="-1.962399"><ele>471</ele><time>2021-11-13T13:51:51Z</time><name>PT7227</name></trkpt>
<trkpt lat="53.251174" lon="-1.962387"><ele>471</ele><time>2021-11-13T13:51:52Z</time><name>PT7228</name></trkpt>
<trkpt lat="53.251169" lon="-1.962378"><ele>471</ele><time>2021-11-13T13:51:53Z</time><name>PT7229</name></trkpt>
<trkpt lat="53.251162" lon="-1.962373"><ele>470</ele><time>2021-11-13T13:51:54Z</time><name>PT7230</name></trkpt>
<trkpt lat="53.251155" lon="-1.962363"><ele>470</ele><time>2021-11-13T13:51:55Z</time><name>PT7231</name></trkpt>
<trkpt lat="53.251148" lon="-1.962352"><ele>470</ele><time>2021-11-13T13:51:56Z</time><name>PT7232</name></trkpt>
<trkpt lat="53.251141" lon="-1.962342"><ele>470</ele><time>2021-11-13T13:51:57Z</time><name>PT7233</name></trkpt>
<trkpt lat="53.251135" lon="-1.962335"><ele>469</ele><time>2021-11-13T13:51:58Z</time><name>PT7234</name></trkpt>
<trkpt lat="53.251128" lon="-1.962318"><ele>469</ele><time>2021-11-13T13:51:59Z</time><name>PT7235</name></trkpt>
<trkpt lat="53.251125" lon="-1.962306"><ele>469</ele><time>2021-11-13T13:52:00Z</time><name>PT7236</name></trkpt>
<trkpt lat="53.251123" lon="-1.962294"><ele>469</ele><time>2021-11-13T13:52:01Z</time><name>PT7237</name></trkpt>
<trkpt lat="53.251119" lon="-1.962282"><ele>470</ele><time>2021-11-13T13:52:02Z</time><name>PT7238</name></trkpt>
<trkpt lat="53.251114" lon="-1.962270"><ele>471</ele><time>2021-11-13T13:52:03Z</time><name>PT7239</name></trkpt>
<trkpt lat="53.251106" lon="-1.962257"><ele>471</ele><time>2021-11-13T13:52:04Z</time><name>PT7240</name></trkpt>
<trkpt lat="53.251100" lon="-1.962244"><ele>472</ele><time>2021-11-13T13:52:05Z</time><name>PT7241</name></trkpt>
<trkpt lat="53.251092" lon="-1.962232"><ele>472</ele><time>2021-11-13T13:52:06Z</time><name>PT7242</name></trkpt>
<trkpt lat="53.251084" lon="-1.962223"><ele>473</ele><time>2021-11-13T13:52:07Z</time><name>PT7243</name></trkpt>
<trkpt lat="53.251079" lon="-1.962215"><ele>473</ele><time>2021-11-13T13:52:08Z</time><name>PT7244</name></trkpt>
<trkpt lat="53.251075" lon="-1.962206"><ele>473</ele><time>2021-11-13T13:52:09Z</time><name>PT7245</name></trkpt>
<trkpt lat="53.251069" lon="-1.962198"><ele>473</ele><time>2021-11-13T13:52:10Z</time><name>PT7246</name></trkpt>
<trkpt lat="53.251060" lon="-1.962190"><ele>473</ele><time>2021-11-13T13:52:11Z</time><name>PT7247</name></trkpt>
<trkpt lat="53.251055" lon="-1.962177"><ele>473</ele><time>2021-11-13T13:52:12Z</time><name>PT7248</name></trkpt>
<trkpt lat="53.251047" lon="-1.962168"><ele>472</ele><time>2021-11-13T13:52:13Z</time><name>PT7249</name></trkpt>
<trkpt lat="53.251037" lon="-1.962158"><ele>473</ele><time>2021-11-13T13:52:14Z</time><name>PT7250</name></trkpt>
<trkpt lat="53.251029" lon="-1.962147"><ele>473</ele><time>2021-11-13T13:52:15Z</time><name>PT7251</name></trkpt>
<trkpt lat="53.251020" lon="-1.962137"><ele>473</ele><time>2021-11-13T13:52:16Z</time><name>PT7252</name></trkpt>
<trkpt lat="53.251014" lon="-1.962123"><ele>473</ele><time>2021-11-13T13:52:17Z</time><name>PT7253</name></trkpt>
<trkpt lat="53.251006" lon="-1.962112"><ele>473</ele><time>2021-11-13T13:52:18Z</time><name>PT7254</name></trkpt>
<trkpt lat="53.250999" lon="-1.962096"><ele>473</ele><time>2021-11-13T13:52:19Z</time><name>PT7255</name></trkpt>
<trkpt lat="53.250990" lon="-1.962086"><ele>473</ele><time>2021-11-13T13:52:20Z</time><name>PT7256</name></trkpt>
<trkpt lat="53.250983" lon="-1.962074"><ele>473</ele><time>2021-11-13T13:52:21Z</time><name>PT7257</name></trkpt>
<trkpt lat="53.250975" lon="-1.962065"><ele>473</ele><time>2021-11-13T13:52:22Z</time><name>PT7258</name></trkpt>
<trkpt lat="53.250969" lon="-1.962054"><ele>473</ele><time>2021-11-13T13:52:23Z</time><name>PT7259</name></trkpt>
<trkpt lat="53.250961" lon="-1.962041"><ele>473</ele><time>2021-11-13T13:52:24Z</time><name>PT7260</name></trkpt>
<trkpt lat="53.250955" lon="-1.962030"><ele>473</ele><time>2021-11-13T13:52:25Z</time><name>PT7261</name></trkpt>
<trkpt lat="53.250950" lon="-1.962018"><ele>473</ele><time>2021-11-13T13:52:26Z</time><name>PT7262</name></trkpt>
<trkpt lat="53.250944" lon="-1.962005"><ele>474</ele><time>2021-11-13T13:52:27Z</time><name>PT7263</name></trkpt>
<trkpt lat="53.250938" lon="-1.961993"><ele>474</ele><time>2021-11-13T13:52:28Z</time><name>PT7264</name></trkpt>
<trkpt lat="53.250931" lon="-1.961983"><ele>475</ele><time>2021-11-13T13:52:29Z</time><name>PT7265</name></trkpt>
<trkpt lat="53.250924" lon="-1.961970"><ele>475</ele><time>2021-11-13T13:52:30Z</time><name>PT7266</name></trkpt>
<trkpt lat="53.250916" lon="-1.961955"><ele>475</ele><time>2021-11-13T13:52:31Z</time><name>PT7267</name></trkpt>
<trkpt lat="53.250909" lon="-1.961945"><ele>475</ele><time>2021-11-13T13:52:32Z</time><name>PT7268</name></trkpt>
<trkpt lat="53.250903" lon="-1.961930"><ele>475</ele><time>2021-11-13T13:52:33Z</time><name>PT7269</name></trkpt>
<trkpt lat="53.250899" lon="-1.961919"><ele>475</ele><time>2021-11-13T13:52:34Z</time><name>PT7270</name></trkpt>
<trkpt lat="53.250895" lon="-1.961908"><ele>475</ele><time>2021-11-13T13:52:35Z</time><name>PT7271</name></trkpt>
<trkpt lat="53.250890" lon="-1.961898"><ele>475</ele><time>2021-11-13T13:52:36Z</time><name>PT7272</name></trkpt>
<trkpt lat="53.250884" lon="-1.961889"><ele>475</ele><time>2021-11-13T13:52:37Z</time><name>PT7273</name></trkpt>
<trkpt lat="53.250877" lon="-1.961875"><ele>476</ele><time>2021-11-13T13:52:38Z</time><name>PT7274</name></trkpt>
<trkpt lat="53.250869" lon="-1.961866"><ele>476</ele><time>2021-11-13T13:52:39Z</time><name>PT7275</name></trkpt>
<trkpt lat="53.250860" lon="-1.961857"><ele>476</ele><time>2021-11-13T13:52:40Z</time><name>PT7276</name></trkpt>
<trkpt lat="53.250853" lon="-1.961847"><ele>476</ele><time>2021-11-13T13:52:41Z</time><name>PT7277</name></trkpt>
<trkpt lat="53.250845" lon="-1.961839"><ele>476</ele><time>2021-11-13T13:52:42Z</time><name>PT7278</name></trkpt>
<trkpt lat="53.250835" lon="-1.961826"><ele>477</ele><time>2021-11-13T13:52:43Z</time><name>PT7279</name></trkpt>
<trkpt lat="53.250826" lon="-1.961816"><ele>477</ele><time>2021-11-13T13:52:44Z</time><name>PT7280</name></trkpt>
<trkpt lat="53.250819" lon="-1.961806"><ele>477</ele><time>2021-11-13T13:52:45Z</time><name>PT7281</name></trkpt>
<trkpt lat="53.250815" lon="-1.961790"><ele>477</ele><time>2021-11-13T13:52:46Z</time><name>PT7282</name></trkpt>
<trkpt lat="53.250812" lon="-1.961769"><ele>478</ele><time>2021-11-13T13:52:47Z</time><name>PT7283</name></trkpt>
<trkpt lat="53.250805" lon="-1.961756"><ele>477</ele><time>2021-11-13T13:52:48Z</time><name>PT7284</name></trkpt>
<trkpt lat="53.250796" lon="-1.961741"><ele>477</ele><time>2021-11-13T13:52:49Z</time><name>PT7285</name></trkpt>
<trkpt lat="53.250788" lon="-1.961726"><ele>477</ele><time>2021-11-13T13:52:50Z</time><name>PT7286</name></trkpt>
<trkpt lat="53.250785" lon="-1.961713"><ele>477</ele><time>2021-11-13T13:52:51Z</time><name>PT7287</name></trkpt>
<trkpt lat="53.250776" lon="-1.961702"><ele>476</ele><time>2021-11-13T13:52:52Z</time><name>PT7288</name></trkpt>
<trkpt lat="53.250770" lon="-1.961690"><ele>476</ele><time>2021-11-13T13:52:53Z</time><name>PT7289</name></trkpt>
<trkpt lat="53.250764" lon="-1.961674"><ele>477</ele><time>2021-11-13T13:52:54Z</time><name>PT7290</name></trkpt>
<trkpt lat="53.250760" lon="-1.961661"><ele>477</ele><time>2021-11-13T13:52:55Z</time><name>PT7291</name></trkpt>
<trkpt lat="53.250755" lon="-1.961641"><ele>477</ele><time>2021-11-13T13:52:56Z</time><name>PT7292</name></trkpt>
<trkpt lat="53.250750" lon="-1.961626"><ele>476</ele><time>2021-11-13T13:52:57Z</time><name>PT7293</name></trkpt>
<trkpt lat="53.250745" lon="-1.961614"><ele>477</ele><time>2021-11-13T13:52:58Z</time><name>PT7294</name></trkpt>
<trkpt lat="53.250739" lon="-1.961596"><ele>477</ele><time>2021-11-13T13:52:59Z</time><name>PT7295</name></trkpt>
<trkpt lat="53.250734" lon="-1.961580"><ele>477</ele><time>2021-11-13T13:53:00Z</time><name>PT7296</name></trkpt>
<trkpt lat="53.250728" lon="-1.961564"><ele>477</ele><time>2021-11-13T13:53:01Z</time><name>PT7297</name></trkpt>
<trkpt lat="53.250720" lon="-1.961550"><ele>478</ele><time>2021-11-13T13:53:02Z</time><name>PT7298</name></trkpt>
<trkpt lat="53.250708" lon="-1.961538"><ele>478</ele><time>2021-11-13T13:53:03Z</time><name>PT7299</name></trkpt>
<trkpt lat="53.250701" lon="-1.961528"><ele>478</ele><time>2021-11-13T13:53:04Z</time><name>PT7300</name></trkpt>
<trkpt lat="53.250694" lon="-1.961518"><ele>478</ele><time>2021-11-13T13:53:05Z</time><name>PT7301</name></trkpt>
<trkpt lat="53.250686" lon="-1.961507"><ele>478</ele><time>2021-11-13T13:53:06Z</time><name>PT7302</name></trkpt>
<trkpt lat="53.250679" lon="-1.961500"><ele>478</ele><time>2021-11-13T13:53:07Z</time><name>PT7303</name></trkpt>
<trkpt lat="53.250670" lon="-1.961487"><ele>478</ele><time>2021-11-13T13:53:08Z</time><name>PT7304</name></trkpt>
<trkpt lat="53.250662" lon="-1.961475"><ele>477</ele><time>2021-11-13T13:53:09Z</time><name>PT7305</name></trkpt>
<trkpt lat="53.250654" lon="-1.961459"><ele>478</ele><time>2021-11-13T13:53:10Z</time><name>PT7306</name></trkpt>
<trkpt lat="53.250645" lon="-1.961443"><ele>478</ele><time>2021-11-13T13:53:11Z</time><name>PT7307</name></trkpt>
<trkpt lat="53.250637" lon="-1.961431"><ele>478</ele><time>2021-11-13T13:53:12Z</time><name>PT7308</name></trkpt>
<trkpt lat="53.250631" lon="-1.961420"><ele>478</ele><time>2021-11-13T13:53:13Z</time><name>PT7309</name></trkpt>
<trkpt lat="53.250621" lon="-1.961405"><ele>478</ele><time>2021-11-13T13:53:14Z</time><name>PT7310</name></trkpt>
<trkpt lat="53.250611" lon="-1.961400"><ele>478</ele><time>2021-11-13T13:53:15Z</time><name>PT7311</name></trkpt>
<trkpt lat="53.250611" lon="-1.961390"><ele>479</ele><time>2021-11-13T13:53:16Z</time><name>PT7312</name></trkpt>
<trkpt lat="53.250605" lon="-1.961375"><ele>479</ele><time>2021-11-13T13:53:17Z</time><name>PT7313</name></trkpt>
<trkpt lat="53.250596" lon="-1.961364"><ele>479</ele><time>2021-11-13T13:53:18Z</time><name>PT7314</name></trkpt>
<trkpt lat="53.250589" lon="-1.961350"><ele>480</ele><time>2021-11-13T13:53:19Z</time><name>PT7315</name></trkpt>
<trkpt lat="53.250560" lon="-1.961309"><ele>480</ele><time>2021-11-13T13:53:23Z</time><name>PT7316</name></trkpt>
<trkpt lat="53.250520" lon="-1.961275"><ele>482</ele><time>2021-11-13T13:53:27Z</time><name>PT7317</name></trkpt>
<trkpt lat="53.250488" lon="-1.961233"><ele>482</ele><time>2021-11-13T13:53:31Z</time><name>PT7318</name></trkpt>
<trkpt lat="53.250450" lon="-1.961197"><ele>482</ele><time>2021-11-13T13:53:35Z</time><name>PT7319</name></trkpt>
<trkpt lat="53.250410" lon="-1.961172"><ele>482</ele><time>2021-11-13T13:53:39Z</time><name>PT7320</name></trkpt>
<trkpt lat="53.250371" lon="-1.961155"><ele>482</ele><time>2021-11-13T13:53:43Z</time><name>PT7321</name></trkpt>
<trkpt lat="53.250325" lon="-1.961150"><ele>483</ele><time>2021-11-13T13:53:47Z</time><name>PT7322</name></trkpt>
<trkpt lat="53.250286" lon="-1.961142"><ele>483</ele><time>2021-11-13T13:53:51Z</time><name>PT7323</name></trkpt>
<trkpt lat="53.250242" lon="-1.961147"><ele>482</ele><time>2021-11-13T13:53:55Z</time><name>PT7324</name></trkpt>
<trkpt lat="53.250197" lon="-1.961149"><ele>482</ele><time>2021-11-13T13:53:59Z</time><name>PT7325</name></trkpt>
<trkpt lat="53.250156" lon="-1.961151"><ele>482</ele><time>2021-11-13T13:54:03Z</time><name>PT7326</name></trkpt>
<trkpt lat="53.250119" lon="-1.961149"><ele>483</ele><time>2021-11-13T13:54:07Z</time><name>PT7327</name></trkpt>
<trkpt lat="53.250070" lon="-1.961158"><ele>482</ele><time>2021-11-13T13:54:11Z</time><name>PT7328</name></trkpt>
<trkpt lat="53.250029" lon="-1.961155"><ele>483</ele><time>2021-11-13T13:54:15Z</time><name>PT7329</name></trkpt>
<trkpt lat="53.249999" lon="-1.961146"><ele>484</ele><time>2021-11-13T13:54:18Z</time><name>PT7330</name></trkpt>
<trkpt lat="53.249954" lon="-1.961151"><ele>485</ele><time>2021-11-13T13:54:22Z</time><name>PT7331</name></trkpt>
<trkpt lat="53.249911" lon="-1.961146"><ele>486</ele><time>2021-11-13T13:54:26Z</time><name>PT7332</name></trkpt>
<trkpt lat="53.249866" lon="-1.961150"><ele>486</ele><time>2021-11-13T13:54:30Z</time><name>PT7333</name></trkpt>
<trkpt lat="53.249823" lon="-1.961141"><ele>486</ele><time>2021-11-13T13:54:34Z</time><name>PT7334</name></trkpt>
<trkpt lat="53.249773" lon="-1.961136"><ele>486</ele><time>2021-11-13T13:54:38Z</time><name>PT7335</name></trkpt>
<trkpt lat="53.249726" lon="-1.961132"><ele>486</ele><time>2021-11-13T13:54:42Z</time><name>PT7336</name></trkpt>
<trkpt lat="53.249679" lon="-1.961144"><ele>486</ele><time>2021-11-13T13:54:46Z</time><name>PT7337</name></trkpt>
<trkpt lat="53.249631" lon="-1.961137"><ele>486</ele><time>2021-11-13T13:54:50Z</time><name>PT7338</name></trkpt>
<trkpt lat="53.249588" lon="-1.961112"><ele>486</ele><time>2021-11-13T13:54:54Z</time><name>PT7339</name></trkpt>
<trkpt lat="53.249544" lon="-1.961113"><ele>486</ele><time>2021-11-13T13:54:58Z</time><name>PT7340</name></trkpt>
<trkpt lat="53.249507" lon="-1.961122"><ele>486</ele><time>2021-11-13T13:55:01Z</time><name>PT7341</name></trkpt>
<trkpt lat="53.249464" lon="-1.961125"><ele>487</ele><time>2021-11-13T13:55:05Z</time><name>PT7342</name></trkpt>
<trkpt lat="53.249414" lon="-1.961132"><ele>486</ele><time>2021-11-13T13:55:09Z</time><name>PT7343</name></trkpt>
<trkpt lat="53.249364" lon="-1.961132"><ele>486</ele><time>2021-11-13T13:55:13Z</time><name>PT7344</name></trkpt>
<trkpt lat="53.249316" lon="-1.961140"><ele>486</ele><time>2021-11-13T13:55:17Z</time><name>PT7345</name></trkpt>
<trkpt lat="53.249269" lon="-1.961155"><ele>485</ele><time>2021-11-13T13:55:21Z</time><name>PT7346</name></trkpt>
<trkpt lat="53.249226" lon="-1.961158"><ele>485</ele><time>2021-11-13T13:55:25Z</time><name>PT7347</name></trkpt>
<trkpt lat="53.249177" lon="-1.961176"><ele>486</ele><time>2021-11-13T13:55:29Z</time><name>PT7348</name></trkpt>
<trkpt lat="53.249149" lon="-1.961176"><ele>486</ele><time>2021-11-13T13:55:33Z</time><name>PT7349</name></trkpt>
<trkpt lat="53.249098" lon="-1.961179"><ele>486</ele><time>2021-11-13T13:55:37Z</time><name>PT7350</name></trkpt>
<trkpt lat="53.249052" lon="-1.961178"><ele>487</ele><time>2021-11-13T13:55:41Z</time><name>PT7351</name></trkpt>
<trkpt lat="53.249007" lon="-1.961179"><ele>487</ele><time>2021-11-13T13:55:45Z</time><name>PT7352</name></trkpt>
<trkpt lat="53.248965" lon="-1.961180"><ele>488</ele><time>2021-11-13T13:55:49Z</time><name>PT7353</name></trkpt>
<trkpt lat="53.248930" lon="-1.961187"><ele>488</ele><time>2021-11-13T13:55:53Z</time><name>PT7354</name></trkpt>
<trkpt lat="53.248891" lon="-1.961214"><ele>487</ele><time>2021-11-13T13:55:57Z</time><name>PT7355</name></trkpt>
<trkpt lat="53.248845" lon="-1.961237"><ele>486</ele><time>2021-11-13T13:56:01Z</time><name>PT7356</name></trkpt>
<trkpt lat="53.248799" lon="-1.961266"><ele>488</ele><time>2021-11-13T13:56:05Z</time><name>PT7357</name></trkpt>
<trkpt lat="53.248762" lon="-1.961261"><ele>487</ele><time>2021-11-13T13:56:08Z</time><name>PT7358</name></trkpt>
<trkpt lat="53.248711" lon="-1.961257"><ele>488</ele><time>2021-11-13T13:56:12Z</time><name>PT7359</name></trkpt>
<trkpt lat="53.248668" lon="-1.961237"><ele>488</ele><time>2021-11-13T13:56:16Z</time><name>PT7360</name></trkpt>
<trkpt lat="53.248628" lon="-1.961217"><ele>489</ele><time>2021-11-13T13:56:20Z</time><name>PT7361</name></trkpt>
<trkpt lat="53.248581" lon="-1.961210"><ele>490</ele><time>2021-11-13T13:56:24Z</time><name>PT7362</name></trkpt>
<trkpt lat="53.248542" lon="-1.961206"><ele>490</ele><time>2021-11-13T13:56:27Z</time><name>PT7363</name></trkpt>
<trkpt lat="53.248502" lon="-1.961185"><ele>490</ele><time>2021-11-13T13:56:31Z</time><name>PT7364</name></trkpt>
<trkpt lat="53.248448" lon="-1.961186"><ele>490</ele><time>2021-11-13T13:56:35Z</time><name>PT7365</name></trkpt>
<trkpt lat="53.248403" lon="-1.961175"><ele>489</ele><time>2021-11-13T13:56:39Z</time><name>PT7366</name></trkpt>
<trkpt lat="53.248360" lon="-1.961190"><ele>489</ele><time>2021-11-13T13:56:43Z</time><name>PT7367</name></trkpt>
<trkpt lat="53.248327" lon="-1.961191"><ele>489</ele><time>2021-11-13T13:56:47Z</time><name>PT7368</name></trkpt>
<trkpt lat="53.248287" lon="-1.961205"><ele>488</ele><time>2021-11-13T13:56:51Z</time><name>PT7369</name></trkpt>
<trkpt lat="53.248235" lon="-1.961182"><ele>487</ele><time>2021-11-13T13:56:55Z</time><name>PT7370</name></trkpt>
<trkpt lat="53.248195" lon="-1.961173"><ele>488</ele><time>2021-11-13T13:56:58Z</time><name>PT7371</name></trkpt>
<trkpt lat="53.248159" lon="-1.961156"><ele>488</ele><time>2021-11-13T13:57:02Z</time><name>PT7372</name></trkpt>
<trkpt lat="53.248153" lon="-1.961158"><ele>488</ele><time>2021-11-13T13:57:06Z</time><name>PT7373</name></trkpt>
<trkpt lat="53.248124" lon="-1.961146"><ele>488</ele><time>2021-11-13T13:57:10Z</time><name>PT7374</name></trkpt>
<trkpt lat="53.248080" lon="-1.961113"><ele>487</ele><time>2021-11-13T13:57:14Z</time><name>PT7375</name></trkpt>
<trkpt lat="53.248033" lon="-1.961066"><ele>487</ele><time>2021-11-13T13:57:18Z</time><name>PT7376</name></trkpt>
<trkpt lat="53.247990" lon="-1.961030"><ele>486</ele><time>2021-11-13T13:57:22Z</time><name>PT7377</name></trkpt>
<trkpt lat="53.247943" lon="-1.960993"><ele>487</ele><time>2021-11-13T13:57:26Z</time><name>PT7378</name></trkpt>
<trkpt lat="53.247904" lon="-1.960962"><ele>487</ele><time>2021-11-13T13:57:30Z</time><name>PT7379</name></trkpt>
<trkpt lat="53.247857" lon="-1.960936"><ele>488</ele><time>2021-11-13T13:57:34Z</time><name>PT7380</name></trkpt>
<trkpt lat="53.247834" lon="-1.960905"><ele>489</ele><time>2021-11-13T13:57:38Z</time><name>PT7381</name></trkpt>
<trkpt lat="53.247788" lon="-1.960893"><ele>489</ele><time>2021-11-13T13:57:42Z</time><name>PT7382</name></trkpt>
<trkpt lat="53.247736" lon="-1.960886"><ele>489</ele><time>2021-11-13T13:57:46Z</time><name>PT7383</name></trkpt>
<trkpt lat="53.247686" lon="-1.960890"><ele>488</ele><time>2021-11-13T13:57:50Z</time><name>PT7384</name></trkpt>
<trkpt lat="53.247639" lon="-1.960910"><ele>488</ele><time>2021-11-13T13:57:54Z</time><name>PT7385</name></trkpt>
<trkpt lat="53.247585" lon="-1.960934"><ele>488</ele><time>2021-11-13T13:57:58Z</time><name>PT7386</name></trkpt>
<trkpt lat="53.247534" lon="-1.960941"><ele>488</ele><time>2021-11-13T13:58:02Z</time><name>PT7387</name></trkpt>
<trkpt lat="53.247484" lon="-1.960968"><ele>487</ele><time>2021-11-13T13:58:06Z</time><name>PT7388</name></trkpt>
<trkpt lat="53.247437" lon="-1.960976"><ele>486</ele><time>2021-11-13T13:58:10Z</time><name>PT7389</name></trkpt>
<trkpt lat="53.247391" lon="-1.960998"><ele>486</ele><time>2021-11-13T13:58:14Z</time><name>PT7390</name></trkpt>
<trkpt lat="53.247345" lon="-1.960993"><ele>485</ele><time>2021-11-13T13:58:18Z</time><name>PT7391</name></trkpt>
<trkpt lat="53.247302" lon="-1.961005"><ele>486</ele><time>2021-11-13T13:58:22Z</time><name>PT7392</name></trkpt>
<trkpt lat="53.247248" lon="-1.961034"><ele>486</ele><time>2021-11-13T13:58:26Z</time><name>PT7393</name></trkpt>
<trkpt lat="53.247234" lon="-1.961042"><ele>486</ele><time>2021-11-13T13:58:27Z</time><name>PT7394</name></trkpt>
<trkpt lat="53.247223" lon="-1.961047"><ele>486</ele><time>2021-11-13T13:58:28Z</time><name>PT7395</name></trkpt>
<trkpt lat="53.247218" lon="-1.961045"><ele>487</ele><time>2021-11-13T13:58:29Z</time><name>PT7396</name></trkpt>
<trkpt lat="53.247201" lon="-1.961042"><ele>486</ele><time>2021-11-13T13:58:30Z</time><name>PT7397</name></trkpt>
<trkpt lat="53.247185" lon="-1.961040"><ele>485</ele><time>2021-11-13T13:58:31Z</time><name>PT7398</name></trkpt>
<trkpt lat="53.247173" lon="-1.961046"><ele>485</ele><time>2021-11-13T13:58:32Z</time><name>PT7399</name></trkpt>
<trkpt lat="53.247160" lon="-1.961049"><ele>486</ele><time>2021-11-13T13:58:33Z</time><name>PT7400</name></trkpt>
<trkpt lat="53.247147" lon="-1.961054"><ele>486</ele><time>2021-11-13T13:58:34Z</time><name>PT7401</name></trkpt>
<trkpt lat="53.247135" lon="-1.961061"><ele>486</ele><time>2021-11-13T13:58:35Z</time><name>PT7402</name></trkpt>
<trkpt lat="53.247123" lon="-1.961068"><ele>486</ele><time>2021-11-13T13:58:36Z</time><name>PT7403</name></trkpt>
<trkpt lat="53.247111" lon="-1.961070"><ele>486</ele><time>2021-11-13T13:58:37Z</time><name>PT7404</name></trkpt>
<trkpt lat="53.247097" lon="-1.961069"><ele>486</ele><time>2021-11-13T13:58:38Z</time><name>PT7405</name></trkpt>
<trkpt lat="53.247084" lon="-1.961067"><ele>486</ele><time>2021-11-13T13:58:39Z</time><name>PT7406</name></trkpt>
<trkpt lat="53.247072" lon="-1.961071"><ele>486</ele><time>2021-11-13T13:58:40Z</time><name>PT7407</name></trkpt>
<trkpt lat="53.247060" lon="-1.961073"><ele>486</ele><time>2021-11-13T13:58:41Z</time><name>PT7408</name></trkpt>
<trkpt lat="53.247046" lon="-1.961073"><ele>486</ele><time>2021-11-13T13:58:42Z</time><name>PT7409</name></trkpt>
<trkpt lat="53.247033" lon="-1.961073"><ele>486</ele><time>2021-11-13T13:58:43Z</time><name>PT7410</name></trkpt>
<trkpt lat="53.247020" lon="-1.961072"><ele>486</ele><time>2021-11-13T13:58:44Z</time><name>PT7411</name></trkpt>
<trkpt lat="53.247008" lon="-1.961071"><ele>486</ele><time>2021-11-13T13:58:45Z</time><name>PT7412</name></trkpt>
<trkpt lat="53.246994" lon="-1.961072"><ele>486</ele><time>2021-11-13T13:58:46Z</time><name>PT7413</name></trkpt>
<trkpt lat="53.246981" lon="-1.961076"><ele>486</ele><time>2021-11-13T13:58:47Z</time><name>PT7414</name></trkpt>
<trkpt lat="53.246969" lon="-1.961080"><ele>486</ele><time>2021-11-13T13:58:48Z</time><name>PT7415</name></trkpt>
<trkpt lat="53.246958" lon="-1.961080"><ele>486</ele><time>2021-11-13T13:58:49Z</time><name>PT7416</name></trkpt>
<trkpt lat="53.246945" lon="-1.961080"><ele>485</ele><time>2021-11-13T13:58:50Z</time><name>PT7417</name></trkpt>
<trkpt lat="53.246935" lon="-1.961078"><ele>486</ele><time>2021-11-13T13:58:51Z</time><name>PT7418</name></trkpt>
<trkpt lat="53.246923" lon="-1.961076"><ele>485</ele><time>2021-11-13T13:58:52Z</time><name>PT7419</name></trkpt>
<trkpt lat="53.246910" lon="-1.961076"><ele>486</ele><time>2021-11-13T13:58:53Z</time><name>PT7420</name></trkpt>
<trkpt lat="53.246899" lon="-1.961072"><ele>486</ele><time>2021-11-13T13:58:54Z</time><name>PT7421</name></trkpt>
<trkpt lat="53.246893" lon="-1.961066"><ele>486</ele><time>2021-11-13T13:58:55Z</time><name>PT7422</name></trkpt>
<trkpt lat="53.246884" lon="-1.961061"><ele>486</ele><time>2021-11-13T13:58:56Z</time><name>PT7423</name></trkpt>
<trkpt lat="53.246866" lon="-1.961052"><ele>485</ele><time>2021-11-13T13:58:57Z</time><name>PT7424</name></trkpt>
<trkpt lat="53.246853" lon="-1.961050"><ele>485</ele><time>2021-11-13T13:58:58Z</time><name>PT7425</name></trkpt>
<trkpt lat="53.246842" lon="-1.961049"><ele>485</ele><time>2021-11-13T13:58:59Z</time><name>PT7426</name></trkpt>
<trkpt lat="53.246829" lon="-1.961049"><ele>485</ele><time>2021-11-13T13:59:00Z</time><name>PT7427</name></trkpt>
<trkpt lat="53.246816" lon="-1.961046"><ele>485</ele><time>2021-11-13T13:59:01Z</time><name>PT7428</name></trkpt>
<trkpt lat="53.246805" lon="-1.961042"><ele>485</ele><time>2021-11-13T13:59:02Z</time><name>PT7429</name></trkpt>
<trkpt lat="53.246796" lon="-1.961038"><ele>485</ele><time>2021-11-13T13:59:03Z</time><name>PT7430</name></trkpt>
<trkpt lat="53.246784" lon="-1.961031"><ele>485</ele><time>2021-11-13T13:59:04Z</time><name>PT7431</name></trkpt>
<trkpt lat="53.246771" lon="-1.961026"><ele>485</ele><time>2021-11-13T13:59:05Z</time><name>PT7432</name></trkpt>
<trkpt lat="53.246757" lon="-1.961020"><ele>485</ele><time>2021-11-13T13:59:06Z</time><name>PT7433</name></trkpt>
<trkpt lat="53.246745" lon="-1.961016"><ele>485</ele><time>2021-11-13T13:59:07Z</time><name>PT7434</name></trkpt>
<trkpt lat="53.246734" lon="-1.961012"><ele>485</ele><time>2021-11-13T13:59:08Z</time><name>PT7435</name></trkpt>
<trkpt lat="53.246722" lon="-1.961010"><ele>485</ele><time>2021-11-13T13:59:09Z</time><name>PT7436</name></trkpt>
<trkpt lat="53.246708" lon="-1.961009"><ele>485</ele><time>2021-11-13T13:59:10Z</time><name>PT7437</name></trkpt>
<trkpt lat="53.246693" lon="-1.961007"><ele>485</ele><time>2021-11-13T13:59:11Z</time><name>PT7438</name></trkpt>
<trkpt lat="53.246683" lon="-1.961009"><ele>486</ele><time>2021-11-13T13:59:12Z</time><name>PT7439</name></trkpt>
<trkpt lat="53.246674" lon="-1.961012"><ele>486</ele><time>2021-11-13T13:59:13Z</time><name>PT7440</name></trkpt>
<trkpt lat="53.246663" lon="-1.961010"><ele>485</ele><time>2021-11-13T13:59:14Z</time><name>PT7441</name></trkpt>
<trkpt lat="53.246662" lon="-1.961005"><ele>485</ele><time>2021-11-13T13:59:15Z</time><name>PT7442</name></trkpt>
<trkpt lat="53.246663" lon="-1.960999"><ele>485</ele><time>2021-11-13T13:59:16Z</time><name>PT7443</name></trkpt>
<trkpt lat="53.246662" lon="-1.960988"><ele>485</ele><time>2021-11-13T13:59:17Z</time><name>PT7444</name></trkpt>
<trkpt lat="53.246656" lon="-1.960974"><ele>485</ele><time>2021-11-13T13:59:18Z</time><name>PT7445</name></trkpt>
<trkpt lat="53.246649" lon="-1.960965"><ele>484</ele><time>2021-11-13T13:59:19Z</time><name>PT7446</name></trkpt>
<trkpt lat="53.246640" lon="-1.960957"><ele>484</ele><time>2021-11-13T13:59:20Z</time><name>PT7447</name></trkpt>
<trkpt lat="53.246630" lon="-1.960947"><ele>484</ele><time>2021-11-13T13:59:21Z</time><name>PT7448</name></trkpt>
<trkpt lat="53.246621" lon="-1.960936"><ele>484</ele><time>2021-11-13T13:59:22Z</time><name>PT7449</name></trkpt>
<trkpt lat="53.246611" lon="-1.960926"><ele>484</ele><time>2021-11-13T13:59:23Z</time><name>PT7450</name></trkpt>
<trkpt lat="53.246601" lon="-1.960920"><ele>484</ele><time>2021-11-13T13:59:24Z</time><name>PT7451</name></trkpt>
<trkpt lat="53.246593" lon="-1.960913"><ele>484</ele><time>2021-11-13T13:59:25Z</time><name>PT7452</name></trkpt>
<trkpt lat="53.246583" lon="-1.960908"><ele>484</ele><time>2021-11-13T13:59:26Z</time><name>PT7453</name></trkpt>
<trkpt lat="53.246573" lon="-1.960904"><ele>484</ele><time>2021-11-13T13:59:27Z</time><name>PT7454</name></trkpt>
<trkpt lat="53.246562" lon="-1.960907"><ele>484</ele><time>2021-11-13T13:59:28Z</time><name>PT7455</name></trkpt>
<trkpt lat="53.246553" lon="-1.960913"><ele>484</ele><time>2021-11-13T13:59:29Z</time><name>PT7456</name></trkpt>
<trkpt lat="53.246544" lon="-1.960921"><ele>484</ele><time>2021-11-13T13:59:30Z</time><name>PT7457</name></trkpt>
<trkpt lat="53.246540" lon="-1.960928"><ele>484</ele><time>2021-11-13T13:59:31Z</time><name>PT7458</name></trkpt>
<trkpt lat="53.246529" lon="-1.960938"><ele>484</ele><time>2021-11-13T13:59:32Z</time><name>PT7459</name></trkpt>
<trkpt lat="53.246524" lon="-1.960951"><ele>484</ele><time>2021-11-13T13:59:33Z</time><name>PT7460</name></trkpt>
<trkpt lat="53.246516" lon="-1.960963"><ele>484</ele><time>2021-11-13T13:59:34Z</time><name>PT7461</name></trkpt>
<trkpt lat="53.246509" lon="-1.960974"><ele>484</ele><time>2021-11-13T13:59:35Z</time><name>PT7462</name></trkpt>
<trkpt lat="53.246504" lon="-1.960986"><ele>484</ele><time>2021-11-13T13:59:36Z</time><name>PT7463</name></trkpt>
<trkpt lat="53.246498" lon="-1.961001"><ele>484</ele><time>2021-11-13T13:59:37Z</time><name>PT7464</name></trkpt>
<trkpt lat="53.246492" lon="-1.961013"><ele>484</ele><time>2021-11-13T13:59:38Z</time><name>PT7465</name></trkpt>
<trkpt lat="53.246486" lon="-1.961023"><ele>483</ele><time>2021-11-13T13:59:39Z</time><name>PT7466</name></trkpt>
<trkpt lat="53.246479" lon="-1.961035"><ele>483</ele><time>2021-11-13T13:59:40Z</time><name>PT7467</name></trkpt>
<trkpt lat="53.246472" lon="-1.961050"><ele>483</ele><time>2021-11-13T13:59:41Z</time><name>PT7468</name></trkpt>
<trkpt lat="53.246465" lon="-1.961066"><ele>483</ele><time>2021-11-13T13:59:42Z</time><name>PT7469</name></trkpt>
<trkpt lat="53.246462" lon="-1.961071"><ele>482</ele><time>2021-11-13T13:59:43Z</time><name>PT7470</name></trkpt>
<trkpt lat="53.246461" lon="-1.961077"><ele>482</ele><time>2021-11-13T13:59:44Z</time><name>PT7471</name></trkpt>
<trkpt lat="53.246456" lon="-1.961083"><ele>482</ele><time>2021-11-13T13:59:45Z</time><name>PT7472</name></trkpt>
<trkpt lat="53.246449" lon="-1.961092"><ele>481</ele><time>2021-11-13T13:59:46Z</time><name>PT7473</name></trkpt>
<trkpt lat="53.246442" lon="-1.961105"><ele>481</ele><time>2021-11-13T13:59:47Z</time><name>PT7474</name></trkpt>
<trkpt lat="53.246437" lon="-1.961118"><ele>482</ele><time>2021-11-13T13:59:48Z</time><name>PT7475</name></trkpt>
<trkpt lat="53.246431" lon="-1.961128"><ele>482</ele><time>2021-11-13T13:59:49Z</time><name>PT7476</name></trkpt>
<trkpt lat="53.246426" lon="-1.961138"><ele>481</ele><time>2021-11-13T13:59:50Z</time><name>PT7477</name></trkpt>
<trkpt lat="53.246420" lon="-1.961149"><ele>481</ele><time>2021-11-13T13:59:51Z</time><name>PT7478</name></trkpt>
<trkpt lat="53.246415" lon="-1.961160"><ele>481</ele><time>2021-11-13T13:59:52Z</time><name>PT7479</name></trkpt>
<trkpt lat="53.246411" lon="-1.961172"><ele>482</ele><time>2021-11-13T13:59:53Z</time><name>PT7480</name></trkpt>
<trkpt lat="53.246404" lon="-1.961183"><ele>482</ele><time>2021-11-13T13:59:54Z</time><name>PT7481</name></trkpt>
<trkpt lat="53.246400" lon="-1.961192"><ele>482</ele><time>2021-11-13T13:59:55Z</time><name>PT7482</name></trkpt>
<trkpt lat="53.246396" lon="-1.961202"><ele>482</ele><time>2021-11-13T13:59:56Z</time><name>PT7483</name></trkpt>
<trkpt lat="53.246391" lon="-1.961211"><ele>482</ele><time>2021-11-13T13:59:57Z</time><name>PT7484</name></trkpt>
<trkpt lat="53.246385" lon="-1.961225"><ele>482</ele><time>2021-11-13T13:59:58Z</time><name>PT7485</name></trkpt>
<trkpt lat="53.246381" lon="-1.961232"><ele>482</ele><time>2021-11-13T13:59:59Z</time><name>PT7486</name></trkpt>
<trkpt lat="53.246373" lon="-1.961246"><ele>481</ele><time>2021-11-13T14:00:00Z</time><name>PT7487</name></trkpt>
<trkpt lat="53.246366" lon="-1.961256"><ele>481</ele><time>2021-11-13T14:00:01Z</time><name>PT7488</name></trkpt>
<trkpt lat="53.246362" lon="-1.961268"><ele>481</ele><time>2021-11-13T14:00:02Z</time><name>PT7489</name></trkpt>
<trkpt lat="53.246359" lon="-1.961278"><ele>480</ele><time>2021-11-13T14:00:03Z</time><name>PT7490</name></trkpt>
<trkpt lat="53.246355" lon="-1.961284"><ele>480</ele><time>2021-11-13T14:00:04Z</time><name>PT7491</name></trkpt>
<trkpt lat="53.246349" lon="-1.961295"><ele>480</ele><time>2021-11-13T14:00:05Z</time><name>PT7492</name></trkpt>
<trkpt lat="53.246343" lon="-1.961305"><ele>480</ele><time>2021-11-13T14:00:06Z</time><name>PT7493</name></trkpt>
<trkpt lat="53.246338" lon="-1.961316"><ele>480</ele><time>2021-11-13T14:00:07Z</time><name>PT7494</name></trkpt>
<trkpt lat="53.246331" lon="-1.961328"><ele>479</ele><time>2021-11-13T14:00:08Z</time><name>PT7495</name></trkpt>
<trkpt lat="53.246323" lon="-1.961338"><ele>479</ele><time>2021-11-13T14:00:09Z</time><name>PT7496</name></trkpt>
<trkpt lat="53.246316" lon="-1.961350"><ele>479</ele><time>2021-11-13T14:00:10Z</time><name>PT7497</name></trkpt>
<trkpt lat="53.246310" lon="-1.961359"><ele>479</ele><time>2021-11-13T14:00:11Z</time><name>PT7498</name></trkpt>
<trkpt lat="53.246304" lon="-1.961370"><ele>479</ele><time>2021-11-13T14:00:12Z</time><name>PT7499</name></trkpt>
<trkpt lat="53.246296" lon="-1.961382"><ele>479</ele><time>2021-11-13T14:00:13Z</time><name>PT7500</name></trkpt>
<trkpt lat="53.246292" lon="-1.961389"><ele>479</ele><time>2021-11-13T14:00:14Z</time><name>PT7501</name></trkpt>
<trkpt lat="53.246289" lon="-1.961394"><ele>478</ele><time>2021-11-13T14:00:15Z</time><name>PT7502</name></trkpt>
<trkpt lat="53.246286" lon="-1.961396"><ele>477</ele><time>2021-11-13T14:00:16Z</time><name>PT7503</name></trkpt>
<trkpt lat="53.246282" lon="-1.961399"><ele>477</ele><time>2021-11-13T14:00:17Z</time><name>PT7504</name></trkpt>
<trkpt lat="53.246272" lon="-1.961417"><ele>477</ele><time>2021-11-13T14:00:37Z</time><name>PT7505</name></trkpt>
<trkpt lat="53.246243" lon="-1.961484"><ele>476</ele><time>2021-11-13T14:00:41Z</time><name>PT7506</name></trkpt>
<trkpt lat="53.246209" lon="-1.961537"><ele>476</ele><time>2021-11-13T14:00:45Z</time><name>PT7507</name></trkpt>
<trkpt lat="53.246176" lon="-1.961591"><ele>476</ele><time>2021-11-13T14:00:49Z</time><name>PT7508</name></trkpt>
<trkpt lat="53.246140" lon="-1.961650"><ele>476</ele><time>2021-11-13T14:00:53Z</time><name>PT7509</name></trkpt>
<trkpt lat="53.246109" lon="-1.961709"><ele>474</ele><time>2021-11-13T14:00:57Z</time><name>PT7510</name></trkpt>
<trkpt lat="53.246072" lon="-1.961764"><ele>475</ele><time>2021-11-13T14:01:01Z</time><name>PT7511</name></trkpt>
<trkpt lat="53.246044" lon="-1.961809"><ele>475</ele><time>2021-11-13T14:01:05Z</time><name>PT7512</name></trkpt>
<trkpt lat="53.246009" lon="-1.961894"><ele>476</ele><time>2021-11-13T14:01:09Z</time><name>PT7513</name></trkpt>
<trkpt lat="53.245977" lon="-1.961956"><ele>475</ele><time>2021-11-13T14:01:13Z</time><name>PT7514</name></trkpt>
<trkpt lat="53.245941" lon="-1.962017"><ele>474</ele><time>2021-11-13T14:01:17Z</time><name>PT7515</name></trkpt>
<trkpt lat="53.245908" lon="-1.962078"><ele>474</ele><time>2021-11-13T14:01:21Z</time><name>PT7516</name></trkpt>
<trkpt lat="53.245879" lon="-1.962145"><ele>473</ele><time>2021-11-13T14:01:25Z</time><name>PT7517</name></trkpt>
<trkpt lat="53.245840" lon="-1.962202"><ele>472</ele><time>2021-11-13T14:01:29Z</time><name>PT7518</name></trkpt>
<trkpt lat="53.245814" lon="-1.962252"><ele>471</ele><time>2021-11-13T14:01:32Z</time><name>PT7519</name></trkpt>
<trkpt lat="53.245776" lon="-1.962316"><ele>471</ele><time>2021-11-13T14:01:36Z</time><name>PT7520</name></trkpt>
<trkpt lat="53.245739" lon="-1.962382"><ele>469</ele><time>2021-11-13T14:01:40Z</time><name>PT7521</name></trkpt>
<trkpt lat="53.245705" lon="-1.962441"><ele>469</ele><time>2021-11-13T14:01:44Z</time><name>PT7522</name></trkpt>
<trkpt lat="53.245670" lon="-1.962498"><ele>468</ele><time>2021-11-13T14:01:48Z</time><name>PT7523</name></trkpt>
<trkpt lat="53.245642" lon="-1.962569"><ele>468</ele><time>2021-11-13T14:01:52Z</time><name>PT7524</name></trkpt>
<trkpt lat="53.245616" lon="-1.962631"><ele>467</ele><time>2021-11-13T14:01:56Z</time><name>PT7525</name></trkpt>
<trkpt lat="53.245596" lon="-1.962703"><ele>466</ele><time>2021-11-13T14:02:00Z</time><name>PT7526</name></trkpt>
<trkpt lat="53.245572" lon="-1.962757"><ele>466</ele><time>2021-11-13T14:02:04Z</time><name>PT7527</name></trkpt>
<trkpt lat="53.245546" lon="-1.962825"><ele>465</ele><time>2021-11-13T14:02:08Z</time><name>PT7528</name></trkpt>
<trkpt lat="53.245521" lon="-1.962901"><ele>467</ele><time>2021-11-13T14:02:12Z</time><name>PT7529</name></trkpt>
<trkpt lat="53.245494" lon="-1.962986"><ele>468</ele><time>2021-11-13T14:02:16Z</time><name>PT7530</name></trkpt>
<trkpt lat="53.245479" lon="-1.963056"><ele>467</ele><time>2021-11-13T14:02:20Z</time><name>PT7531</name></trkpt>
<trkpt lat="53.245464" lon="-1.963128"><ele>468</ele><time>2021-11-13T14:02:24Z</time><name>PT7532</name></trkpt>
<trkpt lat="53.245444" lon="-1.963203"><ele>468</ele><time>2021-11-13T14:02:28Z</time><name>PT7533</name></trkpt>
<trkpt lat="53.245427" lon="-1.963279"><ele>468</ele><time>2021-11-13T14:02:32Z</time><name>PT7534</name></trkpt>
<trkpt lat="53.245413" lon="-1.963364"><ele>468</ele><time>2021-11-13T14:02:36Z</time><name>PT7535</name></trkpt>
<trkpt lat="53.245407" lon="-1.963447"><ele>470</ele><time>2021-11-13T14:02:40Z</time><name>PT7536</name></trkpt>
<trkpt lat="53.245390" lon="-1.963513"><ele>469</ele><time>2021-11-13T14:02:44Z</time><name>PT7537</name></trkpt>
<trkpt lat="53.245379" lon="-1.963593"><ele>469</ele><time>2021-11-13T14:02:48Z</time><name>PT7538</name></trkpt>
<trkpt lat="53.245369" lon="-1.963677"><ele>468</ele><time>2021-11-13T14:02:52Z</time><name>PT7539</name></trkpt>
<trkpt lat="53.245360" lon="-1.963758"><ele>468</ele><time>2021-11-13T14:02:56Z</time><name>PT7540</name></trkpt>
<trkpt lat="53.245350" lon="-1.963845"><ele>468</ele><time>2021-11-13T14:03:00Z</time><name>PT7541</name></trkpt>
<trkpt lat="53.245334" lon="-1.963936"><ele>468</ele><time>2021-11-13T14:03:04Z</time><name>PT7542</name></trkpt>
<trkpt lat="53.245322" lon="-1.963999"><ele>468</ele><time>2021-11-13T14:03:07Z</time><name>PT7543</name></trkpt>
<trkpt lat="53.245311" lon="-1.964076"><ele>467</ele><time>2021-11-13T14:03:11Z</time><name>PT7544</name></trkpt>
<trkpt lat="53.245297" lon="-1.964144"><ele>468</ele><time>2021-11-13T14:03:15Z</time><name>PT7545</name></trkpt>
<trkpt lat="53.245276" lon="-1.964218"><ele>467</ele><time>2021-11-13T14:03:19Z</time><name>PT7546</name></trkpt>
<trkpt lat="53.245264" lon="-1.964301"><ele>467</ele><time>2021-11-13T14:03:23Z</time><name>PT7547</name></trkpt>
<trkpt lat="53.245243" lon="-1.964377"><ele>467</ele><time>2021-11-13T14:03:27Z</time><name>PT7548</name></trkpt>
<trkpt lat="53.245225" lon="-1.964460"><ele>467</ele><time>2021-11-13T14:03:31Z</time><name>PT7549</name></trkpt>
<trkpt lat="53.245200" lon="-1.964537"><ele>467</ele><time>2021-11-13T14:03:35Z</time><name>PT7550</name></trkpt>
<trkpt lat="53.245179" lon="-1.964606"><ele>466</ele><time>2021-11-13T14:03:39Z</time><name>PT7551</name></trkpt>
<trkpt lat="53.245161" lon="-1.964683"><ele>465</ele><time>2021-11-13T14:03:43Z</time><name>PT7552</name></trkpt>
<trkpt lat="53.245132" lon="-1.964759"><ele>465</ele><time>2021-11-13T14:03:47Z</time><name>PT7553</name></trkpt>
<trkpt lat="53.245110" lon="-1.964847"><ele>465</ele><time>2021-11-13T14:03:51Z</time><name>PT7554</name></trkpt>
<trkpt lat="53.245085" lon="-1.964918"><ele>465</ele><time>2021-11-13T14:03:55Z</time><name>PT7555</name></trkpt>
<trkpt lat="53.245062" lon="-1.965005"><ele>464</ele><time>2021-11-13T14:03:59Z</time><name>PT7556</name></trkpt>
<trkpt lat="53.245034" lon="-1.965076"><ele>464</ele><time>2021-11-13T14:04:03Z</time><name>PT7557</name></trkpt>
<trkpt lat="53.245006" lon="-1.965137"><ele>463</ele><time>2021-11-13T14:04:07Z</time><name>PT7558</name></trkpt>
<trkpt lat="53.244973" lon="-1.965198"><ele>463</ele><time>2021-11-13T14:04:11Z</time><name>PT7559</name></trkpt>
<trkpt lat="53.244951" lon="-1.965266"><ele>462</ele><time>2021-11-13T14:04:15Z</time><name>PT7560</name></trkpt>
<trkpt lat="53.244924" lon="-1.965341"><ele>463</ele><time>2021-11-13T14:04:19Z</time><name>PT7561</name></trkpt>
<trkpt lat="53.244886" lon="-1.965404"><ele>462</ele><time>2021-11-13T14:04:23Z</time><name>PT7562</name></trkpt>
<trkpt lat="53.244857" lon="-1.965478"><ele>461</ele><time>2021-11-13T14:04:27Z</time><name>PT7563</name></trkpt>
<trkpt lat="53.244827" lon="-1.965536"><ele>460</ele><time>2021-11-13T14:04:31Z</time><name>PT7564</name></trkpt>
<trkpt lat="53.244801" lon="-1.965594"><ele>460</ele><time>2021-11-13T14:04:34Z</time><name>PT7565</name></trkpt>
<trkpt lat="53.244768" lon="-1.965638"><ele>459</ele><time>2021-11-13T14:04:38Z</time><name>PT7566</name></trkpt>
<trkpt lat="53.244730" lon="-1.965705"><ele>459</ele><time>2021-11-13T14:04:42Z</time><name>PT7567</name></trkpt>
<trkpt lat="53.244694" lon="-1.965749"><ele>460</ele><time>2021-11-13T14:04:46Z</time><name>PT7568</name></trkpt>
<trkpt lat="53.244657" lon="-1.965805"><ele>459</ele><time>2021-11-13T14:04:50Z</time><name>PT7569</name></trkpt>
<trkpt lat="53.244618" lon="-1.965857"><ele>459</ele><time>2021-11-13T14:04:54Z</time><name>PT7570</name></trkpt>
<trkpt lat="53.244581" lon="-1.965913"><ele>458</ele><time>2021-11-13T14:04:58Z</time><name>PT7571</name></trkpt>
<trkpt lat="53.244542" lon="-1.965967"><ele>458</ele><time>2021-11-13T14:05:02Z</time><name>PT7572</name></trkpt>
<trkpt lat="53.244500" lon="-1.966034"><ele>458</ele><time>2021-11-13T14:05:06Z</time><name>PT7573</name></trkpt>
<trkpt lat="53.244449" lon="-1.966077"><ele>458</ele><time>2021-11-13T14:05:10Z</time><name>PT7574</name></trkpt>
<trkpt lat="53.244407" lon="-1.966128"><ele>457</ele><time>2021-11-13T14:05:14Z</time><name>PT7575</name></trkpt>
<trkpt lat="53.244362" lon="-1.966180"><ele>456</ele><time>2021-11-13T14:05:18Z</time><name>PT7576</name></trkpt>
<trkpt lat="53.244318" lon="-1.966237"><ele>455</ele><time>2021-11-13T14:05:22Z</time><name>PT7577</name></trkpt>
<trkpt lat="53.244275" lon="-1.966279"><ele>454</ele><time>2021-11-13T14:05:26Z</time><name>PT7578</name></trkpt>
<trkpt lat="53.244238" lon="-1.966319"><ele>455</ele><time>2021-11-13T14:05:30Z</time><name>PT7579</name></trkpt>
<trkpt lat="53.244203" lon="-1.966376"><ele>456</ele><time>2021-11-13T14:05:34Z</time><name>PT7580</name></trkpt>
<trkpt lat="53.244169" lon="-1.966421"><ele>454</ele><time>2021-11-13T14:05:38Z</time><name>PT7581</name></trkpt>
<trkpt lat="53.244133" lon="-1.966487"><ele>454</ele><time>2021-11-13T14:05:42Z</time><name>PT7582</name></trkpt>
<trkpt lat="53.244091" lon="-1.966538"><ele>454</ele><time>2021-11-13T14:05:46Z</time><name>PT7583</name></trkpt>
<trkpt lat="53.244057" lon="-1.966600"><ele>453</ele><time>2021-11-13T14:05:50Z</time><name>PT7584</name></trkpt>
<trkpt lat="53.244021" lon="-1.966644"><ele>452</ele><time>2021-11-13T14:05:54Z</time><name>PT7585</name></trkpt>
<trkpt lat="53.243975" lon="-1.966707"><ele>453</ele><time>2021-11-13T14:05:58Z</time><name>PT7586</name></trkpt>
<trkpt lat="53.243938" lon="-1.966765"><ele>454</ele><time>2021-11-13T14:06:02Z</time><name>PT7587</name></trkpt>
<trkpt lat="53.243900" lon="-1.966821"><ele>454</ele><time>2021-11-13T14:06:06Z</time><name>PT7588</name></trkpt>
<trkpt lat="53.243861" lon="-1.966875"><ele>455</ele><time>2021-11-13T14:06:10Z</time><name>PT7589</name></trkpt>
<trkpt lat="53.243824" lon="-1.966930"><ele>455</ele><time>2021-11-13T14:06:14Z</time><name>PT7590</name></trkpt>
<trkpt lat="53.243789" lon="-1.966988"><ele>454</ele><time>2021-11-13T14:06:18Z</time><name>PT7591</name></trkpt>
<trkpt lat="53.243750" lon="-1.967033"><ele>454</ele><time>2021-11-13T14:06:22Z</time><name>PT7592</name></trkpt>
<trkpt lat="53.243706" lon="-1.967098"><ele>453</ele><time>2021-11-13T14:06:26Z</time><name>PT7593</name></trkpt>
<trkpt lat="53.243669" lon="-1.967146"><ele>453</ele><time>2021-11-13T14:06:30Z</time><name>PT7594</name></trkpt>
<trkpt lat="53.243629" lon="-1.967214"><ele>453</ele><time>2021-11-13T14:06:34Z</time><name>PT7595</name></trkpt>
<trkpt lat="53.243592" lon="-1.967258"><ele>452</ele><time>2021-11-13T14:06:38Z</time><name>PT7596</name></trkpt>
<trkpt lat="53.243553" lon="-1.967322"><ele>452</ele><time>2021-11-13T14:06:42Z</time><name>PT7597</name></trkpt>
<trkpt lat="53.243512" lon="-1.967379"><ele>452</ele><time>2021-11-13T14:06:46Z</time><name>PT7598</name></trkpt>
<trkpt lat="53.243473" lon="-1.967446"><ele>452</ele><time>2021-11-13T14:06:50Z</time><name>PT7599</name></trkpt>
<trkpt lat="53.243432" lon="-1.967499"><ele>452</ele><time>2021-11-13T14:06:54Z</time><name>PT7600</name></trkpt>
<trkpt lat="53.243400" lon="-1.967557"><ele>451</ele><time>2021-11-13T14:06:58Z</time><name>PT7601</name></trkpt>
<trkpt lat="53.243367" lon="-1.967611"><ele>450</ele><time>2021-11-13T14:07:02Z</time><name>PT7602</name></trkpt>
<trkpt lat="53.243330" lon="-1.967661"><ele>450</ele><time>2021-11-13T14:07:06Z</time><name>PT7603</name></trkpt>
<trkpt lat="53.243292" lon="-1.967704"><ele>451</ele><time>2021-11-13T14:07:10Z</time><name>PT7604</name></trkpt>
<trkpt lat="53.243252" lon="-1.967757"><ele>450</ele><time>2021-11-13T14:07:14Z</time><name>PT7605</name></trkpt>
<trkpt lat="53.243210" lon="-1.967812"><ele>450</ele><time>2021-11-13T14:07:18Z</time><name>PT7606</name></trkpt>
<trkpt lat="53.243179" lon="-1.967876"><ele>451</ele><time>2021-11-13T14:07:22Z</time><name>PT7607</name></trkpt>
<trkpt lat="53.243146" lon="-1.967929"><ele>450</ele><time>2021-11-13T14:07:26Z</time><name>PT7608</name></trkpt>
<trkpt lat="53.243106" lon="-1.967977"><ele>450</ele><time>2021-11-13T14:07:30Z</time><name>PT7609</name></trkpt>
<trkpt lat="53.243062" lon="-1.968044"><ele>448</ele><time>2021-11-13T14:07:34Z</time><name>PT7610</name></trkpt>
<trkpt lat="53.243021" lon="-1.968114"><ele>449</ele><time>2021-11-13T14:07:38Z</time><name>PT7611</name></trkpt>
<trkpt lat="53.242980" lon="-1.968172"><ele>447</ele><time>2021-11-13T14:07:42Z</time><name>PT7612</name></trkpt>
<trkpt lat="53.242945" lon="-1.968230"><ele>446</ele><time>2021-11-13T14:07:46Z</time><name>PT7613</name></trkpt>
<trkpt lat="53.242905" lon="-1.968295"><ele>446</ele><time>2021-11-13T14:07:50Z</time><name>PT7614</name></trkpt>
<trkpt lat="53.242889" lon="-1.968350"><ele>446</ele><time>2021-11-13T14:07:54Z</time><name>PT7615</name></trkpt>
<trkpt lat="53.242865" lon="-1.968390"><ele>445</ele><time>2021-11-13T14:07:58Z</time><name>PT7616</name></trkpt>
<trkpt lat="53.242840" lon="-1.968444"><ele>445</ele><time>2021-11-13T14:08:02Z</time><name>PT7617</name></trkpt>
<trkpt lat="53.242819" lon="-1.968491"><ele>445</ele><time>2021-11-13T14:08:06Z</time><name>PT7618</name></trkpt>
<trkpt lat="53.242814" lon="-1.968520"><ele>445</ele><time>2021-11-13T14:08:10Z</time><name>PT7619</name></trkpt>
<trkpt lat="53.242798" lon="-1.968555"><ele>444</ele><time>2021-11-13T14:08:14Z</time><name>PT7620</name></trkpt>
<trkpt lat="53.242778" lon="-1.968624"><ele>444</ele><time>2021-11-13T14:08:18Z</time><name>PT7621</name></trkpt>
<trkpt lat="53.242747" lon="-1.968683"><ele>444</ele><time>2021-11-13T14:08:22Z</time><name>PT7622</name></trkpt>
<trkpt lat="53.242725" lon="-1.968745"><ele>442</ele><time>2021-11-13T14:08:26Z</time><name>PT7623</name></trkpt>
<trkpt lat="53.242709" lon="-1.968827"><ele>442</ele><time>2021-11-13T14:08:30Z</time><name>PT7624</name></trkpt>
<trkpt lat="53.242682" lon="-1.968901"><ele>442</ele><time>2021-11-13T14:08:34Z</time><name>PT7625</name></trkpt>
<trkpt lat="53.242656" lon="-1.968970"><ele>442</ele><time>2021-11-13T14:08:38Z</time><name>PT7626</name></trkpt>
<trkpt lat="53.242623" lon="-1.969046"><ele>442</ele><time>2021-11-13T14:08:42Z</time><name>PT7627</name></trkpt>
<trkpt lat="53.242599" lon="-1.969124"><ele>442</ele><time>2021-11-13T14:08:46Z</time><name>PT7628</name></trkpt>
<trkpt lat="53.242577" lon="-1.969211"><ele>442</ele><time>2021-11-13T14:08:50Z</time><name>PT7629</name></trkpt>
<trkpt lat="53.242558" lon="-1.969291"><ele>442</ele><time>2021-11-13T14:08:54Z</time><name>PT7630</name></trkpt>
<trkpt lat="53.242541" lon="-1.969372"><ele>442</ele><time>2021-11-13T14:08:58Z</time><name>PT7631</name></trkpt>
<trkpt lat="53.242527" lon="-1.969451"><ele>442</ele><time>2021-11-13T14:09:02Z</time><name>PT7632</name></trkpt>
<trkpt lat="53.242508" lon="-1.969525"><ele>441</ele><time>2021-11-13T14:09:06Z</time><name>PT7633</name></trkpt>
<trkpt lat="53.242487" lon="-1.969595"><ele>441</ele><time>2021-11-13T14:09:10Z</time><name>PT7634</name></trkpt>
<trkpt lat="53.242475" lon="-1.969672"><ele>441</ele><time>2021-11-13T14:09:14Z</time><name>PT7635</name></trkpt>
<trkpt lat="53.242468" lon="-1.969765"><ele>442</ele><time>2021-11-13T14:09:18Z</time><name>PT7636</name></trkpt>
<trkpt lat="53.242454" lon="-1.969847"><ele>442</ele><time>2021-11-13T14:09:22Z</time><name>PT7637</name></trkpt>
<trkpt lat="53.242437" lon="-1.969936"><ele>442</ele><time>2021-11-13T14:09:26Z</time><name>PT7638</name></trkpt>
<trkpt lat="53.242422" lon="-1.970021"><ele>441</ele><time>2021-11-13T14:09:30Z</time><name>PT7639</name></trkpt>
<trkpt lat="53.242412" lon="-1.970096"><ele>441</ele><time>2021-11-13T14:09:34Z</time><name>PT7640</name></trkpt>
<trkpt lat="53.242406" lon="-1.970158"><ele>442</ele><time>2021-11-13T14:09:38Z</time><name>PT7641</name></trkpt>
<trkpt lat="53.242390" lon="-1.970217"><ele>441</ele><time>2021-11-13T14:09:42Z</time><name>PT7642</name></trkpt>
<trkpt lat="53.242369" lon="-1.970286"><ele>441</ele><time>2021-11-13T14:09:46Z</time><name>PT7643</name></trkpt>
<trkpt lat="53.242360" lon="-1.970366"><ele>440</ele><time>2021-11-13T14:09:50Z</time><name>PT7644</name></trkpt>
<trkpt lat="53.242353" lon="-1.970449"><ele>440</ele><time>2021-11-13T14:09:54Z</time><name>PT7645</name></trkpt>
<trkpt lat="53.242332" lon="-1.970526"><ele>441</ele><time>2021-11-13T14:09:58Z</time><name>PT7646</name></trkpt>
<trkpt lat="53.242315" lon="-1.970608"><ele>440</ele><time>2021-11-13T14:10:02Z</time><name>PT7647</name></trkpt>
<trkpt lat="53.242299" lon="-1.970687"><ele>440</ele><time>2021-11-13T14:10:06Z</time><name>PT7648</name></trkpt>
<trkpt lat="53.242286" lon="-1.970771"><ele>440</ele><time>2021-11-13T14:10:10Z</time><name>PT7649</name></trkpt>
<trkpt lat="53.242270" lon="-1.970865"><ele>439</ele><time>2021-11-13T14:10:14Z</time><name>PT7650</name></trkpt>
<trkpt lat="53.242255" lon="-1.970940"><ele>440</ele><time>2021-11-13T14:10:18Z</time><name>PT7651</name></trkpt>
<trkpt lat="53.242244" lon="-1.971024"><ele>439</ele><time>2021-11-13T14:10:22Z</time><name>PT7652</name></trkpt>
<trkpt lat="53.242224" lon="-1.971110"><ele>439</ele><time>2021-11-13T14:10:26Z</time><name>PT7653</name></trkpt>
<trkpt lat="53.242215" lon="-1.971192"><ele>439</ele><time>2021-11-13T14:10:30Z</time><name>PT7654</name></trkpt>
<trkpt lat="53.242197" lon="-1.971269"><ele>439</ele><time>2021-11-13T14:10:34Z</time><name>PT7655</name></trkpt>
<trkpt lat="53.242187" lon="-1.971353"><ele>438</ele><time>2021-11-13T14:10:38Z</time><name>PT7656</name></trkpt>
<trkpt lat="53.242172" lon="-1.971434"><ele>438</ele><time>2021-11-13T14:10:42Z</time><name>PT7657</name></trkpt>
<trkpt lat="53.242165" lon="-1.971522"><ele>439</ele><time>2021-11-13T14:10:46Z</time><name>PT7658</name></trkpt>
<trkpt lat="53.242154" lon="-1.971614"><ele>439</ele><time>2021-11-13T14:10:50Z</time><name>PT7659</name></trkpt>
<trkpt lat="53.242139" lon="-1.971705"><ele>438</ele><time>2021-11-13T14:10:54Z</time><name>PT7660</name></trkpt>
<trkpt lat="53.242121" lon="-1.971788"><ele>438</ele><time>2021-11-13T14:10:58Z</time><name>PT7661</name></trkpt>
<trkpt lat="53.242111" lon="-1.971874"><ele>438</ele><time>2021-11-13T14:11:02Z</time><name>PT7662</name></trkpt>
<trkpt lat="53.242096" lon="-1.971953"><ele>438</ele><time>2021-11-13T14:11:06Z</time><name>PT7663</name></trkpt>
<trkpt lat="53.242073" lon="-1.972032"><ele>437</ele><time>2021-11-13T14:11:10Z</time><name>PT7664</name></trkpt>
<trkpt lat="53.242060" lon="-1.972111"><ele>437</ele><time>2021-11-13T14:11:14Z</time><name>PT7665</name></trkpt>
<trkpt lat="53.242041" lon="-1.972189"><ele>437</ele><time>2021-11-13T14:11:18Z</time><name>PT7666</name></trkpt>
<trkpt lat="53.242011" lon="-1.972260"><ele>437</ele><time>2021-11-13T14:11:22Z</time><name>PT7667</name></trkpt>
<trkpt lat="53.241979" lon="-1.972332"><ele>437</ele><time>2021-11-13T14:11:26Z</time><name>PT7668</name></trkpt>
<trkpt lat="53.241941" lon="-1.972381"><ele>437</ele><time>2021-11-13T14:11:30Z</time><name>PT7669</name></trkpt>
<trkpt lat="53.241897" lon="-1.972429"><ele>437</ele><time>2021-11-13T14:11:34Z</time><name>PT7670</name></trkpt>
<trkpt lat="53.241853" lon="-1.972477"><ele>437</ele><time>2021-11-13T14:11:38Z</time><name>PT7671</name></trkpt>
<trkpt lat="53.241816" lon="-1.972514"><ele>437</ele><time>2021-11-13T14:11:42Z</time><name>PT7672</name></trkpt>
<trkpt lat="53.241777" lon="-1.972553"><ele>437</ele><time>2021-11-13T14:11:46Z</time><name>PT7673</name></trkpt>
<trkpt lat="53.241739" lon="-1.972597"><ele>437</ele><time>2021-11-13T14:11:50Z</time><name>PT7674</name></trkpt>
<trkpt lat="53.241699" lon="-1.972637"><ele>436</ele><time>2021-11-13T14:11:54Z</time><name>PT7675</name></trkpt>
<trkpt lat="53.241660" lon="-1.972669"><ele>436</ele><time>2021-11-13T14:11:58Z</time><name>PT7676</name></trkpt>
<trkpt lat="53.241617" lon="-1.972723"><ele>435</ele><time>2021-11-13T14:12:02Z</time><name>PT7677</name></trkpt>
<trkpt lat="53.241582" lon="-1.972763"><ele>434</ele><time>2021-11-13T14:12:06Z</time><name>PT7678</name></trkpt>
<trkpt lat="53.241550" lon="-1.972810"><ele>434</ele><time>2021-11-13T14:12:10Z</time><name>PT7679</name></trkpt>
<trkpt lat="53.241524" lon="-1.972855"><ele>433</ele><time>2021-11-13T14:12:14Z</time><name>PT7680</name></trkpt>
<trkpt lat="53.241502" lon="-1.972915"><ele>432</ele><time>2021-11-13T14:12:18Z</time><name>PT7681</name></trkpt>
<trkpt lat="53.241486" lon="-1.972972"><ele>430</ele><time>2021-11-13T14:12:22Z</time><name>PT7682</name></trkpt>
<trkpt lat="53.241476" lon="-1.973040"><ele>429</ele><time>2021-11-13T14:12:26Z</time><name>PT7683</name></trkpt>
<trkpt lat="53.241457" lon="-1.973103"><ele>428</ele><time>2021-11-13T14:12:30Z</time><name>PT7684</name></trkpt>
<trkpt lat="53.241446" lon="-1.973153"><ele>428</ele><time>2021-11-13T14:12:34Z</time><name>PT7685</name></trkpt>
<trkpt lat="53.241440" lon="-1.973208"><ele>426</ele><time>2021-11-13T14:12:38Z</time><name>PT7686</name></trkpt>
<trkpt lat="53.241442" lon="-1.973274"><ele>425</ele><time>2021-11-13T14:12:42Z</time><name>PT7687</name></trkpt>
<trkpt lat="53.241430" lon="-1.973356"><ele>424</ele><time>2021-11-13T14:12:46Z</time><name>PT7688</name></trkpt>
<trkpt lat="53.241423" lon="-1.973465"><ele>424</ele><time>2021-11-13T14:12:50Z</time><name>PT7689</name></trkpt>
<trkpt lat="53.241426" lon="-1.973545"><ele>423</ele><time>2021-11-13T14:12:54Z</time><name>PT7690</name></trkpt>
<trkpt lat="53.241423" lon="-1.973651"><ele>422</ele><time>2021-11-13T14:12:58Z</time><name>PT7691</name></trkpt>
<trkpt lat="53.241415" lon="-1.973719"><ele>423</ele><time>2021-11-13T14:13:01Z</time><name>PT7692</name></trkpt>
<trkpt lat="53.241417" lon="-1.973817"><ele>424</ele><time>2021-11-13T14:13:05Z</time><name>PT7693</name></trkpt>
<trkpt lat="53.241416" lon="-1.973866"><ele>423</ele><time>2021-11-13T14:13:08Z</time><name>PT7694</name></trkpt>
<trkpt lat="53.241408" lon="-1.973962"><ele>423</ele><time>2021-11-13T14:13:12Z</time><name>PT7695</name></trkpt>
<trkpt lat="53.241400" lon="-1.974049"><ele>424</ele><time>2021-11-13T14:13:16Z</time><name>PT7696</name></trkpt>
<trkpt lat="53.241400" lon="-1.974121"><ele>423</ele><time>2021-11-13T14:13:19Z</time><name>PT7697</name></trkpt>
<trkpt lat="53.241393" lon="-1.974215"><ele>423</ele><time>2021-11-13T14:13:23Z</time><name>PT7698</name></trkpt>
<trkpt lat="53.241389" lon="-1.974290"><ele>423</ele><time>2021-11-13T14:13:26Z</time><name>PT7699</name></trkpt>
<trkpt lat="53.241378" lon="-1.974348"><ele>424</ele><time>2021-11-13T14:13:29Z</time><name>PT7700</name></trkpt>
<trkpt lat="53.241371" lon="-1.974366"><ele>423</ele><time>2021-11-13T14:13:30Z</time><name>PT7701</name></trkpt>
<trkpt lat="53.241366" lon="-1.974394"><ele>423</ele><time>2021-11-13T14:13:31Z</time><name>PT7702</name></trkpt>
<trkpt lat="53.241358" lon="-1.974423"><ele>423</ele><time>2021-11-13T14:13:32Z</time><name>PT7703</name></trkpt>
<trkpt lat="53.241351" lon="-1.974448"><ele>422</ele><time>2021-11-13T14:13:33Z</time><name>PT7704</name></trkpt>
<trkpt lat="53.241343" lon="-1.974472"><ele>422</ele><time>2021-11-13T14:13:34Z</time><name>PT7705</name></trkpt>
<trkpt lat="53.241330" lon="-1.974492"><ele>422</ele><time>2021-11-13T14:13:35Z</time><name>PT7706</name></trkpt>
<trkpt lat="53.241323" lon="-1.974502"><ele>422</ele><time>2021-11-13T14:13:36Z</time><name>PT7707</name></trkpt>
<trkpt lat="53.241319" lon="-1.974511"><ele>422</ele><time>2021-11-13T14:13:37Z</time><name>PT7708</name></trkpt>
<trkpt lat="53.241317" lon="-1.974514"><ele>422</ele><time>2021-11-13T14:13:38Z</time><name>PT7709</name></trkpt>
<trkpt lat="53.241317" lon="-1.974512"><ele>422</ele><time>2021-11-13T14:13:39Z</time><name>PT7710</name></trkpt>
<trkpt lat="53.241318" lon="-1.974510"><ele>422</ele><time>2021-11-13T14:13:40Z</time><name>PT7711</name></trkpt>
<trkpt lat="53.241317" lon="-1.974510"><ele>421</ele><time>2021-11-13T14:13:44Z</time><name>PT7712</name></trkpt>
<trkpt lat="53.241308" lon="-1.974502"><ele>422</ele><time>2021-11-13T14:13:45Z</time><name>PT7713</name></trkpt>
<trkpt lat="53.241301" lon="-1.974489"><ele>422</ele><time>2021-11-13T14:13:46Z</time><name>PT7714</name></trkpt>
<trkpt lat="53.241296" lon="-1.974475"><ele>421</ele><time>2021-11-13T14:13:47Z</time><name>PT7715</name></trkpt>
<trkpt lat="53.241292" lon="-1.974461"><ele>421</ele><time>2021-11-13T14:13:48Z</time><name>PT7716</name></trkpt>
<trkpt lat="53.241288" lon="-1.974448"><ele>422</ele><time>2021-11-13T14:13:49Z</time><name>PT7717</name></trkpt></trkseg></trk></gpx>